<?xml version="1.0" encoding="UTF-8" standalone="no" ?>
<gpx xmlns="http://www.topografix.com/GPX/1/1" xmlns:xsi="http://www.w3.org/2001/XMLSchema-instance" xsi:schemaLocation="http://www.topografix.com/GPX/1/1 http://www.topografix.com/GPX/1/1/gpx.xsd" version="1.1" creator="VisuGPX - https://www.visugpx.com">
  <metadata>
    <name>Voray 21/12</name>
    <desc><![CDATA[avec Yves et M-F par temps gris 6° mais route sèche]]></desc>
  </metadata>
  <trk>
    <name><![CDATA[2017-12-21T11:53:54Z]]></name>
    <trkseg>
      <trkpt lat="47.34278" lon="6.01548">
        <ele>227.6</ele>
        <time>2017-12-21T11:54:41Z</time>
      </trkpt>
      <trkpt lat="47.34279" lon="6.01546">
        <ele>227.6</ele>
        <time>2017-12-21T11:54:42Z</time>
      </trkpt>
      <trkpt lat="47.34281" lon="6.01545">
        <ele>227.6</ele>
        <time>2017-12-21T11:54:43Z</time>
      </trkpt>
      <trkpt lat="47.34283" lon="6.01542">
        <ele>227.6</ele>
        <time>2017-12-21T11:54:44Z</time>
      </trkpt>
      <trkpt lat="47.34285" lon="6.0154">
        <ele>227.6</ele>
        <time>2017-12-21T11:54:45Z</time>
      </trkpt>
      <trkpt lat="47.34286" lon="6.01537">
        <ele>227.6</ele>
        <time>2017-12-21T11:54:46Z</time>
      </trkpt>
      <trkpt lat="47.34287" lon="6.01535">
        <ele>227.6</ele>
        <time>2017-12-21T11:54:47Z</time>
      </trkpt>
      <trkpt lat="47.34287" lon="6.01532">
        <ele>227.6</ele>
        <time>2017-12-21T11:54:48Z</time>
      </trkpt>
      <trkpt lat="47.34287" lon="6.01529">
        <ele>227.6</ele>
        <time>2017-12-21T11:54:49Z</time>
      </trkpt>
      <trkpt lat="47.34287" lon="6.01526">
        <ele>227.6</ele>
        <time>2017-12-21T11:54:50Z</time>
      </trkpt>
      <trkpt lat="47.34287" lon="6.01524">
        <ele>227.6</ele>
        <time>2017-12-21T11:54:51Z</time>
      </trkpt>
      <trkpt lat="47.34286" lon="6.01521">
        <ele>227.6</ele>
        <time>2017-12-21T11:54:52Z</time>
      </trkpt>
      <trkpt lat="47.34285" lon="6.01518">
        <ele>227.6</ele>
        <time>2017-12-21T11:54:53Z</time>
      </trkpt>
      <trkpt lat="47.34284" lon="6.01516">
        <ele>227.6</ele>
        <time>2017-12-21T11:54:54Z</time>
      </trkpt>
      <trkpt lat="47.34283" lon="6.01513">
        <ele>227.6</ele>
        <time>2017-12-21T11:54:55Z</time>
      </trkpt>
      <trkpt lat="47.34281" lon="6.0151">
        <ele>227.6</ele>
        <time>2017-12-21T11:54:56Z</time>
      </trkpt>
      <trkpt lat="47.34279" lon="6.01507">
        <ele>227.6</ele>
        <time>2017-12-21T11:54:57Z</time>
      </trkpt>
      <trkpt lat="47.34278" lon="6.01504">
        <ele>227.6</ele>
        <time>2017-12-21T11:54:58Z</time>
      </trkpt>
      <trkpt lat="47.34276" lon="6.015">
        <ele>227.6</ele>
        <time>2017-12-21T11:54:59Z</time>
      </trkpt>
      <trkpt lat="47.34274" lon="6.01497">
        <ele>227.6</ele>
        <time>2017-12-21T11:55:00Z</time>
      </trkpt>
      <trkpt lat="47.34272" lon="6.01493">
        <ele>227.6</ele>
        <time>2017-12-21T11:55:01Z</time>
      </trkpt>
      <trkpt lat="47.3427" lon="6.01489">
        <ele>227.6</ele>
        <time>2017-12-21T11:55:02Z</time>
      </trkpt>
      <trkpt lat="47.34267" lon="6.01485">
        <ele>227.6</ele>
        <time>2017-12-21T11:55:03Z</time>
      </trkpt>
      <trkpt lat="47.34265" lon="6.01481">
        <ele>227.6</ele>
        <time>2017-12-21T11:55:04Z</time>
      </trkpt>
      <trkpt lat="47.34263" lon="6.01477">
        <ele>227.6</ele>
        <time>2017-12-21T11:55:05Z</time>
      </trkpt>
      <trkpt lat="47.3426" lon="6.01473">
        <ele>227.6</ele>
        <time>2017-12-21T11:55:06Z</time>
      </trkpt>
      <trkpt lat="47.34258" lon="6.01469">
        <ele>227.6</ele>
        <time>2017-12-21T11:55:07Z</time>
      </trkpt>
      <trkpt lat="47.34256" lon="6.01465">
        <ele>227.6</ele>
        <time>2017-12-21T11:55:08Z</time>
      </trkpt>
      <trkpt lat="47.34253" lon="6.01461">
        <ele>227.6</ele>
        <time>2017-12-21T11:55:09Z</time>
      </trkpt>
      <trkpt lat="47.34251" lon="6.01457">
        <ele>227.6</ele>
        <time>2017-12-21T11:55:10Z</time>
      </trkpt>
      <trkpt lat="47.34251" lon="6.01451">
        <ele>227.6</ele>
        <time>2017-12-21T11:55:11Z</time>
      </trkpt>
      <trkpt lat="47.34252" lon="6.01445">
        <ele>227.6</ele>
        <time>2017-12-21T11:55:12Z</time>
      </trkpt>
      <trkpt lat="47.34253" lon="6.0144">
        <ele>227.6</ele>
        <time>2017-12-21T11:55:13Z</time>
      </trkpt>
      <trkpt lat="47.34256" lon="6.01436">
        <ele>227.6</ele>
        <time>2017-12-21T11:55:14Z</time>
      </trkpt>
      <trkpt lat="47.3426" lon="6.01435">
        <ele>227.6</ele>
        <time>2017-12-21T11:55:15Z</time>
      </trkpt>
      <trkpt lat="47.34263" lon="6.01433">
        <ele>227.6</ele>
        <time>2017-12-21T11:55:16Z</time>
      </trkpt>
      <trkpt lat="47.34266" lon="6.01429">
        <ele>227.6</ele>
        <time>2017-12-21T11:55:17Z</time>
      </trkpt>
      <trkpt lat="47.34268" lon="6.01427">
        <ele>227.6</ele>
        <time>2017-12-21T11:55:18Z</time>
      </trkpt>
      <trkpt lat="47.34271" lon="6.01424">
        <ele>227.6</ele>
        <time>2017-12-21T11:55:19Z</time>
      </trkpt>
      <trkpt lat="47.34274" lon="6.01421">
        <ele>227.6</ele>
        <time>2017-12-21T11:55:20Z</time>
      </trkpt>
      <trkpt lat="47.34277" lon="6.01418">
        <ele>227.6</ele>
        <time>2017-12-21T11:55:21Z</time>
      </trkpt>
      <trkpt lat="47.34281" lon="6.01415">
        <ele>227.6</ele>
        <time>2017-12-21T11:55:22Z</time>
      </trkpt>
      <trkpt lat="47.34284" lon="6.01412">
        <ele>227.6</ele>
        <time>2017-12-21T11:55:23Z</time>
      </trkpt>
      <trkpt lat="47.34287" lon="6.01408">
        <ele>227.6</ele>
        <time>2017-12-21T11:55:24Z</time>
      </trkpt>
      <trkpt lat="47.34289" lon="6.01405">
        <ele>227.6</ele>
        <time>2017-12-21T11:55:25Z</time>
      </trkpt>
      <trkpt lat="47.34292" lon="6.01401">
        <ele>227.6</ele>
        <time>2017-12-21T11:55:26Z</time>
      </trkpt>
      <trkpt lat="47.34295" lon="6.01397">
        <ele>227.6</ele>
        <time>2017-12-21T11:55:27Z</time>
      </trkpt>
      <trkpt lat="47.34298" lon="6.01393">
        <ele>227.6</ele>
        <time>2017-12-21T11:55:28Z</time>
      </trkpt>
      <trkpt lat="47.343" lon="6.01389">
        <ele>227.6</ele>
        <time>2017-12-21T11:55:29Z</time>
      </trkpt>
      <trkpt lat="47.34303" lon="6.01385">
        <ele>227.6</ele>
        <time>2017-12-21T11:55:30Z</time>
      </trkpt>
      <trkpt lat="47.34305" lon="6.01381">
        <ele>227.6</ele>
        <time>2017-12-21T11:55:31Z</time>
      </trkpt>
      <trkpt lat="47.34308" lon="6.01377">
        <ele>227.6</ele>
        <time>2017-12-21T11:55:32Z</time>
      </trkpt>
      <trkpt lat="47.34311" lon="6.01373">
        <ele>227.6</ele>
        <time>2017-12-21T11:55:33Z</time>
      </trkpt>
      <trkpt lat="47.34313" lon="6.01369">
        <ele>227.6</ele>
        <time>2017-12-21T11:55:34Z</time>
      </trkpt>
      <trkpt lat="47.34316" lon="6.01365">
        <ele>227.6</ele>
        <time>2017-12-21T11:55:35Z</time>
      </trkpt>
      <trkpt lat="47.34319" lon="6.01361">
        <ele>227.6</ele>
        <time>2017-12-21T11:55:36Z</time>
      </trkpt>
      <trkpt lat="47.34321" lon="6.01357">
        <ele>227.8</ele>
        <time>2017-12-21T11:55:37Z</time>
      </trkpt>
      <trkpt lat="47.34324" lon="6.01354">
        <ele>228.2</ele>
        <time>2017-12-21T11:55:38Z</time>
      </trkpt>
      <trkpt lat="47.34326" lon="6.0135">
        <ele>228.4</ele>
        <time>2017-12-21T11:55:39Z</time>
      </trkpt>
      <trkpt lat="47.34329" lon="6.01346">
        <ele>228.6</ele>
        <time>2017-12-21T11:55:40Z</time>
      </trkpt>
      <trkpt lat="47.34331" lon="6.01343">
        <ele>229</ele>
        <time>2017-12-21T11:55:41Z</time>
      </trkpt>
      <trkpt lat="47.34334" lon="6.01339">
        <ele>229</ele>
        <time>2017-12-21T11:55:42Z</time>
      </trkpt>
      <trkpt lat="47.34336" lon="6.01336">
        <ele>229</ele>
        <time>2017-12-21T11:55:43Z</time>
      </trkpt>
      <trkpt lat="47.34339" lon="6.01333">
        <ele>229</ele>
        <time>2017-12-21T11:55:44Z</time>
      </trkpt>
      <trkpt lat="47.34341" lon="6.01329">
        <ele>229</ele>
        <time>2017-12-21T11:55:45Z</time>
      </trkpt>
      <trkpt lat="47.34343" lon="6.01326">
        <ele>229</ele>
        <time>2017-12-21T11:55:46Z</time>
      </trkpt>
      <trkpt lat="47.34346" lon="6.01322">
        <ele>229</ele>
        <time>2017-12-21T11:55:47Z</time>
      </trkpt>
      <trkpt lat="47.34348" lon="6.01318">
        <ele>229</ele>
        <time>2017-12-21T11:55:48Z</time>
      </trkpt>
      <trkpt lat="47.34351" lon="6.01314">
        <ele>229</ele>
        <time>2017-12-21T11:55:49Z</time>
      </trkpt>
      <trkpt lat="47.34353" lon="6.0131">
        <ele>229</ele>
        <time>2017-12-21T11:55:50Z</time>
      </trkpt>
      <trkpt lat="47.34356" lon="6.01306">
        <ele>229</ele>
        <time>2017-12-21T11:55:51Z</time>
      </trkpt>
      <trkpt lat="47.34358" lon="6.01302">
        <ele>229</ele>
        <time>2017-12-21T11:55:52Z</time>
      </trkpt>
      <trkpt lat="47.3436" lon="6.01298">
        <ele>229</ele>
        <time>2017-12-21T11:55:53Z</time>
      </trkpt>
      <trkpt lat="47.34363" lon="6.01294">
        <ele>229</ele>
        <time>2017-12-21T11:55:54Z</time>
      </trkpt>
      <trkpt lat="47.34365" lon="6.0129">
        <ele>229</ele>
        <time>2017-12-21T11:55:55Z</time>
      </trkpt>
      <trkpt lat="47.34368" lon="6.01285">
        <ele>229</ele>
        <time>2017-12-21T11:55:56Z</time>
      </trkpt>
      <trkpt lat="47.3437" lon="6.0128">
        <ele>229</ele>
        <time>2017-12-21T11:55:57Z</time>
      </trkpt>
      <trkpt lat="47.34373" lon="6.01276">
        <ele>229</ele>
        <time>2017-12-21T11:55:58Z</time>
      </trkpt>
      <trkpt lat="47.34376" lon="6.01271">
        <ele>229</ele>
        <time>2017-12-21T11:55:59Z</time>
      </trkpt>
      <trkpt lat="47.34379" lon="6.01266">
        <ele>229</ele>
        <time>2017-12-21T11:56:00Z</time>
      </trkpt>
      <trkpt lat="47.34381" lon="6.01261">
        <ele>229</ele>
        <time>2017-12-21T11:56:01Z</time>
      </trkpt>
      <trkpt lat="47.34384" lon="6.01255">
        <ele>229</ele>
        <time>2017-12-21T11:56:02Z</time>
      </trkpt>
      <trkpt lat="47.34388" lon="6.0125">
        <ele>229</ele>
        <time>2017-12-21T11:56:03Z</time>
      </trkpt>
      <trkpt lat="47.34391" lon="6.01244">
        <ele>229</ele>
        <time>2017-12-21T11:56:04Z</time>
      </trkpt>
      <trkpt lat="47.34394" lon="6.01237">
        <ele>229</ele>
        <time>2017-12-21T11:56:05Z</time>
      </trkpt>
      <trkpt lat="47.34397" lon="6.01231">
        <ele>229</ele>
        <time>2017-12-21T11:56:06Z</time>
      </trkpt>
      <trkpt lat="47.344" lon="6.01225">
        <ele>229</ele>
        <time>2017-12-21T11:56:07Z</time>
      </trkpt>
      <trkpt lat="47.34403" lon="6.0122">
        <ele>229</ele>
        <time>2017-12-21T11:56:08Z</time>
      </trkpt>
      <trkpt lat="47.34406" lon="6.01214">
        <ele>229</ele>
        <time>2017-12-21T11:56:09Z</time>
      </trkpt>
      <trkpt lat="47.34409" lon="6.01208">
        <ele>229</ele>
        <time>2017-12-21T11:56:10Z</time>
      </trkpt>
      <trkpt lat="47.34412" lon="6.01202">
        <ele>229</ele>
        <time>2017-12-21T11:56:11Z</time>
      </trkpt>
      <trkpt lat="47.34416" lon="6.01196">
        <ele>229</ele>
        <time>2017-12-21T11:56:12Z</time>
      </trkpt>
      <trkpt lat="47.34419" lon="6.0119">
        <ele>229</ele>
        <time>2017-12-21T11:56:13Z</time>
      </trkpt>
      <trkpt lat="47.34423" lon="6.01184">
        <ele>229</ele>
        <time>2017-12-21T11:56:14Z</time>
      </trkpt>
      <trkpt lat="47.34425" lon="6.01177">
        <ele>229</ele>
        <time>2017-12-21T11:56:15Z</time>
      </trkpt>
      <trkpt lat="47.34429" lon="6.01172">
        <ele>229</ele>
        <time>2017-12-21T11:56:16Z</time>
      </trkpt>
      <trkpt lat="47.34433" lon="6.01166">
        <ele>229</ele>
        <time>2017-12-21T11:56:17Z</time>
      </trkpt>
      <trkpt lat="47.34437" lon="6.0116">
        <ele>229</ele>
        <time>2017-12-21T11:56:18Z</time>
      </trkpt>
      <trkpt lat="47.3444" lon="6.01154">
        <ele>229</ele>
        <time>2017-12-21T11:56:19Z</time>
      </trkpt>
      <trkpt lat="47.34444" lon="6.01147">
        <ele>229</ele>
        <time>2017-12-21T11:56:20Z</time>
      </trkpt>
      <trkpt lat="47.34447" lon="6.01141">
        <ele>229</ele>
        <time>2017-12-21T11:56:21Z</time>
      </trkpt>
      <trkpt lat="47.3445" lon="6.01134">
        <ele>229</ele>
        <time>2017-12-21T11:56:22Z</time>
      </trkpt>
      <trkpt lat="47.34454" lon="6.01128">
        <ele>229</ele>
        <time>2017-12-21T11:56:23Z</time>
      </trkpt>
      <trkpt lat="47.34457" lon="6.01122">
        <ele>229</ele>
        <time>2017-12-21T11:56:24Z</time>
      </trkpt>
      <trkpt lat="47.34461" lon="6.01117">
        <ele>229</ele>
        <time>2017-12-21T11:56:25Z</time>
      </trkpt>
      <trkpt lat="47.34465" lon="6.01111">
        <ele>229</ele>
        <time>2017-12-21T11:56:26Z</time>
      </trkpt>
      <trkpt lat="47.34468" lon="6.01105">
        <ele>229</ele>
        <time>2017-12-21T11:56:27Z</time>
      </trkpt>
      <trkpt lat="47.34472" lon="6.011">
        <ele>229</ele>
        <time>2017-12-21T11:56:28Z</time>
      </trkpt>
      <trkpt lat="47.34475" lon="6.01094">
        <ele>229</ele>
        <time>2017-12-21T11:56:29Z</time>
      </trkpt>
      <trkpt lat="47.34479" lon="6.01089">
        <ele>229</ele>
        <time>2017-12-21T11:56:30Z</time>
      </trkpt>
      <trkpt lat="47.34482" lon="6.01083">
        <ele>229</ele>
        <time>2017-12-21T11:56:31Z</time>
      </trkpt>
      <trkpt lat="47.34485" lon="6.01078">
        <ele>229</ele>
        <time>2017-12-21T11:56:32Z</time>
      </trkpt>
      <trkpt lat="47.34489" lon="6.01072">
        <ele>229</ele>
        <time>2017-12-21T11:56:33Z</time>
      </trkpt>
      <trkpt lat="47.34493" lon="6.01067">
        <ele>229</ele>
        <time>2017-12-21T11:56:34Z</time>
      </trkpt>
      <trkpt lat="47.34496" lon="6.01061">
        <ele>229</ele>
        <time>2017-12-21T11:56:35Z</time>
      </trkpt>
      <trkpt lat="47.345" lon="6.01057">
        <ele>229</ele>
        <time>2017-12-21T11:56:36Z</time>
      </trkpt>
      <trkpt lat="47.34503" lon="6.01052">
        <ele>229</ele>
        <time>2017-12-21T11:56:37Z</time>
      </trkpt>
      <trkpt lat="47.34507" lon="6.01047">
        <ele>229</ele>
        <time>2017-12-21T11:56:38Z</time>
      </trkpt>
      <trkpt lat="47.34511" lon="6.01042">
        <ele>229</ele>
        <time>2017-12-21T11:56:39Z</time>
      </trkpt>
      <trkpt lat="47.34514" lon="6.01038">
        <ele>229</ele>
        <time>2017-12-21T11:56:40Z</time>
      </trkpt>
      <trkpt lat="47.34518" lon="6.01034">
        <ele>229</ele>
        <time>2017-12-21T11:56:41Z</time>
      </trkpt>
      <trkpt lat="47.34522" lon="6.01029">
        <ele>229</ele>
        <time>2017-12-21T11:56:42Z</time>
      </trkpt>
      <trkpt lat="47.34526" lon="6.01025">
        <ele>229</ele>
        <time>2017-12-21T11:56:43Z</time>
      </trkpt>
      <trkpt lat="47.3453" lon="6.0102">
        <ele>229</ele>
        <time>2017-12-21T11:56:44Z</time>
      </trkpt>
      <trkpt lat="47.34534" lon="6.01016">
        <ele>229</ele>
        <time>2017-12-21T11:56:45Z</time>
      </trkpt>
      <trkpt lat="47.34538" lon="6.01012">
        <ele>229</ele>
        <time>2017-12-21T11:56:46Z</time>
      </trkpt>
      <trkpt lat="47.34542" lon="6.01008">
        <ele>229</ele>
        <time>2017-12-21T11:56:47Z</time>
      </trkpt>
      <trkpt lat="47.34547" lon="6.01004">
        <ele>229</ele>
        <time>2017-12-21T11:56:48Z</time>
      </trkpt>
      <trkpt lat="47.34552" lon="6.00999">
        <ele>229</ele>
        <time>2017-12-21T11:56:49Z</time>
      </trkpt>
      <trkpt lat="47.34556" lon="6.00996">
        <ele>229</ele>
        <time>2017-12-21T11:56:50Z</time>
      </trkpt>
      <trkpt lat="47.34561" lon="6.00992">
        <ele>229</ele>
        <time>2017-12-21T11:56:51Z</time>
      </trkpt>
      <trkpt lat="47.34566" lon="6.00988">
        <ele>229</ele>
        <time>2017-12-21T11:56:52Z</time>
      </trkpt>
      <trkpt lat="47.3457" lon="6.00983">
        <ele>229</ele>
        <time>2017-12-21T11:56:53Z</time>
      </trkpt>
      <trkpt lat="47.34575" lon="6.0098">
        <ele>229</ele>
        <time>2017-12-21T11:56:54Z</time>
      </trkpt>
      <trkpt lat="47.3458" lon="6.00976">
        <ele>229</ele>
        <time>2017-12-21T11:56:55Z</time>
      </trkpt>
      <trkpt lat="47.34584" lon="6.00972">
        <ele>229</ele>
        <time>2017-12-21T11:56:56Z</time>
      </trkpt>
      <trkpt lat="47.34589" lon="6.00968">
        <ele>229</ele>
        <time>2017-12-21T11:56:57Z</time>
      </trkpt>
      <trkpt lat="47.34594" lon="6.00965">
        <ele>229</ele>
        <time>2017-12-21T11:56:58Z</time>
      </trkpt>
      <trkpt lat="47.34599" lon="6.00962">
        <ele>229</ele>
        <time>2017-12-21T11:56:59Z</time>
      </trkpt>
      <trkpt lat="47.34603" lon="6.00959">
        <ele>229</ele>
        <time>2017-12-21T11:57:00Z</time>
      </trkpt>
      <trkpt lat="47.34608" lon="6.00956">
        <ele>229</ele>
        <time>2017-12-21T11:57:01Z</time>
      </trkpt>
      <trkpt lat="47.34613" lon="6.00955">
        <ele>229</ele>
        <time>2017-12-21T11:57:02Z</time>
      </trkpt>
      <trkpt lat="47.34618" lon="6.00954">
        <ele>229</ele>
        <time>2017-12-21T11:57:03Z</time>
      </trkpt>
      <trkpt lat="47.34623" lon="6.00954">
        <ele>229</ele>
        <time>2017-12-21T11:57:04Z</time>
      </trkpt>
      <trkpt lat="47.34629" lon="6.00954">
        <ele>229</ele>
        <time>2017-12-21T11:57:05Z</time>
      </trkpt>
      <trkpt lat="47.34634" lon="6.00954">
        <ele>229</ele>
        <time>2017-12-21T11:57:06Z</time>
      </trkpt>
      <trkpt lat="47.34639" lon="6.00954">
        <ele>229</ele>
        <time>2017-12-21T11:57:07Z</time>
      </trkpt>
      <trkpt lat="47.34644" lon="6.00955">
        <ele>229</ele>
        <time>2017-12-21T11:57:08Z</time>
      </trkpt>
      <trkpt lat="47.3465" lon="6.00955">
        <ele>229</ele>
        <time>2017-12-21T11:57:09Z</time>
      </trkpt>
      <trkpt lat="47.34655" lon="6.00955">
        <ele>229</ele>
        <time>2017-12-21T11:57:10Z</time>
      </trkpt>
      <trkpt lat="47.34661" lon="6.00956">
        <ele>229</ele>
        <time>2017-12-21T11:57:11Z</time>
      </trkpt>
      <trkpt lat="47.34667" lon="6.00957">
        <ele>229</ele>
        <time>2017-12-21T11:57:12Z</time>
      </trkpt>
      <trkpt lat="47.34673" lon="6.00957">
        <ele>229</ele>
        <time>2017-12-21T11:57:13Z</time>
      </trkpt>
      <trkpt lat="47.34678" lon="6.00957">
        <ele>229</ele>
        <time>2017-12-21T11:57:14Z</time>
      </trkpt>
      <trkpt lat="47.34684" lon="6.00957">
        <ele>229</ele>
        <time>2017-12-21T11:57:15Z</time>
      </trkpt>
      <trkpt lat="47.3469" lon="6.00957">
        <ele>229</ele>
        <time>2017-12-21T11:57:16Z</time>
      </trkpt>
      <trkpt lat="47.34695" lon="6.00957">
        <ele>229</ele>
        <time>2017-12-21T11:57:17Z</time>
      </trkpt>
      <trkpt lat="47.34701" lon="6.00957">
        <ele>229</ele>
        <time>2017-12-21T11:57:18Z</time>
      </trkpt>
      <trkpt lat="47.34707" lon="6.00957">
        <ele>229</ele>
        <time>2017-12-21T11:57:19Z</time>
      </trkpt>
      <trkpt lat="47.34712" lon="6.00957">
        <ele>229</ele>
        <time>2017-12-21T11:57:20Z</time>
      </trkpt>
      <trkpt lat="47.34718" lon="6.00957">
        <ele>229</ele>
        <time>2017-12-21T11:57:21Z</time>
      </trkpt>
      <trkpt lat="47.34723" lon="6.00957">
        <ele>229</ele>
        <time>2017-12-21T11:57:22Z</time>
      </trkpt>
      <trkpt lat="47.34728" lon="6.00956">
        <ele>229</ele>
        <time>2017-12-21T11:57:23Z</time>
      </trkpt>
      <trkpt lat="47.34733" lon="6.00956">
        <ele>229</ele>
        <time>2017-12-21T11:57:24Z</time>
      </trkpt>
      <trkpt lat="47.34738" lon="6.00955">
        <ele>229</ele>
        <time>2017-12-21T11:57:25Z</time>
      </trkpt>
      <trkpt lat="47.34743" lon="6.00953">
        <ele>229</ele>
        <time>2017-12-21T11:57:26Z</time>
      </trkpt>
      <trkpt lat="47.34747" lon="6.00951">
        <ele>229</ele>
        <time>2017-12-21T11:57:27Z</time>
      </trkpt>
      <trkpt lat="47.34752" lon="6.00949">
        <ele>229</ele>
        <time>2017-12-21T11:57:28Z</time>
      </trkpt>
      <trkpt lat="47.34756" lon="6.00947">
        <ele>229.4</ele>
        <time>2017-12-21T11:57:29Z</time>
      </trkpt>
      <trkpt lat="47.3476" lon="6.00944">
        <ele>229.8</ele>
        <time>2017-12-21T11:57:30Z</time>
      </trkpt>
      <trkpt lat="47.34764" lon="6.0094">
        <ele>230.2</ele>
        <time>2017-12-21T11:57:31Z</time>
      </trkpt>
      <trkpt lat="47.34767" lon="6.00937">
        <ele>230.6</ele>
        <time>2017-12-21T11:57:32Z</time>
      </trkpt>
      <trkpt lat="47.3477" lon="6.00935">
        <ele>231</ele>
        <time>2017-12-21T11:57:33Z</time>
      </trkpt>
      <trkpt lat="47.34774" lon="6.00931">
        <ele>231</ele>
        <time>2017-12-21T11:57:34Z</time>
      </trkpt>
      <trkpt lat="47.34778" lon="6.00928">
        <ele>231</ele>
        <time>2017-12-21T11:57:35Z</time>
      </trkpt>
      <trkpt lat="47.34781" lon="6.00924">
        <ele>231</ele>
        <time>2017-12-21T11:57:36Z</time>
      </trkpt>
      <trkpt lat="47.34784" lon="6.0092">
        <ele>231</ele>
        <time>2017-12-21T11:57:37Z</time>
      </trkpt>
      <trkpt lat="47.34788" lon="6.00916">
        <ele>231</ele>
        <time>2017-12-21T11:57:38Z</time>
      </trkpt>
      <trkpt lat="47.34791" lon="6.00912">
        <ele>231</ele>
        <time>2017-12-21T11:57:39Z</time>
      </trkpt>
      <trkpt lat="47.34794" lon="6.00909">
        <ele>231</ele>
        <time>2017-12-21T11:57:40Z</time>
      </trkpt>
      <trkpt lat="47.34798" lon="6.00905">
        <ele>231</ele>
        <time>2017-12-21T11:57:41Z</time>
      </trkpt>
      <trkpt lat="47.34801" lon="6.00902">
        <ele>231</ele>
        <time>2017-12-21T11:57:42Z</time>
      </trkpt>
      <trkpt lat="47.34804" lon="6.00898">
        <ele>231.4</ele>
        <time>2017-12-21T11:57:43Z</time>
      </trkpt>
      <trkpt lat="47.34808" lon="6.00894">
        <ele>232</ele>
        <time>2017-12-21T11:57:44Z</time>
      </trkpt>
      <trkpt lat="47.34811" lon="6.0089">
        <ele>232.4</ele>
        <time>2017-12-21T11:57:45Z</time>
      </trkpt>
      <trkpt lat="47.34814" lon="6.00885">
        <ele>232.8</ele>
        <time>2017-12-21T11:57:46Z</time>
      </trkpt>
      <trkpt lat="47.34818" lon="6.00881">
        <ele>233.2</ele>
        <time>2017-12-21T11:57:47Z</time>
      </trkpt>
      <trkpt lat="47.34821" lon="6.00877">
        <ele>233.2</ele>
        <time>2017-12-21T11:57:48Z</time>
      </trkpt>
      <trkpt lat="47.34824" lon="6.00873">
        <ele>233.2</ele>
        <time>2017-12-21T11:57:49Z</time>
      </trkpt>
      <trkpt lat="47.34827" lon="6.00869">
        <ele>233.2</ele>
        <time>2017-12-21T11:57:50Z</time>
      </trkpt>
      <trkpt lat="47.34831" lon="6.00866">
        <ele>233.2</ele>
        <time>2017-12-21T11:57:51Z</time>
      </trkpt>
      <trkpt lat="47.34835" lon="6.00862">
        <ele>233.2</ele>
        <time>2017-12-21T11:57:52Z</time>
      </trkpt>
      <trkpt lat="47.34838" lon="6.00857">
        <ele>233.2</ele>
        <time>2017-12-21T11:57:53Z</time>
      </trkpt>
      <trkpt lat="47.34841" lon="6.00853">
        <ele>233.2</ele>
        <time>2017-12-21T11:57:54Z</time>
      </trkpt>
      <trkpt lat="47.34844" lon="6.00849">
        <ele>233.2</ele>
        <time>2017-12-21T11:57:55Z</time>
      </trkpt>
      <trkpt lat="47.34847" lon="6.00845">
        <ele>233.2</ele>
        <time>2017-12-21T11:57:56Z</time>
      </trkpt>
      <trkpt lat="47.3485" lon="6.00841">
        <ele>233.2</ele>
        <time>2017-12-21T11:57:57Z</time>
      </trkpt>
      <trkpt lat="47.34853" lon="6.00837">
        <ele>233.2</ele>
        <time>2017-12-21T11:57:58Z</time>
      </trkpt>
      <trkpt lat="47.34855" lon="6.00832">
        <ele>233.6</ele>
        <time>2017-12-21T11:57:59Z</time>
      </trkpt>
      <trkpt lat="47.34858" lon="6.00828">
        <ele>234</ele>
        <time>2017-12-21T11:58:00Z</time>
      </trkpt>
      <trkpt lat="47.3486" lon="6.00823">
        <ele>234.4</ele>
        <time>2017-12-21T11:58:01Z</time>
      </trkpt>
      <trkpt lat="47.34862" lon="6.00819">
        <ele>234.8</ele>
        <time>2017-12-21T11:58:02Z</time>
      </trkpt>
      <trkpt lat="47.34864" lon="6.00814">
        <ele>235.2</ele>
        <time>2017-12-21T11:58:03Z</time>
      </trkpt>
      <trkpt lat="47.34866" lon="6.0081">
        <ele>235.2</ele>
        <time>2017-12-21T11:58:04Z</time>
      </trkpt>
      <trkpt lat="47.34868" lon="6.00805">
        <ele>235.2</ele>
        <time>2017-12-21T11:58:05Z</time>
      </trkpt>
      <trkpt lat="47.34869" lon="6.008">
        <ele>235.2</ele>
        <time>2017-12-21T11:58:06Z</time>
      </trkpt>
      <trkpt lat="47.3487" lon="6.00795">
        <ele>235.2</ele>
        <time>2017-12-21T11:58:07Z</time>
      </trkpt>
      <trkpt lat="47.34871" lon="6.0079">
        <ele>235.6</ele>
        <time>2017-12-21T11:58:08Z</time>
      </trkpt>
      <trkpt lat="47.34871" lon="6.00785">
        <ele>236.2</ele>
        <time>2017-12-21T11:58:09Z</time>
      </trkpt>
      <trkpt lat="47.34872" lon="6.00779">
        <ele>236.6</ele>
        <time>2017-12-21T11:58:10Z</time>
      </trkpt>
      <trkpt lat="47.34872" lon="6.00773">
        <ele>237</ele>
        <time>2017-12-21T11:58:11Z</time>
      </trkpt>
      <trkpt lat="47.34872" lon="6.00767">
        <ele>237.4</ele>
        <time>2017-12-21T11:58:12Z</time>
      </trkpt>
      <trkpt lat="47.34872" lon="6.00762">
        <ele>237.4</ele>
        <time>2017-12-21T11:58:13Z</time>
      </trkpt>
      <trkpt lat="47.34872" lon="6.00756">
        <ele>237.4</ele>
        <time>2017-12-21T11:58:14Z</time>
      </trkpt>
      <trkpt lat="47.34872" lon="6.0075">
        <ele>237.4</ele>
        <time>2017-12-21T11:58:15Z</time>
      </trkpt>
      <trkpt lat="47.34871" lon="6.00744">
        <ele>237.4</ele>
        <time>2017-12-21T11:58:16Z</time>
      </trkpt>
      <trkpt lat="47.34871" lon="6.00739">
        <ele>237.4</ele>
        <time>2017-12-21T11:58:17Z</time>
      </trkpt>
      <trkpt lat="47.34871" lon="6.00733">
        <ele>237.4</ele>
        <time>2017-12-21T11:58:18Z</time>
      </trkpt>
      <trkpt lat="47.3487" lon="6.00727">
        <ele>237.4</ele>
        <time>2017-12-21T11:58:19Z</time>
      </trkpt>
      <trkpt lat="47.3487" lon="6.00721">
        <ele>237.4</ele>
        <time>2017-12-21T11:58:20Z</time>
      </trkpt>
      <trkpt lat="47.34869" lon="6.00715">
        <ele>237.4</ele>
        <time>2017-12-21T11:58:21Z</time>
      </trkpt>
      <trkpt lat="47.34869" lon="6.00709">
        <ele>237.4</ele>
        <time>2017-12-21T11:58:22Z</time>
      </trkpt>
      <trkpt lat="47.34868" lon="6.00703">
        <ele>237.4</ele>
        <time>2017-12-21T11:58:23Z</time>
      </trkpt>
      <trkpt lat="47.34868" lon="6.00698">
        <ele>237.4</ele>
        <time>2017-12-21T11:58:24Z</time>
      </trkpt>
      <trkpt lat="47.34867" lon="6.00692">
        <ele>237.4</ele>
        <time>2017-12-21T11:58:25Z</time>
      </trkpt>
      <trkpt lat="47.34867" lon="6.00686">
        <ele>237.8</ele>
        <time>2017-12-21T11:58:26Z</time>
      </trkpt>
      <trkpt lat="47.34867" lon="6.00681">
        <ele>238.2</ele>
        <time>2017-12-21T11:58:27Z</time>
      </trkpt>
      <trkpt lat="47.34866" lon="6.00675">
        <ele>238.6</ele>
        <time>2017-12-21T11:58:28Z</time>
      </trkpt>
      <trkpt lat="47.34865" lon="6.0067">
        <ele>239.2</ele>
        <time>2017-12-21T11:58:29Z</time>
      </trkpt>
      <trkpt lat="47.34865" lon="6.00665">
        <ele>239.6</ele>
        <time>2017-12-21T11:58:30Z</time>
      </trkpt>
      <trkpt lat="47.34864" lon="6.00659">
        <ele>239.6</ele>
        <time>2017-12-21T11:58:31Z</time>
      </trkpt>
      <trkpt lat="47.34864" lon="6.00653">
        <ele>239.6</ele>
        <time>2017-12-21T11:58:32Z</time>
      </trkpt>
      <trkpt lat="47.34863" lon="6.00648">
        <ele>239.6</ele>
        <time>2017-12-21T11:58:33Z</time>
      </trkpt>
      <trkpt lat="47.34862" lon="6.00642">
        <ele>239.6</ele>
        <time>2017-12-21T11:58:34Z</time>
      </trkpt>
      <trkpt lat="47.34861" lon="6.00636">
        <ele>239.6</ele>
        <time>2017-12-21T11:58:35Z</time>
      </trkpt>
      <trkpt lat="47.34861" lon="6.0063">
        <ele>239.6</ele>
        <time>2017-12-21T11:58:36Z</time>
      </trkpt>
      <trkpt lat="47.3486" lon="6.00625">
        <ele>239.6</ele>
        <time>2017-12-21T11:58:37Z</time>
      </trkpt>
      <trkpt lat="47.3486" lon="6.00619">
        <ele>240</ele>
        <time>2017-12-21T11:58:38Z</time>
      </trkpt>
      <trkpt lat="47.34859" lon="6.00613">
        <ele>240.4</ele>
        <time>2017-12-21T11:58:39Z</time>
      </trkpt>
      <trkpt lat="47.34859" lon="6.00607">
        <ele>240.8</ele>
        <time>2017-12-21T11:58:40Z</time>
      </trkpt>
      <trkpt lat="47.34858" lon="6.00601">
        <ele>241.2</ele>
        <time>2017-12-21T11:58:41Z</time>
      </trkpt>
      <trkpt lat="47.34857" lon="6.00595">
        <ele>241.6</ele>
        <time>2017-12-21T11:58:42Z</time>
      </trkpt>
      <trkpt lat="47.34856" lon="6.00588">
        <ele>241.6</ele>
        <time>2017-12-21T11:58:43Z</time>
      </trkpt>
      <trkpt lat="47.34856" lon="6.00582">
        <ele>241.6</ele>
        <time>2017-12-21T11:58:44Z</time>
      </trkpt>
      <trkpt lat="47.34855" lon="6.00576">
        <ele>241.6</ele>
        <time>2017-12-21T11:58:45Z</time>
      </trkpt>
      <trkpt lat="47.34855" lon="6.00569">
        <ele>241.6</ele>
        <time>2017-12-21T11:58:46Z</time>
      </trkpt>
      <trkpt lat="47.34854" lon="6.00563">
        <ele>241.6</ele>
        <time>2017-12-21T11:58:47Z</time>
      </trkpt>
      <trkpt lat="47.34854" lon="6.00557">
        <ele>241.6</ele>
        <time>2017-12-21T11:58:48Z</time>
      </trkpt>
      <trkpt lat="47.34854" lon="6.00551">
        <ele>241.6</ele>
        <time>2017-12-21T11:58:49Z</time>
      </trkpt>
      <trkpt lat="47.34853" lon="6.00544">
        <ele>241.6</ele>
        <time>2017-12-21T11:58:50Z</time>
      </trkpt>
      <trkpt lat="47.34853" lon="6.00538">
        <ele>241.6</ele>
        <time>2017-12-21T11:58:51Z</time>
      </trkpt>
      <trkpt lat="47.34853" lon="6.00532">
        <ele>241.6</ele>
        <time>2017-12-21T11:58:52Z</time>
      </trkpt>
      <trkpt lat="47.34853" lon="6.00525">
        <ele>241.6</ele>
        <time>2017-12-21T11:58:53Z</time>
      </trkpt>
      <trkpt lat="47.34854" lon="6.00519">
        <ele>241.6</ele>
        <time>2017-12-21T11:58:54Z</time>
      </trkpt>
      <trkpt lat="47.34855" lon="6.00512">
        <ele>241.6</ele>
        <time>2017-12-21T11:58:55Z</time>
      </trkpt>
      <trkpt lat="47.34855" lon="6.00506">
        <ele>242</ele>
        <time>2017-12-21T11:58:56Z</time>
      </trkpt>
      <trkpt lat="47.34856" lon="6.00499">
        <ele>242.4</ele>
        <time>2017-12-21T11:58:57Z</time>
      </trkpt>
      <trkpt lat="47.34857" lon="6.00493">
        <ele>242.8</ele>
        <time>2017-12-21T11:58:58Z</time>
      </trkpt>
      <trkpt lat="47.34858" lon="6.00486">
        <ele>243.2</ele>
        <time>2017-12-21T11:58:59Z</time>
      </trkpt>
      <trkpt lat="47.3486" lon="6.0048">
        <ele>243.6</ele>
        <time>2017-12-21T11:59:00Z</time>
      </trkpt>
      <trkpt lat="47.34861" lon="6.00474">
        <ele>243.6</ele>
        <time>2017-12-21T11:59:01Z</time>
      </trkpt>
      <trkpt lat="47.34863" lon="6.00467">
        <ele>243.6</ele>
        <time>2017-12-21T11:59:02Z</time>
      </trkpt>
      <trkpt lat="47.34864" lon="6.0046">
        <ele>243.6</ele>
        <time>2017-12-21T11:59:03Z</time>
      </trkpt>
      <trkpt lat="47.34866" lon="6.00453">
        <ele>243.6</ele>
        <time>2017-12-21T11:59:04Z</time>
      </trkpt>
      <trkpt lat="47.34868" lon="6.00447">
        <ele>243.6</ele>
        <time>2017-12-21T11:59:05Z</time>
      </trkpt>
      <trkpt lat="47.3487" lon="6.00441">
        <ele>243.6</ele>
        <time>2017-12-21T11:59:06Z</time>
      </trkpt>
      <trkpt lat="47.34871" lon="6.00434">
        <ele>243.6</ele>
        <time>2017-12-21T11:59:07Z</time>
      </trkpt>
      <trkpt lat="47.34873" lon="6.00427">
        <ele>243.6</ele>
        <time>2017-12-21T11:59:08Z</time>
      </trkpt>
      <trkpt lat="47.34874" lon="6.00421">
        <ele>243.6</ele>
        <time>2017-12-21T11:59:09Z</time>
      </trkpt>
      <trkpt lat="47.34875" lon="6.00414">
        <ele>243.6</ele>
        <time>2017-12-21T11:59:10Z</time>
      </trkpt>
      <trkpt lat="47.34876" lon="6.00407">
        <ele>243.6</ele>
        <time>2017-12-21T11:59:11Z</time>
      </trkpt>
      <trkpt lat="47.34876" lon="6.004">
        <ele>243.6</ele>
        <time>2017-12-21T11:59:12Z</time>
      </trkpt>
      <trkpt lat="47.34876" lon="6.00393">
        <ele>243.6</ele>
        <time>2017-12-21T11:59:13Z</time>
      </trkpt>
      <trkpt lat="47.34875" lon="6.00386">
        <ele>243.6</ele>
        <time>2017-12-21T11:59:14Z</time>
      </trkpt>
      <trkpt lat="47.34875" lon="6.0038">
        <ele>243.6</ele>
        <time>2017-12-21T11:59:15Z</time>
      </trkpt>
      <trkpt lat="47.34874" lon="6.00374">
        <ele>243.6</ele>
        <time>2017-12-21T11:59:16Z</time>
      </trkpt>
      <trkpt lat="47.34874" lon="6.00368">
        <ele>243.6</ele>
        <time>2017-12-21T11:59:17Z</time>
      </trkpt>
      <trkpt lat="47.34874" lon="6.00361">
        <ele>243.6</ele>
        <time>2017-12-21T11:59:18Z</time>
      </trkpt>
      <trkpt lat="47.34873" lon="6.00355">
        <ele>244</ele>
        <time>2017-12-21T11:59:19Z</time>
      </trkpt>
      <trkpt lat="47.34872" lon="6.00348">
        <ele>244.6</ele>
        <time>2017-12-21T11:59:20Z</time>
      </trkpt>
      <trkpt lat="47.34871" lon="6.00342">
        <ele>245</ele>
        <time>2017-12-21T11:59:21Z</time>
      </trkpt>
      <trkpt lat="47.3487" lon="6.00335">
        <ele>245.4</ele>
        <time>2017-12-21T11:59:22Z</time>
      </trkpt>
      <trkpt lat="47.34869" lon="6.00329">
        <ele>245.8</ele>
        <time>2017-12-21T11:59:23Z</time>
      </trkpt>
      <trkpt lat="47.34867" lon="6.00322">
        <ele>245.8</ele>
        <time>2017-12-21T11:59:24Z</time>
      </trkpt>
      <trkpt lat="47.34864" lon="6.00316">
        <ele>245.8</ele>
        <time>2017-12-21T11:59:25Z</time>
      </trkpt>
      <trkpt lat="47.34861" lon="6.00309">
        <ele>245.8</ele>
        <time>2017-12-21T11:59:26Z</time>
      </trkpt>
      <trkpt lat="47.34859" lon="6.00303">
        <ele>245.8</ele>
        <time>2017-12-21T11:59:27Z</time>
      </trkpt>
      <trkpt lat="47.34856" lon="6.00298">
        <ele>245.8</ele>
        <time>2017-12-21T11:59:28Z</time>
      </trkpt>
      <trkpt lat="47.34852" lon="6.00292">
        <ele>245.8</ele>
        <time>2017-12-21T11:59:29Z</time>
      </trkpt>
      <trkpt lat="47.34849" lon="6.00287">
        <ele>245.8</ele>
        <time>2017-12-21T11:59:30Z</time>
      </trkpt>
      <trkpt lat="47.34846" lon="6.00282">
        <ele>245.8</ele>
        <time>2017-12-21T11:59:31Z</time>
      </trkpt>
      <trkpt lat="47.34842" lon="6.00276">
        <ele>245.8</ele>
        <time>2017-12-21T11:59:32Z</time>
      </trkpt>
      <trkpt lat="47.34838" lon="6.00271">
        <ele>245.8</ele>
        <time>2017-12-21T11:59:33Z</time>
      </trkpt>
      <trkpt lat="47.34834" lon="6.00265">
        <ele>245.8</ele>
        <time>2017-12-21T11:59:34Z</time>
      </trkpt>
      <trkpt lat="47.3483" lon="6.0026">
        <ele>245.8</ele>
        <time>2017-12-21T11:59:35Z</time>
      </trkpt>
      <trkpt lat="47.34826" lon="6.00256">
        <ele>245.8</ele>
        <time>2017-12-21T11:59:36Z</time>
      </trkpt>
      <trkpt lat="47.34822" lon="6.00252">
        <ele>245.8</ele>
        <time>2017-12-21T11:59:37Z</time>
      </trkpt>
      <trkpt lat="47.34819" lon="6.00248">
        <ele>245.8</ele>
        <time>2017-12-21T11:59:38Z</time>
      </trkpt>
      <trkpt lat="47.34815" lon="6.00244">
        <ele>245.8</ele>
        <time>2017-12-21T11:59:39Z</time>
      </trkpt>
      <trkpt lat="47.34812" lon="6.0024">
        <ele>245.8</ele>
        <time>2017-12-21T11:59:40Z</time>
      </trkpt>
      <trkpt lat="47.34808" lon="6.00236">
        <ele>245.8</ele>
        <time>2017-12-21T11:59:41Z</time>
      </trkpt>
      <trkpt lat="47.34804" lon="6.00231">
        <ele>245.8</ele>
        <time>2017-12-21T11:59:42Z</time>
      </trkpt>
      <trkpt lat="47.34801" lon="6.00227">
        <ele>245.8</ele>
        <time>2017-12-21T11:59:43Z</time>
      </trkpt>
      <trkpt lat="47.34798" lon="6.00222">
        <ele>245.8</ele>
        <time>2017-12-21T11:59:44Z</time>
      </trkpt>
      <trkpt lat="47.34795" lon="6.00218">
        <ele>245.8</ele>
        <time>2017-12-21T11:59:45Z</time>
      </trkpt>
      <trkpt lat="47.34791" lon="6.00214">
        <ele>245.8</ele>
        <time>2017-12-21T11:59:46Z</time>
      </trkpt>
      <trkpt lat="47.34788" lon="6.0021">
        <ele>245.8</ele>
        <time>2017-12-21T11:59:47Z</time>
      </trkpt>
      <trkpt lat="47.34785" lon="6.00206">
        <ele>245.8</ele>
        <time>2017-12-21T11:59:48Z</time>
      </trkpt>
      <trkpt lat="47.34781" lon="6.00202">
        <ele>245.8</ele>
        <time>2017-12-21T11:59:49Z</time>
      </trkpt>
      <trkpt lat="47.34778" lon="6.00198">
        <ele>246.2</ele>
        <time>2017-12-21T11:59:50Z</time>
      </trkpt>
      <trkpt lat="47.34774" lon="6.00194">
        <ele>246.6</ele>
        <time>2017-12-21T11:59:51Z</time>
      </trkpt>
      <trkpt lat="47.34771" lon="6.00191">
        <ele>247</ele>
        <time>2017-12-21T11:59:52Z</time>
      </trkpt>
      <trkpt lat="47.34767" lon="6.00187">
        <ele>247.4</ele>
        <time>2017-12-21T11:59:53Z</time>
      </trkpt>
      <trkpt lat="47.34763" lon="6.00183">
        <ele>247.8</ele>
        <time>2017-12-21T11:59:54Z</time>
      </trkpt>
      <trkpt lat="47.3476" lon="6.00179">
        <ele>247.8</ele>
        <time>2017-12-21T11:59:55Z</time>
      </trkpt>
      <trkpt lat="47.34757" lon="6.00175">
        <ele>247.8</ele>
        <time>2017-12-21T11:59:56Z</time>
      </trkpt>
      <trkpt lat="47.34753" lon="6.00172">
        <ele>247.8</ele>
        <time>2017-12-21T11:59:57Z</time>
      </trkpt>
      <trkpt lat="47.34749" lon="6.00168">
        <ele>247.8</ele>
        <time>2017-12-21T11:59:58Z</time>
      </trkpt>
      <trkpt lat="47.34746" lon="6.00165">
        <ele>247.8</ele>
        <time>2017-12-21T11:59:59Z</time>
      </trkpt>
      <trkpt lat="47.34742" lon="6.00161">
        <ele>247.8</ele>
        <time>2017-12-21T12:00:00Z</time>
      </trkpt>
      <trkpt lat="47.34739" lon="6.00157">
        <ele>247.8</ele>
        <time>2017-12-21T12:00:01Z</time>
      </trkpt>
      <trkpt lat="47.34736" lon="6.00153">
        <ele>247.8</ele>
        <time>2017-12-21T12:00:02Z</time>
      </trkpt>
      <trkpt lat="47.34732" lon="6.0015">
        <ele>247.8</ele>
        <time>2017-12-21T12:00:03Z</time>
      </trkpt>
      <trkpt lat="47.34729" lon="6.00146">
        <ele>247.8</ele>
        <time>2017-12-21T12:00:04Z</time>
      </trkpt>
      <trkpt lat="47.34725" lon="6.00142">
        <ele>247.8</ele>
        <time>2017-12-21T12:00:05Z</time>
      </trkpt>
      <trkpt lat="47.34721" lon="6.00138">
        <ele>247.8</ele>
        <time>2017-12-21T12:00:06Z</time>
      </trkpt>
      <trkpt lat="47.34718" lon="6.00134">
        <ele>247.8</ele>
        <time>2017-12-21T12:00:07Z</time>
      </trkpt>
      <trkpt lat="47.34714" lon="6.00131">
        <ele>247.8</ele>
        <time>2017-12-21T12:00:08Z</time>
      </trkpt>
      <trkpt lat="47.34711" lon="6.00127">
        <ele>247.8</ele>
        <time>2017-12-21T12:00:09Z</time>
      </trkpt>
      <trkpt lat="47.34707" lon="6.00123">
        <ele>247.8</ele>
        <time>2017-12-21T12:00:10Z</time>
      </trkpt>
      <trkpt lat="47.34703" lon="6.00119">
        <ele>247.8</ele>
        <time>2017-12-21T12:00:11Z</time>
      </trkpt>
      <trkpt lat="47.347" lon="6.00115">
        <ele>247.8</ele>
        <time>2017-12-21T12:00:12Z</time>
      </trkpt>
      <trkpt lat="47.34696" lon="6.00111">
        <ele>247.8</ele>
        <time>2017-12-21T12:00:13Z</time>
      </trkpt>
      <trkpt lat="47.34692" lon="6.00108">
        <ele>247.8</ele>
        <time>2017-12-21T12:00:14Z</time>
      </trkpt>
      <trkpt lat="47.34688" lon="6.00104">
        <ele>247.8</ele>
        <time>2017-12-21T12:00:15Z</time>
      </trkpt>
      <trkpt lat="47.34685" lon="6.001">
        <ele>247.8</ele>
        <time>2017-12-21T12:00:16Z</time>
      </trkpt>
      <trkpt lat="47.34681" lon="6.00096">
        <ele>247.8</ele>
        <time>2017-12-21T12:00:17Z</time>
      </trkpt>
      <trkpt lat="47.34678" lon="6.00092">
        <ele>247.8</ele>
        <time>2017-12-21T12:00:18Z</time>
      </trkpt>
      <trkpt lat="47.34674" lon="6.00087">
        <ele>247.8</ele>
        <time>2017-12-21T12:00:19Z</time>
      </trkpt>
      <trkpt lat="47.3467" lon="6.00084">
        <ele>248.8</ele>
        <time>2017-12-21T12:00:20Z</time>
      </trkpt>
      <trkpt lat="47.34667" lon="6.00079">
        <ele>249.2</ele>
        <time>2017-12-21T12:00:21Z</time>
      </trkpt>
      <trkpt lat="47.34664" lon="6.00075">
        <ele>249.6</ele>
        <time>2017-12-21T12:00:22Z</time>
      </trkpt>
      <trkpt lat="47.3466" lon="6.0007">
        <ele>250</ele>
        <time>2017-12-21T12:00:23Z</time>
      </trkpt>
      <trkpt lat="47.34657" lon="6.00066">
        <ele>250</ele>
        <time>2017-12-21T12:00:24Z</time>
      </trkpt>
      <trkpt lat="47.34655" lon="6.00061">
        <ele>250</ele>
        <time>2017-12-21T12:00:25Z</time>
      </trkpt>
      <trkpt lat="47.34652" lon="6.00056">
        <ele>250</ele>
        <time>2017-12-21T12:00:26Z</time>
      </trkpt>
      <trkpt lat="47.34649" lon="6.0005">
        <ele>250</ele>
        <time>2017-12-21T12:00:27Z</time>
      </trkpt>
      <trkpt lat="47.34647" lon="6.00045">
        <ele>250</ele>
        <time>2017-12-21T12:00:28Z</time>
      </trkpt>
      <trkpt lat="47.34645" lon="6.00039">
        <ele>250</ele>
        <time>2017-12-21T12:00:29Z</time>
      </trkpt>
      <trkpt lat="47.34643" lon="6.00034">
        <ele>250</ele>
        <time>2017-12-21T12:00:30Z</time>
      </trkpt>
      <trkpt lat="47.34641" lon="6.00028">
        <ele>250</ele>
        <time>2017-12-21T12:00:31Z</time>
      </trkpt>
      <trkpt lat="47.34639" lon="6.00022">
        <ele>250</ele>
        <time>2017-12-21T12:00:32Z</time>
      </trkpt>
      <trkpt lat="47.34637" lon="6.00017">
        <ele>250</ele>
        <time>2017-12-21T12:00:33Z</time>
      </trkpt>
      <trkpt lat="47.34635" lon="6.00012">
        <ele>250</ele>
        <time>2017-12-21T12:00:34Z</time>
      </trkpt>
      <trkpt lat="47.34634" lon="6.00007">
        <ele>250</ele>
        <time>2017-12-21T12:00:35Z</time>
      </trkpt>
      <trkpt lat="47.34632" lon="6.00003">
        <ele>250</ele>
        <time>2017-12-21T12:00:36Z</time>
      </trkpt>
      <trkpt lat="47.34631" lon="5.99998">
        <ele>250.4</ele>
        <time>2017-12-21T12:00:37Z</time>
      </trkpt>
      <trkpt lat="47.3463" lon="5.99994">
        <ele>250.8</ele>
        <time>2017-12-21T12:00:38Z</time>
      </trkpt>
      <trkpt lat="47.34628" lon="5.99988">
        <ele>251.2</ele>
        <time>2017-12-21T12:00:39Z</time>
      </trkpt>
      <trkpt lat="47.34626" lon="5.99984">
        <ele>251.6</ele>
        <time>2017-12-21T12:00:40Z</time>
      </trkpt>
      <trkpt lat="47.34625" lon="5.99979">
        <ele>252.2</ele>
        <time>2017-12-21T12:00:41Z</time>
      </trkpt>
      <trkpt lat="47.34623" lon="5.99974">
        <ele>252.2</ele>
        <time>2017-12-21T12:00:42Z</time>
      </trkpt>
      <trkpt lat="47.34622" lon="5.99969">
        <ele>252.2</ele>
        <time>2017-12-21T12:00:43Z</time>
      </trkpt>
      <trkpt lat="47.3462" lon="5.99965">
        <ele>252.2</ele>
        <time>2017-12-21T12:00:44Z</time>
      </trkpt>
      <trkpt lat="47.34619" lon="5.9996">
        <ele>252.2</ele>
        <time>2017-12-21T12:00:45Z</time>
      </trkpt>
      <trkpt lat="47.34617" lon="5.99955">
        <ele>252.2</ele>
        <time>2017-12-21T12:00:46Z</time>
      </trkpt>
      <trkpt lat="47.34616" lon="5.99951">
        <ele>252.6</ele>
        <time>2017-12-21T12:00:47Z</time>
      </trkpt>
      <trkpt lat="47.34614" lon="5.99947">
        <ele>253</ele>
        <time>2017-12-21T12:00:48Z</time>
      </trkpt>
      <trkpt lat="47.34612" lon="5.99943">
        <ele>253.4</ele>
        <time>2017-12-21T12:00:49Z</time>
      </trkpt>
      <trkpt lat="47.34611" lon="5.99939">
        <ele>253.8</ele>
        <time>2017-12-21T12:00:50Z</time>
      </trkpt>
      <trkpt lat="47.34609" lon="5.99934">
        <ele>254.2</ele>
        <time>2017-12-21T12:00:51Z</time>
      </trkpt>
      <trkpt lat="47.34608" lon="5.9993">
        <ele>254.2</ele>
        <time>2017-12-21T12:00:52Z</time>
      </trkpt>
      <trkpt lat="47.34606" lon="5.99925">
        <ele>254.2</ele>
        <time>2017-12-21T12:00:53Z</time>
      </trkpt>
      <trkpt lat="47.34604" lon="5.9992">
        <ele>254.2</ele>
        <time>2017-12-21T12:00:54Z</time>
      </trkpt>
      <trkpt lat="47.34602" lon="5.99916">
        <ele>254.2</ele>
        <time>2017-12-21T12:00:55Z</time>
      </trkpt>
      <trkpt lat="47.34599" lon="5.99913">
        <ele>254.6</ele>
        <time>2017-12-21T12:00:56Z</time>
      </trkpt>
      <trkpt lat="47.34597" lon="5.99908">
        <ele>255.2</ele>
        <time>2017-12-21T12:00:57Z</time>
      </trkpt>
      <trkpt lat="47.34594" lon="5.99904">
        <ele>255.6</ele>
        <time>2017-12-21T12:00:58Z</time>
      </trkpt>
      <trkpt lat="47.34592" lon="5.99901">
        <ele>256</ele>
        <time>2017-12-21T12:00:59Z</time>
      </trkpt>
      <trkpt lat="47.3459" lon="5.99898">
        <ele>256.4</ele>
        <time>2017-12-21T12:01:00Z</time>
      </trkpt>
      <trkpt lat="47.34587" lon="5.99894">
        <ele>256.4</ele>
        <time>2017-12-21T12:01:01Z</time>
      </trkpt>
      <trkpt lat="47.34584" lon="5.99891">
        <ele>256.4</ele>
        <time>2017-12-21T12:01:02Z</time>
      </trkpt>
      <trkpt lat="47.34581" lon="5.99887">
        <ele>256.4</ele>
        <time>2017-12-21T12:01:03Z</time>
      </trkpt>
      <trkpt lat="47.34578" lon="5.99883">
        <ele>256.4</ele>
        <time>2017-12-21T12:01:04Z</time>
      </trkpt>
      <trkpt lat="47.34575" lon="5.9988">
        <ele>256.4</ele>
        <time>2017-12-21T12:01:05Z</time>
      </trkpt>
      <trkpt lat="47.34572" lon="5.99877">
        <ele>256.8</ele>
        <time>2017-12-21T12:01:06Z</time>
      </trkpt>
      <trkpt lat="47.34569" lon="5.99874">
        <ele>257.2</ele>
        <time>2017-12-21T12:01:07Z</time>
      </trkpt>
      <trkpt lat="47.34566" lon="5.99871">
        <ele>257.8</ele>
        <time>2017-12-21T12:01:08Z</time>
      </trkpt>
      <trkpt lat="47.34563" lon="5.99867">
        <ele>258.6</ele>
        <time>2017-12-21T12:01:09Z</time>
      </trkpt>
      <trkpt lat="47.34559" lon="5.99864">
        <ele>258.6</ele>
        <time>2017-12-21T12:01:10Z</time>
      </trkpt>
      <trkpt lat="47.34556" lon="5.9986">
        <ele>258.6</ele>
        <time>2017-12-21T12:01:11Z</time>
      </trkpt>
      <trkpt lat="47.34552" lon="5.99857">
        <ele>258.6</ele>
        <time>2017-12-21T12:01:12Z</time>
      </trkpt>
      <trkpt lat="47.34549" lon="5.99853">
        <ele>258.6</ele>
        <time>2017-12-21T12:01:13Z</time>
      </trkpt>
      <trkpt lat="47.34545" lon="5.9985">
        <ele>258.6</ele>
        <time>2017-12-21T12:01:14Z</time>
      </trkpt>
      <trkpt lat="47.34542" lon="5.99846">
        <ele>258.6</ele>
        <time>2017-12-21T12:01:15Z</time>
      </trkpt>
      <trkpt lat="47.34538" lon="5.99842">
        <ele>258.6</ele>
        <time>2017-12-21T12:01:16Z</time>
      </trkpt>
      <trkpt lat="47.34535" lon="5.99839">
        <ele>258.6</ele>
        <time>2017-12-21T12:01:17Z</time>
      </trkpt>
      <trkpt lat="47.34531" lon="5.99836">
        <ele>258.6</ele>
        <time>2017-12-21T12:01:18Z</time>
      </trkpt>
      <trkpt lat="47.34528" lon="5.99833">
        <ele>258.6</ele>
        <time>2017-12-21T12:01:19Z</time>
      </trkpt>
      <trkpt lat="47.34525" lon="5.9983">
        <ele>258.6</ele>
        <time>2017-12-21T12:01:20Z</time>
      </trkpt>
      <trkpt lat="47.34521" lon="5.99827">
        <ele>258.6</ele>
        <time>2017-12-21T12:01:21Z</time>
      </trkpt>
      <trkpt lat="47.34518" lon="5.99824">
        <ele>258.6</ele>
        <time>2017-12-21T12:01:22Z</time>
      </trkpt>
      <trkpt lat="47.34515" lon="5.99821">
        <ele>258.6</ele>
        <time>2017-12-21T12:01:23Z</time>
      </trkpt>
      <trkpt lat="47.34511" lon="5.99818">
        <ele>258.6</ele>
        <time>2017-12-21T12:01:24Z</time>
      </trkpt>
      <trkpt lat="47.34507" lon="5.99814">
        <ele>258.6</ele>
        <time>2017-12-21T12:01:25Z</time>
      </trkpt>
      <trkpt lat="47.34503" lon="5.99808">
        <ele>258.6</ele>
        <time>2017-12-21T12:01:26Z</time>
      </trkpt>
      <trkpt lat="47.345" lon="5.99803">
        <ele>258.6</ele>
        <time>2017-12-21T12:01:27Z</time>
      </trkpt>
      <trkpt lat="47.34496" lon="5.99797">
        <ele>258.6</ele>
        <time>2017-12-21T12:01:28Z</time>
      </trkpt>
      <trkpt lat="47.34493" lon="5.99791">
        <ele>258.6</ele>
        <time>2017-12-21T12:01:29Z</time>
      </trkpt>
      <trkpt lat="47.3449" lon="5.99785">
        <ele>258.6</ele>
        <time>2017-12-21T12:01:30Z</time>
      </trkpt>
      <trkpt lat="47.34487" lon="5.99779">
        <ele>258.6</ele>
        <time>2017-12-21T12:01:31Z</time>
      </trkpt>
      <trkpt lat="47.34484" lon="5.99772">
        <ele>258.6</ele>
        <time>2017-12-21T12:01:32Z</time>
      </trkpt>
      <trkpt lat="47.34481" lon="5.99766">
        <ele>258.6</ele>
        <time>2017-12-21T12:01:33Z</time>
      </trkpt>
      <trkpt lat="47.34478" lon="5.9976">
        <ele>258.6</ele>
        <time>2017-12-21T12:01:34Z</time>
      </trkpt>
      <trkpt lat="47.34476" lon="5.99753">
        <ele>258.6</ele>
        <time>2017-12-21T12:01:35Z</time>
      </trkpt>
      <trkpt lat="47.34473" lon="5.99747">
        <ele>258.6</ele>
        <time>2017-12-21T12:01:36Z</time>
      </trkpt>
      <trkpt lat="47.3447" lon="5.99741">
        <ele>258.6</ele>
        <time>2017-12-21T12:01:37Z</time>
      </trkpt>
      <trkpt lat="47.34468" lon="5.99735">
        <ele>258.6</ele>
        <time>2017-12-21T12:01:38Z</time>
      </trkpt>
      <trkpt lat="47.34465" lon="5.99729">
        <ele>258.6</ele>
        <time>2017-12-21T12:01:39Z</time>
      </trkpt>
      <trkpt lat="47.34463" lon="5.99722">
        <ele>258.6</ele>
        <time>2017-12-21T12:01:40Z</time>
      </trkpt>
      <trkpt lat="47.3446" lon="5.99716">
        <ele>258.6</ele>
        <time>2017-12-21T12:01:41Z</time>
      </trkpt>
      <trkpt lat="47.34457" lon="5.9971">
        <ele>258.6</ele>
        <time>2017-12-21T12:01:42Z</time>
      </trkpt>
      <trkpt lat="47.34454" lon="5.99703">
        <ele>258.6</ele>
        <time>2017-12-21T12:01:43Z</time>
      </trkpt>
      <trkpt lat="47.34451" lon="5.99696">
        <ele>258.6</ele>
        <time>2017-12-21T12:01:44Z</time>
      </trkpt>
      <trkpt lat="47.34448" lon="5.9969">
        <ele>258.6</ele>
        <time>2017-12-21T12:01:45Z</time>
      </trkpt>
      <trkpt lat="47.34446" lon="5.99683">
        <ele>258.6</ele>
        <time>2017-12-21T12:01:46Z</time>
      </trkpt>
      <trkpt lat="47.34443" lon="5.99676">
        <ele>258.6</ele>
        <time>2017-12-21T12:01:47Z</time>
      </trkpt>
      <trkpt lat="47.3444" lon="5.9967">
        <ele>258.6</ele>
        <time>2017-12-21T12:01:48Z</time>
      </trkpt>
      <trkpt lat="47.34437" lon="5.99662">
        <ele>258.6</ele>
        <time>2017-12-21T12:01:49Z</time>
      </trkpt>
      <trkpt lat="47.34434" lon="5.99655">
        <ele>258.6</ele>
        <time>2017-12-21T12:01:50Z</time>
      </trkpt>
      <trkpt lat="47.34431" lon="5.99648">
        <ele>258.6</ele>
        <time>2017-12-21T12:01:51Z</time>
      </trkpt>
      <trkpt lat="47.34428" lon="5.99641">
        <ele>258.6</ele>
        <time>2017-12-21T12:01:52Z</time>
      </trkpt>
      <trkpt lat="47.34426" lon="5.99634">
        <ele>258.6</ele>
        <time>2017-12-21T12:01:53Z</time>
      </trkpt>
      <trkpt lat="47.34423" lon="5.99628">
        <ele>258.6</ele>
        <time>2017-12-21T12:01:54Z</time>
      </trkpt>
      <trkpt lat="47.3442" lon="5.99622">
        <ele>258.6</ele>
        <time>2017-12-21T12:01:55Z</time>
      </trkpt>
      <trkpt lat="47.34417" lon="5.99615">
        <ele>258.6</ele>
        <time>2017-12-21T12:01:56Z</time>
      </trkpt>
      <trkpt lat="47.34414" lon="5.99609">
        <ele>258.6</ele>
        <time>2017-12-21T12:01:57Z</time>
      </trkpt>
      <trkpt lat="47.34412" lon="5.99603">
        <ele>258.6</ele>
        <time>2017-12-21T12:01:58Z</time>
      </trkpt>
      <trkpt lat="47.3441" lon="5.99597">
        <ele>258.6</ele>
        <time>2017-12-21T12:01:59Z</time>
      </trkpt>
      <trkpt lat="47.34407" lon="5.99592">
        <ele>258.6</ele>
        <time>2017-12-21T12:02:00Z</time>
      </trkpt>
      <trkpt lat="47.34405" lon="5.99586">
        <ele>258.6</ele>
        <time>2017-12-21T12:02:01Z</time>
      </trkpt>
      <trkpt lat="47.34402" lon="5.99581">
        <ele>258.6</ele>
        <time>2017-12-21T12:02:02Z</time>
      </trkpt>
      <trkpt lat="47.344" lon="5.99575">
        <ele>258.6</ele>
        <time>2017-12-21T12:02:03Z</time>
      </trkpt>
      <trkpt lat="47.34398" lon="5.9957">
        <ele>258.6</ele>
        <time>2017-12-21T12:02:04Z</time>
      </trkpt>
      <trkpt lat="47.34395" lon="5.99565">
        <ele>258.6</ele>
        <time>2017-12-21T12:02:05Z</time>
      </trkpt>
      <trkpt lat="47.34393" lon="5.9956">
        <ele>258.6</ele>
        <time>2017-12-21T12:02:06Z</time>
      </trkpt>
      <trkpt lat="47.3439" lon="5.99554">
        <ele>259</ele>
        <time>2017-12-21T12:02:07Z</time>
      </trkpt>
      <trkpt lat="47.34388" lon="5.99549">
        <ele>259.4</ele>
        <time>2017-12-21T12:02:08Z</time>
      </trkpt>
      <trkpt lat="47.34385" lon="5.99543">
        <ele>259.8</ele>
        <time>2017-12-21T12:02:09Z</time>
      </trkpt>
      <trkpt lat="47.34383" lon="5.99537">
        <ele>260.2</ele>
        <time>2017-12-21T12:02:10Z</time>
      </trkpt>
      <trkpt lat="47.3438" lon="5.99531">
        <ele>260.6</ele>
        <time>2017-12-21T12:02:11Z</time>
      </trkpt>
      <trkpt lat="47.34378" lon="5.99525">
        <ele>260.6</ele>
        <time>2017-12-21T12:02:12Z</time>
      </trkpt>
      <trkpt lat="47.34376" lon="5.9952">
        <ele>260.6</ele>
        <time>2017-12-21T12:02:13Z</time>
      </trkpt>
      <trkpt lat="47.34373" lon="5.99515">
        <ele>260.6</ele>
        <time>2017-12-21T12:02:14Z</time>
      </trkpt>
      <trkpt lat="47.34371" lon="5.99509">
        <ele>260.6</ele>
        <time>2017-12-21T12:02:15Z</time>
      </trkpt>
      <trkpt lat="47.34369" lon="5.99503">
        <ele>260.6</ele>
        <time>2017-12-21T12:02:16Z</time>
      </trkpt>
      <trkpt lat="47.34366" lon="5.99498">
        <ele>260.6</ele>
        <time>2017-12-21T12:02:17Z</time>
      </trkpt>
      <trkpt lat="47.34363" lon="5.99491">
        <ele>260.6</ele>
        <time>2017-12-21T12:02:18Z</time>
      </trkpt>
      <trkpt lat="47.34361" lon="5.99485">
        <ele>260.6</ele>
        <time>2017-12-21T12:02:19Z</time>
      </trkpt>
      <trkpt lat="47.34358" lon="5.99479">
        <ele>260.6</ele>
        <time>2017-12-21T12:02:20Z</time>
      </trkpt>
      <trkpt lat="47.34356" lon="5.99473">
        <ele>260.6</ele>
        <time>2017-12-21T12:02:21Z</time>
      </trkpt>
      <trkpt lat="47.34353" lon="5.99467">
        <ele>260.6</ele>
        <time>2017-12-21T12:02:22Z</time>
      </trkpt>
      <trkpt lat="47.3435" lon="5.99461">
        <ele>260.6</ele>
        <time>2017-12-21T12:02:23Z</time>
      </trkpt>
      <trkpt lat="47.34347" lon="5.99454">
        <ele>260.6</ele>
        <time>2017-12-21T12:02:24Z</time>
      </trkpt>
      <trkpt lat="47.34344" lon="5.99447">
        <ele>260.6</ele>
        <time>2017-12-21T12:02:25Z</time>
      </trkpt>
      <trkpt lat="47.34342" lon="5.9944">
        <ele>260.6</ele>
        <time>2017-12-21T12:02:26Z</time>
      </trkpt>
      <trkpt lat="47.34338" lon="5.99434">
        <ele>260.6</ele>
        <time>2017-12-21T12:02:27Z</time>
      </trkpt>
      <trkpt lat="47.34335" lon="5.99427">
        <ele>260.6</ele>
        <time>2017-12-21T12:02:28Z</time>
      </trkpt>
      <trkpt lat="47.34331" lon="5.9942">
        <ele>260.6</ele>
        <time>2017-12-21T12:02:29Z</time>
      </trkpt>
      <trkpt lat="47.34328" lon="5.99412">
        <ele>260.6</ele>
        <time>2017-12-21T12:02:30Z</time>
      </trkpt>
      <trkpt lat="47.34324" lon="5.99405">
        <ele>260.6</ele>
        <time>2017-12-21T12:02:31Z</time>
      </trkpt>
      <trkpt lat="47.3432" lon="5.99397">
        <ele>260.6</ele>
        <time>2017-12-21T12:02:32Z</time>
      </trkpt>
      <trkpt lat="47.34315" lon="5.99388">
        <ele>260.6</ele>
        <time>2017-12-21T12:02:33Z</time>
      </trkpt>
      <trkpt lat="47.34311" lon="5.99379">
        <ele>260.2</ele>
        <time>2017-12-21T12:02:34Z</time>
      </trkpt>
      <trkpt lat="47.34306" lon="5.99369">
        <ele>259.8</ele>
        <time>2017-12-21T12:02:35Z</time>
      </trkpt>
      <trkpt lat="47.343" lon="5.99359">
        <ele>259.4</ele>
        <time>2017-12-21T12:02:36Z</time>
      </trkpt>
      <trkpt lat="47.34294" lon="5.9935">
        <ele>259</ele>
        <time>2017-12-21T12:02:37Z</time>
      </trkpt>
      <trkpt lat="47.34289" lon="5.9934">
        <ele>258.4</ele>
        <time>2017-12-21T12:02:38Z</time>
      </trkpt>
      <trkpt lat="47.34283" lon="5.99329">
        <ele>257.8</ele>
        <time>2017-12-21T12:02:39Z</time>
      </trkpt>
      <trkpt lat="47.34278" lon="5.99318">
        <ele>257.2</ele>
        <time>2017-12-21T12:02:40Z</time>
      </trkpt>
      <trkpt lat="47.34273" lon="5.99306">
        <ele>256.6</ele>
        <time>2017-12-21T12:02:41Z</time>
      </trkpt>
      <trkpt lat="47.34267" lon="5.99296">
        <ele>256.2</ele>
        <time>2017-12-21T12:02:42Z</time>
      </trkpt>
      <trkpt lat="47.34262" lon="5.99285">
        <ele>256.2</ele>
        <time>2017-12-21T12:02:43Z</time>
      </trkpt>
      <trkpt lat="47.34257" lon="5.99274">
        <ele>255.8</ele>
        <time>2017-12-21T12:02:44Z</time>
      </trkpt>
      <trkpt lat="47.34253" lon="5.99263">
        <ele>255.2</ele>
        <time>2017-12-21T12:02:45Z</time>
      </trkpt>
      <trkpt lat="47.34248" lon="5.99252">
        <ele>254.8</ele>
        <time>2017-12-21T12:02:46Z</time>
      </trkpt>
      <trkpt lat="47.34244" lon="5.99241">
        <ele>254.4</ele>
        <time>2017-12-21T12:02:47Z</time>
      </trkpt>
      <trkpt lat="47.3424" lon="5.9923">
        <ele>254</ele>
        <time>2017-12-21T12:02:48Z</time>
      </trkpt>
      <trkpt lat="47.34236" lon="5.99219">
        <ele>254</ele>
        <time>2017-12-21T12:02:49Z</time>
      </trkpt>
      <trkpt lat="47.34233" lon="5.99208">
        <ele>254</ele>
        <time>2017-12-21T12:02:50Z</time>
      </trkpt>
      <trkpt lat="47.34229" lon="5.99198">
        <ele>254</ele>
        <time>2017-12-21T12:02:51Z</time>
      </trkpt>
      <trkpt lat="47.34226" lon="5.99188">
        <ele>254</ele>
        <time>2017-12-21T12:02:52Z</time>
      </trkpt>
      <trkpt lat="47.34223" lon="5.99178">
        <ele>254</ele>
        <time>2017-12-21T12:02:53Z</time>
      </trkpt>
      <trkpt lat="47.3422" lon="5.99169">
        <ele>254</ele>
        <time>2017-12-21T12:02:54Z</time>
      </trkpt>
      <trkpt lat="47.34217" lon="5.9916">
        <ele>254</ele>
        <time>2017-12-21T12:02:55Z</time>
      </trkpt>
      <trkpt lat="47.34214" lon="5.99152">
        <ele>254</ele>
        <time>2017-12-21T12:02:56Z</time>
      </trkpt>
      <trkpt lat="47.34211" lon="5.99144">
        <ele>254</ele>
        <time>2017-12-21T12:02:57Z</time>
      </trkpt>
      <trkpt lat="47.34209" lon="5.99136">
        <ele>254</ele>
        <time>2017-12-21T12:02:58Z</time>
      </trkpt>
      <trkpt lat="47.34207" lon="5.99128">
        <ele>254</ele>
        <time>2017-12-21T12:02:59Z</time>
      </trkpt>
      <trkpt lat="47.34204" lon="5.9912">
        <ele>254</ele>
        <time>2017-12-21T12:03:00Z</time>
      </trkpt>
      <trkpt lat="47.34201" lon="5.99113">
        <ele>254</ele>
        <time>2017-12-21T12:03:01Z</time>
      </trkpt>
      <trkpt lat="47.34199" lon="5.99105">
        <ele>254</ele>
        <time>2017-12-21T12:03:02Z</time>
      </trkpt>
      <trkpt lat="47.34196" lon="5.99096">
        <ele>254</ele>
        <time>2017-12-21T12:03:03Z</time>
      </trkpt>
      <trkpt lat="47.34193" lon="5.99088">
        <ele>254</ele>
        <time>2017-12-21T12:03:04Z</time>
      </trkpt>
      <trkpt lat="47.3419" lon="5.9908">
        <ele>254</ele>
        <time>2017-12-21T12:03:05Z</time>
      </trkpt>
      <trkpt lat="47.34188" lon="5.99072">
        <ele>254</ele>
        <time>2017-12-21T12:03:06Z</time>
      </trkpt>
      <trkpt lat="47.34185" lon="5.99064">
        <ele>253.4</ele>
        <time>2017-12-21T12:03:07Z</time>
      </trkpt>
      <trkpt lat="47.34182" lon="5.99056">
        <ele>253</ele>
        <time>2017-12-21T12:03:08Z</time>
      </trkpt>
      <trkpt lat="47.34179" lon="5.99047">
        <ele>252.6</ele>
        <time>2017-12-21T12:03:09Z</time>
      </trkpt>
      <trkpt lat="47.34176" lon="5.99038">
        <ele>252.2</ele>
        <time>2017-12-21T12:03:10Z</time>
      </trkpt>
      <trkpt lat="47.34173" lon="5.99029">
        <ele>251.6</ele>
        <time>2017-12-21T12:03:11Z</time>
      </trkpt>
      <trkpt lat="47.34169" lon="5.99019">
        <ele>251.6</ele>
        <time>2017-12-21T12:03:12Z</time>
      </trkpt>
      <trkpt lat="47.34166" lon="5.9901">
        <ele>251.2</ele>
        <time>2017-12-21T12:03:13Z</time>
      </trkpt>
      <trkpt lat="47.34163" lon="5.99001">
        <ele>250.2</ele>
        <time>2017-12-21T12:03:14Z</time>
      </trkpt>
      <trkpt lat="47.34159" lon="5.98991">
        <ele>249.8</ele>
        <time>2017-12-21T12:03:15Z</time>
      </trkpt>
      <trkpt lat="47.34155" lon="5.98981">
        <ele>249.2</ele>
        <time>2017-12-21T12:03:16Z</time>
      </trkpt>
      <trkpt lat="47.34152" lon="5.98971">
        <ele>249.2</ele>
        <time>2017-12-21T12:03:17Z</time>
      </trkpt>
      <trkpt lat="47.34148" lon="5.98959">
        <ele>249.2</ele>
        <time>2017-12-21T12:03:18Z</time>
      </trkpt>
      <trkpt lat="47.34144" lon="5.98949">
        <ele>249.2</ele>
        <time>2017-12-21T12:03:19Z</time>
      </trkpt>
      <trkpt lat="47.3414" lon="5.98938">
        <ele>248.8</ele>
        <time>2017-12-21T12:03:20Z</time>
      </trkpt>
      <trkpt lat="47.34136" lon="5.98927">
        <ele>248.4</ele>
        <time>2017-12-21T12:03:21Z</time>
      </trkpt>
      <trkpt lat="47.34132" lon="5.98916">
        <ele>248</ele>
        <time>2017-12-21T12:03:22Z</time>
      </trkpt>
      <trkpt lat="47.34127" lon="5.98906">
        <ele>247.4</ele>
        <time>2017-12-21T12:03:23Z</time>
      </trkpt>
      <trkpt lat="47.34123" lon="5.98895">
        <ele>247</ele>
        <time>2017-12-21T12:03:24Z</time>
      </trkpt>
      <trkpt lat="47.34118" lon="5.98884">
        <ele>247</ele>
        <time>2017-12-21T12:03:25Z</time>
      </trkpt>
      <trkpt lat="47.34113" lon="5.98873">
        <ele>247</ele>
        <time>2017-12-21T12:03:26Z</time>
      </trkpt>
      <trkpt lat="47.34109" lon="5.98862">
        <ele>246.6</ele>
        <time>2017-12-21T12:03:27Z</time>
      </trkpt>
      <trkpt lat="47.34104" lon="5.98852">
        <ele>246.2</ele>
        <time>2017-12-21T12:03:28Z</time>
      </trkpt>
      <trkpt lat="47.341" lon="5.98842">
        <ele>245.8</ele>
        <time>2017-12-21T12:03:29Z</time>
      </trkpt>
      <trkpt lat="47.34095" lon="5.98833">
        <ele>245.4</ele>
        <time>2017-12-21T12:03:30Z</time>
      </trkpt>
      <trkpt lat="47.34091" lon="5.98823">
        <ele>245</ele>
        <time>2017-12-21T12:03:31Z</time>
      </trkpt>
      <trkpt lat="47.34087" lon="5.98813">
        <ele>245</ele>
        <time>2017-12-21T12:03:32Z</time>
      </trkpt>
      <trkpt lat="47.34082" lon="5.98803">
        <ele>245</ele>
        <time>2017-12-21T12:03:33Z</time>
      </trkpt>
      <trkpt lat="47.34078" lon="5.98793">
        <ele>245</ele>
        <time>2017-12-21T12:03:34Z</time>
      </trkpt>
      <trkpt lat="47.34074" lon="5.98784">
        <ele>244.6</ele>
        <time>2017-12-21T12:03:35Z</time>
      </trkpt>
      <trkpt lat="47.34069" lon="5.98775">
        <ele>244.2</ele>
        <time>2017-12-21T12:03:36Z</time>
      </trkpt>
      <trkpt lat="47.34065" lon="5.98766">
        <ele>243.8</ele>
        <time>2017-12-21T12:03:37Z</time>
      </trkpt>
      <trkpt lat="47.34061" lon="5.98758">
        <ele>243.4</ele>
        <time>2017-12-21T12:03:38Z</time>
      </trkpt>
      <trkpt lat="47.34057" lon="5.98749">
        <ele>243</ele>
        <time>2017-12-21T12:03:39Z</time>
      </trkpt>
      <trkpt lat="47.34053" lon="5.98741">
        <ele>243</ele>
        <time>2017-12-21T12:03:40Z</time>
      </trkpt>
      <trkpt lat="47.34049" lon="5.98732">
        <ele>243</ele>
        <time>2017-12-21T12:03:41Z</time>
      </trkpt>
      <trkpt lat="47.34045" lon="5.98723">
        <ele>243</ele>
        <time>2017-12-21T12:03:42Z</time>
      </trkpt>
      <trkpt lat="47.34041" lon="5.98713">
        <ele>243</ele>
        <time>2017-12-21T12:03:43Z</time>
      </trkpt>
      <trkpt lat="47.34038" lon="5.98704">
        <ele>243</ele>
        <time>2017-12-21T12:03:44Z</time>
      </trkpt>
      <trkpt lat="47.34035" lon="5.98694">
        <ele>243</ele>
        <time>2017-12-21T12:03:45Z</time>
      </trkpt>
      <trkpt lat="47.34032" lon="5.98684">
        <ele>243</ele>
        <time>2017-12-21T12:03:46Z</time>
      </trkpt>
      <trkpt lat="47.34029" lon="5.98673">
        <ele>243</ele>
        <time>2017-12-21T12:03:47Z</time>
      </trkpt>
      <trkpt lat="47.34026" lon="5.98663">
        <ele>243</ele>
        <time>2017-12-21T12:03:48Z</time>
      </trkpt>
      <trkpt lat="47.34023" lon="5.98653">
        <ele>243</ele>
        <time>2017-12-21T12:03:49Z</time>
      </trkpt>
      <trkpt lat="47.34019" lon="5.98642">
        <ele>243</ele>
        <time>2017-12-21T12:03:50Z</time>
      </trkpt>
      <trkpt lat="47.34016" lon="5.98632">
        <ele>242.6</ele>
        <time>2017-12-21T12:03:51Z</time>
      </trkpt>
      <trkpt lat="47.34012" lon="5.98621">
        <ele>242</ele>
        <time>2017-12-21T12:03:52Z</time>
      </trkpt>
      <trkpt lat="47.34008" lon="5.98611">
        <ele>241.6</ele>
        <time>2017-12-21T12:03:53Z</time>
      </trkpt>
      <trkpt lat="47.34004" lon="5.986">
        <ele>241</ele>
        <time>2017-12-21T12:03:54Z</time>
      </trkpt>
      <trkpt lat="47.34" lon="5.98589">
        <ele>240.6</ele>
        <time>2017-12-21T12:03:55Z</time>
      </trkpt>
      <trkpt lat="47.33996" lon="5.98578">
        <ele>240.6</ele>
        <time>2017-12-21T12:03:56Z</time>
      </trkpt>
      <trkpt lat="47.33992" lon="5.98566">
        <ele>240.2</ele>
        <time>2017-12-21T12:03:57Z</time>
      </trkpt>
      <trkpt lat="47.33989" lon="5.98554">
        <ele>239.6</ele>
        <time>2017-12-21T12:03:58Z</time>
      </trkpt>
      <trkpt lat="47.33985" lon="5.98542">
        <ele>239.2</ele>
        <time>2017-12-21T12:03:59Z</time>
      </trkpt>
      <trkpt lat="47.33982" lon="5.98529">
        <ele>238.6</ele>
        <time>2017-12-21T12:04:00Z</time>
      </trkpt>
      <trkpt lat="47.33979" lon="5.98516">
        <ele>238.2</ele>
        <time>2017-12-21T12:04:01Z</time>
      </trkpt>
      <trkpt lat="47.33976" lon="5.98503">
        <ele>237.6</ele>
        <time>2017-12-21T12:04:02Z</time>
      </trkpt>
      <trkpt lat="47.33974" lon="5.98489">
        <ele>237.2</ele>
        <time>2017-12-21T12:04:03Z</time>
      </trkpt>
      <trkpt lat="47.33971" lon="5.98476">
        <ele>236.2</ele>
        <time>2017-12-21T12:04:04Z</time>
      </trkpt>
      <trkpt lat="47.33969" lon="5.98463">
        <ele>235.6</ele>
        <time>2017-12-21T12:04:05Z</time>
      </trkpt>
      <trkpt lat="47.33966" lon="5.9845">
        <ele>235.6</ele>
        <time>2017-12-21T12:04:06Z</time>
      </trkpt>
      <trkpt lat="47.33964" lon="5.98437">
        <ele>235.2</ele>
        <time>2017-12-21T12:04:07Z</time>
      </trkpt>
      <trkpt lat="47.33961" lon="5.98424">
        <ele>234.8</ele>
        <time>2017-12-21T12:04:08Z</time>
      </trkpt>
      <trkpt lat="47.33958" lon="5.98412">
        <ele>234.4</ele>
        <time>2017-12-21T12:04:09Z</time>
      </trkpt>
      <trkpt lat="47.33956" lon="5.98399">
        <ele>233.8</ele>
        <time>2017-12-21T12:04:10Z</time>
      </trkpt>
      <trkpt lat="47.33954" lon="5.98386">
        <ele>233.4</ele>
        <time>2017-12-21T12:04:11Z</time>
      </trkpt>
      <trkpt lat="47.33951" lon="5.98374">
        <ele>233.4</ele>
        <time>2017-12-21T12:04:12Z</time>
      </trkpt>
      <trkpt lat="47.33948" lon="5.98362">
        <ele>233.4</ele>
        <time>2017-12-21T12:04:13Z</time>
      </trkpt>
      <trkpt lat="47.33946" lon="5.9835">
        <ele>233.4</ele>
        <time>2017-12-21T12:04:14Z</time>
      </trkpt>
      <trkpt lat="47.33943" lon="5.98338">
        <ele>233.4</ele>
        <time>2017-12-21T12:04:15Z</time>
      </trkpt>
      <trkpt lat="47.33941" lon="5.98325">
        <ele>233.4</ele>
        <time>2017-12-21T12:04:16Z</time>
      </trkpt>
      <trkpt lat="47.33938" lon="5.98313">
        <ele>233</ele>
        <time>2017-12-21T12:04:17Z</time>
      </trkpt>
      <trkpt lat="47.33935" lon="5.983">
        <ele>232.6</ele>
        <time>2017-12-21T12:04:18Z</time>
      </trkpt>
      <trkpt lat="47.33933" lon="5.98287">
        <ele>232.2</ele>
        <time>2017-12-21T12:04:19Z</time>
      </trkpt>
      <trkpt lat="47.3393" lon="5.98275">
        <ele>231.6</ele>
        <time>2017-12-21T12:04:20Z</time>
      </trkpt>
      <trkpt lat="47.33927" lon="5.98263">
        <ele>231.2</ele>
        <time>2017-12-21T12:04:21Z</time>
      </trkpt>
      <trkpt lat="47.33923" lon="5.98252">
        <ele>231.2</ele>
        <time>2017-12-21T12:04:22Z</time>
      </trkpt>
      <trkpt lat="47.33918" lon="5.9824">
        <ele>231.2</ele>
        <time>2017-12-21T12:04:23Z</time>
      </trkpt>
      <trkpt lat="47.33914" lon="5.98229">
        <ele>231.2</ele>
        <time>2017-12-21T12:04:24Z</time>
      </trkpt>
      <trkpt lat="47.33907" lon="5.98219">
        <ele>231.2</ele>
        <time>2017-12-21T12:04:25Z</time>
      </trkpt>
      <trkpt lat="47.33902" lon="5.98209">
        <ele>231.2</ele>
        <time>2017-12-21T12:04:26Z</time>
      </trkpt>
      <trkpt lat="47.33896" lon="5.98199">
        <ele>230.8</ele>
        <time>2017-12-21T12:04:27Z</time>
      </trkpt>
      <trkpt lat="47.3389" lon="5.98189">
        <ele>230.4</ele>
        <time>2017-12-21T12:04:28Z</time>
      </trkpt>
      <trkpt lat="47.33884" lon="5.98179">
        <ele>229.6</ele>
        <time>2017-12-21T12:04:29Z</time>
      </trkpt>
      <trkpt lat="47.33878" lon="5.98169">
        <ele>229.2</ele>
        <time>2017-12-21T12:04:30Z</time>
      </trkpt>
      <trkpt lat="47.33873" lon="5.98158">
        <ele>229.2</ele>
        <time>2017-12-21T12:04:31Z</time>
      </trkpt>
      <trkpt lat="47.33867" lon="5.98148">
        <ele>229.2</ele>
        <time>2017-12-21T12:04:32Z</time>
      </trkpt>
      <trkpt lat="47.33862" lon="5.98138">
        <ele>229.2</ele>
        <time>2017-12-21T12:04:33Z</time>
      </trkpt>
      <trkpt lat="47.33856" lon="5.98128">
        <ele>228.8</ele>
        <time>2017-12-21T12:04:34Z</time>
      </trkpt>
      <trkpt lat="47.33851" lon="5.98119">
        <ele>228.4</ele>
        <time>2017-12-21T12:04:35Z</time>
      </trkpt>
      <trkpt lat="47.33846" lon="5.98109">
        <ele>227.8</ele>
        <time>2017-12-21T12:04:36Z</time>
      </trkpt>
      <trkpt lat="47.33841" lon="5.98098">
        <ele>227.4</ele>
        <time>2017-12-21T12:04:37Z</time>
      </trkpt>
      <trkpt lat="47.33837" lon="5.98088">
        <ele>226.8</ele>
        <time>2017-12-21T12:04:38Z</time>
      </trkpt>
      <trkpt lat="47.33833" lon="5.98078">
        <ele>226.2</ele>
        <time>2017-12-21T12:04:39Z</time>
      </trkpt>
      <trkpt lat="47.33829" lon="5.98067">
        <ele>225.6</ele>
        <time>2017-12-21T12:04:40Z</time>
      </trkpt>
      <trkpt lat="47.33825" lon="5.98057">
        <ele>225</ele>
        <time>2017-12-21T12:04:41Z</time>
      </trkpt>
      <trkpt lat="47.33821" lon="5.98046">
        <ele>225</ele>
        <time>2017-12-21T12:04:42Z</time>
      </trkpt>
      <trkpt lat="47.33819" lon="5.98035">
        <ele>225</ele>
        <time>2017-12-21T12:04:43Z</time>
      </trkpt>
      <trkpt lat="47.33816" lon="5.98023">
        <ele>225</ele>
        <time>2017-12-21T12:04:44Z</time>
      </trkpt>
      <trkpt lat="47.33815" lon="5.98012">
        <ele>225</ele>
        <time>2017-12-21T12:04:45Z</time>
      </trkpt>
      <trkpt lat="47.33813" lon="5.98001">
        <ele>225</ele>
        <time>2017-12-21T12:04:46Z</time>
      </trkpt>
      <trkpt lat="47.33812" lon="5.9799">
        <ele>225</ele>
        <time>2017-12-21T12:04:47Z</time>
      </trkpt>
      <trkpt lat="47.33811" lon="5.97978">
        <ele>225</ele>
        <time>2017-12-21T12:04:48Z</time>
      </trkpt>
      <trkpt lat="47.33811" lon="5.97967">
        <ele>225</ele>
        <time>2017-12-21T12:04:49Z</time>
      </trkpt>
      <trkpt lat="47.33812" lon="5.97955">
        <ele>225</ele>
        <time>2017-12-21T12:04:50Z</time>
      </trkpt>
      <trkpt lat="47.33813" lon="5.97944">
        <ele>225</ele>
        <time>2017-12-21T12:04:51Z</time>
      </trkpt>
      <trkpt lat="47.33815" lon="5.97934">
        <ele>225</ele>
        <time>2017-12-21T12:04:52Z</time>
      </trkpt>
      <trkpt lat="47.33817" lon="5.97923">
        <ele>225</ele>
        <time>2017-12-21T12:04:53Z</time>
      </trkpt>
      <trkpt lat="47.33818" lon="5.97912">
        <ele>225</ele>
        <time>2017-12-21T12:04:54Z</time>
      </trkpt>
      <trkpt lat="47.3382" lon="5.97901">
        <ele>225</ele>
        <time>2017-12-21T12:04:55Z</time>
      </trkpt>
      <trkpt lat="47.33821" lon="5.97891">
        <ele>225</ele>
        <time>2017-12-21T12:04:56Z</time>
      </trkpt>
      <trkpt lat="47.33822" lon="5.97879">
        <ele>225</ele>
        <time>2017-12-21T12:04:57Z</time>
      </trkpt>
      <trkpt lat="47.33823" lon="5.97868">
        <ele>225</ele>
        <time>2017-12-21T12:04:58Z</time>
      </trkpt>
      <trkpt lat="47.33823" lon="5.97858">
        <ele>225</ele>
        <time>2017-12-21T12:04:59Z</time>
      </trkpt>
      <trkpt lat="47.33823" lon="5.97847">
        <ele>225</ele>
        <time>2017-12-21T12:05:00Z</time>
      </trkpt>
      <trkpt lat="47.33822" lon="5.97837">
        <ele>225</ele>
        <time>2017-12-21T12:05:01Z</time>
      </trkpt>
      <trkpt lat="47.3382" lon="5.97827">
        <ele>225</ele>
        <time>2017-12-21T12:05:02Z</time>
      </trkpt>
      <trkpt lat="47.33819" lon="5.97818">
        <ele>225</ele>
        <time>2017-12-21T12:05:03Z</time>
      </trkpt>
      <trkpt lat="47.33817" lon="5.97808">
        <ele>225</ele>
        <time>2017-12-21T12:05:04Z</time>
      </trkpt>
      <trkpt lat="47.33816" lon="5.97799">
        <ele>225</ele>
        <time>2017-12-21T12:05:05Z</time>
      </trkpt>
      <trkpt lat="47.33814" lon="5.9779">
        <ele>225</ele>
        <time>2017-12-21T12:05:06Z</time>
      </trkpt>
      <trkpt lat="47.33812" lon="5.9778">
        <ele>225</ele>
        <time>2017-12-21T12:05:07Z</time>
      </trkpt>
      <trkpt lat="47.33811" lon="5.97771">
        <ele>225</ele>
        <time>2017-12-21T12:05:08Z</time>
      </trkpt>
      <trkpt lat="47.33811" lon="5.97761">
        <ele>225</ele>
        <time>2017-12-21T12:05:09Z</time>
      </trkpt>
      <trkpt lat="47.33812" lon="5.97752">
        <ele>225</ele>
        <time>2017-12-21T12:05:10Z</time>
      </trkpt>
      <trkpt lat="47.33814" lon="5.97743">
        <ele>225</ele>
        <time>2017-12-21T12:05:11Z</time>
      </trkpt>
      <trkpt lat="47.33818" lon="5.97734">
        <ele>225</ele>
        <time>2017-12-21T12:05:12Z</time>
      </trkpt>
      <trkpt lat="47.33823" lon="5.97728">
        <ele>225</ele>
        <time>2017-12-21T12:05:13Z</time>
      </trkpt>
      <trkpt lat="47.3383" lon="5.97724">
        <ele>225</ele>
        <time>2017-12-21T12:05:14Z</time>
      </trkpt>
      <trkpt lat="47.33836" lon="5.97722">
        <ele>225</ele>
        <time>2017-12-21T12:05:15Z</time>
      </trkpt>
      <trkpt lat="47.33842" lon="5.97718">
        <ele>225</ele>
        <time>2017-12-21T12:05:16Z</time>
      </trkpt>
      <trkpt lat="47.33847" lon="5.97713">
        <ele>225</ele>
        <time>2017-12-21T12:05:17Z</time>
      </trkpt>
      <trkpt lat="47.33851" lon="5.97707">
        <ele>225</ele>
        <time>2017-12-21T12:05:18Z</time>
      </trkpt>
      <trkpt lat="47.33854" lon="5.97698">
        <ele>225</ele>
        <time>2017-12-21T12:05:19Z</time>
      </trkpt>
      <trkpt lat="47.33855" lon="5.97689">
        <ele>225</ele>
        <time>2017-12-21T12:05:20Z</time>
      </trkpt>
      <trkpt lat="47.33853" lon="5.9768">
        <ele>225</ele>
        <time>2017-12-21T12:05:21Z</time>
      </trkpt>
      <trkpt lat="47.3385" lon="5.97672">
        <ele>225</ele>
        <time>2017-12-21T12:05:22Z</time>
      </trkpt>
      <trkpt lat="47.33847" lon="5.97664">
        <ele>225</ele>
        <time>2017-12-21T12:05:23Z</time>
      </trkpt>
      <trkpt lat="47.33845" lon="5.97656">
        <ele>225</ele>
        <time>2017-12-21T12:05:24Z</time>
      </trkpt>
      <trkpt lat="47.33842" lon="5.97648">
        <ele>225</ele>
        <time>2017-12-21T12:05:25Z</time>
      </trkpt>
      <trkpt lat="47.33841" lon="5.9764">
        <ele>225</ele>
        <time>2017-12-21T12:05:26Z</time>
      </trkpt>
      <trkpt lat="47.33839" lon="5.97633">
        <ele>225</ele>
        <time>2017-12-21T12:05:27Z</time>
      </trkpt>
      <trkpt lat="47.33837" lon="5.97626">
        <ele>225</ele>
        <time>2017-12-21T12:05:28Z</time>
      </trkpt>
      <trkpt lat="47.33835" lon="5.9762">
        <ele>225</ele>
        <time>2017-12-21T12:05:29Z</time>
      </trkpt>
      <trkpt lat="47.33833" lon="5.97614">
        <ele>225</ele>
        <time>2017-12-21T12:05:30Z</time>
      </trkpt>
      <trkpt lat="47.33832" lon="5.97609">
        <ele>225</ele>
        <time>2017-12-21T12:05:31Z</time>
      </trkpt>
      <trkpt lat="47.33831" lon="5.97605">
        <ele>225</ele>
        <time>2017-12-21T12:05:32Z</time>
      </trkpt>
      <trkpt lat="47.33829" lon="5.97599">
        <ele>225.4</ele>
        <time>2017-12-21T12:05:33Z</time>
      </trkpt>
      <trkpt lat="47.33828" lon="5.97594">
        <ele>225.8</ele>
        <time>2017-12-21T12:05:34Z</time>
      </trkpt>
      <trkpt lat="47.33826" lon="5.97589">
        <ele>226.2</ele>
        <time>2017-12-21T12:05:35Z</time>
      </trkpt>
      <trkpt lat="47.33824" lon="5.97585">
        <ele>226.6</ele>
        <time>2017-12-21T12:05:36Z</time>
      </trkpt>
      <trkpt lat="47.33823" lon="5.9758">
        <ele>227</ele>
        <time>2017-12-21T12:05:37Z</time>
      </trkpt>
      <trkpt lat="47.33822" lon="5.97576">
        <ele>227</ele>
        <time>2017-12-21T12:05:38Z</time>
      </trkpt>
      <trkpt lat="47.3382" lon="5.97571">
        <ele>227.4</ele>
        <time>2017-12-21T12:05:39Z</time>
      </trkpt>
      <trkpt lat="47.33819" lon="5.97566">
        <ele>227.8</ele>
        <time>2017-12-21T12:05:40Z</time>
      </trkpt>
      <trkpt lat="47.33817" lon="5.97561">
        <ele>228.2</ele>
        <time>2017-12-21T12:05:41Z</time>
      </trkpt>
      <trkpt lat="47.33816" lon="5.97556">
        <ele>228.6</ele>
        <time>2017-12-21T12:05:42Z</time>
      </trkpt>
      <trkpt lat="47.33815" lon="5.97552">
        <ele>229</ele>
        <time>2017-12-21T12:05:43Z</time>
      </trkpt>
      <trkpt lat="47.33813" lon="5.97549">
        <ele>229</ele>
        <time>2017-12-21T12:05:44Z</time>
      </trkpt>
      <trkpt lat="47.33811" lon="5.97544">
        <ele>229.6</ele>
        <time>2017-12-21T12:05:45Z</time>
      </trkpt>
      <trkpt lat="47.33809" lon="5.97539">
        <ele>230</ele>
        <time>2017-12-21T12:05:46Z</time>
      </trkpt>
      <trkpt lat="47.33808" lon="5.97535">
        <ele>230.4</ele>
        <time>2017-12-21T12:05:47Z</time>
      </trkpt>
      <trkpt lat="47.33806" lon="5.9753">
        <ele>231</ele>
        <time>2017-12-21T12:05:48Z</time>
      </trkpt>
      <trkpt lat="47.33804" lon="5.97526">
        <ele>231.4</ele>
        <time>2017-12-21T12:05:49Z</time>
      </trkpt>
      <trkpt lat="47.33802" lon="5.97522">
        <ele>231.4</ele>
        <time>2017-12-21T12:05:50Z</time>
      </trkpt>
      <trkpt lat="47.338" lon="5.97517">
        <ele>231.4</ele>
        <time>2017-12-21T12:05:51Z</time>
      </trkpt>
      <trkpt lat="47.33798" lon="5.97512">
        <ele>231.4</ele>
        <time>2017-12-21T12:05:52Z</time>
      </trkpt>
      <trkpt lat="47.33796" lon="5.97507">
        <ele>231.8</ele>
        <time>2017-12-21T12:05:53Z</time>
      </trkpt>
      <trkpt lat="47.33794" lon="5.97502">
        <ele>232.2</ele>
        <time>2017-12-21T12:05:54Z</time>
      </trkpt>
      <trkpt lat="47.33792" lon="5.97497">
        <ele>232.6</ele>
        <time>2017-12-21T12:05:55Z</time>
      </trkpt>
      <trkpt lat="47.3379" lon="5.97492">
        <ele>233</ele>
        <time>2017-12-21T12:05:56Z</time>
      </trkpt>
      <trkpt lat="47.33787" lon="5.97487">
        <ele>233.4</ele>
        <time>2017-12-21T12:05:57Z</time>
      </trkpt>
      <trkpt lat="47.33785" lon="5.97482">
        <ele>233.4</ele>
        <time>2017-12-21T12:05:58Z</time>
      </trkpt>
      <trkpt lat="47.33784" lon="5.97478">
        <ele>233.4</ele>
        <time>2017-12-21T12:05:59Z</time>
      </trkpt>
      <trkpt lat="47.33782" lon="5.97474">
        <ele>233.4</ele>
        <time>2017-12-21T12:06:00Z</time>
      </trkpt>
      <trkpt lat="47.33781" lon="5.9747">
        <ele>233.4</ele>
        <time>2017-12-21T12:06:01Z</time>
      </trkpt>
      <trkpt lat="47.33779" lon="5.97466">
        <ele>233.4</ele>
        <time>2017-12-21T12:06:02Z</time>
      </trkpt>
      <trkpt lat="47.33777" lon="5.97462">
        <ele>233.4</ele>
        <time>2017-12-21T12:06:03Z</time>
      </trkpt>
      <trkpt lat="47.33774" lon="5.97458">
        <ele>233.4</ele>
        <time>2017-12-21T12:06:04Z</time>
      </trkpt>
      <trkpt lat="47.33771" lon="5.97455">
        <ele>233.4</ele>
        <time>2017-12-21T12:06:05Z</time>
      </trkpt>
      <trkpt lat="47.33768" lon="5.97451">
        <ele>233.4</ele>
        <time>2017-12-21T12:06:06Z</time>
      </trkpt>
      <trkpt lat="47.33766" lon="5.97448">
        <ele>233.4</ele>
        <time>2017-12-21T12:06:07Z</time>
      </trkpt>
      <trkpt lat="47.33762" lon="5.97444">
        <ele>233.4</ele>
        <time>2017-12-21T12:06:08Z</time>
      </trkpt>
      <trkpt lat="47.33759" lon="5.9744">
        <ele>233.4</ele>
        <time>2017-12-21T12:06:09Z</time>
      </trkpt>
      <trkpt lat="47.33756" lon="5.97437">
        <ele>233.4</ele>
        <time>2017-12-21T12:06:10Z</time>
      </trkpt>
      <trkpt lat="47.33753" lon="5.97434">
        <ele>233.4</ele>
        <time>2017-12-21T12:06:11Z</time>
      </trkpt>
      <trkpt lat="47.3375" lon="5.97431">
        <ele>233.4</ele>
        <time>2017-12-21T12:06:12Z</time>
      </trkpt>
      <trkpt lat="47.33747" lon="5.97428">
        <ele>233.4</ele>
        <time>2017-12-21T12:06:13Z</time>
      </trkpt>
      <trkpt lat="47.33744" lon="5.97424">
        <ele>233.4</ele>
        <time>2017-12-21T12:06:14Z</time>
      </trkpt>
      <trkpt lat="47.33741" lon="5.97421">
        <ele>233.4</ele>
        <time>2017-12-21T12:06:15Z</time>
      </trkpt>
      <trkpt lat="47.33739" lon="5.97417">
        <ele>233.4</ele>
        <time>2017-12-21T12:06:16Z</time>
      </trkpt>
      <trkpt lat="47.33736" lon="5.97413">
        <ele>233.4</ele>
        <time>2017-12-21T12:06:17Z</time>
      </trkpt>
      <trkpt lat="47.33733" lon="5.97408">
        <ele>233.4</ele>
        <time>2017-12-21T12:06:18Z</time>
      </trkpt>
      <trkpt lat="47.3373" lon="5.97404">
        <ele>233.4</ele>
        <time>2017-12-21T12:06:19Z</time>
      </trkpt>
      <trkpt lat="47.33727" lon="5.974">
        <ele>233.4</ele>
        <time>2017-12-21T12:06:20Z</time>
      </trkpt>
      <trkpt lat="47.33726" lon="5.97394">
        <ele>233.4</ele>
        <time>2017-12-21T12:06:21Z</time>
      </trkpt>
      <trkpt lat="47.33727" lon="5.97387">
        <ele>233.4</ele>
        <time>2017-12-21T12:06:22Z</time>
      </trkpt>
      <trkpt lat="47.33731" lon="5.97381">
        <ele>233.4</ele>
        <time>2017-12-21T12:06:23Z</time>
      </trkpt>
      <trkpt lat="47.33733" lon="5.97375">
        <ele>233.4</ele>
        <time>2017-12-21T12:06:24Z</time>
      </trkpt>
      <trkpt lat="47.33733" lon="5.97368">
        <ele>233.4</ele>
        <time>2017-12-21T12:06:25Z</time>
      </trkpt>
      <trkpt lat="47.33732" lon="5.97362">
        <ele>233.4</ele>
        <time>2017-12-21T12:06:26Z</time>
      </trkpt>
      <trkpt lat="47.33731" lon="5.97354">
        <ele>233.4</ele>
        <time>2017-12-21T12:06:27Z</time>
      </trkpt>
      <trkpt lat="47.33729" lon="5.97346">
        <ele>233</ele>
        <time>2017-12-21T12:06:28Z</time>
      </trkpt>
      <trkpt lat="47.33727" lon="5.97338">
        <ele>232.6</ele>
        <time>2017-12-21T12:06:29Z</time>
      </trkpt>
      <trkpt lat="47.33725" lon="5.9733">
        <ele>232</ele>
        <time>2017-12-21T12:06:30Z</time>
      </trkpt>
      <trkpt lat="47.33725" lon="5.97325">
        <ele>231.4</ele>
        <time>2017-12-21T12:06:31Z</time>
      </trkpt>
      <trkpt lat="47.33724" lon="5.9732">
        <ele>230.6</ele>
        <time>2017-12-21T12:06:32Z</time>
      </trkpt>
      <trkpt lat="47.33723" lon="5.97318">
        <ele>229.2</ele>
        <time>2017-12-21T12:06:33Z</time>
      </trkpt>
      <trkpt lat="47.33723" lon="5.97316">
        <ele>228.4</ele>
        <time>2017-12-21T12:06:34Z</time>
      </trkpt>
      <trkpt lat="47.33723" lon="5.97312">
        <ele>227.6</ele>
        <time>2017-12-21T12:06:35Z</time>
      </trkpt>
      <trkpt lat="47.33723" lon="5.97309">
        <ele>227</ele>
        <time>2017-12-21T12:06:36Z</time>
      </trkpt>
      <trkpt lat="47.33723" lon="5.97305">
        <ele>226.2</ele>
        <time>2017-12-21T12:06:37Z</time>
      </trkpt>
      <trkpt lat="47.33722" lon="5.97301">
        <ele>226.2</ele>
        <time>2017-12-21T12:06:38Z</time>
      </trkpt>
      <trkpt lat="47.33721" lon="5.97295">
        <ele>226.2</ele>
        <time>2017-12-21T12:06:39Z</time>
      </trkpt>
      <trkpt lat="47.3372" lon="5.9729">
        <ele>226.2</ele>
        <time>2017-12-21T12:06:40Z</time>
      </trkpt>
      <trkpt lat="47.33718" lon="5.97284">
        <ele>225.8</ele>
        <time>2017-12-21T12:06:41Z</time>
      </trkpt>
      <trkpt lat="47.33716" lon="5.97277">
        <ele>225.4</ele>
        <time>2017-12-21T12:06:42Z</time>
      </trkpt>
      <trkpt lat="47.33714" lon="5.97268">
        <ele>225</ele>
        <time>2017-12-21T12:06:43Z</time>
      </trkpt>
      <trkpt lat="47.33712" lon="5.97259">
        <ele>224.6</ele>
        <time>2017-12-21T12:06:44Z</time>
      </trkpt>
      <trkpt lat="47.33711" lon="5.9725">
        <ele>224.2</ele>
        <time>2017-12-21T12:06:45Z</time>
      </trkpt>
      <trkpt lat="47.33709" lon="5.9724">
        <ele>223.6</ele>
        <time>2017-12-21T12:06:46Z</time>
      </trkpt>
      <trkpt lat="47.33706" lon="5.97228">
        <ele>223.2</ele>
        <time>2017-12-21T12:06:47Z</time>
      </trkpt>
      <trkpt lat="47.33703" lon="5.97217">
        <ele>222.6</ele>
        <time>2017-12-21T12:06:48Z</time>
      </trkpt>
      <trkpt lat="47.33698" lon="5.97206">
        <ele>222</ele>
        <time>2017-12-21T12:06:49Z</time>
      </trkpt>
      <trkpt lat="47.33694" lon="5.97196">
        <ele>221.6</ele>
        <time>2017-12-21T12:06:50Z</time>
      </trkpt>
      <trkpt lat="47.33689" lon="5.97187">
        <ele>221</ele>
        <time>2017-12-21T12:06:51Z</time>
      </trkpt>
      <trkpt lat="47.33684" lon="5.97177">
        <ele>220.4</ele>
        <time>2017-12-21T12:06:52Z</time>
      </trkpt>
      <trkpt lat="47.33679" lon="5.97167">
        <ele>220</ele>
        <time>2017-12-21T12:06:53Z</time>
      </trkpt>
      <trkpt lat="47.33675" lon="5.97156">
        <ele>219.4</ele>
        <time>2017-12-21T12:06:54Z</time>
      </trkpt>
      <trkpt lat="47.3367" lon="5.97146">
        <ele>219.4</ele>
        <time>2017-12-21T12:06:55Z</time>
      </trkpt>
      <trkpt lat="47.33666" lon="5.97135">
        <ele>219.4</ele>
        <time>2017-12-21T12:06:56Z</time>
      </trkpt>
      <trkpt lat="47.33662" lon="5.97125">
        <ele>218.6</ele>
        <time>2017-12-21T12:06:57Z</time>
      </trkpt>
      <trkpt lat="47.33658" lon="5.97114">
        <ele>218</ele>
        <time>2017-12-21T12:06:58Z</time>
      </trkpt>
      <trkpt lat="47.33654" lon="5.97104">
        <ele>217.6</ele>
        <time>2017-12-21T12:06:59Z</time>
      </trkpt>
      <trkpt lat="47.33649" lon="5.97094">
        <ele>217.2</ele>
        <time>2017-12-21T12:07:00Z</time>
      </trkpt>
      <trkpt lat="47.33646" lon="5.97084">
        <ele>217.2</ele>
        <time>2017-12-21T12:07:01Z</time>
      </trkpt>
      <trkpt lat="47.33642" lon="5.97074">
        <ele>217.2</ele>
        <time>2017-12-21T12:07:02Z</time>
      </trkpt>
      <trkpt lat="47.33638" lon="5.97065">
        <ele>217.2</ele>
        <time>2017-12-21T12:07:03Z</time>
      </trkpt>
      <trkpt lat="47.33634" lon="5.97057">
        <ele>217.2</ele>
        <time>2017-12-21T12:07:04Z</time>
      </trkpt>
      <trkpt lat="47.33631" lon="5.97048">
        <ele>217.2</ele>
        <time>2017-12-21T12:07:05Z</time>
      </trkpt>
      <trkpt lat="47.33627" lon="5.97039">
        <ele>217.2</ele>
        <time>2017-12-21T12:07:06Z</time>
      </trkpt>
      <trkpt lat="47.33624" lon="5.97031">
        <ele>217.2</ele>
        <time>2017-12-21T12:07:07Z</time>
      </trkpt>
      <trkpt lat="47.3362" lon="5.97022">
        <ele>217.2</ele>
        <time>2017-12-21T12:07:08Z</time>
      </trkpt>
      <trkpt lat="47.33617" lon="5.97013">
        <ele>217.2</ele>
        <time>2017-12-21T12:07:09Z</time>
      </trkpt>
      <trkpt lat="47.33613" lon="5.97005">
        <ele>217.2</ele>
        <time>2017-12-21T12:07:10Z</time>
      </trkpt>
      <trkpt lat="47.3361" lon="5.96996">
        <ele>217.2</ele>
        <time>2017-12-21T12:07:11Z</time>
      </trkpt>
      <trkpt lat="47.33607" lon="5.96988">
        <ele>217.2</ele>
        <time>2017-12-21T12:07:12Z</time>
      </trkpt>
      <trkpt lat="47.33603" lon="5.9698">
        <ele>217.2</ele>
        <time>2017-12-21T12:07:13Z</time>
      </trkpt>
      <trkpt lat="47.336" lon="5.96973">
        <ele>217.2</ele>
        <time>2017-12-21T12:07:14Z</time>
      </trkpt>
      <trkpt lat="47.33597" lon="5.96966">
        <ele>217.2</ele>
        <time>2017-12-21T12:07:15Z</time>
      </trkpt>
      <trkpt lat="47.33594" lon="5.96959">
        <ele>217.2</ele>
        <time>2017-12-21T12:07:16Z</time>
      </trkpt>
      <trkpt lat="47.33591" lon="5.96951">
        <ele>217.2</ele>
        <time>2017-12-21T12:07:17Z</time>
      </trkpt>
      <trkpt lat="47.33588" lon="5.96944">
        <ele>217.2</ele>
        <time>2017-12-21T12:07:18Z</time>
      </trkpt>
      <trkpt lat="47.33585" lon="5.96938">
        <ele>217.2</ele>
        <time>2017-12-21T12:07:19Z</time>
      </trkpt>
      <trkpt lat="47.33583" lon="5.96931">
        <ele>217.2</ele>
        <time>2017-12-21T12:07:20Z</time>
      </trkpt>
      <trkpt lat="47.3358" lon="5.96924">
        <ele>217.2</ele>
        <time>2017-12-21T12:07:21Z</time>
      </trkpt>
      <trkpt lat="47.33577" lon="5.96917">
        <ele>217.2</ele>
        <time>2017-12-21T12:07:22Z</time>
      </trkpt>
      <trkpt lat="47.33575" lon="5.96911">
        <ele>217.2</ele>
        <time>2017-12-21T12:07:23Z</time>
      </trkpt>
      <trkpt lat="47.33572" lon="5.96904">
        <ele>217.2</ele>
        <time>2017-12-21T12:07:24Z</time>
      </trkpt>
      <trkpt lat="47.3357" lon="5.96898">
        <ele>217.2</ele>
        <time>2017-12-21T12:07:25Z</time>
      </trkpt>
      <trkpt lat="47.33567" lon="5.96892">
        <ele>217.6</ele>
        <time>2017-12-21T12:07:26Z</time>
      </trkpt>
      <trkpt lat="47.33565" lon="5.96886">
        <ele>218</ele>
        <time>2017-12-21T12:07:27Z</time>
      </trkpt>
      <trkpt lat="47.33562" lon="5.96879">
        <ele>218.4</ele>
        <time>2017-12-21T12:07:28Z</time>
      </trkpt>
      <trkpt lat="47.3356" lon="5.96873">
        <ele>218.8</ele>
        <time>2017-12-21T12:07:29Z</time>
      </trkpt>
      <trkpt lat="47.33557" lon="5.96866">
        <ele>219.2</ele>
        <time>2017-12-21T12:07:30Z</time>
      </trkpt>
      <trkpt lat="47.33555" lon="5.96859">
        <ele>219.2</ele>
        <time>2017-12-21T12:07:31Z</time>
      </trkpt>
      <trkpt lat="47.33552" lon="5.96853">
        <ele>219.2</ele>
        <time>2017-12-21T12:07:32Z</time>
      </trkpt>
      <trkpt lat="47.33549" lon="5.96846">
        <ele>219.2</ele>
        <time>2017-12-21T12:07:33Z</time>
      </trkpt>
      <trkpt lat="47.33546" lon="5.96839">
        <ele>219.2</ele>
        <time>2017-12-21T12:07:34Z</time>
      </trkpt>
      <trkpt lat="47.33543" lon="5.96833">
        <ele>219.2</ele>
        <time>2017-12-21T12:07:35Z</time>
      </trkpt>
      <trkpt lat="47.33541" lon="5.96826">
        <ele>219.2</ele>
        <time>2017-12-21T12:07:36Z</time>
      </trkpt>
      <trkpt lat="47.33538" lon="5.96819">
        <ele>219.2</ele>
        <time>2017-12-21T12:07:37Z</time>
      </trkpt>
      <trkpt lat="47.33535" lon="5.96812">
        <ele>219.2</ele>
        <time>2017-12-21T12:07:38Z</time>
      </trkpt>
      <trkpt lat="47.33532" lon="5.96806">
        <ele>219.2</ele>
        <time>2017-12-21T12:07:39Z</time>
      </trkpt>
      <trkpt lat="47.33528" lon="5.968">
        <ele>219.2</ele>
        <time>2017-12-21T12:07:40Z</time>
      </trkpt>
      <trkpt lat="47.33524" lon="5.96794">
        <ele>219.2</ele>
        <time>2017-12-21T12:07:41Z</time>
      </trkpt>
      <trkpt lat="47.33518" lon="5.9679">
        <ele>219.2</ele>
        <time>2017-12-21T12:07:42Z</time>
      </trkpt>
      <trkpt lat="47.33512" lon="5.96787">
        <ele>219.2</ele>
        <time>2017-12-21T12:07:43Z</time>
      </trkpt>
      <trkpt lat="47.33506" lon="5.96785">
        <ele>219.2</ele>
        <time>2017-12-21T12:07:44Z</time>
      </trkpt>
      <trkpt lat="47.335" lon="5.96782">
        <ele>219.2</ele>
        <time>2017-12-21T12:07:45Z</time>
      </trkpt>
      <trkpt lat="47.33494" lon="5.96776">
        <ele>219.2</ele>
        <time>2017-12-21T12:07:46Z</time>
      </trkpt>
      <trkpt lat="47.33491" lon="5.96768">
        <ele>219.2</ele>
        <time>2017-12-21T12:07:47Z</time>
      </trkpt>
      <trkpt lat="47.33489" lon="5.96759">
        <ele>219.2</ele>
        <time>2017-12-21T12:07:48Z</time>
      </trkpt>
      <trkpt lat="47.33489" lon="5.96751">
        <ele>219.2</ele>
        <time>2017-12-21T12:07:49Z</time>
      </trkpt>
      <trkpt lat="47.33491" lon="5.96743">
        <ele>219.2</ele>
        <time>2017-12-21T12:07:50Z</time>
      </trkpt>
      <trkpt lat="47.33494" lon="5.96736">
        <ele>219.2</ele>
        <time>2017-12-21T12:07:51Z</time>
      </trkpt>
      <trkpt lat="47.33497" lon="5.96728">
        <ele>219.2</ele>
        <time>2017-12-21T12:07:52Z</time>
      </trkpt>
      <trkpt lat="47.335" lon="5.9672">
        <ele>219.2</ele>
        <time>2017-12-21T12:07:53Z</time>
      </trkpt>
      <trkpt lat="47.33503" lon="5.96712">
        <ele>219.2</ele>
        <time>2017-12-21T12:07:54Z</time>
      </trkpt>
      <trkpt lat="47.33505" lon="5.96705">
        <ele>219.2</ele>
        <time>2017-12-21T12:07:55Z</time>
      </trkpt>
      <trkpt lat="47.33508" lon="5.96697">
        <ele>219.2</ele>
        <time>2017-12-21T12:07:56Z</time>
      </trkpt>
      <trkpt lat="47.33511" lon="5.9669">
        <ele>219.2</ele>
        <time>2017-12-21T12:07:57Z</time>
      </trkpt>
      <trkpt lat="47.33513" lon="5.96682">
        <ele>219.2</ele>
        <time>2017-12-21T12:07:58Z</time>
      </trkpt>
      <trkpt lat="47.33516" lon="5.96674">
        <ele>219.2</ele>
        <time>2017-12-21T12:07:59Z</time>
      </trkpt>
      <trkpt lat="47.33518" lon="5.96667">
        <ele>219.2</ele>
        <time>2017-12-21T12:08:00Z</time>
      </trkpt>
      <trkpt lat="47.3352" lon="5.96658">
        <ele>219.2</ele>
        <time>2017-12-21T12:08:01Z</time>
      </trkpt>
      <trkpt lat="47.33523" lon="5.9665">
        <ele>219.2</ele>
        <time>2017-12-21T12:08:02Z</time>
      </trkpt>
      <trkpt lat="47.33525" lon="5.96641">
        <ele>219.2</ele>
        <time>2017-12-21T12:08:03Z</time>
      </trkpt>
      <trkpt lat="47.33527" lon="5.96633">
        <ele>219.2</ele>
        <time>2017-12-21T12:08:04Z</time>
      </trkpt>
      <trkpt lat="47.33529" lon="5.96624">
        <ele>219.2</ele>
        <time>2017-12-21T12:08:05Z</time>
      </trkpt>
      <trkpt lat="47.33531" lon="5.96615">
        <ele>219.2</ele>
        <time>2017-12-21T12:08:06Z</time>
      </trkpt>
      <trkpt lat="47.33533" lon="5.96606">
        <ele>218.8</ele>
        <time>2017-12-21T12:08:07Z</time>
      </trkpt>
      <trkpt lat="47.33535" lon="5.96597">
        <ele>218.4</ele>
        <time>2017-12-21T12:08:08Z</time>
      </trkpt>
      <trkpt lat="47.33537" lon="5.96588">
        <ele>218</ele>
        <time>2017-12-21T12:08:09Z</time>
      </trkpt>
      <trkpt lat="47.33539" lon="5.96578">
        <ele>217.6</ele>
        <time>2017-12-21T12:08:10Z</time>
      </trkpt>
      <trkpt lat="47.33541" lon="5.96569">
        <ele>217.2</ele>
        <time>2017-12-21T12:08:11Z</time>
      </trkpt>
      <trkpt lat="47.33543" lon="5.96559">
        <ele>217.2</ele>
        <time>2017-12-21T12:08:12Z</time>
      </trkpt>
      <trkpt lat="47.33545" lon="5.9655">
        <ele>217.2</ele>
        <time>2017-12-21T12:08:13Z</time>
      </trkpt>
      <trkpt lat="47.33546" lon="5.96541">
        <ele>217.2</ele>
        <time>2017-12-21T12:08:14Z</time>
      </trkpt>
      <trkpt lat="47.33547" lon="5.96531">
        <ele>217.2</ele>
        <time>2017-12-21T12:08:15Z</time>
      </trkpt>
      <trkpt lat="47.33548" lon="5.96521">
        <ele>217.2</ele>
        <time>2017-12-21T12:08:16Z</time>
      </trkpt>
      <trkpt lat="47.33548" lon="5.96511">
        <ele>217.2</ele>
        <time>2017-12-21T12:08:17Z</time>
      </trkpt>
      <trkpt lat="47.33548" lon="5.96502">
        <ele>217.2</ele>
        <time>2017-12-21T12:08:18Z</time>
      </trkpt>
      <trkpt lat="47.33548" lon="5.96493">
        <ele>217.2</ele>
        <time>2017-12-21T12:08:19Z</time>
      </trkpt>
      <trkpt lat="47.33548" lon="5.96483">
        <ele>217.2</ele>
        <time>2017-12-21T12:08:20Z</time>
      </trkpt>
      <trkpt lat="47.33547" lon="5.96474">
        <ele>217.2</ele>
        <time>2017-12-21T12:08:21Z</time>
      </trkpt>
      <trkpt lat="47.33546" lon="5.96465">
        <ele>217.2</ele>
        <time>2017-12-21T12:08:22Z</time>
      </trkpt>
      <trkpt lat="47.33545" lon="5.96456">
        <ele>217.2</ele>
        <time>2017-12-21T12:08:23Z</time>
      </trkpt>
      <trkpt lat="47.33544" lon="5.96446">
        <ele>217.2</ele>
        <time>2017-12-21T12:08:24Z</time>
      </trkpt>
      <trkpt lat="47.33543" lon="5.96437">
        <ele>217.2</ele>
        <time>2017-12-21T12:08:25Z</time>
      </trkpt>
      <trkpt lat="47.33542" lon="5.96428">
        <ele>217.2</ele>
        <time>2017-12-21T12:08:26Z</time>
      </trkpt>
      <trkpt lat="47.3354" lon="5.9642">
        <ele>217.2</ele>
        <time>2017-12-21T12:08:27Z</time>
      </trkpt>
      <trkpt lat="47.33538" lon="5.96412">
        <ele>217.2</ele>
        <time>2017-12-21T12:08:28Z</time>
      </trkpt>
      <trkpt lat="47.33537" lon="5.96404">
        <ele>217.2</ele>
        <time>2017-12-21T12:08:29Z</time>
      </trkpt>
      <trkpt lat="47.33536" lon="5.96396">
        <ele>217.2</ele>
        <time>2017-12-21T12:08:30Z</time>
      </trkpt>
      <trkpt lat="47.33534" lon="5.96387">
        <ele>217.2</ele>
        <time>2017-12-21T12:08:31Z</time>
      </trkpt>
      <trkpt lat="47.33533" lon="5.96378">
        <ele>217.2</ele>
        <time>2017-12-21T12:08:32Z</time>
      </trkpt>
      <trkpt lat="47.33532" lon="5.9637">
        <ele>217.2</ele>
        <time>2017-12-21T12:08:33Z</time>
      </trkpt>
      <trkpt lat="47.33531" lon="5.96361">
        <ele>217.2</ele>
        <time>2017-12-21T12:08:34Z</time>
      </trkpt>
      <trkpt lat="47.3353" lon="5.96353">
        <ele>217.2</ele>
        <time>2017-12-21T12:08:35Z</time>
      </trkpt>
      <trkpt lat="47.33529" lon="5.96344">
        <ele>217.2</ele>
        <time>2017-12-21T12:08:36Z</time>
      </trkpt>
      <trkpt lat="47.33528" lon="5.96336">
        <ele>217.2</ele>
        <time>2017-12-21T12:08:37Z</time>
      </trkpt>
      <trkpt lat="47.33526" lon="5.96327">
        <ele>217.2</ele>
        <time>2017-12-21T12:08:38Z</time>
      </trkpt>
      <trkpt lat="47.33525" lon="5.96319">
        <ele>217.2</ele>
        <time>2017-12-21T12:08:39Z</time>
      </trkpt>
      <trkpt lat="47.33524" lon="5.9631">
        <ele>217.2</ele>
        <time>2017-12-21T12:08:40Z</time>
      </trkpt>
      <trkpt lat="47.33523" lon="5.96302">
        <ele>217.2</ele>
        <time>2017-12-21T12:08:41Z</time>
      </trkpt>
      <trkpt lat="47.33522" lon="5.96293">
        <ele>217.2</ele>
        <time>2017-12-21T12:08:42Z</time>
      </trkpt>
      <trkpt lat="47.3352" lon="5.96285">
        <ele>217.2</ele>
        <time>2017-12-21T12:08:43Z</time>
      </trkpt>
      <trkpt lat="47.33519" lon="5.96277">
        <ele>217.2</ele>
        <time>2017-12-21T12:08:44Z</time>
      </trkpt>
      <trkpt lat="47.33518" lon="5.96268">
        <ele>217.2</ele>
        <time>2017-12-21T12:08:45Z</time>
      </trkpt>
      <trkpt lat="47.33517" lon="5.96258">
        <ele>217.2</ele>
        <time>2017-12-21T12:08:46Z</time>
      </trkpt>
      <trkpt lat="47.33516" lon="5.96249">
        <ele>217.2</ele>
        <time>2017-12-21T12:08:47Z</time>
      </trkpt>
      <trkpt lat="47.33515" lon="5.9624">
        <ele>217.2</ele>
        <time>2017-12-21T12:08:48Z</time>
      </trkpt>
      <trkpt lat="47.33514" lon="5.96231">
        <ele>217.2</ele>
        <time>2017-12-21T12:08:49Z</time>
      </trkpt>
      <trkpt lat="47.33513" lon="5.96221">
        <ele>217.2</ele>
        <time>2017-12-21T12:08:50Z</time>
      </trkpt>
      <trkpt lat="47.33512" lon="5.96212">
        <ele>217.2</ele>
        <time>2017-12-21T12:08:51Z</time>
      </trkpt>
      <trkpt lat="47.33511" lon="5.96203">
        <ele>217.2</ele>
        <time>2017-12-21T12:08:52Z</time>
      </trkpt>
      <trkpt lat="47.3351" lon="5.96193">
        <ele>217.2</ele>
        <time>2017-12-21T12:08:53Z</time>
      </trkpt>
      <trkpt lat="47.33508" lon="5.96183">
        <ele>217.2</ele>
        <time>2017-12-21T12:08:54Z</time>
      </trkpt>
      <trkpt lat="47.33507" lon="5.96174">
        <ele>217.2</ele>
        <time>2017-12-21T12:08:55Z</time>
      </trkpt>
      <trkpt lat="47.33506" lon="5.96165">
        <ele>217.2</ele>
        <time>2017-12-21T12:08:56Z</time>
      </trkpt>
      <trkpt lat="47.33504" lon="5.96156">
        <ele>217.2</ele>
        <time>2017-12-21T12:08:57Z</time>
      </trkpt>
      <trkpt lat="47.33503" lon="5.96148">
        <ele>217.2</ele>
        <time>2017-12-21T12:08:58Z</time>
      </trkpt>
      <trkpt lat="47.33501" lon="5.96139">
        <ele>217.2</ele>
        <time>2017-12-21T12:08:59Z</time>
      </trkpt>
      <trkpt lat="47.335" lon="5.9613">
        <ele>217.2</ele>
        <time>2017-12-21T12:09:00Z</time>
      </trkpt>
      <trkpt lat="47.33498" lon="5.96121">
        <ele>217.2</ele>
        <time>2017-12-21T12:09:01Z</time>
      </trkpt>
      <trkpt lat="47.33497" lon="5.96112">
        <ele>217.2</ele>
        <time>2017-12-21T12:09:02Z</time>
      </trkpt>
      <trkpt lat="47.33495" lon="5.96103">
        <ele>217.2</ele>
        <time>2017-12-21T12:09:03Z</time>
      </trkpt>
      <trkpt lat="47.33494" lon="5.96095">
        <ele>217.2</ele>
        <time>2017-12-21T12:09:04Z</time>
      </trkpt>
      <trkpt lat="47.33492" lon="5.96086">
        <ele>217.2</ele>
        <time>2017-12-21T12:09:05Z</time>
      </trkpt>
      <trkpt lat="47.33491" lon="5.96078">
        <ele>217.2</ele>
        <time>2017-12-21T12:09:06Z</time>
      </trkpt>
      <trkpt lat="47.33489" lon="5.9607">
        <ele>217.2</ele>
        <time>2017-12-21T12:09:07Z</time>
      </trkpt>
      <trkpt lat="47.33488" lon="5.96062">
        <ele>217.2</ele>
        <time>2017-12-21T12:09:08Z</time>
      </trkpt>
      <trkpt lat="47.33486" lon="5.96053">
        <ele>217.2</ele>
        <time>2017-12-21T12:09:09Z</time>
      </trkpt>
      <trkpt lat="47.33485" lon="5.96045">
        <ele>217.2</ele>
        <time>2017-12-21T12:09:10Z</time>
      </trkpt>
      <trkpt lat="47.33483" lon="5.96037">
        <ele>217.2</ele>
        <time>2017-12-21T12:09:11Z</time>
      </trkpt>
      <trkpt lat="47.33481" lon="5.9603">
        <ele>217.2</ele>
        <time>2017-12-21T12:09:12Z</time>
      </trkpt>
      <trkpt lat="47.3348" lon="5.96022">
        <ele>217.2</ele>
        <time>2017-12-21T12:09:13Z</time>
      </trkpt>
      <trkpt lat="47.33478" lon="5.96014">
        <ele>217.2</ele>
        <time>2017-12-21T12:09:14Z</time>
      </trkpt>
      <trkpt lat="47.33476" lon="5.96006">
        <ele>217.2</ele>
        <time>2017-12-21T12:09:15Z</time>
      </trkpt>
      <trkpt lat="47.33474" lon="5.95998">
        <ele>217.2</ele>
        <time>2017-12-21T12:09:16Z</time>
      </trkpt>
      <trkpt lat="47.33472" lon="5.9599">
        <ele>217.6</ele>
        <time>2017-12-21T12:09:17Z</time>
      </trkpt>
      <trkpt lat="47.3347" lon="5.95982">
        <ele>218</ele>
        <time>2017-12-21T12:09:18Z</time>
      </trkpt>
      <trkpt lat="47.33469" lon="5.95974">
        <ele>218.4</ele>
        <time>2017-12-21T12:09:19Z</time>
      </trkpt>
      <trkpt lat="47.33467" lon="5.95965">
        <ele>218.8</ele>
        <time>2017-12-21T12:09:20Z</time>
      </trkpt>
      <trkpt lat="47.33465" lon="5.95957">
        <ele>219.2</ele>
        <time>2017-12-21T12:09:21Z</time>
      </trkpt>
      <trkpt lat="47.33464" lon="5.95949">
        <ele>219.2</ele>
        <time>2017-12-21T12:09:22Z</time>
      </trkpt>
      <trkpt lat="47.33463" lon="5.95941">
        <ele>219.2</ele>
        <time>2017-12-21T12:09:23Z</time>
      </trkpt>
      <trkpt lat="47.33462" lon="5.95933">
        <ele>219.2</ele>
        <time>2017-12-21T12:09:24Z</time>
      </trkpt>
      <trkpt lat="47.3346" lon="5.95925">
        <ele>219.2</ele>
        <time>2017-12-21T12:09:25Z</time>
      </trkpt>
      <trkpt lat="47.3346" lon="5.95917">
        <ele>219.2</ele>
        <time>2017-12-21T12:09:26Z</time>
      </trkpt>
      <trkpt lat="47.33459" lon="5.95908">
        <ele>219.2</ele>
        <time>2017-12-21T12:09:27Z</time>
      </trkpt>
      <trkpt lat="47.3346" lon="5.95901">
        <ele>219.2</ele>
        <time>2017-12-21T12:09:28Z</time>
      </trkpt>
      <trkpt lat="47.33461" lon="5.95893">
        <ele>219.2</ele>
        <time>2017-12-21T12:09:29Z</time>
      </trkpt>
      <trkpt lat="47.33462" lon="5.95885">
        <ele>219.2</ele>
        <time>2017-12-21T12:09:30Z</time>
      </trkpt>
      <trkpt lat="47.33464" lon="5.95877">
        <ele>219.2</ele>
        <time>2017-12-21T12:09:31Z</time>
      </trkpt>
      <trkpt lat="47.33465" lon="5.95868">
        <ele>219.2</ele>
        <time>2017-12-21T12:09:32Z</time>
      </trkpt>
      <trkpt lat="47.33467" lon="5.9586">
        <ele>219.2</ele>
        <time>2017-12-21T12:09:33Z</time>
      </trkpt>
      <trkpt lat="47.33469" lon="5.95853">
        <ele>219.2</ele>
        <time>2017-12-21T12:09:34Z</time>
      </trkpt>
      <trkpt lat="47.33472" lon="5.95845">
        <ele>219.2</ele>
        <time>2017-12-21T12:09:35Z</time>
      </trkpt>
      <trkpt lat="47.33474" lon="5.95837">
        <ele>219.2</ele>
        <time>2017-12-21T12:09:36Z</time>
      </trkpt>
      <trkpt lat="47.33477" lon="5.95829">
        <ele>219.2</ele>
        <time>2017-12-21T12:09:37Z</time>
      </trkpt>
      <trkpt lat="47.33479" lon="5.9582">
        <ele>219.2</ele>
        <time>2017-12-21T12:09:38Z</time>
      </trkpt>
      <trkpt lat="47.33482" lon="5.95812">
        <ele>219.2</ele>
        <time>2017-12-21T12:09:39Z</time>
      </trkpt>
      <trkpt lat="47.33484" lon="5.95803">
        <ele>219.2</ele>
        <time>2017-12-21T12:09:40Z</time>
      </trkpt>
      <trkpt lat="47.33486" lon="5.95794">
        <ele>219.2</ele>
        <time>2017-12-21T12:09:41Z</time>
      </trkpt>
      <trkpt lat="47.33489" lon="5.95785">
        <ele>219.2</ele>
        <time>2017-12-21T12:09:42Z</time>
      </trkpt>
      <trkpt lat="47.33492" lon="5.95776">
        <ele>219.2</ele>
        <time>2017-12-21T12:09:43Z</time>
      </trkpt>
      <trkpt lat="47.33494" lon="5.95767">
        <ele>219.2</ele>
        <time>2017-12-21T12:09:44Z</time>
      </trkpt>
      <trkpt lat="47.33497" lon="5.95758">
        <ele>219.2</ele>
        <time>2017-12-21T12:09:45Z</time>
      </trkpt>
      <trkpt lat="47.335" lon="5.95749">
        <ele>219.2</ele>
        <time>2017-12-21T12:09:46Z</time>
      </trkpt>
      <trkpt lat="47.33503" lon="5.95739">
        <ele>219.2</ele>
        <time>2017-12-21T12:09:47Z</time>
      </trkpt>
      <trkpt lat="47.33506" lon="5.9573">
        <ele>219.2</ele>
        <time>2017-12-21T12:09:48Z</time>
      </trkpt>
      <trkpt lat="47.33509" lon="5.95721">
        <ele>219.2</ele>
        <time>2017-12-21T12:09:49Z</time>
      </trkpt>
      <trkpt lat="47.33512" lon="5.95712">
        <ele>219.2</ele>
        <time>2017-12-21T12:09:50Z</time>
      </trkpt>
      <trkpt lat="47.33515" lon="5.95702">
        <ele>219.2</ele>
        <time>2017-12-21T12:09:51Z</time>
      </trkpt>
      <trkpt lat="47.33518" lon="5.95692">
        <ele>219.2</ele>
        <time>2017-12-21T12:09:52Z</time>
      </trkpt>
      <trkpt lat="47.33521" lon="5.95681">
        <ele>219.2</ele>
        <time>2017-12-21T12:09:53Z</time>
      </trkpt>
      <trkpt lat="47.33523" lon="5.9567">
        <ele>218.8</ele>
        <time>2017-12-21T12:09:54Z</time>
      </trkpt>
      <trkpt lat="47.33525" lon="5.95659">
        <ele>218.4</ele>
        <time>2017-12-21T12:09:55Z</time>
      </trkpt>
      <trkpt lat="47.33527" lon="5.95648">
        <ele>217.8</ele>
        <time>2017-12-21T12:09:56Z</time>
      </trkpt>
      <trkpt lat="47.33529" lon="5.95637">
        <ele>217.4</ele>
        <time>2017-12-21T12:09:57Z</time>
      </trkpt>
      <trkpt lat="47.33531" lon="5.95627">
        <ele>217</ele>
        <time>2017-12-21T12:09:58Z</time>
      </trkpt>
      <trkpt lat="47.33533" lon="5.95616">
        <ele>217</ele>
        <time>2017-12-21T12:09:59Z</time>
      </trkpt>
      <trkpt lat="47.33534" lon="5.95607">
        <ele>217</ele>
        <time>2017-12-21T12:10:00Z</time>
      </trkpt>
      <trkpt lat="47.33535" lon="5.95597">
        <ele>217</ele>
        <time>2017-12-21T12:10:01Z</time>
      </trkpt>
      <trkpt lat="47.33536" lon="5.95587">
        <ele>217</ele>
        <time>2017-12-21T12:10:02Z</time>
      </trkpt>
      <trkpt lat="47.33537" lon="5.95577">
        <ele>217</ele>
        <time>2017-12-21T12:10:03Z</time>
      </trkpt>
      <trkpt lat="47.33538" lon="5.95568">
        <ele>217</ele>
        <time>2017-12-21T12:10:04Z</time>
      </trkpt>
      <trkpt lat="47.33539" lon="5.95558">
        <ele>217</ele>
        <time>2017-12-21T12:10:05Z</time>
      </trkpt>
      <trkpt lat="47.3354" lon="5.95548">
        <ele>217</ele>
        <time>2017-12-21T12:10:06Z</time>
      </trkpt>
      <trkpt lat="47.33542" lon="5.95539">
        <ele>217</ele>
        <time>2017-12-21T12:10:07Z</time>
      </trkpt>
      <trkpt lat="47.33544" lon="5.95529">
        <ele>217</ele>
        <time>2017-12-21T12:10:08Z</time>
      </trkpt>
      <trkpt lat="47.33546" lon="5.95519">
        <ele>217</ele>
        <time>2017-12-21T12:10:09Z</time>
      </trkpt>
      <trkpt lat="47.33548" lon="5.95509">
        <ele>217</ele>
        <time>2017-12-21T12:10:10Z</time>
      </trkpt>
      <trkpt lat="47.3355" lon="5.95499">
        <ele>217</ele>
        <time>2017-12-21T12:10:11Z</time>
      </trkpt>
      <trkpt lat="47.33552" lon="5.95489">
        <ele>217</ele>
        <time>2017-12-21T12:10:12Z</time>
      </trkpt>
      <trkpt lat="47.33554" lon="5.95479">
        <ele>217</ele>
        <time>2017-12-21T12:10:13Z</time>
      </trkpt>
      <trkpt lat="47.33556" lon="5.95469">
        <ele>217</ele>
        <time>2017-12-21T12:10:14Z</time>
      </trkpt>
      <trkpt lat="47.33558" lon="5.95459">
        <ele>217</ele>
        <time>2017-12-21T12:10:15Z</time>
      </trkpt>
      <trkpt lat="47.3356" lon="5.95449">
        <ele>217</ele>
        <time>2017-12-21T12:10:16Z</time>
      </trkpt>
      <trkpt lat="47.33562" lon="5.95439">
        <ele>217</ele>
        <time>2017-12-21T12:10:17Z</time>
      </trkpt>
      <trkpt lat="47.33564" lon="5.95429">
        <ele>217</ele>
        <time>2017-12-21T12:10:18Z</time>
      </trkpt>
      <trkpt lat="47.33565" lon="5.9542">
        <ele>217</ele>
        <time>2017-12-21T12:10:19Z</time>
      </trkpt>
      <trkpt lat="47.33566" lon="5.95409">
        <ele>217</ele>
        <time>2017-12-21T12:10:20Z</time>
      </trkpt>
      <trkpt lat="47.33568" lon="5.954">
        <ele>217</ele>
        <time>2017-12-21T12:10:21Z</time>
      </trkpt>
      <trkpt lat="47.3357" lon="5.9539">
        <ele>217</ele>
        <time>2017-12-21T12:10:22Z</time>
      </trkpt>
      <trkpt lat="47.33571" lon="5.9538">
        <ele>216.6</ele>
        <time>2017-12-21T12:10:23Z</time>
      </trkpt>
      <trkpt lat="47.33573" lon="5.95371">
        <ele>216.2</ele>
        <time>2017-12-21T12:10:24Z</time>
      </trkpt>
      <trkpt lat="47.33575" lon="5.95361">
        <ele>215.8</ele>
        <time>2017-12-21T12:10:25Z</time>
      </trkpt>
      <trkpt lat="47.33577" lon="5.95352">
        <ele>215.4</ele>
        <time>2017-12-21T12:10:26Z</time>
      </trkpt>
      <trkpt lat="47.3358" lon="5.95343">
        <ele>215</ele>
        <time>2017-12-21T12:10:27Z</time>
      </trkpt>
      <trkpt lat="47.33582" lon="5.95333">
        <ele>215</ele>
        <time>2017-12-21T12:10:28Z</time>
      </trkpt>
      <trkpt lat="47.33584" lon="5.95324">
        <ele>215</ele>
        <time>2017-12-21T12:10:29Z</time>
      </trkpt>
      <trkpt lat="47.33586" lon="5.95315">
        <ele>215</ele>
        <time>2017-12-21T12:10:30Z</time>
      </trkpt>
      <trkpt lat="47.33588" lon="5.95306">
        <ele>215</ele>
        <time>2017-12-21T12:10:31Z</time>
      </trkpt>
      <trkpt lat="47.3359" lon="5.95296">
        <ele>215</ele>
        <time>2017-12-21T12:10:32Z</time>
      </trkpt>
      <trkpt lat="47.33592" lon="5.95287">
        <ele>215</ele>
        <time>2017-12-21T12:10:33Z</time>
      </trkpt>
      <trkpt lat="47.33594" lon="5.95278">
        <ele>215</ele>
        <time>2017-12-21T12:10:34Z</time>
      </trkpt>
      <trkpt lat="47.33596" lon="5.95268">
        <ele>215</ele>
        <time>2017-12-21T12:10:35Z</time>
      </trkpt>
      <trkpt lat="47.33598" lon="5.95259">
        <ele>215</ele>
        <time>2017-12-21T12:10:36Z</time>
      </trkpt>
      <trkpt lat="47.336" lon="5.9525">
        <ele>215</ele>
        <time>2017-12-21T12:10:37Z</time>
      </trkpt>
      <trkpt lat="47.33602" lon="5.95241">
        <ele>215</ele>
        <time>2017-12-21T12:10:38Z</time>
      </trkpt>
      <trkpt lat="47.33604" lon="5.95231">
        <ele>215</ele>
        <time>2017-12-21T12:10:39Z</time>
      </trkpt>
      <trkpt lat="47.33606" lon="5.95222">
        <ele>215</ele>
        <time>2017-12-21T12:10:40Z</time>
      </trkpt>
      <trkpt lat="47.33608" lon="5.95213">
        <ele>215</ele>
        <time>2017-12-21T12:10:41Z</time>
      </trkpt>
      <trkpt lat="47.33609" lon="5.95204">
        <ele>215</ele>
        <time>2017-12-21T12:10:42Z</time>
      </trkpt>
      <trkpt lat="47.33611" lon="5.95195">
        <ele>215</ele>
        <time>2017-12-21T12:10:43Z</time>
      </trkpt>
      <trkpt lat="47.33612" lon="5.95186">
        <ele>215</ele>
        <time>2017-12-21T12:10:44Z</time>
      </trkpt>
      <trkpt lat="47.33613" lon="5.95177">
        <ele>215</ele>
        <time>2017-12-21T12:10:45Z</time>
      </trkpt>
      <trkpt lat="47.33613" lon="5.95168">
        <ele>215</ele>
        <time>2017-12-21T12:10:46Z</time>
      </trkpt>
      <trkpt lat="47.33613" lon="5.95159">
        <ele>215</ele>
        <time>2017-12-21T12:10:47Z</time>
      </trkpt>
      <trkpt lat="47.33613" lon="5.95149">
        <ele>215</ele>
        <time>2017-12-21T12:10:48Z</time>
      </trkpt>
      <trkpt lat="47.33613" lon="5.9514">
        <ele>215</ele>
        <time>2017-12-21T12:10:49Z</time>
      </trkpt>
      <trkpt lat="47.33613" lon="5.95132">
        <ele>215</ele>
        <time>2017-12-21T12:10:50Z</time>
      </trkpt>
      <trkpt lat="47.33612" lon="5.95123">
        <ele>215</ele>
        <time>2017-12-21T12:10:51Z</time>
      </trkpt>
      <trkpt lat="47.33611" lon="5.95115">
        <ele>215</ele>
        <time>2017-12-21T12:10:52Z</time>
      </trkpt>
      <trkpt lat="47.33611" lon="5.95107">
        <ele>215</ele>
        <time>2017-12-21T12:10:53Z</time>
      </trkpt>
      <trkpt lat="47.3361" lon="5.95099">
        <ele>215</ele>
        <time>2017-12-21T12:10:54Z</time>
      </trkpt>
      <trkpt lat="47.3361" lon="5.9509">
        <ele>215</ele>
        <time>2017-12-21T12:10:55Z</time>
      </trkpt>
      <trkpt lat="47.33609" lon="5.95082">
        <ele>215</ele>
        <time>2017-12-21T12:10:56Z</time>
      </trkpt>
      <trkpt lat="47.33609" lon="5.95073">
        <ele>215</ele>
        <time>2017-12-21T12:10:57Z</time>
      </trkpt>
      <trkpt lat="47.3361" lon="5.95064">
        <ele>215.4</ele>
        <time>2017-12-21T12:10:58Z</time>
      </trkpt>
      <trkpt lat="47.33611" lon="5.95056">
        <ele>215.8</ele>
        <time>2017-12-21T12:10:59Z</time>
      </trkpt>
      <trkpt lat="47.33613" lon="5.95049">
        <ele>216.2</ele>
        <time>2017-12-21T12:11:00Z</time>
      </trkpt>
      <trkpt lat="47.33616" lon="5.95042">
        <ele>216.6</ele>
        <time>2017-12-21T12:11:01Z</time>
      </trkpt>
      <trkpt lat="47.33619" lon="5.95036">
        <ele>217</ele>
        <time>2017-12-21T12:11:02Z</time>
      </trkpt>
      <trkpt lat="47.33623" lon="5.95031">
        <ele>217</ele>
        <time>2017-12-21T12:11:03Z</time>
      </trkpt>
      <trkpt lat="47.33627" lon="5.95027">
        <ele>217</ele>
        <time>2017-12-21T12:11:04Z</time>
      </trkpt>
      <trkpt lat="47.33632" lon="5.95022">
        <ele>217</ele>
        <time>2017-12-21T12:11:05Z</time>
      </trkpt>
      <trkpt lat="47.33636" lon="5.95018">
        <ele>217</ele>
        <time>2017-12-21T12:11:06Z</time>
      </trkpt>
      <trkpt lat="47.33641" lon="5.95012">
        <ele>217</ele>
        <time>2017-12-21T12:11:07Z</time>
      </trkpt>
      <trkpt lat="47.33645" lon="5.95006">
        <ele>217</ele>
        <time>2017-12-21T12:11:08Z</time>
      </trkpt>
      <trkpt lat="47.33649" lon="5.94999">
        <ele>217</ele>
        <time>2017-12-21T12:11:09Z</time>
      </trkpt>
      <trkpt lat="47.33653" lon="5.94991">
        <ele>217</ele>
        <time>2017-12-21T12:11:10Z</time>
      </trkpt>
      <trkpt lat="47.33656" lon="5.94984">
        <ele>217</ele>
        <time>2017-12-21T12:11:11Z</time>
      </trkpt>
      <trkpt lat="47.33659" lon="5.94976">
        <ele>217</ele>
        <time>2017-12-21T12:11:12Z</time>
      </trkpt>
      <trkpt lat="47.33662" lon="5.94968">
        <ele>217</ele>
        <time>2017-12-21T12:11:13Z</time>
      </trkpt>
      <trkpt lat="47.33665" lon="5.9496">
        <ele>217</ele>
        <time>2017-12-21T12:11:14Z</time>
      </trkpt>
      <trkpt lat="47.33667" lon="5.94953">
        <ele>217</ele>
        <time>2017-12-21T12:11:15Z</time>
      </trkpt>
      <trkpt lat="47.3367" lon="5.94945">
        <ele>217</ele>
        <time>2017-12-21T12:11:16Z</time>
      </trkpt>
      <trkpt lat="47.33673" lon="5.94938">
        <ele>217</ele>
        <time>2017-12-21T12:11:17Z</time>
      </trkpt>
      <trkpt lat="47.33676" lon="5.9493">
        <ele>217</ele>
        <time>2017-12-21T12:11:18Z</time>
      </trkpt>
      <trkpt lat="47.33679" lon="5.94922">
        <ele>217</ele>
        <time>2017-12-21T12:11:19Z</time>
      </trkpt>
      <trkpt lat="47.33682" lon="5.94914">
        <ele>217</ele>
        <time>2017-12-21T12:11:20Z</time>
      </trkpt>
      <trkpt lat="47.33685" lon="5.94907">
        <ele>217</ele>
        <time>2017-12-21T12:11:21Z</time>
      </trkpt>
      <trkpt lat="47.33688" lon="5.949">
        <ele>217</ele>
        <time>2017-12-21T12:11:22Z</time>
      </trkpt>
      <trkpt lat="47.33691" lon="5.94893">
        <ele>217</ele>
        <time>2017-12-21T12:11:23Z</time>
      </trkpt>
      <trkpt lat="47.33694" lon="5.94886">
        <ele>217</ele>
        <time>2017-12-21T12:11:24Z</time>
      </trkpt>
      <trkpt lat="47.33697" lon="5.9488">
        <ele>217</ele>
        <time>2017-12-21T12:11:25Z</time>
      </trkpt>
      <trkpt lat="47.33699" lon="5.94873">
        <ele>217</ele>
        <time>2017-12-21T12:11:26Z</time>
      </trkpt>
      <trkpt lat="47.33702" lon="5.94867">
        <ele>217</ele>
        <time>2017-12-21T12:11:27Z</time>
      </trkpt>
      <trkpt lat="47.33705" lon="5.94862">
        <ele>217</ele>
        <time>2017-12-21T12:11:28Z</time>
      </trkpt>
      <trkpt lat="47.33708" lon="5.94857">
        <ele>218</ele>
        <time>2017-12-21T12:11:29Z</time>
      </trkpt>
      <trkpt lat="47.33711" lon="5.94852">
        <ele>218.4</ele>
        <time>2017-12-21T12:11:30Z</time>
      </trkpt>
      <trkpt lat="47.33714" lon="5.94847">
        <ele>219</ele>
        <time>2017-12-21T12:11:31Z</time>
      </trkpt>
      <trkpt lat="47.33716" lon="5.94842">
        <ele>219.4</ele>
        <time>2017-12-21T12:11:32Z</time>
      </trkpt>
      <trkpt lat="47.33719" lon="5.94836">
        <ele>219.4</ele>
        <time>2017-12-21T12:11:33Z</time>
      </trkpt>
      <trkpt lat="47.33722" lon="5.94831">
        <ele>219.4</ele>
        <time>2017-12-21T12:11:34Z</time>
      </trkpt>
      <trkpt lat="47.33725" lon="5.94826">
        <ele>219.4</ele>
        <time>2017-12-21T12:11:35Z</time>
      </trkpt>
      <trkpt lat="47.33727" lon="5.9482">
        <ele>219.8</ele>
        <time>2017-12-21T12:11:36Z</time>
      </trkpt>
      <trkpt lat="47.3373" lon="5.94814">
        <ele>220.2</ele>
        <time>2017-12-21T12:11:37Z</time>
      </trkpt>
      <trkpt lat="47.33732" lon="5.94809">
        <ele>220.6</ele>
        <time>2017-12-21T12:11:38Z</time>
      </trkpt>
      <trkpt lat="47.33735" lon="5.94802">
        <ele>221</ele>
        <time>2017-12-21T12:11:39Z</time>
      </trkpt>
      <trkpt lat="47.33736" lon="5.94796">
        <ele>221.4</ele>
        <time>2017-12-21T12:11:40Z</time>
      </trkpt>
      <trkpt lat="47.33737" lon="5.9479">
        <ele>221.4</ele>
        <time>2017-12-21T12:11:41Z</time>
      </trkpt>
      <trkpt lat="47.33739" lon="5.94784">
        <ele>221.4</ele>
        <time>2017-12-21T12:11:42Z</time>
      </trkpt>
      <trkpt lat="47.3374" lon="5.94778">
        <ele>221.4</ele>
        <time>2017-12-21T12:11:43Z</time>
      </trkpt>
      <trkpt lat="47.3374" lon="5.94771">
        <ele>221.8</ele>
        <time>2017-12-21T12:11:44Z</time>
      </trkpt>
      <trkpt lat="47.33741" lon="5.94764">
        <ele>222.2</ele>
        <time>2017-12-21T12:11:45Z</time>
      </trkpt>
      <trkpt lat="47.33741" lon="5.94757">
        <ele>222.6</ele>
        <time>2017-12-21T12:11:46Z</time>
      </trkpt>
      <trkpt lat="47.33741" lon="5.94749">
        <ele>223</ele>
        <time>2017-12-21T12:11:47Z</time>
      </trkpt>
      <trkpt lat="47.33741" lon="5.94741">
        <ele>223.4</ele>
        <time>2017-12-21T12:11:48Z</time>
      </trkpt>
      <trkpt lat="47.33741" lon="5.94733">
        <ele>223.4</ele>
        <time>2017-12-21T12:11:49Z</time>
      </trkpt>
      <trkpt lat="47.33741" lon="5.94725">
        <ele>223.4</ele>
        <time>2017-12-21T12:11:50Z</time>
      </trkpt>
      <trkpt lat="47.33741" lon="5.94717">
        <ele>223.4</ele>
        <time>2017-12-21T12:11:51Z</time>
      </trkpt>
      <trkpt lat="47.33741" lon="5.94709">
        <ele>223.4</ele>
        <time>2017-12-21T12:11:52Z</time>
      </trkpt>
      <trkpt lat="47.33741" lon="5.94701">
        <ele>223.4</ele>
        <time>2017-12-21T12:11:53Z</time>
      </trkpt>
      <trkpt lat="47.33742" lon="5.94693">
        <ele>223.4</ele>
        <time>2017-12-21T12:11:54Z</time>
      </trkpt>
      <trkpt lat="47.33742" lon="5.94684">
        <ele>223.4</ele>
        <time>2017-12-21T12:11:55Z</time>
      </trkpt>
      <trkpt lat="47.33743" lon="5.94676">
        <ele>223.4</ele>
        <time>2017-12-21T12:11:56Z</time>
      </trkpt>
      <trkpt lat="47.33744" lon="5.94668">
        <ele>223.4</ele>
        <time>2017-12-21T12:11:57Z</time>
      </trkpt>
      <trkpt lat="47.33745" lon="5.9466">
        <ele>223.4</ele>
        <time>2017-12-21T12:11:58Z</time>
      </trkpt>
      <trkpt lat="47.33746" lon="5.94653">
        <ele>223.4</ele>
        <time>2017-12-21T12:11:59Z</time>
      </trkpt>
      <trkpt lat="47.33747" lon="5.94645">
        <ele>223.4</ele>
        <time>2017-12-21T12:12:00Z</time>
      </trkpt>
      <trkpt lat="47.33749" lon="5.94637">
        <ele>223.4</ele>
        <time>2017-12-21T12:12:01Z</time>
      </trkpt>
      <trkpt lat="47.3375" lon="5.94629">
        <ele>223.4</ele>
        <time>2017-12-21T12:12:02Z</time>
      </trkpt>
      <trkpt lat="47.33752" lon="5.94622">
        <ele>223.4</ele>
        <time>2017-12-21T12:12:03Z</time>
      </trkpt>
      <trkpt lat="47.33754" lon="5.94615">
        <ele>223.4</ele>
        <time>2017-12-21T12:12:04Z</time>
      </trkpt>
      <trkpt lat="47.33756" lon="5.94607">
        <ele>223.4</ele>
        <time>2017-12-21T12:12:05Z</time>
      </trkpt>
      <trkpt lat="47.33759" lon="5.94601">
        <ele>223.4</ele>
        <time>2017-12-21T12:12:06Z</time>
      </trkpt>
      <trkpt lat="47.33761" lon="5.94595">
        <ele>223.4</ele>
        <time>2017-12-21T12:12:07Z</time>
      </trkpt>
      <trkpt lat="47.33764" lon="5.94589">
        <ele>223.4</ele>
        <time>2017-12-21T12:12:08Z</time>
      </trkpt>
      <trkpt lat="47.33767" lon="5.94583">
        <ele>223.4</ele>
        <time>2017-12-21T12:12:09Z</time>
      </trkpt>
      <trkpt lat="47.3377" lon="5.94577">
        <ele>223.4</ele>
        <time>2017-12-21T12:12:10Z</time>
      </trkpt>
      <trkpt lat="47.33773" lon="5.94572">
        <ele>224</ele>
        <time>2017-12-21T12:12:11Z</time>
      </trkpt>
      <trkpt lat="47.33776" lon="5.94566">
        <ele>224.4</ele>
        <time>2017-12-21T12:12:12Z</time>
      </trkpt>
      <trkpt lat="47.33778" lon="5.9456">
        <ele>224.8</ele>
        <time>2017-12-21T12:12:13Z</time>
      </trkpt>
      <trkpt lat="47.3378" lon="5.94555">
        <ele>225.2</ele>
        <time>2017-12-21T12:12:14Z</time>
      </trkpt>
      <trkpt lat="47.33782" lon="5.9455">
        <ele>225.8</ele>
        <time>2017-12-21T12:12:15Z</time>
      </trkpt>
      <trkpt lat="47.33784" lon="5.94545">
        <ele>225.8</ele>
        <time>2017-12-21T12:12:16Z</time>
      </trkpt>
      <trkpt lat="47.33786" lon="5.9454">
        <ele>225.8</ele>
        <time>2017-12-21T12:12:17Z</time>
      </trkpt>
      <trkpt lat="47.33788" lon="5.94534">
        <ele>226.2</ele>
        <time>2017-12-21T12:12:18Z</time>
      </trkpt>
      <trkpt lat="47.3379" lon="5.94529">
        <ele>226.6</ele>
        <time>2017-12-21T12:12:19Z</time>
      </trkpt>
      <trkpt lat="47.33792" lon="5.94524">
        <ele>227</ele>
        <time>2017-12-21T12:12:20Z</time>
      </trkpt>
      <trkpt lat="47.33793" lon="5.94519">
        <ele>227.4</ele>
        <time>2017-12-21T12:12:21Z</time>
      </trkpt>
      <trkpt lat="47.33795" lon="5.94514">
        <ele>227.8</ele>
        <time>2017-12-21T12:12:22Z</time>
      </trkpt>
      <trkpt lat="47.33796" lon="5.94508">
        <ele>227.8</ele>
        <time>2017-12-21T12:12:23Z</time>
      </trkpt>
      <trkpt lat="47.33798" lon="5.94503">
        <ele>227.8</ele>
        <time>2017-12-21T12:12:24Z</time>
      </trkpt>
      <trkpt lat="47.33801" lon="5.94498">
        <ele>227.8</ele>
        <time>2017-12-21T12:12:25Z</time>
      </trkpt>
      <trkpt lat="47.33803" lon="5.94494">
        <ele>228.2</ele>
        <time>2017-12-21T12:12:26Z</time>
      </trkpt>
      <trkpt lat="47.33805" lon="5.94489">
        <ele>228.6</ele>
        <time>2017-12-21T12:12:27Z</time>
      </trkpt>
      <trkpt lat="47.33807" lon="5.94485">
        <ele>229</ele>
        <time>2017-12-21T12:12:28Z</time>
      </trkpt>
      <trkpt lat="47.33808" lon="5.9448">
        <ele>229.4</ele>
        <time>2017-12-21T12:12:29Z</time>
      </trkpt>
      <trkpt lat="47.3381" lon="5.94475">
        <ele>229.8</ele>
        <time>2017-12-21T12:12:30Z</time>
      </trkpt>
      <trkpt lat="47.33811" lon="5.9447">
        <ele>229.8</ele>
        <time>2017-12-21T12:12:31Z</time>
      </trkpt>
      <trkpt lat="47.33813" lon="5.94465">
        <ele>229.8</ele>
        <time>2017-12-21T12:12:32Z</time>
      </trkpt>
      <trkpt lat="47.33815" lon="5.9446">
        <ele>229.8</ele>
        <time>2017-12-21T12:12:33Z</time>
      </trkpt>
      <trkpt lat="47.33816" lon="5.94454">
        <ele>229.8</ele>
        <time>2017-12-21T12:12:34Z</time>
      </trkpt>
      <trkpt lat="47.33818" lon="5.94449">
        <ele>230.2</ele>
        <time>2017-12-21T12:12:35Z</time>
      </trkpt>
      <trkpt lat="47.33819" lon="5.94444">
        <ele>230.6</ele>
        <time>2017-12-21T12:12:36Z</time>
      </trkpt>
      <trkpt lat="47.33821" lon="5.94439">
        <ele>231</ele>
        <time>2017-12-21T12:12:37Z</time>
      </trkpt>
      <trkpt lat="47.33823" lon="5.94434">
        <ele>231.6</ele>
        <time>2017-12-21T12:12:38Z</time>
      </trkpt>
      <trkpt lat="47.33824" lon="5.94429">
        <ele>232</ele>
        <time>2017-12-21T12:12:39Z</time>
      </trkpt>
      <trkpt lat="47.33825" lon="5.94423">
        <ele>232</ele>
        <time>2017-12-21T12:12:40Z</time>
      </trkpt>
      <trkpt lat="47.33827" lon="5.94418">
        <ele>232</ele>
        <time>2017-12-21T12:12:41Z</time>
      </trkpt>
      <trkpt lat="47.33828" lon="5.94413">
        <ele>232</ele>
        <time>2017-12-21T12:12:42Z</time>
      </trkpt>
      <trkpt lat="47.33829" lon="5.94408">
        <ele>232</ele>
        <time>2017-12-21T12:12:43Z</time>
      </trkpt>
      <trkpt lat="47.33831" lon="5.94403">
        <ele>232</ele>
        <time>2017-12-21T12:12:44Z</time>
      </trkpt>
      <trkpt lat="47.33832" lon="5.94398">
        <ele>232</ele>
        <time>2017-12-21T12:12:45Z</time>
      </trkpt>
      <trkpt lat="47.33834" lon="5.94393">
        <ele>232</ele>
        <time>2017-12-21T12:12:46Z</time>
      </trkpt>
      <trkpt lat="47.33835" lon="5.94388">
        <ele>232</ele>
        <time>2017-12-21T12:12:47Z</time>
      </trkpt>
      <trkpt lat="47.33837" lon="5.94382">
        <ele>232.4</ele>
        <time>2017-12-21T12:12:48Z</time>
      </trkpt>
      <trkpt lat="47.33838" lon="5.94377">
        <ele>232.8</ele>
        <time>2017-12-21T12:12:49Z</time>
      </trkpt>
      <trkpt lat="47.3384" lon="5.94372">
        <ele>233.2</ele>
        <time>2017-12-21T12:12:50Z</time>
      </trkpt>
      <trkpt lat="47.33842" lon="5.94367">
        <ele>233.6</ele>
        <time>2017-12-21T12:12:51Z</time>
      </trkpt>
      <trkpt lat="47.33843" lon="5.94363">
        <ele>234</ele>
        <time>2017-12-21T12:12:52Z</time>
      </trkpt>
      <trkpt lat="47.33845" lon="5.94358">
        <ele>234</ele>
        <time>2017-12-21T12:12:53Z</time>
      </trkpt>
      <trkpt lat="47.33848" lon="5.94354">
        <ele>234</ele>
        <time>2017-12-21T12:12:54Z</time>
      </trkpt>
      <trkpt lat="47.3385" lon="5.9435">
        <ele>234</ele>
        <time>2017-12-21T12:12:55Z</time>
      </trkpt>
      <trkpt lat="47.33852" lon="5.94346">
        <ele>234</ele>
        <time>2017-12-21T12:12:56Z</time>
      </trkpt>
      <trkpt lat="47.33855" lon="5.94342">
        <ele>234</ele>
        <time>2017-12-21T12:12:57Z</time>
      </trkpt>
      <trkpt lat="47.33857" lon="5.94339">
        <ele>234</ele>
        <time>2017-12-21T12:12:58Z</time>
      </trkpt>
      <trkpt lat="47.3386" lon="5.94335">
        <ele>234.4</ele>
        <time>2017-12-21T12:12:59Z</time>
      </trkpt>
      <trkpt lat="47.33863" lon="5.94331">
        <ele>234.8</ele>
        <time>2017-12-21T12:13:00Z</time>
      </trkpt>
      <trkpt lat="47.33865" lon="5.94327">
        <ele>235.2</ele>
        <time>2017-12-21T12:13:01Z</time>
      </trkpt>
      <trkpt lat="47.33869" lon="5.94323">
        <ele>235.6</ele>
        <time>2017-12-21T12:13:02Z</time>
      </trkpt>
      <trkpt lat="47.33872" lon="5.94319">
        <ele>236</ele>
        <time>2017-12-21T12:13:03Z</time>
      </trkpt>
      <trkpt lat="47.33875" lon="5.94314">
        <ele>236</ele>
        <time>2017-12-21T12:13:04Z</time>
      </trkpt>
      <trkpt lat="47.33879" lon="5.9431">
        <ele>236</ele>
        <time>2017-12-21T12:13:05Z</time>
      </trkpt>
      <trkpt lat="47.33883" lon="5.94304">
        <ele>236</ele>
        <time>2017-12-21T12:13:06Z</time>
      </trkpt>
      <trkpt lat="47.33887" lon="5.94299">
        <ele>236</ele>
        <time>2017-12-21T12:13:07Z</time>
      </trkpt>
      <trkpt lat="47.33891" lon="5.94293">
        <ele>236</ele>
        <time>2017-12-21T12:13:08Z</time>
      </trkpt>
      <trkpt lat="47.33895" lon="5.94287">
        <ele>236</ele>
        <time>2017-12-21T12:13:09Z</time>
      </trkpt>
      <trkpt lat="47.33899" lon="5.9428">
        <ele>236</ele>
        <time>2017-12-21T12:13:10Z</time>
      </trkpt>
      <trkpt lat="47.33903" lon="5.94273">
        <ele>236</ele>
        <time>2017-12-21T12:13:11Z</time>
      </trkpt>
      <trkpt lat="47.33906" lon="5.94266">
        <ele>236</ele>
        <time>2017-12-21T12:13:12Z</time>
      </trkpt>
      <trkpt lat="47.33909" lon="5.94258">
        <ele>235.6</ele>
        <time>2017-12-21T12:13:13Z</time>
      </trkpt>
      <trkpt lat="47.33912" lon="5.94251">
        <ele>235.2</ele>
        <time>2017-12-21T12:13:14Z</time>
      </trkpt>
      <trkpt lat="47.33915" lon="5.94242">
        <ele>234.8</ele>
        <time>2017-12-21T12:13:15Z</time>
      </trkpt>
      <trkpt lat="47.33918" lon="5.94234">
        <ele>234.2</ele>
        <time>2017-12-21T12:13:16Z</time>
      </trkpt>
      <trkpt lat="47.33922" lon="5.94225">
        <ele>233.8</ele>
        <time>2017-12-21T12:13:17Z</time>
      </trkpt>
      <trkpt lat="47.33925" lon="5.94217">
        <ele>233.8</ele>
        <time>2017-12-21T12:13:18Z</time>
      </trkpt>
      <trkpt lat="47.33928" lon="5.94209">
        <ele>233.8</ele>
        <time>2017-12-21T12:13:19Z</time>
      </trkpt>
      <trkpt lat="47.33931" lon="5.94201">
        <ele>233.8</ele>
        <time>2017-12-21T12:13:20Z</time>
      </trkpt>
      <trkpt lat="47.33934" lon="5.94192">
        <ele>233.8</ele>
        <time>2017-12-21T12:13:21Z</time>
      </trkpt>
      <trkpt lat="47.33938" lon="5.94184">
        <ele>233.8</ele>
        <time>2017-12-21T12:13:22Z</time>
      </trkpt>
      <trkpt lat="47.33941" lon="5.94176">
        <ele>233.8</ele>
        <time>2017-12-21T12:13:23Z</time>
      </trkpt>
      <trkpt lat="47.33944" lon="5.94168">
        <ele>233.8</ele>
        <time>2017-12-21T12:13:24Z</time>
      </trkpt>
      <trkpt lat="47.33947" lon="5.94159">
        <ele>233.8</ele>
        <time>2017-12-21T12:13:25Z</time>
      </trkpt>
      <trkpt lat="47.3395" lon="5.94151">
        <ele>233.8</ele>
        <time>2017-12-21T12:13:26Z</time>
      </trkpt>
      <trkpt lat="47.33952" lon="5.94142">
        <ele>233.4</ele>
        <time>2017-12-21T12:13:27Z</time>
      </trkpt>
      <trkpt lat="47.33954" lon="5.94133">
        <ele>233</ele>
        <time>2017-12-21T12:13:28Z</time>
      </trkpt>
      <trkpt lat="47.33955" lon="5.94123">
        <ele>232.6</ele>
        <time>2017-12-21T12:13:29Z</time>
      </trkpt>
      <trkpt lat="47.33956" lon="5.94113">
        <ele>232.2</ele>
        <time>2017-12-21T12:13:30Z</time>
      </trkpt>
      <trkpt lat="47.33956" lon="5.94103">
        <ele>231.8</ele>
        <time>2017-12-21T12:13:31Z</time>
      </trkpt>
      <trkpt lat="47.33955" lon="5.94092">
        <ele>231.8</ele>
        <time>2017-12-21T12:13:32Z</time>
      </trkpt>
      <trkpt lat="47.33955" lon="5.94082">
        <ele>231.8</ele>
        <time>2017-12-21T12:13:33Z</time>
      </trkpt>
      <trkpt lat="47.33954" lon="5.94072">
        <ele>231.8</ele>
        <time>2017-12-21T12:13:34Z</time>
      </trkpt>
      <trkpt lat="47.33953" lon="5.94062">
        <ele>231.8</ele>
        <time>2017-12-21T12:13:35Z</time>
      </trkpt>
      <trkpt lat="47.33953" lon="5.94052">
        <ele>231.8</ele>
        <time>2017-12-21T12:13:36Z</time>
      </trkpt>
      <trkpt lat="47.33952" lon="5.94042">
        <ele>231.8</ele>
        <time>2017-12-21T12:13:37Z</time>
      </trkpt>
      <trkpt lat="47.33952" lon="5.94032">
        <ele>231.8</ele>
        <time>2017-12-21T12:13:38Z</time>
      </trkpt>
      <trkpt lat="47.33952" lon="5.94022">
        <ele>231.8</ele>
        <time>2017-12-21T12:13:39Z</time>
      </trkpt>
      <trkpt lat="47.33951" lon="5.94012">
        <ele>231.8</ele>
        <time>2017-12-21T12:13:40Z</time>
      </trkpt>
      <trkpt lat="47.3395" lon="5.94003">
        <ele>231.8</ele>
        <time>2017-12-21T12:13:41Z</time>
      </trkpt>
      <trkpt lat="47.33949" lon="5.93994">
        <ele>231.8</ele>
        <time>2017-12-21T12:13:42Z</time>
      </trkpt>
      <trkpt lat="47.33948" lon="5.93986">
        <ele>231.8</ele>
        <time>2017-12-21T12:13:43Z</time>
      </trkpt>
      <trkpt lat="47.33947" lon="5.93977">
        <ele>231.8</ele>
        <time>2017-12-21T12:13:44Z</time>
      </trkpt>
      <trkpt lat="47.33946" lon="5.93969">
        <ele>231.8</ele>
        <time>2017-12-21T12:13:45Z</time>
      </trkpt>
      <trkpt lat="47.33946" lon="5.9396">
        <ele>231.8</ele>
        <time>2017-12-21T12:13:46Z</time>
      </trkpt>
      <trkpt lat="47.33945" lon="5.93952">
        <ele>231.8</ele>
        <time>2017-12-21T12:13:47Z</time>
      </trkpt>
      <trkpt lat="47.33944" lon="5.93943">
        <ele>231.8</ele>
        <time>2017-12-21T12:13:48Z</time>
      </trkpt>
      <trkpt lat="47.33943" lon="5.93934">
        <ele>231.8</ele>
        <time>2017-12-21T12:13:49Z</time>
      </trkpt>
      <trkpt lat="47.33942" lon="5.93925">
        <ele>231.8</ele>
        <time>2017-12-21T12:13:50Z</time>
      </trkpt>
      <trkpt lat="47.33941" lon="5.93915">
        <ele>231.4</ele>
        <time>2017-12-21T12:13:51Z</time>
      </trkpt>
      <trkpt lat="47.3394" lon="5.93906">
        <ele>230.8</ele>
        <time>2017-12-21T12:13:52Z</time>
      </trkpt>
      <trkpt lat="47.33939" lon="5.93896">
        <ele>230.4</ele>
        <time>2017-12-21T12:13:53Z</time>
      </trkpt>
      <trkpt lat="47.33938" lon="5.93887">
        <ele>230</ele>
        <time>2017-12-21T12:13:54Z</time>
      </trkpt>
      <trkpt lat="47.33936" lon="5.93878">
        <ele>229.6</ele>
        <time>2017-12-21T12:13:55Z</time>
      </trkpt>
      <trkpt lat="47.33934" lon="5.9387">
        <ele>229.6</ele>
        <time>2017-12-21T12:13:56Z</time>
      </trkpt>
      <trkpt lat="47.33934" lon="5.93862">
        <ele>229.6</ele>
        <time>2017-12-21T12:13:57Z</time>
      </trkpt>
      <trkpt lat="47.33934" lon="5.93856">
        <ele>228.6</ele>
        <time>2017-12-21T12:13:58Z</time>
      </trkpt>
      <trkpt lat="47.33936" lon="5.93851">
        <ele>228.2</ele>
        <time>2017-12-21T12:13:59Z</time>
      </trkpt>
      <trkpt lat="47.33939" lon="5.93848">
        <ele>227.6</ele>
        <time>2017-12-21T12:14:00Z</time>
      </trkpt>
      <trkpt lat="47.33943" lon="5.93846">
        <ele>227.2</ele>
        <time>2017-12-21T12:14:01Z</time>
      </trkpt>
      <trkpt lat="47.33946" lon="5.93845">
        <ele>227.2</ele>
        <time>2017-12-21T12:14:02Z</time>
      </trkpt>
      <trkpt lat="47.33951" lon="5.93845">
        <ele>226.8</ele>
        <time>2017-12-21T12:14:03Z</time>
      </trkpt>
      <trkpt lat="47.33955" lon="5.93844">
        <ele>226.4</ele>
        <time>2017-12-21T12:14:04Z</time>
      </trkpt>
      <trkpt lat="47.33959" lon="5.93843">
        <ele>225.8</ele>
        <time>2017-12-21T12:14:05Z</time>
      </trkpt>
      <trkpt lat="47.33964" lon="5.93842">
        <ele>225.4</ele>
        <time>2017-12-21T12:14:06Z</time>
      </trkpt>
      <trkpt lat="47.3397" lon="5.93839">
        <ele>225</ele>
        <time>2017-12-21T12:14:07Z</time>
      </trkpt>
      <trkpt lat="47.33976" lon="5.93837">
        <ele>225</ele>
        <time>2017-12-21T12:14:08Z</time>
      </trkpt>
      <trkpt lat="47.33982" lon="5.93835">
        <ele>225</ele>
        <time>2017-12-21T12:14:09Z</time>
      </trkpt>
      <trkpt lat="47.33988" lon="5.93834">
        <ele>225</ele>
        <time>2017-12-21T12:14:10Z</time>
      </trkpt>
      <trkpt lat="47.33994" lon="5.93832">
        <ele>224.6</ele>
        <time>2017-12-21T12:14:11Z</time>
      </trkpt>
      <trkpt lat="47.34" lon="5.93831">
        <ele>224</ele>
        <time>2017-12-21T12:14:12Z</time>
      </trkpt>
      <trkpt lat="47.34006" lon="5.9383">
        <ele>223.6</ele>
        <time>2017-12-21T12:14:13Z</time>
      </trkpt>
      <trkpt lat="47.34011" lon="5.93829">
        <ele>223.2</ele>
        <time>2017-12-21T12:14:14Z</time>
      </trkpt>
      <trkpt lat="47.34015" lon="5.93829">
        <ele>222.6</ele>
        <time>2017-12-21T12:14:15Z</time>
      </trkpt>
      <trkpt lat="47.34021" lon="5.9383">
        <ele>222.6</ele>
        <time>2017-12-21T12:14:16Z</time>
      </trkpt>
      <trkpt lat="47.34026" lon="5.93833">
        <ele>222.6</ele>
        <time>2017-12-21T12:14:17Z</time>
      </trkpt>
      <trkpt lat="47.34032" lon="5.93837">
        <ele>222.6</ele>
        <time>2017-12-21T12:14:18Z</time>
      </trkpt>
      <trkpt lat="47.34038" lon="5.93839">
        <ele>222.6</ele>
        <time>2017-12-21T12:14:19Z</time>
      </trkpt>
      <trkpt lat="47.34044" lon="5.93841">
        <ele>222.6</ele>
        <time>2017-12-21T12:14:20Z</time>
      </trkpt>
      <trkpt lat="47.3405" lon="5.93844">
        <ele>222.6</ele>
        <time>2017-12-21T12:14:21Z</time>
      </trkpt>
      <trkpt lat="47.34056" lon="5.93846">
        <ele>222.6</ele>
        <time>2017-12-21T12:14:22Z</time>
      </trkpt>
      <trkpt lat="47.34063" lon="5.93849">
        <ele>221.8</ele>
        <time>2017-12-21T12:14:23Z</time>
      </trkpt>
      <trkpt lat="47.34069" lon="5.93851">
        <ele>221.4</ele>
        <time>2017-12-21T12:14:24Z</time>
      </trkpt>
      <trkpt lat="47.34075" lon="5.93853">
        <ele>221</ele>
        <time>2017-12-21T12:14:25Z</time>
      </trkpt>
      <trkpt lat="47.34081" lon="5.93855">
        <ele>220.6</ele>
        <time>2017-12-21T12:14:26Z</time>
      </trkpt>
      <trkpt lat="47.34087" lon="5.93857">
        <ele>220.6</ele>
        <time>2017-12-21T12:14:27Z</time>
      </trkpt>
      <trkpt lat="47.34093" lon="5.93859">
        <ele>220.6</ele>
        <time>2017-12-21T12:14:28Z</time>
      </trkpt>
      <trkpt lat="47.34099" lon="5.93861">
        <ele>220.6</ele>
        <time>2017-12-21T12:14:29Z</time>
      </trkpt>
      <trkpt lat="47.34105" lon="5.93862">
        <ele>220.6</ele>
        <time>2017-12-21T12:14:30Z</time>
      </trkpt>
      <trkpt lat="47.34111" lon="5.93863">
        <ele>220.6</ele>
        <time>2017-12-21T12:14:31Z</time>
      </trkpt>
      <trkpt lat="47.34118" lon="5.93864">
        <ele>220.6</ele>
        <time>2017-12-21T12:14:32Z</time>
      </trkpt>
      <trkpt lat="47.34125" lon="5.93864">
        <ele>220.6</ele>
        <time>2017-12-21T12:14:33Z</time>
      </trkpt>
      <trkpt lat="47.34132" lon="5.93865">
        <ele>220.6</ele>
        <time>2017-12-21T12:14:34Z</time>
      </trkpt>
      <trkpt lat="47.34139" lon="5.93865">
        <ele>220.6</ele>
        <time>2017-12-21T12:14:35Z</time>
      </trkpt>
      <trkpt lat="47.34145" lon="5.93866">
        <ele>220.6</ele>
        <time>2017-12-21T12:14:36Z</time>
      </trkpt>
      <trkpt lat="47.34152" lon="5.93866">
        <ele>220.6</ele>
        <time>2017-12-21T12:14:37Z</time>
      </trkpt>
      <trkpt lat="47.34159" lon="5.93866">
        <ele>220.6</ele>
        <time>2017-12-21T12:14:38Z</time>
      </trkpt>
      <trkpt lat="47.34167" lon="5.93866">
        <ele>220.6</ele>
        <time>2017-12-21T12:14:39Z</time>
      </trkpt>
      <trkpt lat="47.34173" lon="5.93867">
        <ele>220.6</ele>
        <time>2017-12-21T12:14:40Z</time>
      </trkpt>
      <trkpt lat="47.3418" lon="5.93867">
        <ele>220.6</ele>
        <time>2017-12-21T12:14:41Z</time>
      </trkpt>
      <trkpt lat="47.34186" lon="5.93867">
        <ele>220.6</ele>
        <time>2017-12-21T12:14:42Z</time>
      </trkpt>
      <trkpt lat="47.34192" lon="5.93868">
        <ele>220.6</ele>
        <time>2017-12-21T12:14:43Z</time>
      </trkpt>
      <trkpt lat="47.34199" lon="5.93869">
        <ele>220.6</ele>
        <time>2017-12-21T12:14:44Z</time>
      </trkpt>
      <trkpt lat="47.34205" lon="5.9387">
        <ele>220.6</ele>
        <time>2017-12-21T12:14:45Z</time>
      </trkpt>
      <trkpt lat="47.34211" lon="5.93871">
        <ele>220.6</ele>
        <time>2017-12-21T12:14:46Z</time>
      </trkpt>
      <trkpt lat="47.34218" lon="5.93873">
        <ele>220.6</ele>
        <time>2017-12-21T12:14:47Z</time>
      </trkpt>
      <trkpt lat="47.34224" lon="5.93874">
        <ele>220.6</ele>
        <time>2017-12-21T12:14:48Z</time>
      </trkpt>
      <trkpt lat="47.34231" lon="5.93876">
        <ele>220.6</ele>
        <time>2017-12-21T12:14:49Z</time>
      </trkpt>
      <trkpt lat="47.34238" lon="5.93877">
        <ele>220.6</ele>
        <time>2017-12-21T12:14:50Z</time>
      </trkpt>
      <trkpt lat="47.34244" lon="5.93879">
        <ele>220.6</ele>
        <time>2017-12-21T12:14:51Z</time>
      </trkpt>
      <trkpt lat="47.34251" lon="5.9388">
        <ele>220.6</ele>
        <time>2017-12-21T12:14:52Z</time>
      </trkpt>
      <trkpt lat="47.34258" lon="5.93881">
        <ele>220.6</ele>
        <time>2017-12-21T12:14:53Z</time>
      </trkpt>
      <trkpt lat="47.34265" lon="5.93883">
        <ele>220.6</ele>
        <time>2017-12-21T12:14:54Z</time>
      </trkpt>
      <trkpt lat="47.34272" lon="5.93884">
        <ele>220.6</ele>
        <time>2017-12-21T12:14:55Z</time>
      </trkpt>
      <trkpt lat="47.34279" lon="5.93885">
        <ele>220.6</ele>
        <time>2017-12-21T12:14:56Z</time>
      </trkpt>
      <trkpt lat="47.34286" lon="5.93887">
        <ele>220.6</ele>
        <time>2017-12-21T12:14:57Z</time>
      </trkpt>
      <trkpt lat="47.34294" lon="5.93889">
        <ele>220.6</ele>
        <time>2017-12-21T12:14:58Z</time>
      </trkpt>
      <trkpt lat="47.34301" lon="5.93891">
        <ele>220.6</ele>
        <time>2017-12-21T12:14:59Z</time>
      </trkpt>
      <trkpt lat="47.34309" lon="5.93892">
        <ele>220.6</ele>
        <time>2017-12-21T12:15:00Z</time>
      </trkpt>
      <trkpt lat="47.34316" lon="5.93894">
        <ele>220.6</ele>
        <time>2017-12-21T12:15:01Z</time>
      </trkpt>
      <trkpt lat="47.34324" lon="5.93896">
        <ele>220.6</ele>
        <time>2017-12-21T12:15:02Z</time>
      </trkpt>
      <trkpt lat="47.34332" lon="5.93898">
        <ele>220.6</ele>
        <time>2017-12-21T12:15:03Z</time>
      </trkpt>
      <trkpt lat="47.34339" lon="5.93899">
        <ele>220.6</ele>
        <time>2017-12-21T12:15:04Z</time>
      </trkpt>
      <trkpt lat="47.34347" lon="5.93901">
        <ele>220.2</ele>
        <time>2017-12-21T12:15:05Z</time>
      </trkpt>
      <trkpt lat="47.34354" lon="5.93902">
        <ele>219.8</ele>
        <time>2017-12-21T12:15:06Z</time>
      </trkpt>
      <trkpt lat="47.34362" lon="5.93904">
        <ele>219.2</ele>
        <time>2017-12-21T12:15:07Z</time>
      </trkpt>
      <trkpt lat="47.3437" lon="5.93906">
        <ele>218.8</ele>
        <time>2017-12-21T12:15:08Z</time>
      </trkpt>
      <trkpt lat="47.34378" lon="5.93907">
        <ele>218.4</ele>
        <time>2017-12-21T12:15:09Z</time>
      </trkpt>
      <trkpt lat="47.34385" lon="5.93909">
        <ele>218.4</ele>
        <time>2017-12-21T12:15:10Z</time>
      </trkpt>
      <trkpt lat="47.34393" lon="5.9391">
        <ele>218.4</ele>
        <time>2017-12-21T12:15:11Z</time>
      </trkpt>
      <trkpt lat="47.344" lon="5.93912">
        <ele>218.4</ele>
        <time>2017-12-21T12:15:12Z</time>
      </trkpt>
      <trkpt lat="47.34407" lon="5.93913">
        <ele>218.4</ele>
        <time>2017-12-21T12:15:13Z</time>
      </trkpt>
      <trkpt lat="47.34414" lon="5.93914">
        <ele>218.4</ele>
        <time>2017-12-21T12:15:14Z</time>
      </trkpt>
      <trkpt lat="47.34421" lon="5.93916">
        <ele>218.4</ele>
        <time>2017-12-21T12:15:15Z</time>
      </trkpt>
      <trkpt lat="47.34428" lon="5.93917">
        <ele>218.4</ele>
        <time>2017-12-21T12:15:16Z</time>
      </trkpt>
      <trkpt lat="47.34435" lon="5.93919">
        <ele>218.4</ele>
        <time>2017-12-21T12:15:17Z</time>
      </trkpt>
      <trkpt lat="47.34441" lon="5.9392">
        <ele>218.4</ele>
        <time>2017-12-21T12:15:18Z</time>
      </trkpt>
      <trkpt lat="47.34447" lon="5.93922">
        <ele>218.4</ele>
        <time>2017-12-21T12:15:19Z</time>
      </trkpt>
      <trkpt lat="47.34454" lon="5.93923">
        <ele>218.4</ele>
        <time>2017-12-21T12:15:20Z</time>
      </trkpt>
      <trkpt lat="47.3446" lon="5.93924">
        <ele>218.4</ele>
        <time>2017-12-21T12:15:21Z</time>
      </trkpt>
      <trkpt lat="47.34466" lon="5.93926">
        <ele>218.4</ele>
        <time>2017-12-21T12:15:22Z</time>
      </trkpt>
      <trkpt lat="47.34473" lon="5.93927">
        <ele>218.4</ele>
        <time>2017-12-21T12:15:23Z</time>
      </trkpt>
      <trkpt lat="47.3448" lon="5.93928">
        <ele>218.4</ele>
        <time>2017-12-21T12:15:24Z</time>
      </trkpt>
      <trkpt lat="47.34487" lon="5.93929">
        <ele>218.4</ele>
        <time>2017-12-21T12:15:25Z</time>
      </trkpt>
      <trkpt lat="47.34494" lon="5.9393">
        <ele>218.4</ele>
        <time>2017-12-21T12:15:26Z</time>
      </trkpt>
      <trkpt lat="47.34501" lon="5.93931">
        <ele>218.4</ele>
        <time>2017-12-21T12:15:27Z</time>
      </trkpt>
      <trkpt lat="47.34508" lon="5.93932">
        <ele>218.4</ele>
        <time>2017-12-21T12:15:28Z</time>
      </trkpt>
      <trkpt lat="47.34515" lon="5.93934">
        <ele>218.4</ele>
        <time>2017-12-21T12:15:29Z</time>
      </trkpt>
      <trkpt lat="47.34522" lon="5.93935">
        <ele>218.4</ele>
        <time>2017-12-21T12:15:30Z</time>
      </trkpt>
      <trkpt lat="47.34529" lon="5.93937">
        <ele>218.4</ele>
        <time>2017-12-21T12:15:31Z</time>
      </trkpt>
      <trkpt lat="47.34536" lon="5.93938">
        <ele>218.4</ele>
        <time>2017-12-21T12:15:32Z</time>
      </trkpt>
      <trkpt lat="47.34543" lon="5.9394">
        <ele>218.4</ele>
        <time>2017-12-21T12:15:33Z</time>
      </trkpt>
      <trkpt lat="47.34549" lon="5.93941">
        <ele>218.4</ele>
        <time>2017-12-21T12:15:34Z</time>
      </trkpt>
      <trkpt lat="47.34556" lon="5.93943">
        <ele>218.4</ele>
        <time>2017-12-21T12:15:35Z</time>
      </trkpt>
      <trkpt lat="47.34563" lon="5.93944">
        <ele>218.4</ele>
        <time>2017-12-21T12:15:36Z</time>
      </trkpt>
      <trkpt lat="47.3457" lon="5.93945">
        <ele>218.4</ele>
        <time>2017-12-21T12:15:37Z</time>
      </trkpt>
      <trkpt lat="47.34577" lon="5.93947">
        <ele>218.4</ele>
        <time>2017-12-21T12:15:38Z</time>
      </trkpt>
      <trkpt lat="47.34584" lon="5.93948">
        <ele>218.4</ele>
        <time>2017-12-21T12:15:39Z</time>
      </trkpt>
      <trkpt lat="47.34591" lon="5.9395">
        <ele>218.4</ele>
        <time>2017-12-21T12:15:40Z</time>
      </trkpt>
      <trkpt lat="47.34597" lon="5.93952">
        <ele>218.4</ele>
        <time>2017-12-21T12:15:41Z</time>
      </trkpt>
      <trkpt lat="47.34604" lon="5.93953">
        <ele>218.4</ele>
        <time>2017-12-21T12:15:42Z</time>
      </trkpt>
      <trkpt lat="47.34611" lon="5.93954">
        <ele>218.4</ele>
        <time>2017-12-21T12:15:43Z</time>
      </trkpt>
      <trkpt lat="47.34617" lon="5.93955">
        <ele>218.4</ele>
        <time>2017-12-21T12:15:44Z</time>
      </trkpt>
      <trkpt lat="47.34624" lon="5.93957">
        <ele>218.4</ele>
        <time>2017-12-21T12:15:45Z</time>
      </trkpt>
      <trkpt lat="47.34631" lon="5.93958">
        <ele>218.4</ele>
        <time>2017-12-21T12:15:46Z</time>
      </trkpt>
      <trkpt lat="47.34638" lon="5.9396">
        <ele>218.4</ele>
        <time>2017-12-21T12:15:47Z</time>
      </trkpt>
      <trkpt lat="47.34645" lon="5.93961">
        <ele>218.4</ele>
        <time>2017-12-21T12:15:48Z</time>
      </trkpt>
      <trkpt lat="47.34651" lon="5.93963">
        <ele>218.4</ele>
        <time>2017-12-21T12:15:49Z</time>
      </trkpt>
      <trkpt lat="47.34658" lon="5.93964">
        <ele>218.4</ele>
        <time>2017-12-21T12:15:50Z</time>
      </trkpt>
      <trkpt lat="47.34665" lon="5.93966">
        <ele>218.4</ele>
        <time>2017-12-21T12:15:51Z</time>
      </trkpt>
      <trkpt lat="47.34672" lon="5.93967">
        <ele>218.4</ele>
        <time>2017-12-21T12:15:52Z</time>
      </trkpt>
      <trkpt lat="47.34679" lon="5.93968">
        <ele>218.4</ele>
        <time>2017-12-21T12:15:53Z</time>
      </trkpt>
      <trkpt lat="47.34686" lon="5.93969">
        <ele>218.4</ele>
        <time>2017-12-21T12:15:54Z</time>
      </trkpt>
      <trkpt lat="47.34693" lon="5.93971">
        <ele>218.4</ele>
        <time>2017-12-21T12:15:55Z</time>
      </trkpt>
      <trkpt lat="47.34699" lon="5.93972">
        <ele>218.4</ele>
        <time>2017-12-21T12:15:56Z</time>
      </trkpt>
      <trkpt lat="47.34706" lon="5.93974">
        <ele>218.4</ele>
        <time>2017-12-21T12:15:57Z</time>
      </trkpt>
      <trkpt lat="47.34713" lon="5.93975">
        <ele>218.4</ele>
        <time>2017-12-21T12:15:58Z</time>
      </trkpt>
      <trkpt lat="47.3472" lon="5.93977">
        <ele>218.4</ele>
        <time>2017-12-21T12:15:59Z</time>
      </trkpt>
      <trkpt lat="47.34727" lon="5.93978">
        <ele>218.4</ele>
        <time>2017-12-21T12:16:00Z</time>
      </trkpt>
      <trkpt lat="47.34734" lon="5.9398">
        <ele>218.4</ele>
        <time>2017-12-21T12:16:01Z</time>
      </trkpt>
      <trkpt lat="47.34741" lon="5.93981">
        <ele>218.4</ele>
        <time>2017-12-21T12:16:02Z</time>
      </trkpt>
      <trkpt lat="47.34748" lon="5.93982">
        <ele>218.4</ele>
        <time>2017-12-21T12:16:03Z</time>
      </trkpt>
      <trkpt lat="47.34755" lon="5.93982">
        <ele>218.4</ele>
        <time>2017-12-21T12:16:04Z</time>
      </trkpt>
      <trkpt lat="47.34761" lon="5.93984">
        <ele>218.4</ele>
        <time>2017-12-21T12:16:05Z</time>
      </trkpt>
      <trkpt lat="47.34768" lon="5.93985">
        <ele>218.4</ele>
        <time>2017-12-21T12:16:06Z</time>
      </trkpt>
      <trkpt lat="47.34775" lon="5.93987">
        <ele>218.4</ele>
        <time>2017-12-21T12:16:07Z</time>
      </trkpt>
      <trkpt lat="47.34782" lon="5.93988">
        <ele>218.4</ele>
        <time>2017-12-21T12:16:08Z</time>
      </trkpt>
      <trkpt lat="47.34789" lon="5.9399">
        <ele>218.4</ele>
        <time>2017-12-21T12:16:09Z</time>
      </trkpt>
      <trkpt lat="47.34796" lon="5.93991">
        <ele>218.4</ele>
        <time>2017-12-21T12:16:10Z</time>
      </trkpt>
      <trkpt lat="47.34802" lon="5.93992">
        <ele>218.4</ele>
        <time>2017-12-21T12:16:11Z</time>
      </trkpt>
      <trkpt lat="47.34809" lon="5.93994">
        <ele>218.4</ele>
        <time>2017-12-21T12:16:12Z</time>
      </trkpt>
      <trkpt lat="47.34815" lon="5.93996">
        <ele>218.4</ele>
        <time>2017-12-21T12:16:13Z</time>
      </trkpt>
      <trkpt lat="47.34822" lon="5.93998">
        <ele>218.4</ele>
        <time>2017-12-21T12:16:14Z</time>
      </trkpt>
      <trkpt lat="47.34828" lon="5.94">
        <ele>218.4</ele>
        <time>2017-12-21T12:16:15Z</time>
      </trkpt>
      <trkpt lat="47.34835" lon="5.94002">
        <ele>218.4</ele>
        <time>2017-12-21T12:16:16Z</time>
      </trkpt>
      <trkpt lat="47.34842" lon="5.94004">
        <ele>218.4</ele>
        <time>2017-12-21T12:16:17Z</time>
      </trkpt>
      <trkpt lat="47.34848" lon="5.94006">
        <ele>218.4</ele>
        <time>2017-12-21T12:16:18Z</time>
      </trkpt>
      <trkpt lat="47.34854" lon="5.94008">
        <ele>218.4</ele>
        <time>2017-12-21T12:16:19Z</time>
      </trkpt>
      <trkpt lat="47.34861" lon="5.9401">
        <ele>218.4</ele>
        <time>2017-12-21T12:16:20Z</time>
      </trkpt>
      <trkpt lat="47.34868" lon="5.94012">
        <ele>218.4</ele>
        <time>2017-12-21T12:16:21Z</time>
      </trkpt>
      <trkpt lat="47.34881" lon="5.94015">
        <ele>218.4</ele>
        <time>2017-12-21T12:16:22Z</time>
      </trkpt>
      <trkpt lat="47.34881" lon="5.94015">
        <ele>218.4</ele>
        <time>2017-12-21T12:16:23Z</time>
      </trkpt>
      <trkpt lat="47.34887" lon="5.94015">
        <ele>218.4</ele>
        <time>2017-12-21T12:16:24Z</time>
      </trkpt>
      <trkpt lat="47.34894" lon="5.94015">
        <ele>218.4</ele>
        <time>2017-12-21T12:16:25Z</time>
      </trkpt>
      <trkpt lat="47.349" lon="5.94015">
        <ele>218.4</ele>
        <time>2017-12-21T12:16:26Z</time>
      </trkpt>
      <trkpt lat="47.34906" lon="5.94014">
        <ele>218.4</ele>
        <time>2017-12-21T12:16:27Z</time>
      </trkpt>
      <trkpt lat="47.34913" lon="5.94013">
        <ele>218.4</ele>
        <time>2017-12-21T12:16:28Z</time>
      </trkpt>
      <trkpt lat="47.34919" lon="5.94011">
        <ele>218.4</ele>
        <time>2017-12-21T12:16:29Z</time>
      </trkpt>
      <trkpt lat="47.34925" lon="5.94009">
        <ele>218.4</ele>
        <time>2017-12-21T12:16:30Z</time>
      </trkpt>
      <trkpt lat="47.34931" lon="5.94008">
        <ele>218.4</ele>
        <time>2017-12-21T12:16:31Z</time>
      </trkpt>
      <trkpt lat="47.34937" lon="5.94007">
        <ele>218.4</ele>
        <time>2017-12-21T12:16:32Z</time>
      </trkpt>
      <trkpt lat="47.34942" lon="5.94006">
        <ele>218.4</ele>
        <time>2017-12-21T12:16:33Z</time>
      </trkpt>
      <trkpt lat="47.34948" lon="5.94005">
        <ele>218.4</ele>
        <time>2017-12-21T12:16:34Z</time>
      </trkpt>
      <trkpt lat="47.34953" lon="5.94004">
        <ele>218.4</ele>
        <time>2017-12-21T12:16:35Z</time>
      </trkpt>
      <trkpt lat="47.34959" lon="5.94004">
        <ele>218.4</ele>
        <time>2017-12-21T12:16:36Z</time>
      </trkpt>
      <trkpt lat="47.34963" lon="5.94003">
        <ele>218.4</ele>
        <time>2017-12-21T12:16:37Z</time>
      </trkpt>
      <trkpt lat="47.34967" lon="5.94002">
        <ele>218.4</ele>
        <time>2017-12-21T12:16:38Z</time>
      </trkpt>
      <trkpt lat="47.3497" lon="5.93999">
        <ele>218.4</ele>
        <time>2017-12-21T12:16:39Z</time>
      </trkpt>
      <trkpt lat="47.3497" lon="5.93994">
        <ele>218.4</ele>
        <time>2017-12-21T12:16:40Z</time>
      </trkpt>
      <trkpt lat="47.34969" lon="5.93986">
        <ele>218.4</ele>
        <time>2017-12-21T12:16:41Z</time>
      </trkpt>
      <trkpt lat="47.34966" lon="5.9398">
        <ele>218.4</ele>
        <time>2017-12-21T12:16:42Z</time>
      </trkpt>
      <trkpt lat="47.34964" lon="5.93975">
        <ele>218.4</ele>
        <time>2017-12-21T12:16:43Z</time>
      </trkpt>
      <trkpt lat="47.34961" lon="5.9397">
        <ele>218.4</ele>
        <time>2017-12-21T12:16:44Z</time>
      </trkpt>
      <trkpt lat="47.34958" lon="5.93965">
        <ele>218.4</ele>
        <time>2017-12-21T12:16:45Z</time>
      </trkpt>
      <trkpt lat="47.34955" lon="5.93959">
        <ele>218.4</ele>
        <time>2017-12-21T12:16:46Z</time>
      </trkpt>
      <trkpt lat="47.34951" lon="5.93954">
        <ele>218.4</ele>
        <time>2017-12-21T12:16:47Z</time>
      </trkpt>
      <trkpt lat="47.34947" lon="5.93949">
        <ele>218.4</ele>
        <time>2017-12-21T12:16:48Z</time>
      </trkpt>
      <trkpt lat="47.34944" lon="5.93944">
        <ele>218.4</ele>
        <time>2017-12-21T12:16:49Z</time>
      </trkpt>
      <trkpt lat="47.3494" lon="5.93938">
        <ele>218.4</ele>
        <time>2017-12-21T12:16:50Z</time>
      </trkpt>
      <trkpt lat="47.34936" lon="5.93933">
        <ele>218.4</ele>
        <time>2017-12-21T12:16:51Z</time>
      </trkpt>
      <trkpt lat="47.34932" lon="5.93928">
        <ele>218.4</ele>
        <time>2017-12-21T12:16:52Z</time>
      </trkpt>
      <trkpt lat="47.34928" lon="5.93922">
        <ele>218.4</ele>
        <time>2017-12-21T12:16:53Z</time>
      </trkpt>
      <trkpt lat="47.34924" lon="5.93917">
        <ele>218.4</ele>
        <time>2017-12-21T12:16:54Z</time>
      </trkpt>
      <trkpt lat="47.3492" lon="5.93911">
        <ele>218.4</ele>
        <time>2017-12-21T12:16:55Z</time>
      </trkpt>
      <trkpt lat="47.34916" lon="5.93906">
        <ele>218.4</ele>
        <time>2017-12-21T12:16:56Z</time>
      </trkpt>
      <trkpt lat="47.34911" lon="5.93901">
        <ele>218.4</ele>
        <time>2017-12-21T12:16:57Z</time>
      </trkpt>
      <trkpt lat="47.34907" lon="5.93896">
        <ele>218.4</ele>
        <time>2017-12-21T12:16:58Z</time>
      </trkpt>
      <trkpt lat="47.34903" lon="5.93891">
        <ele>218.4</ele>
        <time>2017-12-21T12:16:59Z</time>
      </trkpt>
      <trkpt lat="47.34899" lon="5.93885">
        <ele>218.4</ele>
        <time>2017-12-21T12:17:00Z</time>
      </trkpt>
      <trkpt lat="47.34895" lon="5.93879">
        <ele>218.4</ele>
        <time>2017-12-21T12:17:01Z</time>
      </trkpt>
      <trkpt lat="47.3489" lon="5.93874">
        <ele>218.4</ele>
        <time>2017-12-21T12:17:02Z</time>
      </trkpt>
      <trkpt lat="47.34887" lon="5.93868">
        <ele>218.4</ele>
        <time>2017-12-21T12:17:03Z</time>
      </trkpt>
      <trkpt lat="47.34882" lon="5.93863">
        <ele>218.4</ele>
        <time>2017-12-21T12:17:04Z</time>
      </trkpt>
      <trkpt lat="47.34878" lon="5.93858">
        <ele>218.4</ele>
        <time>2017-12-21T12:17:05Z</time>
      </trkpt>
      <trkpt lat="47.34874" lon="5.93853">
        <ele>218.4</ele>
        <time>2017-12-21T12:17:06Z</time>
      </trkpt>
      <trkpt lat="47.3487" lon="5.93848">
        <ele>218.4</ele>
        <time>2017-12-21T12:17:07Z</time>
      </trkpt>
      <trkpt lat="47.34866" lon="5.93843">
        <ele>218.4</ele>
        <time>2017-12-21T12:17:08Z</time>
      </trkpt>
      <trkpt lat="47.34862" lon="5.93838">
        <ele>218.4</ele>
        <time>2017-12-21T12:17:09Z</time>
      </trkpt>
      <trkpt lat="47.34857" lon="5.93833">
        <ele>218.4</ele>
        <time>2017-12-21T12:17:10Z</time>
      </trkpt>
      <trkpt lat="47.34852" lon="5.93828">
        <ele>218.4</ele>
        <time>2017-12-21T12:17:11Z</time>
      </trkpt>
      <trkpt lat="47.34848" lon="5.93823">
        <ele>218.4</ele>
        <time>2017-12-21T12:17:12Z</time>
      </trkpt>
      <trkpt lat="47.34843" lon="5.93819">
        <ele>218.4</ele>
        <time>2017-12-21T12:17:13Z</time>
      </trkpt>
      <trkpt lat="47.34839" lon="5.93815">
        <ele>218.4</ele>
        <time>2017-12-21T12:17:14Z</time>
      </trkpt>
      <trkpt lat="47.34834" lon="5.9381">
        <ele>218.4</ele>
        <time>2017-12-21T12:17:15Z</time>
      </trkpt>
      <trkpt lat="47.34829" lon="5.93806">
        <ele>218.4</ele>
        <time>2017-12-21T12:17:16Z</time>
      </trkpt>
      <trkpt lat="47.34824" lon="5.938">
        <ele>218.4</ele>
        <time>2017-12-21T12:17:17Z</time>
      </trkpt>
      <trkpt lat="47.34818" lon="5.93795">
        <ele>218.4</ele>
        <time>2017-12-21T12:17:18Z</time>
      </trkpt>
      <trkpt lat="47.34813" lon="5.9379">
        <ele>218.4</ele>
        <time>2017-12-21T12:17:19Z</time>
      </trkpt>
      <trkpt lat="47.34808" lon="5.93785">
        <ele>218.4</ele>
        <time>2017-12-21T12:17:20Z</time>
      </trkpt>
      <trkpt lat="47.34802" lon="5.9378">
        <ele>218.4</ele>
        <time>2017-12-21T12:17:21Z</time>
      </trkpt>
      <trkpt lat="47.34797" lon="5.93775">
        <ele>218.4</ele>
        <time>2017-12-21T12:17:22Z</time>
      </trkpt>
      <trkpt lat="47.34791" lon="5.93769">
        <ele>218.4</ele>
        <time>2017-12-21T12:17:23Z</time>
      </trkpt>
      <trkpt lat="47.34786" lon="5.93764">
        <ele>218.4</ele>
        <time>2017-12-21T12:17:24Z</time>
      </trkpt>
      <trkpt lat="47.3478" lon="5.93759">
        <ele>218.4</ele>
        <time>2017-12-21T12:17:25Z</time>
      </trkpt>
      <trkpt lat="47.34775" lon="5.93755">
        <ele>218.4</ele>
        <time>2017-12-21T12:17:26Z</time>
      </trkpt>
      <trkpt lat="47.3477" lon="5.9375">
        <ele>218.4</ele>
        <time>2017-12-21T12:17:27Z</time>
      </trkpt>
      <trkpt lat="47.34765" lon="5.93745">
        <ele>218</ele>
        <time>2017-12-21T12:17:28Z</time>
      </trkpt>
      <trkpt lat="47.3476" lon="5.9374">
        <ele>217.6</ele>
        <time>2017-12-21T12:17:29Z</time>
      </trkpt>
      <trkpt lat="47.34755" lon="5.93734">
        <ele>217.2</ele>
        <time>2017-12-21T12:17:30Z</time>
      </trkpt>
      <trkpt lat="47.3475" lon="5.93729">
        <ele>216.8</ele>
        <time>2017-12-21T12:17:31Z</time>
      </trkpt>
      <trkpt lat="47.34745" lon="5.93724">
        <ele>216.4</ele>
        <time>2017-12-21T12:17:32Z</time>
      </trkpt>
      <trkpt lat="47.3474" lon="5.93718">
        <ele>216.4</ele>
        <time>2017-12-21T12:17:33Z</time>
      </trkpt>
      <trkpt lat="47.34736" lon="5.93713">
        <ele>216.4</ele>
        <time>2017-12-21T12:17:34Z</time>
      </trkpt>
      <trkpt lat="47.34732" lon="5.93707">
        <ele>216.4</ele>
        <time>2017-12-21T12:17:35Z</time>
      </trkpt>
      <trkpt lat="47.34728" lon="5.93701">
        <ele>216.4</ele>
        <time>2017-12-21T12:17:36Z</time>
      </trkpt>
      <trkpt lat="47.34724" lon="5.93694">
        <ele>216.4</ele>
        <time>2017-12-21T12:17:37Z</time>
      </trkpt>
      <trkpt lat="47.34721" lon="5.93686">
        <ele>216.4</ele>
        <time>2017-12-21T12:17:38Z</time>
      </trkpt>
      <trkpt lat="47.34718" lon="5.93679">
        <ele>216.4</ele>
        <time>2017-12-21T12:17:39Z</time>
      </trkpt>
      <trkpt lat="47.34714" lon="5.9367">
        <ele>216.4</ele>
        <time>2017-12-21T12:17:40Z</time>
      </trkpt>
      <trkpt lat="47.34711" lon="5.93663">
        <ele>216.4</ele>
        <time>2017-12-21T12:17:41Z</time>
      </trkpt>
      <trkpt lat="47.34708" lon="5.93655">
        <ele>216.4</ele>
        <time>2017-12-21T12:17:42Z</time>
      </trkpt>
      <trkpt lat="47.34705" lon="5.93647">
        <ele>216.4</ele>
        <time>2017-12-21T12:17:43Z</time>
      </trkpt>
      <trkpt lat="47.34702" lon="5.93639">
        <ele>216.4</ele>
        <time>2017-12-21T12:17:44Z</time>
      </trkpt>
      <trkpt lat="47.34699" lon="5.93631">
        <ele>216.4</ele>
        <time>2017-12-21T12:17:45Z</time>
      </trkpt>
      <trkpt lat="47.34697" lon="5.93624">
        <ele>216.4</ele>
        <time>2017-12-21T12:17:46Z</time>
      </trkpt>
      <trkpt lat="47.34694" lon="5.93616">
        <ele>216.4</ele>
        <time>2017-12-21T12:17:47Z</time>
      </trkpt>
      <trkpt lat="47.34692" lon="5.93609">
        <ele>216.4</ele>
        <time>2017-12-21T12:17:48Z</time>
      </trkpt>
      <trkpt lat="47.34689" lon="5.93602">
        <ele>216.4</ele>
        <time>2017-12-21T12:17:49Z</time>
      </trkpt>
      <trkpt lat="47.34687" lon="5.93596">
        <ele>216.4</ele>
        <time>2017-12-21T12:17:50Z</time>
      </trkpt>
      <trkpt lat="47.34685" lon="5.93589">
        <ele>216.4</ele>
        <time>2017-12-21T12:17:51Z</time>
      </trkpt>
      <trkpt lat="47.34682" lon="5.93582">
        <ele>216.8</ele>
        <time>2017-12-21T12:17:52Z</time>
      </trkpt>
      <trkpt lat="47.3468" lon="5.93575">
        <ele>217.2</ele>
        <time>2017-12-21T12:17:53Z</time>
      </trkpt>
      <trkpt lat="47.34678" lon="5.93568">
        <ele>217.6</ele>
        <time>2017-12-21T12:17:54Z</time>
      </trkpt>
      <trkpt lat="47.34676" lon="5.93562">
        <ele>218</ele>
        <time>2017-12-21T12:17:55Z</time>
      </trkpt>
      <trkpt lat="47.34675" lon="5.93555">
        <ele>218.4</ele>
        <time>2017-12-21T12:17:56Z</time>
      </trkpt>
      <trkpt lat="47.34673" lon="5.93549">
        <ele>218.4</ele>
        <time>2017-12-21T12:17:57Z</time>
      </trkpt>
      <trkpt lat="47.34671" lon="5.93543">
        <ele>218.4</ele>
        <time>2017-12-21T12:17:58Z</time>
      </trkpt>
      <trkpt lat="47.3467" lon="5.93538">
        <ele>218.4</ele>
        <time>2017-12-21T12:17:59Z</time>
      </trkpt>
      <trkpt lat="47.34668" lon="5.93532">
        <ele>218.4</ele>
        <time>2017-12-21T12:18:00Z</time>
      </trkpt>
      <trkpt lat="47.34667" lon="5.93526">
        <ele>218.4</ele>
        <time>2017-12-21T12:18:01Z</time>
      </trkpt>
      <trkpt lat="47.34666" lon="5.9352">
        <ele>218.8</ele>
        <time>2017-12-21T12:18:02Z</time>
      </trkpt>
      <trkpt lat="47.34665" lon="5.93514">
        <ele>219.2</ele>
        <time>2017-12-21T12:18:03Z</time>
      </trkpt>
      <trkpt lat="47.34664" lon="5.93508">
        <ele>219.8</ele>
        <time>2017-12-21T12:18:04Z</time>
      </trkpt>
      <trkpt lat="47.34663" lon="5.93502">
        <ele>220.2</ele>
        <time>2017-12-21T12:18:05Z</time>
      </trkpt>
      <trkpt lat="47.34663" lon="5.93495">
        <ele>220.6</ele>
        <time>2017-12-21T12:18:06Z</time>
      </trkpt>
      <trkpt lat="47.34662" lon="5.93489">
        <ele>220.6</ele>
        <time>2017-12-21T12:18:07Z</time>
      </trkpt>
      <trkpt lat="47.34661" lon="5.93483">
        <ele>220.6</ele>
        <time>2017-12-21T12:18:08Z</time>
      </trkpt>
      <trkpt lat="47.3466" lon="5.93477">
        <ele>220.6</ele>
        <time>2017-12-21T12:18:09Z</time>
      </trkpt>
      <trkpt lat="47.3466" lon="5.93471">
        <ele>221</ele>
        <time>2017-12-21T12:18:10Z</time>
      </trkpt>
      <trkpt lat="47.34659" lon="5.93464">
        <ele>221.4</ele>
        <time>2017-12-21T12:18:11Z</time>
      </trkpt>
      <trkpt lat="47.34658" lon="5.93458">
        <ele>221.8</ele>
        <time>2017-12-21T12:18:12Z</time>
      </trkpt>
      <trkpt lat="47.34658" lon="5.93451">
        <ele>222.2</ele>
        <time>2017-12-21T12:18:13Z</time>
      </trkpt>
      <trkpt lat="47.34657" lon="5.93445">
        <ele>222.6</ele>
        <time>2017-12-21T12:18:14Z</time>
      </trkpt>
      <trkpt lat="47.34656" lon="5.93438">
        <ele>222.6</ele>
        <time>2017-12-21T12:18:15Z</time>
      </trkpt>
      <trkpt lat="47.34655" lon="5.93431">
        <ele>222.6</ele>
        <time>2017-12-21T12:18:16Z</time>
      </trkpt>
      <trkpt lat="47.34655" lon="5.93424">
        <ele>222.6</ele>
        <time>2017-12-21T12:18:17Z</time>
      </trkpt>
      <trkpt lat="47.34654" lon="5.93418">
        <ele>222.6</ele>
        <time>2017-12-21T12:18:18Z</time>
      </trkpt>
      <trkpt lat="47.34654" lon="5.93411">
        <ele>223</ele>
        <time>2017-12-21T12:18:19Z</time>
      </trkpt>
      <trkpt lat="47.34654" lon="5.93405">
        <ele>223.4</ele>
        <time>2017-12-21T12:18:20Z</time>
      </trkpt>
      <trkpt lat="47.34653" lon="5.93398">
        <ele>224</ele>
        <time>2017-12-21T12:18:21Z</time>
      </trkpt>
      <trkpt lat="47.34653" lon="5.93391">
        <ele>224.4</ele>
        <time>2017-12-21T12:18:22Z</time>
      </trkpt>
      <trkpt lat="47.34652" lon="5.93385">
        <ele>224.8</ele>
        <time>2017-12-21T12:18:23Z</time>
      </trkpt>
      <trkpt lat="47.34651" lon="5.93378">
        <ele>224.8</ele>
        <time>2017-12-21T12:18:24Z</time>
      </trkpt>
      <trkpt lat="47.3465" lon="5.9337">
        <ele>224.8</ele>
        <time>2017-12-21T12:18:25Z</time>
      </trkpt>
      <trkpt lat="47.34649" lon="5.93363">
        <ele>224.8</ele>
        <time>2017-12-21T12:18:26Z</time>
      </trkpt>
      <trkpt lat="47.34649" lon="5.93356">
        <ele>224.8</ele>
        <time>2017-12-21T12:18:27Z</time>
      </trkpt>
      <trkpt lat="47.34648" lon="5.93349">
        <ele>224.8</ele>
        <time>2017-12-21T12:18:28Z</time>
      </trkpt>
      <trkpt lat="47.34648" lon="5.93343">
        <ele>225.2</ele>
        <time>2017-12-21T12:18:29Z</time>
      </trkpt>
      <trkpt lat="47.34647" lon="5.93336">
        <ele>225.8</ele>
        <time>2017-12-21T12:18:30Z</time>
      </trkpt>
      <trkpt lat="47.34646" lon="5.93329">
        <ele>226.2</ele>
        <time>2017-12-21T12:18:31Z</time>
      </trkpt>
      <trkpt lat="47.34645" lon="5.93322">
        <ele>226.6</ele>
        <time>2017-12-21T12:18:32Z</time>
      </trkpt>
      <trkpt lat="47.34644" lon="5.93315">
        <ele>227</ele>
        <time>2017-12-21T12:18:33Z</time>
      </trkpt>
      <trkpt lat="47.34644" lon="5.93309">
        <ele>227</ele>
        <time>2017-12-21T12:18:34Z</time>
      </trkpt>
      <trkpt lat="47.34643" lon="5.93302">
        <ele>227</ele>
        <time>2017-12-21T12:18:35Z</time>
      </trkpt>
      <trkpt lat="47.34643" lon="5.93295">
        <ele>227</ele>
        <time>2017-12-21T12:18:36Z</time>
      </trkpt>
      <trkpt lat="47.34642" lon="5.93289">
        <ele>227</ele>
        <time>2017-12-21T12:18:37Z</time>
      </trkpt>
      <trkpt lat="47.34642" lon="5.93282">
        <ele>227</ele>
        <time>2017-12-21T12:18:38Z</time>
      </trkpt>
      <trkpt lat="47.34641" lon="5.93276">
        <ele>227</ele>
        <time>2017-12-21T12:18:39Z</time>
      </trkpt>
      <trkpt lat="47.3464" lon="5.93269">
        <ele>227</ele>
        <time>2017-12-21T12:18:40Z</time>
      </trkpt>
      <trkpt lat="47.34639" lon="5.93263">
        <ele>227</ele>
        <time>2017-12-21T12:18:41Z</time>
      </trkpt>
      <trkpt lat="47.34639" lon="5.93256">
        <ele>227</ele>
        <time>2017-12-21T12:18:42Z</time>
      </trkpt>
      <trkpt lat="47.34638" lon="5.9325">
        <ele>227</ele>
        <time>2017-12-21T12:18:43Z</time>
      </trkpt>
      <trkpt lat="47.34637" lon="5.93243">
        <ele>227</ele>
        <time>2017-12-21T12:18:44Z</time>
      </trkpt>
      <trkpt lat="47.34637" lon="5.93236">
        <ele>227</ele>
        <time>2017-12-21T12:18:45Z</time>
      </trkpt>
      <trkpt lat="47.34636" lon="5.9323">
        <ele>227</ele>
        <time>2017-12-21T12:18:46Z</time>
      </trkpt>
      <trkpt lat="47.34635" lon="5.93223">
        <ele>227</ele>
        <time>2017-12-21T12:18:47Z</time>
      </trkpt>
      <trkpt lat="47.34634" lon="5.93216">
        <ele>227</ele>
        <time>2017-12-21T12:18:48Z</time>
      </trkpt>
      <trkpt lat="47.34634" lon="5.93208">
        <ele>227</ele>
        <time>2017-12-21T12:18:49Z</time>
      </trkpt>
      <trkpt lat="47.34633" lon="5.93201">
        <ele>227</ele>
        <time>2017-12-21T12:18:50Z</time>
      </trkpt>
      <trkpt lat="47.34632" lon="5.93194">
        <ele>227</ele>
        <time>2017-12-21T12:18:51Z</time>
      </trkpt>
      <trkpt lat="47.34632" lon="5.93188">
        <ele>227</ele>
        <time>2017-12-21T12:18:52Z</time>
      </trkpt>
      <trkpt lat="47.34631" lon="5.93181">
        <ele>227</ele>
        <time>2017-12-21T12:18:53Z</time>
      </trkpt>
      <trkpt lat="47.3463" lon="5.93174">
        <ele>227</ele>
        <time>2017-12-21T12:18:54Z</time>
      </trkpt>
      <trkpt lat="47.34629" lon="5.93167">
        <ele>227</ele>
        <time>2017-12-21T12:18:55Z</time>
      </trkpt>
      <trkpt lat="47.34629" lon="5.9316">
        <ele>227</ele>
        <time>2017-12-21T12:18:56Z</time>
      </trkpt>
      <trkpt lat="47.34628" lon="5.93153">
        <ele>227</ele>
        <time>2017-12-21T12:18:57Z</time>
      </trkpt>
      <trkpt lat="47.34627" lon="5.93147">
        <ele>227</ele>
        <time>2017-12-21T12:18:58Z</time>
      </trkpt>
      <trkpt lat="47.34626" lon="5.9314">
        <ele>227</ele>
        <time>2017-12-21T12:18:59Z</time>
      </trkpt>
      <trkpt lat="47.34626" lon="5.93133">
        <ele>227</ele>
        <time>2017-12-21T12:19:00Z</time>
      </trkpt>
      <trkpt lat="47.34625" lon="5.93126">
        <ele>227</ele>
        <time>2017-12-21T12:19:01Z</time>
      </trkpt>
      <trkpt lat="47.34624" lon="5.93119">
        <ele>227</ele>
        <time>2017-12-21T12:19:02Z</time>
      </trkpt>
      <trkpt lat="47.34624" lon="5.93111">
        <ele>227</ele>
        <time>2017-12-21T12:19:03Z</time>
      </trkpt>
      <trkpt lat="47.34623" lon="5.93103">
        <ele>227</ele>
        <time>2017-12-21T12:19:04Z</time>
      </trkpt>
      <trkpt lat="47.34622" lon="5.93096">
        <ele>227</ele>
        <time>2017-12-21T12:19:05Z</time>
      </trkpt>
      <trkpt lat="47.34621" lon="5.93088">
        <ele>227</ele>
        <time>2017-12-21T12:19:06Z</time>
      </trkpt>
      <trkpt lat="47.3462" lon="5.9308">
        <ele>227</ele>
        <time>2017-12-21T12:19:07Z</time>
      </trkpt>
      <trkpt lat="47.3462" lon="5.93072">
        <ele>227</ele>
        <time>2017-12-21T12:19:08Z</time>
      </trkpt>
      <trkpt lat="47.34619" lon="5.93064">
        <ele>227</ele>
        <time>2017-12-21T12:19:09Z</time>
      </trkpt>
      <trkpt lat="47.34618" lon="5.93056">
        <ele>227</ele>
        <time>2017-12-21T12:19:10Z</time>
      </trkpt>
      <trkpt lat="47.34617" lon="5.93049">
        <ele>227</ele>
        <time>2017-12-21T12:19:11Z</time>
      </trkpt>
      <trkpt lat="47.34616" lon="5.93041">
        <ele>227</ele>
        <time>2017-12-21T12:19:12Z</time>
      </trkpt>
      <trkpt lat="47.34615" lon="5.93034">
        <ele>227</ele>
        <time>2017-12-21T12:19:13Z</time>
      </trkpt>
      <trkpt lat="47.34614" lon="5.93027">
        <ele>227</ele>
        <time>2017-12-21T12:19:14Z</time>
      </trkpt>
      <trkpt lat="47.34614" lon="5.93019">
        <ele>227</ele>
        <time>2017-12-21T12:19:15Z</time>
      </trkpt>
      <trkpt lat="47.34613" lon="5.93012">
        <ele>227</ele>
        <time>2017-12-21T12:19:16Z</time>
      </trkpt>
      <trkpt lat="47.34612" lon="5.93004">
        <ele>227</ele>
        <time>2017-12-21T12:19:17Z</time>
      </trkpt>
      <trkpt lat="47.34611" lon="5.92996">
        <ele>227</ele>
        <time>2017-12-21T12:19:18Z</time>
      </trkpt>
      <trkpt lat="47.34611" lon="5.92989">
        <ele>227</ele>
        <time>2017-12-21T12:19:19Z</time>
      </trkpt>
      <trkpt lat="47.3461" lon="5.92981">
        <ele>227</ele>
        <time>2017-12-21T12:19:20Z</time>
      </trkpt>
      <trkpt lat="47.34609" lon="5.92973">
        <ele>227</ele>
        <time>2017-12-21T12:19:21Z</time>
      </trkpt>
      <trkpt lat="47.34608" lon="5.92966">
        <ele>227</ele>
        <time>2017-12-21T12:19:22Z</time>
      </trkpt>
      <trkpt lat="47.34607" lon="5.92958">
        <ele>227</ele>
        <time>2017-12-21T12:19:23Z</time>
      </trkpt>
      <trkpt lat="47.34606" lon="5.9295">
        <ele>227</ele>
        <time>2017-12-21T12:19:24Z</time>
      </trkpt>
      <trkpt lat="47.34605" lon="5.92942">
        <ele>227</ele>
        <time>2017-12-21T12:19:25Z</time>
      </trkpt>
      <trkpt lat="47.34604" lon="5.92934">
        <ele>227</ele>
        <time>2017-12-21T12:19:26Z</time>
      </trkpt>
      <trkpt lat="47.34603" lon="5.92926">
        <ele>227</ele>
        <time>2017-12-21T12:19:27Z</time>
      </trkpt>
      <trkpt lat="47.34603" lon="5.92917">
        <ele>227</ele>
        <time>2017-12-21T12:19:28Z</time>
      </trkpt>
      <trkpt lat="47.34602" lon="5.92909">
        <ele>227</ele>
        <time>2017-12-21T12:19:29Z</time>
      </trkpt>
      <trkpt lat="47.34601" lon="5.92901">
        <ele>227</ele>
        <time>2017-12-21T12:19:30Z</time>
      </trkpt>
      <trkpt lat="47.346" lon="5.92894">
        <ele>227</ele>
        <time>2017-12-21T12:19:31Z</time>
      </trkpt>
      <trkpt lat="47.34599" lon="5.92886">
        <ele>227</ele>
        <time>2017-12-21T12:19:32Z</time>
      </trkpt>
      <trkpt lat="47.34598" lon="5.92878">
        <ele>227</ele>
        <time>2017-12-21T12:19:33Z</time>
      </trkpt>
      <trkpt lat="47.34597" lon="5.92871">
        <ele>227</ele>
        <time>2017-12-21T12:19:34Z</time>
      </trkpt>
      <trkpt lat="47.34596" lon="5.92864">
        <ele>227</ele>
        <time>2017-12-21T12:19:35Z</time>
      </trkpt>
      <trkpt lat="47.34595" lon="5.92856">
        <ele>227</ele>
        <time>2017-12-21T12:19:36Z</time>
      </trkpt>
      <trkpt lat="47.34594" lon="5.92849">
        <ele>227</ele>
        <time>2017-12-21T12:19:37Z</time>
      </trkpt>
      <trkpt lat="47.34593" lon="5.92841">
        <ele>227</ele>
        <time>2017-12-21T12:19:38Z</time>
      </trkpt>
      <trkpt lat="47.34591" lon="5.92833">
        <ele>227</ele>
        <time>2017-12-21T12:19:39Z</time>
      </trkpt>
      <trkpt lat="47.34589" lon="5.92824">
        <ele>227</ele>
        <time>2017-12-21T12:19:40Z</time>
      </trkpt>
      <trkpt lat="47.34587" lon="5.92816">
        <ele>227</ele>
        <time>2017-12-21T12:19:41Z</time>
      </trkpt>
      <trkpt lat="47.34585" lon="5.92808">
        <ele>227</ele>
        <time>2017-12-21T12:19:42Z</time>
      </trkpt>
      <trkpt lat="47.34582" lon="5.92801">
        <ele>227</ele>
        <time>2017-12-21T12:19:43Z</time>
      </trkpt>
      <trkpt lat="47.3458" lon="5.92792">
        <ele>227</ele>
        <time>2017-12-21T12:19:44Z</time>
      </trkpt>
      <trkpt lat="47.34578" lon="5.92785">
        <ele>227</ele>
        <time>2017-12-21T12:19:45Z</time>
      </trkpt>
      <trkpt lat="47.34576" lon="5.92777">
        <ele>227</ele>
        <time>2017-12-21T12:19:46Z</time>
      </trkpt>
      <trkpt lat="47.34574" lon="5.9277">
        <ele>227</ele>
        <time>2017-12-21T12:19:47Z</time>
      </trkpt>
      <trkpt lat="47.34572" lon="5.92762">
        <ele>227</ele>
        <time>2017-12-21T12:19:48Z</time>
      </trkpt>
      <trkpt lat="47.34571" lon="5.92756">
        <ele>227</ele>
        <time>2017-12-21T12:19:49Z</time>
      </trkpt>
      <trkpt lat="47.34569" lon="5.92749">
        <ele>227</ele>
        <time>2017-12-21T12:19:50Z</time>
      </trkpt>
      <trkpt lat="47.34568" lon="5.92743">
        <ele>227</ele>
        <time>2017-12-21T12:19:51Z</time>
      </trkpt>
      <trkpt lat="47.34566" lon="5.92737">
        <ele>227</ele>
        <time>2017-12-21T12:19:52Z</time>
      </trkpt>
      <trkpt lat="47.34564" lon="5.92731">
        <ele>227</ele>
        <time>2017-12-21T12:19:53Z</time>
      </trkpt>
      <trkpt lat="47.34563" lon="5.92725">
        <ele>227</ele>
        <time>2017-12-21T12:19:54Z</time>
      </trkpt>
      <trkpt lat="47.34561" lon="5.92719">
        <ele>227</ele>
        <time>2017-12-21T12:19:55Z</time>
      </trkpt>
      <trkpt lat="47.3456" lon="5.92713">
        <ele>227</ele>
        <time>2017-12-21T12:19:56Z</time>
      </trkpt>
      <trkpt lat="47.34558" lon="5.92708">
        <ele>227</ele>
        <time>2017-12-21T12:19:57Z</time>
      </trkpt>
      <trkpt lat="47.34557" lon="5.92702">
        <ele>227</ele>
        <time>2017-12-21T12:19:58Z</time>
      </trkpt>
      <trkpt lat="47.34556" lon="5.92697">
        <ele>227</ele>
        <time>2017-12-21T12:19:59Z</time>
      </trkpt>
      <trkpt lat="47.34555" lon="5.92692">
        <ele>227</ele>
        <time>2017-12-21T12:20:00Z</time>
      </trkpt>
      <trkpt lat="47.34553" lon="5.92687">
        <ele>227.4</ele>
        <time>2017-12-21T12:20:01Z</time>
      </trkpt>
      <trkpt lat="47.34552" lon="5.92681">
        <ele>227.8</ele>
        <time>2017-12-21T12:20:02Z</time>
      </trkpt>
      <trkpt lat="47.34551" lon="5.92675">
        <ele>228.4</ele>
        <time>2017-12-21T12:20:03Z</time>
      </trkpt>
      <trkpt lat="47.34549" lon="5.92669">
        <ele>228.8</ele>
        <time>2017-12-21T12:20:04Z</time>
      </trkpt>
      <trkpt lat="47.34548" lon="5.92664">
        <ele>229.2</ele>
        <time>2017-12-21T12:20:05Z</time>
      </trkpt>
      <trkpt lat="47.34547" lon="5.92658">
        <ele>229.2</ele>
        <time>2017-12-21T12:20:06Z</time>
      </trkpt>
      <trkpt lat="47.34545" lon="5.92653">
        <ele>229.2</ele>
        <time>2017-12-21T12:20:07Z</time>
      </trkpt>
      <trkpt lat="47.34544" lon="5.92647">
        <ele>229.2</ele>
        <time>2017-12-21T12:20:08Z</time>
      </trkpt>
      <trkpt lat="47.34542" lon="5.92642">
        <ele>229.6</ele>
        <time>2017-12-21T12:20:09Z</time>
      </trkpt>
      <trkpt lat="47.34541" lon="5.92636">
        <ele>230</ele>
        <time>2017-12-21T12:20:10Z</time>
      </trkpt>
      <trkpt lat="47.34539" lon="5.9263">
        <ele>230.4</ele>
        <time>2017-12-21T12:20:11Z</time>
      </trkpt>
      <trkpt lat="47.34538" lon="5.92624">
        <ele>230.8</ele>
        <time>2017-12-21T12:20:12Z</time>
      </trkpt>
      <trkpt lat="47.34536" lon="5.92618">
        <ele>231.2</ele>
        <time>2017-12-21T12:20:13Z</time>
      </trkpt>
      <trkpt lat="47.34535" lon="5.92612">
        <ele>231.2</ele>
        <time>2017-12-21T12:20:14Z</time>
      </trkpt>
      <trkpt lat="47.34534" lon="5.92606">
        <ele>231.2</ele>
        <time>2017-12-21T12:20:15Z</time>
      </trkpt>
      <trkpt lat="47.34532" lon="5.926">
        <ele>231.2</ele>
        <time>2017-12-21T12:20:16Z</time>
      </trkpt>
      <trkpt lat="47.3453" lon="5.92595">
        <ele>231.2</ele>
        <time>2017-12-21T12:20:17Z</time>
      </trkpt>
      <trkpt lat="47.34529" lon="5.92589">
        <ele>231.2</ele>
        <time>2017-12-21T12:20:18Z</time>
      </trkpt>
      <trkpt lat="47.34527" lon="5.92583">
        <ele>231.6</ele>
        <time>2017-12-21T12:20:19Z</time>
      </trkpt>
      <trkpt lat="47.34525" lon="5.92577">
        <ele>232</ele>
        <time>2017-12-21T12:20:20Z</time>
      </trkpt>
      <trkpt lat="47.34524" lon="5.92572">
        <ele>232.6</ele>
        <time>2017-12-21T12:20:21Z</time>
      </trkpt>
      <trkpt lat="47.34523" lon="5.92566">
        <ele>233</ele>
        <time>2017-12-21T12:20:22Z</time>
      </trkpt>
      <trkpt lat="47.34522" lon="5.9256">
        <ele>233.4</ele>
        <time>2017-12-21T12:20:23Z</time>
      </trkpt>
      <trkpt lat="47.34521" lon="5.92555">
        <ele>233.4</ele>
        <time>2017-12-21T12:20:24Z</time>
      </trkpt>
      <trkpt lat="47.34519" lon="5.92549">
        <ele>233.4</ele>
        <time>2017-12-21T12:20:25Z</time>
      </trkpt>
      <trkpt lat="47.34518" lon="5.92543">
        <ele>233.4</ele>
        <time>2017-12-21T12:20:26Z</time>
      </trkpt>
      <trkpt lat="47.34516" lon="5.92538">
        <ele>233.4</ele>
        <time>2017-12-21T12:20:27Z</time>
      </trkpt>
      <trkpt lat="47.34515" lon="5.92532">
        <ele>233.8</ele>
        <time>2017-12-21T12:20:28Z</time>
      </trkpt>
      <trkpt lat="47.34513" lon="5.92527">
        <ele>234.2</ele>
        <time>2017-12-21T12:20:29Z</time>
      </trkpt>
      <trkpt lat="47.34511" lon="5.92522">
        <ele>234.6</ele>
        <time>2017-12-21T12:20:30Z</time>
      </trkpt>
      <trkpt lat="47.3451" lon="5.92517">
        <ele>235.2</ele>
        <time>2017-12-21T12:20:31Z</time>
      </trkpt>
      <trkpt lat="47.34509" lon="5.92512">
        <ele>235.6</ele>
        <time>2017-12-21T12:20:32Z</time>
      </trkpt>
      <trkpt lat="47.34508" lon="5.92507">
        <ele>235.6</ele>
        <time>2017-12-21T12:20:33Z</time>
      </trkpt>
      <trkpt lat="47.34507" lon="5.92502">
        <ele>235.6</ele>
        <time>2017-12-21T12:20:34Z</time>
      </trkpt>
      <trkpt lat="47.34505" lon="5.92499">
        <ele>235.6</ele>
        <time>2017-12-21T12:20:35Z</time>
      </trkpt>
      <trkpt lat="47.34504" lon="5.92494">
        <ele>235.6</ele>
        <time>2017-12-21T12:20:36Z</time>
      </trkpt>
      <trkpt lat="47.34503" lon="5.92488">
        <ele>235.6</ele>
        <time>2017-12-21T12:20:37Z</time>
      </trkpt>
      <trkpt lat="47.34501" lon="5.92483">
        <ele>235.6</ele>
        <time>2017-12-21T12:20:38Z</time>
      </trkpt>
      <trkpt lat="47.345" lon="5.92479">
        <ele>236</ele>
        <time>2017-12-21T12:20:39Z</time>
      </trkpt>
      <trkpt lat="47.34498" lon="5.92474">
        <ele>236.4</ele>
        <time>2017-12-21T12:20:40Z</time>
      </trkpt>
      <trkpt lat="47.34496" lon="5.92468">
        <ele>236.8</ele>
        <time>2017-12-21T12:20:41Z</time>
      </trkpt>
      <trkpt lat="47.34495" lon="5.92463">
        <ele>237.2</ele>
        <time>2017-12-21T12:20:42Z</time>
      </trkpt>
      <trkpt lat="47.34493" lon="5.92457">
        <ele>237.6</ele>
        <time>2017-12-21T12:20:43Z</time>
      </trkpt>
      <trkpt lat="47.3449" lon="5.92453">
        <ele>237.6</ele>
        <time>2017-12-21T12:20:44Z</time>
      </trkpt>
      <trkpt lat="47.34488" lon="5.92448">
        <ele>237.6</ele>
        <time>2017-12-21T12:20:45Z</time>
      </trkpt>
      <trkpt lat="47.34485" lon="5.92443">
        <ele>237.6</ele>
        <time>2017-12-21T12:20:46Z</time>
      </trkpt>
      <trkpt lat="47.34483" lon="5.92439">
        <ele>237.6</ele>
        <time>2017-12-21T12:20:47Z</time>
      </trkpt>
      <trkpt lat="47.3448" lon="5.92434">
        <ele>238</ele>
        <time>2017-12-21T12:20:48Z</time>
      </trkpt>
      <trkpt lat="47.34478" lon="5.92429">
        <ele>238.6</ele>
        <time>2017-12-21T12:20:49Z</time>
      </trkpt>
      <trkpt lat="47.34475" lon="5.92425">
        <ele>239</ele>
        <time>2017-12-21T12:20:50Z</time>
      </trkpt>
      <trkpt lat="47.34472" lon="5.92421">
        <ele>239.4</ele>
        <time>2017-12-21T12:20:51Z</time>
      </trkpt>
      <trkpt lat="47.34469" lon="5.92417">
        <ele>239.8</ele>
        <time>2017-12-21T12:20:52Z</time>
      </trkpt>
      <trkpt lat="47.34466" lon="5.92412">
        <ele>239.8</ele>
        <time>2017-12-21T12:20:53Z</time>
      </trkpt>
      <trkpt lat="47.34464" lon="5.92408">
        <ele>239.8</ele>
        <time>2017-12-21T12:20:54Z</time>
      </trkpt>
      <trkpt lat="47.34461" lon="5.92403">
        <ele>239.8</ele>
        <time>2017-12-21T12:20:55Z</time>
      </trkpt>
      <trkpt lat="47.34458" lon="5.92399">
        <ele>239.8</ele>
        <time>2017-12-21T12:20:56Z</time>
      </trkpt>
      <trkpt lat="47.34455" lon="5.92394">
        <ele>239.8</ele>
        <time>2017-12-21T12:20:57Z</time>
      </trkpt>
      <trkpt lat="47.34453" lon="5.92389">
        <ele>239.8</ele>
        <time>2017-12-21T12:20:58Z</time>
      </trkpt>
      <trkpt lat="47.3445" lon="5.92384">
        <ele>239.8</ele>
        <time>2017-12-21T12:20:59Z</time>
      </trkpt>
      <trkpt lat="47.34447" lon="5.9238">
        <ele>239.8</ele>
        <time>2017-12-21T12:21:00Z</time>
      </trkpt>
      <trkpt lat="47.34445" lon="5.92375">
        <ele>239.8</ele>
        <time>2017-12-21T12:21:01Z</time>
      </trkpt>
      <trkpt lat="47.34444" lon="5.92369">
        <ele>239.8</ele>
        <time>2017-12-21T12:21:02Z</time>
      </trkpt>
      <trkpt lat="47.34443" lon="5.92363">
        <ele>239.8</ele>
        <time>2017-12-21T12:21:03Z</time>
      </trkpt>
      <trkpt lat="47.34443" lon="5.92357">
        <ele>239.8</ele>
        <time>2017-12-21T12:21:04Z</time>
      </trkpt>
      <trkpt lat="47.34443" lon="5.92351">
        <ele>240.2</ele>
        <time>2017-12-21T12:21:05Z</time>
      </trkpt>
      <trkpt lat="47.34445" lon="5.92346">
        <ele>240.6</ele>
        <time>2017-12-21T12:21:06Z</time>
      </trkpt>
      <trkpt lat="47.34447" lon="5.9234">
        <ele>241</ele>
        <time>2017-12-21T12:21:07Z</time>
      </trkpt>
      <trkpt lat="47.34449" lon="5.92335">
        <ele>241.4</ele>
        <time>2017-12-21T12:21:08Z</time>
      </trkpt>
      <trkpt lat="47.34452" lon="5.92329">
        <ele>241.8</ele>
        <time>2017-12-21T12:21:09Z</time>
      </trkpt>
      <trkpt lat="47.34454" lon="5.92324">
        <ele>241.8</ele>
        <time>2017-12-21T12:21:10Z</time>
      </trkpt>
      <trkpt lat="47.34456" lon="5.92318">
        <ele>241.8</ele>
        <time>2017-12-21T12:21:11Z</time>
      </trkpt>
      <trkpt lat="47.34458" lon="5.92313">
        <ele>241.8</ele>
        <time>2017-12-21T12:21:12Z</time>
      </trkpt>
      <trkpt lat="47.3446" lon="5.92308">
        <ele>241.8</ele>
        <time>2017-12-21T12:21:13Z</time>
      </trkpt>
      <trkpt lat="47.34462" lon="5.92302">
        <ele>241.8</ele>
        <time>2017-12-21T12:21:14Z</time>
      </trkpt>
      <trkpt lat="47.34464" lon="5.92297">
        <ele>241.8</ele>
        <time>2017-12-21T12:21:15Z</time>
      </trkpt>
      <trkpt lat="47.34466" lon="5.92291">
        <ele>241.8</ele>
        <time>2017-12-21T12:21:16Z</time>
      </trkpt>
      <trkpt lat="47.34468" lon="5.92286">
        <ele>241.8</ele>
        <time>2017-12-21T12:21:17Z</time>
      </trkpt>
      <trkpt lat="47.3447" lon="5.9228">
        <ele>241.8</ele>
        <time>2017-12-21T12:21:18Z</time>
      </trkpt>
      <trkpt lat="47.34472" lon="5.92274">
        <ele>241.8</ele>
        <time>2017-12-21T12:21:19Z</time>
      </trkpt>
      <trkpt lat="47.34474" lon="5.92269">
        <ele>241.8</ele>
        <time>2017-12-21T12:21:20Z</time>
      </trkpt>
      <trkpt lat="47.34476" lon="5.92263">
        <ele>241.8</ele>
        <time>2017-12-21T12:21:21Z</time>
      </trkpt>
      <trkpt lat="47.34478" lon="5.92258">
        <ele>241.8</ele>
        <time>2017-12-21T12:21:22Z</time>
      </trkpt>
      <trkpt lat="47.3448" lon="5.92252">
        <ele>241.8</ele>
        <time>2017-12-21T12:21:23Z</time>
      </trkpt>
      <trkpt lat="47.34482" lon="5.92247">
        <ele>241.8</ele>
        <time>2017-12-21T12:21:24Z</time>
      </trkpt>
      <trkpt lat="47.34484" lon="5.92242">
        <ele>241.8</ele>
        <time>2017-12-21T12:21:25Z</time>
      </trkpt>
      <trkpt lat="47.34486" lon="5.92236">
        <ele>242.2</ele>
        <time>2017-12-21T12:21:26Z</time>
      </trkpt>
      <trkpt lat="47.34488" lon="5.92231">
        <ele>242.6</ele>
        <time>2017-12-21T12:21:27Z</time>
      </trkpt>
      <trkpt lat="47.3449" lon="5.92226">
        <ele>243</ele>
        <time>2017-12-21T12:21:28Z</time>
      </trkpt>
      <trkpt lat="47.34492" lon="5.9222">
        <ele>243.4</ele>
        <time>2017-12-21T12:21:29Z</time>
      </trkpt>
      <trkpt lat="47.34494" lon="5.92215">
        <ele>243.8</ele>
        <time>2017-12-21T12:21:30Z</time>
      </trkpt>
      <trkpt lat="47.34496" lon="5.9221">
        <ele>243.8</ele>
        <time>2017-12-21T12:21:31Z</time>
      </trkpt>
      <trkpt lat="47.34498" lon="5.92204">
        <ele>243.8</ele>
        <time>2017-12-21T12:21:32Z</time>
      </trkpt>
      <trkpt lat="47.345" lon="5.92198">
        <ele>243.8</ele>
        <time>2017-12-21T12:21:33Z</time>
      </trkpt>
      <trkpt lat="47.34502" lon="5.92193">
        <ele>243.8</ele>
        <time>2017-12-21T12:21:34Z</time>
      </trkpt>
      <trkpt lat="47.34504" lon="5.92187">
        <ele>243.8</ele>
        <time>2017-12-21T12:21:35Z</time>
      </trkpt>
      <trkpt lat="47.34506" lon="5.92181">
        <ele>243.8</ele>
        <time>2017-12-21T12:21:36Z</time>
      </trkpt>
      <trkpt lat="47.34508" lon="5.92175">
        <ele>243.8</ele>
        <time>2017-12-21T12:21:37Z</time>
      </trkpt>
      <trkpt lat="47.34511" lon="5.9217">
        <ele>243.8</ele>
        <time>2017-12-21T12:21:38Z</time>
      </trkpt>
      <trkpt lat="47.34513" lon="5.92164">
        <ele>243.8</ele>
        <time>2017-12-21T12:21:39Z</time>
      </trkpt>
      <trkpt lat="47.34515" lon="5.92158">
        <ele>243.8</ele>
        <time>2017-12-21T12:21:40Z</time>
      </trkpt>
      <trkpt lat="47.34517" lon="5.92153">
        <ele>243.8</ele>
        <time>2017-12-21T12:21:41Z</time>
      </trkpt>
      <trkpt lat="47.34519" lon="5.92147">
        <ele>243.8</ele>
        <time>2017-12-21T12:21:42Z</time>
      </trkpt>
      <trkpt lat="47.34521" lon="5.92142">
        <ele>243.8</ele>
        <time>2017-12-21T12:21:43Z</time>
      </trkpt>
      <trkpt lat="47.34523" lon="5.92137">
        <ele>243.8</ele>
        <time>2017-12-21T12:21:44Z</time>
      </trkpt>
      <trkpt lat="47.34525" lon="5.92131">
        <ele>244.2</ele>
        <time>2017-12-21T12:21:45Z</time>
      </trkpt>
      <trkpt lat="47.34527" lon="5.92126">
        <ele>244.8</ele>
        <time>2017-12-21T12:21:46Z</time>
      </trkpt>
      <trkpt lat="47.34529" lon="5.9212">
        <ele>245.2</ele>
        <time>2017-12-21T12:21:47Z</time>
      </trkpt>
      <trkpt lat="47.34531" lon="5.92114">
        <ele>246</ele>
        <time>2017-12-21T12:21:48Z</time>
      </trkpt>
      <trkpt lat="47.34533" lon="5.92108">
        <ele>246</ele>
        <time>2017-12-21T12:21:49Z</time>
      </trkpt>
      <trkpt lat="47.34535" lon="5.92103">
        <ele>246</ele>
        <time>2017-12-21T12:21:50Z</time>
      </trkpt>
      <trkpt lat="47.34537" lon="5.92097">
        <ele>246</ele>
        <time>2017-12-21T12:21:51Z</time>
      </trkpt>
      <trkpt lat="47.34539" lon="5.92092">
        <ele>246</ele>
        <time>2017-12-21T12:21:52Z</time>
      </trkpt>
      <trkpt lat="47.34542" lon="5.92086">
        <ele>246</ele>
        <time>2017-12-21T12:21:53Z</time>
      </trkpt>
      <trkpt lat="47.34544" lon="5.92081">
        <ele>246</ele>
        <time>2017-12-21T12:21:54Z</time>
      </trkpt>
      <trkpt lat="47.34547" lon="5.92076">
        <ele>246</ele>
        <time>2017-12-21T12:21:55Z</time>
      </trkpt>
      <trkpt lat="47.3455" lon="5.9207">
        <ele>246</ele>
        <time>2017-12-21T12:21:56Z</time>
      </trkpt>
      <trkpt lat="47.34553" lon="5.92065">
        <ele>246</ele>
        <time>2017-12-21T12:21:57Z</time>
      </trkpt>
      <trkpt lat="47.34556" lon="5.9206">
        <ele>246</ele>
        <time>2017-12-21T12:21:58Z</time>
      </trkpt>
      <trkpt lat="47.34559" lon="5.92055">
        <ele>246</ele>
        <time>2017-12-21T12:21:59Z</time>
      </trkpt>
      <trkpt lat="47.34563" lon="5.9205">
        <ele>246</ele>
        <time>2017-12-21T12:22:00Z</time>
      </trkpt>
      <trkpt lat="47.34566" lon="5.92045">
        <ele>246</ele>
        <time>2017-12-21T12:22:01Z</time>
      </trkpt>
      <trkpt lat="47.3457" lon="5.9204">
        <ele>246</ele>
        <time>2017-12-21T12:22:02Z</time>
      </trkpt>
      <trkpt lat="47.34573" lon="5.92036">
        <ele>246</ele>
        <time>2017-12-21T12:22:03Z</time>
      </trkpt>
      <trkpt lat="47.34577" lon="5.92031">
        <ele>246.4</ele>
        <time>2017-12-21T12:22:04Z</time>
      </trkpt>
      <trkpt lat="47.3458" lon="5.92027">
        <ele>246.8</ele>
        <time>2017-12-21T12:22:05Z</time>
      </trkpt>
      <trkpt lat="47.34584" lon="5.92023">
        <ele>247.2</ele>
        <time>2017-12-21T12:22:06Z</time>
      </trkpt>
      <trkpt lat="47.34587" lon="5.92019">
        <ele>247.6</ele>
        <time>2017-12-21T12:22:07Z</time>
      </trkpt>
      <trkpt lat="47.3459" lon="5.92015">
        <ele>248</ele>
        <time>2017-12-21T12:22:08Z</time>
      </trkpt>
      <trkpt lat="47.34594" lon="5.92011">
        <ele>248</ele>
        <time>2017-12-21T12:22:09Z</time>
      </trkpt>
      <trkpt lat="47.34597" lon="5.92007">
        <ele>248</ele>
        <time>2017-12-21T12:22:10Z</time>
      </trkpt>
      <trkpt lat="47.34601" lon="5.92002">
        <ele>248</ele>
        <time>2017-12-21T12:22:11Z</time>
      </trkpt>
      <trkpt lat="47.34604" lon="5.91997">
        <ele>248</ele>
        <time>2017-12-21T12:22:12Z</time>
      </trkpt>
      <trkpt lat="47.34608" lon="5.91993">
        <ele>248</ele>
        <time>2017-12-21T12:22:13Z</time>
      </trkpt>
      <trkpt lat="47.34611" lon="5.91989">
        <ele>248</ele>
        <time>2017-12-21T12:22:14Z</time>
      </trkpt>
      <trkpt lat="47.34615" lon="5.91985">
        <ele>248</ele>
        <time>2017-12-21T12:22:15Z</time>
      </trkpt>
      <trkpt lat="47.34618" lon="5.91981">
        <ele>248</ele>
        <time>2017-12-21T12:22:16Z</time>
      </trkpt>
      <trkpt lat="47.34622" lon="5.91976">
        <ele>248</ele>
        <time>2017-12-21T12:22:17Z</time>
      </trkpt>
      <trkpt lat="47.34626" lon="5.91972">
        <ele>248</ele>
        <time>2017-12-21T12:22:18Z</time>
      </trkpt>
      <trkpt lat="47.34629" lon="5.91967">
        <ele>248</ele>
        <time>2017-12-21T12:22:19Z</time>
      </trkpt>
      <trkpt lat="47.34633" lon="5.91963">
        <ele>248</ele>
        <time>2017-12-21T12:22:20Z</time>
      </trkpt>
      <trkpt lat="47.34637" lon="5.91958">
        <ele>248</ele>
        <time>2017-12-21T12:22:21Z</time>
      </trkpt>
      <trkpt lat="47.3464" lon="5.91953">
        <ele>248</ele>
        <time>2017-12-21T12:22:22Z</time>
      </trkpt>
      <trkpt lat="47.34644" lon="5.91949">
        <ele>248</ele>
        <time>2017-12-21T12:22:23Z</time>
      </trkpt>
      <trkpt lat="47.34647" lon="5.91944">
        <ele>248</ele>
        <time>2017-12-21T12:22:24Z</time>
      </trkpt>
      <trkpt lat="47.34651" lon="5.9194">
        <ele>248</ele>
        <time>2017-12-21T12:22:25Z</time>
      </trkpt>
      <trkpt lat="47.34655" lon="5.91935">
        <ele>248.4</ele>
        <time>2017-12-21T12:22:26Z</time>
      </trkpt>
      <trkpt lat="47.34658" lon="5.91931">
        <ele>248.8</ele>
        <time>2017-12-21T12:22:27Z</time>
      </trkpt>
      <trkpt lat="47.34661" lon="5.91927">
        <ele>249.2</ele>
        <time>2017-12-21T12:22:28Z</time>
      </trkpt>
      <trkpt lat="47.34665" lon="5.91922">
        <ele>249.6</ele>
        <time>2017-12-21T12:22:29Z</time>
      </trkpt>
      <trkpt lat="47.34669" lon="5.91918">
        <ele>250</ele>
        <time>2017-12-21T12:22:30Z</time>
      </trkpt>
      <trkpt lat="47.34672" lon="5.91913">
        <ele>250</ele>
        <time>2017-12-21T12:22:31Z</time>
      </trkpt>
      <trkpt lat="47.34676" lon="5.91908">
        <ele>250</ele>
        <time>2017-12-21T12:22:32Z</time>
      </trkpt>
      <trkpt lat="47.3468" lon="5.91903">
        <ele>250</ele>
        <time>2017-12-21T12:22:33Z</time>
      </trkpt>
      <trkpt lat="47.34683" lon="5.91898">
        <ele>250</ele>
        <time>2017-12-21T12:22:34Z</time>
      </trkpt>
      <trkpt lat="47.34687" lon="5.91894">
        <ele>250</ele>
        <time>2017-12-21T12:22:35Z</time>
      </trkpt>
      <trkpt lat="47.3469" lon="5.91889">
        <ele>250</ele>
        <time>2017-12-21T12:22:36Z</time>
      </trkpt>
      <trkpt lat="47.34694" lon="5.91884">
        <ele>250</ele>
        <time>2017-12-21T12:22:37Z</time>
      </trkpt>
      <trkpt lat="47.34698" lon="5.9188">
        <ele>250</ele>
        <time>2017-12-21T12:22:38Z</time>
      </trkpt>
      <trkpt lat="47.34701" lon="5.91875">
        <ele>250</ele>
        <time>2017-12-21T12:22:39Z</time>
      </trkpt>
      <trkpt lat="47.34705" lon="5.9187">
        <ele>250</ele>
        <time>2017-12-21T12:22:40Z</time>
      </trkpt>
      <trkpt lat="47.34709" lon="5.91866">
        <ele>250</ele>
        <time>2017-12-21T12:22:41Z</time>
      </trkpt>
      <trkpt lat="47.34712" lon="5.91861">
        <ele>250</ele>
        <time>2017-12-21T12:22:42Z</time>
      </trkpt>
      <trkpt lat="47.34716" lon="5.91857">
        <ele>250</ele>
        <time>2017-12-21T12:22:43Z</time>
      </trkpt>
      <trkpt lat="47.3472" lon="5.91852">
        <ele>250</ele>
        <time>2017-12-21T12:22:44Z</time>
      </trkpt>
      <trkpt lat="47.34724" lon="5.91848">
        <ele>250</ele>
        <time>2017-12-21T12:22:45Z</time>
      </trkpt>
      <trkpt lat="47.34727" lon="5.91843">
        <ele>250</ele>
        <time>2017-12-21T12:22:46Z</time>
      </trkpt>
      <trkpt lat="47.34731" lon="5.91839">
        <ele>250</ele>
        <time>2017-12-21T12:22:47Z</time>
      </trkpt>
      <trkpt lat="47.34734" lon="5.91834">
        <ele>250</ele>
        <time>2017-12-21T12:22:48Z</time>
      </trkpt>
      <trkpt lat="47.34737" lon="5.91829">
        <ele>250</ele>
        <time>2017-12-21T12:22:49Z</time>
      </trkpt>
      <trkpt lat="47.34741" lon="5.91824">
        <ele>250.4</ele>
        <time>2017-12-21T12:22:50Z</time>
      </trkpt>
      <trkpt lat="47.34744" lon="5.9182">
        <ele>250.8</ele>
        <time>2017-12-21T12:22:51Z</time>
      </trkpt>
      <trkpt lat="47.34748" lon="5.91816">
        <ele>251.2</ele>
        <time>2017-12-21T12:22:52Z</time>
      </trkpt>
      <trkpt lat="47.34751" lon="5.91812">
        <ele>251.6</ele>
        <time>2017-12-21T12:22:53Z</time>
      </trkpt>
      <trkpt lat="47.34754" lon="5.91807">
        <ele>252.2</ele>
        <time>2017-12-21T12:22:54Z</time>
      </trkpt>
      <trkpt lat="47.34758" lon="5.91803">
        <ele>252.2</ele>
        <time>2017-12-21T12:22:55Z</time>
      </trkpt>
      <trkpt lat="47.34762" lon="5.91798">
        <ele>252.2</ele>
        <time>2017-12-21T12:22:56Z</time>
      </trkpt>
      <trkpt lat="47.34765" lon="5.91794">
        <ele>252.2</ele>
        <time>2017-12-21T12:22:57Z</time>
      </trkpt>
      <trkpt lat="47.34769" lon="5.9179">
        <ele>252.2</ele>
        <time>2017-12-21T12:22:58Z</time>
      </trkpt>
      <trkpt lat="47.34774" lon="5.91786">
        <ele>252.2</ele>
        <time>2017-12-21T12:22:59Z</time>
      </trkpt>
      <trkpt lat="47.34778" lon="5.91783">
        <ele>252.2</ele>
        <time>2017-12-21T12:23:00Z</time>
      </trkpt>
      <trkpt lat="47.34782" lon="5.9178">
        <ele>252.2</ele>
        <time>2017-12-21T12:23:01Z</time>
      </trkpt>
      <trkpt lat="47.34787" lon="5.91776">
        <ele>252.2</ele>
        <time>2017-12-21T12:23:02Z</time>
      </trkpt>
      <trkpt lat="47.34791" lon="5.91773">
        <ele>252.2</ele>
        <time>2017-12-21T12:23:03Z</time>
      </trkpt>
      <trkpt lat="47.34796" lon="5.9177">
        <ele>252.2</ele>
        <time>2017-12-21T12:23:04Z</time>
      </trkpt>
      <trkpt lat="47.34801" lon="5.91767">
        <ele>252.2</ele>
        <time>2017-12-21T12:23:05Z</time>
      </trkpt>
      <trkpt lat="47.34805" lon="5.91764">
        <ele>252.2</ele>
        <time>2017-12-21T12:23:06Z</time>
      </trkpt>
      <trkpt lat="47.34809" lon="5.91761">
        <ele>252.2</ele>
        <time>2017-12-21T12:23:07Z</time>
      </trkpt>
      <trkpt lat="47.34813" lon="5.91758">
        <ele>252.2</ele>
        <time>2017-12-21T12:23:08Z</time>
      </trkpt>
      <trkpt lat="47.34818" lon="5.91755">
        <ele>252.2</ele>
        <time>2017-12-21T12:23:09Z</time>
      </trkpt>
      <trkpt lat="47.34823" lon="5.91752">
        <ele>252.2</ele>
        <time>2017-12-21T12:23:10Z</time>
      </trkpt>
      <trkpt lat="47.34827" lon="5.91749">
        <ele>252.2</ele>
        <time>2017-12-21T12:23:11Z</time>
      </trkpt>
      <trkpt lat="47.34832" lon="5.91745">
        <ele>252.2</ele>
        <time>2017-12-21T12:23:12Z</time>
      </trkpt>
      <trkpt lat="47.34837" lon="5.91742">
        <ele>252.2</ele>
        <time>2017-12-21T12:23:13Z</time>
      </trkpt>
      <trkpt lat="47.34842" lon="5.91739">
        <ele>252.2</ele>
        <time>2017-12-21T12:23:14Z</time>
      </trkpt>
      <trkpt lat="47.34847" lon="5.91736">
        <ele>252.6</ele>
        <time>2017-12-21T12:23:15Z</time>
      </trkpt>
      <trkpt lat="47.34852" lon="5.91734">
        <ele>253</ele>
        <time>2017-12-21T12:23:16Z</time>
      </trkpt>
      <trkpt lat="47.34858" lon="5.91732">
        <ele>253.4</ele>
        <time>2017-12-21T12:23:17Z</time>
      </trkpt>
      <trkpt lat="47.34863" lon="5.9173">
        <ele>253.8</ele>
        <time>2017-12-21T12:23:18Z</time>
      </trkpt>
      <trkpt lat="47.34869" lon="5.91727">
        <ele>254.2</ele>
        <time>2017-12-21T12:23:19Z</time>
      </trkpt>
      <trkpt lat="47.34875" lon="5.91723">
        <ele>254.2</ele>
        <time>2017-12-21T12:23:20Z</time>
      </trkpt>
      <trkpt lat="47.3488" lon="5.91719">
        <ele>254.2</ele>
        <time>2017-12-21T12:23:21Z</time>
      </trkpt>
      <trkpt lat="47.34886" lon="5.91715">
        <ele>254.2</ele>
        <time>2017-12-21T12:23:22Z</time>
      </trkpt>
      <trkpt lat="47.34891" lon="5.9171">
        <ele>254.2</ele>
        <time>2017-12-21T12:23:23Z</time>
      </trkpt>
      <trkpt lat="47.34896" lon="5.91707">
        <ele>253.8</ele>
        <time>2017-12-21T12:23:24Z</time>
      </trkpt>
      <trkpt lat="47.34901" lon="5.91703">
        <ele>253.4</ele>
        <time>2017-12-21T12:23:25Z</time>
      </trkpt>
      <trkpt lat="47.34907" lon="5.91698">
        <ele>253</ele>
        <time>2017-12-21T12:23:26Z</time>
      </trkpt>
      <trkpt lat="47.34913" lon="5.91694">
        <ele>252.6</ele>
        <time>2017-12-21T12:23:27Z</time>
      </trkpt>
      <trkpt lat="47.34919" lon="5.91689">
        <ele>252.2</ele>
        <time>2017-12-21T12:23:28Z</time>
      </trkpt>
      <trkpt lat="47.34925" lon="5.91686">
        <ele>252.2</ele>
        <time>2017-12-21T12:23:29Z</time>
      </trkpt>
      <trkpt lat="47.34931" lon="5.91682">
        <ele>252.2</ele>
        <time>2017-12-21T12:23:30Z</time>
      </trkpt>
      <trkpt lat="47.34937" lon="5.91677">
        <ele>252.2</ele>
        <time>2017-12-21T12:23:31Z</time>
      </trkpt>
      <trkpt lat="47.34944" lon="5.91672">
        <ele>252.2</ele>
        <time>2017-12-21T12:23:32Z</time>
      </trkpt>
      <trkpt lat="47.3495" lon="5.91668">
        <ele>252.2</ele>
        <time>2017-12-21T12:23:33Z</time>
      </trkpt>
      <trkpt lat="47.34957" lon="5.91663">
        <ele>252.2</ele>
        <time>2017-12-21T12:23:34Z</time>
      </trkpt>
      <trkpt lat="47.34963" lon="5.91659">
        <ele>251.8</ele>
        <time>2017-12-21T12:23:35Z</time>
      </trkpt>
      <trkpt lat="47.3497" lon="5.91654">
        <ele>251.4</ele>
        <time>2017-12-21T12:23:36Z</time>
      </trkpt>
      <trkpt lat="47.34977" lon="5.91649">
        <ele>251</ele>
        <time>2017-12-21T12:23:37Z</time>
      </trkpt>
      <trkpt lat="47.34983" lon="5.91644">
        <ele>250.6</ele>
        <time>2017-12-21T12:23:38Z</time>
      </trkpt>
      <trkpt lat="47.34989" lon="5.91639">
        <ele>250.2</ele>
        <time>2017-12-21T12:23:39Z</time>
      </trkpt>
      <trkpt lat="47.34996" lon="5.91633">
        <ele>250.2</ele>
        <time>2017-12-21T12:23:40Z</time>
      </trkpt>
      <trkpt lat="47.35003" lon="5.91627">
        <ele>250.2</ele>
        <time>2017-12-21T12:23:42Z</time>
      </trkpt>
      <trkpt lat="47.35009" lon="5.91621">
        <ele>250.2</ele>
        <time>2017-12-21T12:23:43Z</time>
      </trkpt>
      <trkpt lat="47.35015" lon="5.91615">
        <ele>250.2</ele>
        <time>2017-12-21T12:23:44Z</time>
      </trkpt>
      <trkpt lat="47.3502" lon="5.91608">
        <ele>250.2</ele>
        <time>2017-12-21T12:23:45Z</time>
      </trkpt>
      <trkpt lat="47.35025" lon="5.91601">
        <ele>250.2</ele>
        <time>2017-12-21T12:23:46Z</time>
      </trkpt>
      <trkpt lat="47.3503" lon="5.91594">
        <ele>250.2</ele>
        <time>2017-12-21T12:23:47Z</time>
      </trkpt>
      <trkpt lat="47.35034" lon="5.91586">
        <ele>250.2</ele>
        <time>2017-12-21T12:23:48Z</time>
      </trkpt>
      <trkpt lat="47.35038" lon="5.91578">
        <ele>250.2</ele>
        <time>2017-12-21T12:23:49Z</time>
      </trkpt>
      <trkpt lat="47.35042" lon="5.9157">
        <ele>250.2</ele>
        <time>2017-12-21T12:23:50Z</time>
      </trkpt>
      <trkpt lat="47.35045" lon="5.91562">
        <ele>250.2</ele>
        <time>2017-12-21T12:23:51Z</time>
      </trkpt>
      <trkpt lat="47.35048" lon="5.91554">
        <ele>250.2</ele>
        <time>2017-12-21T12:23:52Z</time>
      </trkpt>
      <trkpt lat="47.35051" lon="5.91546">
        <ele>250.2</ele>
        <time>2017-12-21T12:23:53Z</time>
      </trkpt>
      <trkpt lat="47.35054" lon="5.91538">
        <ele>250.2</ele>
        <time>2017-12-21T12:23:54Z</time>
      </trkpt>
      <trkpt lat="47.35057" lon="5.9153">
        <ele>250.2</ele>
        <time>2017-12-21T12:23:55Z</time>
      </trkpt>
      <trkpt lat="47.35059" lon="5.91522">
        <ele>250.2</ele>
        <time>2017-12-21T12:23:56Z</time>
      </trkpt>
      <trkpt lat="47.35062" lon="5.91513">
        <ele>250.2</ele>
        <time>2017-12-21T12:23:57Z</time>
      </trkpt>
      <trkpt lat="47.35066" lon="5.91506">
        <ele>250.2</ele>
        <time>2017-12-21T12:23:58Z</time>
      </trkpt>
      <trkpt lat="47.35069" lon="5.91498">
        <ele>250.2</ele>
        <time>2017-12-21T12:23:59Z</time>
      </trkpt>
      <trkpt lat="47.35072" lon="5.91491">
        <ele>250.2</ele>
        <time>2017-12-21T12:24:00Z</time>
      </trkpt>
      <trkpt lat="47.35075" lon="5.91483">
        <ele>250.2</ele>
        <time>2017-12-21T12:24:01Z</time>
      </trkpt>
      <trkpt lat="47.35078" lon="5.91474">
        <ele>250.2</ele>
        <time>2017-12-21T12:24:02Z</time>
      </trkpt>
      <trkpt lat="47.3508" lon="5.91466">
        <ele>250.2</ele>
        <time>2017-12-21T12:24:03Z</time>
      </trkpt>
      <trkpt lat="47.35083" lon="5.91458">
        <ele>250.2</ele>
        <time>2017-12-21T12:24:04Z</time>
      </trkpt>
      <trkpt lat="47.35086" lon="5.91449">
        <ele>250.2</ele>
        <time>2017-12-21T12:24:05Z</time>
      </trkpt>
      <trkpt lat="47.35089" lon="5.91441">
        <ele>250.2</ele>
        <time>2017-12-21T12:24:06Z</time>
      </trkpt>
      <trkpt lat="47.35092" lon="5.91433">
        <ele>250.2</ele>
        <time>2017-12-21T12:24:07Z</time>
      </trkpt>
      <trkpt lat="47.35095" lon="5.91424">
        <ele>250.2</ele>
        <time>2017-12-21T12:24:08Z</time>
      </trkpt>
      <trkpt lat="47.35097" lon="5.91416">
        <ele>250.2</ele>
        <time>2017-12-21T12:24:09Z</time>
      </trkpt>
      <trkpt lat="47.351" lon="5.91408">
        <ele>250.2</ele>
        <time>2017-12-21T12:24:10Z</time>
      </trkpt>
      <trkpt lat="47.35104" lon="5.914">
        <ele>250.2</ele>
        <time>2017-12-21T12:24:11Z</time>
      </trkpt>
      <trkpt lat="47.35106" lon="5.91391">
        <ele>250.2</ele>
        <time>2017-12-21T12:24:12Z</time>
      </trkpt>
      <trkpt lat="47.35109" lon="5.91383">
        <ele>250.2</ele>
        <time>2017-12-21T12:24:13Z</time>
      </trkpt>
      <trkpt lat="47.35112" lon="5.91376">
        <ele>250.2</ele>
        <time>2017-12-21T12:24:14Z</time>
      </trkpt>
      <trkpt lat="47.35115" lon="5.91368">
        <ele>250.2</ele>
        <time>2017-12-21T12:24:15Z</time>
      </trkpt>
      <trkpt lat="47.35118" lon="5.9136">
        <ele>250.2</ele>
        <time>2017-12-21T12:24:16Z</time>
      </trkpt>
      <trkpt lat="47.3512" lon="5.91352">
        <ele>250.2</ele>
        <time>2017-12-21T12:24:17Z</time>
      </trkpt>
      <trkpt lat="47.35123" lon="5.91345">
        <ele>250.2</ele>
        <time>2017-12-21T12:24:18Z</time>
      </trkpt>
      <trkpt lat="47.35125" lon="5.91337">
        <ele>250.2</ele>
        <time>2017-12-21T12:24:19Z</time>
      </trkpt>
      <trkpt lat="47.35128" lon="5.9133">
        <ele>250.2</ele>
        <time>2017-12-21T12:24:20Z</time>
      </trkpt>
      <trkpt lat="47.35131" lon="5.91323">
        <ele>250.2</ele>
        <time>2017-12-21T12:24:21Z</time>
      </trkpt>
      <trkpt lat="47.35133" lon="5.91316">
        <ele>250.2</ele>
        <time>2017-12-21T12:24:22Z</time>
      </trkpt>
      <trkpt lat="47.35136" lon="5.91308">
        <ele>250.2</ele>
        <time>2017-12-21T12:24:23Z</time>
      </trkpt>
      <trkpt lat="47.35138" lon="5.91301">
        <ele>250.2</ele>
        <time>2017-12-21T12:24:24Z</time>
      </trkpt>
      <trkpt lat="47.35141" lon="5.91294">
        <ele>250.2</ele>
        <time>2017-12-21T12:24:25Z</time>
      </trkpt>
      <trkpt lat="47.35143" lon="5.91287">
        <ele>250.2</ele>
        <time>2017-12-21T12:24:26Z</time>
      </trkpt>
      <trkpt lat="47.35146" lon="5.9128">
        <ele>250.2</ele>
        <time>2017-12-21T12:24:27Z</time>
      </trkpt>
      <trkpt lat="47.35148" lon="5.91273">
        <ele>250.2</ele>
        <time>2017-12-21T12:24:28Z</time>
      </trkpt>
      <trkpt lat="47.3515" lon="5.91266">
        <ele>250.2</ele>
        <time>2017-12-21T12:24:29Z</time>
      </trkpt>
      <trkpt lat="47.35152" lon="5.9126">
        <ele>250.2</ele>
        <time>2017-12-21T12:24:30Z</time>
      </trkpt>
      <trkpt lat="47.35154" lon="5.91253">
        <ele>250.2</ele>
        <time>2017-12-21T12:24:31Z</time>
      </trkpt>
      <trkpt lat="47.35156" lon="5.91246">
        <ele>250.6</ele>
        <time>2017-12-21T12:24:32Z</time>
      </trkpt>
      <trkpt lat="47.35158" lon="5.91239">
        <ele>251</ele>
        <time>2017-12-21T12:24:33Z</time>
      </trkpt>
      <trkpt lat="47.35159" lon="5.91232">
        <ele>251.4</ele>
        <time>2017-12-21T12:24:34Z</time>
      </trkpt>
      <trkpt lat="47.35161" lon="5.91225">
        <ele>251.8</ele>
        <time>2017-12-21T12:24:35Z</time>
      </trkpt>
      <trkpt lat="47.35162" lon="5.91218">
        <ele>252.2</ele>
        <time>2017-12-21T12:24:36Z</time>
      </trkpt>
      <trkpt lat="47.35163" lon="5.9121">
        <ele>252.2</ele>
        <time>2017-12-21T12:24:37Z</time>
      </trkpt>
      <trkpt lat="47.35163" lon="5.91203">
        <ele>252.2</ele>
        <time>2017-12-21T12:24:38Z</time>
      </trkpt>
      <trkpt lat="47.35163" lon="5.91196">
        <ele>252.2</ele>
        <time>2017-12-21T12:24:39Z</time>
      </trkpt>
      <trkpt lat="47.35163" lon="5.91189">
        <ele>252.2</ele>
        <time>2017-12-21T12:24:40Z</time>
      </trkpt>
      <trkpt lat="47.35163" lon="5.91181">
        <ele>252.2</ele>
        <time>2017-12-21T12:24:41Z</time>
      </trkpt>
      <trkpt lat="47.35162" lon="5.91174">
        <ele>252.2</ele>
        <time>2017-12-21T12:24:42Z</time>
      </trkpt>
      <trkpt lat="47.35162" lon="5.91167">
        <ele>252.2</ele>
        <time>2017-12-21T12:24:43Z</time>
      </trkpt>
      <trkpt lat="47.35161" lon="5.91159">
        <ele>252.2</ele>
        <time>2017-12-21T12:24:44Z</time>
      </trkpt>
      <trkpt lat="47.3516" lon="5.91152">
        <ele>252.2</ele>
        <time>2017-12-21T12:24:45Z</time>
      </trkpt>
      <trkpt lat="47.35159" lon="5.91145">
        <ele>252.2</ele>
        <time>2017-12-21T12:24:46Z</time>
      </trkpt>
      <trkpt lat="47.35159" lon="5.91137">
        <ele>252.2</ele>
        <time>2017-12-21T12:24:47Z</time>
      </trkpt>
      <trkpt lat="47.35158" lon="5.91129">
        <ele>252.2</ele>
        <time>2017-12-21T12:24:48Z</time>
      </trkpt>
      <trkpt lat="47.35157" lon="5.91121">
        <ele>252.2</ele>
        <time>2017-12-21T12:24:49Z</time>
      </trkpt>
      <trkpt lat="47.35156" lon="5.91114">
        <ele>252.2</ele>
        <time>2017-12-21T12:24:50Z</time>
      </trkpt>
      <trkpt lat="47.35155" lon="5.91106">
        <ele>252.2</ele>
        <time>2017-12-21T12:24:51Z</time>
      </trkpt>
      <trkpt lat="47.35154" lon="5.91098">
        <ele>252.2</ele>
        <time>2017-12-21T12:24:52Z</time>
      </trkpt>
      <trkpt lat="47.35154" lon="5.9109">
        <ele>252.2</ele>
        <time>2017-12-21T12:24:53Z</time>
      </trkpt>
      <trkpt lat="47.35153" lon="5.91082">
        <ele>252.2</ele>
        <time>2017-12-21T12:24:54Z</time>
      </trkpt>
      <trkpt lat="47.35152" lon="5.91074">
        <ele>252.2</ele>
        <time>2017-12-21T12:24:55Z</time>
      </trkpt>
      <trkpt lat="47.35151" lon="5.91066">
        <ele>252.2</ele>
        <time>2017-12-21T12:24:56Z</time>
      </trkpt>
      <trkpt lat="47.3515" lon="5.91058">
        <ele>252.8</ele>
        <time>2017-12-21T12:24:57Z</time>
      </trkpt>
      <trkpt lat="47.35149" lon="5.9105">
        <ele>253.2</ele>
        <time>2017-12-21T12:24:58Z</time>
      </trkpt>
      <trkpt lat="47.35148" lon="5.91042">
        <ele>253.6</ele>
        <time>2017-12-21T12:24:59Z</time>
      </trkpt>
      <trkpt lat="47.35148" lon="5.91034">
        <ele>254.2</ele>
        <time>2017-12-21T12:25:00Z</time>
      </trkpt>
      <trkpt lat="47.35147" lon="5.91026">
        <ele>254.6</ele>
        <time>2017-12-21T12:25:01Z</time>
      </trkpt>
      <trkpt lat="47.35146" lon="5.91017">
        <ele>254.6</ele>
        <time>2017-12-21T12:25:02Z</time>
      </trkpt>
      <trkpt lat="47.35144" lon="5.91009">
        <ele>254.6</ele>
        <time>2017-12-21T12:25:03Z</time>
      </trkpt>
      <trkpt lat="47.35143" lon="5.91">
        <ele>254.6</ele>
        <time>2017-12-21T12:25:04Z</time>
      </trkpt>
      <trkpt lat="47.35142" lon="5.90991">
        <ele>254.6</ele>
        <time>2017-12-21T12:25:05Z</time>
      </trkpt>
      <trkpt lat="47.35141" lon="5.90983">
        <ele>254.6</ele>
        <time>2017-12-21T12:25:06Z</time>
      </trkpt>
      <trkpt lat="47.3514" lon="5.90974">
        <ele>254.6</ele>
        <time>2017-12-21T12:25:07Z</time>
      </trkpt>
      <trkpt lat="47.3514" lon="5.90966">
        <ele>254.6</ele>
        <time>2017-12-21T12:25:08Z</time>
      </trkpt>
      <trkpt lat="47.35139" lon="5.90957">
        <ele>254.6</ele>
        <time>2017-12-21T12:25:09Z</time>
      </trkpt>
      <trkpt lat="47.35138" lon="5.90948">
        <ele>254.6</ele>
        <time>2017-12-21T12:25:10Z</time>
      </trkpt>
      <trkpt lat="47.35137" lon="5.9094">
        <ele>254.6</ele>
        <time>2017-12-21T12:25:11Z</time>
      </trkpt>
      <trkpt lat="47.35136" lon="5.90931">
        <ele>254.6</ele>
        <time>2017-12-21T12:25:12Z</time>
      </trkpt>
      <trkpt lat="47.35135" lon="5.90923">
        <ele>254.6</ele>
        <time>2017-12-21T12:25:13Z</time>
      </trkpt>
      <trkpt lat="47.35134" lon="5.90914">
        <ele>254.6</ele>
        <time>2017-12-21T12:25:14Z</time>
      </trkpt>
      <trkpt lat="47.35133" lon="5.90906">
        <ele>254.6</ele>
        <time>2017-12-21T12:25:15Z</time>
      </trkpt>
      <trkpt lat="47.35131" lon="5.90898">
        <ele>254.6</ele>
        <time>2017-12-21T12:25:16Z</time>
      </trkpt>
      <trkpt lat="47.35131" lon="5.90889">
        <ele>254.6</ele>
        <time>2017-12-21T12:25:17Z</time>
      </trkpt>
      <trkpt lat="47.35129" lon="5.90881">
        <ele>254.6</ele>
        <time>2017-12-21T12:25:18Z</time>
      </trkpt>
      <trkpt lat="47.35128" lon="5.90872">
        <ele>254.6</ele>
        <time>2017-12-21T12:25:19Z</time>
      </trkpt>
      <trkpt lat="47.35128" lon="5.90863">
        <ele>254.6</ele>
        <time>2017-12-21T12:25:20Z</time>
      </trkpt>
      <trkpt lat="47.35127" lon="5.90854">
        <ele>254.6</ele>
        <time>2017-12-21T12:25:21Z</time>
      </trkpt>
      <trkpt lat="47.35127" lon="5.90845">
        <ele>254.6</ele>
        <time>2017-12-21T12:25:22Z</time>
      </trkpt>
      <trkpt lat="47.35127" lon="5.90837">
        <ele>254.6</ele>
        <time>2017-12-21T12:25:23Z</time>
      </trkpt>
      <trkpt lat="47.35127" lon="5.90828">
        <ele>254.6</ele>
        <time>2017-12-21T12:25:24Z</time>
      </trkpt>
      <trkpt lat="47.35126" lon="5.9082">
        <ele>254.6</ele>
        <time>2017-12-21T12:25:25Z</time>
      </trkpt>
      <trkpt lat="47.35125" lon="5.90811">
        <ele>254.6</ele>
        <time>2017-12-21T12:25:26Z</time>
      </trkpt>
      <trkpt lat="47.35125" lon="5.90804">
        <ele>254.6</ele>
        <time>2017-12-21T12:25:27Z</time>
      </trkpt>
      <trkpt lat="47.35124" lon="5.90796">
        <ele>254.6</ele>
        <time>2017-12-21T12:25:28Z</time>
      </trkpt>
      <trkpt lat="47.35124" lon="5.90788">
        <ele>254.6</ele>
        <time>2017-12-21T12:25:29Z</time>
      </trkpt>
      <trkpt lat="47.35124" lon="5.9078">
        <ele>254.6</ele>
        <time>2017-12-21T12:25:30Z</time>
      </trkpt>
      <trkpt lat="47.35124" lon="5.90772">
        <ele>254.6</ele>
        <time>2017-12-21T12:25:31Z</time>
      </trkpt>
      <trkpt lat="47.35124" lon="5.90764">
        <ele>254.6</ele>
        <time>2017-12-21T12:25:32Z</time>
      </trkpt>
      <trkpt lat="47.35124" lon="5.90756">
        <ele>254.6</ele>
        <time>2017-12-21T12:25:33Z</time>
      </trkpt>
      <trkpt lat="47.35124" lon="5.90747">
        <ele>254.6</ele>
        <time>2017-12-21T12:25:34Z</time>
      </trkpt>
      <trkpt lat="47.35124" lon="5.90738">
        <ele>254.6</ele>
        <time>2017-12-21T12:25:35Z</time>
      </trkpt>
      <trkpt lat="47.35124" lon="5.90729">
        <ele>254.6</ele>
        <time>2017-12-21T12:25:36Z</time>
      </trkpt>
      <trkpt lat="47.35124" lon="5.90721">
        <ele>254.6</ele>
        <time>2017-12-21T12:25:37Z</time>
      </trkpt>
      <trkpt lat="47.35124" lon="5.90712">
        <ele>254.6</ele>
        <time>2017-12-21T12:25:38Z</time>
      </trkpt>
      <trkpt lat="47.35124" lon="5.90704">
        <ele>254.6</ele>
        <time>2017-12-21T12:25:39Z</time>
      </trkpt>
      <trkpt lat="47.35124" lon="5.90695">
        <ele>254.6</ele>
        <time>2017-12-21T12:25:40Z</time>
      </trkpt>
      <trkpt lat="47.35124" lon="5.90686">
        <ele>254.6</ele>
        <time>2017-12-21T12:25:41Z</time>
      </trkpt>
      <trkpt lat="47.35124" lon="5.90677">
        <ele>254.6</ele>
        <time>2017-12-21T12:25:42Z</time>
      </trkpt>
      <trkpt lat="47.35124" lon="5.90669">
        <ele>254.6</ele>
        <time>2017-12-21T12:25:43Z</time>
      </trkpt>
      <trkpt lat="47.35124" lon="5.90661">
        <ele>254.6</ele>
        <time>2017-12-21T12:25:44Z</time>
      </trkpt>
      <trkpt lat="47.35124" lon="5.90652">
        <ele>254.6</ele>
        <time>2017-12-21T12:25:45Z</time>
      </trkpt>
      <trkpt lat="47.35124" lon="5.90643">
        <ele>254.6</ele>
        <time>2017-12-21T12:25:46Z</time>
      </trkpt>
      <trkpt lat="47.35125" lon="5.90634">
        <ele>254.6</ele>
        <time>2017-12-21T12:25:47Z</time>
      </trkpt>
      <trkpt lat="47.35127" lon="5.90625">
        <ele>254.6</ele>
        <time>2017-12-21T12:25:48Z</time>
      </trkpt>
      <trkpt lat="47.35128" lon="5.90616">
        <ele>254.6</ele>
        <time>2017-12-21T12:25:49Z</time>
      </trkpt>
      <trkpt lat="47.35131" lon="5.90608">
        <ele>254.6</ele>
        <time>2017-12-21T12:25:50Z</time>
      </trkpt>
      <trkpt lat="47.35133" lon="5.90599">
        <ele>254.6</ele>
        <time>2017-12-21T12:25:51Z</time>
      </trkpt>
      <trkpt lat="47.35136" lon="5.90591">
        <ele>254.6</ele>
        <time>2017-12-21T12:25:52Z</time>
      </trkpt>
      <trkpt lat="47.35139" lon="5.90583">
        <ele>254.6</ele>
        <time>2017-12-21T12:25:53Z</time>
      </trkpt>
      <trkpt lat="47.35142" lon="5.90576">
        <ele>254.6</ele>
        <time>2017-12-21T12:25:54Z</time>
      </trkpt>
      <trkpt lat="47.35146" lon="5.9057">
        <ele>254.6</ele>
        <time>2017-12-21T12:25:55Z</time>
      </trkpt>
      <trkpt lat="47.3515" lon="5.90563">
        <ele>254.6</ele>
        <time>2017-12-21T12:25:56Z</time>
      </trkpt>
      <trkpt lat="47.35155" lon="5.90556">
        <ele>254.6</ele>
        <time>2017-12-21T12:25:57Z</time>
      </trkpt>
      <trkpt lat="47.35159" lon="5.90549">
        <ele>254.6</ele>
        <time>2017-12-21T12:25:58Z</time>
      </trkpt>
      <trkpt lat="47.35163" lon="5.90542">
        <ele>254.6</ele>
        <time>2017-12-21T12:25:59Z</time>
      </trkpt>
      <trkpt lat="47.35167" lon="5.90535">
        <ele>254.6</ele>
        <time>2017-12-21T12:26:00Z</time>
      </trkpt>
      <trkpt lat="47.35171" lon="5.90528">
        <ele>254.6</ele>
        <time>2017-12-21T12:26:01Z</time>
      </trkpt>
      <trkpt lat="47.35176" lon="5.90522">
        <ele>254.6</ele>
        <time>2017-12-21T12:26:02Z</time>
      </trkpt>
      <trkpt lat="47.3518" lon="5.90515">
        <ele>254.6</ele>
        <time>2017-12-21T12:26:03Z</time>
      </trkpt>
      <trkpt lat="47.35185" lon="5.90508">
        <ele>254.6</ele>
        <time>2017-12-21T12:26:04Z</time>
      </trkpt>
      <trkpt lat="47.35189" lon="5.90502">
        <ele>254.6</ele>
        <time>2017-12-21T12:26:05Z</time>
      </trkpt>
      <trkpt lat="47.35193" lon="5.90495">
        <ele>254.6</ele>
        <time>2017-12-21T12:26:06Z</time>
      </trkpt>
      <trkpt lat="47.35197" lon="5.90488">
        <ele>254.6</ele>
        <time>2017-12-21T12:26:07Z</time>
      </trkpt>
      <trkpt lat="47.35202" lon="5.90482">
        <ele>254.6</ele>
        <time>2017-12-21T12:26:08Z</time>
      </trkpt>
      <trkpt lat="47.35206" lon="5.90475">
        <ele>254.2</ele>
        <time>2017-12-21T12:26:09Z</time>
      </trkpt>
      <trkpt lat="47.3521" lon="5.90468">
        <ele>253.8</ele>
        <time>2017-12-21T12:26:10Z</time>
      </trkpt>
      <trkpt lat="47.35215" lon="5.90461">
        <ele>253.4</ele>
        <time>2017-12-21T12:26:11Z</time>
      </trkpt>
      <trkpt lat="47.35219" lon="5.90453">
        <ele>253</ele>
        <time>2017-12-21T12:26:12Z</time>
      </trkpt>
      <trkpt lat="47.35224" lon="5.90446">
        <ele>252.6</ele>
        <time>2017-12-21T12:26:13Z</time>
      </trkpt>
      <trkpt lat="47.35229" lon="5.90439">
        <ele>252.6</ele>
        <time>2017-12-21T12:26:14Z</time>
      </trkpt>
      <trkpt lat="47.35233" lon="5.90432">
        <ele>252.6</ele>
        <time>2017-12-21T12:26:15Z</time>
      </trkpt>
      <trkpt lat="47.35237" lon="5.90424">
        <ele>252.6</ele>
        <time>2017-12-21T12:26:16Z</time>
      </trkpt>
      <trkpt lat="47.35242" lon="5.90417">
        <ele>252.6</ele>
        <time>2017-12-21T12:26:17Z</time>
      </trkpt>
      <trkpt lat="47.35246" lon="5.9041">
        <ele>252.6</ele>
        <time>2017-12-21T12:26:18Z</time>
      </trkpt>
      <trkpt lat="47.35251" lon="5.90403">
        <ele>252.6</ele>
        <time>2017-12-21T12:26:19Z</time>
      </trkpt>
      <trkpt lat="47.35255" lon="5.90396">
        <ele>252.6</ele>
        <time>2017-12-21T12:26:20Z</time>
      </trkpt>
      <trkpt lat="47.3526" lon="5.90388">
        <ele>252.6</ele>
        <time>2017-12-21T12:26:21Z</time>
      </trkpt>
      <trkpt lat="47.35265" lon="5.9038">
        <ele>252</ele>
        <time>2017-12-21T12:26:22Z</time>
      </trkpt>
      <trkpt lat="47.35269" lon="5.90373">
        <ele>251.6</ele>
        <time>2017-12-21T12:26:23Z</time>
      </trkpt>
      <trkpt lat="47.35274" lon="5.90365">
        <ele>251.2</ele>
        <time>2017-12-21T12:26:24Z</time>
      </trkpt>
      <trkpt lat="47.35279" lon="5.90358">
        <ele>250.8</ele>
        <time>2017-12-21T12:26:25Z</time>
      </trkpt>
      <trkpt lat="47.35284" lon="5.9035">
        <ele>250.4</ele>
        <time>2017-12-21T12:26:26Z</time>
      </trkpt>
      <trkpt lat="47.35289" lon="5.90342">
        <ele>250.4</ele>
        <time>2017-12-21T12:26:27Z</time>
      </trkpt>
      <trkpt lat="47.35293" lon="5.90335">
        <ele>250.4</ele>
        <time>2017-12-21T12:26:28Z</time>
      </trkpt>
      <trkpt lat="47.35298" lon="5.90327">
        <ele>250.4</ele>
        <time>2017-12-21T12:26:29Z</time>
      </trkpt>
      <trkpt lat="47.35303" lon="5.90318">
        <ele>250.4</ele>
        <time>2017-12-21T12:26:30Z</time>
      </trkpt>
      <trkpt lat="47.35308" lon="5.9031">
        <ele>250.4</ele>
        <time>2017-12-21T12:26:31Z</time>
      </trkpt>
      <trkpt lat="47.35313" lon="5.90302">
        <ele>250.4</ele>
        <time>2017-12-21T12:26:32Z</time>
      </trkpt>
      <trkpt lat="47.35317" lon="5.90294">
        <ele>250.4</ele>
        <time>2017-12-21T12:26:33Z</time>
      </trkpt>
      <trkpt lat="47.35322" lon="5.90285">
        <ele>250.4</ele>
        <time>2017-12-21T12:26:34Z</time>
      </trkpt>
      <trkpt lat="47.35328" lon="5.90277">
        <ele>249.8</ele>
        <time>2017-12-21T12:26:35Z</time>
      </trkpt>
      <trkpt lat="47.35333" lon="5.90269">
        <ele>249.4</ele>
        <time>2017-12-21T12:26:36Z</time>
      </trkpt>
      <trkpt lat="47.35338" lon="5.90261">
        <ele>249</ele>
        <time>2017-12-21T12:26:37Z</time>
      </trkpt>
      <trkpt lat="47.35342" lon="5.90252">
        <ele>248.6</ele>
        <time>2017-12-21T12:26:38Z</time>
      </trkpt>
      <trkpt lat="47.35347" lon="5.90245">
        <ele>248.2</ele>
        <time>2017-12-21T12:26:39Z</time>
      </trkpt>
      <trkpt lat="47.35352" lon="5.90237">
        <ele>248.2</ele>
        <time>2017-12-21T12:26:40Z</time>
      </trkpt>
      <trkpt lat="47.35357" lon="5.90229">
        <ele>248.2</ele>
        <time>2017-12-21T12:26:41Z</time>
      </trkpt>
      <trkpt lat="47.35362" lon="5.90221">
        <ele>248.2</ele>
        <time>2017-12-21T12:26:42Z</time>
      </trkpt>
      <trkpt lat="47.35367" lon="5.90214">
        <ele>248.2</ele>
        <time>2017-12-21T12:26:43Z</time>
      </trkpt>
      <trkpt lat="47.35372" lon="5.90206">
        <ele>248.2</ele>
        <time>2017-12-21T12:26:44Z</time>
      </trkpt>
      <trkpt lat="47.35376" lon="5.90199">
        <ele>248.2</ele>
        <time>2017-12-21T12:26:45Z</time>
      </trkpt>
      <trkpt lat="47.35381" lon="5.90191">
        <ele>248.2</ele>
        <time>2017-12-21T12:26:46Z</time>
      </trkpt>
      <trkpt lat="47.35386" lon="5.90183">
        <ele>248.2</ele>
        <time>2017-12-21T12:26:47Z</time>
      </trkpt>
      <trkpt lat="47.35391" lon="5.90175">
        <ele>247.8</ele>
        <time>2017-12-21T12:26:48Z</time>
      </trkpt>
      <trkpt lat="47.35395" lon="5.90168">
        <ele>247.4</ele>
        <time>2017-12-21T12:26:49Z</time>
      </trkpt>
      <trkpt lat="47.35399" lon="5.9016">
        <ele>247</ele>
        <time>2017-12-21T12:26:50Z</time>
      </trkpt>
      <trkpt lat="47.35404" lon="5.90152">
        <ele>246.6</ele>
        <time>2017-12-21T12:26:51Z</time>
      </trkpt>
      <trkpt lat="47.35408" lon="5.90145">
        <ele>246.2</ele>
        <time>2017-12-21T12:26:52Z</time>
      </trkpt>
      <trkpt lat="47.35413" lon="5.90138">
        <ele>246.2</ele>
        <time>2017-12-21T12:26:53Z</time>
      </trkpt>
      <trkpt lat="47.35417" lon="5.90131">
        <ele>246.2</ele>
        <time>2017-12-21T12:26:54Z</time>
      </trkpt>
      <trkpt lat="47.35422" lon="5.90124">
        <ele>246.2</ele>
        <time>2017-12-21T12:26:55Z</time>
      </trkpt>
      <trkpt lat="47.35427" lon="5.90117">
        <ele>246.2</ele>
        <time>2017-12-21T12:26:56Z</time>
      </trkpt>
      <trkpt lat="47.35431" lon="5.9011">
        <ele>246.2</ele>
        <time>2017-12-21T12:26:57Z</time>
      </trkpt>
      <trkpt lat="47.35436" lon="5.90104">
        <ele>246.2</ele>
        <time>2017-12-21T12:26:58Z</time>
      </trkpt>
      <trkpt lat="47.3544" lon="5.90098">
        <ele>246.2</ele>
        <time>2017-12-21T12:26:59Z</time>
      </trkpt>
      <trkpt lat="47.35443" lon="5.90092">
        <ele>246.2</ele>
        <time>2017-12-21T12:27:00Z</time>
      </trkpt>
      <trkpt lat="47.35444" lon="5.90086">
        <ele>246.2</ele>
        <time>2017-12-21T12:27:01Z</time>
      </trkpt>
      <trkpt lat="47.35443" lon="5.90081">
        <ele>246.2</ele>
        <time>2017-12-21T12:27:02Z</time>
      </trkpt>
      <trkpt lat="47.35441" lon="5.90077">
        <ele>246.2</ele>
        <time>2017-12-21T12:27:03Z</time>
      </trkpt>
      <trkpt lat="47.35436" lon="5.90075">
        <ele>246.2</ele>
        <time>2017-12-21T12:27:04Z</time>
      </trkpt>
      <trkpt lat="47.35432" lon="5.90077">
        <ele>245.8</ele>
        <time>2017-12-21T12:27:05Z</time>
      </trkpt>
      <trkpt lat="47.35428" lon="5.9008">
        <ele>245.2</ele>
        <time>2017-12-21T12:27:06Z</time>
      </trkpt>
      <trkpt lat="47.35423" lon="5.90083">
        <ele>244.8</ele>
        <time>2017-12-21T12:27:07Z</time>
      </trkpt>
      <trkpt lat="47.35418" lon="5.90085">
        <ele>244.4</ele>
        <time>2017-12-21T12:27:08Z</time>
      </trkpt>
      <trkpt lat="47.35413" lon="5.90088">
        <ele>244</ele>
        <time>2017-12-21T12:27:09Z</time>
      </trkpt>
      <trkpt lat="47.35408" lon="5.9009">
        <ele>244</ele>
        <time>2017-12-21T12:27:10Z</time>
      </trkpt>
      <trkpt lat="47.35403" lon="5.90093">
        <ele>244</ele>
        <time>2017-12-21T12:27:11Z</time>
      </trkpt>
      <trkpt lat="47.35398" lon="5.90095">
        <ele>244</ele>
        <time>2017-12-21T12:27:12Z</time>
      </trkpt>
      <trkpt lat="47.35393" lon="5.90098">
        <ele>244</ele>
        <time>2017-12-21T12:27:13Z</time>
      </trkpt>
      <trkpt lat="47.35388" lon="5.901">
        <ele>244</ele>
        <time>2017-12-21T12:27:14Z</time>
      </trkpt>
      <trkpt lat="47.35383" lon="5.90103">
        <ele>244</ele>
        <time>2017-12-21T12:27:15Z</time>
      </trkpt>
      <trkpt lat="47.35378" lon="5.90105">
        <ele>244</ele>
        <time>2017-12-21T12:27:16Z</time>
      </trkpt>
      <trkpt lat="47.35373" lon="5.90108">
        <ele>244</ele>
        <time>2017-12-21T12:27:17Z</time>
      </trkpt>
      <trkpt lat="47.35368" lon="5.9011">
        <ele>244</ele>
        <time>2017-12-21T12:27:18Z</time>
      </trkpt>
      <trkpt lat="47.35362" lon="5.90113">
        <ele>243.6</ele>
        <time>2017-12-21T12:27:19Z</time>
      </trkpt>
      <trkpt lat="47.35357" lon="5.90116">
        <ele>243.2</ele>
        <time>2017-12-21T12:27:20Z</time>
      </trkpt>
      <trkpt lat="47.35351" lon="5.90119">
        <ele>242.8</ele>
        <time>2017-12-21T12:27:21Z</time>
      </trkpt>
      <trkpt lat="47.35345" lon="5.90122">
        <ele>242.4</ele>
        <time>2017-12-21T12:27:22Z</time>
      </trkpt>
      <trkpt lat="47.35339" lon="5.90125">
        <ele>242</ele>
        <time>2017-12-21T12:27:23Z</time>
      </trkpt>
      <trkpt lat="47.35333" lon="5.90129">
        <ele>242</ele>
        <time>2017-12-21T12:27:24Z</time>
      </trkpt>
      <trkpt lat="47.35327" lon="5.90132">
        <ele>242</ele>
        <time>2017-12-21T12:27:25Z</time>
      </trkpt>
      <trkpt lat="47.35321" lon="5.90136">
        <ele>242</ele>
        <time>2017-12-21T12:27:26Z</time>
      </trkpt>
      <trkpt lat="47.35315" lon="5.90141">
        <ele>242</ele>
        <time>2017-12-21T12:27:27Z</time>
      </trkpt>
      <trkpt lat="47.3531" lon="5.90145">
        <ele>242</ele>
        <time>2017-12-21T12:27:28Z</time>
      </trkpt>
      <trkpt lat="47.35304" lon="5.9015">
        <ele>242</ele>
        <time>2017-12-21T12:27:29Z</time>
      </trkpt>
      <trkpt lat="47.35299" lon="5.90155">
        <ele>242</ele>
        <time>2017-12-21T12:27:30Z</time>
      </trkpt>
      <trkpt lat="47.35294" lon="5.9016">
        <ele>242</ele>
        <time>2017-12-21T12:27:31Z</time>
      </trkpt>
      <trkpt lat="47.35288" lon="5.90165">
        <ele>242</ele>
        <time>2017-12-21T12:27:32Z</time>
      </trkpt>
      <trkpt lat="47.35283" lon="5.9017">
        <ele>242</ele>
        <time>2017-12-21T12:27:33Z</time>
      </trkpt>
      <trkpt lat="47.35278" lon="5.90176">
        <ele>242</ele>
        <time>2017-12-21T12:27:34Z</time>
      </trkpt>
      <trkpt lat="47.35273" lon="5.90181">
        <ele>242</ele>
        <time>2017-12-21T12:27:35Z</time>
      </trkpt>
      <trkpt lat="47.35267" lon="5.90185">
        <ele>242</ele>
        <time>2017-12-21T12:27:36Z</time>
      </trkpt>
      <trkpt lat="47.35261" lon="5.90189">
        <ele>242</ele>
        <time>2017-12-21T12:27:37Z</time>
      </trkpt>
      <trkpt lat="47.35256" lon="5.90193">
        <ele>242</ele>
        <time>2017-12-21T12:27:38Z</time>
      </trkpt>
      <trkpt lat="47.3525" lon="5.90196">
        <ele>242</ele>
        <time>2017-12-21T12:27:39Z</time>
      </trkpt>
      <trkpt lat="47.35244" lon="5.90199">
        <ele>242</ele>
        <time>2017-12-21T12:27:40Z</time>
      </trkpt>
      <trkpt lat="47.35238" lon="5.90201">
        <ele>242</ele>
        <time>2017-12-21T12:27:41Z</time>
      </trkpt>
      <trkpt lat="47.35232" lon="5.90203">
        <ele>242</ele>
        <time>2017-12-21T12:27:42Z</time>
      </trkpt>
      <trkpt lat="47.35226" lon="5.90203">
        <ele>242</ele>
        <time>2017-12-21T12:27:43Z</time>
      </trkpt>
      <trkpt lat="47.3522" lon="5.90204">
        <ele>242</ele>
        <time>2017-12-21T12:27:44Z</time>
      </trkpt>
      <trkpt lat="47.35214" lon="5.90205">
        <ele>242</ele>
        <time>2017-12-21T12:27:45Z</time>
      </trkpt>
      <trkpt lat="47.35208" lon="5.90205">
        <ele>242</ele>
        <time>2017-12-21T12:27:46Z</time>
      </trkpt>
      <trkpt lat="47.35202" lon="5.90206">
        <ele>242</ele>
        <time>2017-12-21T12:27:47Z</time>
      </trkpt>
      <trkpt lat="47.35196" lon="5.90206">
        <ele>242</ele>
        <time>2017-12-21T12:27:48Z</time>
      </trkpt>
      <trkpt lat="47.3519" lon="5.90208">
        <ele>242</ele>
        <time>2017-12-21T12:27:49Z</time>
      </trkpt>
      <trkpt lat="47.35185" lon="5.9021">
        <ele>242</ele>
        <time>2017-12-21T12:27:50Z</time>
      </trkpt>
      <trkpt lat="47.35179" lon="5.90212">
        <ele>242</ele>
        <time>2017-12-21T12:27:51Z</time>
      </trkpt>
      <trkpt lat="47.35173" lon="5.90213">
        <ele>242</ele>
        <time>2017-12-21T12:27:52Z</time>
      </trkpt>
      <trkpt lat="47.35167" lon="5.90215">
        <ele>242</ele>
        <time>2017-12-21T12:27:53Z</time>
      </trkpt>
      <trkpt lat="47.35161" lon="5.90217">
        <ele>242</ele>
        <time>2017-12-21T12:27:54Z</time>
      </trkpt>
      <trkpt lat="47.35155" lon="5.9022">
        <ele>242</ele>
        <time>2017-12-21T12:27:55Z</time>
      </trkpt>
      <trkpt lat="47.35148" lon="5.90224">
        <ele>242</ele>
        <time>2017-12-21T12:27:56Z</time>
      </trkpt>
      <trkpt lat="47.35142" lon="5.90227">
        <ele>242</ele>
        <time>2017-12-21T12:27:57Z</time>
      </trkpt>
      <trkpt lat="47.35135" lon="5.90231">
        <ele>242</ele>
        <time>2017-12-21T12:27:58Z</time>
      </trkpt>
      <trkpt lat="47.35129" lon="5.90234">
        <ele>242</ele>
        <time>2017-12-21T12:27:59Z</time>
      </trkpt>
      <trkpt lat="47.35122" lon="5.90237">
        <ele>242</ele>
        <time>2017-12-21T12:28:00Z</time>
      </trkpt>
      <trkpt lat="47.35115" lon="5.9024">
        <ele>242</ele>
        <time>2017-12-21T12:28:01Z</time>
      </trkpt>
      <trkpt lat="47.35109" lon="5.90243">
        <ele>242</ele>
        <time>2017-12-21T12:28:02Z</time>
      </trkpt>
      <trkpt lat="47.35103" lon="5.90246">
        <ele>242</ele>
        <time>2017-12-21T12:28:03Z</time>
      </trkpt>
      <trkpt lat="47.35096" lon="5.90249">
        <ele>242</ele>
        <time>2017-12-21T12:28:04Z</time>
      </trkpt>
      <trkpt lat="47.3509" lon="5.90252">
        <ele>242</ele>
        <time>2017-12-21T12:28:05Z</time>
      </trkpt>
      <trkpt lat="47.35085" lon="5.90255">
        <ele>242</ele>
        <time>2017-12-21T12:28:06Z</time>
      </trkpt>
      <trkpt lat="47.35079" lon="5.90258">
        <ele>242</ele>
        <time>2017-12-21T12:28:07Z</time>
      </trkpt>
      <trkpt lat="47.35073" lon="5.9026">
        <ele>242</ele>
        <time>2017-12-21T12:28:08Z</time>
      </trkpt>
      <trkpt lat="47.35067" lon="5.90262">
        <ele>242</ele>
        <time>2017-12-21T12:28:09Z</time>
      </trkpt>
      <trkpt lat="47.35061" lon="5.90265">
        <ele>242</ele>
        <time>2017-12-21T12:28:10Z</time>
      </trkpt>
      <trkpt lat="47.35054" lon="5.90269">
        <ele>242</ele>
        <time>2017-12-21T12:28:11Z</time>
      </trkpt>
      <trkpt lat="47.35047" lon="5.90272">
        <ele>241.6</ele>
        <time>2017-12-21T12:28:12Z</time>
      </trkpt>
      <trkpt lat="47.35041" lon="5.90275">
        <ele>241.2</ele>
        <time>2017-12-21T12:28:13Z</time>
      </trkpt>
      <trkpt lat="47.35034" lon="5.90279">
        <ele>240.8</ele>
        <time>2017-12-21T12:28:14Z</time>
      </trkpt>
      <trkpt lat="47.35027" lon="5.90282">
        <ele>240.4</ele>
        <time>2017-12-21T12:28:15Z</time>
      </trkpt>
      <trkpt lat="47.35021" lon="5.90285">
        <ele>240</ele>
        <time>2017-12-21T12:28:16Z</time>
      </trkpt>
      <trkpt lat="47.35014" lon="5.90289">
        <ele>240</ele>
        <time>2017-12-21T12:28:17Z</time>
      </trkpt>
      <trkpt lat="47.35008" lon="5.90292">
        <ele>240</ele>
        <time>2017-12-21T12:28:18Z</time>
      </trkpt>
      <trkpt lat="47.35001" lon="5.90295">
        <ele>240</ele>
        <time>2017-12-21T12:28:19Z</time>
      </trkpt>
      <trkpt lat="47.34994" lon="5.90299">
        <ele>240</ele>
        <time>2017-12-21T12:28:20Z</time>
      </trkpt>
      <trkpt lat="47.34987" lon="5.90303">
        <ele>240</ele>
        <time>2017-12-21T12:28:21Z</time>
      </trkpt>
      <trkpt lat="47.34981" lon="5.90307">
        <ele>240</ele>
        <time>2017-12-21T12:28:22Z</time>
      </trkpt>
      <trkpt lat="47.34974" lon="5.90311">
        <ele>240</ele>
        <time>2017-12-21T12:28:23Z</time>
      </trkpt>
      <trkpt lat="47.34968" lon="5.90315">
        <ele>240</ele>
        <time>2017-12-21T12:28:24Z</time>
      </trkpt>
      <trkpt lat="47.34961" lon="5.9032">
        <ele>239.6</ele>
        <time>2017-12-21T12:28:25Z</time>
      </trkpt>
      <trkpt lat="47.34955" lon="5.90325">
        <ele>239.2</ele>
        <time>2017-12-21T12:28:26Z</time>
      </trkpt>
      <trkpt lat="47.34949" lon="5.90332">
        <ele>238.8</ele>
        <time>2017-12-21T12:28:27Z</time>
      </trkpt>
      <trkpt lat="47.34943" lon="5.90338">
        <ele>238.4</ele>
        <time>2017-12-21T12:28:28Z</time>
      </trkpt>
      <trkpt lat="47.34937" lon="5.90345">
        <ele>238</ele>
        <time>2017-12-21T12:28:29Z</time>
      </trkpt>
      <trkpt lat="47.34932" lon="5.90352">
        <ele>238</ele>
        <time>2017-12-21T12:28:30Z</time>
      </trkpt>
      <trkpt lat="47.34926" lon="5.9036">
        <ele>238</ele>
        <time>2017-12-21T12:28:31Z</time>
      </trkpt>
      <trkpt lat="47.3492" lon="5.90366">
        <ele>238</ele>
        <time>2017-12-21T12:28:32Z</time>
      </trkpt>
      <trkpt lat="47.34914" lon="5.90372">
        <ele>238</ele>
        <time>2017-12-21T12:28:33Z</time>
      </trkpt>
      <trkpt lat="47.34908" lon="5.90378">
        <ele>238</ele>
        <time>2017-12-21T12:28:34Z</time>
      </trkpt>
      <trkpt lat="47.34901" lon="5.90383">
        <ele>237.6</ele>
        <time>2017-12-21T12:28:35Z</time>
      </trkpt>
      <trkpt lat="47.34894" lon="5.90387">
        <ele>237.2</ele>
        <time>2017-12-21T12:28:36Z</time>
      </trkpt>
      <trkpt lat="47.34887" lon="5.9039">
        <ele>236.8</ele>
        <time>2017-12-21T12:28:37Z</time>
      </trkpt>
      <trkpt lat="47.3488" lon="5.90394">
        <ele>236.4</ele>
        <time>2017-12-21T12:28:38Z</time>
      </trkpt>
      <trkpt lat="47.34874" lon="5.90397">
        <ele>235.8</ele>
        <time>2017-12-21T12:28:39Z</time>
      </trkpt>
      <trkpt lat="47.34867" lon="5.90399">
        <ele>235.8</ele>
        <time>2017-12-21T12:28:40Z</time>
      </trkpt>
      <trkpt lat="47.3486" lon="5.90402">
        <ele>235.8</ele>
        <time>2017-12-21T12:28:41Z</time>
      </trkpt>
      <trkpt lat="47.34853" lon="5.90404">
        <ele>235.8</ele>
        <time>2017-12-21T12:28:42Z</time>
      </trkpt>
      <trkpt lat="47.34847" lon="5.90407">
        <ele>235.8</ele>
        <time>2017-12-21T12:28:43Z</time>
      </trkpt>
      <trkpt lat="47.3484" lon="5.90409">
        <ele>235.8</ele>
        <time>2017-12-21T12:28:44Z</time>
      </trkpt>
      <trkpt lat="47.34834" lon="5.90412">
        <ele>235.8</ele>
        <time>2017-12-21T12:28:45Z</time>
      </trkpt>
      <trkpt lat="47.34827" lon="5.90415">
        <ele>235.8</ele>
        <time>2017-12-21T12:28:46Z</time>
      </trkpt>
      <trkpt lat="47.34822" lon="5.90418">
        <ele>235.8</ele>
        <time>2017-12-21T12:28:47Z</time>
      </trkpt>
      <trkpt lat="47.34815" lon="5.90421">
        <ele>235.8</ele>
        <time>2017-12-21T12:28:48Z</time>
      </trkpt>
      <trkpt lat="47.34809" lon="5.90424">
        <ele>235.8</ele>
        <time>2017-12-21T12:28:49Z</time>
      </trkpt>
      <trkpt lat="47.34804" lon="5.90427">
        <ele>235.8</ele>
        <time>2017-12-21T12:28:50Z</time>
      </trkpt>
      <trkpt lat="47.34798" lon="5.9043">
        <ele>235.8</ele>
        <time>2017-12-21T12:28:51Z</time>
      </trkpt>
      <trkpt lat="47.34793" lon="5.90433">
        <ele>235.8</ele>
        <time>2017-12-21T12:28:52Z</time>
      </trkpt>
      <trkpt lat="47.34788" lon="5.90436">
        <ele>235.8</ele>
        <time>2017-12-21T12:28:53Z</time>
      </trkpt>
      <trkpt lat="47.34782" lon="5.90438">
        <ele>235.8</ele>
        <time>2017-12-21T12:28:54Z</time>
      </trkpt>
      <trkpt lat="47.34777" lon="5.9044">
        <ele>235.8</ele>
        <time>2017-12-21T12:28:55Z</time>
      </trkpt>
      <trkpt lat="47.34772" lon="5.90443">
        <ele>235.8</ele>
        <time>2017-12-21T12:28:56Z</time>
      </trkpt>
      <trkpt lat="47.34767" lon="5.90446">
        <ele>235.8</ele>
        <time>2017-12-21T12:28:57Z</time>
      </trkpt>
      <trkpt lat="47.34762" lon="5.90448">
        <ele>235.8</ele>
        <time>2017-12-21T12:28:58Z</time>
      </trkpt>
      <trkpt lat="47.34756" lon="5.90451">
        <ele>235.8</ele>
        <time>2017-12-21T12:28:59Z</time>
      </trkpt>
      <trkpt lat="47.34751" lon="5.90453">
        <ele>235.8</ele>
        <time>2017-12-21T12:29:00Z</time>
      </trkpt>
      <trkpt lat="47.34745" lon="5.90456">
        <ele>235.8</ele>
        <time>2017-12-21T12:29:01Z</time>
      </trkpt>
      <trkpt lat="47.3474" lon="5.90459">
        <ele>235.8</ele>
        <time>2017-12-21T12:29:02Z</time>
      </trkpt>
      <trkpt lat="47.34734" lon="5.90461">
        <ele>235.8</ele>
        <time>2017-12-21T12:29:03Z</time>
      </trkpt>
      <trkpt lat="47.34729" lon="5.90463">
        <ele>235.8</ele>
        <time>2017-12-21T12:29:04Z</time>
      </trkpt>
      <trkpt lat="47.34724" lon="5.90464">
        <ele>235.8</ele>
        <time>2017-12-21T12:29:05Z</time>
      </trkpt>
      <trkpt lat="47.34719" lon="5.90466">
        <ele>235.8</ele>
        <time>2017-12-21T12:29:06Z</time>
      </trkpt>
      <trkpt lat="47.34714" lon="5.90467">
        <ele>235.8</ele>
        <time>2017-12-21T12:29:07Z</time>
      </trkpt>
      <trkpt lat="47.34708" lon="5.90467">
        <ele>235.8</ele>
        <time>2017-12-21T12:29:08Z</time>
      </trkpt>
      <trkpt lat="47.34703" lon="5.90467">
        <ele>235.8</ele>
        <time>2017-12-21T12:29:09Z</time>
      </trkpt>
      <trkpt lat="47.34698" lon="5.90467">
        <ele>235.8</ele>
        <time>2017-12-21T12:29:10Z</time>
      </trkpt>
      <trkpt lat="47.34692" lon="5.90467">
        <ele>235.8</ele>
        <time>2017-12-21T12:29:11Z</time>
      </trkpt>
      <trkpt lat="47.34686" lon="5.90467">
        <ele>235.8</ele>
        <time>2017-12-21T12:29:12Z</time>
      </trkpt>
      <trkpt lat="47.34679" lon="5.90467">
        <ele>235.8</ele>
        <time>2017-12-21T12:29:13Z</time>
      </trkpt>
      <trkpt lat="47.34673" lon="5.90468">
        <ele>235.8</ele>
        <time>2017-12-21T12:29:14Z</time>
      </trkpt>
      <trkpt lat="47.34667" lon="5.90468">
        <ele>235.8</ele>
        <time>2017-12-21T12:29:15Z</time>
      </trkpt>
      <trkpt lat="47.34661" lon="5.90468">
        <ele>235.8</ele>
        <time>2017-12-21T12:29:16Z</time>
      </trkpt>
      <trkpt lat="47.34655" lon="5.90468">
        <ele>235.8</ele>
        <time>2017-12-21T12:29:17Z</time>
      </trkpt>
      <trkpt lat="47.34649" lon="5.90468">
        <ele>235.8</ele>
        <time>2017-12-21T12:29:18Z</time>
      </trkpt>
      <trkpt lat="47.34643" lon="5.90469">
        <ele>235.8</ele>
        <time>2017-12-21T12:29:19Z</time>
      </trkpt>
      <trkpt lat="47.34636" lon="5.90469">
        <ele>235.8</ele>
        <time>2017-12-21T12:29:20Z</time>
      </trkpt>
      <trkpt lat="47.3463" lon="5.9047">
        <ele>235.8</ele>
        <time>2017-12-21T12:29:21Z</time>
      </trkpt>
      <trkpt lat="47.34624" lon="5.90471">
        <ele>235.8</ele>
        <time>2017-12-21T12:29:22Z</time>
      </trkpt>
      <trkpt lat="47.34619" lon="5.90472">
        <ele>235.4</ele>
        <time>2017-12-21T12:29:23Z</time>
      </trkpt>
      <trkpt lat="47.34613" lon="5.90472">
        <ele>235</ele>
        <time>2017-12-21T12:29:24Z</time>
      </trkpt>
      <trkpt lat="47.34607" lon="5.90472">
        <ele>234.6</ele>
        <time>2017-12-21T12:29:25Z</time>
      </trkpt>
      <trkpt lat="47.34602" lon="5.90472">
        <ele>234.2</ele>
        <time>2017-12-21T12:29:26Z</time>
      </trkpt>
      <trkpt lat="47.34596" lon="5.90472">
        <ele>233.8</ele>
        <time>2017-12-21T12:29:27Z</time>
      </trkpt>
      <trkpt lat="47.3459" lon="5.90472">
        <ele>233.8</ele>
        <time>2017-12-21T12:29:28Z</time>
      </trkpt>
      <trkpt lat="47.34584" lon="5.90472">
        <ele>233.8</ele>
        <time>2017-12-21T12:29:29Z</time>
      </trkpt>
      <trkpt lat="47.34579" lon="5.90472">
        <ele>233.8</ele>
        <time>2017-12-21T12:29:30Z</time>
      </trkpt>
      <trkpt lat="47.34573" lon="5.90472">
        <ele>233.8</ele>
        <time>2017-12-21T12:29:31Z</time>
      </trkpt>
      <trkpt lat="47.34566" lon="5.90472">
        <ele>233.8</ele>
        <time>2017-12-21T12:29:32Z</time>
      </trkpt>
      <trkpt lat="47.3456" lon="5.90472">
        <ele>233.8</ele>
        <time>2017-12-21T12:29:33Z</time>
      </trkpt>
      <trkpt lat="47.34554" lon="5.90472">
        <ele>233.8</ele>
        <time>2017-12-21T12:29:34Z</time>
      </trkpt>
      <trkpt lat="47.34547" lon="5.90472">
        <ele>233.8</ele>
        <time>2017-12-21T12:29:35Z</time>
      </trkpt>
      <trkpt lat="47.34541" lon="5.90472">
        <ele>233.8</ele>
        <time>2017-12-21T12:29:36Z</time>
      </trkpt>
      <trkpt lat="47.34534" lon="5.90473">
        <ele>233.8</ele>
        <time>2017-12-21T12:29:37Z</time>
      </trkpt>
      <trkpt lat="47.34528" lon="5.90473">
        <ele>233.8</ele>
        <time>2017-12-21T12:29:38Z</time>
      </trkpt>
      <trkpt lat="47.34521" lon="5.90473">
        <ele>233.8</ele>
        <time>2017-12-21T12:29:39Z</time>
      </trkpt>
      <trkpt lat="47.34515" lon="5.90474">
        <ele>233.8</ele>
        <time>2017-12-21T12:29:40Z</time>
      </trkpt>
      <trkpt lat="47.34509" lon="5.90474">
        <ele>233.8</ele>
        <time>2017-12-21T12:29:41Z</time>
      </trkpt>
      <trkpt lat="47.34502" lon="5.90474">
        <ele>233.8</ele>
        <time>2017-12-21T12:29:42Z</time>
      </trkpt>
      <trkpt lat="47.34495" lon="5.90474">
        <ele>233.4</ele>
        <time>2017-12-21T12:29:43Z</time>
      </trkpt>
      <trkpt lat="47.34488" lon="5.90474">
        <ele>233</ele>
        <time>2017-12-21T12:29:44Z</time>
      </trkpt>
      <trkpt lat="47.34481" lon="5.90474">
        <ele>232.6</ele>
        <time>2017-12-21T12:29:45Z</time>
      </trkpt>
      <trkpt lat="47.34475" lon="5.90473">
        <ele>232.2</ele>
        <time>2017-12-21T12:29:46Z</time>
      </trkpt>
      <trkpt lat="47.34468" lon="5.90472">
        <ele>231.6</ele>
        <time>2017-12-21T12:29:47Z</time>
      </trkpt>
      <trkpt lat="47.34461" lon="5.90472">
        <ele>231.6</ele>
        <time>2017-12-21T12:29:48Z</time>
      </trkpt>
      <trkpt lat="47.34455" lon="5.90471">
        <ele>231.6</ele>
        <time>2017-12-21T12:29:49Z</time>
      </trkpt>
      <trkpt lat="47.34448" lon="5.9047">
        <ele>231.6</ele>
        <time>2017-12-21T12:29:50Z</time>
      </trkpt>
      <trkpt lat="47.34441" lon="5.90469">
        <ele>231.6</ele>
        <time>2017-12-21T12:29:51Z</time>
      </trkpt>
      <trkpt lat="47.34435" lon="5.90468">
        <ele>231.6</ele>
        <time>2017-12-21T12:29:52Z</time>
      </trkpt>
      <trkpt lat="47.34428" lon="5.90467">
        <ele>231.6</ele>
        <time>2017-12-21T12:29:53Z</time>
      </trkpt>
      <trkpt lat="47.34422" lon="5.90466">
        <ele>231.6</ele>
        <time>2017-12-21T12:29:54Z</time>
      </trkpt>
      <trkpt lat="47.34415" lon="5.90465">
        <ele>231.2</ele>
        <time>2017-12-21T12:29:55Z</time>
      </trkpt>
      <trkpt lat="47.34408" lon="5.90464">
        <ele>230.8</ele>
        <time>2017-12-21T12:29:56Z</time>
      </trkpt>
      <trkpt lat="47.34401" lon="5.90463">
        <ele>230.4</ele>
        <time>2017-12-21T12:29:57Z</time>
      </trkpt>
      <trkpt lat="47.34394" lon="5.90463">
        <ele>230</ele>
        <time>2017-12-21T12:29:58Z</time>
      </trkpt>
      <trkpt lat="47.34387" lon="5.90463">
        <ele>229.6</ele>
        <time>2017-12-21T12:29:59Z</time>
      </trkpt>
      <trkpt lat="47.3438" lon="5.90462">
        <ele>229.6</ele>
        <time>2017-12-21T12:30:00Z</time>
      </trkpt>
      <trkpt lat="47.34373" lon="5.90462">
        <ele>229.6</ele>
        <time>2017-12-21T12:30:01Z</time>
      </trkpt>
      <trkpt lat="47.34366" lon="5.90464">
        <ele>229.6</ele>
        <time>2017-12-21T12:30:02Z</time>
      </trkpt>
      <trkpt lat="47.34359" lon="5.90466">
        <ele>229.6</ele>
        <time>2017-12-21T12:30:03Z</time>
      </trkpt>
      <trkpt lat="47.34352" lon="5.90469">
        <ele>229.2</ele>
        <time>2017-12-21T12:30:04Z</time>
      </trkpt>
      <trkpt lat="47.34343" lon="5.90471">
        <ele>228.6</ele>
        <time>2017-12-21T12:30:05Z</time>
      </trkpt>
      <trkpt lat="47.34335" lon="5.90474">
        <ele>228.2</ele>
        <time>2017-12-21T12:30:06Z</time>
      </trkpt>
      <trkpt lat="47.34327" lon="5.90476">
        <ele>227.8</ele>
        <time>2017-12-21T12:30:07Z</time>
      </trkpt>
      <trkpt lat="47.3432" lon="5.90478">
        <ele>227.4</ele>
        <time>2017-12-21T12:30:08Z</time>
      </trkpt>
      <trkpt lat="47.34312" lon="5.90481">
        <ele>226.8</ele>
        <time>2017-12-21T12:30:09Z</time>
      </trkpt>
      <trkpt lat="47.34304" lon="5.90485">
        <ele>226.4</ele>
        <time>2017-12-21T12:30:10Z</time>
      </trkpt>
      <trkpt lat="47.34296" lon="5.90491">
        <ele>225.8</ele>
        <time>2017-12-21T12:30:11Z</time>
      </trkpt>
      <trkpt lat="47.34288" lon="5.90497">
        <ele>225.4</ele>
        <time>2017-12-21T12:30:12Z</time>
      </trkpt>
      <trkpt lat="47.34279" lon="5.90503">
        <ele>225.4</ele>
        <time>2017-12-21T12:30:13Z</time>
      </trkpt>
      <trkpt lat="47.34272" lon="5.90511">
        <ele>224.8</ele>
        <time>2017-12-21T12:30:14Z</time>
      </trkpt>
      <trkpt lat="47.34263" lon="5.90516">
        <ele>224.4</ele>
        <time>2017-12-21T12:30:15Z</time>
      </trkpt>
      <trkpt lat="47.34253" lon="5.90519">
        <ele>223.8</ele>
        <time>2017-12-21T12:30:16Z</time>
      </trkpt>
      <trkpt lat="47.34244" lon="5.90522">
        <ele>223.2</ele>
        <time>2017-12-21T12:30:17Z</time>
      </trkpt>
      <trkpt lat="47.34235" lon="5.90523">
        <ele>222.6</ele>
        <time>2017-12-21T12:30:18Z</time>
      </trkpt>
      <trkpt lat="47.34225" lon="5.90523">
        <ele>221.8</ele>
        <time>2017-12-21T12:30:19Z</time>
      </trkpt>
      <trkpt lat="47.34216" lon="5.90525">
        <ele>221.2</ele>
        <time>2017-12-21T12:30:20Z</time>
      </trkpt>
      <trkpt lat="47.34207" lon="5.90527">
        <ele>220.6</ele>
        <time>2017-12-21T12:30:21Z</time>
      </trkpt>
      <trkpt lat="47.34199" lon="5.90532">
        <ele>220.6</ele>
        <time>2017-12-21T12:30:22Z</time>
      </trkpt>
      <trkpt lat="47.34192" lon="5.90539">
        <ele>220.6</ele>
        <time>2017-12-21T12:30:23Z</time>
      </trkpt>
      <trkpt lat="47.34185" lon="5.90547">
        <ele>220.6</ele>
        <time>2017-12-21T12:30:24Z</time>
      </trkpt>
      <trkpt lat="47.3418" lon="5.90555">
        <ele>220.6</ele>
        <time>2017-12-21T12:30:25Z</time>
      </trkpt>
      <trkpt lat="47.34174" lon="5.90563">
        <ele>220.6</ele>
        <time>2017-12-21T12:30:26Z</time>
      </trkpt>
      <trkpt lat="47.34168" lon="5.90571">
        <ele>220.6</ele>
        <time>2017-12-21T12:30:27Z</time>
      </trkpt>
      <trkpt lat="47.34163" lon="5.90578">
        <ele>220.6</ele>
        <time>2017-12-21T12:30:28Z</time>
      </trkpt>
      <trkpt lat="47.34157" lon="5.90584">
        <ele>220.6</ele>
        <time>2017-12-21T12:30:29Z</time>
      </trkpt>
      <trkpt lat="47.34151" lon="5.9059">
        <ele>220.6</ele>
        <time>2017-12-21T12:30:30Z</time>
      </trkpt>
      <trkpt lat="47.34145" lon="5.90596">
        <ele>220.6</ele>
        <time>2017-12-21T12:30:31Z</time>
      </trkpt>
      <trkpt lat="47.3414" lon="5.90601">
        <ele>220.2</ele>
        <time>2017-12-21T12:30:32Z</time>
      </trkpt>
      <trkpt lat="47.34134" lon="5.90607">
        <ele>219.8</ele>
        <time>2017-12-21T12:30:33Z</time>
      </trkpt>
      <trkpt lat="47.34128" lon="5.90611">
        <ele>219.4</ele>
        <time>2017-12-21T12:30:34Z</time>
      </trkpt>
      <trkpt lat="47.34122" lon="5.90616">
        <ele>219</ele>
        <time>2017-12-21T12:30:35Z</time>
      </trkpt>
      <trkpt lat="47.34116" lon="5.90621">
        <ele>218.6</ele>
        <time>2017-12-21T12:30:36Z</time>
      </trkpt>
      <trkpt lat="47.3411" lon="5.90626">
        <ele>218.6</ele>
        <time>2017-12-21T12:30:37Z</time>
      </trkpt>
      <trkpt lat="47.34104" lon="5.9063">
        <ele>218.6</ele>
        <time>2017-12-21T12:30:38Z</time>
      </trkpt>
      <trkpt lat="47.34098" lon="5.90634">
        <ele>218.6</ele>
        <time>2017-12-21T12:30:39Z</time>
      </trkpt>
      <trkpt lat="47.34092" lon="5.90638">
        <ele>218.6</ele>
        <time>2017-12-21T12:30:40Z</time>
      </trkpt>
      <trkpt lat="47.34086" lon="5.90641">
        <ele>218.6</ele>
        <time>2017-12-21T12:30:41Z</time>
      </trkpt>
      <trkpt lat="47.3408" lon="5.90644">
        <ele>218.6</ele>
        <time>2017-12-21T12:30:42Z</time>
      </trkpt>
      <trkpt lat="47.34074" lon="5.90647">
        <ele>218.6</ele>
        <time>2017-12-21T12:30:43Z</time>
      </trkpt>
      <trkpt lat="47.34068" lon="5.9065">
        <ele>218.6</ele>
        <time>2017-12-21T12:30:44Z</time>
      </trkpt>
      <trkpt lat="47.34062" lon="5.90652">
        <ele>218.6</ele>
        <time>2017-12-21T12:30:45Z</time>
      </trkpt>
      <trkpt lat="47.34056" lon="5.90654">
        <ele>218.6</ele>
        <time>2017-12-21T12:30:46Z</time>
      </trkpt>
      <trkpt lat="47.3405" lon="5.90657">
        <ele>218.6</ele>
        <time>2017-12-21T12:30:47Z</time>
      </trkpt>
      <trkpt lat="47.34045" lon="5.90659">
        <ele>218.6</ele>
        <time>2017-12-21T12:30:48Z</time>
      </trkpt>
      <trkpt lat="47.34039" lon="5.90662">
        <ele>218.6</ele>
        <time>2017-12-21T12:30:49Z</time>
      </trkpt>
      <trkpt lat="47.34034" lon="5.90665">
        <ele>218.6</ele>
        <time>2017-12-21T12:30:50Z</time>
      </trkpt>
      <trkpt lat="47.34029" lon="5.90669">
        <ele>218.6</ele>
        <time>2017-12-21T12:30:51Z</time>
      </trkpt>
      <trkpt lat="47.34024" lon="5.90674">
        <ele>218.6</ele>
        <time>2017-12-21T12:30:52Z</time>
      </trkpt>
      <trkpt lat="47.3402" lon="5.90681">
        <ele>218.6</ele>
        <time>2017-12-21T12:30:53Z</time>
      </trkpt>
      <trkpt lat="47.34016" lon="5.90689">
        <ele>218.6</ele>
        <time>2017-12-21T12:30:54Z</time>
      </trkpt>
      <trkpt lat="47.34015" lon="5.90698">
        <ele>218.6</ele>
        <time>2017-12-21T12:30:55Z</time>
      </trkpt>
      <trkpt lat="47.34013" lon="5.90707">
        <ele>218.6</ele>
        <time>2017-12-21T12:30:56Z</time>
      </trkpt>
      <trkpt lat="47.34012" lon="5.90715">
        <ele>218.6</ele>
        <time>2017-12-21T12:30:57Z</time>
      </trkpt>
      <trkpt lat="47.34011" lon="5.90725">
        <ele>218.6</ele>
        <time>2017-12-21T12:30:58Z</time>
      </trkpt>
      <trkpt lat="47.34009" lon="5.90733">
        <ele>218.6</ele>
        <time>2017-12-21T12:30:59Z</time>
      </trkpt>
      <trkpt lat="47.34007" lon="5.90741">
        <ele>218.6</ele>
        <time>2017-12-21T12:31:00Z</time>
      </trkpt>
      <trkpt lat="47.34005" lon="5.90749">
        <ele>218.6</ele>
        <time>2017-12-21T12:31:01Z</time>
      </trkpt>
      <trkpt lat="47.34002" lon="5.90757">
        <ele>218.6</ele>
        <time>2017-12-21T12:31:02Z</time>
      </trkpt>
      <trkpt lat="47.33999" lon="5.90764">
        <ele>218.6</ele>
        <time>2017-12-21T12:31:03Z</time>
      </trkpt>
      <trkpt lat="47.33994" lon="5.9077">
        <ele>218.6</ele>
        <time>2017-12-21T12:31:04Z</time>
      </trkpt>
      <trkpt lat="47.33988" lon="5.90775">
        <ele>218.6</ele>
        <time>2017-12-21T12:31:05Z</time>
      </trkpt>
      <trkpt lat="47.33982" lon="5.90779">
        <ele>218.6</ele>
        <time>2017-12-21T12:31:06Z</time>
      </trkpt>
      <trkpt lat="47.33975" lon="5.90781">
        <ele>218.6</ele>
        <time>2017-12-21T12:31:07Z</time>
      </trkpt>
      <trkpt lat="47.33968" lon="5.90781">
        <ele>218.6</ele>
        <time>2017-12-21T12:31:08Z</time>
      </trkpt>
      <trkpt lat="47.33961" lon="5.90781">
        <ele>218.6</ele>
        <time>2017-12-21T12:31:09Z</time>
      </trkpt>
      <trkpt lat="47.33954" lon="5.9078">
        <ele>218.6</ele>
        <time>2017-12-21T12:31:10Z</time>
      </trkpt>
      <trkpt lat="47.33947" lon="5.9078">
        <ele>218.6</ele>
        <time>2017-12-21T12:31:11Z</time>
      </trkpt>
      <trkpt lat="47.33939" lon="5.9078">
        <ele>218.6</ele>
        <time>2017-12-21T12:31:12Z</time>
      </trkpt>
      <trkpt lat="47.33932" lon="5.90779">
        <ele>218.6</ele>
        <time>2017-12-21T12:31:13Z</time>
      </trkpt>
      <trkpt lat="47.33924" lon="5.90779">
        <ele>218.6</ele>
        <time>2017-12-21T12:31:14Z</time>
      </trkpt>
      <trkpt lat="47.33917" lon="5.90779">
        <ele>218.6</ele>
        <time>2017-12-21T12:31:15Z</time>
      </trkpt>
      <trkpt lat="47.3391" lon="5.90779">
        <ele>218.6</ele>
        <time>2017-12-21T12:31:16Z</time>
      </trkpt>
      <trkpt lat="47.33904" lon="5.90778">
        <ele>218.6</ele>
        <time>2017-12-21T12:31:17Z</time>
      </trkpt>
      <trkpt lat="47.33897" lon="5.90778">
        <ele>218</ele>
        <time>2017-12-21T12:31:18Z</time>
      </trkpt>
      <trkpt lat="47.3389" lon="5.90778">
        <ele>217.2</ele>
        <time>2017-12-21T12:31:19Z</time>
      </trkpt>
      <trkpt lat="47.33882" lon="5.90778">
        <ele>216.8</ele>
        <time>2017-12-21T12:31:20Z</time>
      </trkpt>
      <trkpt lat="47.33875" lon="5.90777">
        <ele>216.4</ele>
        <time>2017-12-21T12:31:21Z</time>
      </trkpt>
      <trkpt lat="47.33868" lon="5.90776">
        <ele>216.4</ele>
        <time>2017-12-21T12:31:22Z</time>
      </trkpt>
      <trkpt lat="47.33861" lon="5.90775">
        <ele>216.4</ele>
        <time>2017-12-21T12:31:23Z</time>
      </trkpt>
      <trkpt lat="47.33853" lon="5.90775">
        <ele>216.4</ele>
        <time>2017-12-21T12:31:24Z</time>
      </trkpt>
      <trkpt lat="47.33846" lon="5.90774">
        <ele>216.4</ele>
        <time>2017-12-21T12:31:25Z</time>
      </trkpt>
      <trkpt lat="47.33839" lon="5.90773">
        <ele>216</ele>
        <time>2017-12-21T12:31:26Z</time>
      </trkpt>
      <trkpt lat="47.33832" lon="5.90772">
        <ele>215.4</ele>
        <time>2017-12-21T12:31:27Z</time>
      </trkpt>
      <trkpt lat="47.33824" lon="5.90771">
        <ele>215</ele>
        <time>2017-12-21T12:31:28Z</time>
      </trkpt>
      <trkpt lat="47.33817" lon="5.90768">
        <ele>214.6</ele>
        <time>2017-12-21T12:31:29Z</time>
      </trkpt>
      <trkpt lat="47.33811" lon="5.90765">
        <ele>214</ele>
        <time>2017-12-21T12:31:30Z</time>
      </trkpt>
      <trkpt lat="47.33804" lon="5.90761">
        <ele>214</ele>
        <time>2017-12-21T12:31:31Z</time>
      </trkpt>
      <trkpt lat="47.33798" lon="5.90756">
        <ele>214</ele>
        <time>2017-12-21T12:31:32Z</time>
      </trkpt>
      <trkpt lat="47.33792" lon="5.9075">
        <ele>214</ele>
        <time>2017-12-21T12:31:33Z</time>
      </trkpt>
      <trkpt lat="47.33787" lon="5.90744">
        <ele>214</ele>
        <time>2017-12-21T12:31:34Z</time>
      </trkpt>
      <trkpt lat="47.33781" lon="5.90738">
        <ele>214</ele>
        <time>2017-12-21T12:31:35Z</time>
      </trkpt>
      <trkpt lat="47.33776" lon="5.90733">
        <ele>214</ele>
        <time>2017-12-21T12:31:36Z</time>
      </trkpt>
      <trkpt lat="47.3377" lon="5.9073">
        <ele>214</ele>
        <time>2017-12-21T12:31:37Z</time>
      </trkpt>
      <trkpt lat="47.33764" lon="5.90729">
        <ele>214</ele>
        <time>2017-12-21T12:31:38Z</time>
      </trkpt>
      <trkpt lat="47.33758" lon="5.90728">
        <ele>214</ele>
        <time>2017-12-21T12:31:39Z</time>
      </trkpt>
      <trkpt lat="47.33753" lon="5.90727">
        <ele>214</ele>
        <time>2017-12-21T12:31:40Z</time>
      </trkpt>
      <trkpt lat="47.33747" lon="5.90726">
        <ele>214</ele>
        <time>2017-12-21T12:31:41Z</time>
      </trkpt>
      <trkpt lat="47.33741" lon="5.90726">
        <ele>214</ele>
        <time>2017-12-21T12:31:42Z</time>
      </trkpt>
      <trkpt lat="47.33735" lon="5.90725">
        <ele>214</ele>
        <time>2017-12-21T12:31:43Z</time>
      </trkpt>
      <trkpt lat="47.3373" lon="5.90724">
        <ele>214</ele>
        <time>2017-12-21T12:31:44Z</time>
      </trkpt>
      <trkpt lat="47.33724" lon="5.90724">
        <ele>214</ele>
        <time>2017-12-21T12:31:45Z</time>
      </trkpt>
      <trkpt lat="47.33719" lon="5.90724">
        <ele>214</ele>
        <time>2017-12-21T12:31:46Z</time>
      </trkpt>
      <trkpt lat="47.33713" lon="5.90724">
        <ele>214</ele>
        <time>2017-12-21T12:31:47Z</time>
      </trkpt>
      <trkpt lat="47.33708" lon="5.90723">
        <ele>214</ele>
        <time>2017-12-21T12:31:48Z</time>
      </trkpt>
      <trkpt lat="47.33702" lon="5.90723">
        <ele>214</ele>
        <time>2017-12-21T12:31:49Z</time>
      </trkpt>
      <trkpt lat="47.33697" lon="5.90723">
        <ele>214</ele>
        <time>2017-12-21T12:31:50Z</time>
      </trkpt>
      <trkpt lat="47.33692" lon="5.90724">
        <ele>214</ele>
        <time>2017-12-21T12:31:51Z</time>
      </trkpt>
      <trkpt lat="47.33687" lon="5.90726">
        <ele>214</ele>
        <time>2017-12-21T12:31:52Z</time>
      </trkpt>
      <trkpt lat="47.33682" lon="5.90727">
        <ele>214</ele>
        <time>2017-12-21T12:31:53Z</time>
      </trkpt>
      <trkpt lat="47.33678" lon="5.90729">
        <ele>214</ele>
        <time>2017-12-21T12:31:54Z</time>
      </trkpt>
      <trkpt lat="47.33673" lon="5.9073">
        <ele>214</ele>
        <time>2017-12-21T12:31:55Z</time>
      </trkpt>
      <trkpt lat="47.33668" lon="5.90731">
        <ele>214</ele>
        <time>2017-12-21T12:31:56Z</time>
      </trkpt>
      <trkpt lat="47.33663" lon="5.9073">
        <ele>214</ele>
        <time>2017-12-21T12:31:57Z</time>
      </trkpt>
      <trkpt lat="47.33657" lon="5.90728">
        <ele>214</ele>
        <time>2017-12-21T12:31:58Z</time>
      </trkpt>
      <trkpt lat="47.33653" lon="5.90723">
        <ele>214</ele>
        <time>2017-12-21T12:31:59Z</time>
      </trkpt>
      <trkpt lat="47.33649" lon="5.90718">
        <ele>214</ele>
        <time>2017-12-21T12:32:00Z</time>
      </trkpt>
      <trkpt lat="47.33646" lon="5.90712">
        <ele>214</ele>
        <time>2017-12-21T12:32:01Z</time>
      </trkpt>
      <trkpt lat="47.33644" lon="5.90707">
        <ele>214</ele>
        <time>2017-12-21T12:32:02Z</time>
      </trkpt>
      <trkpt lat="47.33642" lon="5.907">
        <ele>214</ele>
        <time>2017-12-21T12:32:03Z</time>
      </trkpt>
      <trkpt lat="47.33639" lon="5.90694">
        <ele>214</ele>
        <time>2017-12-21T12:32:04Z</time>
      </trkpt>
      <trkpt lat="47.33637" lon="5.90688">
        <ele>214</ele>
        <time>2017-12-21T12:32:05Z</time>
      </trkpt>
      <trkpt lat="47.33635" lon="5.90681">
        <ele>214</ele>
        <time>2017-12-21T12:32:06Z</time>
      </trkpt>
      <trkpt lat="47.33632" lon="5.90675">
        <ele>214</ele>
        <time>2017-12-21T12:32:07Z</time>
      </trkpt>
      <trkpt lat="47.33631" lon="5.90669">
        <ele>214</ele>
        <time>2017-12-21T12:32:08Z</time>
      </trkpt>
      <trkpt lat="47.33629" lon="5.90663">
        <ele>214</ele>
        <time>2017-12-21T12:32:09Z</time>
      </trkpt>
      <trkpt lat="47.33627" lon="5.90657">
        <ele>214</ele>
        <time>2017-12-21T12:32:10Z</time>
      </trkpt>
      <trkpt lat="47.33626" lon="5.90651">
        <ele>214</ele>
        <time>2017-12-21T12:32:11Z</time>
      </trkpt>
      <trkpt lat="47.33624" lon="5.90645">
        <ele>214</ele>
        <time>2017-12-21T12:32:12Z</time>
      </trkpt>
      <trkpt lat="47.33623" lon="5.90639">
        <ele>214</ele>
        <time>2017-12-21T12:32:13Z</time>
      </trkpt>
      <trkpt lat="47.33622" lon="5.90633">
        <ele>214</ele>
        <time>2017-12-21T12:32:14Z</time>
      </trkpt>
      <trkpt lat="47.33621" lon="5.90627">
        <ele>214</ele>
        <time>2017-12-21T12:32:15Z</time>
      </trkpt>
      <trkpt lat="47.3362" lon="5.90621">
        <ele>214</ele>
        <time>2017-12-21T12:32:16Z</time>
      </trkpt>
      <trkpt lat="47.33619" lon="5.90616">
        <ele>214.4</ele>
        <time>2017-12-21T12:32:17Z</time>
      </trkpt>
      <trkpt lat="47.33619" lon="5.9061">
        <ele>214.8</ele>
        <time>2017-12-21T12:32:18Z</time>
      </trkpt>
      <trkpt lat="47.33618" lon="5.90605">
        <ele>215.4</ele>
        <time>2017-12-21T12:32:19Z</time>
      </trkpt>
      <trkpt lat="47.33617" lon="5.90599">
        <ele>215.8</ele>
        <time>2017-12-21T12:32:20Z</time>
      </trkpt>
      <trkpt lat="47.33616" lon="5.90593">
        <ele>216.2</ele>
        <time>2017-12-21T12:32:21Z</time>
      </trkpt>
      <trkpt lat="47.33616" lon="5.90587">
        <ele>216.2</ele>
        <time>2017-12-21T12:32:22Z</time>
      </trkpt>
      <trkpt lat="47.33615" lon="5.90582">
        <ele>216.2</ele>
        <time>2017-12-21T12:32:23Z</time>
      </trkpt>
      <trkpt lat="47.33614" lon="5.90576">
        <ele>216.2</ele>
        <time>2017-12-21T12:32:24Z</time>
      </trkpt>
      <trkpt lat="47.33614" lon="5.90571">
        <ele>216.2</ele>
        <time>2017-12-21T12:32:25Z</time>
      </trkpt>
      <trkpt lat="47.33614" lon="5.90565">
        <ele>216.2</ele>
        <time>2017-12-21T12:32:26Z</time>
      </trkpt>
      <trkpt lat="47.33613" lon="5.9056">
        <ele>216.6</ele>
        <time>2017-12-21T12:32:27Z</time>
      </trkpt>
      <trkpt lat="47.33612" lon="5.90554">
        <ele>217</ele>
        <time>2017-12-21T12:32:28Z</time>
      </trkpt>
      <trkpt lat="47.33611" lon="5.90548">
        <ele>217.4</ele>
        <time>2017-12-21T12:32:29Z</time>
      </trkpt>
      <trkpt lat="47.33611" lon="5.90543">
        <ele>217.8</ele>
        <time>2017-12-21T12:32:30Z</time>
      </trkpt>
      <trkpt lat="47.3361" lon="5.90537">
        <ele>218.2</ele>
        <time>2017-12-21T12:32:31Z</time>
      </trkpt>
      <trkpt lat="47.3361" lon="5.90532">
        <ele>218.2</ele>
        <time>2017-12-21T12:32:32Z</time>
      </trkpt>
      <trkpt lat="47.33609" lon="5.90526">
        <ele>218.2</ele>
        <time>2017-12-21T12:32:33Z</time>
      </trkpt>
      <trkpt lat="47.33608" lon="5.90521">
        <ele>218.2</ele>
        <time>2017-12-21T12:32:34Z</time>
      </trkpt>
      <trkpt lat="47.33608" lon="5.90515">
        <ele>218.2</ele>
        <time>2017-12-21T12:32:35Z</time>
      </trkpt>
      <trkpt lat="47.33607" lon="5.9051">
        <ele>218.2</ele>
        <time>2017-12-21T12:32:36Z</time>
      </trkpt>
      <trkpt lat="47.33606" lon="5.90504">
        <ele>218.6</ele>
        <time>2017-12-21T12:32:37Z</time>
      </trkpt>
      <trkpt lat="47.33605" lon="5.90499">
        <ele>219</ele>
        <time>2017-12-21T12:32:38Z</time>
      </trkpt>
      <trkpt lat="47.33605" lon="5.90493">
        <ele>219.4</ele>
        <time>2017-12-21T12:32:39Z</time>
      </trkpt>
      <trkpt lat="47.33604" lon="5.90488">
        <ele>219.8</ele>
        <time>2017-12-21T12:32:40Z</time>
      </trkpt>
      <trkpt lat="47.33603" lon="5.90482">
        <ele>220.2</ele>
        <time>2017-12-21T12:32:41Z</time>
      </trkpt>
      <trkpt lat="47.33603" lon="5.90477">
        <ele>220.2</ele>
        <time>2017-12-21T12:32:42Z</time>
      </trkpt>
      <trkpt lat="47.33602" lon="5.90471">
        <ele>220.2</ele>
        <time>2017-12-21T12:32:43Z</time>
      </trkpt>
      <trkpt lat="47.33602" lon="5.90465">
        <ele>220.2</ele>
        <time>2017-12-21T12:32:44Z</time>
      </trkpt>
      <trkpt lat="47.33601" lon="5.90459">
        <ele>220.2</ele>
        <time>2017-12-21T12:32:45Z</time>
      </trkpt>
      <trkpt lat="47.336" lon="5.90453">
        <ele>220.2</ele>
        <time>2017-12-21T12:32:46Z</time>
      </trkpt>
      <trkpt lat="47.33599" lon="5.90448">
        <ele>220.6</ele>
        <time>2017-12-21T12:32:47Z</time>
      </trkpt>
      <trkpt lat="47.33598" lon="5.90442">
        <ele>221</ele>
        <time>2017-12-21T12:32:48Z</time>
      </trkpt>
      <trkpt lat="47.33597" lon="5.90437">
        <ele>221.6</ele>
        <time>2017-12-21T12:32:49Z</time>
      </trkpt>
      <trkpt lat="47.33597" lon="5.90431">
        <ele>222</ele>
        <time>2017-12-21T12:32:50Z</time>
      </trkpt>
      <trkpt lat="47.33596" lon="5.90425">
        <ele>222.4</ele>
        <time>2017-12-21T12:32:51Z</time>
      </trkpt>
      <trkpt lat="47.33595" lon="5.9042">
        <ele>222.4</ele>
        <time>2017-12-21T12:32:52Z</time>
      </trkpt>
      <trkpt lat="47.33595" lon="5.90414">
        <ele>222.4</ele>
        <time>2017-12-21T12:32:53Z</time>
      </trkpt>
      <trkpt lat="47.33594" lon="5.90409">
        <ele>222.4</ele>
        <time>2017-12-21T12:32:54Z</time>
      </trkpt>
      <trkpt lat="47.33593" lon="5.90403">
        <ele>222.4</ele>
        <time>2017-12-21T12:32:55Z</time>
      </trkpt>
      <trkpt lat="47.33592" lon="5.90398">
        <ele>222.4</ele>
        <time>2017-12-21T12:32:56Z</time>
      </trkpt>
      <trkpt lat="47.33591" lon="5.90392">
        <ele>222.4</ele>
        <time>2017-12-21T12:32:57Z</time>
      </trkpt>
      <trkpt lat="47.33591" lon="5.90386">
        <ele>222.8</ele>
        <time>2017-12-21T12:32:58Z</time>
      </trkpt>
      <trkpt lat="47.3359" lon="5.90381">
        <ele>223.2</ele>
        <time>2017-12-21T12:32:59Z</time>
      </trkpt>
      <trkpt lat="47.33589" lon="5.90376">
        <ele>223.6</ele>
        <time>2017-12-21T12:33:00Z</time>
      </trkpt>
      <trkpt lat="47.33588" lon="5.90371">
        <ele>224.2</ele>
        <time>2017-12-21T12:33:01Z</time>
      </trkpt>
      <trkpt lat="47.33587" lon="5.90365">
        <ele>224.6</ele>
        <time>2017-12-21T12:33:02Z</time>
      </trkpt>
      <trkpt lat="47.33587" lon="5.90359">
        <ele>224.6</ele>
        <time>2017-12-21T12:33:03Z</time>
      </trkpt>
      <trkpt lat="47.33586" lon="5.90354">
        <ele>224.6</ele>
        <time>2017-12-21T12:33:04Z</time>
      </trkpt>
      <trkpt lat="47.33585" lon="5.90348">
        <ele>224.6</ele>
        <time>2017-12-21T12:33:05Z</time>
      </trkpt>
      <trkpt lat="47.33584" lon="5.90342">
        <ele>224.6</ele>
        <time>2017-12-21T12:33:06Z</time>
      </trkpt>
      <trkpt lat="47.33584" lon="5.90337">
        <ele>224.6</ele>
        <time>2017-12-21T12:33:07Z</time>
      </trkpt>
      <trkpt lat="47.33583" lon="5.90331">
        <ele>224.6</ele>
        <time>2017-12-21T12:33:08Z</time>
      </trkpt>
      <trkpt lat="47.33582" lon="5.90326">
        <ele>225</ele>
        <time>2017-12-21T12:33:09Z</time>
      </trkpt>
      <trkpt lat="47.33581" lon="5.9032">
        <ele>225.4</ele>
        <time>2017-12-21T12:33:10Z</time>
      </trkpt>
      <trkpt lat="47.3358" lon="5.90315">
        <ele>225.8</ele>
        <time>2017-12-21T12:33:11Z</time>
      </trkpt>
      <trkpt lat="47.33579" lon="5.9031">
        <ele>226.4</ele>
        <time>2017-12-21T12:33:12Z</time>
      </trkpt>
      <trkpt lat="47.33579" lon="5.90304">
        <ele>226.8</ele>
        <time>2017-12-21T12:33:13Z</time>
      </trkpt>
      <trkpt lat="47.33578" lon="5.90299">
        <ele>226.8</ele>
        <time>2017-12-21T12:33:14Z</time>
      </trkpt>
      <trkpt lat="47.33577" lon="5.90293">
        <ele>226.8</ele>
        <time>2017-12-21T12:33:15Z</time>
      </trkpt>
      <trkpt lat="47.33577" lon="5.90288">
        <ele>226.8</ele>
        <time>2017-12-21T12:33:16Z</time>
      </trkpt>
      <trkpt lat="47.33576" lon="5.90282">
        <ele>226.8</ele>
        <time>2017-12-21T12:33:17Z</time>
      </trkpt>
      <trkpt lat="47.33575" lon="5.90277">
        <ele>226.8</ele>
        <time>2017-12-21T12:33:18Z</time>
      </trkpt>
      <trkpt lat="47.33574" lon="5.90272">
        <ele>226.8</ele>
        <time>2017-12-21T12:33:19Z</time>
      </trkpt>
      <trkpt lat="47.33574" lon="5.90267">
        <ele>227.2</ele>
        <time>2017-12-21T12:33:20Z</time>
      </trkpt>
      <trkpt lat="47.33572" lon="5.90262">
        <ele>227.6</ele>
        <time>2017-12-21T12:33:21Z</time>
      </trkpt>
      <trkpt lat="47.33571" lon="5.90257">
        <ele>228.4</ele>
        <time>2017-12-21T12:33:22Z</time>
      </trkpt>
      <trkpt lat="47.3357" lon="5.90252">
        <ele>228.8</ele>
        <time>2017-12-21T12:33:23Z</time>
      </trkpt>
      <trkpt lat="47.33569" lon="5.90247">
        <ele>228.8</ele>
        <time>2017-12-21T12:33:24Z</time>
      </trkpt>
      <trkpt lat="47.33569" lon="5.90241">
        <ele>228.8</ele>
        <time>2017-12-21T12:33:25Z</time>
      </trkpt>
      <trkpt lat="47.33568" lon="5.90236">
        <ele>228.8</ele>
        <time>2017-12-21T12:33:26Z</time>
      </trkpt>
      <trkpt lat="47.33567" lon="5.90231">
        <ele>228.8</ele>
        <time>2017-12-21T12:33:27Z</time>
      </trkpt>
      <trkpt lat="47.33566" lon="5.90226">
        <ele>228.8</ele>
        <time>2017-12-21T12:33:28Z</time>
      </trkpt>
      <trkpt lat="47.33565" lon="5.90221">
        <ele>228.8</ele>
        <time>2017-12-21T12:33:29Z</time>
      </trkpt>
      <trkpt lat="47.33565" lon="5.90217">
        <ele>228.8</ele>
        <time>2017-12-21T12:33:30Z</time>
      </trkpt>
      <trkpt lat="47.33564" lon="5.90212">
        <ele>229.2</ele>
        <time>2017-12-21T12:33:31Z</time>
      </trkpt>
      <trkpt lat="47.33563" lon="5.90206">
        <ele>229.6</ele>
        <time>2017-12-21T12:33:32Z</time>
      </trkpt>
      <trkpt lat="47.33562" lon="5.90201">
        <ele>230</ele>
        <time>2017-12-21T12:33:33Z</time>
      </trkpt>
      <trkpt lat="47.33561" lon="5.90196">
        <ele>230.4</ele>
        <time>2017-12-21T12:33:34Z</time>
      </trkpt>
      <trkpt lat="47.3356" lon="5.90191">
        <ele>231</ele>
        <time>2017-12-21T12:33:35Z</time>
      </trkpt>
      <trkpt lat="47.33559" lon="5.90185">
        <ele>231</ele>
        <time>2017-12-21T12:33:36Z</time>
      </trkpt>
      <trkpt lat="47.33558" lon="5.9018">
        <ele>231</ele>
        <time>2017-12-21T12:33:37Z</time>
      </trkpt>
      <trkpt lat="47.33557" lon="5.90174">
        <ele>231</ele>
        <time>2017-12-21T12:33:38Z</time>
      </trkpt>
      <trkpt lat="47.33556" lon="5.90169">
        <ele>231</ele>
        <time>2017-12-21T12:33:39Z</time>
      </trkpt>
      <trkpt lat="47.33555" lon="5.90164">
        <ele>231</ele>
        <time>2017-12-21T12:33:40Z</time>
      </trkpt>
      <trkpt lat="47.33554" lon="5.90159">
        <ele>231</ele>
        <time>2017-12-21T12:33:41Z</time>
      </trkpt>
      <trkpt lat="47.33553" lon="5.90153">
        <ele>231</ele>
        <time>2017-12-21T12:33:42Z</time>
      </trkpt>
      <trkpt lat="47.33552" lon="5.90148">
        <ele>231.4</ele>
        <time>2017-12-21T12:33:43Z</time>
      </trkpt>
      <trkpt lat="47.3355" lon="5.90143">
        <ele>231.8</ele>
        <time>2017-12-21T12:33:44Z</time>
      </trkpt>
      <trkpt lat="47.33549" lon="5.90137">
        <ele>232.2</ele>
        <time>2017-12-21T12:33:45Z</time>
      </trkpt>
      <trkpt lat="47.33548" lon="5.90132">
        <ele>232.6</ele>
        <time>2017-12-21T12:33:46Z</time>
      </trkpt>
      <trkpt lat="47.33547" lon="5.90127">
        <ele>233</ele>
        <time>2017-12-21T12:33:47Z</time>
      </trkpt>
      <trkpt lat="47.33545" lon="5.90121">
        <ele>233</ele>
        <time>2017-12-21T12:33:48Z</time>
      </trkpt>
      <trkpt lat="47.33543" lon="5.90116">
        <ele>233</ele>
        <time>2017-12-21T12:33:49Z</time>
      </trkpt>
      <trkpt lat="47.33542" lon="5.9011">
        <ele>233</ele>
        <time>2017-12-21T12:33:50Z</time>
      </trkpt>
      <trkpt lat="47.3354" lon="5.90105">
        <ele>233</ele>
        <time>2017-12-21T12:33:51Z</time>
      </trkpt>
      <trkpt lat="47.33537" lon="5.90099">
        <ele>233</ele>
        <time>2017-12-21T12:33:52Z</time>
      </trkpt>
      <trkpt lat="47.33535" lon="5.90094">
        <ele>233</ele>
        <time>2017-12-21T12:33:53Z</time>
      </trkpt>
      <trkpt lat="47.33533" lon="5.90088">
        <ele>233</ele>
        <time>2017-12-21T12:33:54Z</time>
      </trkpt>
      <trkpt lat="47.33531" lon="5.90083">
        <ele>233</ele>
        <time>2017-12-21T12:33:55Z</time>
      </trkpt>
      <trkpt lat="47.33529" lon="5.90078">
        <ele>233</ele>
        <time>2017-12-21T12:33:56Z</time>
      </trkpt>
      <trkpt lat="47.33527" lon="5.90072">
        <ele>233</ele>
        <time>2017-12-21T12:33:57Z</time>
      </trkpt>
      <trkpt lat="47.33525" lon="5.90066">
        <ele>233</ele>
        <time>2017-12-21T12:33:58Z</time>
      </trkpt>
      <trkpt lat="47.33522" lon="5.90061">
        <ele>233</ele>
        <time>2017-12-21T12:33:59Z</time>
      </trkpt>
      <trkpt lat="47.33519" lon="5.90055">
        <ele>233.4</ele>
        <time>2017-12-21T12:34:00Z</time>
      </trkpt>
      <trkpt lat="47.33517" lon="5.90049">
        <ele>233.8</ele>
        <time>2017-12-21T12:34:01Z</time>
      </trkpt>
      <trkpt lat="47.33514" lon="5.90044">
        <ele>234.2</ele>
        <time>2017-12-21T12:34:02Z</time>
      </trkpt>
      <trkpt lat="47.33512" lon="5.90038">
        <ele>234.6</ele>
        <time>2017-12-21T12:34:03Z</time>
      </trkpt>
      <trkpt lat="47.3351" lon="5.90033">
        <ele>235</ele>
        <time>2017-12-21T12:34:04Z</time>
      </trkpt>
      <trkpt lat="47.33507" lon="5.90028">
        <ele>235</ele>
        <time>2017-12-21T12:34:05Z</time>
      </trkpt>
      <trkpt lat="47.33505" lon="5.90022">
        <ele>235</ele>
        <time>2017-12-21T12:34:06Z</time>
      </trkpt>
      <trkpt lat="47.33502" lon="5.90017">
        <ele>235</ele>
        <time>2017-12-21T12:34:07Z</time>
      </trkpt>
      <trkpt lat="47.33499" lon="5.90012">
        <ele>235</ele>
        <time>2017-12-21T12:34:08Z</time>
      </trkpt>
      <trkpt lat="47.33497" lon="5.90007">
        <ele>235</ele>
        <time>2017-12-21T12:34:09Z</time>
      </trkpt>
      <trkpt lat="47.33494" lon="5.90002">
        <ele>235</ele>
        <time>2017-12-21T12:34:10Z</time>
      </trkpt>
      <trkpt lat="47.33492" lon="5.89997">
        <ele>235</ele>
        <time>2017-12-21T12:34:11Z</time>
      </trkpt>
      <trkpt lat="47.3349" lon="5.89991">
        <ele>235</ele>
        <time>2017-12-21T12:34:12Z</time>
      </trkpt>
      <trkpt lat="47.33487" lon="5.89986">
        <ele>235</ele>
        <time>2017-12-21T12:34:13Z</time>
      </trkpt>
      <trkpt lat="47.33485" lon="5.89981">
        <ele>235</ele>
        <time>2017-12-21T12:34:14Z</time>
      </trkpt>
      <trkpt lat="47.33482" lon="5.89976">
        <ele>235</ele>
        <time>2017-12-21T12:34:15Z</time>
      </trkpt>
      <trkpt lat="47.33479" lon="5.89971">
        <ele>235</ele>
        <time>2017-12-21T12:34:16Z</time>
      </trkpt>
      <trkpt lat="47.33477" lon="5.89966">
        <ele>235</ele>
        <time>2017-12-21T12:34:17Z</time>
      </trkpt>
      <trkpt lat="47.33474" lon="5.89961">
        <ele>235</ele>
        <time>2017-12-21T12:34:18Z</time>
      </trkpt>
      <trkpt lat="47.33471" lon="5.89956">
        <ele>235</ele>
        <time>2017-12-21T12:34:19Z</time>
      </trkpt>
      <trkpt lat="47.33468" lon="5.89951">
        <ele>235.4</ele>
        <time>2017-12-21T12:34:20Z</time>
      </trkpt>
      <trkpt lat="47.33465" lon="5.89946">
        <ele>235.8</ele>
        <time>2017-12-21T12:34:21Z</time>
      </trkpt>
      <trkpt lat="47.33462" lon="5.89941">
        <ele>236.2</ele>
        <time>2017-12-21T12:34:22Z</time>
      </trkpt>
      <trkpt lat="47.33458" lon="5.89936">
        <ele>236.6</ele>
        <time>2017-12-21T12:34:23Z</time>
      </trkpt>
      <trkpt lat="47.33455" lon="5.89931">
        <ele>237</ele>
        <time>2017-12-21T12:34:24Z</time>
      </trkpt>
      <trkpt lat="47.33452" lon="5.89926">
        <ele>237</ele>
        <time>2017-12-21T12:34:25Z</time>
      </trkpt>
      <trkpt lat="47.33448" lon="5.89922">
        <ele>237</ele>
        <time>2017-12-21T12:34:26Z</time>
      </trkpt>
      <trkpt lat="47.33445" lon="5.89917">
        <ele>237</ele>
        <time>2017-12-21T12:34:27Z</time>
      </trkpt>
      <trkpt lat="47.33441" lon="5.89912">
        <ele>237</ele>
        <time>2017-12-21T12:34:28Z</time>
      </trkpt>
      <trkpt lat="47.33437" lon="5.89908">
        <ele>237</ele>
        <time>2017-12-21T12:34:29Z</time>
      </trkpt>
      <trkpt lat="47.33432" lon="5.89904">
        <ele>237</ele>
        <time>2017-12-21T12:34:30Z</time>
      </trkpt>
      <trkpt lat="47.33428" lon="5.89899">
        <ele>237</ele>
        <time>2017-12-21T12:34:31Z</time>
      </trkpt>
      <trkpt lat="47.33424" lon="5.89895">
        <ele>237</ele>
        <time>2017-12-21T12:34:32Z</time>
      </trkpt>
      <trkpt lat="47.33421" lon="5.89891">
        <ele>237</ele>
        <time>2017-12-21T12:34:33Z</time>
      </trkpt>
      <trkpt lat="47.33417" lon="5.89886">
        <ele>237</ele>
        <time>2017-12-21T12:34:34Z</time>
      </trkpt>
      <trkpt lat="47.33413" lon="5.89881">
        <ele>237</ele>
        <time>2017-12-21T12:34:35Z</time>
      </trkpt>
      <trkpt lat="47.33409" lon="5.89876">
        <ele>237</ele>
        <time>2017-12-21T12:34:36Z</time>
      </trkpt>
      <trkpt lat="47.33405" lon="5.89872">
        <ele>237</ele>
        <time>2017-12-21T12:34:37Z</time>
      </trkpt>
      <trkpt lat="47.33401" lon="5.89868">
        <ele>237</ele>
        <time>2017-12-21T12:34:38Z</time>
      </trkpt>
      <trkpt lat="47.33397" lon="5.89864">
        <ele>237</ele>
        <time>2017-12-21T12:34:39Z</time>
      </trkpt>
      <trkpt lat="47.33393" lon="5.89859">
        <ele>237</ele>
        <time>2017-12-21T12:34:40Z</time>
      </trkpt>
      <trkpt lat="47.33389" lon="5.89855">
        <ele>237</ele>
        <time>2017-12-21T12:34:41Z</time>
      </trkpt>
      <trkpt lat="47.33385" lon="5.8985">
        <ele>237</ele>
        <time>2017-12-21T12:34:42Z</time>
      </trkpt>
      <trkpt lat="47.3338" lon="5.89846">
        <ele>237</ele>
        <time>2017-12-21T12:34:43Z</time>
      </trkpt>
      <trkpt lat="47.33376" lon="5.89842">
        <ele>237</ele>
        <time>2017-12-21T12:34:44Z</time>
      </trkpt>
      <trkpt lat="47.33372" lon="5.89837">
        <ele>237</ele>
        <time>2017-12-21T12:34:45Z</time>
      </trkpt>
      <trkpt lat="47.33368" lon="5.89832">
        <ele>237</ele>
        <time>2017-12-21T12:34:46Z</time>
      </trkpt>
      <trkpt lat="47.33364" lon="5.89828">
        <ele>237</ele>
        <time>2017-12-21T12:34:47Z</time>
      </trkpt>
      <trkpt lat="47.3336" lon="5.89824">
        <ele>237</ele>
        <time>2017-12-21T12:34:48Z</time>
      </trkpt>
      <trkpt lat="47.33356" lon="5.89819">
        <ele>237</ele>
        <time>2017-12-21T12:34:49Z</time>
      </trkpt>
      <trkpt lat="47.33351" lon="5.89815">
        <ele>237</ele>
        <time>2017-12-21T12:34:50Z</time>
      </trkpt>
      <trkpt lat="47.33347" lon="5.89811">
        <ele>237</ele>
        <time>2017-12-21T12:34:51Z</time>
      </trkpt>
      <trkpt lat="47.33343" lon="5.89806">
        <ele>237</ele>
        <time>2017-12-21T12:34:52Z</time>
      </trkpt>
      <trkpt lat="47.33339" lon="5.89802">
        <ele>237</ele>
        <time>2017-12-21T12:34:53Z</time>
      </trkpt>
      <trkpt lat="47.33335" lon="5.89798">
        <ele>237</ele>
        <time>2017-12-21T12:34:54Z</time>
      </trkpt>
      <trkpt lat="47.3333" lon="5.89794">
        <ele>237</ele>
        <time>2017-12-21T12:34:55Z</time>
      </trkpt>
      <trkpt lat="47.33325" lon="5.8979">
        <ele>237</ele>
        <time>2017-12-21T12:34:56Z</time>
      </trkpt>
      <trkpt lat="47.3332" lon="5.89786">
        <ele>237</ele>
        <time>2017-12-21T12:34:57Z</time>
      </trkpt>
      <trkpt lat="47.33315" lon="5.89783">
        <ele>237</ele>
        <time>2017-12-21T12:34:58Z</time>
      </trkpt>
      <trkpt lat="47.3331" lon="5.8978">
        <ele>237</ele>
        <time>2017-12-21T12:34:59Z</time>
      </trkpt>
      <trkpt lat="47.33305" lon="5.89776">
        <ele>237</ele>
        <time>2017-12-21T12:35:00Z</time>
      </trkpt>
      <trkpt lat="47.333" lon="5.89773">
        <ele>237</ele>
        <time>2017-12-21T12:35:01Z</time>
      </trkpt>
      <trkpt lat="47.33295" lon="5.8977">
        <ele>237</ele>
        <time>2017-12-21T12:35:02Z</time>
      </trkpt>
      <trkpt lat="47.3329" lon="5.89766">
        <ele>237</ele>
        <time>2017-12-21T12:35:03Z</time>
      </trkpt>
      <trkpt lat="47.33284" lon="5.89763">
        <ele>237</ele>
        <time>2017-12-21T12:35:04Z</time>
      </trkpt>
      <trkpt lat="47.33279" lon="5.8976">
        <ele>237</ele>
        <time>2017-12-21T12:35:05Z</time>
      </trkpt>
      <trkpt lat="47.33274" lon="5.89756">
        <ele>237</ele>
        <time>2017-12-21T12:35:06Z</time>
      </trkpt>
      <trkpt lat="47.33269" lon="5.89753">
        <ele>237</ele>
        <time>2017-12-21T12:35:07Z</time>
      </trkpt>
      <trkpt lat="47.33264" lon="5.8975">
        <ele>237</ele>
        <time>2017-12-21T12:35:08Z</time>
      </trkpt>
      <trkpt lat="47.33258" lon="5.89746">
        <ele>237</ele>
        <time>2017-12-21T12:35:09Z</time>
      </trkpt>
      <trkpt lat="47.33253" lon="5.89743">
        <ele>237</ele>
        <time>2017-12-21T12:35:10Z</time>
      </trkpt>
      <trkpt lat="47.33248" lon="5.8974">
        <ele>237</ele>
        <time>2017-12-21T12:35:11Z</time>
      </trkpt>
      <trkpt lat="47.33242" lon="5.89737">
        <ele>237</ele>
        <time>2017-12-21T12:35:12Z</time>
      </trkpt>
      <trkpt lat="47.33236" lon="5.89733">
        <ele>237</ele>
        <time>2017-12-21T12:35:13Z</time>
      </trkpt>
      <trkpt lat="47.33231" lon="5.8973">
        <ele>237</ele>
        <time>2017-12-21T12:35:14Z</time>
      </trkpt>
      <trkpt lat="47.33225" lon="5.89726">
        <ele>237</ele>
        <time>2017-12-21T12:35:15Z</time>
      </trkpt>
      <trkpt lat="47.33219" lon="5.89722">
        <ele>237</ele>
        <time>2017-12-21T12:35:16Z</time>
      </trkpt>
      <trkpt lat="47.33213" lon="5.89718">
        <ele>237</ele>
        <time>2017-12-21T12:35:17Z</time>
      </trkpt>
      <trkpt lat="47.33208" lon="5.89715">
        <ele>237</ele>
        <time>2017-12-21T12:35:18Z</time>
      </trkpt>
      <trkpt lat="47.33202" lon="5.89711">
        <ele>237</ele>
        <time>2017-12-21T12:35:19Z</time>
      </trkpt>
      <trkpt lat="47.33196" lon="5.89707">
        <ele>237</ele>
        <time>2017-12-21T12:35:20Z</time>
      </trkpt>
      <trkpt lat="47.3319" lon="5.89704">
        <ele>237</ele>
        <time>2017-12-21T12:35:21Z</time>
      </trkpt>
      <trkpt lat="47.33184" lon="5.897">
        <ele>237</ele>
        <time>2017-12-21T12:35:22Z</time>
      </trkpt>
      <trkpt lat="47.33178" lon="5.89696">
        <ele>237</ele>
        <time>2017-12-21T12:35:23Z</time>
      </trkpt>
      <trkpt lat="47.33171" lon="5.89692">
        <ele>237</ele>
        <time>2017-12-21T12:35:24Z</time>
      </trkpt>
      <trkpt lat="47.33165" lon="5.89688">
        <ele>237</ele>
        <time>2017-12-21T12:35:25Z</time>
      </trkpt>
      <trkpt lat="47.33159" lon="5.89684">
        <ele>237</ele>
        <time>2017-12-21T12:35:26Z</time>
      </trkpt>
      <trkpt lat="47.33152" lon="5.8968">
        <ele>237</ele>
        <time>2017-12-21T12:35:27Z</time>
      </trkpt>
      <trkpt lat="47.33146" lon="5.89676">
        <ele>236.6</ele>
        <time>2017-12-21T12:35:28Z</time>
      </trkpt>
      <trkpt lat="47.33139" lon="5.89672">
        <ele>236.2</ele>
        <time>2017-12-21T12:35:29Z</time>
      </trkpt>
      <trkpt lat="47.33133" lon="5.89668">
        <ele>235.8</ele>
        <time>2017-12-21T12:35:30Z</time>
      </trkpt>
      <trkpt lat="47.33126" lon="5.89664">
        <ele>235.4</ele>
        <time>2017-12-21T12:35:31Z</time>
      </trkpt>
      <trkpt lat="47.3312" lon="5.8966">
        <ele>235</ele>
        <time>2017-12-21T12:35:32Z</time>
      </trkpt>
      <trkpt lat="47.33114" lon="5.89656">
        <ele>235</ele>
        <time>2017-12-21T12:35:33Z</time>
      </trkpt>
      <trkpt lat="47.33108" lon="5.89652">
        <ele>235</ele>
        <time>2017-12-21T12:35:34Z</time>
      </trkpt>
      <trkpt lat="47.33102" lon="5.89648">
        <ele>235</ele>
        <time>2017-12-21T12:35:35Z</time>
      </trkpt>
      <trkpt lat="47.33096" lon="5.89644">
        <ele>235</ele>
        <time>2017-12-21T12:35:36Z</time>
      </trkpt>
      <trkpt lat="47.3309" lon="5.89641">
        <ele>235</ele>
        <time>2017-12-21T12:35:37Z</time>
      </trkpt>
      <trkpt lat="47.33084" lon="5.89636">
        <ele>235</ele>
        <time>2017-12-21T12:35:38Z</time>
      </trkpt>
      <trkpt lat="47.33078" lon="5.89632">
        <ele>235</ele>
        <time>2017-12-21T12:35:39Z</time>
      </trkpt>
      <trkpt lat="47.33072" lon="5.89628">
        <ele>235</ele>
        <time>2017-12-21T12:35:40Z</time>
      </trkpt>
      <trkpt lat="47.33067" lon="5.89623">
        <ele>235</ele>
        <time>2017-12-21T12:35:41Z</time>
      </trkpt>
      <trkpt lat="47.33062" lon="5.89617">
        <ele>235</ele>
        <time>2017-12-21T12:35:42Z</time>
      </trkpt>
      <trkpt lat="47.33056" lon="5.89612">
        <ele>235</ele>
        <time>2017-12-21T12:35:43Z</time>
      </trkpt>
      <trkpt lat="47.33051" lon="5.89606">
        <ele>234.6</ele>
        <time>2017-12-21T12:35:44Z</time>
      </trkpt>
      <trkpt lat="47.33045" lon="5.89599">
        <ele>234.2</ele>
        <time>2017-12-21T12:35:45Z</time>
      </trkpt>
      <trkpt lat="47.3304" lon="5.89593">
        <ele>233.8</ele>
        <time>2017-12-21T12:35:46Z</time>
      </trkpt>
      <trkpt lat="47.33035" lon="5.89585">
        <ele>233.4</ele>
        <time>2017-12-21T12:35:47Z</time>
      </trkpt>
      <trkpt lat="47.3303" lon="5.89577">
        <ele>233</ele>
        <time>2017-12-21T12:35:48Z</time>
      </trkpt>
      <trkpt lat="47.33025" lon="5.8957">
        <ele>233</ele>
        <time>2017-12-21T12:35:49Z</time>
      </trkpt>
      <trkpt lat="47.3302" lon="5.89562">
        <ele>233</ele>
        <time>2017-12-21T12:35:50Z</time>
      </trkpt>
      <trkpt lat="47.33014" lon="5.89553">
        <ele>232.6</ele>
        <time>2017-12-21T12:35:51Z</time>
      </trkpt>
      <trkpt lat="47.33009" lon="5.89544">
        <ele>232.2</ele>
        <time>2017-12-21T12:35:52Z</time>
      </trkpt>
      <trkpt lat="47.33004" lon="5.89536">
        <ele>231.8</ele>
        <time>2017-12-21T12:35:53Z</time>
      </trkpt>
      <trkpt lat="47.32998" lon="5.89527">
        <ele>231.4</ele>
        <time>2017-12-21T12:35:54Z</time>
      </trkpt>
      <trkpt lat="47.32993" lon="5.89519">
        <ele>231</ele>
        <time>2017-12-21T12:35:55Z</time>
      </trkpt>
      <trkpt lat="47.32986" lon="5.8951">
        <ele>231</ele>
        <time>2017-12-21T12:35:56Z</time>
      </trkpt>
      <trkpt lat="47.3298" lon="5.89501">
        <ele>230.4</ele>
        <time>2017-12-21T12:35:57Z</time>
      </trkpt>
      <trkpt lat="47.32974" lon="5.89492">
        <ele>230</ele>
        <time>2017-12-21T12:35:58Z</time>
      </trkpt>
      <trkpt lat="47.32968" lon="5.89483">
        <ele>229.6</ele>
        <time>2017-12-21T12:35:59Z</time>
      </trkpt>
      <trkpt lat="47.32961" lon="5.89473">
        <ele>229.2</ele>
        <time>2017-12-21T12:36:00Z</time>
      </trkpt>
      <trkpt lat="47.32955" lon="5.89463">
        <ele>228.8</ele>
        <time>2017-12-21T12:36:01Z</time>
      </trkpt>
      <trkpt lat="47.32949" lon="5.89454">
        <ele>228.8</ele>
        <time>2017-12-21T12:36:02Z</time>
      </trkpt>
      <trkpt lat="47.32942" lon="5.89444">
        <ele>228.4</ele>
        <time>2017-12-21T12:36:03Z</time>
      </trkpt>
      <trkpt lat="47.32936" lon="5.89435">
        <ele>228</ele>
        <time>2017-12-21T12:36:04Z</time>
      </trkpt>
      <trkpt lat="47.3293" lon="5.89426">
        <ele>227.4</ele>
        <time>2017-12-21T12:36:05Z</time>
      </trkpt>
      <trkpt lat="47.32924" lon="5.89418">
        <ele>227</ele>
        <time>2017-12-21T12:36:06Z</time>
      </trkpt>
      <trkpt lat="47.32918" lon="5.8941">
        <ele>226.6</ele>
        <time>2017-12-21T12:36:07Z</time>
      </trkpt>
      <trkpt lat="47.32913" lon="5.89402">
        <ele>226.6</ele>
        <time>2017-12-21T12:36:08Z</time>
      </trkpt>
      <trkpt lat="47.32907" lon="5.89395">
        <ele>226.6</ele>
        <time>2017-12-21T12:36:09Z</time>
      </trkpt>
      <trkpt lat="47.32902" lon="5.89387">
        <ele>226.6</ele>
        <time>2017-12-21T12:36:10Z</time>
      </trkpt>
      <trkpt lat="47.32897" lon="5.8938">
        <ele>226.6</ele>
        <time>2017-12-21T12:36:11Z</time>
      </trkpt>
      <trkpt lat="47.32892" lon="5.89374">
        <ele>226.6</ele>
        <time>2017-12-21T12:36:12Z</time>
      </trkpt>
      <trkpt lat="47.32888" lon="5.89367">
        <ele>226.6</ele>
        <time>2017-12-21T12:36:13Z</time>
      </trkpt>
      <trkpt lat="47.32884" lon="5.8936">
        <ele>226.6</ele>
        <time>2017-12-21T12:36:14Z</time>
      </trkpt>
      <trkpt lat="47.32879" lon="5.89353">
        <ele>226.6</ele>
        <time>2017-12-21T12:36:15Z</time>
      </trkpt>
      <trkpt lat="47.32875" lon="5.89346">
        <ele>226.6</ele>
        <time>2017-12-21T12:36:16Z</time>
      </trkpt>
      <trkpt lat="47.3287" lon="5.89339">
        <ele>226.6</ele>
        <time>2017-12-21T12:36:17Z</time>
      </trkpt>
      <trkpt lat="47.32866" lon="5.89332">
        <ele>226.6</ele>
        <time>2017-12-21T12:36:18Z</time>
      </trkpt>
      <trkpt lat="47.32861" lon="5.89325">
        <ele>226.6</ele>
        <time>2017-12-21T12:36:19Z</time>
      </trkpt>
      <trkpt lat="47.32857" lon="5.89318">
        <ele>226.6</ele>
        <time>2017-12-21T12:36:20Z</time>
      </trkpt>
      <trkpt lat="47.32852" lon="5.89312">
        <ele>226.6</ele>
        <time>2017-12-21T12:36:21Z</time>
      </trkpt>
      <trkpt lat="47.32847" lon="5.89305">
        <ele>226.6</ele>
        <time>2017-12-21T12:36:22Z</time>
      </trkpt>
      <trkpt lat="47.32843" lon="5.89298">
        <ele>226.6</ele>
        <time>2017-12-21T12:36:23Z</time>
      </trkpt>
      <trkpt lat="47.32838" lon="5.89292">
        <ele>226.6</ele>
        <time>2017-12-21T12:36:24Z</time>
      </trkpt>
      <trkpt lat="47.32833" lon="5.89285">
        <ele>226.6</ele>
        <time>2017-12-21T12:36:25Z</time>
      </trkpt>
      <trkpt lat="47.32829" lon="5.89278">
        <ele>226.6</ele>
        <time>2017-12-21T12:36:26Z</time>
      </trkpt>
      <trkpt lat="47.32824" lon="5.89272">
        <ele>226.6</ele>
        <time>2017-12-21T12:36:27Z</time>
      </trkpt>
      <trkpt lat="47.32819" lon="5.89266">
        <ele>226.6</ele>
        <time>2017-12-21T12:36:28Z</time>
      </trkpt>
      <trkpt lat="47.32814" lon="5.89259">
        <ele>226.6</ele>
        <time>2017-12-21T12:36:29Z</time>
      </trkpt>
      <trkpt lat="47.32809" lon="5.89252">
        <ele>226.6</ele>
        <time>2017-12-21T12:36:30Z</time>
      </trkpt>
      <trkpt lat="47.32805" lon="5.89245">
        <ele>226.6</ele>
        <time>2017-12-21T12:36:31Z</time>
      </trkpt>
      <trkpt lat="47.328" lon="5.89238">
        <ele>226.6</ele>
        <time>2017-12-21T12:36:32Z</time>
      </trkpt>
      <trkpt lat="47.32795" lon="5.89232">
        <ele>226.6</ele>
        <time>2017-12-21T12:36:33Z</time>
      </trkpt>
      <trkpt lat="47.3279" lon="5.89225">
        <ele>226.6</ele>
        <time>2017-12-21T12:36:34Z</time>
      </trkpt>
      <trkpt lat="47.32785" lon="5.89218">
        <ele>226.6</ele>
        <time>2017-12-21T12:36:35Z</time>
      </trkpt>
      <trkpt lat="47.3278" lon="5.89211">
        <ele>226.6</ele>
        <time>2017-12-21T12:36:36Z</time>
      </trkpt>
      <trkpt lat="47.32771" lon="5.89197">
        <ele>226.6</ele>
        <time>2017-12-21T12:36:37Z</time>
      </trkpt>
      <trkpt lat="47.32771" lon="5.89197">
        <ele>226.6</ele>
        <time>2017-12-21T12:36:38Z</time>
      </trkpt>
      <trkpt lat="47.32766" lon="5.89191">
        <ele>226.2</ele>
        <time>2017-12-21T12:36:39Z</time>
      </trkpt>
      <trkpt lat="47.32761" lon="5.89184">
        <ele>225.8</ele>
        <time>2017-12-21T12:36:40Z</time>
      </trkpt>
      <trkpt lat="47.32756" lon="5.89177">
        <ele>225</ele>
        <time>2017-12-21T12:36:41Z</time>
      </trkpt>
      <trkpt lat="47.3275" lon="5.8917">
        <ele>224.6</ele>
        <time>2017-12-21T12:36:42Z</time>
      </trkpt>
      <trkpt lat="47.32745" lon="5.89163">
        <ele>224.6</ele>
        <time>2017-12-21T12:36:43Z</time>
      </trkpt>
      <trkpt lat="47.3274" lon="5.89156">
        <ele>224.6</ele>
        <time>2017-12-21T12:36:44Z</time>
      </trkpt>
      <trkpt lat="47.32735" lon="5.89149">
        <ele>224.6</ele>
        <time>2017-12-21T12:36:45Z</time>
      </trkpt>
      <trkpt lat="47.3273" lon="5.89142">
        <ele>224.6</ele>
        <time>2017-12-21T12:36:46Z</time>
      </trkpt>
      <trkpt lat="47.32725" lon="5.89135">
        <ele>224.6</ele>
        <time>2017-12-21T12:36:47Z</time>
      </trkpt>
      <trkpt lat="47.3272" lon="5.89128">
        <ele>224.6</ele>
        <time>2017-12-21T12:36:48Z</time>
      </trkpt>
      <trkpt lat="47.32716" lon="5.8912">
        <ele>224.6</ele>
        <time>2017-12-21T12:36:49Z</time>
      </trkpt>
      <trkpt lat="47.3271" lon="5.89113">
        <ele>224.6</ele>
        <time>2017-12-21T12:36:50Z</time>
      </trkpt>
      <trkpt lat="47.32705" lon="5.89106">
        <ele>224.6</ele>
        <time>2017-12-21T12:36:51Z</time>
      </trkpt>
      <trkpt lat="47.32699" lon="5.89098">
        <ele>224.6</ele>
        <time>2017-12-21T12:36:52Z</time>
      </trkpt>
      <trkpt lat="47.32694" lon="5.89091">
        <ele>224.6</ele>
        <time>2017-12-21T12:36:53Z</time>
      </trkpt>
      <trkpt lat="47.32689" lon="5.89084">
        <ele>224.6</ele>
        <time>2017-12-21T12:36:54Z</time>
      </trkpt>
      <trkpt lat="47.32684" lon="5.89077">
        <ele>224.6</ele>
        <time>2017-12-21T12:36:55Z</time>
      </trkpt>
      <trkpt lat="47.32679" lon="5.89069">
        <ele>224.6</ele>
        <time>2017-12-21T12:36:56Z</time>
      </trkpt>
      <trkpt lat="47.32674" lon="5.89062">
        <ele>224.6</ele>
        <time>2017-12-21T12:36:57Z</time>
      </trkpt>
      <trkpt lat="47.32669" lon="5.89054">
        <ele>224.2</ele>
        <time>2017-12-21T12:36:58Z</time>
      </trkpt>
      <trkpt lat="47.32663" lon="5.89046">
        <ele>223.8</ele>
        <time>2017-12-21T12:36:59Z</time>
      </trkpt>
      <trkpt lat="47.32657" lon="5.89038">
        <ele>223.4</ele>
        <time>2017-12-21T12:37:00Z</time>
      </trkpt>
      <trkpt lat="47.32652" lon="5.8903">
        <ele>223</ele>
        <time>2017-12-21T12:37:01Z</time>
      </trkpt>
      <trkpt lat="47.32646" lon="5.89022">
        <ele>222.6</ele>
        <time>2017-12-21T12:37:02Z</time>
      </trkpt>
      <trkpt lat="47.32641" lon="5.89013">
        <ele>222.6</ele>
        <time>2017-12-21T12:37:03Z</time>
      </trkpt>
      <trkpt lat="47.32635" lon="5.89005">
        <ele>222.6</ele>
        <time>2017-12-21T12:37:04Z</time>
      </trkpt>
      <trkpt lat="47.3263" lon="5.88996">
        <ele>222.6</ele>
        <time>2017-12-21T12:37:05Z</time>
      </trkpt>
      <trkpt lat="47.32625" lon="5.88987">
        <ele>222.6</ele>
        <time>2017-12-21T12:37:06Z</time>
      </trkpt>
      <trkpt lat="47.3262" lon="5.88978">
        <ele>222.6</ele>
        <time>2017-12-21T12:37:07Z</time>
      </trkpt>
      <trkpt lat="47.32614" lon="5.8897">
        <ele>222.6</ele>
        <time>2017-12-21T12:37:08Z</time>
      </trkpt>
      <trkpt lat="47.3261" lon="5.88961">
        <ele>222.6</ele>
        <time>2017-12-21T12:37:09Z</time>
      </trkpt>
      <trkpt lat="47.32606" lon="5.88952">
        <ele>222.6</ele>
        <time>2017-12-21T12:37:10Z</time>
      </trkpt>
      <trkpt lat="47.32602" lon="5.88943">
        <ele>222.6</ele>
        <time>2017-12-21T12:37:11Z</time>
      </trkpt>
      <trkpt lat="47.32597" lon="5.88935">
        <ele>222.6</ele>
        <time>2017-12-21T12:37:12Z</time>
      </trkpt>
      <trkpt lat="47.32593" lon="5.88926">
        <ele>222.6</ele>
        <time>2017-12-21T12:37:13Z</time>
      </trkpt>
      <trkpt lat="47.32588" lon="5.88917">
        <ele>222.6</ele>
        <time>2017-12-21T12:37:14Z</time>
      </trkpt>
      <trkpt lat="47.32583" lon="5.88909">
        <ele>222.6</ele>
        <time>2017-12-21T12:37:15Z</time>
      </trkpt>
      <trkpt lat="47.32579" lon="5.889">
        <ele>222.6</ele>
        <time>2017-12-21T12:37:16Z</time>
      </trkpt>
      <trkpt lat="47.32574" lon="5.88892">
        <ele>222.6</ele>
        <time>2017-12-21T12:37:17Z</time>
      </trkpt>
      <trkpt lat="47.32569" lon="5.88883">
        <ele>222.6</ele>
        <time>2017-12-21T12:37:18Z</time>
      </trkpt>
      <trkpt lat="47.32564" lon="5.88874">
        <ele>222.6</ele>
        <time>2017-12-21T12:37:19Z</time>
      </trkpt>
      <trkpt lat="47.3256" lon="5.88866">
        <ele>222.6</ele>
        <time>2017-12-21T12:37:20Z</time>
      </trkpt>
      <trkpt lat="47.32556" lon="5.88857">
        <ele>222.6</ele>
        <time>2017-12-21T12:37:21Z</time>
      </trkpt>
      <trkpt lat="47.32551" lon="5.88849">
        <ele>222.6</ele>
        <time>2017-12-21T12:37:22Z</time>
      </trkpt>
      <trkpt lat="47.32546" lon="5.8884">
        <ele>222.6</ele>
        <time>2017-12-21T12:37:23Z</time>
      </trkpt>
      <trkpt lat="47.32542" lon="5.88831">
        <ele>222.6</ele>
        <time>2017-12-21T12:37:24Z</time>
      </trkpt>
      <trkpt lat="47.32537" lon="5.88823">
        <ele>222.6</ele>
        <time>2017-12-21T12:37:25Z</time>
      </trkpt>
      <trkpt lat="47.32533" lon="5.88814">
        <ele>222.6</ele>
        <time>2017-12-21T12:37:26Z</time>
      </trkpt>
      <trkpt lat="47.32529" lon="5.88805">
        <ele>222.6</ele>
        <time>2017-12-21T12:37:27Z</time>
      </trkpt>
      <trkpt lat="47.32524" lon="5.88797">
        <ele>222.6</ele>
        <time>2017-12-21T12:37:28Z</time>
      </trkpt>
      <trkpt lat="47.32519" lon="5.88788">
        <ele>222.6</ele>
        <time>2017-12-21T12:37:29Z</time>
      </trkpt>
      <trkpt lat="47.32515" lon="5.8878">
        <ele>222.6</ele>
        <time>2017-12-21T12:37:30Z</time>
      </trkpt>
      <trkpt lat="47.3251" lon="5.88772">
        <ele>222.6</ele>
        <time>2017-12-21T12:37:31Z</time>
      </trkpt>
      <trkpt lat="47.32506" lon="5.88764">
        <ele>222.6</ele>
        <time>2017-12-21T12:37:32Z</time>
      </trkpt>
      <trkpt lat="47.32501" lon="5.88755">
        <ele>222</ele>
        <time>2017-12-21T12:37:33Z</time>
      </trkpt>
      <trkpt lat="47.32497" lon="5.88747">
        <ele>221.6</ele>
        <time>2017-12-21T12:37:34Z</time>
      </trkpt>
      <trkpt lat="47.32492" lon="5.88738">
        <ele>221.2</ele>
        <time>2017-12-21T12:37:35Z</time>
      </trkpt>
      <trkpt lat="47.32488" lon="5.8873">
        <ele>220.8</ele>
        <time>2017-12-21T12:37:36Z</time>
      </trkpt>
      <trkpt lat="47.32483" lon="5.88721">
        <ele>220.4</ele>
        <time>2017-12-21T12:37:37Z</time>
      </trkpt>
      <trkpt lat="47.32478" lon="5.88712">
        <ele>220.4</ele>
        <time>2017-12-21T12:37:38Z</time>
      </trkpt>
      <trkpt lat="47.32474" lon="5.88703">
        <ele>220.4</ele>
        <time>2017-12-21T12:37:39Z</time>
      </trkpt>
      <trkpt lat="47.32469" lon="5.88695">
        <ele>220.4</ele>
        <time>2017-12-21T12:37:40Z</time>
      </trkpt>
      <trkpt lat="47.32464" lon="5.88686">
        <ele>220.4</ele>
        <time>2017-12-21T12:37:41Z</time>
      </trkpt>
      <trkpt lat="47.3246" lon="5.88678">
        <ele>220.4</ele>
        <time>2017-12-21T12:37:42Z</time>
      </trkpt>
      <trkpt lat="47.32455" lon="5.8867">
        <ele>220.4</ele>
        <time>2017-12-21T12:37:43Z</time>
      </trkpt>
      <trkpt lat="47.3245" lon="5.88661">
        <ele>220.4</ele>
        <time>2017-12-21T12:37:44Z</time>
      </trkpt>
      <trkpt lat="47.32446" lon="5.88653">
        <ele>220.4</ele>
        <time>2017-12-21T12:37:45Z</time>
      </trkpt>
      <trkpt lat="47.32441" lon="5.88645">
        <ele>220.4</ele>
        <time>2017-12-21T12:37:46Z</time>
      </trkpt>
      <trkpt lat="47.32437" lon="5.88636">
        <ele>220.4</ele>
        <time>2017-12-21T12:37:47Z</time>
      </trkpt>
      <trkpt lat="47.32433" lon="5.88628">
        <ele>220.4</ele>
        <time>2017-12-21T12:37:48Z</time>
      </trkpt>
      <trkpt lat="47.32428" lon="5.88619">
        <ele>220.4</ele>
        <time>2017-12-21T12:37:49Z</time>
      </trkpt>
      <trkpt lat="47.32423" lon="5.88611">
        <ele>220.4</ele>
        <time>2017-12-21T12:37:50Z</time>
      </trkpt>
      <trkpt lat="47.32418" lon="5.88602">
        <ele>220</ele>
        <time>2017-12-21T12:37:51Z</time>
      </trkpt>
      <trkpt lat="47.32413" lon="5.88592">
        <ele>219.6</ele>
        <time>2017-12-21T12:37:52Z</time>
      </trkpt>
      <trkpt lat="47.32408" lon="5.88582">
        <ele>219.2</ele>
        <time>2017-12-21T12:37:53Z</time>
      </trkpt>
      <trkpt lat="47.32403" lon="5.88572">
        <ele>218.8</ele>
        <time>2017-12-21T12:37:54Z</time>
      </trkpt>
      <trkpt lat="47.32398" lon="5.88563">
        <ele>218.4</ele>
        <time>2017-12-21T12:37:55Z</time>
      </trkpt>
      <trkpt lat="47.32393" lon="5.88553">
        <ele>218.4</ele>
        <time>2017-12-21T12:37:56Z</time>
      </trkpt>
      <trkpt lat="47.32388" lon="5.88544">
        <ele>218.4</ele>
        <time>2017-12-21T12:37:57Z</time>
      </trkpt>
      <trkpt lat="47.32383" lon="5.88535">
        <ele>218</ele>
        <time>2017-12-21T12:37:58Z</time>
      </trkpt>
      <trkpt lat="47.32378" lon="5.88525">
        <ele>217.4</ele>
        <time>2017-12-21T12:37:59Z</time>
      </trkpt>
      <trkpt lat="47.32373" lon="5.88515">
        <ele>217</ele>
        <time>2017-12-21T12:38:00Z</time>
      </trkpt>
      <trkpt lat="47.32367" lon="5.88505">
        <ele>216.6</ele>
        <time>2017-12-21T12:38:01Z</time>
      </trkpt>
      <trkpt lat="47.32363" lon="5.88494">
        <ele>216.2</ele>
        <time>2017-12-21T12:38:02Z</time>
      </trkpt>
      <trkpt lat="47.32358" lon="5.88484">
        <ele>216.2</ele>
        <time>2017-12-21T12:38:03Z</time>
      </trkpt>
      <trkpt lat="47.32354" lon="5.88473">
        <ele>215.8</ele>
        <time>2017-12-21T12:38:04Z</time>
      </trkpt>
      <trkpt lat="47.3235" lon="5.88463">
        <ele>215.4</ele>
        <time>2017-12-21T12:38:05Z</time>
      </trkpt>
      <trkpt lat="47.32345" lon="5.88452">
        <ele>215</ele>
        <time>2017-12-21T12:38:06Z</time>
      </trkpt>
      <trkpt lat="47.32341" lon="5.88441">
        <ele>214.6</ele>
        <time>2017-12-21T12:38:07Z</time>
      </trkpt>
      <trkpt lat="47.32337" lon="5.88432">
        <ele>214.2</ele>
        <time>2017-12-21T12:38:08Z</time>
      </trkpt>
      <trkpt lat="47.32332" lon="5.88421">
        <ele>214.2</ele>
        <time>2017-12-21T12:38:09Z</time>
      </trkpt>
      <trkpt lat="47.32328" lon="5.8841">
        <ele>214.2</ele>
        <time>2017-12-21T12:38:10Z</time>
      </trkpt>
      <trkpt lat="47.32324" lon="5.884">
        <ele>214.2</ele>
        <time>2017-12-21T12:38:11Z</time>
      </trkpt>
      <trkpt lat="47.3232" lon="5.88389">
        <ele>214.2</ele>
        <time>2017-12-21T12:38:12Z</time>
      </trkpt>
      <trkpt lat="47.32315" lon="5.88379">
        <ele>214.2</ele>
        <time>2017-12-21T12:38:13Z</time>
      </trkpt>
      <trkpt lat="47.32311" lon="5.88369">
        <ele>214.2</ele>
        <time>2017-12-21T12:38:14Z</time>
      </trkpt>
      <trkpt lat="47.32306" lon="5.88359">
        <ele>213.8</ele>
        <time>2017-12-21T12:38:15Z</time>
      </trkpt>
      <trkpt lat="47.32302" lon="5.88349">
        <ele>213.4</ele>
        <time>2017-12-21T12:38:16Z</time>
      </trkpt>
      <trkpt lat="47.32297" lon="5.88339">
        <ele>212.8</ele>
        <time>2017-12-21T12:38:17Z</time>
      </trkpt>
      <trkpt lat="47.32293" lon="5.88329">
        <ele>212.4</ele>
        <time>2017-12-21T12:38:18Z</time>
      </trkpt>
      <trkpt lat="47.32288" lon="5.8832">
        <ele>212</ele>
        <time>2017-12-21T12:38:19Z</time>
      </trkpt>
      <trkpt lat="47.32283" lon="5.88311">
        <ele>212</ele>
        <time>2017-12-21T12:38:20Z</time>
      </trkpt>
      <trkpt lat="47.32279" lon="5.88301">
        <ele>212</ele>
        <time>2017-12-21T12:38:21Z</time>
      </trkpt>
      <trkpt lat="47.32274" lon="5.88291">
        <ele>212</ele>
        <time>2017-12-21T12:38:22Z</time>
      </trkpt>
      <trkpt lat="47.3227" lon="5.88282">
        <ele>212</ele>
        <time>2017-12-21T12:38:23Z</time>
      </trkpt>
      <trkpt lat="47.32266" lon="5.88273">
        <ele>212</ele>
        <time>2017-12-21T12:38:24Z</time>
      </trkpt>
      <trkpt lat="47.32261" lon="5.88264">
        <ele>212</ele>
        <time>2017-12-21T12:38:25Z</time>
      </trkpt>
      <trkpt lat="47.32257" lon="5.88256">
        <ele>212</ele>
        <time>2017-12-21T12:38:26Z</time>
      </trkpt>
      <trkpt lat="47.32252" lon="5.88247">
        <ele>212</ele>
        <time>2017-12-21T12:38:27Z</time>
      </trkpt>
      <trkpt lat="47.32248" lon="5.88239">
        <ele>212</ele>
        <time>2017-12-21T12:38:28Z</time>
      </trkpt>
      <trkpt lat="47.32244" lon="5.88231">
        <ele>212</ele>
        <time>2017-12-21T12:38:29Z</time>
      </trkpt>
      <trkpt lat="47.3224" lon="5.88223">
        <ele>212</ele>
        <time>2017-12-21T12:38:30Z</time>
      </trkpt>
      <trkpt lat="47.32236" lon="5.88216">
        <ele>212</ele>
        <time>2017-12-21T12:38:31Z</time>
      </trkpt>
      <trkpt lat="47.32233" lon="5.88209">
        <ele>212</ele>
        <time>2017-12-21T12:38:32Z</time>
      </trkpt>
      <trkpt lat="47.32229" lon="5.88202">
        <ele>212</ele>
        <time>2017-12-21T12:38:33Z</time>
      </trkpt>
      <trkpt lat="47.32225" lon="5.88195">
        <ele>212</ele>
        <time>2017-12-21T12:38:34Z</time>
      </trkpt>
      <trkpt lat="47.32222" lon="5.88189">
        <ele>212</ele>
        <time>2017-12-21T12:38:35Z</time>
      </trkpt>
      <trkpt lat="47.32219" lon="5.88182">
        <ele>212</ele>
        <time>2017-12-21T12:38:36Z</time>
      </trkpt>
      <trkpt lat="47.32215" lon="5.88175">
        <ele>212</ele>
        <time>2017-12-21T12:38:37Z</time>
      </trkpt>
      <trkpt lat="47.32212" lon="5.88168">
        <ele>212</ele>
        <time>2017-12-21T12:38:38Z</time>
      </trkpt>
      <trkpt lat="47.32209" lon="5.88162">
        <ele>212</ele>
        <time>2017-12-21T12:38:39Z</time>
      </trkpt>
      <trkpt lat="47.32207" lon="5.88154">
        <ele>212</ele>
        <time>2017-12-21T12:38:40Z</time>
      </trkpt>
      <trkpt lat="47.32208" lon="5.88146">
        <ele>212</ele>
        <time>2017-12-21T12:38:41Z</time>
      </trkpt>
      <trkpt lat="47.32209" lon="5.88139">
        <ele>212</ele>
        <time>2017-12-21T12:38:42Z</time>
      </trkpt>
      <trkpt lat="47.3221" lon="5.88132">
        <ele>212</ele>
        <time>2017-12-21T12:38:43Z</time>
      </trkpt>
      <trkpt lat="47.32211" lon="5.88126">
        <ele>212.4</ele>
        <time>2017-12-21T12:38:44Z</time>
      </trkpt>
      <trkpt lat="47.32211" lon="5.8812">
        <ele>212.8</ele>
        <time>2017-12-21T12:38:45Z</time>
      </trkpt>
      <trkpt lat="47.3221" lon="5.88113">
        <ele>213.2</ele>
        <time>2017-12-21T12:38:46Z</time>
      </trkpt>
      <trkpt lat="47.3221" lon="5.88107">
        <ele>213.8</ele>
        <time>2017-12-21T12:38:47Z</time>
      </trkpt>
      <trkpt lat="47.32209" lon="5.88102">
        <ele>214.2</ele>
        <time>2017-12-21T12:38:48Z</time>
      </trkpt>
      <trkpt lat="47.32209" lon="5.88096">
        <ele>214.2</ele>
        <time>2017-12-21T12:38:49Z</time>
      </trkpt>
      <trkpt lat="47.32208" lon="5.88091">
        <ele>214.2</ele>
        <time>2017-12-21T12:38:50Z</time>
      </trkpt>
      <trkpt lat="47.32208" lon="5.88086">
        <ele>214.6</ele>
        <time>2017-12-21T12:38:51Z</time>
      </trkpt>
      <trkpt lat="47.32208" lon="5.88081">
        <ele>215</ele>
        <time>2017-12-21T12:38:52Z</time>
      </trkpt>
      <trkpt lat="47.32207" lon="5.88076">
        <ele>215.4</ele>
        <time>2017-12-21T12:38:53Z</time>
      </trkpt>
      <trkpt lat="47.32207" lon="5.88072">
        <ele>215.8</ele>
        <time>2017-12-21T12:38:54Z</time>
      </trkpt>
      <trkpt lat="47.32207" lon="5.88069">
        <ele>216.2</ele>
        <time>2017-12-21T12:38:55Z</time>
      </trkpt>
      <trkpt lat="47.32206" lon="5.88064">
        <ele>216.2</ele>
        <time>2017-12-21T12:38:56Z</time>
      </trkpt>
      <trkpt lat="47.32205" lon="5.88059">
        <ele>216.2</ele>
        <time>2017-12-21T12:38:57Z</time>
      </trkpt>
      <trkpt lat="47.32204" lon="5.88054">
        <ele>216.2</ele>
        <time>2017-12-21T12:38:58Z</time>
      </trkpt>
      <trkpt lat="47.32203" lon="5.88049">
        <ele>216.2</ele>
        <time>2017-12-21T12:38:59Z</time>
      </trkpt>
      <trkpt lat="47.32203" lon="5.88046">
        <ele>216.6</ele>
        <time>2017-12-21T12:39:00Z</time>
      </trkpt>
      <trkpt lat="47.32202" lon="5.88042">
        <ele>217</ele>
        <time>2017-12-21T12:39:01Z</time>
      </trkpt>
      <trkpt lat="47.32201" lon="5.88038">
        <ele>217.4</ele>
        <time>2017-12-21T12:39:02Z</time>
      </trkpt>
      <trkpt lat="47.322" lon="5.88033">
        <ele>217.8</ele>
        <time>2017-12-21T12:39:03Z</time>
      </trkpt>
      <trkpt lat="47.32199" lon="5.88028">
        <ele>218.2</ele>
        <time>2017-12-21T12:39:04Z</time>
      </trkpt>
      <trkpt lat="47.32199" lon="5.88025">
        <ele>218.2</ele>
        <time>2017-12-21T12:39:05Z</time>
      </trkpt>
      <trkpt lat="47.32198" lon="5.88021">
        <ele>218.6</ele>
        <time>2017-12-21T12:39:06Z</time>
      </trkpt>
      <trkpt lat="47.32198" lon="5.88017">
        <ele>219</ele>
        <time>2017-12-21T12:39:07Z</time>
      </trkpt>
      <trkpt lat="47.32197" lon="5.88012">
        <ele>219.4</ele>
        <time>2017-12-21T12:39:08Z</time>
      </trkpt>
      <trkpt lat="47.32196" lon="5.88008">
        <ele>220.4</ele>
        <time>2017-12-21T12:39:09Z</time>
      </trkpt>
      <trkpt lat="47.32195" lon="5.88004">
        <ele>220.4</ele>
        <time>2017-12-21T12:39:10Z</time>
      </trkpt>
      <trkpt lat="47.32195" lon="5.88">
        <ele>220.4</ele>
        <time>2017-12-21T12:39:11Z</time>
      </trkpt>
      <trkpt lat="47.32194" lon="5.87996">
        <ele>220.8</ele>
        <time>2017-12-21T12:39:12Z</time>
      </trkpt>
      <trkpt lat="47.32193" lon="5.87991">
        <ele>221.2</ele>
        <time>2017-12-21T12:39:13Z</time>
      </trkpt>
      <trkpt lat="47.32193" lon="5.87986">
        <ele>221.6</ele>
        <time>2017-12-21T12:39:14Z</time>
      </trkpt>
      <trkpt lat="47.32193" lon="5.87981">
        <ele>222</ele>
        <time>2017-12-21T12:39:15Z</time>
      </trkpt>
      <trkpt lat="47.32192" lon="5.87977">
        <ele>222.6</ele>
        <time>2017-12-21T12:39:16Z</time>
      </trkpt>
      <trkpt lat="47.32193" lon="5.87973">
        <ele>222.6</ele>
        <time>2017-12-21T12:39:17Z</time>
      </trkpt>
      <trkpt lat="47.32192" lon="5.87969">
        <ele>222.6</ele>
        <time>2017-12-21T12:39:18Z</time>
      </trkpt>
      <trkpt lat="47.32192" lon="5.87965">
        <ele>222.6</ele>
        <time>2017-12-21T12:39:19Z</time>
      </trkpt>
      <trkpt lat="47.32191" lon="5.8796">
        <ele>222.6</ele>
        <time>2017-12-21T12:39:20Z</time>
      </trkpt>
      <trkpt lat="47.32191" lon="5.87956">
        <ele>223</ele>
        <time>2017-12-21T12:39:21Z</time>
      </trkpt>
      <trkpt lat="47.32191" lon="5.87951">
        <ele>223.4</ele>
        <time>2017-12-21T12:39:22Z</time>
      </trkpt>
      <trkpt lat="47.32191" lon="5.87946">
        <ele>223.8</ele>
        <time>2017-12-21T12:39:23Z</time>
      </trkpt>
      <trkpt lat="47.32191" lon="5.87941">
        <ele>224.4</ele>
        <time>2017-12-21T12:39:24Z</time>
      </trkpt>
      <trkpt lat="47.32192" lon="5.87937">
        <ele>224.8</ele>
        <time>2017-12-21T12:39:25Z</time>
      </trkpt>
      <trkpt lat="47.32193" lon="5.87933">
        <ele>224.8</ele>
        <time>2017-12-21T12:39:26Z</time>
      </trkpt>
      <trkpt lat="47.32194" lon="5.87928">
        <ele>224.8</ele>
        <time>2017-12-21T12:39:27Z</time>
      </trkpt>
      <trkpt lat="47.32195" lon="5.87923">
        <ele>224.8</ele>
        <time>2017-12-21T12:39:28Z</time>
      </trkpt>
      <trkpt lat="47.32195" lon="5.87919">
        <ele>225.2</ele>
        <time>2017-12-21T12:39:29Z</time>
      </trkpt>
      <trkpt lat="47.32196" lon="5.87915">
        <ele>225.6</ele>
        <time>2017-12-21T12:39:30Z</time>
      </trkpt>
      <trkpt lat="47.32197" lon="5.8791">
        <ele>226</ele>
        <time>2017-12-21T12:39:31Z</time>
      </trkpt>
      <trkpt lat="47.32197" lon="5.87905">
        <ele>226.4</ele>
        <time>2017-12-21T12:39:32Z</time>
      </trkpt>
      <trkpt lat="47.32198" lon="5.87901">
        <ele>226.8</ele>
        <time>2017-12-21T12:39:33Z</time>
      </trkpt>
      <trkpt lat="47.32198" lon="5.87897">
        <ele>226.8</ele>
        <time>2017-12-21T12:39:34Z</time>
      </trkpt>
      <trkpt lat="47.32198" lon="5.87892">
        <ele>226.8</ele>
        <time>2017-12-21T12:39:35Z</time>
      </trkpt>
      <trkpt lat="47.32198" lon="5.87888">
        <ele>227.4</ele>
        <time>2017-12-21T12:39:36Z</time>
      </trkpt>
      <trkpt lat="47.32198" lon="5.87883">
        <ele>227.8</ele>
        <time>2017-12-21T12:39:37Z</time>
      </trkpt>
      <trkpt lat="47.32198" lon="5.87878">
        <ele>228.2</ele>
        <time>2017-12-21T12:39:38Z</time>
      </trkpt>
      <trkpt lat="47.32198" lon="5.87873">
        <ele>228.6</ele>
        <time>2017-12-21T12:39:39Z</time>
      </trkpt>
      <trkpt lat="47.32199" lon="5.87868">
        <ele>229</ele>
        <time>2017-12-21T12:39:40Z</time>
      </trkpt>
      <trkpt lat="47.322" lon="5.87863">
        <ele>229</ele>
        <time>2017-12-21T12:39:41Z</time>
      </trkpt>
      <trkpt lat="47.32201" lon="5.87859">
        <ele>229</ele>
        <time>2017-12-21T12:39:42Z</time>
      </trkpt>
      <trkpt lat="47.32202" lon="5.87854">
        <ele>229</ele>
        <time>2017-12-21T12:39:43Z</time>
      </trkpt>
      <trkpt lat="47.32203" lon="5.87849">
        <ele>229.4</ele>
        <time>2017-12-21T12:39:44Z</time>
      </trkpt>
      <trkpt lat="47.32204" lon="5.87843">
        <ele>229.8</ele>
        <time>2017-12-21T12:39:45Z</time>
      </trkpt>
      <trkpt lat="47.32204" lon="5.87838">
        <ele>230.2</ele>
        <time>2017-12-21T12:39:46Z</time>
      </trkpt>
      <trkpt lat="47.32204" lon="5.87833">
        <ele>230.6</ele>
        <time>2017-12-21T12:39:47Z</time>
      </trkpt>
      <trkpt lat="47.32206" lon="5.87828">
        <ele>231</ele>
        <time>2017-12-21T12:39:48Z</time>
      </trkpt>
      <trkpt lat="47.32207" lon="5.87823">
        <ele>231</ele>
        <time>2017-12-21T12:39:49Z</time>
      </trkpt>
      <trkpt lat="47.32209" lon="5.87818">
        <ele>231</ele>
        <time>2017-12-21T12:39:50Z</time>
      </trkpt>
      <trkpt lat="47.32209" lon="5.87812">
        <ele>231</ele>
        <time>2017-12-21T12:39:51Z</time>
      </trkpt>
      <trkpt lat="47.32211" lon="5.87807">
        <ele>231</ele>
        <time>2017-12-21T12:39:52Z</time>
      </trkpt>
      <trkpt lat="47.32212" lon="5.87803">
        <ele>231</ele>
        <time>2017-12-21T12:39:53Z</time>
      </trkpt>
      <trkpt lat="47.32213" lon="5.87798">
        <ele>231</ele>
        <time>2017-12-21T12:39:54Z</time>
      </trkpt>
      <trkpt lat="47.32215" lon="5.87793">
        <ele>231</ele>
        <time>2017-12-21T12:39:55Z</time>
      </trkpt>
      <trkpt lat="47.32217" lon="5.87789">
        <ele>231</ele>
        <time>2017-12-21T12:39:56Z</time>
      </trkpt>
      <trkpt lat="47.32217" lon="5.87784">
        <ele>231</ele>
        <time>2017-12-21T12:39:57Z</time>
      </trkpt>
      <trkpt lat="47.32218" lon="5.87779">
        <ele>231</ele>
        <time>2017-12-21T12:39:58Z</time>
      </trkpt>
      <trkpt lat="47.32218" lon="5.87774">
        <ele>231</ele>
        <time>2017-12-21T12:39:59Z</time>
      </trkpt>
      <trkpt lat="47.32219" lon="5.87769">
        <ele>231</ele>
        <time>2017-12-21T12:40:00Z</time>
      </trkpt>
      <trkpt lat="47.3222" lon="5.87764">
        <ele>231</ele>
        <time>2017-12-21T12:40:01Z</time>
      </trkpt>
      <trkpt lat="47.3222" lon="5.87758">
        <ele>231</ele>
        <time>2017-12-21T12:40:02Z</time>
      </trkpt>
      <trkpt lat="47.3222" lon="5.87753">
        <ele>231</ele>
        <time>2017-12-21T12:40:03Z</time>
      </trkpt>
      <trkpt lat="47.32221" lon="5.87748">
        <ele>231</ele>
        <time>2017-12-21T12:40:04Z</time>
      </trkpt>
      <trkpt lat="47.32221" lon="5.87743">
        <ele>231</ele>
        <time>2017-12-21T12:40:05Z</time>
      </trkpt>
      <trkpt lat="47.32221" lon="5.87738">
        <ele>231</ele>
        <time>2017-12-21T12:40:06Z</time>
      </trkpt>
      <trkpt lat="47.3222" lon="5.87733">
        <ele>231</ele>
        <time>2017-12-21T12:40:07Z</time>
      </trkpt>
      <trkpt lat="47.3222" lon="5.87728">
        <ele>231</ele>
        <time>2017-12-21T12:40:08Z</time>
      </trkpt>
      <trkpt lat="47.3222" lon="5.87723">
        <ele>231</ele>
        <time>2017-12-21T12:40:09Z</time>
      </trkpt>
      <trkpt lat="47.3222" lon="5.87718">
        <ele>231</ele>
        <time>2017-12-21T12:40:10Z</time>
      </trkpt>
      <trkpt lat="47.3222" lon="5.87713">
        <ele>231.4</ele>
        <time>2017-12-21T12:40:11Z</time>
      </trkpt>
      <trkpt lat="47.3222" lon="5.87709">
        <ele>231.8</ele>
        <time>2017-12-21T12:40:12Z</time>
      </trkpt>
      <trkpt lat="47.3222" lon="5.87704">
        <ele>232.2</ele>
        <time>2017-12-21T12:40:13Z</time>
      </trkpt>
      <trkpt lat="47.3222" lon="5.87699">
        <ele>232.6</ele>
        <time>2017-12-21T12:40:14Z</time>
      </trkpt>
      <trkpt lat="47.3222" lon="5.87694">
        <ele>233</ele>
        <time>2017-12-21T12:40:15Z</time>
      </trkpt>
      <trkpt lat="47.32219" lon="5.87689">
        <ele>233</ele>
        <time>2017-12-21T12:40:16Z</time>
      </trkpt>
      <trkpt lat="47.32219" lon="5.87685">
        <ele>233</ele>
        <time>2017-12-21T12:40:17Z</time>
      </trkpt>
      <trkpt lat="47.32219" lon="5.87679">
        <ele>233</ele>
        <time>2017-12-21T12:40:18Z</time>
      </trkpt>
      <trkpt lat="47.3222" lon="5.87675">
        <ele>233</ele>
        <time>2017-12-21T12:40:19Z</time>
      </trkpt>
      <trkpt lat="47.32219" lon="5.8767">
        <ele>233</ele>
        <time>2017-12-21T12:40:20Z</time>
      </trkpt>
      <trkpt lat="47.32219" lon="5.87665">
        <ele>233</ele>
        <time>2017-12-21T12:40:21Z</time>
      </trkpt>
      <trkpt lat="47.32219" lon="5.8766">
        <ele>233</ele>
        <time>2017-12-21T12:40:22Z</time>
      </trkpt>
      <trkpt lat="47.32219" lon="5.87655">
        <ele>233</ele>
        <time>2017-12-21T12:40:23Z</time>
      </trkpt>
      <trkpt lat="47.32219" lon="5.8765">
        <ele>233</ele>
        <time>2017-12-21T12:40:24Z</time>
      </trkpt>
      <trkpt lat="47.32219" lon="5.87645">
        <ele>233</ele>
        <time>2017-12-21T12:40:25Z</time>
      </trkpt>
      <trkpt lat="47.32218" lon="5.8764">
        <ele>233</ele>
        <time>2017-12-21T12:40:26Z</time>
      </trkpt>
      <trkpt lat="47.32218" lon="5.87635">
        <ele>233</ele>
        <time>2017-12-21T12:40:27Z</time>
      </trkpt>
      <trkpt lat="47.32218" lon="5.87631">
        <ele>233</ele>
        <time>2017-12-21T12:40:28Z</time>
      </trkpt>
      <trkpt lat="47.32218" lon="5.87626">
        <ele>233</ele>
        <time>2017-12-21T12:40:29Z</time>
      </trkpt>
      <trkpt lat="47.32218" lon="5.87621">
        <ele>233</ele>
        <time>2017-12-21T12:40:30Z</time>
      </trkpt>
      <trkpt lat="47.32217" lon="5.87616">
        <ele>233</ele>
        <time>2017-12-21T12:40:31Z</time>
      </trkpt>
      <trkpt lat="47.32217" lon="5.87611">
        <ele>233</ele>
        <time>2017-12-21T12:40:32Z</time>
      </trkpt>
      <trkpt lat="47.32216" lon="5.87607">
        <ele>233</ele>
        <time>2017-12-21T12:40:33Z</time>
      </trkpt>
      <trkpt lat="47.32216" lon="5.87602">
        <ele>233</ele>
        <time>2017-12-21T12:40:34Z</time>
      </trkpt>
      <trkpt lat="47.32215" lon="5.87597">
        <ele>233</ele>
        <time>2017-12-21T12:40:35Z</time>
      </trkpt>
      <trkpt lat="47.32215" lon="5.87592">
        <ele>233</ele>
        <time>2017-12-21T12:40:36Z</time>
      </trkpt>
      <trkpt lat="47.32214" lon="5.87587">
        <ele>233.6</ele>
        <time>2017-12-21T12:40:37Z</time>
      </trkpt>
      <trkpt lat="47.32214" lon="5.87582">
        <ele>234</ele>
        <time>2017-12-21T12:40:38Z</time>
      </trkpt>
      <trkpt lat="47.32215" lon="5.87577">
        <ele>234.4</ele>
        <time>2017-12-21T12:40:39Z</time>
      </trkpt>
      <trkpt lat="47.32214" lon="5.87573">
        <ele>234.8</ele>
        <time>2017-12-21T12:40:40Z</time>
      </trkpt>
      <trkpt lat="47.32214" lon="5.87568">
        <ele>235.2</ele>
        <time>2017-12-21T12:40:41Z</time>
      </trkpt>
      <trkpt lat="47.32213" lon="5.87563">
        <ele>235.2</ele>
        <time>2017-12-21T12:40:42Z</time>
      </trkpt>
      <trkpt lat="47.32213" lon="5.87558">
        <ele>235.2</ele>
        <time>2017-12-21T12:40:43Z</time>
      </trkpt>
      <trkpt lat="47.32213" lon="5.87553">
        <ele>235.2</ele>
        <time>2017-12-21T12:40:44Z</time>
      </trkpt>
      <trkpt lat="47.32212" lon="5.87548">
        <ele>235.2</ele>
        <time>2017-12-21T12:40:45Z</time>
      </trkpt>
      <trkpt lat="47.32212" lon="5.87543">
        <ele>235.2</ele>
        <time>2017-12-21T12:40:46Z</time>
      </trkpt>
      <trkpt lat="47.32212" lon="5.87538">
        <ele>235.2</ele>
        <time>2017-12-21T12:40:47Z</time>
      </trkpt>
      <trkpt lat="47.32211" lon="5.87534">
        <ele>235.2</ele>
        <time>2017-12-21T12:40:48Z</time>
      </trkpt>
      <trkpt lat="47.32211" lon="5.87528">
        <ele>235.2</ele>
        <time>2017-12-21T12:40:49Z</time>
      </trkpt>
      <trkpt lat="47.32211" lon="5.87523">
        <ele>235.2</ele>
        <time>2017-12-21T12:40:50Z</time>
      </trkpt>
      <trkpt lat="47.32211" lon="5.87518">
        <ele>235.6</ele>
        <time>2017-12-21T12:40:51Z</time>
      </trkpt>
      <trkpt lat="47.32211" lon="5.87512">
        <ele>236</ele>
        <time>2017-12-21T12:40:52Z</time>
      </trkpt>
      <trkpt lat="47.32211" lon="5.87507">
        <ele>236.4</ele>
        <time>2017-12-21T12:40:53Z</time>
      </trkpt>
      <trkpt lat="47.3221" lon="5.87502">
        <ele>236.8</ele>
        <time>2017-12-21T12:40:54Z</time>
      </trkpt>
      <trkpt lat="47.3221" lon="5.87496">
        <ele>237.2</ele>
        <time>2017-12-21T12:40:55Z</time>
      </trkpt>
      <trkpt lat="47.3221" lon="5.87491">
        <ele>237.2</ele>
        <time>2017-12-21T12:40:56Z</time>
      </trkpt>
      <trkpt lat="47.3221" lon="5.87486">
        <ele>237.2</ele>
        <time>2017-12-21T12:40:57Z</time>
      </trkpt>
      <trkpt lat="47.3221" lon="5.87481">
        <ele>237.2</ele>
        <time>2017-12-21T12:40:58Z</time>
      </trkpt>
      <trkpt lat="47.32211" lon="5.87476">
        <ele>237.2</ele>
        <time>2017-12-21T12:40:59Z</time>
      </trkpt>
      <trkpt lat="47.32211" lon="5.87471">
        <ele>237.2</ele>
        <time>2017-12-21T12:41:00Z</time>
      </trkpt>
      <trkpt lat="47.32212" lon="5.87466">
        <ele>237.2</ele>
        <time>2017-12-21T12:41:01Z</time>
      </trkpt>
      <trkpt lat="47.32212" lon="5.87461">
        <ele>237.2</ele>
        <time>2017-12-21T12:41:02Z</time>
      </trkpt>
      <trkpt lat="47.32213" lon="5.87456">
        <ele>237.2</ele>
        <time>2017-12-21T12:41:03Z</time>
      </trkpt>
      <trkpt lat="47.32214" lon="5.8745">
        <ele>237.2</ele>
        <time>2017-12-21T12:41:04Z</time>
      </trkpt>
      <trkpt lat="47.32215" lon="5.87445">
        <ele>237.2</ele>
        <time>2017-12-21T12:41:05Z</time>
      </trkpt>
      <trkpt lat="47.32216" lon="5.87441">
        <ele>237.2</ele>
        <time>2017-12-21T12:41:06Z</time>
      </trkpt>
      <trkpt lat="47.32217" lon="5.87436">
        <ele>237.2</ele>
        <time>2017-12-21T12:41:07Z</time>
      </trkpt>
      <trkpt lat="47.32219" lon="5.8743">
        <ele>237.2</ele>
        <time>2017-12-21T12:41:08Z</time>
      </trkpt>
      <trkpt lat="47.3222" lon="5.87426">
        <ele>237.6</ele>
        <time>2017-12-21T12:41:09Z</time>
      </trkpt>
      <trkpt lat="47.32221" lon="5.8742">
        <ele>238</ele>
        <time>2017-12-21T12:41:10Z</time>
      </trkpt>
      <trkpt lat="47.32222" lon="5.87415">
        <ele>238.4</ele>
        <time>2017-12-21T12:41:11Z</time>
      </trkpt>
      <trkpt lat="47.32222" lon="5.8741">
        <ele>238.8</ele>
        <time>2017-12-21T12:41:12Z</time>
      </trkpt>
      <trkpt lat="47.32223" lon="5.87405">
        <ele>239.2</ele>
        <time>2017-12-21T12:41:13Z</time>
      </trkpt>
      <trkpt lat="47.32223" lon="5.87399">
        <ele>239.2</ele>
        <time>2017-12-21T12:41:14Z</time>
      </trkpt>
      <trkpt lat="47.32224" lon="5.87394">
        <ele>239.2</ele>
        <time>2017-12-21T12:41:15Z</time>
      </trkpt>
      <trkpt lat="47.32225" lon="5.87389">
        <ele>239.2</ele>
        <time>2017-12-21T12:41:16Z</time>
      </trkpt>
      <trkpt lat="47.32225" lon="5.87384">
        <ele>239.2</ele>
        <time>2017-12-21T12:41:17Z</time>
      </trkpt>
      <trkpt lat="47.32226" lon="5.87379">
        <ele>239.2</ele>
        <time>2017-12-21T12:41:18Z</time>
      </trkpt>
      <trkpt lat="47.32226" lon="5.87374">
        <ele>239.2</ele>
        <time>2017-12-21T12:41:19Z</time>
      </trkpt>
      <trkpt lat="47.32226" lon="5.87369">
        <ele>239.2</ele>
        <time>2017-12-21T12:41:20Z</time>
      </trkpt>
      <trkpt lat="47.32226" lon="5.87363">
        <ele>239.2</ele>
        <time>2017-12-21T12:41:21Z</time>
      </trkpt>
      <trkpt lat="47.32226" lon="5.87357">
        <ele>239.2</ele>
        <time>2017-12-21T12:41:22Z</time>
      </trkpt>
      <trkpt lat="47.32227" lon="5.87351">
        <ele>239.2</ele>
        <time>2017-12-21T12:41:23Z</time>
      </trkpt>
      <trkpt lat="47.32228" lon="5.87344">
        <ele>239.2</ele>
        <time>2017-12-21T12:41:24Z</time>
      </trkpt>
      <trkpt lat="47.32228" lon="5.87338">
        <ele>239.2</ele>
        <time>2017-12-21T12:41:25Z</time>
      </trkpt>
      <trkpt lat="47.32229" lon="5.87331">
        <ele>239.2</ele>
        <time>2017-12-21T12:41:26Z</time>
      </trkpt>
      <trkpt lat="47.32229" lon="5.87325">
        <ele>239.2</ele>
        <time>2017-12-21T12:41:27Z</time>
      </trkpt>
      <trkpt lat="47.32229" lon="5.87319">
        <ele>239.2</ele>
        <time>2017-12-21T12:41:28Z</time>
      </trkpt>
      <trkpt lat="47.32229" lon="5.87312">
        <ele>239.2</ele>
        <time>2017-12-21T12:41:29Z</time>
      </trkpt>
      <trkpt lat="47.32229" lon="5.87305">
        <ele>239.2</ele>
        <time>2017-12-21T12:41:30Z</time>
      </trkpt>
      <trkpt lat="47.32229" lon="5.87298">
        <ele>239.2</ele>
        <time>2017-12-21T12:41:31Z</time>
      </trkpt>
      <trkpt lat="47.32229" lon="5.87291">
        <ele>239.2</ele>
        <time>2017-12-21T12:41:32Z</time>
      </trkpt>
      <trkpt lat="47.32229" lon="5.87283">
        <ele>239.2</ele>
        <time>2017-12-21T12:41:33Z</time>
      </trkpt>
      <trkpt lat="47.32229" lon="5.87276">
        <ele>239.2</ele>
        <time>2017-12-21T12:41:34Z</time>
      </trkpt>
      <trkpt lat="47.3223" lon="5.87268">
        <ele>239.2</ele>
        <time>2017-12-21T12:41:35Z</time>
      </trkpt>
      <trkpt lat="47.3223" lon="5.8726">
        <ele>239.2</ele>
        <time>2017-12-21T12:41:36Z</time>
      </trkpt>
      <trkpt lat="47.3223" lon="5.87252">
        <ele>239.2</ele>
        <time>2017-12-21T12:41:37Z</time>
      </trkpt>
      <trkpt lat="47.3223" lon="5.87244">
        <ele>239.2</ele>
        <time>2017-12-21T12:41:38Z</time>
      </trkpt>
      <trkpt lat="47.3223" lon="5.87237">
        <ele>239.2</ele>
        <time>2017-12-21T12:41:39Z</time>
      </trkpt>
      <trkpt lat="47.3223" lon="5.87229">
        <ele>239.2</ele>
        <time>2017-12-21T12:41:40Z</time>
      </trkpt>
      <trkpt lat="47.3223" lon="5.87221">
        <ele>239.2</ele>
        <time>2017-12-21T12:41:41Z</time>
      </trkpt>
      <trkpt lat="47.3223" lon="5.87214">
        <ele>239.2</ele>
        <time>2017-12-21T12:41:42Z</time>
      </trkpt>
      <trkpt lat="47.32231" lon="5.87206">
        <ele>239.2</ele>
        <time>2017-12-21T12:41:43Z</time>
      </trkpt>
      <trkpt lat="47.32231" lon="5.87199">
        <ele>239.2</ele>
        <time>2017-12-21T12:41:44Z</time>
      </trkpt>
      <trkpt lat="47.32231" lon="5.87191">
        <ele>239.2</ele>
        <time>2017-12-21T12:41:45Z</time>
      </trkpt>
      <trkpt lat="47.32231" lon="5.87184">
        <ele>239.2</ele>
        <time>2017-12-21T12:41:46Z</time>
      </trkpt>
      <trkpt lat="47.32231" lon="5.87178">
        <ele>239.2</ele>
        <time>2017-12-21T12:41:47Z</time>
      </trkpt>
      <trkpt lat="47.32231" lon="5.87171">
        <ele>239.2</ele>
        <time>2017-12-21T12:41:48Z</time>
      </trkpt>
      <trkpt lat="47.32231" lon="5.87164">
        <ele>239.2</ele>
        <time>2017-12-21T12:41:49Z</time>
      </trkpt>
      <trkpt lat="47.32231" lon="5.87157">
        <ele>239.2</ele>
        <time>2017-12-21T12:41:50Z</time>
      </trkpt>
      <trkpt lat="47.3223" lon="5.8715">
        <ele>239.2</ele>
        <time>2017-12-21T12:41:51Z</time>
      </trkpt>
      <trkpt lat="47.3223" lon="5.87143">
        <ele>239.2</ele>
        <time>2017-12-21T12:41:52Z</time>
      </trkpt>
      <trkpt lat="47.3223" lon="5.87135">
        <ele>239.2</ele>
        <time>2017-12-21T12:41:53Z</time>
      </trkpt>
      <trkpt lat="47.3223" lon="5.87128">
        <ele>239.2</ele>
        <time>2017-12-21T12:41:54Z</time>
      </trkpt>
      <trkpt lat="47.3223" lon="5.8712">
        <ele>239.2</ele>
        <time>2017-12-21T12:41:55Z</time>
      </trkpt>
      <trkpt lat="47.32229" lon="5.87112">
        <ele>239.2</ele>
        <time>2017-12-21T12:41:56Z</time>
      </trkpt>
      <trkpt lat="47.32229" lon="5.87105">
        <ele>239.2</ele>
        <time>2017-12-21T12:41:57Z</time>
      </trkpt>
      <trkpt lat="47.32228" lon="5.87097">
        <ele>239.2</ele>
        <time>2017-12-21T12:41:58Z</time>
      </trkpt>
      <trkpt lat="47.32228" lon="5.8709">
        <ele>239.2</ele>
        <time>2017-12-21T12:41:59Z</time>
      </trkpt>
      <trkpt lat="47.32228" lon="5.87082">
        <ele>239.2</ele>
        <time>2017-12-21T12:42:00Z</time>
      </trkpt>
      <trkpt lat="47.32228" lon="5.87074">
        <ele>239.2</ele>
        <time>2017-12-21T12:42:01Z</time>
      </trkpt>
      <trkpt lat="47.32228" lon="5.87067">
        <ele>238.4</ele>
        <time>2017-12-21T12:42:02Z</time>
      </trkpt>
      <trkpt lat="47.32228" lon="5.87059">
        <ele>238</ele>
        <time>2017-12-21T12:42:03Z</time>
      </trkpt>
      <trkpt lat="47.32228" lon="5.87051">
        <ele>237.6</ele>
        <time>2017-12-21T12:42:04Z</time>
      </trkpt>
      <trkpt lat="47.32229" lon="5.87042">
        <ele>237.2</ele>
        <time>2017-12-21T12:42:05Z</time>
      </trkpt>
      <trkpt lat="47.32229" lon="5.87034">
        <ele>237.2</ele>
        <time>2017-12-21T12:42:06Z</time>
      </trkpt>
      <trkpt lat="47.3223" lon="5.87026">
        <ele>237.2</ele>
        <time>2017-12-21T12:42:07Z</time>
      </trkpt>
      <trkpt lat="47.3223" lon="5.87018">
        <ele>237.2</ele>
        <time>2017-12-21T12:42:08Z</time>
      </trkpt>
      <trkpt lat="47.32231" lon="5.87009">
        <ele>237.2</ele>
        <time>2017-12-21T12:42:09Z</time>
      </trkpt>
      <trkpt lat="47.32232" lon="5.87001">
        <ele>237.2</ele>
        <time>2017-12-21T12:42:10Z</time>
      </trkpt>
      <trkpt lat="47.32233" lon="5.86993">
        <ele>237.2</ele>
        <time>2017-12-21T12:42:11Z</time>
      </trkpt>
      <trkpt lat="47.32233" lon="5.86985">
        <ele>237.2</ele>
        <time>2017-12-21T12:42:12Z</time>
      </trkpt>
      <trkpt lat="47.32235" lon="5.86976">
        <ele>237.2</ele>
        <time>2017-12-21T12:42:13Z</time>
      </trkpt>
      <trkpt lat="47.32236" lon="5.86968">
        <ele>237.2</ele>
        <time>2017-12-21T12:42:14Z</time>
      </trkpt>
      <trkpt lat="47.32236" lon="5.86961">
        <ele>237.2</ele>
        <time>2017-12-21T12:42:15Z</time>
      </trkpt>
      <trkpt lat="47.32237" lon="5.86953">
        <ele>237.2</ele>
        <time>2017-12-21T12:42:16Z</time>
      </trkpt>
      <trkpt lat="47.32239" lon="5.86944">
        <ele>237.2</ele>
        <time>2017-12-21T12:42:17Z</time>
      </trkpt>
      <trkpt lat="47.32239" lon="5.86936">
        <ele>237.2</ele>
        <time>2017-12-21T12:42:18Z</time>
      </trkpt>
      <trkpt lat="47.3224" lon="5.86928">
        <ele>237.2</ele>
        <time>2017-12-21T12:42:19Z</time>
      </trkpt>
      <trkpt lat="47.32241" lon="5.8692">
        <ele>237.2</ele>
        <time>2017-12-21T12:42:20Z</time>
      </trkpt>
      <trkpt lat="47.32242" lon="5.86911">
        <ele>236.8</ele>
        <time>2017-12-21T12:42:21Z</time>
      </trkpt>
      <trkpt lat="47.32243" lon="5.86904">
        <ele>236.4</ele>
        <time>2017-12-21T12:42:22Z</time>
      </trkpt>
      <trkpt lat="47.32244" lon="5.86896">
        <ele>236</ele>
        <time>2017-12-21T12:42:23Z</time>
      </trkpt>
      <trkpt lat="47.32246" lon="5.86889">
        <ele>235.6</ele>
        <time>2017-12-21T12:42:24Z</time>
      </trkpt>
      <trkpt lat="47.32247" lon="5.86882">
        <ele>235.2</ele>
        <time>2017-12-21T12:42:25Z</time>
      </trkpt>
      <trkpt lat="47.32249" lon="5.86876">
        <ele>235.2</ele>
        <time>2017-12-21T12:42:26Z</time>
      </trkpt>
      <trkpt lat="47.3225" lon="5.8687">
        <ele>235.2</ele>
        <time>2017-12-21T12:42:27Z</time>
      </trkpt>
      <trkpt lat="47.32252" lon="5.86865">
        <ele>235.2</ele>
        <time>2017-12-21T12:42:28Z</time>
      </trkpt>
      <trkpt lat="47.32253" lon="5.86859">
        <ele>235.2</ele>
        <time>2017-12-21T12:42:29Z</time>
      </trkpt>
      <trkpt lat="47.32255" lon="5.86853">
        <ele>235.2</ele>
        <time>2017-12-21T12:42:30Z</time>
      </trkpt>
      <trkpt lat="47.32256" lon="5.86848">
        <ele>235.2</ele>
        <time>2017-12-21T12:42:31Z</time>
      </trkpt>
      <trkpt lat="47.32258" lon="5.86843">
        <ele>235.2</ele>
        <time>2017-12-21T12:42:32Z</time>
      </trkpt>
      <trkpt lat="47.3226" lon="5.86838">
        <ele>235.6</ele>
        <time>2017-12-21T12:42:33Z</time>
      </trkpt>
      <trkpt lat="47.32262" lon="5.86833">
        <ele>236</ele>
        <time>2017-12-21T12:42:34Z</time>
      </trkpt>
      <trkpt lat="47.32264" lon="5.86827">
        <ele>236.4</ele>
        <time>2017-12-21T12:42:35Z</time>
      </trkpt>
      <trkpt lat="47.32265" lon="5.86821">
        <ele>236.8</ele>
        <time>2017-12-21T12:42:36Z</time>
      </trkpt>
      <trkpt lat="47.32267" lon="5.86816">
        <ele>237.2</ele>
        <time>2017-12-21T12:42:37Z</time>
      </trkpt>
      <trkpt lat="47.32268" lon="5.8681">
        <ele>237.2</ele>
        <time>2017-12-21T12:42:38Z</time>
      </trkpt>
      <trkpt lat="47.3227" lon="5.86804">
        <ele>237.2</ele>
        <time>2017-12-21T12:42:39Z</time>
      </trkpt>
      <trkpt lat="47.32271" lon="5.86799">
        <ele>237.2</ele>
        <time>2017-12-21T12:42:40Z</time>
      </trkpt>
      <trkpt lat="47.32274" lon="5.86792">
        <ele>237.2</ele>
        <time>2017-12-21T12:42:41Z</time>
      </trkpt>
      <trkpt lat="47.32276" lon="5.86786">
        <ele>237.8</ele>
        <time>2017-12-21T12:42:42Z</time>
      </trkpt>
      <trkpt lat="47.32279" lon="5.8678">
        <ele>238.2</ele>
        <time>2017-12-21T12:42:43Z</time>
      </trkpt>
      <trkpt lat="47.32282" lon="5.86774">
        <ele>238.6</ele>
        <time>2017-12-21T12:42:44Z</time>
      </trkpt>
      <trkpt lat="47.32284" lon="5.86768">
        <ele>239</ele>
        <time>2017-12-21T12:42:45Z</time>
      </trkpt>
      <trkpt lat="47.32287" lon="5.86762">
        <ele>239.4</ele>
        <time>2017-12-21T12:42:46Z</time>
      </trkpt>
      <trkpt lat="47.32289" lon="5.86756">
        <ele>239.4</ele>
        <time>2017-12-21T12:42:47Z</time>
      </trkpt>
      <trkpt lat="47.32291" lon="5.8675">
        <ele>239.4</ele>
        <time>2017-12-21T12:42:48Z</time>
      </trkpt>
      <trkpt lat="47.32294" lon="5.86743">
        <ele>239.4</ele>
        <time>2017-12-21T12:42:49Z</time>
      </trkpt>
      <trkpt lat="47.32299" lon="5.86736">
        <ele>239.4</ele>
        <time>2017-12-21T12:42:50Z</time>
      </trkpt>
      <trkpt lat="47.32303" lon="5.86729">
        <ele>239.4</ele>
        <time>2017-12-21T12:42:51Z</time>
      </trkpt>
      <trkpt lat="47.32307" lon="5.86723">
        <ele>239.4</ele>
        <time>2017-12-21T12:42:52Z</time>
      </trkpt>
      <trkpt lat="47.3231" lon="5.86717">
        <ele>239.4</ele>
        <time>2017-12-21T12:42:53Z</time>
      </trkpt>
      <trkpt lat="47.32316" lon="5.86709">
        <ele>239.4</ele>
        <time>2017-12-21T12:42:54Z</time>
      </trkpt>
      <trkpt lat="47.32319" lon="5.86704">
        <ele>239.4</ele>
        <time>2017-12-21T12:42:55Z</time>
      </trkpt>
      <trkpt lat="47.32322" lon="5.86698">
        <ele>239.4</ele>
        <time>2017-12-21T12:42:56Z</time>
      </trkpt>
      <trkpt lat="47.32327" lon="5.86694">
        <ele>239.4</ele>
        <time>2017-12-21T12:42:57Z</time>
      </trkpt>
      <trkpt lat="47.32331" lon="5.86688">
        <ele>239.4</ele>
        <time>2017-12-21T12:42:58Z</time>
      </trkpt>
      <trkpt lat="47.32334" lon="5.86683">
        <ele>239.4</ele>
        <time>2017-12-21T12:42:59Z</time>
      </trkpt>
      <trkpt lat="47.32337" lon="5.86679">
        <ele>239.4</ele>
        <time>2017-12-21T12:43:00Z</time>
      </trkpt>
      <trkpt lat="47.3234" lon="5.86674">
        <ele>239.8</ele>
        <time>2017-12-21T12:43:01Z</time>
      </trkpt>
      <trkpt lat="47.32344" lon="5.86669">
        <ele>240.2</ele>
        <time>2017-12-21T12:43:02Z</time>
      </trkpt>
      <trkpt lat="47.32348" lon="5.86665">
        <ele>240.6</ele>
        <time>2017-12-21T12:43:03Z</time>
      </trkpt>
      <trkpt lat="47.32352" lon="5.8666">
        <ele>241.2</ele>
        <time>2017-12-21T12:43:04Z</time>
      </trkpt>
      <trkpt lat="47.32356" lon="5.86656">
        <ele>241.6</ele>
        <time>2017-12-21T12:43:05Z</time>
      </trkpt>
      <trkpt lat="47.3236" lon="5.86652">
        <ele>241.6</ele>
        <time>2017-12-21T12:43:06Z</time>
      </trkpt>
      <trkpt lat="47.32364" lon="5.86647">
        <ele>241.6</ele>
        <time>2017-12-21T12:43:07Z</time>
      </trkpt>
      <trkpt lat="47.32367" lon="5.86642">
        <ele>241.6</ele>
        <time>2017-12-21T12:43:08Z</time>
      </trkpt>
      <trkpt lat="47.32371" lon="5.86637">
        <ele>241.6</ele>
        <time>2017-12-21T12:43:09Z</time>
      </trkpt>
      <trkpt lat="47.32374" lon="5.86631">
        <ele>241.6</ele>
        <time>2017-12-21T12:43:10Z</time>
      </trkpt>
      <trkpt lat="47.32377" lon="5.86626">
        <ele>241.6</ele>
        <time>2017-12-21T12:43:11Z</time>
      </trkpt>
      <trkpt lat="47.3238" lon="5.86621">
        <ele>241.6</ele>
        <time>2017-12-21T12:43:12Z</time>
      </trkpt>
      <trkpt lat="47.32384" lon="5.86616">
        <ele>241.6</ele>
        <time>2017-12-21T12:43:13Z</time>
      </trkpt>
      <trkpt lat="47.32387" lon="5.86611">
        <ele>241.6</ele>
        <time>2017-12-21T12:43:14Z</time>
      </trkpt>
      <trkpt lat="47.3239" lon="5.86606">
        <ele>241.6</ele>
        <time>2017-12-21T12:43:15Z</time>
      </trkpt>
      <trkpt lat="47.32394" lon="5.86601">
        <ele>241.6</ele>
        <time>2017-12-21T12:43:16Z</time>
      </trkpt>
      <trkpt lat="47.32397" lon="5.86596">
        <ele>241.6</ele>
        <time>2017-12-21T12:43:17Z</time>
      </trkpt>
      <trkpt lat="47.324" lon="5.86592">
        <ele>241.6</ele>
        <time>2017-12-21T12:43:18Z</time>
      </trkpt>
      <trkpt lat="47.32403" lon="5.86588">
        <ele>241.6</ele>
        <time>2017-12-21T12:43:19Z</time>
      </trkpt>
      <trkpt lat="47.32406" lon="5.86583">
        <ele>241.6</ele>
        <time>2017-12-21T12:43:20Z</time>
      </trkpt>
      <trkpt lat="47.32409" lon="5.86579">
        <ele>241.6</ele>
        <time>2017-12-21T12:43:21Z</time>
      </trkpt>
      <trkpt lat="47.32411" lon="5.86575">
        <ele>241.6</ele>
        <time>2017-12-21T12:43:22Z</time>
      </trkpt>
      <trkpt lat="47.32414" lon="5.8657">
        <ele>241.6</ele>
        <time>2017-12-21T12:43:23Z</time>
      </trkpt>
      <trkpt lat="47.32417" lon="5.86566">
        <ele>241.6</ele>
        <time>2017-12-21T12:43:24Z</time>
      </trkpt>
      <trkpt lat="47.32419" lon="5.86562">
        <ele>241.6</ele>
        <time>2017-12-21T12:43:25Z</time>
      </trkpt>
      <trkpt lat="47.32421" lon="5.86559">
        <ele>241.6</ele>
        <time>2017-12-21T12:43:26Z</time>
      </trkpt>
      <trkpt lat="47.32422" lon="5.86556">
        <ele>241.6</ele>
        <time>2017-12-21T12:43:27Z</time>
      </trkpt>
      <trkpt lat="47.32424" lon="5.86553">
        <ele>241.6</ele>
        <time>2017-12-21T12:43:28Z</time>
      </trkpt>
      <trkpt lat="47.32424" lon="5.8655">
        <ele>241.6</ele>
        <time>2017-12-21T12:43:29Z</time>
      </trkpt>
      <trkpt lat="47.32423" lon="5.86545">
        <ele>241.6</ele>
        <time>2017-12-21T12:43:30Z</time>
      </trkpt>
      <trkpt lat="47.32421" lon="5.8654">
        <ele>241.6</ele>
        <time>2017-12-21T12:43:31Z</time>
      </trkpt>
      <trkpt lat="47.32418" lon="5.86535">
        <ele>241.6</ele>
        <time>2017-12-21T12:43:32Z</time>
      </trkpt>
      <trkpt lat="47.32415" lon="5.86531">
        <ele>241.6</ele>
        <time>2017-12-21T12:43:33Z</time>
      </trkpt>
      <trkpt lat="47.32412" lon="5.86527">
        <ele>241.6</ele>
        <time>2017-12-21T12:43:34Z</time>
      </trkpt>
      <trkpt lat="47.32409" lon="5.86522">
        <ele>241.6</ele>
        <time>2017-12-21T12:43:35Z</time>
      </trkpt>
      <trkpt lat="47.32406" lon="5.86518">
        <ele>241.6</ele>
        <time>2017-12-21T12:43:36Z</time>
      </trkpt>
      <trkpt lat="47.32404" lon="5.86514">
        <ele>241.6</ele>
        <time>2017-12-21T12:43:37Z</time>
      </trkpt>
      <trkpt lat="47.32401" lon="5.8651">
        <ele>241.6</ele>
        <time>2017-12-21T12:43:38Z</time>
      </trkpt>
      <trkpt lat="47.32398" lon="5.86506">
        <ele>241.6</ele>
        <time>2017-12-21T12:43:39Z</time>
      </trkpt>
      <trkpt lat="47.32395" lon="5.86501">
        <ele>241.6</ele>
        <time>2017-12-21T12:43:40Z</time>
      </trkpt>
      <trkpt lat="47.32392" lon="5.86496">
        <ele>241.6</ele>
        <time>2017-12-21T12:43:41Z</time>
      </trkpt>
      <trkpt lat="47.32389" lon="5.86491">
        <ele>241.6</ele>
        <time>2017-12-21T12:43:42Z</time>
      </trkpt>
      <trkpt lat="47.32385" lon="5.86486">
        <ele>241.6</ele>
        <time>2017-12-21T12:43:43Z</time>
      </trkpt>
      <trkpt lat="47.32381" lon="5.86481">
        <ele>241.6</ele>
        <time>2017-12-21T12:43:44Z</time>
      </trkpt>
      <trkpt lat="47.32376" lon="5.86476">
        <ele>241.6</ele>
        <time>2017-12-21T12:43:45Z</time>
      </trkpt>
      <trkpt lat="47.32371" lon="5.86471">
        <ele>241.6</ele>
        <time>2017-12-21T12:43:46Z</time>
      </trkpt>
      <trkpt lat="47.32366" lon="5.86466">
        <ele>241.6</ele>
        <time>2017-12-21T12:43:47Z</time>
      </trkpt>
      <trkpt lat="47.32361" lon="5.8646">
        <ele>241</ele>
        <time>2017-12-21T12:43:48Z</time>
      </trkpt>
      <trkpt lat="47.32356" lon="5.86455">
        <ele>240.6</ele>
        <time>2017-12-21T12:43:49Z</time>
      </trkpt>
      <trkpt lat="47.32352" lon="5.8645">
        <ele>240.2</ele>
        <time>2017-12-21T12:43:50Z</time>
      </trkpt>
      <trkpt lat="47.32347" lon="5.86445">
        <ele>239.8</ele>
        <time>2017-12-21T12:43:51Z</time>
      </trkpt>
      <trkpt lat="47.32342" lon="5.8644">
        <ele>239.2</ele>
        <time>2017-12-21T12:43:52Z</time>
      </trkpt>
      <trkpt lat="47.32338" lon="5.86434">
        <ele>239.2</ele>
        <time>2017-12-21T12:43:53Z</time>
      </trkpt>
      <trkpt lat="47.32334" lon="5.86428">
        <ele>238.8</ele>
        <time>2017-12-21T12:43:54Z</time>
      </trkpt>
      <trkpt lat="47.3233" lon="5.86422">
        <ele>238.4</ele>
        <time>2017-12-21T12:43:55Z</time>
      </trkpt>
      <trkpt lat="47.32326" lon="5.86417">
        <ele>238</ele>
        <time>2017-12-21T12:43:56Z</time>
      </trkpt>
      <trkpt lat="47.32323" lon="5.86412">
        <ele>237.6</ele>
        <time>2017-12-21T12:43:57Z</time>
      </trkpt>
      <trkpt lat="47.3232" lon="5.86408">
        <ele>237.2</ele>
        <time>2017-12-21T12:43:58Z</time>
      </trkpt>
      <trkpt lat="47.32318" lon="5.86405">
        <ele>237.2</ele>
        <time>2017-12-21T12:43:59Z</time>
      </trkpt>
      <trkpt lat="47.32316" lon="5.86402">
        <ele>237.2</ele>
        <time>2017-12-21T12:44:00Z</time>
      </trkpt>
      <trkpt lat="47.32314" lon="5.86398">
        <ele>237.2</ele>
        <time>2017-12-21T12:44:01Z</time>
      </trkpt>
      <trkpt lat="47.32311" lon="5.86394">
        <ele>236.8</ele>
        <time>2017-12-21T12:44:02Z</time>
      </trkpt>
      <trkpt lat="47.32307" lon="5.8639">
        <ele>236.4</ele>
        <time>2017-12-21T12:44:03Z</time>
      </trkpt>
      <trkpt lat="47.32302" lon="5.86385">
        <ele>236</ele>
        <time>2017-12-21T12:44:04Z</time>
      </trkpt>
      <trkpt lat="47.32298" lon="5.86381">
        <ele>235.2</ele>
        <time>2017-12-21T12:44:05Z</time>
      </trkpt>
      <trkpt lat="47.32293" lon="5.86377">
        <ele>235.2</ele>
        <time>2017-12-21T12:44:06Z</time>
      </trkpt>
      <trkpt lat="47.32288" lon="5.86373">
        <ele>235.2</ele>
        <time>2017-12-21T12:44:07Z</time>
      </trkpt>
      <trkpt lat="47.32283" lon="5.8637">
        <ele>235.2</ele>
        <time>2017-12-21T12:44:08Z</time>
      </trkpt>
      <trkpt lat="47.32277" lon="5.86365">
        <ele>234.8</ele>
        <time>2017-12-21T12:44:09Z</time>
      </trkpt>
      <trkpt lat="47.32271" lon="5.86361">
        <ele>234.4</ele>
        <time>2017-12-21T12:44:10Z</time>
      </trkpt>
      <trkpt lat="47.32265" lon="5.86358">
        <ele>233.8</ele>
        <time>2017-12-21T12:44:11Z</time>
      </trkpt>
      <trkpt lat="47.32258" lon="5.86357">
        <ele>233.4</ele>
        <time>2017-12-21T12:44:12Z</time>
      </trkpt>
      <trkpt lat="47.32252" lon="5.86359">
        <ele>233</ele>
        <time>2017-12-21T12:44:13Z</time>
      </trkpt>
      <trkpt lat="47.32246" lon="5.86361">
        <ele>233</ele>
        <time>2017-12-21T12:44:14Z</time>
      </trkpt>
      <trkpt lat="47.32241" lon="5.86364">
        <ele>233</ele>
        <time>2017-12-21T12:44:15Z</time>
      </trkpt>
      <trkpt lat="47.32236" lon="5.86368">
        <ele>233</ele>
        <time>2017-12-21T12:44:16Z</time>
      </trkpt>
      <trkpt lat="47.3223" lon="5.86375">
        <ele>233</ele>
        <time>2017-12-21T12:44:17Z</time>
      </trkpt>
      <trkpt lat="47.32224" lon="5.86382">
        <ele>233</ele>
        <time>2017-12-21T12:44:18Z</time>
      </trkpt>
      <trkpt lat="47.32219" lon="5.86389">
        <ele>232.6</ele>
        <time>2017-12-21T12:44:19Z</time>
      </trkpt>
      <trkpt lat="47.32214" lon="5.86396">
        <ele>232.2</ele>
        <time>2017-12-21T12:44:20Z</time>
      </trkpt>
      <trkpt lat="47.3221" lon="5.86402">
        <ele>231.8</ele>
        <time>2017-12-21T12:44:21Z</time>
      </trkpt>
      <trkpt lat="47.32205" lon="5.86407">
        <ele>231.4</ele>
        <time>2017-12-21T12:44:22Z</time>
      </trkpt>
      <trkpt lat="47.32201" lon="5.86413">
        <ele>231</ele>
        <time>2017-12-21T12:44:23Z</time>
      </trkpt>
      <trkpt lat="47.32196" lon="5.86418">
        <ele>231</ele>
        <time>2017-12-21T12:44:24Z</time>
      </trkpt>
      <trkpt lat="47.32192" lon="5.86422">
        <ele>231</ele>
        <time>2017-12-21T12:44:25Z</time>
      </trkpt>
      <trkpt lat="47.32186" lon="5.86426">
        <ele>231</ele>
        <time>2017-12-21T12:44:26Z</time>
      </trkpt>
      <trkpt lat="47.32181" lon="5.86429">
        <ele>231</ele>
        <time>2017-12-21T12:44:27Z</time>
      </trkpt>
      <trkpt lat="47.32175" lon="5.86432">
        <ele>231</ele>
        <time>2017-12-21T12:44:28Z</time>
      </trkpt>
      <trkpt lat="47.32168" lon="5.86434">
        <ele>231</ele>
        <time>2017-12-21T12:44:29Z</time>
      </trkpt>
      <trkpt lat="47.32161" lon="5.86436">
        <ele>231</ele>
        <time>2017-12-21T12:44:30Z</time>
      </trkpt>
      <trkpt lat="47.32154" lon="5.86438">
        <ele>231</ele>
        <time>2017-12-21T12:44:31Z</time>
      </trkpt>
      <trkpt lat="47.32146" lon="5.8644">
        <ele>230.6</ele>
        <time>2017-12-21T12:44:32Z</time>
      </trkpt>
      <trkpt lat="47.32138" lon="5.86445">
        <ele>230.2</ele>
        <time>2017-12-21T12:44:33Z</time>
      </trkpt>
      <trkpt lat="47.3213" lon="5.86451">
        <ele>229.8</ele>
        <time>2017-12-21T12:44:34Z</time>
      </trkpt>
      <trkpt lat="47.32121" lon="5.86457">
        <ele>229.4</ele>
        <time>2017-12-21T12:44:35Z</time>
      </trkpt>
      <trkpt lat="47.32112" lon="5.86464">
        <ele>228.8</ele>
        <time>2017-12-21T12:44:36Z</time>
      </trkpt>
      <trkpt lat="47.32103" lon="5.86471">
        <ele>228.2</ele>
        <time>2017-12-21T12:44:37Z</time>
      </trkpt>
      <trkpt lat="47.32093" lon="5.86478">
        <ele>227.4</ele>
        <time>2017-12-21T12:44:38Z</time>
      </trkpt>
      <trkpt lat="47.32083" lon="5.86486">
        <ele>226.6</ele>
        <time>2017-12-21T12:44:39Z</time>
      </trkpt>
      <trkpt lat="47.32073" lon="5.86494">
        <ele>225.8</ele>
        <time>2017-12-21T12:44:40Z</time>
      </trkpt>
      <trkpt lat="47.32062" lon="5.86501">
        <ele>225</ele>
        <time>2017-12-21T12:44:41Z</time>
      </trkpt>
      <trkpt lat="47.32051" lon="5.86509">
        <ele>224</ele>
        <time>2017-12-21T12:44:42Z</time>
      </trkpt>
      <trkpt lat="47.3204" lon="5.86515">
        <ele>223.2</ele>
        <time>2017-12-21T12:44:43Z</time>
      </trkpt>
      <trkpt lat="47.3203" lon="5.86522">
        <ele>222.4</ele>
        <time>2017-12-21T12:44:44Z</time>
      </trkpt>
      <trkpt lat="47.3202" lon="5.86528">
        <ele>221.6</ele>
        <time>2017-12-21T12:44:45Z</time>
      </trkpt>
      <trkpt lat="47.3201" lon="5.86534">
        <ele>220.6</ele>
        <time>2017-12-21T12:44:46Z</time>
      </trkpt>
      <trkpt lat="47.32" lon="5.86538">
        <ele>219.8</ele>
        <time>2017-12-21T12:44:47Z</time>
      </trkpt>
      <trkpt lat="47.3199" lon="5.86542">
        <ele>219.2</ele>
        <time>2017-12-21T12:44:48Z</time>
      </trkpt>
      <trkpt lat="47.3198" lon="5.86546">
        <ele>218.6</ele>
        <time>2017-12-21T12:44:49Z</time>
      </trkpt>
      <trkpt lat="47.3197" lon="5.8655">
        <ele>218</ele>
        <time>2017-12-21T12:44:50Z</time>
      </trkpt>
      <trkpt lat="47.3196" lon="5.86553">
        <ele>217.4</ele>
        <time>2017-12-21T12:44:51Z</time>
      </trkpt>
      <trkpt lat="47.31951" lon="5.86556">
        <ele>216.8</ele>
        <time>2017-12-21T12:44:52Z</time>
      </trkpt>
      <trkpt lat="47.31941" lon="5.86559">
        <ele>216.8</ele>
        <time>2017-12-21T12:44:53Z</time>
      </trkpt>
      <trkpt lat="47.31932" lon="5.86562">
        <ele>215.8</ele>
        <time>2017-12-21T12:44:54Z</time>
      </trkpt>
      <trkpt lat="47.31922" lon="5.86565">
        <ele>215.4</ele>
        <time>2017-12-21T12:44:55Z</time>
      </trkpt>
      <trkpt lat="47.31913" lon="5.86568">
        <ele>215</ele>
        <time>2017-12-21T12:44:56Z</time>
      </trkpt>
      <trkpt lat="47.31904" lon="5.8657">
        <ele>214.4</ele>
        <time>2017-12-21T12:44:57Z</time>
      </trkpt>
      <trkpt lat="47.31895" lon="5.86572">
        <ele>214.4</ele>
        <time>2017-12-21T12:44:58Z</time>
      </trkpt>
      <trkpt lat="47.31887" lon="5.86575">
        <ele>214.4</ele>
        <time>2017-12-21T12:44:59Z</time>
      </trkpt>
      <trkpt lat="47.31879" lon="5.86577">
        <ele>214</ele>
        <time>2017-12-21T12:45:00Z</time>
      </trkpt>
      <trkpt lat="47.31871" lon="5.8658">
        <ele>213.6</ele>
        <time>2017-12-21T12:45:01Z</time>
      </trkpt>
      <trkpt lat="47.31863" lon="5.86582">
        <ele>213</ele>
        <time>2017-12-21T12:45:02Z</time>
      </trkpt>
      <trkpt lat="47.31855" lon="5.86584">
        <ele>212.6</ele>
        <time>2017-12-21T12:45:03Z</time>
      </trkpt>
      <trkpt lat="47.31848" lon="5.86586">
        <ele>212.2</ele>
        <time>2017-12-21T12:45:04Z</time>
      </trkpt>
      <trkpt lat="47.31841" lon="5.86589">
        <ele>212.2</ele>
        <time>2017-12-21T12:45:05Z</time>
      </trkpt>
      <trkpt lat="47.31834" lon="5.86592">
        <ele>212.2</ele>
        <time>2017-12-21T12:45:06Z</time>
      </trkpt>
      <trkpt lat="47.31827" lon="5.86594">
        <ele>212.2</ele>
        <time>2017-12-21T12:45:07Z</time>
      </trkpt>
      <trkpt lat="47.3182" lon="5.86596">
        <ele>212.2</ele>
        <time>2017-12-21T12:45:08Z</time>
      </trkpt>
      <trkpt lat="47.31813" lon="5.86598">
        <ele>212.2</ele>
        <time>2017-12-21T12:45:09Z</time>
      </trkpt>
      <trkpt lat="47.31806" lon="5.866">
        <ele>212.2</ele>
        <time>2017-12-21T12:45:10Z</time>
      </trkpt>
      <trkpt lat="47.318" lon="5.86602">
        <ele>212.2</ele>
        <time>2017-12-21T12:45:11Z</time>
      </trkpt>
      <trkpt lat="47.31793" lon="5.86604">
        <ele>212.2</ele>
        <time>2017-12-21T12:45:12Z</time>
      </trkpt>
      <trkpt lat="47.31787" lon="5.86607">
        <ele>212.2</ele>
        <time>2017-12-21T12:45:13Z</time>
      </trkpt>
      <trkpt lat="47.31781" lon="5.86609">
        <ele>212.2</ele>
        <time>2017-12-21T12:45:14Z</time>
      </trkpt>
      <trkpt lat="47.31775" lon="5.8661">
        <ele>211.8</ele>
        <time>2017-12-21T12:45:15Z</time>
      </trkpt>
      <trkpt lat="47.31768" lon="5.86608">
        <ele>211.4</ele>
        <time>2017-12-21T12:45:16Z</time>
      </trkpt>
      <trkpt lat="47.31763" lon="5.86603">
        <ele>211</ele>
        <time>2017-12-21T12:45:17Z</time>
      </trkpt>
      <trkpt lat="47.31759" lon="5.86596">
        <ele>210.6</ele>
        <time>2017-12-21T12:45:18Z</time>
      </trkpt>
      <trkpt lat="47.31757" lon="5.86587">
        <ele>210.2</ele>
        <time>2017-12-21T12:45:19Z</time>
      </trkpt>
      <trkpt lat="47.31755" lon="5.86578">
        <ele>210.2</ele>
        <time>2017-12-21T12:45:20Z</time>
      </trkpt>
      <trkpt lat="47.31752" lon="5.8657">
        <ele>210.2</ele>
        <time>2017-12-21T12:45:21Z</time>
      </trkpt>
      <trkpt lat="47.3175" lon="5.86561">
        <ele>210.2</ele>
        <time>2017-12-21T12:45:22Z</time>
      </trkpt>
      <trkpt lat="47.31748" lon="5.86552">
        <ele>210.2</ele>
        <time>2017-12-21T12:45:23Z</time>
      </trkpt>
      <trkpt lat="47.31746" lon="5.86542">
        <ele>210.2</ele>
        <time>2017-12-21T12:45:24Z</time>
      </trkpt>
      <trkpt lat="47.31744" lon="5.86533">
        <ele>210.2</ele>
        <time>2017-12-21T12:45:25Z</time>
      </trkpt>
      <trkpt lat="47.31742" lon="5.86523">
        <ele>210.2</ele>
        <time>2017-12-21T12:45:26Z</time>
      </trkpt>
      <trkpt lat="47.3174" lon="5.86514">
        <ele>210.2</ele>
        <time>2017-12-21T12:45:27Z</time>
      </trkpt>
      <trkpt lat="47.31739" lon="5.86504">
        <ele>210.2</ele>
        <time>2017-12-21T12:45:28Z</time>
      </trkpt>
      <trkpt lat="47.31737" lon="5.86496">
        <ele>210.2</ele>
        <time>2017-12-21T12:45:29Z</time>
      </trkpt>
      <trkpt lat="47.31735" lon="5.86486">
        <ele>210.2</ele>
        <time>2017-12-21T12:45:30Z</time>
      </trkpt>
      <trkpt lat="47.31733" lon="5.86477">
        <ele>210.2</ele>
        <time>2017-12-21T12:45:31Z</time>
      </trkpt>
      <trkpt lat="47.31732" lon="5.86468">
        <ele>210.2</ele>
        <time>2017-12-21T12:45:32Z</time>
      </trkpt>
      <trkpt lat="47.3173" lon="5.86459">
        <ele>210.2</ele>
        <time>2017-12-21T12:45:33Z</time>
      </trkpt>
      <trkpt lat="47.31729" lon="5.8645">
        <ele>210.2</ele>
        <time>2017-12-21T12:45:34Z</time>
      </trkpt>
      <trkpt lat="47.31727" lon="5.8644">
        <ele>210.2</ele>
        <time>2017-12-21T12:45:35Z</time>
      </trkpt>
      <trkpt lat="47.31725" lon="5.86431">
        <ele>210.2</ele>
        <time>2017-12-21T12:45:36Z</time>
      </trkpt>
      <trkpt lat="47.31724" lon="5.86423">
        <ele>210.2</ele>
        <time>2017-12-21T12:45:37Z</time>
      </trkpt>
      <trkpt lat="47.31722" lon="5.86414">
        <ele>210.2</ele>
        <time>2017-12-21T12:45:38Z</time>
      </trkpt>
      <trkpt lat="47.3172" lon="5.86405">
        <ele>210.2</ele>
        <time>2017-12-21T12:45:39Z</time>
      </trkpt>
      <trkpt lat="47.31719" lon="5.86396">
        <ele>210.2</ele>
        <time>2017-12-21T12:45:40Z</time>
      </trkpt>
      <trkpt lat="47.31717" lon="5.86388">
        <ele>210.2</ele>
        <time>2017-12-21T12:45:41Z</time>
      </trkpt>
      <trkpt lat="47.31715" lon="5.86379">
        <ele>210.2</ele>
        <time>2017-12-21T12:45:42Z</time>
      </trkpt>
      <trkpt lat="47.31713" lon="5.8637">
        <ele>210.2</ele>
        <time>2017-12-21T12:45:43Z</time>
      </trkpt>
      <trkpt lat="47.31711" lon="5.86361">
        <ele>210.2</ele>
        <time>2017-12-21T12:45:44Z</time>
      </trkpt>
      <trkpt lat="47.31709" lon="5.86353">
        <ele>210.2</ele>
        <time>2017-12-21T12:45:45Z</time>
      </trkpt>
      <trkpt lat="47.31708" lon="5.86344">
        <ele>210.2</ele>
        <time>2017-12-21T12:45:46Z</time>
      </trkpt>
      <trkpt lat="47.31706" lon="5.86335">
        <ele>210.2</ele>
        <time>2017-12-21T12:45:47Z</time>
      </trkpt>
      <trkpt lat="47.31704" lon="5.86327">
        <ele>210.2</ele>
        <time>2017-12-21T12:45:48Z</time>
      </trkpt>
      <trkpt lat="47.31703" lon="5.86318">
        <ele>210.2</ele>
        <time>2017-12-21T12:45:49Z</time>
      </trkpt>
      <trkpt lat="47.31701" lon="5.86309">
        <ele>210.2</ele>
        <time>2017-12-21T12:45:50Z</time>
      </trkpt>
      <trkpt lat="47.31699" lon="5.86301">
        <ele>210.2</ele>
        <time>2017-12-21T12:45:51Z</time>
      </trkpt>
      <trkpt lat="47.31698" lon="5.86293">
        <ele>210.2</ele>
        <time>2017-12-21T12:45:52Z</time>
      </trkpt>
      <trkpt lat="47.31696" lon="5.86284">
        <ele>210.2</ele>
        <time>2017-12-21T12:45:53Z</time>
      </trkpt>
      <trkpt lat="47.31694" lon="5.86274">
        <ele>210.2</ele>
        <time>2017-12-21T12:45:54Z</time>
      </trkpt>
      <trkpt lat="47.31692" lon="5.86265">
        <ele>210.2</ele>
        <time>2017-12-21T12:45:55Z</time>
      </trkpt>
      <trkpt lat="47.31691" lon="5.86256">
        <ele>210.2</ele>
        <time>2017-12-21T12:45:56Z</time>
      </trkpt>
      <trkpt lat="47.31689" lon="5.86248">
        <ele>210.2</ele>
        <time>2017-12-21T12:45:57Z</time>
      </trkpt>
      <trkpt lat="47.31687" lon="5.86239">
        <ele>210.2</ele>
        <time>2017-12-21T12:45:58Z</time>
      </trkpt>
      <trkpt lat="47.31685" lon="5.8623">
        <ele>210.2</ele>
        <time>2017-12-21T12:45:59Z</time>
      </trkpt>
      <trkpt lat="47.31683" lon="5.86222">
        <ele>210.2</ele>
        <time>2017-12-21T12:46:00Z</time>
      </trkpt>
      <trkpt lat="47.31682" lon="5.86213">
        <ele>210.2</ele>
        <time>2017-12-21T12:46:01Z</time>
      </trkpt>
      <trkpt lat="47.31681" lon="5.86204">
        <ele>210.2</ele>
        <time>2017-12-21T12:46:02Z</time>
      </trkpt>
      <trkpt lat="47.31679" lon="5.86194">
        <ele>210.2</ele>
        <time>2017-12-21T12:46:03Z</time>
      </trkpt>
      <trkpt lat="47.31678" lon="5.86185">
        <ele>210.2</ele>
        <time>2017-12-21T12:46:04Z</time>
      </trkpt>
      <trkpt lat="47.31676" lon="5.86175">
        <ele>210.2</ele>
        <time>2017-12-21T12:46:05Z</time>
      </trkpt>
      <trkpt lat="47.31674" lon="5.86166">
        <ele>210.2</ele>
        <time>2017-12-21T12:46:06Z</time>
      </trkpt>
      <trkpt lat="47.31673" lon="5.86156">
        <ele>210.2</ele>
        <time>2017-12-21T12:46:07Z</time>
      </trkpt>
      <trkpt lat="47.31671" lon="5.86147">
        <ele>210.2</ele>
        <time>2017-12-21T12:46:08Z</time>
      </trkpt>
      <trkpt lat="47.31669" lon="5.86138">
        <ele>210.2</ele>
        <time>2017-12-21T12:46:09Z</time>
      </trkpt>
      <trkpt lat="47.31668" lon="5.86129">
        <ele>210.2</ele>
        <time>2017-12-21T12:46:10Z</time>
      </trkpt>
      <trkpt lat="47.31666" lon="5.8612">
        <ele>210.2</ele>
        <time>2017-12-21T12:46:11Z</time>
      </trkpt>
      <trkpt lat="47.31664" lon="5.86111">
        <ele>210.2</ele>
        <time>2017-12-21T12:46:12Z</time>
      </trkpt>
      <trkpt lat="47.31662" lon="5.86103">
        <ele>210.2</ele>
        <time>2017-12-21T12:46:13Z</time>
      </trkpt>
      <trkpt lat="47.31661" lon="5.86094">
        <ele>210.2</ele>
        <time>2017-12-21T12:46:14Z</time>
      </trkpt>
      <trkpt lat="47.31659" lon="5.86085">
        <ele>210.2</ele>
        <time>2017-12-21T12:46:15Z</time>
      </trkpt>
      <trkpt lat="47.31658" lon="5.86076">
        <ele>210.2</ele>
        <time>2017-12-21T12:46:16Z</time>
      </trkpt>
      <trkpt lat="47.31656" lon="5.86067">
        <ele>210.2</ele>
        <time>2017-12-21T12:46:17Z</time>
      </trkpt>
      <trkpt lat="47.31654" lon="5.86058">
        <ele>210.2</ele>
        <time>2017-12-21T12:46:18Z</time>
      </trkpt>
      <trkpt lat="47.31653" lon="5.86049">
        <ele>210.2</ele>
        <time>2017-12-21T12:46:19Z</time>
      </trkpt>
      <trkpt lat="47.31651" lon="5.8604">
        <ele>210.2</ele>
        <time>2017-12-21T12:46:20Z</time>
      </trkpt>
      <trkpt lat="47.31649" lon="5.86031">
        <ele>210.2</ele>
        <time>2017-12-21T12:46:21Z</time>
      </trkpt>
      <trkpt lat="47.31648" lon="5.86022">
        <ele>210.2</ele>
        <time>2017-12-21T12:46:22Z</time>
      </trkpt>
      <trkpt lat="47.31646" lon="5.86013">
        <ele>210.2</ele>
        <time>2017-12-21T12:46:23Z</time>
      </trkpt>
      <trkpt lat="47.31645" lon="5.86004">
        <ele>210.2</ele>
        <time>2017-12-21T12:46:24Z</time>
      </trkpt>
      <trkpt lat="47.31643" lon="5.85995">
        <ele>210.2</ele>
        <time>2017-12-21T12:46:25Z</time>
      </trkpt>
      <trkpt lat="47.31641" lon="5.85986">
        <ele>210.2</ele>
        <time>2017-12-21T12:46:26Z</time>
      </trkpt>
      <trkpt lat="47.3164" lon="5.85977">
        <ele>210.2</ele>
        <time>2017-12-21T12:46:27Z</time>
      </trkpt>
      <trkpt lat="47.31638" lon="5.85968">
        <ele>210.2</ele>
        <time>2017-12-21T12:46:28Z</time>
      </trkpt>
      <trkpt lat="47.31636" lon="5.85959">
        <ele>210.2</ele>
        <time>2017-12-21T12:46:29Z</time>
      </trkpt>
      <trkpt lat="47.31634" lon="5.8595">
        <ele>210.2</ele>
        <time>2017-12-21T12:46:30Z</time>
      </trkpt>
      <trkpt lat="47.31633" lon="5.85941">
        <ele>210.2</ele>
        <time>2017-12-21T12:46:31Z</time>
      </trkpt>
      <trkpt lat="47.31631" lon="5.85932">
        <ele>210.2</ele>
        <time>2017-12-21T12:46:32Z</time>
      </trkpt>
      <trkpt lat="47.31629" lon="5.85923">
        <ele>210.2</ele>
        <time>2017-12-21T12:46:33Z</time>
      </trkpt>
      <trkpt lat="47.31628" lon="5.85915">
        <ele>210.2</ele>
        <time>2017-12-21T12:46:34Z</time>
      </trkpt>
      <trkpt lat="47.31626" lon="5.85905">
        <ele>210.2</ele>
        <time>2017-12-21T12:46:35Z</time>
      </trkpt>
      <trkpt lat="47.31624" lon="5.85897">
        <ele>210.2</ele>
        <time>2017-12-21T12:46:36Z</time>
      </trkpt>
      <trkpt lat="47.31622" lon="5.85888">
        <ele>210.2</ele>
        <time>2017-12-21T12:46:37Z</time>
      </trkpt>
      <trkpt lat="47.3162" lon="5.8588">
        <ele>210.2</ele>
        <time>2017-12-21T12:46:38Z</time>
      </trkpt>
      <trkpt lat="47.31619" lon="5.85871">
        <ele>210.2</ele>
        <time>2017-12-21T12:46:39Z</time>
      </trkpt>
      <trkpt lat="47.31617" lon="5.85863">
        <ele>210.2</ele>
        <time>2017-12-21T12:46:40Z</time>
      </trkpt>
      <trkpt lat="47.31616" lon="5.85854">
        <ele>210.2</ele>
        <time>2017-12-21T12:46:41Z</time>
      </trkpt>
      <trkpt lat="47.31614" lon="5.85845">
        <ele>210.2</ele>
        <time>2017-12-21T12:46:42Z</time>
      </trkpt>
      <trkpt lat="47.31613" lon="5.85836">
        <ele>210.2</ele>
        <time>2017-12-21T12:46:43Z</time>
      </trkpt>
      <trkpt lat="47.31611" lon="5.85828">
        <ele>210.2</ele>
        <time>2017-12-21T12:46:44Z</time>
      </trkpt>
      <trkpt lat="47.3161" lon="5.85819">
        <ele>210.2</ele>
        <time>2017-12-21T12:46:45Z</time>
      </trkpt>
      <trkpt lat="47.31608" lon="5.8581">
        <ele>210.2</ele>
        <time>2017-12-21T12:46:46Z</time>
      </trkpt>
      <trkpt lat="47.31607" lon="5.85802">
        <ele>210.2</ele>
        <time>2017-12-21T12:46:47Z</time>
      </trkpt>
      <trkpt lat="47.31605" lon="5.85793">
        <ele>210.2</ele>
        <time>2017-12-21T12:46:48Z</time>
      </trkpt>
      <trkpt lat="47.31603" lon="5.85785">
        <ele>210.2</ele>
        <time>2017-12-21T12:46:49Z</time>
      </trkpt>
      <trkpt lat="47.31602" lon="5.85776">
        <ele>210.2</ele>
        <time>2017-12-21T12:46:50Z</time>
      </trkpt>
      <trkpt lat="47.316" lon="5.85767">
        <ele>210.2</ele>
        <time>2017-12-21T12:46:51Z</time>
      </trkpt>
      <trkpt lat="47.31598" lon="5.85758">
        <ele>210.2</ele>
        <time>2017-12-21T12:46:52Z</time>
      </trkpt>
      <trkpt lat="47.31597" lon="5.8575">
        <ele>210.2</ele>
        <time>2017-12-21T12:46:53Z</time>
      </trkpt>
      <trkpt lat="47.31596" lon="5.85742">
        <ele>210.2</ele>
        <time>2017-12-21T12:46:54Z</time>
      </trkpt>
      <trkpt lat="47.31594" lon="5.85733">
        <ele>210.2</ele>
        <time>2017-12-21T12:46:55Z</time>
      </trkpt>
      <trkpt lat="47.31592" lon="5.85725">
        <ele>210.2</ele>
        <time>2017-12-21T12:46:56Z</time>
      </trkpt>
      <trkpt lat="47.3159" lon="5.85716">
        <ele>210.2</ele>
        <time>2017-12-21T12:46:57Z</time>
      </trkpt>
      <trkpt lat="47.31589" lon="5.85707">
        <ele>210.2</ele>
        <time>2017-12-21T12:46:58Z</time>
      </trkpt>
      <trkpt lat="47.31587" lon="5.85698">
        <ele>210.2</ele>
        <time>2017-12-21T12:46:59Z</time>
      </trkpt>
      <trkpt lat="47.31585" lon="5.85689">
        <ele>210.2</ele>
        <time>2017-12-21T12:47:00Z</time>
      </trkpt>
      <trkpt lat="47.31583" lon="5.85681">
        <ele>210.2</ele>
        <time>2017-12-21T12:47:01Z</time>
      </trkpt>
      <trkpt lat="47.31582" lon="5.85673">
        <ele>210.2</ele>
        <time>2017-12-21T12:47:02Z</time>
      </trkpt>
      <trkpt lat="47.3158" lon="5.85664">
        <ele>210.2</ele>
        <time>2017-12-21T12:47:03Z</time>
      </trkpt>
      <trkpt lat="47.31579" lon="5.85656">
        <ele>210.2</ele>
        <time>2017-12-21T12:47:04Z</time>
      </trkpt>
      <trkpt lat="47.31577" lon="5.85647">
        <ele>210.2</ele>
        <time>2017-12-21T12:47:05Z</time>
      </trkpt>
      <trkpt lat="47.31576" lon="5.85638">
        <ele>210.2</ele>
        <time>2017-12-21T12:47:06Z</time>
      </trkpt>
      <trkpt lat="47.31574" lon="5.8563">
        <ele>210.2</ele>
        <time>2017-12-21T12:47:07Z</time>
      </trkpt>
      <trkpt lat="47.31571" lon="5.85621">
        <ele>210.2</ele>
        <time>2017-12-21T12:47:08Z</time>
      </trkpt>
      <trkpt lat="47.31569" lon="5.85614">
        <ele>210.2</ele>
        <time>2017-12-21T12:47:09Z</time>
      </trkpt>
      <trkpt lat="47.31566" lon="5.85606">
        <ele>210.2</ele>
        <time>2017-12-21T12:47:10Z</time>
      </trkpt>
      <trkpt lat="47.31563" lon="5.85598">
        <ele>210.2</ele>
        <time>2017-12-21T12:47:11Z</time>
      </trkpt>
      <trkpt lat="47.3156" lon="5.85591">
        <ele>210.2</ele>
        <time>2017-12-21T12:47:12Z</time>
      </trkpt>
      <trkpt lat="47.31557" lon="5.85583">
        <ele>210.2</ele>
        <time>2017-12-21T12:47:13Z</time>
      </trkpt>
      <trkpt lat="47.31553" lon="5.85576">
        <ele>210.2</ele>
        <time>2017-12-21T12:47:14Z</time>
      </trkpt>
      <trkpt lat="47.31549" lon="5.85569">
        <ele>210.2</ele>
        <time>2017-12-21T12:47:15Z</time>
      </trkpt>
      <trkpt lat="47.31545" lon="5.85563">
        <ele>210.2</ele>
        <time>2017-12-21T12:47:16Z</time>
      </trkpt>
      <trkpt lat="47.31541" lon="5.85556">
        <ele>210.2</ele>
        <time>2017-12-21T12:47:17Z</time>
      </trkpt>
      <trkpt lat="47.31537" lon="5.8555">
        <ele>210.2</ele>
        <time>2017-12-21T12:47:18Z</time>
      </trkpt>
      <trkpt lat="47.31532" lon="5.85544">
        <ele>210.2</ele>
        <time>2017-12-21T12:47:19Z</time>
      </trkpt>
      <trkpt lat="47.31528" lon="5.85538">
        <ele>210.2</ele>
        <time>2017-12-21T12:47:20Z</time>
      </trkpt>
      <trkpt lat="47.31523" lon="5.85531">
        <ele>210.2</ele>
        <time>2017-12-21T12:47:21Z</time>
      </trkpt>
      <trkpt lat="47.31519" lon="5.85525">
        <ele>210.2</ele>
        <time>2017-12-21T12:47:22Z</time>
      </trkpt>
      <trkpt lat="47.31515" lon="5.85519">
        <ele>210.2</ele>
        <time>2017-12-21T12:47:23Z</time>
      </trkpt>
      <trkpt lat="47.31511" lon="5.85512">
        <ele>210.2</ele>
        <time>2017-12-21T12:47:24Z</time>
      </trkpt>
      <trkpt lat="47.31506" lon="5.85506">
        <ele>210.2</ele>
        <time>2017-12-21T12:47:25Z</time>
      </trkpt>
      <trkpt lat="47.31502" lon="5.855">
        <ele>210.2</ele>
        <time>2017-12-21T12:47:26Z</time>
      </trkpt>
      <trkpt lat="47.31498" lon="5.85494">
        <ele>210.2</ele>
        <time>2017-12-21T12:47:27Z</time>
      </trkpt>
      <trkpt lat="47.31493" lon="5.85488">
        <ele>210.2</ele>
        <time>2017-12-21T12:47:28Z</time>
      </trkpt>
      <trkpt lat="47.31489" lon="5.85482">
        <ele>210.2</ele>
        <time>2017-12-21T12:47:29Z</time>
      </trkpt>
      <trkpt lat="47.31484" lon="5.85476">
        <ele>210.2</ele>
        <time>2017-12-21T12:47:30Z</time>
      </trkpt>
      <trkpt lat="47.3148" lon="5.85471">
        <ele>210.2</ele>
        <time>2017-12-21T12:47:31Z</time>
      </trkpt>
      <trkpt lat="47.31476" lon="5.85465">
        <ele>210.2</ele>
        <time>2017-12-21T12:47:32Z</time>
      </trkpt>
      <trkpt lat="47.31472" lon="5.85459">
        <ele>210.2</ele>
        <time>2017-12-21T12:47:33Z</time>
      </trkpt>
      <trkpt lat="47.31468" lon="5.85454">
        <ele>210.2</ele>
        <time>2017-12-21T12:47:34Z</time>
      </trkpt>
      <trkpt lat="47.31464" lon="5.85449">
        <ele>210.2</ele>
        <time>2017-12-21T12:47:35Z</time>
      </trkpt>
      <trkpt lat="47.3146" lon="5.85444">
        <ele>210.2</ele>
        <time>2017-12-21T12:47:36Z</time>
      </trkpt>
      <trkpt lat="47.31456" lon="5.85438">
        <ele>210.2</ele>
        <time>2017-12-21T12:47:37Z</time>
      </trkpt>
      <trkpt lat="47.31452" lon="5.85433">
        <ele>210.2</ele>
        <time>2017-12-21T12:47:38Z</time>
      </trkpt>
      <trkpt lat="47.31448" lon="5.85427">
        <ele>210.2</ele>
        <time>2017-12-21T12:47:39Z</time>
      </trkpt>
      <trkpt lat="47.31445" lon="5.85422">
        <ele>210.2</ele>
        <time>2017-12-21T12:47:40Z</time>
      </trkpt>
      <trkpt lat="47.31441" lon="5.85417">
        <ele>210.2</ele>
        <time>2017-12-21T12:47:41Z</time>
      </trkpt>
      <trkpt lat="47.31438" lon="5.85413">
        <ele>210.2</ele>
        <time>2017-12-21T12:47:42Z</time>
      </trkpt>
      <trkpt lat="47.31434" lon="5.85408">
        <ele>210.2</ele>
        <time>2017-12-21T12:47:43Z</time>
      </trkpt>
      <trkpt lat="47.31431" lon="5.85403">
        <ele>210.2</ele>
        <time>2017-12-21T12:47:44Z</time>
      </trkpt>
      <trkpt lat="47.31428" lon="5.85398">
        <ele>210.2</ele>
        <time>2017-12-21T12:47:45Z</time>
      </trkpt>
      <trkpt lat="47.31424" lon="5.85394">
        <ele>210.2</ele>
        <time>2017-12-21T12:47:46Z</time>
      </trkpt>
      <trkpt lat="47.31421" lon="5.85389">
        <ele>210.2</ele>
        <time>2017-12-21T12:47:47Z</time>
      </trkpt>
      <trkpt lat="47.31418" lon="5.85385">
        <ele>210.2</ele>
        <time>2017-12-21T12:47:48Z</time>
      </trkpt>
      <trkpt lat="47.31415" lon="5.85381">
        <ele>210.2</ele>
        <time>2017-12-21T12:47:49Z</time>
      </trkpt>
      <trkpt lat="47.31412" lon="5.85376">
        <ele>210.2</ele>
        <time>2017-12-21T12:47:50Z</time>
      </trkpt>
      <trkpt lat="47.31409" lon="5.85372">
        <ele>210.2</ele>
        <time>2017-12-21T12:47:51Z</time>
      </trkpt>
      <trkpt lat="47.31406" lon="5.85367">
        <ele>210.2</ele>
        <time>2017-12-21T12:47:52Z</time>
      </trkpt>
      <trkpt lat="47.31403" lon="5.85363">
        <ele>210.6</ele>
        <time>2017-12-21T12:47:53Z</time>
      </trkpt>
      <trkpt lat="47.314" lon="5.85358">
        <ele>211</ele>
        <time>2017-12-21T12:47:54Z</time>
      </trkpt>
      <trkpt lat="47.31397" lon="5.85353">
        <ele>211.4</ele>
        <time>2017-12-21T12:47:55Z</time>
      </trkpt>
      <trkpt lat="47.31394" lon="5.85349">
        <ele>211.8</ele>
        <time>2017-12-21T12:47:56Z</time>
      </trkpt>
      <trkpt lat="47.31391" lon="5.85345">
        <ele>212.4</ele>
        <time>2017-12-21T12:47:57Z</time>
      </trkpt>
      <trkpt lat="47.31388" lon="5.85341">
        <ele>212.4</ele>
        <time>2017-12-21T12:47:58Z</time>
      </trkpt>
      <trkpt lat="47.31385" lon="5.85337">
        <ele>212.4</ele>
        <time>2017-12-21T12:47:59Z</time>
      </trkpt>
      <trkpt lat="47.31382" lon="5.85333">
        <ele>212.4</ele>
        <time>2017-12-21T12:48:00Z</time>
      </trkpt>
      <trkpt lat="47.31379" lon="5.85328">
        <ele>212.4</ele>
        <time>2017-12-21T12:48:01Z</time>
      </trkpt>
      <trkpt lat="47.31377" lon="5.85324">
        <ele>212.4</ele>
        <time>2017-12-21T12:48:02Z</time>
      </trkpt>
      <trkpt lat="47.31373" lon="5.8532">
        <ele>212.4</ele>
        <time>2017-12-21T12:48:03Z</time>
      </trkpt>
      <trkpt lat="47.31371" lon="5.85316">
        <ele>212.8</ele>
        <time>2017-12-21T12:48:04Z</time>
      </trkpt>
      <trkpt lat="47.31368" lon="5.85313">
        <ele>213.2</ele>
        <time>2017-12-21T12:48:05Z</time>
      </trkpt>
      <trkpt lat="47.31365" lon="5.85308">
        <ele>213.6</ele>
        <time>2017-12-21T12:48:06Z</time>
      </trkpt>
      <trkpt lat="47.31362" lon="5.85304">
        <ele>214</ele>
        <time>2017-12-21T12:48:07Z</time>
      </trkpt>
      <trkpt lat="47.31359" lon="5.853">
        <ele>214.4</ele>
        <time>2017-12-21T12:48:08Z</time>
      </trkpt>
      <trkpt lat="47.31356" lon="5.85297">
        <ele>214.4</ele>
        <time>2017-12-21T12:48:09Z</time>
      </trkpt>
      <trkpt lat="47.31353" lon="5.85293">
        <ele>214.4</ele>
        <time>2017-12-21T12:48:10Z</time>
      </trkpt>
      <trkpt lat="47.3135" lon="5.85289">
        <ele>214.4</ele>
        <time>2017-12-21T12:48:11Z</time>
      </trkpt>
      <trkpt lat="47.31348" lon="5.85285">
        <ele>214.4</ele>
        <time>2017-12-21T12:48:12Z</time>
      </trkpt>
      <trkpt lat="47.31345" lon="5.85281">
        <ele>214.4</ele>
        <time>2017-12-21T12:48:13Z</time>
      </trkpt>
      <trkpt lat="47.31342" lon="5.85277">
        <ele>214.4</ele>
        <time>2017-12-21T12:48:14Z</time>
      </trkpt>
      <trkpt lat="47.31339" lon="5.85274">
        <ele>214.4</ele>
        <time>2017-12-21T12:48:15Z</time>
      </trkpt>
      <trkpt lat="47.31336" lon="5.8527">
        <ele>214.8</ele>
        <time>2017-12-21T12:48:16Z</time>
      </trkpt>
      <trkpt lat="47.31333" lon="5.85266">
        <ele>215.2</ele>
        <time>2017-12-21T12:48:17Z</time>
      </trkpt>
      <trkpt lat="47.31331" lon="5.85262">
        <ele>215.6</ele>
        <time>2017-12-21T12:48:18Z</time>
      </trkpt>
      <trkpt lat="47.31328" lon="5.85258">
        <ele>216</ele>
        <time>2017-12-21T12:48:19Z</time>
      </trkpt>
      <trkpt lat="47.31325" lon="5.85254">
        <ele>216.4</ele>
        <time>2017-12-21T12:48:20Z</time>
      </trkpt>
      <trkpt lat="47.31321" lon="5.8525">
        <ele>216.4</ele>
        <time>2017-12-21T12:48:21Z</time>
      </trkpt>
      <trkpt lat="47.31318" lon="5.85247">
        <ele>216.4</ele>
        <time>2017-12-21T12:48:22Z</time>
      </trkpt>
      <trkpt lat="47.31316" lon="5.85242">
        <ele>216.4</ele>
        <time>2017-12-21T12:48:23Z</time>
      </trkpt>
      <trkpt lat="47.31313" lon="5.85238">
        <ele>216.4</ele>
        <time>2017-12-21T12:48:24Z</time>
      </trkpt>
      <trkpt lat="47.3131" lon="5.85234">
        <ele>216.4</ele>
        <time>2017-12-21T12:48:25Z</time>
      </trkpt>
      <trkpt lat="47.31307" lon="5.85231">
        <ele>216.4</ele>
        <time>2017-12-21T12:48:26Z</time>
      </trkpt>
      <trkpt lat="47.31305" lon="5.85227">
        <ele>216.4</ele>
        <time>2017-12-21T12:48:27Z</time>
      </trkpt>
      <trkpt lat="47.31302" lon="5.85223">
        <ele>216.4</ele>
        <time>2017-12-21T12:48:28Z</time>
      </trkpt>
      <trkpt lat="47.31299" lon="5.85219">
        <ele>216.4</ele>
        <time>2017-12-21T12:48:29Z</time>
      </trkpt>
      <trkpt lat="47.31296" lon="5.85215">
        <ele>216.8</ele>
        <time>2017-12-21T12:48:30Z</time>
      </trkpt>
      <trkpt lat="47.31293" lon="5.85211">
        <ele>217.2</ele>
        <time>2017-12-21T12:48:31Z</time>
      </trkpt>
      <trkpt lat="47.3129" lon="5.85207">
        <ele>217.6</ele>
        <time>2017-12-21T12:48:32Z</time>
      </trkpt>
      <trkpt lat="47.31287" lon="5.85203">
        <ele>218.2</ele>
        <time>2017-12-21T12:48:33Z</time>
      </trkpt>
      <trkpt lat="47.31284" lon="5.85199">
        <ele>218.6</ele>
        <time>2017-12-21T12:48:34Z</time>
      </trkpt>
      <trkpt lat="47.31281" lon="5.85196">
        <ele>218.6</ele>
        <time>2017-12-21T12:48:35Z</time>
      </trkpt>
      <trkpt lat="47.31278" lon="5.85191">
        <ele>218.6</ele>
        <time>2017-12-21T12:48:36Z</time>
      </trkpt>
      <trkpt lat="47.31276" lon="5.85187">
        <ele>218.6</ele>
        <time>2017-12-21T12:48:37Z</time>
      </trkpt>
      <trkpt lat="47.31273" lon="5.85183">
        <ele>218.6</ele>
        <time>2017-12-21T12:48:38Z</time>
      </trkpt>
      <trkpt lat="47.3127" lon="5.85179">
        <ele>218.6</ele>
        <time>2017-12-21T12:48:39Z</time>
      </trkpt>
      <trkpt lat="47.31267" lon="5.85175">
        <ele>218.6</ele>
        <time>2017-12-21T12:48:40Z</time>
      </trkpt>
      <trkpt lat="47.31264" lon="5.85171">
        <ele>218.6</ele>
        <time>2017-12-21T12:48:41Z</time>
      </trkpt>
      <trkpt lat="47.31261" lon="5.85166">
        <ele>219</ele>
        <time>2017-12-21T12:48:42Z</time>
      </trkpt>
      <trkpt lat="47.31259" lon="5.85161">
        <ele>219.4</ele>
        <time>2017-12-21T12:48:43Z</time>
      </trkpt>
      <trkpt lat="47.31256" lon="5.85157">
        <ele>219.8</ele>
        <time>2017-12-21T12:48:44Z</time>
      </trkpt>
      <trkpt lat="47.31254" lon="5.85152">
        <ele>220.2</ele>
        <time>2017-12-21T12:48:45Z</time>
      </trkpt>
      <trkpt lat="47.31252" lon="5.85148">
        <ele>220.6</ele>
        <time>2017-12-21T12:48:46Z</time>
      </trkpt>
      <trkpt lat="47.31249" lon="5.85143">
        <ele>220.6</ele>
        <time>2017-12-21T12:48:47Z</time>
      </trkpt>
      <trkpt lat="47.31247" lon="5.85138">
        <ele>220.6</ele>
        <time>2017-12-21T12:48:48Z</time>
      </trkpt>
      <trkpt lat="47.31245" lon="5.85134">
        <ele>220.6</ele>
        <time>2017-12-21T12:48:49Z</time>
      </trkpt>
      <trkpt lat="47.31243" lon="5.85129">
        <ele>220.6</ele>
        <time>2017-12-21T12:48:50Z</time>
      </trkpt>
      <trkpt lat="47.31241" lon="5.85124">
        <ele>220.6</ele>
        <time>2017-12-21T12:48:51Z</time>
      </trkpt>
      <trkpt lat="47.3124" lon="5.8512">
        <ele>220.6</ele>
        <time>2017-12-21T12:48:52Z</time>
      </trkpt>
      <trkpt lat="47.31238" lon="5.85115">
        <ele>220.6</ele>
        <time>2017-12-21T12:48:53Z</time>
      </trkpt>
      <trkpt lat="47.31236" lon="5.8511">
        <ele>221</ele>
        <time>2017-12-21T12:48:54Z</time>
      </trkpt>
      <trkpt lat="47.31235" lon="5.85105">
        <ele>221.4</ele>
        <time>2017-12-21T12:48:55Z</time>
      </trkpt>
      <trkpt lat="47.31233" lon="5.851">
        <ele>221.8</ele>
        <time>2017-12-21T12:48:56Z</time>
      </trkpt>
      <trkpt lat="47.31232" lon="5.85095">
        <ele>222.2</ele>
        <time>2017-12-21T12:48:57Z</time>
      </trkpt>
      <trkpt lat="47.31231" lon="5.8509">
        <ele>222.6</ele>
        <time>2017-12-21T12:48:58Z</time>
      </trkpt>
      <trkpt lat="47.3123" lon="5.85085">
        <ele>222.6</ele>
        <time>2017-12-21T12:48:59Z</time>
      </trkpt>
      <trkpt lat="47.31229" lon="5.85079">
        <ele>222.6</ele>
        <time>2017-12-21T12:49:00Z</time>
      </trkpt>
      <trkpt lat="47.31228" lon="5.85074">
        <ele>222.6</ele>
        <time>2017-12-21T12:49:01Z</time>
      </trkpt>
      <trkpt lat="47.31227" lon="5.85069">
        <ele>222.6</ele>
        <time>2017-12-21T12:49:02Z</time>
      </trkpt>
      <trkpt lat="47.31226" lon="5.85063">
        <ele>222.6</ele>
        <time>2017-12-21T12:49:03Z</time>
      </trkpt>
      <trkpt lat="47.31224" lon="5.85058">
        <ele>222.6</ele>
        <time>2017-12-21T12:49:04Z</time>
      </trkpt>
      <trkpt lat="47.31223" lon="5.85054">
        <ele>223</ele>
        <time>2017-12-21T12:49:05Z</time>
      </trkpt>
      <trkpt lat="47.31222" lon="5.85049">
        <ele>223.6</ele>
        <time>2017-12-21T12:49:06Z</time>
      </trkpt>
      <trkpt lat="47.31221" lon="5.85043">
        <ele>224</ele>
        <time>2017-12-21T12:49:07Z</time>
      </trkpt>
      <trkpt lat="47.3122" lon="5.85038">
        <ele>224.4</ele>
        <time>2017-12-21T12:49:08Z</time>
      </trkpt>
      <trkpt lat="47.31219" lon="5.85033">
        <ele>224.8</ele>
        <time>2017-12-21T12:49:09Z</time>
      </trkpt>
      <trkpt lat="47.31219" lon="5.85027">
        <ele>224.8</ele>
        <time>2017-12-21T12:49:10Z</time>
      </trkpt>
      <trkpt lat="47.31218" lon="5.85022">
        <ele>224.8</ele>
        <time>2017-12-21T12:49:11Z</time>
      </trkpt>
      <trkpt lat="47.31217" lon="5.85017">
        <ele>224.8</ele>
        <time>2017-12-21T12:49:12Z</time>
      </trkpt>
      <trkpt lat="47.31216" lon="5.85012">
        <ele>224.8</ele>
        <time>2017-12-21T12:49:13Z</time>
      </trkpt>
      <trkpt lat="47.31214" lon="5.85007">
        <ele>224.8</ele>
        <time>2017-12-21T12:49:14Z</time>
      </trkpt>
      <trkpt lat="47.31213" lon="5.85002">
        <ele>224.8</ele>
        <time>2017-12-21T12:49:15Z</time>
      </trkpt>
      <trkpt lat="47.31212" lon="5.84996">
        <ele>224.8</ele>
        <time>2017-12-21T12:49:16Z</time>
      </trkpt>
      <trkpt lat="47.31211" lon="5.84991">
        <ele>224.8</ele>
        <time>2017-12-21T12:49:17Z</time>
      </trkpt>
      <trkpt lat="47.3121" lon="5.84986">
        <ele>225.4</ele>
        <time>2017-12-21T12:49:18Z</time>
      </trkpt>
      <trkpt lat="47.31209" lon="5.84981">
        <ele>225.8</ele>
        <time>2017-12-21T12:49:19Z</time>
      </trkpt>
      <trkpt lat="47.31208" lon="5.84976">
        <ele>226.2</ele>
        <time>2017-12-21T12:49:20Z</time>
      </trkpt>
      <trkpt lat="47.31207" lon="5.84971">
        <ele>226.6</ele>
        <time>2017-12-21T12:49:21Z</time>
      </trkpt>
      <trkpt lat="47.31206" lon="5.84966">
        <ele>227</ele>
        <time>2017-12-21T12:49:22Z</time>
      </trkpt>
      <trkpt lat="47.31205" lon="5.8496">
        <ele>227</ele>
        <time>2017-12-21T12:49:23Z</time>
      </trkpt>
      <trkpt lat="47.31204" lon="5.84955">
        <ele>227</ele>
        <time>2017-12-21T12:49:24Z</time>
      </trkpt>
      <trkpt lat="47.31202" lon="5.8495">
        <ele>227</ele>
        <time>2017-12-21T12:49:25Z</time>
      </trkpt>
      <trkpt lat="47.31201" lon="5.84945">
        <ele>227</ele>
        <time>2017-12-21T12:49:26Z</time>
      </trkpt>
      <trkpt lat="47.312" lon="5.8494">
        <ele>227</ele>
        <time>2017-12-21T12:49:27Z</time>
      </trkpt>
      <trkpt lat="47.31199" lon="5.84935">
        <ele>227.4</ele>
        <time>2017-12-21T12:49:28Z</time>
      </trkpt>
      <trkpt lat="47.31198" lon="5.8493">
        <ele>227.8</ele>
        <time>2017-12-21T12:49:29Z</time>
      </trkpt>
      <trkpt lat="47.31197" lon="5.84924">
        <ele>228.4</ele>
        <time>2017-12-21T12:49:30Z</time>
      </trkpt>
      <trkpt lat="47.31196" lon="5.84919">
        <ele>228.8</ele>
        <time>2017-12-21T12:49:31Z</time>
      </trkpt>
      <trkpt lat="47.31195" lon="5.84914">
        <ele>229.2</ele>
        <time>2017-12-21T12:49:32Z</time>
      </trkpt>
      <trkpt lat="47.31194" lon="5.84909">
        <ele>229.2</ele>
        <time>2017-12-21T12:49:33Z</time>
      </trkpt>
      <trkpt lat="47.31193" lon="5.84904">
        <ele>229.2</ele>
        <time>2017-12-21T12:49:34Z</time>
      </trkpt>
      <trkpt lat="47.31192" lon="5.84899">
        <ele>229.2</ele>
        <time>2017-12-21T12:49:35Z</time>
      </trkpt>
      <trkpt lat="47.31191" lon="5.84894">
        <ele>229.2</ele>
        <time>2017-12-21T12:49:36Z</time>
      </trkpt>
      <trkpt lat="47.3119" lon="5.84889">
        <ele>229.2</ele>
        <time>2017-12-21T12:49:37Z</time>
      </trkpt>
      <trkpt lat="47.31189" lon="5.84883">
        <ele>229.2</ele>
        <time>2017-12-21T12:49:38Z</time>
      </trkpt>
      <trkpt lat="47.31187" lon="5.84878">
        <ele>229.2</ele>
        <time>2017-12-21T12:49:39Z</time>
      </trkpt>
      <trkpt lat="47.31185" lon="5.84873">
        <ele>229.2</ele>
        <time>2017-12-21T12:49:40Z</time>
      </trkpt>
      <trkpt lat="47.31184" lon="5.84868">
        <ele>229.6</ele>
        <time>2017-12-21T12:49:41Z</time>
      </trkpt>
      <trkpt lat="47.31183" lon="5.84863">
        <ele>230</ele>
        <time>2017-12-21T12:49:42Z</time>
      </trkpt>
      <trkpt lat="47.31181" lon="5.84858">
        <ele>230.4</ele>
        <time>2017-12-21T12:49:43Z</time>
      </trkpt>
      <trkpt lat="47.3118" lon="5.84853">
        <ele>230.8</ele>
        <time>2017-12-21T12:49:44Z</time>
      </trkpt>
      <trkpt lat="47.31178" lon="5.84848">
        <ele>231.2</ele>
        <time>2017-12-21T12:49:45Z</time>
      </trkpt>
      <trkpt lat="47.31176" lon="5.84843">
        <ele>231.2</ele>
        <time>2017-12-21T12:49:46Z</time>
      </trkpt>
      <trkpt lat="47.31174" lon="5.84838">
        <ele>231.2</ele>
        <time>2017-12-21T12:49:47Z</time>
      </trkpt>
      <trkpt lat="47.31172" lon="5.84834">
        <ele>231.2</ele>
        <time>2017-12-21T12:49:48Z</time>
      </trkpt>
      <trkpt lat="47.3117" lon="5.84829">
        <ele>231.2</ele>
        <time>2017-12-21T12:49:49Z</time>
      </trkpt>
      <trkpt lat="47.31167" lon="5.84825">
        <ele>231.2</ele>
        <time>2017-12-21T12:49:50Z</time>
      </trkpt>
      <trkpt lat="47.31165" lon="5.8482">
        <ele>231.2</ele>
        <time>2017-12-21T12:49:51Z</time>
      </trkpt>
      <trkpt lat="47.31162" lon="5.84815">
        <ele>231.6</ele>
        <time>2017-12-21T12:49:52Z</time>
      </trkpt>
      <trkpt lat="47.3116" lon="5.8481">
        <ele>232.2</ele>
        <time>2017-12-21T12:49:53Z</time>
      </trkpt>
      <trkpt lat="47.31157" lon="5.84806">
        <ele>232.6</ele>
        <time>2017-12-21T12:49:54Z</time>
      </trkpt>
      <trkpt lat="47.31154" lon="5.84801">
        <ele>233</ele>
        <time>2017-12-21T12:49:55Z</time>
      </trkpt>
      <trkpt lat="47.31152" lon="5.84797">
        <ele>233.4</ele>
        <time>2017-12-21T12:49:56Z</time>
      </trkpt>
      <trkpt lat="47.31149" lon="5.84793">
        <ele>233.4</ele>
        <time>2017-12-21T12:49:57Z</time>
      </trkpt>
      <trkpt lat="47.31146" lon="5.84789">
        <ele>233.4</ele>
        <time>2017-12-21T12:49:58Z</time>
      </trkpt>
      <trkpt lat="47.31143" lon="5.84784">
        <ele>233.4</ele>
        <time>2017-12-21T12:49:59Z</time>
      </trkpt>
      <trkpt lat="47.3114" lon="5.8478">
        <ele>233.4</ele>
        <time>2017-12-21T12:50:00Z</time>
      </trkpt>
      <trkpt lat="47.31137" lon="5.84776">
        <ele>233.4</ele>
        <time>2017-12-21T12:50:01Z</time>
      </trkpt>
      <trkpt lat="47.31134" lon="5.84771">
        <ele>233.4</ele>
        <time>2017-12-21T12:50:02Z</time>
      </trkpt>
      <trkpt lat="47.31131" lon="5.84767">
        <ele>233.4</ele>
        <time>2017-12-21T12:50:03Z</time>
      </trkpt>
      <trkpt lat="47.31128" lon="5.84762">
        <ele>233.4</ele>
        <time>2017-12-21T12:50:04Z</time>
      </trkpt>
      <trkpt lat="47.31125" lon="5.84757">
        <ele>233.4</ele>
        <time>2017-12-21T12:50:05Z</time>
      </trkpt>
      <trkpt lat="47.31122" lon="5.84752">
        <ele>233.4</ele>
        <time>2017-12-21T12:50:06Z</time>
      </trkpt>
      <trkpt lat="47.31118" lon="5.84747">
        <ele>233.4</ele>
        <time>2017-12-21T12:50:07Z</time>
      </trkpt>
      <trkpt lat="47.31115" lon="5.84742">
        <ele>233.4</ele>
        <time>2017-12-21T12:50:08Z</time>
      </trkpt>
      <trkpt lat="47.31111" lon="5.84736">
        <ele>233.4</ele>
        <time>2017-12-21T12:50:09Z</time>
      </trkpt>
      <trkpt lat="47.31107" lon="5.8473">
        <ele>233.4</ele>
        <time>2017-12-21T12:50:10Z</time>
      </trkpt>
      <trkpt lat="47.31103" lon="5.84724">
        <ele>233.4</ele>
        <time>2017-12-21T12:50:11Z</time>
      </trkpt>
      <trkpt lat="47.31099" lon="5.84718">
        <ele>233.4</ele>
        <time>2017-12-21T12:50:12Z</time>
      </trkpt>
      <trkpt lat="47.31094" lon="5.84711">
        <ele>233.4</ele>
        <time>2017-12-21T12:50:13Z</time>
      </trkpt>
      <trkpt lat="47.3109" lon="5.84704">
        <ele>233.4</ele>
        <time>2017-12-21T12:50:14Z</time>
      </trkpt>
      <trkpt lat="47.31085" lon="5.84697">
        <ele>233.4</ele>
        <time>2017-12-21T12:50:15Z</time>
      </trkpt>
      <trkpt lat="47.3108" lon="5.84689">
        <ele>233.4</ele>
        <time>2017-12-21T12:50:16Z</time>
      </trkpt>
      <trkpt lat="47.31075" lon="5.84682">
        <ele>233</ele>
        <time>2017-12-21T12:50:17Z</time>
      </trkpt>
      <trkpt lat="47.3107" lon="5.84675">
        <ele>232.6</ele>
        <time>2017-12-21T12:50:18Z</time>
      </trkpt>
      <trkpt lat="47.31065" lon="5.84667">
        <ele>232</ele>
        <time>2017-12-21T12:50:19Z</time>
      </trkpt>
      <trkpt lat="47.3106" lon="5.84659">
        <ele>231.6</ele>
        <time>2017-12-21T12:50:20Z</time>
      </trkpt>
      <trkpt lat="47.31055" lon="5.84651">
        <ele>231.2</ele>
        <time>2017-12-21T12:50:21Z</time>
      </trkpt>
      <trkpt lat="47.3105" lon="5.84643">
        <ele>231.2</ele>
        <time>2017-12-21T12:50:22Z</time>
      </trkpt>
      <trkpt lat="47.31044" lon="5.84635">
        <ele>231.2</ele>
        <time>2017-12-21T12:50:23Z</time>
      </trkpt>
      <trkpt lat="47.31039" lon="5.84627">
        <ele>231.2</ele>
        <time>2017-12-21T12:50:24Z</time>
      </trkpt>
      <trkpt lat="47.31034" lon="5.84619">
        <ele>230.8</ele>
        <time>2017-12-21T12:50:25Z</time>
      </trkpt>
      <trkpt lat="47.3103" lon="5.8461">
        <ele>230.2</ele>
        <time>2017-12-21T12:50:26Z</time>
      </trkpt>
      <trkpt lat="47.31025" lon="5.84602">
        <ele>229.8</ele>
        <time>2017-12-21T12:50:27Z</time>
      </trkpt>
      <trkpt lat="47.31021" lon="5.84594">
        <ele>229.4</ele>
        <time>2017-12-21T12:50:28Z</time>
      </trkpt>
      <trkpt lat="47.31017" lon="5.84586">
        <ele>229</ele>
        <time>2017-12-21T12:50:29Z</time>
      </trkpt>
      <trkpt lat="47.31013" lon="5.84578">
        <ele>229</ele>
        <time>2017-12-21T12:50:30Z</time>
      </trkpt>
      <trkpt lat="47.31009" lon="5.8457">
        <ele>229</ele>
        <time>2017-12-21T12:50:31Z</time>
      </trkpt>
      <trkpt lat="47.31006" lon="5.84562">
        <ele>229</ele>
        <time>2017-12-21T12:50:32Z</time>
      </trkpt>
      <trkpt lat="47.31002" lon="5.84554">
        <ele>229</ele>
        <time>2017-12-21T12:50:33Z</time>
      </trkpt>
      <trkpt lat="47.30999" lon="5.84547">
        <ele>229</ele>
        <time>2017-12-21T12:50:34Z</time>
      </trkpt>
      <trkpt lat="47.30996" lon="5.84539">
        <ele>229</ele>
        <time>2017-12-21T12:50:35Z</time>
      </trkpt>
      <trkpt lat="47.30992" lon="5.84532">
        <ele>229</ele>
        <time>2017-12-21T12:50:36Z</time>
      </trkpt>
      <trkpt lat="47.30989" lon="5.84524">
        <ele>229</ele>
        <time>2017-12-21T12:50:37Z</time>
      </trkpt>
      <trkpt lat="47.30985" lon="5.84517">
        <ele>229</ele>
        <time>2017-12-21T12:50:38Z</time>
      </trkpt>
      <trkpt lat="47.30982" lon="5.84509">
        <ele>229</ele>
        <time>2017-12-21T12:50:39Z</time>
      </trkpt>
      <trkpt lat="47.30979" lon="5.84502">
        <ele>229</ele>
        <time>2017-12-21T12:50:40Z</time>
      </trkpt>
      <trkpt lat="47.30975" lon="5.84495">
        <ele>229</ele>
        <time>2017-12-21T12:50:41Z</time>
      </trkpt>
      <trkpt lat="47.30972" lon="5.84488">
        <ele>229</ele>
        <time>2017-12-21T12:50:42Z</time>
      </trkpt>
      <trkpt lat="47.30969" lon="5.84481">
        <ele>229</ele>
        <time>2017-12-21T12:50:43Z</time>
      </trkpt>
      <trkpt lat="47.30966" lon="5.84474">
        <ele>229</ele>
        <time>2017-12-21T12:50:44Z</time>
      </trkpt>
      <trkpt lat="47.30962" lon="5.84466">
        <ele>229</ele>
        <time>2017-12-21T12:50:45Z</time>
      </trkpt>
      <trkpt lat="47.30959" lon="5.84459">
        <ele>229</ele>
        <time>2017-12-21T12:50:46Z</time>
      </trkpt>
      <trkpt lat="47.30956" lon="5.84452">
        <ele>229</ele>
        <time>2017-12-21T12:50:47Z</time>
      </trkpt>
      <trkpt lat="47.30953" lon="5.84446">
        <ele>229</ele>
        <time>2017-12-21T12:50:48Z</time>
      </trkpt>
      <trkpt lat="47.3095" lon="5.84439">
        <ele>229</ele>
        <time>2017-12-21T12:50:49Z</time>
      </trkpt>
      <trkpt lat="47.30946" lon="5.84431">
        <ele>229</ele>
        <time>2017-12-21T12:50:50Z</time>
      </trkpt>
      <trkpt lat="47.30943" lon="5.84424">
        <ele>229</ele>
        <time>2017-12-21T12:50:51Z</time>
      </trkpt>
      <trkpt lat="47.3094" lon="5.84416">
        <ele>229</ele>
        <time>2017-12-21T12:50:52Z</time>
      </trkpt>
      <trkpt lat="47.30936" lon="5.84409">
        <ele>229</ele>
        <time>2017-12-21T12:50:53Z</time>
      </trkpt>
      <trkpt lat="47.30933" lon="5.84401">
        <ele>229</ele>
        <time>2017-12-21T12:50:54Z</time>
      </trkpt>
      <trkpt lat="47.3093" lon="5.84394">
        <ele>229</ele>
        <time>2017-12-21T12:50:55Z</time>
      </trkpt>
      <trkpt lat="47.30927" lon="5.84386">
        <ele>229</ele>
        <time>2017-12-21T12:50:56Z</time>
      </trkpt>
      <trkpt lat="47.30923" lon="5.84379">
        <ele>229</ele>
        <time>2017-12-21T12:50:57Z</time>
      </trkpt>
      <trkpt lat="47.3092" lon="5.84371">
        <ele>229</ele>
        <time>2017-12-21T12:50:58Z</time>
      </trkpt>
      <trkpt lat="47.30917" lon="5.84364">
        <ele>229</ele>
        <time>2017-12-21T12:50:59Z</time>
      </trkpt>
      <trkpt lat="47.30913" lon="5.84356">
        <ele>229</ele>
        <time>2017-12-21T12:51:00Z</time>
      </trkpt>
      <trkpt lat="47.3091" lon="5.84348">
        <ele>229</ele>
        <time>2017-12-21T12:51:01Z</time>
      </trkpt>
      <trkpt lat="47.30906" lon="5.84341">
        <ele>229</ele>
        <time>2017-12-21T12:51:02Z</time>
      </trkpt>
      <trkpt lat="47.30903" lon="5.84333">
        <ele>229</ele>
        <time>2017-12-21T12:51:03Z</time>
      </trkpt>
      <trkpt lat="47.30899" lon="5.84325">
        <ele>229</ele>
        <time>2017-12-21T12:51:04Z</time>
      </trkpt>
      <trkpt lat="47.30895" lon="5.84317">
        <ele>229</ele>
        <time>2017-12-21T12:51:05Z</time>
      </trkpt>
      <trkpt lat="47.30892" lon="5.84309">
        <ele>229</ele>
        <time>2017-12-21T12:51:06Z</time>
      </trkpt>
      <trkpt lat="47.30888" lon="5.843">
        <ele>229</ele>
        <time>2017-12-21T12:51:07Z</time>
      </trkpt>
      <trkpt lat="47.30885" lon="5.84292">
        <ele>229</ele>
        <time>2017-12-21T12:51:08Z</time>
      </trkpt>
      <trkpt lat="47.30881" lon="5.84282">
        <ele>229</ele>
        <time>2017-12-21T12:51:09Z</time>
      </trkpt>
      <trkpt lat="47.30877" lon="5.84273">
        <ele>228.6</ele>
        <time>2017-12-21T12:51:10Z</time>
      </trkpt>
      <trkpt lat="47.30873" lon="5.84264">
        <ele>228.2</ele>
        <time>2017-12-21T12:51:11Z</time>
      </trkpt>
      <trkpt lat="47.30868" lon="5.84254">
        <ele>227.6</ele>
        <time>2017-12-21T12:51:12Z</time>
      </trkpt>
      <trkpt lat="47.30864" lon="5.84244">
        <ele>227.2</ele>
        <time>2017-12-21T12:51:13Z</time>
      </trkpt>
      <trkpt lat="47.30859" lon="5.84234">
        <ele>226.8</ele>
        <time>2017-12-21T12:51:14Z</time>
      </trkpt>
      <trkpt lat="47.30854" lon="5.84224">
        <ele>226.4</ele>
        <time>2017-12-21T12:51:15Z</time>
      </trkpt>
      <trkpt lat="47.30849" lon="5.84213">
        <ele>225.8</ele>
        <time>2017-12-21T12:51:16Z</time>
      </trkpt>
      <trkpt lat="47.30845" lon="5.84202">
        <ele>225.4</ele>
        <time>2017-12-21T12:51:17Z</time>
      </trkpt>
      <trkpt lat="47.3084" lon="5.84192">
        <ele>225</ele>
        <time>2017-12-21T12:51:18Z</time>
      </trkpt>
      <trkpt lat="47.30835" lon="5.84181">
        <ele>224.4</ele>
        <time>2017-12-21T12:51:19Z</time>
      </trkpt>
      <trkpt lat="47.3083" lon="5.8417">
        <ele>224</ele>
        <time>2017-12-21T12:51:20Z</time>
      </trkpt>
      <trkpt lat="47.30826" lon="5.8416">
        <ele>223.6</ele>
        <time>2017-12-21T12:51:21Z</time>
      </trkpt>
      <trkpt lat="47.30821" lon="5.84149">
        <ele>223.2</ele>
        <time>2017-12-21T12:51:22Z</time>
      </trkpt>
      <trkpt lat="47.30816" lon="5.84138">
        <ele>222.8</ele>
        <time>2017-12-21T12:51:23Z</time>
      </trkpt>
      <trkpt lat="47.30811" lon="5.84128">
        <ele>222.4</ele>
        <time>2017-12-21T12:51:24Z</time>
      </trkpt>
      <trkpt lat="47.30806" lon="5.84117">
        <ele>222.4</ele>
        <time>2017-12-21T12:51:25Z</time>
      </trkpt>
      <trkpt lat="47.30802" lon="5.84107">
        <ele>222.4</ele>
        <time>2017-12-21T12:51:26Z</time>
      </trkpt>
      <trkpt lat="47.30798" lon="5.84097">
        <ele>222</ele>
        <time>2017-12-21T12:51:27Z</time>
      </trkpt>
      <trkpt lat="47.30794" lon="5.84087">
        <ele>221.6</ele>
        <time>2017-12-21T12:51:28Z</time>
      </trkpt>
      <trkpt lat="47.3079" lon="5.84077">
        <ele>220.6</ele>
        <time>2017-12-21T12:51:29Z</time>
      </trkpt>
      <trkpt lat="47.30786" lon="5.84067">
        <ele>220.2</ele>
        <time>2017-12-21T12:51:30Z</time>
      </trkpt>
      <trkpt lat="47.30783" lon="5.84056">
        <ele>220.2</ele>
        <time>2017-12-21T12:51:31Z</time>
      </trkpt>
      <trkpt lat="47.30779" lon="5.84046">
        <ele>220.2</ele>
        <time>2017-12-21T12:51:32Z</time>
      </trkpt>
      <trkpt lat="47.30776" lon="5.84035">
        <ele>220.2</ele>
        <time>2017-12-21T12:51:33Z</time>
      </trkpt>
      <trkpt lat="47.30773" lon="5.84025">
        <ele>220.2</ele>
        <time>2017-12-21T12:51:34Z</time>
      </trkpt>
      <trkpt lat="47.3077" lon="5.84014">
        <ele>219.8</ele>
        <time>2017-12-21T12:51:35Z</time>
      </trkpt>
      <trkpt lat="47.30767" lon="5.84003">
        <ele>219.4</ele>
        <time>2017-12-21T12:51:36Z</time>
      </trkpt>
      <trkpt lat="47.30765" lon="5.83992">
        <ele>219</ele>
        <time>2017-12-21T12:51:37Z</time>
      </trkpt>
      <trkpt lat="47.30762" lon="5.8398">
        <ele>218.4</ele>
        <time>2017-12-21T12:51:38Z</time>
      </trkpt>
      <trkpt lat="47.30759" lon="5.83969">
        <ele>218</ele>
        <time>2017-12-21T12:51:39Z</time>
      </trkpt>
      <trkpt lat="47.30756" lon="5.83957">
        <ele>218</ele>
        <time>2017-12-21T12:51:40Z</time>
      </trkpt>
      <trkpt lat="47.30753" lon="5.83945">
        <ele>217.6</ele>
        <time>2017-12-21T12:51:41Z</time>
      </trkpt>
      <trkpt lat="47.3075" lon="5.83932">
        <ele>217.2</ele>
        <time>2017-12-21T12:51:42Z</time>
      </trkpt>
      <trkpt lat="47.30748" lon="5.8392">
        <ele>216.8</ele>
        <time>2017-12-21T12:51:43Z</time>
      </trkpt>
      <trkpt lat="47.30746" lon="5.83908">
        <ele>216.2</ele>
        <time>2017-12-21T12:51:44Z</time>
      </trkpt>
      <trkpt lat="47.30744" lon="5.83896">
        <ele>215.8</ele>
        <time>2017-12-21T12:51:45Z</time>
      </trkpt>
      <trkpt lat="47.30743" lon="5.83883">
        <ele>215.8</ele>
        <time>2017-12-21T12:51:46Z</time>
      </trkpt>
      <trkpt lat="47.30741" lon="5.83871">
        <ele>215.8</ele>
        <time>2017-12-21T12:51:47Z</time>
      </trkpt>
      <trkpt lat="47.30739" lon="5.8386">
        <ele>215.8</ele>
        <time>2017-12-21T12:51:48Z</time>
      </trkpt>
      <trkpt lat="47.30738" lon="5.83848">
        <ele>215.4</ele>
        <time>2017-12-21T12:51:49Z</time>
      </trkpt>
      <trkpt lat="47.30737" lon="5.83836">
        <ele>215</ele>
        <time>2017-12-21T12:51:50Z</time>
      </trkpt>
      <trkpt lat="47.30736" lon="5.83824">
        <ele>214.6</ele>
        <time>2017-12-21T12:51:51Z</time>
      </trkpt>
      <trkpt lat="47.30734" lon="5.83812">
        <ele>214.2</ele>
        <time>2017-12-21T12:51:52Z</time>
      </trkpt>
      <trkpt lat="47.30733" lon="5.838">
        <ele>213.8</ele>
        <time>2017-12-21T12:51:53Z</time>
      </trkpt>
      <trkpt lat="47.30731" lon="5.83788">
        <ele>213.8</ele>
        <time>2017-12-21T12:51:54Z</time>
      </trkpt>
      <trkpt lat="47.3073" lon="5.83776">
        <ele>213.8</ele>
        <time>2017-12-21T12:51:55Z</time>
      </trkpt>
      <trkpt lat="47.30728" lon="5.83765">
        <ele>213.8</ele>
        <time>2017-12-21T12:51:56Z</time>
      </trkpt>
      <trkpt lat="47.30727" lon="5.83753">
        <ele>213.8</ele>
        <time>2017-12-21T12:51:57Z</time>
      </trkpt>
      <trkpt lat="47.30725" lon="5.83742">
        <ele>213.8</ele>
        <time>2017-12-21T12:51:58Z</time>
      </trkpt>
      <trkpt lat="47.30724" lon="5.8373">
        <ele>213.8</ele>
        <time>2017-12-21T12:51:59Z</time>
      </trkpt>
      <trkpt lat="47.30722" lon="5.83719">
        <ele>213.8</ele>
        <time>2017-12-21T12:52:00Z</time>
      </trkpt>
      <trkpt lat="47.30721" lon="5.83707">
        <ele>213.8</ele>
        <time>2017-12-21T12:52:01Z</time>
      </trkpt>
      <trkpt lat="47.30719" lon="5.83695">
        <ele>213.8</ele>
        <time>2017-12-21T12:52:02Z</time>
      </trkpt>
      <trkpt lat="47.30717" lon="5.83684">
        <ele>213.4</ele>
        <time>2017-12-21T12:52:03Z</time>
      </trkpt>
      <trkpt lat="47.30716" lon="5.83672">
        <ele>213</ele>
        <time>2017-12-21T12:52:04Z</time>
      </trkpt>
      <trkpt lat="47.30714" lon="5.83661">
        <ele>212.6</ele>
        <time>2017-12-21T12:52:05Z</time>
      </trkpt>
      <trkpt lat="47.30713" lon="5.8365">
        <ele>212.2</ele>
        <time>2017-12-21T12:52:06Z</time>
      </trkpt>
      <trkpt lat="47.30711" lon="5.83639">
        <ele>211.8</ele>
        <time>2017-12-21T12:52:07Z</time>
      </trkpt>
      <trkpt lat="47.3071" lon="5.83628">
        <ele>211.8</ele>
        <time>2017-12-21T12:52:08Z</time>
      </trkpt>
      <trkpt lat="47.30709" lon="5.83617">
        <ele>211.8</ele>
        <time>2017-12-21T12:52:09Z</time>
      </trkpt>
      <trkpt lat="47.30707" lon="5.83607">
        <ele>211.8</ele>
        <time>2017-12-21T12:52:10Z</time>
      </trkpt>
      <trkpt lat="47.30705" lon="5.83596">
        <ele>211.8</ele>
        <time>2017-12-21T12:52:11Z</time>
      </trkpt>
      <trkpt lat="47.30703" lon="5.83585">
        <ele>211.8</ele>
        <time>2017-12-21T12:52:12Z</time>
      </trkpt>
      <trkpt lat="47.30702" lon="5.83575">
        <ele>211.8</ele>
        <time>2017-12-21T12:52:13Z</time>
      </trkpt>
      <trkpt lat="47.30701" lon="5.83564">
        <ele>211.8</ele>
        <time>2017-12-21T12:52:14Z</time>
      </trkpt>
      <trkpt lat="47.30699" lon="5.83553">
        <ele>211.8</ele>
        <time>2017-12-21T12:52:15Z</time>
      </trkpt>
      <trkpt lat="47.30698" lon="5.83542">
        <ele>211.8</ele>
        <time>2017-12-21T12:52:16Z</time>
      </trkpt>
      <trkpt lat="47.30696" lon="5.83532">
        <ele>211.8</ele>
        <time>2017-12-21T12:52:17Z</time>
      </trkpt>
      <trkpt lat="47.30695" lon="5.83522">
        <ele>211.8</ele>
        <time>2017-12-21T12:52:18Z</time>
      </trkpt>
      <trkpt lat="47.30693" lon="5.83512">
        <ele>211.8</ele>
        <time>2017-12-21T12:52:19Z</time>
      </trkpt>
      <trkpt lat="47.30692" lon="5.83502">
        <ele>211.8</ele>
        <time>2017-12-21T12:52:20Z</time>
      </trkpt>
      <trkpt lat="47.30691" lon="5.83492">
        <ele>211.8</ele>
        <time>2017-12-21T12:52:21Z</time>
      </trkpt>
      <trkpt lat="47.3069" lon="5.83481">
        <ele>211.8</ele>
        <time>2017-12-21T12:52:22Z</time>
      </trkpt>
      <trkpt lat="47.3069" lon="5.83471">
        <ele>211.8</ele>
        <time>2017-12-21T12:52:23Z</time>
      </trkpt>
      <trkpt lat="47.30689" lon="5.83459">
        <ele>211.8</ele>
        <time>2017-12-21T12:52:24Z</time>
      </trkpt>
      <trkpt lat="47.30687" lon="5.83448">
        <ele>211.8</ele>
        <time>2017-12-21T12:52:25Z</time>
      </trkpt>
      <trkpt lat="47.30686" lon="5.83438">
        <ele>211.8</ele>
        <time>2017-12-21T12:52:26Z</time>
      </trkpt>
      <trkpt lat="47.30684" lon="5.83427">
        <ele>211.8</ele>
        <time>2017-12-21T12:52:27Z</time>
      </trkpt>
      <trkpt lat="47.30683" lon="5.83416">
        <ele>211.8</ele>
        <time>2017-12-21T12:52:28Z</time>
      </trkpt>
      <trkpt lat="47.30682" lon="5.83405">
        <ele>211.8</ele>
        <time>2017-12-21T12:52:29Z</time>
      </trkpt>
      <trkpt lat="47.30681" lon="5.83394">
        <ele>211.8</ele>
        <time>2017-12-21T12:52:30Z</time>
      </trkpt>
      <trkpt lat="47.30679" lon="5.83382">
        <ele>211.8</ele>
        <time>2017-12-21T12:52:31Z</time>
      </trkpt>
      <trkpt lat="47.30677" lon="5.83371">
        <ele>211.8</ele>
        <time>2017-12-21T12:52:32Z</time>
      </trkpt>
      <trkpt lat="47.30675" lon="5.8336">
        <ele>211.8</ele>
        <time>2017-12-21T12:52:33Z</time>
      </trkpt>
      <trkpt lat="47.30673" lon="5.8335">
        <ele>211.8</ele>
        <time>2017-12-21T12:52:34Z</time>
      </trkpt>
      <trkpt lat="47.30671" lon="5.8334">
        <ele>211.8</ele>
        <time>2017-12-21T12:52:35Z</time>
      </trkpt>
      <trkpt lat="47.30669" lon="5.83331">
        <ele>211.8</ele>
        <time>2017-12-21T12:52:36Z</time>
      </trkpt>
      <trkpt lat="47.30667" lon="5.83321">
        <ele>211.8</ele>
        <time>2017-12-21T12:52:37Z</time>
      </trkpt>
      <trkpt lat="47.30664" lon="5.83312">
        <ele>211.8</ele>
        <time>2017-12-21T12:52:38Z</time>
      </trkpt>
      <trkpt lat="47.30662" lon="5.83303">
        <ele>211.8</ele>
        <time>2017-12-21T12:52:39Z</time>
      </trkpt>
      <trkpt lat="47.30659" lon="5.83294">
        <ele>211.8</ele>
        <time>2017-12-21T12:52:40Z</time>
      </trkpt>
      <trkpt lat="47.30656" lon="5.83287">
        <ele>211.8</ele>
        <time>2017-12-21T12:52:41Z</time>
      </trkpt>
      <trkpt lat="47.30654" lon="5.83279">
        <ele>211.8</ele>
        <time>2017-12-21T12:52:42Z</time>
      </trkpt>
      <trkpt lat="47.30651" lon="5.83272">
        <ele>211.8</ele>
        <time>2017-12-21T12:52:43Z</time>
      </trkpt>
      <trkpt lat="47.30648" lon="5.83265">
        <ele>211.8</ele>
        <time>2017-12-21T12:52:44Z</time>
      </trkpt>
      <trkpt lat="47.30644" lon="5.83258">
        <ele>211.8</ele>
        <time>2017-12-21T12:52:45Z</time>
      </trkpt>
      <trkpt lat="47.30641" lon="5.83251">
        <ele>211.8</ele>
        <time>2017-12-21T12:52:46Z</time>
      </trkpt>
      <trkpt lat="47.30637" lon="5.83245">
        <ele>211.8</ele>
        <time>2017-12-21T12:52:47Z</time>
      </trkpt>
      <trkpt lat="47.30634" lon="5.83239">
        <ele>211.8</ele>
        <time>2017-12-21T12:52:48Z</time>
      </trkpt>
      <trkpt lat="47.3063" lon="5.83233">
        <ele>211.8</ele>
        <time>2017-12-21T12:52:49Z</time>
      </trkpt>
      <trkpt lat="47.30626" lon="5.83227">
        <ele>211.8</ele>
        <time>2017-12-21T12:52:50Z</time>
      </trkpt>
      <trkpt lat="47.30622" lon="5.8322">
        <ele>211.8</ele>
        <time>2017-12-21T12:52:51Z</time>
      </trkpt>
      <trkpt lat="47.30618" lon="5.83214">
        <ele>211.8</ele>
        <time>2017-12-21T12:52:52Z</time>
      </trkpt>
      <trkpt lat="47.30613" lon="5.83209">
        <ele>211.8</ele>
        <time>2017-12-21T12:52:53Z</time>
      </trkpt>
      <trkpt lat="47.30609" lon="5.83204">
        <ele>211.8</ele>
        <time>2017-12-21T12:52:54Z</time>
      </trkpt>
      <trkpt lat="47.30604" lon="5.83198">
        <ele>211.8</ele>
        <time>2017-12-21T12:52:55Z</time>
      </trkpt>
      <trkpt lat="47.30599" lon="5.83193">
        <ele>211.8</ele>
        <time>2017-12-21T12:52:56Z</time>
      </trkpt>
      <trkpt lat="47.30595" lon="5.83188">
        <ele>211.8</ele>
        <time>2017-12-21T12:52:57Z</time>
      </trkpt>
      <trkpt lat="47.3059" lon="5.83183">
        <ele>211.8</ele>
        <time>2017-12-21T12:52:58Z</time>
      </trkpt>
      <trkpt lat="47.30585" lon="5.83178">
        <ele>211.8</ele>
        <time>2017-12-21T12:52:59Z</time>
      </trkpt>
      <trkpt lat="47.3058" lon="5.83173">
        <ele>211.8</ele>
        <time>2017-12-21T12:53:00Z</time>
      </trkpt>
      <trkpt lat="47.30575" lon="5.83167">
        <ele>211.8</ele>
        <time>2017-12-21T12:53:01Z</time>
      </trkpt>
      <trkpt lat="47.30569" lon="5.83162">
        <ele>211.8</ele>
        <time>2017-12-21T12:53:02Z</time>
      </trkpt>
      <trkpt lat="47.30564" lon="5.83157">
        <ele>211.8</ele>
        <time>2017-12-21T12:53:03Z</time>
      </trkpt>
      <trkpt lat="47.30559" lon="5.83152">
        <ele>211.8</ele>
        <time>2017-12-21T12:53:04Z</time>
      </trkpt>
      <trkpt lat="47.30554" lon="5.83146">
        <ele>211.8</ele>
        <time>2017-12-21T12:53:05Z</time>
      </trkpt>
      <trkpt lat="47.30549" lon="5.8314">
        <ele>211.8</ele>
        <time>2017-12-21T12:53:06Z</time>
      </trkpt>
      <trkpt lat="47.30544" lon="5.83135">
        <ele>211.8</ele>
        <time>2017-12-21T12:53:07Z</time>
      </trkpt>
      <trkpt lat="47.30539" lon="5.8313">
        <ele>211.8</ele>
        <time>2017-12-21T12:53:08Z</time>
      </trkpt>
      <trkpt lat="47.30533" lon="5.83124">
        <ele>211.8</ele>
        <time>2017-12-21T12:53:09Z</time>
      </trkpt>
      <trkpt lat="47.30528" lon="5.83118">
        <ele>211.8</ele>
        <time>2017-12-21T12:53:10Z</time>
      </trkpt>
      <trkpt lat="47.30522" lon="5.83112">
        <ele>211.8</ele>
        <time>2017-12-21T12:53:11Z</time>
      </trkpt>
      <trkpt lat="47.30517" lon="5.83106">
        <ele>211.8</ele>
        <time>2017-12-21T12:53:12Z</time>
      </trkpt>
      <trkpt lat="47.30512" lon="5.831">
        <ele>211.8</ele>
        <time>2017-12-21T12:53:13Z</time>
      </trkpt>
      <trkpt lat="47.30507" lon="5.83093">
        <ele>211.8</ele>
        <time>2017-12-21T12:53:14Z</time>
      </trkpt>
      <trkpt lat="47.30502" lon="5.83086">
        <ele>211.8</ele>
        <time>2017-12-21T12:53:15Z</time>
      </trkpt>
      <trkpt lat="47.30497" lon="5.83078">
        <ele>211.8</ele>
        <time>2017-12-21T12:53:16Z</time>
      </trkpt>
      <trkpt lat="47.30493" lon="5.8307">
        <ele>211.8</ele>
        <time>2017-12-21T12:53:17Z</time>
      </trkpt>
      <trkpt lat="47.30489" lon="5.83061">
        <ele>211.8</ele>
        <time>2017-12-21T12:53:18Z</time>
      </trkpt>
      <trkpt lat="47.30485" lon="5.83052">
        <ele>211.8</ele>
        <time>2017-12-21T12:53:19Z</time>
      </trkpt>
      <trkpt lat="47.30481" lon="5.83043">
        <ele>211.8</ele>
        <time>2017-12-21T12:53:20Z</time>
      </trkpt>
      <trkpt lat="47.30477" lon="5.83034">
        <ele>211.8</ele>
        <time>2017-12-21T12:53:21Z</time>
      </trkpt>
      <trkpt lat="47.30473" lon="5.83024">
        <ele>211.8</ele>
        <time>2017-12-21T12:53:22Z</time>
      </trkpt>
      <trkpt lat="47.3047" lon="5.83015">
        <ele>211.8</ele>
        <time>2017-12-21T12:53:23Z</time>
      </trkpt>
      <trkpt lat="47.30466" lon="5.83005">
        <ele>211.8</ele>
        <time>2017-12-21T12:53:24Z</time>
      </trkpt>
      <trkpt lat="47.30463" lon="5.82995">
        <ele>211.8</ele>
        <time>2017-12-21T12:53:25Z</time>
      </trkpt>
      <trkpt lat="47.3046" lon="5.82985">
        <ele>211.8</ele>
        <time>2017-12-21T12:53:26Z</time>
      </trkpt>
      <trkpt lat="47.30457" lon="5.82975">
        <ele>211.8</ele>
        <time>2017-12-21T12:53:27Z</time>
      </trkpt>
      <trkpt lat="47.30454" lon="5.82965">
        <ele>211.4</ele>
        <time>2017-12-21T12:53:28Z</time>
      </trkpt>
      <trkpt lat="47.30451" lon="5.82956">
        <ele>211</ele>
        <time>2017-12-21T12:53:29Z</time>
      </trkpt>
      <trkpt lat="47.30448" lon="5.82946">
        <ele>210.4</ele>
        <time>2017-12-21T12:53:30Z</time>
      </trkpt>
      <trkpt lat="47.30444" lon="5.82935">
        <ele>210</ele>
        <time>2017-12-21T12:53:31Z</time>
      </trkpt>
      <trkpt lat="47.30441" lon="5.82925">
        <ele>209.6</ele>
        <time>2017-12-21T12:53:32Z</time>
      </trkpt>
      <trkpt lat="47.30438" lon="5.82916">
        <ele>209.6</ele>
        <time>2017-12-21T12:53:33Z</time>
      </trkpt>
      <trkpt lat="47.30436" lon="5.82906">
        <ele>209.6</ele>
        <time>2017-12-21T12:53:34Z</time>
      </trkpt>
      <trkpt lat="47.30433" lon="5.82897">
        <ele>209.6</ele>
        <time>2017-12-21T12:53:35Z</time>
      </trkpt>
      <trkpt lat="47.3043" lon="5.82887">
        <ele>209.6</ele>
        <time>2017-12-21T12:53:36Z</time>
      </trkpt>
      <trkpt lat="47.30428" lon="5.82878">
        <ele>209.6</ele>
        <time>2017-12-21T12:53:37Z</time>
      </trkpt>
      <trkpt lat="47.30425" lon="5.82868">
        <ele>209.6</ele>
        <time>2017-12-21T12:53:38Z</time>
      </trkpt>
      <trkpt lat="47.30422" lon="5.82857">
        <ele>209.6</ele>
        <time>2017-12-21T12:53:39Z</time>
      </trkpt>
      <trkpt lat="47.3042" lon="5.82848">
        <ele>209.6</ele>
        <time>2017-12-21T12:53:40Z</time>
      </trkpt>
      <trkpt lat="47.30417" lon="5.82838">
        <ele>209.6</ele>
        <time>2017-12-21T12:53:41Z</time>
      </trkpt>
      <trkpt lat="47.30414" lon="5.82828">
        <ele>209.6</ele>
        <time>2017-12-21T12:53:42Z</time>
      </trkpt>
      <trkpt lat="47.30411" lon="5.82818">
        <ele>209.6</ele>
        <time>2017-12-21T12:53:43Z</time>
      </trkpt>
      <trkpt lat="47.30409" lon="5.82808">
        <ele>209.6</ele>
        <time>2017-12-21T12:53:44Z</time>
      </trkpt>
      <trkpt lat="47.30406" lon="5.82799">
        <ele>209.6</ele>
        <time>2017-12-21T12:53:45Z</time>
      </trkpt>
      <trkpt lat="47.30404" lon="5.82789">
        <ele>209.6</ele>
        <time>2017-12-21T12:53:46Z</time>
      </trkpt>
      <trkpt lat="47.30401" lon="5.82779">
        <ele>209.6</ele>
        <time>2017-12-21T12:53:47Z</time>
      </trkpt>
      <trkpt lat="47.30399" lon="5.82769">
        <ele>209.6</ele>
        <time>2017-12-21T12:53:48Z</time>
      </trkpt>
      <trkpt lat="47.30396" lon="5.82759">
        <ele>209.6</ele>
        <time>2017-12-21T12:53:49Z</time>
      </trkpt>
      <trkpt lat="47.30394" lon="5.82749">
        <ele>209.6</ele>
        <time>2017-12-21T12:53:50Z</time>
      </trkpt>
      <trkpt lat="47.30392" lon="5.82739">
        <ele>209.6</ele>
        <time>2017-12-21T12:53:51Z</time>
      </trkpt>
      <trkpt lat="47.3039" lon="5.8273">
        <ele>209.6</ele>
        <time>2017-12-21T12:53:52Z</time>
      </trkpt>
      <trkpt lat="47.30388" lon="5.8272">
        <ele>209.6</ele>
        <time>2017-12-21T12:53:53Z</time>
      </trkpt>
      <trkpt lat="47.30385" lon="5.8271">
        <ele>209.6</ele>
        <time>2017-12-21T12:53:54Z</time>
      </trkpt>
      <trkpt lat="47.30383" lon="5.827">
        <ele>209.6</ele>
        <time>2017-12-21T12:53:55Z</time>
      </trkpt>
      <trkpt lat="47.30381" lon="5.82691">
        <ele>209.6</ele>
        <time>2017-12-21T12:53:56Z</time>
      </trkpt>
      <trkpt lat="47.30379" lon="5.82681">
        <ele>209.6</ele>
        <time>2017-12-21T12:53:57Z</time>
      </trkpt>
      <trkpt lat="47.30377" lon="5.82672">
        <ele>209.6</ele>
        <time>2017-12-21T12:53:58Z</time>
      </trkpt>
      <trkpt lat="47.30375" lon="5.82663">
        <ele>209.6</ele>
        <time>2017-12-21T12:53:59Z</time>
      </trkpt>
      <trkpt lat="47.30372" lon="5.82654">
        <ele>209.6</ele>
        <time>2017-12-21T12:54:00Z</time>
      </trkpt>
      <trkpt lat="47.3037" lon="5.82644">
        <ele>209.6</ele>
        <time>2017-12-21T12:54:01Z</time>
      </trkpt>
      <trkpt lat="47.30368" lon="5.82635">
        <ele>209.6</ele>
        <time>2017-12-21T12:54:02Z</time>
      </trkpt>
      <trkpt lat="47.30365" lon="5.82626">
        <ele>209.6</ele>
        <time>2017-12-21T12:54:03Z</time>
      </trkpt>
      <trkpt lat="47.30363" lon="5.82617">
        <ele>209.6</ele>
        <time>2017-12-21T12:54:04Z</time>
      </trkpt>
      <trkpt lat="47.30361" lon="5.82608">
        <ele>209.6</ele>
        <time>2017-12-21T12:54:05Z</time>
      </trkpt>
      <trkpt lat="47.30359" lon="5.82599">
        <ele>209.6</ele>
        <time>2017-12-21T12:54:06Z</time>
      </trkpt>
      <trkpt lat="47.30356" lon="5.8259">
        <ele>209.6</ele>
        <time>2017-12-21T12:54:07Z</time>
      </trkpt>
      <trkpt lat="47.30354" lon="5.82581">
        <ele>209.6</ele>
        <time>2017-12-21T12:54:08Z</time>
      </trkpt>
      <trkpt lat="47.30351" lon="5.82572">
        <ele>209.6</ele>
        <time>2017-12-21T12:54:09Z</time>
      </trkpt>
      <trkpt lat="47.30348" lon="5.82563">
        <ele>209.6</ele>
        <time>2017-12-21T12:54:10Z</time>
      </trkpt>
      <trkpt lat="47.30346" lon="5.82555">
        <ele>209.6</ele>
        <time>2017-12-21T12:54:11Z</time>
      </trkpt>
      <trkpt lat="47.30343" lon="5.82546">
        <ele>209.6</ele>
        <time>2017-12-21T12:54:12Z</time>
      </trkpt>
      <trkpt lat="47.3034" lon="5.82537">
        <ele>209.6</ele>
        <time>2017-12-21T12:54:13Z</time>
      </trkpt>
      <trkpt lat="47.30337" lon="5.82528">
        <ele>209.6</ele>
        <time>2017-12-21T12:54:14Z</time>
      </trkpt>
      <trkpt lat="47.30335" lon="5.82519">
        <ele>209.6</ele>
        <time>2017-12-21T12:54:15Z</time>
      </trkpt>
      <trkpt lat="47.30332" lon="5.8251">
        <ele>209.6</ele>
        <time>2017-12-21T12:54:16Z</time>
      </trkpt>
      <trkpt lat="47.30329" lon="5.82501">
        <ele>209.6</ele>
        <time>2017-12-21T12:54:17Z</time>
      </trkpt>
      <trkpt lat="47.30326" lon="5.82492">
        <ele>209.6</ele>
        <time>2017-12-21T12:54:18Z</time>
      </trkpt>
      <trkpt lat="47.30323" lon="5.82484">
        <ele>209.6</ele>
        <time>2017-12-21T12:54:19Z</time>
      </trkpt>
      <trkpt lat="47.3032" lon="5.82475">
        <ele>209.6</ele>
        <time>2017-12-21T12:54:20Z</time>
      </trkpt>
      <trkpt lat="47.30317" lon="5.82467">
        <ele>209.6</ele>
        <time>2017-12-21T12:54:21Z</time>
      </trkpt>
      <trkpt lat="47.30314" lon="5.82458">
        <ele>209.6</ele>
        <time>2017-12-21T12:54:22Z</time>
      </trkpt>
      <trkpt lat="47.30311" lon="5.8245">
        <ele>209.6</ele>
        <time>2017-12-21T12:54:23Z</time>
      </trkpt>
      <trkpt lat="47.30308" lon="5.82441">
        <ele>209.6</ele>
        <time>2017-12-21T12:54:24Z</time>
      </trkpt>
      <trkpt lat="47.30306" lon="5.82433">
        <ele>209.6</ele>
        <time>2017-12-21T12:54:25Z</time>
      </trkpt>
      <trkpt lat="47.30303" lon="5.82425">
        <ele>209.6</ele>
        <time>2017-12-21T12:54:26Z</time>
      </trkpt>
      <trkpt lat="47.30301" lon="5.82418">
        <ele>209.6</ele>
        <time>2017-12-21T12:54:27Z</time>
      </trkpt>
      <trkpt lat="47.30298" lon="5.82411">
        <ele>209.6</ele>
        <time>2017-12-21T12:54:28Z</time>
      </trkpt>
      <trkpt lat="47.30296" lon="5.82404">
        <ele>209.6</ele>
        <time>2017-12-21T12:54:29Z</time>
      </trkpt>
      <trkpt lat="47.30293" lon="5.82397">
        <ele>209.6</ele>
        <time>2017-12-21T12:54:30Z</time>
      </trkpt>
      <trkpt lat="47.30291" lon="5.8239">
        <ele>209.6</ele>
        <time>2017-12-21T12:54:31Z</time>
      </trkpt>
      <trkpt lat="47.30288" lon="5.82384">
        <ele>209.6</ele>
        <time>2017-12-21T12:54:32Z</time>
      </trkpt>
      <trkpt lat="47.30286" lon="5.82378">
        <ele>209.6</ele>
        <time>2017-12-21T12:54:33Z</time>
      </trkpt>
      <trkpt lat="47.30283" lon="5.82372">
        <ele>209.6</ele>
        <time>2017-12-21T12:54:34Z</time>
      </trkpt>
      <trkpt lat="47.30281" lon="5.82365">
        <ele>209.6</ele>
        <time>2017-12-21T12:54:35Z</time>
      </trkpt>
      <trkpt lat="47.30279" lon="5.82359">
        <ele>209.6</ele>
        <time>2017-12-21T12:54:36Z</time>
      </trkpt>
      <trkpt lat="47.30277" lon="5.82352">
        <ele>209.6</ele>
        <time>2017-12-21T12:54:37Z</time>
      </trkpt>
      <trkpt lat="47.30275" lon="5.82346">
        <ele>209.6</ele>
        <time>2017-12-21T12:54:38Z</time>
      </trkpt>
      <trkpt lat="47.30273" lon="5.8234">
        <ele>209.6</ele>
        <time>2017-12-21T12:54:39Z</time>
      </trkpt>
      <trkpt lat="47.3027" lon="5.82334">
        <ele>209.6</ele>
        <time>2017-12-21T12:54:40Z</time>
      </trkpt>
      <trkpt lat="47.30268" lon="5.82328">
        <ele>210</ele>
        <time>2017-12-21T12:54:41Z</time>
      </trkpt>
      <trkpt lat="47.30266" lon="5.82322">
        <ele>210.6</ele>
        <time>2017-12-21T12:54:42Z</time>
      </trkpt>
      <trkpt lat="47.30264" lon="5.82316">
        <ele>211</ele>
        <time>2017-12-21T12:54:43Z</time>
      </trkpt>
      <trkpt lat="47.30262" lon="5.82309">
        <ele>211.4</ele>
        <time>2017-12-21T12:54:44Z</time>
      </trkpt>
      <trkpt lat="47.30259" lon="5.82303">
        <ele>211.8</ele>
        <time>2017-12-21T12:54:45Z</time>
      </trkpt>
      <trkpt lat="47.30257" lon="5.82296">
        <ele>211.8</ele>
        <time>2017-12-21T12:54:46Z</time>
      </trkpt>
      <trkpt lat="47.30255" lon="5.8229">
        <ele>211.8</ele>
        <time>2017-12-21T12:54:47Z</time>
      </trkpt>
      <trkpt lat="47.30253" lon="5.82284">
        <ele>211.8</ele>
        <time>2017-12-21T12:54:48Z</time>
      </trkpt>
      <trkpt lat="47.30252" lon="5.82278">
        <ele>211.8</ele>
        <time>2017-12-21T12:54:49Z</time>
      </trkpt>
      <trkpt lat="47.3025" lon="5.82271">
        <ele>212.2</ele>
        <time>2017-12-21T12:54:50Z</time>
      </trkpt>
      <trkpt lat="47.30248" lon="5.82265">
        <ele>212.6</ele>
        <time>2017-12-21T12:54:51Z</time>
      </trkpt>
      <trkpt lat="47.30246" lon="5.82259">
        <ele>213</ele>
        <time>2017-12-21T12:54:52Z</time>
      </trkpt>
      <trkpt lat="47.30244" lon="5.82253">
        <ele>213.4</ele>
        <time>2017-12-21T12:54:53Z</time>
      </trkpt>
      <trkpt lat="47.30242" lon="5.82247">
        <ele>213.8</ele>
        <time>2017-12-21T12:54:54Z</time>
      </trkpt>
      <trkpt lat="47.3024" lon="5.82241">
        <ele>213.8</ele>
        <time>2017-12-21T12:54:55Z</time>
      </trkpt>
      <trkpt lat="47.30239" lon="5.82235">
        <ele>213.8</ele>
        <time>2017-12-21T12:54:56Z</time>
      </trkpt>
      <trkpt lat="47.30237" lon="5.82229">
        <ele>213.8</ele>
        <time>2017-12-21T12:54:57Z</time>
      </trkpt>
      <trkpt lat="47.30235" lon="5.82223">
        <ele>213.8</ele>
        <time>2017-12-21T12:54:58Z</time>
      </trkpt>
      <trkpt lat="47.30233" lon="5.82216">
        <ele>213.8</ele>
        <time>2017-12-21T12:54:59Z</time>
      </trkpt>
      <trkpt lat="47.30232" lon="5.8221">
        <ele>213.8</ele>
        <time>2017-12-21T12:55:00Z</time>
      </trkpt>
      <trkpt lat="47.3023" lon="5.82204">
        <ele>213.8</ele>
        <time>2017-12-21T12:55:01Z</time>
      </trkpt>
      <trkpt lat="47.30228" lon="5.82198">
        <ele>214.2</ele>
        <time>2017-12-21T12:55:02Z</time>
      </trkpt>
      <trkpt lat="47.30227" lon="5.82192">
        <ele>214.6</ele>
        <time>2017-12-21T12:55:03Z</time>
      </trkpt>
      <trkpt lat="47.30225" lon="5.82186">
        <ele>215</ele>
        <time>2017-12-21T12:55:04Z</time>
      </trkpt>
      <trkpt lat="47.30223" lon="5.8218">
        <ele>215.4</ele>
        <time>2017-12-21T12:55:05Z</time>
      </trkpt>
      <trkpt lat="47.30221" lon="5.82174">
        <ele>215.8</ele>
        <time>2017-12-21T12:55:06Z</time>
      </trkpt>
      <trkpt lat="47.30219" lon="5.82168">
        <ele>215.8</ele>
        <time>2017-12-21T12:55:07Z</time>
      </trkpt>
      <trkpt lat="47.30218" lon="5.82162">
        <ele>215.8</ele>
        <time>2017-12-21T12:55:08Z</time>
      </trkpt>
      <trkpt lat="47.30216" lon="5.82156">
        <ele>215.8</ele>
        <time>2017-12-21T12:55:09Z</time>
      </trkpt>
      <trkpt lat="47.30214" lon="5.8215">
        <ele>215.8</ele>
        <time>2017-12-21T12:55:10Z</time>
      </trkpt>
      <trkpt lat="47.30213" lon="5.82144">
        <ele>215.8</ele>
        <time>2017-12-21T12:55:11Z</time>
      </trkpt>
      <trkpt lat="47.30211" lon="5.82139">
        <ele>215.8</ele>
        <time>2017-12-21T12:55:12Z</time>
      </trkpt>
      <trkpt lat="47.3021" lon="5.82133">
        <ele>216.8</ele>
        <time>2017-12-21T12:55:13Z</time>
      </trkpt>
      <trkpt lat="47.30209" lon="5.82128">
        <ele>217.2</ele>
        <time>2017-12-21T12:55:14Z</time>
      </trkpt>
      <trkpt lat="47.30207" lon="5.82122">
        <ele>217.6</ele>
        <time>2017-12-21T12:55:15Z</time>
      </trkpt>
      <trkpt lat="47.30206" lon="5.82117">
        <ele>218</ele>
        <time>2017-12-21T12:55:16Z</time>
      </trkpt>
      <trkpt lat="47.30204" lon="5.82112">
        <ele>218</ele>
        <time>2017-12-21T12:55:17Z</time>
      </trkpt>
      <trkpt lat="47.30203" lon="5.82106">
        <ele>218</ele>
        <time>2017-12-21T12:55:18Z</time>
      </trkpt>
      <trkpt lat="47.30201" lon="5.82101">
        <ele>218</ele>
        <time>2017-12-21T12:55:19Z</time>
      </trkpt>
      <trkpt lat="47.302" lon="5.82095">
        <ele>218</ele>
        <time>2017-12-21T12:55:20Z</time>
      </trkpt>
      <trkpt lat="47.30198" lon="5.8209">
        <ele>218</ele>
        <time>2017-12-21T12:55:21Z</time>
      </trkpt>
      <trkpt lat="47.30197" lon="5.82084">
        <ele>218</ele>
        <time>2017-12-21T12:55:22Z</time>
      </trkpt>
      <trkpt lat="47.30195" lon="5.82078">
        <ele>218</ele>
        <time>2017-12-21T12:55:23Z</time>
      </trkpt>
      <trkpt lat="47.30194" lon="5.82072">
        <ele>218</ele>
        <time>2017-12-21T12:55:24Z</time>
      </trkpt>
      <trkpt lat="47.30192" lon="5.82067">
        <ele>218.4</ele>
        <time>2017-12-21T12:55:25Z</time>
      </trkpt>
      <trkpt lat="47.3019" lon="5.82061">
        <ele>218.8</ele>
        <time>2017-12-21T12:55:26Z</time>
      </trkpt>
      <trkpt lat="47.30189" lon="5.82055">
        <ele>219.2</ele>
        <time>2017-12-21T12:55:27Z</time>
      </trkpt>
      <trkpt lat="47.30187" lon="5.82049">
        <ele>219.6</ele>
        <time>2017-12-21T12:55:28Z</time>
      </trkpt>
      <trkpt lat="47.30185" lon="5.82044">
        <ele>220</ele>
        <time>2017-12-21T12:55:29Z</time>
      </trkpt>
      <trkpt lat="47.30184" lon="5.82038">
        <ele>220</ele>
        <time>2017-12-21T12:55:30Z</time>
      </trkpt>
      <trkpt lat="47.30182" lon="5.82032">
        <ele>220</ele>
        <time>2017-12-21T12:55:31Z</time>
      </trkpt>
      <trkpt lat="47.30181" lon="5.82027">
        <ele>220</ele>
        <time>2017-12-21T12:55:32Z</time>
      </trkpt>
      <trkpt lat="47.30179" lon="5.82022">
        <ele>220</ele>
        <time>2017-12-21T12:55:33Z</time>
      </trkpt>
      <trkpt lat="47.30177" lon="5.82016">
        <ele>220</ele>
        <time>2017-12-21T12:55:34Z</time>
      </trkpt>
      <trkpt lat="47.30175" lon="5.8201">
        <ele>220</ele>
        <time>2017-12-21T12:55:35Z</time>
      </trkpt>
      <trkpt lat="47.30174" lon="5.82005">
        <ele>220</ele>
        <time>2017-12-21T12:55:36Z</time>
      </trkpt>
      <trkpt lat="47.30173" lon="5.81999">
        <ele>220.8</ele>
        <time>2017-12-21T12:55:37Z</time>
      </trkpt>
      <trkpt lat="47.30171" lon="5.81993">
        <ele>221.2</ele>
        <time>2017-12-21T12:55:38Z</time>
      </trkpt>
      <trkpt lat="47.30169" lon="5.81987">
        <ele>221.6</ele>
        <time>2017-12-21T12:55:39Z</time>
      </trkpt>
      <trkpt lat="47.30167" lon="5.81981">
        <ele>222</ele>
        <time>2017-12-21T12:55:40Z</time>
      </trkpt>
      <trkpt lat="47.30166" lon="5.81976">
        <ele>222</ele>
        <time>2017-12-21T12:55:41Z</time>
      </trkpt>
      <trkpt lat="47.30164" lon="5.8197">
        <ele>222</ele>
        <time>2017-12-21T12:55:42Z</time>
      </trkpt>
      <trkpt lat="47.30162" lon="5.81964">
        <ele>222</ele>
        <time>2017-12-21T12:55:43Z</time>
      </trkpt>
      <trkpt lat="47.30161" lon="5.81958">
        <ele>222</ele>
        <time>2017-12-21T12:55:44Z</time>
      </trkpt>
      <trkpt lat="47.30159" lon="5.81953">
        <ele>222</ele>
        <time>2017-12-21T12:55:45Z</time>
      </trkpt>
      <trkpt lat="47.30158" lon="5.81947">
        <ele>222</ele>
        <time>2017-12-21T12:55:46Z</time>
      </trkpt>
      <trkpt lat="47.30156" lon="5.81942">
        <ele>222</ele>
        <time>2017-12-21T12:55:47Z</time>
      </trkpt>
      <trkpt lat="47.30154" lon="5.81936">
        <ele>222.4</ele>
        <time>2017-12-21T12:55:48Z</time>
      </trkpt>
      <trkpt lat="47.30152" lon="5.81929">
        <ele>223</ele>
        <time>2017-12-21T12:55:49Z</time>
      </trkpt>
      <trkpt lat="47.30151" lon="5.81922">
        <ele>223.4</ele>
        <time>2017-12-21T12:55:50Z</time>
      </trkpt>
      <trkpt lat="47.30149" lon="5.81915">
        <ele>223.8</ele>
        <time>2017-12-21T12:55:51Z</time>
      </trkpt>
      <trkpt lat="47.30147" lon="5.81908">
        <ele>224.2</ele>
        <time>2017-12-21T12:55:52Z</time>
      </trkpt>
      <trkpt lat="47.30145" lon="5.81901">
        <ele>224.2</ele>
        <time>2017-12-21T12:55:53Z</time>
      </trkpt>
      <trkpt lat="47.30143" lon="5.81894">
        <ele>224.2</ele>
        <time>2017-12-21T12:55:54Z</time>
      </trkpt>
      <trkpt lat="47.30141" lon="5.81888">
        <ele>224.2</ele>
        <time>2017-12-21T12:55:55Z</time>
      </trkpt>
      <trkpt lat="47.30139" lon="5.81881">
        <ele>224.2</ele>
        <time>2017-12-21T12:55:56Z</time>
      </trkpt>
      <trkpt lat="47.30138" lon="5.81874">
        <ele>224.2</ele>
        <time>2017-12-21T12:55:57Z</time>
      </trkpt>
      <trkpt lat="47.30136" lon="5.81868">
        <ele>224.2</ele>
        <time>2017-12-21T12:55:58Z</time>
      </trkpt>
      <trkpt lat="47.30134" lon="5.81861">
        <ele>224.2</ele>
        <time>2017-12-21T12:55:59Z</time>
      </trkpt>
      <trkpt lat="47.30132" lon="5.81854">
        <ele>224.2</ele>
        <time>2017-12-21T12:56:00Z</time>
      </trkpt>
      <trkpt lat="47.3013" lon="5.81847">
        <ele>224.2</ele>
        <time>2017-12-21T12:56:01Z</time>
      </trkpt>
      <trkpt lat="47.30128" lon="5.81839">
        <ele>224.2</ele>
        <time>2017-12-21T12:56:02Z</time>
      </trkpt>
      <trkpt lat="47.30127" lon="5.81832">
        <ele>224.2</ele>
        <time>2017-12-21T12:56:03Z</time>
      </trkpt>
      <trkpt lat="47.30125" lon="5.81824">
        <ele>224.2</ele>
        <time>2017-12-21T12:56:04Z</time>
      </trkpt>
      <trkpt lat="47.30123" lon="5.81816">
        <ele>224.2</ele>
        <time>2017-12-21T12:56:05Z</time>
      </trkpt>
      <trkpt lat="47.30121" lon="5.81809">
        <ele>224.2</ele>
        <time>2017-12-21T12:56:06Z</time>
      </trkpt>
      <trkpt lat="47.30119" lon="5.818">
        <ele>224.2</ele>
        <time>2017-12-21T12:56:07Z</time>
      </trkpt>
      <trkpt lat="47.30118" lon="5.81792">
        <ele>224.2</ele>
        <time>2017-12-21T12:56:08Z</time>
      </trkpt>
      <trkpt lat="47.30116" lon="5.81783">
        <ele>224.2</ele>
        <time>2017-12-21T12:56:09Z</time>
      </trkpt>
      <trkpt lat="47.30116" lon="5.81774">
        <ele>224.2</ele>
        <time>2017-12-21T12:56:10Z</time>
      </trkpt>
      <trkpt lat="47.30115" lon="5.81765">
        <ele>224.2</ele>
        <time>2017-12-21T12:56:11Z</time>
      </trkpt>
      <trkpt lat="47.30115" lon="5.81755">
        <ele>224.2</ele>
        <time>2017-12-21T12:56:12Z</time>
      </trkpt>
      <trkpt lat="47.30116" lon="5.81746">
        <ele>224.2</ele>
        <time>2017-12-21T12:56:13Z</time>
      </trkpt>
      <trkpt lat="47.30117" lon="5.81736">
        <ele>224.2</ele>
        <time>2017-12-21T12:56:14Z</time>
      </trkpt>
      <trkpt lat="47.30118" lon="5.81727">
        <ele>224.2</ele>
        <time>2017-12-21T12:56:15Z</time>
      </trkpt>
      <trkpt lat="47.3012" lon="5.81717">
        <ele>224.2</ele>
        <time>2017-12-21T12:56:16Z</time>
      </trkpt>
      <trkpt lat="47.30121" lon="5.81708">
        <ele>224.2</ele>
        <time>2017-12-21T12:56:17Z</time>
      </trkpt>
      <trkpt lat="47.30123" lon="5.81699">
        <ele>224.2</ele>
        <time>2017-12-21T12:56:18Z</time>
      </trkpt>
      <trkpt lat="47.30125" lon="5.8169">
        <ele>224.2</ele>
        <time>2017-12-21T12:56:19Z</time>
      </trkpt>
      <trkpt lat="47.30127" lon="5.8168">
        <ele>224.2</ele>
        <time>2017-12-21T12:56:20Z</time>
      </trkpt>
      <trkpt lat="47.30129" lon="5.81671">
        <ele>224.2</ele>
        <time>2017-12-21T12:56:21Z</time>
      </trkpt>
      <trkpt lat="47.30131" lon="5.81661">
        <ele>224.2</ele>
        <time>2017-12-21T12:56:22Z</time>
      </trkpt>
      <trkpt lat="47.30134" lon="5.81651">
        <ele>224.2</ele>
        <time>2017-12-21T12:56:23Z</time>
      </trkpt>
      <trkpt lat="47.30136" lon="5.81642">
        <ele>224.2</ele>
        <time>2017-12-21T12:56:24Z</time>
      </trkpt>
      <trkpt lat="47.30138" lon="5.81632">
        <ele>224.2</ele>
        <time>2017-12-21T12:56:25Z</time>
      </trkpt>
      <trkpt lat="47.3014" lon="5.81622">
        <ele>224.2</ele>
        <time>2017-12-21T12:56:26Z</time>
      </trkpt>
      <trkpt lat="47.30143" lon="5.81613">
        <ele>224.2</ele>
        <time>2017-12-21T12:56:27Z</time>
      </trkpt>
      <trkpt lat="47.30145" lon="5.81602">
        <ele>224.2</ele>
        <time>2017-12-21T12:56:28Z</time>
      </trkpt>
      <trkpt lat="47.30147" lon="5.81592">
        <ele>224.2</ele>
        <time>2017-12-21T12:56:29Z</time>
      </trkpt>
      <trkpt lat="47.30149" lon="5.81582">
        <ele>224.2</ele>
        <time>2017-12-21T12:56:30Z</time>
      </trkpt>
      <trkpt lat="47.30152" lon="5.81571">
        <ele>224.2</ele>
        <time>2017-12-21T12:56:31Z</time>
      </trkpt>
      <trkpt lat="47.30154" lon="5.8156">
        <ele>223.8</ele>
        <time>2017-12-21T12:56:32Z</time>
      </trkpt>
      <trkpt lat="47.30156" lon="5.81548">
        <ele>223.2</ele>
        <time>2017-12-21T12:56:33Z</time>
      </trkpt>
      <trkpt lat="47.30159" lon="5.81537">
        <ele>222.8</ele>
        <time>2017-12-21T12:56:34Z</time>
      </trkpt>
      <trkpt lat="47.30162" lon="5.81526">
        <ele>222.4</ele>
        <time>2017-12-21T12:56:35Z</time>
      </trkpt>
      <trkpt lat="47.30164" lon="5.81515">
        <ele>222</ele>
        <time>2017-12-21T12:56:36Z</time>
      </trkpt>
      <trkpt lat="47.30167" lon="5.81504">
        <ele>222</ele>
        <time>2017-12-21T12:56:37Z</time>
      </trkpt>
      <trkpt lat="47.30169" lon="5.81493">
        <ele>222</ele>
        <time>2017-12-21T12:56:38Z</time>
      </trkpt>
      <trkpt lat="47.30172" lon="5.81481">
        <ele>222</ele>
        <time>2017-12-21T12:56:39Z</time>
      </trkpt>
      <trkpt lat="47.30174" lon="5.81471">
        <ele>222</ele>
        <time>2017-12-21T12:56:40Z</time>
      </trkpt>
      <trkpt lat="47.30176" lon="5.81461">
        <ele>221.6</ele>
        <time>2017-12-21T12:56:41Z</time>
      </trkpt>
      <trkpt lat="47.30179" lon="5.81451">
        <ele>221.2</ele>
        <time>2017-12-21T12:56:42Z</time>
      </trkpt>
      <trkpt lat="47.30181" lon="5.81441">
        <ele>220.8</ele>
        <time>2017-12-21T12:56:43Z</time>
      </trkpt>
      <trkpt lat="47.30183" lon="5.81432">
        <ele>220.4</ele>
        <time>2017-12-21T12:56:44Z</time>
      </trkpt>
      <trkpt lat="47.30186" lon="5.81422">
        <ele>220</ele>
        <time>2017-12-21T12:56:45Z</time>
      </trkpt>
      <trkpt lat="47.30189" lon="5.81413">
        <ele>220</ele>
        <time>2017-12-21T12:56:46Z</time>
      </trkpt>
      <trkpt lat="47.30192" lon="5.81404">
        <ele>220</ele>
        <time>2017-12-21T12:56:47Z</time>
      </trkpt>
      <trkpt lat="47.30195" lon="5.81395">
        <ele>220</ele>
        <time>2017-12-21T12:56:48Z</time>
      </trkpt>
      <trkpt lat="47.30198" lon="5.81386">
        <ele>220</ele>
        <time>2017-12-21T12:56:49Z</time>
      </trkpt>
      <trkpt lat="47.30202" lon="5.81378">
        <ele>220</ele>
        <time>2017-12-21T12:56:50Z</time>
      </trkpt>
      <trkpt lat="47.30205" lon="5.81369">
        <ele>220</ele>
        <time>2017-12-21T12:56:51Z</time>
      </trkpt>
      <trkpt lat="47.30208" lon="5.81361">
        <ele>220</ele>
        <time>2017-12-21T12:56:52Z</time>
      </trkpt>
      <trkpt lat="47.30211" lon="5.81353">
        <ele>220</ele>
        <time>2017-12-21T12:56:53Z</time>
      </trkpt>
      <trkpt lat="47.30214" lon="5.81344">
        <ele>220</ele>
        <time>2017-12-21T12:56:54Z</time>
      </trkpt>
      <trkpt lat="47.30217" lon="5.81336">
        <ele>220</ele>
        <time>2017-12-21T12:56:55Z</time>
      </trkpt>
      <trkpt lat="47.3022" lon="5.81327">
        <ele>220</ele>
        <time>2017-12-21T12:56:56Z</time>
      </trkpt>
      <trkpt lat="47.30222" lon="5.81318">
        <ele>220</ele>
        <time>2017-12-21T12:56:57Z</time>
      </trkpt>
      <trkpt lat="47.30225" lon="5.81309">
        <ele>220</ele>
        <time>2017-12-21T12:56:58Z</time>
      </trkpt>
      <trkpt lat="47.30227" lon="5.81301">
        <ele>220</ele>
        <time>2017-12-21T12:56:59Z</time>
      </trkpt>
      <trkpt lat="47.3023" lon="5.81292">
        <ele>220</ele>
        <time>2017-12-21T12:57:00Z</time>
      </trkpt>
      <trkpt lat="47.30232" lon="5.81283">
        <ele>220</ele>
        <time>2017-12-21T12:57:01Z</time>
      </trkpt>
      <trkpt lat="47.30234" lon="5.81274">
        <ele>220</ele>
        <time>2017-12-21T12:57:02Z</time>
      </trkpt>
      <trkpt lat="47.30235" lon="5.81266">
        <ele>220</ele>
        <time>2017-12-21T12:57:03Z</time>
      </trkpt>
      <trkpt lat="47.30236" lon="5.81257">
        <ele>220</ele>
        <time>2017-12-21T12:57:04Z</time>
      </trkpt>
      <trkpt lat="47.30237" lon="5.81248">
        <ele>220</ele>
        <time>2017-12-21T12:57:05Z</time>
      </trkpt>
      <trkpt lat="47.30237" lon="5.81239">
        <ele>220</ele>
        <time>2017-12-21T12:57:06Z</time>
      </trkpt>
      <trkpt lat="47.30237" lon="5.8123">
        <ele>220</ele>
        <time>2017-12-21T12:57:07Z</time>
      </trkpt>
      <trkpt lat="47.30237" lon="5.81221">
        <ele>220</ele>
        <time>2017-12-21T12:57:08Z</time>
      </trkpt>
      <trkpt lat="47.30235" lon="5.81211">
        <ele>220</ele>
        <time>2017-12-21T12:57:09Z</time>
      </trkpt>
      <trkpt lat="47.30232" lon="5.81202">
        <ele>220</ele>
        <time>2017-12-21T12:57:10Z</time>
      </trkpt>
      <trkpt lat="47.30229" lon="5.81193">
        <ele>220</ele>
        <time>2017-12-21T12:57:11Z</time>
      </trkpt>
      <trkpt lat="47.30225" lon="5.81186">
        <ele>220</ele>
        <time>2017-12-21T12:57:12Z</time>
      </trkpt>
      <trkpt lat="47.30219" lon="5.81179">
        <ele>220</ele>
        <time>2017-12-21T12:57:13Z</time>
      </trkpt>
      <trkpt lat="47.30214" lon="5.81173">
        <ele>220</ele>
        <time>2017-12-21T12:57:14Z</time>
      </trkpt>
      <trkpt lat="47.30207" lon="5.81168">
        <ele>220</ele>
        <time>2017-12-21T12:57:15Z</time>
      </trkpt>
      <trkpt lat="47.30201" lon="5.81162">
        <ele>220</ele>
        <time>2017-12-21T12:57:16Z</time>
      </trkpt>
      <trkpt lat="47.30194" lon="5.81156">
        <ele>220</ele>
        <time>2017-12-21T12:57:17Z</time>
      </trkpt>
      <trkpt lat="47.30188" lon="5.8115">
        <ele>220</ele>
        <time>2017-12-21T12:57:18Z</time>
      </trkpt>
      <trkpt lat="47.30181" lon="5.81144">
        <ele>220</ele>
        <time>2017-12-21T12:57:19Z</time>
      </trkpt>
      <trkpt lat="47.30176" lon="5.81137">
        <ele>220</ele>
        <time>2017-12-21T12:57:20Z</time>
      </trkpt>
      <trkpt lat="47.3017" lon="5.8113">
        <ele>219.6</ele>
        <time>2017-12-21T12:57:21Z</time>
      </trkpt>
      <trkpt lat="47.30165" lon="5.81122">
        <ele>219.2</ele>
        <time>2017-12-21T12:57:22Z</time>
      </trkpt>
      <trkpt lat="47.30159" lon="5.81116">
        <ele>218.8</ele>
        <time>2017-12-21T12:57:23Z</time>
      </trkpt>
      <trkpt lat="47.30153" lon="5.8111">
        <ele>218.2</ele>
        <time>2017-12-21T12:57:24Z</time>
      </trkpt>
      <trkpt lat="47.30147" lon="5.81103">
        <ele>217.8</ele>
        <time>2017-12-21T12:57:25Z</time>
      </trkpt>
      <trkpt lat="47.30141" lon="5.81096">
        <ele>217.8</ele>
        <time>2017-12-21T12:57:26Z</time>
      </trkpt>
      <trkpt lat="47.30135" lon="5.8109">
        <ele>217.8</ele>
        <time>2017-12-21T12:57:27Z</time>
      </trkpt>
      <trkpt lat="47.30129" lon="5.81085">
        <ele>217.8</ele>
        <time>2017-12-21T12:57:28Z</time>
      </trkpt>
      <trkpt lat="47.30122" lon="5.8108">
        <ele>217.8</ele>
        <time>2017-12-21T12:57:29Z</time>
      </trkpt>
      <trkpt lat="47.30116" lon="5.81075">
        <ele>217.8</ele>
        <time>2017-12-21T12:57:30Z</time>
      </trkpt>
      <trkpt lat="47.30109" lon="5.81071">
        <ele>217.8</ele>
        <time>2017-12-21T12:57:31Z</time>
      </trkpt>
      <trkpt lat="47.30102" lon="5.81066">
        <ele>217.8</ele>
        <time>2017-12-21T12:57:32Z</time>
      </trkpt>
      <trkpt lat="47.30096" lon="5.81062">
        <ele>217.4</ele>
        <time>2017-12-21T12:57:33Z</time>
      </trkpt>
      <trkpt lat="47.3009" lon="5.81058">
        <ele>217</ele>
        <time>2017-12-21T12:57:34Z</time>
      </trkpt>
      <trkpt lat="47.30083" lon="5.81053">
        <ele>216.6</ele>
        <time>2017-12-21T12:57:35Z</time>
      </trkpt>
      <trkpt lat="47.30076" lon="5.81048">
        <ele>216.2</ele>
        <time>2017-12-21T12:57:36Z</time>
      </trkpt>
      <trkpt lat="47.3007" lon="5.81045">
        <ele>215.8</ele>
        <time>2017-12-21T12:57:37Z</time>
      </trkpt>
      <trkpt lat="47.30063" lon="5.81041">
        <ele>215.8</ele>
        <time>2017-12-21T12:57:38Z</time>
      </trkpt>
      <trkpt lat="47.30056" lon="5.81037">
        <ele>215.8</ele>
        <time>2017-12-21T12:57:39Z</time>
      </trkpt>
      <trkpt lat="47.30049" lon="5.81032">
        <ele>215.8</ele>
        <time>2017-12-21T12:57:40Z</time>
      </trkpt>
      <trkpt lat="47.30042" lon="5.81028">
        <ele>215.8</ele>
        <time>2017-12-21T12:57:41Z</time>
      </trkpt>
      <trkpt lat="47.30036" lon="5.81024">
        <ele>215.8</ele>
        <time>2017-12-21T12:57:42Z</time>
      </trkpt>
      <trkpt lat="47.30029" lon="5.8102">
        <ele>215.8</ele>
        <time>2017-12-21T12:57:43Z</time>
      </trkpt>
      <trkpt lat="47.30023" lon="5.81016">
        <ele>215.8</ele>
        <time>2017-12-21T12:57:44Z</time>
      </trkpt>
      <trkpt lat="47.30016" lon="5.81012">
        <ele>215.8</ele>
        <time>2017-12-21T12:57:45Z</time>
      </trkpt>
      <trkpt lat="47.3001" lon="5.81008">
        <ele>215.4</ele>
        <time>2017-12-21T12:57:46Z</time>
      </trkpt>
      <trkpt lat="47.30003" lon="5.81004">
        <ele>215</ele>
        <time>2017-12-21T12:57:47Z</time>
      </trkpt>
      <trkpt lat="47.29996" lon="5.81001">
        <ele>214.4</ele>
        <time>2017-12-21T12:57:48Z</time>
      </trkpt>
      <trkpt lat="47.2999" lon="5.80997">
        <ele>214</ele>
        <time>2017-12-21T12:57:49Z</time>
      </trkpt>
      <trkpt lat="47.29983" lon="5.80994">
        <ele>213.6</ele>
        <time>2017-12-21T12:57:50Z</time>
      </trkpt>
      <trkpt lat="47.29977" lon="5.8099">
        <ele>213.6</ele>
        <time>2017-12-21T12:57:51Z</time>
      </trkpt>
      <trkpt lat="47.2997" lon="5.80987">
        <ele>213.6</ele>
        <time>2017-12-21T12:57:52Z</time>
      </trkpt>
      <trkpt lat="47.29963" lon="5.80984">
        <ele>213.6</ele>
        <time>2017-12-21T12:57:53Z</time>
      </trkpt>
      <trkpt lat="47.29956" lon="5.8098">
        <ele>213.6</ele>
        <time>2017-12-21T12:57:54Z</time>
      </trkpt>
      <trkpt lat="47.2995" lon="5.80976">
        <ele>213.2</ele>
        <time>2017-12-21T12:57:55Z</time>
      </trkpt>
      <trkpt lat="47.29943" lon="5.80972">
        <ele>212.8</ele>
        <time>2017-12-21T12:57:56Z</time>
      </trkpt>
      <trkpt lat="47.29936" lon="5.80969">
        <ele>212.4</ele>
        <time>2017-12-21T12:57:57Z</time>
      </trkpt>
      <trkpt lat="47.29929" lon="5.80965">
        <ele>212</ele>
        <time>2017-12-21T12:57:58Z</time>
      </trkpt>
      <trkpt lat="47.29923" lon="5.80961">
        <ele>211.4</ele>
        <time>2017-12-21T12:57:59Z</time>
      </trkpt>
      <trkpt lat="47.29916" lon="5.80957">
        <ele>211.4</ele>
        <time>2017-12-21T12:58:00Z</time>
      </trkpt>
      <trkpt lat="47.29909" lon="5.80954">
        <ele>211.4</ele>
        <time>2017-12-21T12:58:01Z</time>
      </trkpt>
      <trkpt lat="47.29902" lon="5.8095">
        <ele>211.4</ele>
        <time>2017-12-21T12:58:02Z</time>
      </trkpt>
      <trkpt lat="47.29895" lon="5.80947">
        <ele>211.4</ele>
        <time>2017-12-21T12:58:03Z</time>
      </trkpt>
      <trkpt lat="47.29888" lon="5.80944">
        <ele>211.4</ele>
        <time>2017-12-21T12:58:04Z</time>
      </trkpt>
      <trkpt lat="47.29881" lon="5.80942">
        <ele>211.4</ele>
        <time>2017-12-21T12:58:05Z</time>
      </trkpt>
      <trkpt lat="47.29875" lon="5.8094">
        <ele>211.4</ele>
        <time>2017-12-21T12:58:06Z</time>
      </trkpt>
      <trkpt lat="47.29868" lon="5.80939">
        <ele>211.4</ele>
        <time>2017-12-21T12:58:07Z</time>
      </trkpt>
      <trkpt lat="47.29861" lon="5.80938">
        <ele>211.4</ele>
        <time>2017-12-21T12:58:08Z</time>
      </trkpt>
      <trkpt lat="47.29854" lon="5.80936">
        <ele>211.4</ele>
        <time>2017-12-21T12:58:09Z</time>
      </trkpt>
      <trkpt lat="47.29848" lon="5.80935">
        <ele>211.4</ele>
        <time>2017-12-21T12:58:10Z</time>
      </trkpt>
      <trkpt lat="47.29841" lon="5.80932">
        <ele>211</ele>
        <time>2017-12-21T12:58:11Z</time>
      </trkpt>
      <trkpt lat="47.29835" lon="5.80928">
        <ele>210.6</ele>
        <time>2017-12-21T12:58:12Z</time>
      </trkpt>
      <trkpt lat="47.29831" lon="5.80919">
        <ele>210.2</ele>
        <time>2017-12-21T12:58:13Z</time>
      </trkpt>
      <trkpt lat="47.29829" lon="5.80909">
        <ele>209.8</ele>
        <time>2017-12-21T12:58:14Z</time>
      </trkpt>
      <trkpt lat="47.29827" lon="5.80899">
        <ele>209.4</ele>
        <time>2017-12-21T12:58:15Z</time>
      </trkpt>
      <trkpt lat="47.29826" lon="5.80888">
        <ele>209.4</ele>
        <time>2017-12-21T12:58:16Z</time>
      </trkpt>
      <trkpt lat="47.29824" lon="5.80877">
        <ele>209.4</ele>
        <time>2017-12-21T12:58:17Z</time>
      </trkpt>
      <trkpt lat="47.29821" lon="5.80867">
        <ele>209.4</ele>
        <time>2017-12-21T12:58:18Z</time>
      </trkpt>
      <trkpt lat="47.29819" lon="5.80857">
        <ele>209.4</ele>
        <time>2017-12-21T12:58:19Z</time>
      </trkpt>
      <trkpt lat="47.29817" lon="5.80847">
        <ele>209.4</ele>
        <time>2017-12-21T12:58:20Z</time>
      </trkpt>
      <trkpt lat="47.29815" lon="5.80837">
        <ele>209.4</ele>
        <time>2017-12-21T12:58:21Z</time>
      </trkpt>
      <trkpt lat="47.29814" lon="5.80827">
        <ele>209.4</ele>
        <time>2017-12-21T12:58:22Z</time>
      </trkpt>
      <trkpt lat="47.29812" lon="5.80818">
        <ele>209.4</ele>
        <time>2017-12-21T12:58:23Z</time>
      </trkpt>
      <trkpt lat="47.2981" lon="5.80808">
        <ele>209.4</ele>
        <time>2017-12-21T12:58:24Z</time>
      </trkpt>
      <trkpt lat="47.29809" lon="5.80798">
        <ele>209.4</ele>
        <time>2017-12-21T12:58:25Z</time>
      </trkpt>
      <trkpt lat="47.29807" lon="5.80789">
        <ele>209.4</ele>
        <time>2017-12-21T12:58:26Z</time>
      </trkpt>
      <trkpt lat="47.29806" lon="5.80779">
        <ele>209.4</ele>
        <time>2017-12-21T12:58:27Z</time>
      </trkpt>
      <trkpt lat="47.29805" lon="5.8077">
        <ele>209.4</ele>
        <time>2017-12-21T12:58:28Z</time>
      </trkpt>
      <trkpt lat="47.29804" lon="5.8076">
        <ele>209.4</ele>
        <time>2017-12-21T12:58:29Z</time>
      </trkpt>
      <trkpt lat="47.29802" lon="5.80751">
        <ele>209.4</ele>
        <time>2017-12-21T12:58:30Z</time>
      </trkpt>
      <trkpt lat="47.29801" lon="5.80742">
        <ele>209.4</ele>
        <time>2017-12-21T12:58:31Z</time>
      </trkpt>
      <trkpt lat="47.29799" lon="5.80733">
        <ele>209.4</ele>
        <time>2017-12-21T12:58:32Z</time>
      </trkpt>
      <trkpt lat="47.29797" lon="5.80724">
        <ele>209.4</ele>
        <time>2017-12-21T12:58:33Z</time>
      </trkpt>
      <trkpt lat="47.29795" lon="5.80715">
        <ele>209.4</ele>
        <time>2017-12-21T12:58:34Z</time>
      </trkpt>
      <trkpt lat="47.29793" lon="5.80707">
        <ele>209.4</ele>
        <time>2017-12-21T12:58:35Z</time>
      </trkpt>
      <trkpt lat="47.2979" lon="5.80698">
        <ele>209.4</ele>
        <time>2017-12-21T12:58:36Z</time>
      </trkpt>
      <trkpt lat="47.29787" lon="5.8069">
        <ele>209.4</ele>
        <time>2017-12-21T12:58:37Z</time>
      </trkpt>
      <trkpt lat="47.29783" lon="5.80682">
        <ele>209.4</ele>
        <time>2017-12-21T12:58:38Z</time>
      </trkpt>
      <trkpt lat="47.29779" lon="5.80674">
        <ele>209.4</ele>
        <time>2017-12-21T12:58:39Z</time>
      </trkpt>
      <trkpt lat="47.29776" lon="5.80667">
        <ele>209.4</ele>
        <time>2017-12-21T12:58:40Z</time>
      </trkpt>
      <trkpt lat="47.29772" lon="5.8066">
        <ele>209.4</ele>
        <time>2017-12-21T12:58:41Z</time>
      </trkpt>
      <trkpt lat="47.29768" lon="5.80653">
        <ele>209.4</ele>
        <time>2017-12-21T12:58:42Z</time>
      </trkpt>
      <trkpt lat="47.29765" lon="5.80645">
        <ele>209.4</ele>
        <time>2017-12-21T12:58:43Z</time>
      </trkpt>
      <trkpt lat="47.29761" lon="5.80639">
        <ele>209.4</ele>
        <time>2017-12-21T12:58:44Z</time>
      </trkpt>
      <trkpt lat="47.29758" lon="5.80632">
        <ele>209.4</ele>
        <time>2017-12-21T12:58:45Z</time>
      </trkpt>
      <trkpt lat="47.29754" lon="5.80625">
        <ele>209.4</ele>
        <time>2017-12-21T12:58:46Z</time>
      </trkpt>
      <trkpt lat="47.29751" lon="5.80618">
        <ele>209.4</ele>
        <time>2017-12-21T12:58:47Z</time>
      </trkpt>
      <trkpt lat="47.29747" lon="5.80611">
        <ele>209.4</ele>
        <time>2017-12-21T12:58:48Z</time>
      </trkpt>
      <trkpt lat="47.29743" lon="5.80605">
        <ele>209.4</ele>
        <time>2017-12-21T12:58:49Z</time>
      </trkpt>
      <trkpt lat="47.2974" lon="5.80598">
        <ele>209.4</ele>
        <time>2017-12-21T12:58:50Z</time>
      </trkpt>
      <trkpt lat="47.29737" lon="5.80592">
        <ele>209.4</ele>
        <time>2017-12-21T12:58:51Z</time>
      </trkpt>
      <trkpt lat="47.29733" lon="5.80586">
        <ele>209.4</ele>
        <time>2017-12-21T12:58:52Z</time>
      </trkpt>
      <trkpt lat="47.2973" lon="5.80579">
        <ele>209.4</ele>
        <time>2017-12-21T12:58:53Z</time>
      </trkpt>
      <trkpt lat="47.29727" lon="5.80573">
        <ele>209.4</ele>
        <time>2017-12-21T12:58:54Z</time>
      </trkpt>
      <trkpt lat="47.29724" lon="5.80566">
        <ele>209.4</ele>
        <time>2017-12-21T12:58:55Z</time>
      </trkpt>
      <trkpt lat="47.29721" lon="5.8056">
        <ele>209.4</ele>
        <time>2017-12-21T12:58:56Z</time>
      </trkpt>
      <trkpt lat="47.29718" lon="5.80554">
        <ele>209.4</ele>
        <time>2017-12-21T12:58:57Z</time>
      </trkpt>
      <trkpt lat="47.29716" lon="5.80548">
        <ele>209.8</ele>
        <time>2017-12-21T12:58:58Z</time>
      </trkpt>
      <trkpt lat="47.29713" lon="5.80542">
        <ele>210.2</ele>
        <time>2017-12-21T12:58:59Z</time>
      </trkpt>
      <trkpt lat="47.29709" lon="5.80536">
        <ele>210.8</ele>
        <time>2017-12-21T12:59:00Z</time>
      </trkpt>
      <trkpt lat="47.29706" lon="5.80531">
        <ele>211.2</ele>
        <time>2017-12-21T12:59:01Z</time>
      </trkpt>
      <trkpt lat="47.29704" lon="5.80525">
        <ele>211.6</ele>
        <time>2017-12-21T12:59:02Z</time>
      </trkpt>
      <trkpt lat="47.29701" lon="5.80519">
        <ele>211.6</ele>
        <time>2017-12-21T12:59:03Z</time>
      </trkpt>
      <trkpt lat="47.29698" lon="5.80513">
        <ele>211.6</ele>
        <time>2017-12-21T12:59:04Z</time>
      </trkpt>
      <trkpt lat="47.29694" lon="5.80506">
        <ele>211.6</ele>
        <time>2017-12-21T12:59:05Z</time>
      </trkpt>
      <trkpt lat="47.29692" lon="5.80501">
        <ele>211.6</ele>
        <time>2017-12-21T12:59:06Z</time>
      </trkpt>
      <trkpt lat="47.29689" lon="5.80495">
        <ele>211.6</ele>
        <time>2017-12-21T12:59:07Z</time>
      </trkpt>
      <trkpt lat="47.29686" lon="5.80489">
        <ele>211.6</ele>
        <time>2017-12-21T12:59:08Z</time>
      </trkpt>
      <trkpt lat="47.29684" lon="5.80483">
        <ele>211.6</ele>
        <time>2017-12-21T12:59:09Z</time>
      </trkpt>
      <trkpt lat="47.29682" lon="5.80477">
        <ele>211.6</ele>
        <time>2017-12-21T12:59:10Z</time>
      </trkpt>
      <trkpt lat="47.29679" lon="5.80471">
        <ele>211.6</ele>
        <time>2017-12-21T12:59:11Z</time>
      </trkpt>
      <trkpt lat="47.29677" lon="5.80466">
        <ele>211.6</ele>
        <time>2017-12-21T12:59:12Z</time>
      </trkpt>
      <trkpt lat="47.29674" lon="5.8046">
        <ele>211.6</ele>
        <time>2017-12-21T12:59:13Z</time>
      </trkpt>
      <trkpt lat="47.29671" lon="5.80455">
        <ele>211.6</ele>
        <time>2017-12-21T12:59:14Z</time>
      </trkpt>
      <trkpt lat="47.29669" lon="5.80449">
        <ele>212</ele>
        <time>2017-12-21T12:59:15Z</time>
      </trkpt>
      <trkpt lat="47.29666" lon="5.80444">
        <ele>212.4</ele>
        <time>2017-12-21T12:59:16Z</time>
      </trkpt>
      <trkpt lat="47.29663" lon="5.80438">
        <ele>212.8</ele>
        <time>2017-12-21T12:59:17Z</time>
      </trkpt>
      <trkpt lat="47.29661" lon="5.80433">
        <ele>213.2</ele>
        <time>2017-12-21T12:59:18Z</time>
      </trkpt>
      <trkpt lat="47.29658" lon="5.80428">
        <ele>213.6</ele>
        <time>2017-12-21T12:59:19Z</time>
      </trkpt>
      <trkpt lat="47.29656" lon="5.80422">
        <ele>213.6</ele>
        <time>2017-12-21T12:59:20Z</time>
      </trkpt>
      <trkpt lat="47.29653" lon="5.80417">
        <ele>213.6</ele>
        <time>2017-12-21T12:59:21Z</time>
      </trkpt>
      <trkpt lat="47.29651" lon="5.80411">
        <ele>213.6</ele>
        <time>2017-12-21T12:59:22Z</time>
      </trkpt>
      <trkpt lat="47.29649" lon="5.80406">
        <ele>213.6</ele>
        <time>2017-12-21T12:59:23Z</time>
      </trkpt>
      <trkpt lat="47.29646" lon="5.80401">
        <ele>213.6</ele>
        <time>2017-12-21T12:59:24Z</time>
      </trkpt>
      <trkpt lat="47.29644" lon="5.80397">
        <ele>213.6</ele>
        <time>2017-12-21T12:59:25Z</time>
      </trkpt>
      <trkpt lat="47.29641" lon="5.80392">
        <ele>213.6</ele>
        <time>2017-12-21T12:59:26Z</time>
      </trkpt>
      <trkpt lat="47.29639" lon="5.80386">
        <ele>214</ele>
        <time>2017-12-21T12:59:27Z</time>
      </trkpt>
      <trkpt lat="47.29636" lon="5.80381">
        <ele>214.4</ele>
        <time>2017-12-21T12:59:28Z</time>
      </trkpt>
      <trkpt lat="47.29634" lon="5.80376">
        <ele>215</ele>
        <time>2017-12-21T12:59:29Z</time>
      </trkpt>
      <trkpt lat="47.29632" lon="5.80371">
        <ele>215.4</ele>
        <time>2017-12-21T12:59:30Z</time>
      </trkpt>
      <trkpt lat="47.2963" lon="5.80366">
        <ele>215.8</ele>
        <time>2017-12-21T12:59:31Z</time>
      </trkpt>
      <trkpt lat="47.29627" lon="5.80362">
        <ele>215.8</ele>
        <time>2017-12-21T12:59:32Z</time>
      </trkpt>
      <trkpt lat="47.29625" lon="5.80357">
        <ele>215.8</ele>
        <time>2017-12-21T12:59:33Z</time>
      </trkpt>
      <trkpt lat="47.29623" lon="5.80352">
        <ele>215.8</ele>
        <time>2017-12-21T12:59:34Z</time>
      </trkpt>
      <trkpt lat="47.2962" lon="5.80347">
        <ele>215.8</ele>
        <time>2017-12-21T12:59:35Z</time>
      </trkpt>
      <trkpt lat="47.29618" lon="5.80343">
        <ele>215.8</ele>
        <time>2017-12-21T12:59:36Z</time>
      </trkpt>
      <trkpt lat="47.29616" lon="5.80338">
        <ele>216.2</ele>
        <time>2017-12-21T12:59:37Z</time>
      </trkpt>
      <trkpt lat="47.29613" lon="5.80333">
        <ele>216.6</ele>
        <time>2017-12-21T12:59:38Z</time>
      </trkpt>
      <trkpt lat="47.29611" lon="5.80328">
        <ele>217</ele>
        <time>2017-12-21T12:59:39Z</time>
      </trkpt>
      <trkpt lat="47.29609" lon="5.80324">
        <ele>217.4</ele>
        <time>2017-12-21T12:59:40Z</time>
      </trkpt>
      <trkpt lat="47.29607" lon="5.80319">
        <ele>217.8</ele>
        <time>2017-12-21T12:59:41Z</time>
      </trkpt>
      <trkpt lat="47.29604" lon="5.80314">
        <ele>217.8</ele>
        <time>2017-12-21T12:59:42Z</time>
      </trkpt>
      <trkpt lat="47.29602" lon="5.80309">
        <ele>217.8</ele>
        <time>2017-12-21T12:59:43Z</time>
      </trkpt>
      <trkpt lat="47.296" lon="5.80304">
        <ele>217.8</ele>
        <time>2017-12-21T12:59:44Z</time>
      </trkpt>
      <trkpt lat="47.29598" lon="5.803">
        <ele>217.8</ele>
        <time>2017-12-21T12:59:45Z</time>
      </trkpt>
      <trkpt lat="47.29596" lon="5.80295">
        <ele>217.8</ele>
        <time>2017-12-21T12:59:46Z</time>
      </trkpt>
      <trkpt lat="47.29594" lon="5.8029">
        <ele>217.8</ele>
        <time>2017-12-21T12:59:47Z</time>
      </trkpt>
      <trkpt lat="47.29592" lon="5.80285">
        <ele>218.2</ele>
        <time>2017-12-21T12:59:48Z</time>
      </trkpt>
      <trkpt lat="47.2959" lon="5.80281">
        <ele>218.6</ele>
        <time>2017-12-21T12:59:49Z</time>
      </trkpt>
      <trkpt lat="47.29588" lon="5.80276">
        <ele>219.2</ele>
        <time>2017-12-21T12:59:50Z</time>
      </trkpt>
      <trkpt lat="47.29586" lon="5.80271">
        <ele>219.6</ele>
        <time>2017-12-21T12:59:51Z</time>
      </trkpt>
      <trkpt lat="47.29584" lon="5.80267">
        <ele>220</ele>
        <time>2017-12-21T12:59:52Z</time>
      </trkpt>
      <trkpt lat="47.29581" lon="5.80261">
        <ele>220</ele>
        <time>2017-12-21T12:59:53Z</time>
      </trkpt>
      <trkpt lat="47.29579" lon="5.80255">
        <ele>220</ele>
        <time>2017-12-21T12:59:54Z</time>
      </trkpt>
      <trkpt lat="47.29577" lon="5.8025">
        <ele>220</ele>
        <time>2017-12-21T12:59:55Z</time>
      </trkpt>
      <trkpt lat="47.29576" lon="5.80244">
        <ele>220</ele>
        <time>2017-12-21T12:59:56Z</time>
      </trkpt>
      <trkpt lat="47.29575" lon="5.80239">
        <ele>220</ele>
        <time>2017-12-21T12:59:57Z</time>
      </trkpt>
      <trkpt lat="47.29573" lon="5.80234">
        <ele>220</ele>
        <time>2017-12-21T12:59:58Z</time>
      </trkpt>
      <trkpt lat="47.29572" lon="5.80228">
        <ele>220.4</ele>
        <time>2017-12-21T12:59:59Z</time>
      </trkpt>
      <trkpt lat="47.29571" lon="5.80223">
        <ele>220.8</ele>
        <time>2017-12-21T13:00:00Z</time>
      </trkpt>
      <trkpt lat="47.2957" lon="5.80217">
        <ele>221.2</ele>
        <time>2017-12-21T13:00:01Z</time>
      </trkpt>
      <trkpt lat="47.29569" lon="5.80212">
        <ele>221.6</ele>
        <time>2017-12-21T13:00:02Z</time>
      </trkpt>
      <trkpt lat="47.29568" lon="5.80206">
        <ele>222</ele>
        <time>2017-12-21T13:00:03Z</time>
      </trkpt>
      <trkpt lat="47.29566" lon="5.80201">
        <ele>222</ele>
        <time>2017-12-21T13:00:04Z</time>
      </trkpt>
      <trkpt lat="47.29566" lon="5.80195">
        <ele>222</ele>
        <time>2017-12-21T13:00:06Z</time>
      </trkpt>
      <trkpt lat="47.29565" lon="5.80189">
        <ele>222</ele>
        <time>2017-12-21T13:00:07Z</time>
      </trkpt>
      <trkpt lat="47.29564" lon="5.80184">
        <ele>222</ele>
        <time>2017-12-21T13:00:08Z</time>
      </trkpt>
      <trkpt lat="47.29563" lon="5.80178">
        <ele>222.4</ele>
        <time>2017-12-21T13:00:09Z</time>
      </trkpt>
      <trkpt lat="47.29563" lon="5.80172">
        <ele>222.8</ele>
        <time>2017-12-21T13:00:10Z</time>
      </trkpt>
      <trkpt lat="47.29562" lon="5.80166">
        <ele>223.6</ele>
        <time>2017-12-21T13:00:11Z</time>
      </trkpt>
      <trkpt lat="47.29561" lon="5.80159">
        <ele>224.2</ele>
        <time>2017-12-21T13:00:12Z</time>
      </trkpt>
      <trkpt lat="47.2956" lon="5.80153">
        <ele>224.2</ele>
        <time>2017-12-21T13:00:13Z</time>
      </trkpt>
      <trkpt lat="47.2956" lon="5.80146">
        <ele>224.2</ele>
        <time>2017-12-21T13:00:14Z</time>
      </trkpt>
      <trkpt lat="47.29559" lon="5.8014">
        <ele>224.2</ele>
        <time>2017-12-21T13:00:15Z</time>
      </trkpt>
      <trkpt lat="47.29558" lon="5.80133">
        <ele>224.2</ele>
        <time>2017-12-21T13:00:16Z</time>
      </trkpt>
      <trkpt lat="47.29557" lon="5.80126">
        <ele>224.2</ele>
        <time>2017-12-21T13:00:17Z</time>
      </trkpt>
      <trkpt lat="47.29556" lon="5.80119">
        <ele>224.2</ele>
        <time>2017-12-21T13:00:18Z</time>
      </trkpt>
      <trkpt lat="47.29555" lon="5.80111">
        <ele>224.2</ele>
        <time>2017-12-21T13:00:19Z</time>
      </trkpt>
      <trkpt lat="47.29554" lon="5.80104">
        <ele>224.2</ele>
        <time>2017-12-21T13:00:20Z</time>
      </trkpt>
      <trkpt lat="47.29553" lon="5.80095">
        <ele>224.2</ele>
        <time>2017-12-21T13:00:21Z</time>
      </trkpt>
      <trkpt lat="47.29552" lon="5.80087">
        <ele>224.2</ele>
        <time>2017-12-21T13:00:22Z</time>
      </trkpt>
      <trkpt lat="47.29551" lon="5.80079">
        <ele>224.2</ele>
        <time>2017-12-21T13:00:23Z</time>
      </trkpt>
      <trkpt lat="47.2955" lon="5.80071">
        <ele>224.2</ele>
        <time>2017-12-21T13:00:24Z</time>
      </trkpt>
      <trkpt lat="47.29549" lon="5.80062">
        <ele>224.2</ele>
        <time>2017-12-21T13:00:25Z</time>
      </trkpt>
      <trkpt lat="47.29548" lon="5.80053">
        <ele>224.2</ele>
        <time>2017-12-21T13:00:26Z</time>
      </trkpt>
      <trkpt lat="47.29546" lon="5.80045">
        <ele>224.2</ele>
        <time>2017-12-21T13:00:27Z</time>
      </trkpt>
      <trkpt lat="47.29545" lon="5.80035">
        <ele>224.2</ele>
        <time>2017-12-21T13:00:28Z</time>
      </trkpt>
      <trkpt lat="47.29544" lon="5.80027">
        <ele>224.2</ele>
        <time>2017-12-21T13:00:29Z</time>
      </trkpt>
      <trkpt lat="47.29543" lon="5.80018">
        <ele>224.2</ele>
        <time>2017-12-21T13:00:30Z</time>
      </trkpt>
      <trkpt lat="47.29541" lon="5.80009">
        <ele>224.2</ele>
        <time>2017-12-21T13:00:31Z</time>
      </trkpt>
      <trkpt lat="47.2954" lon="5.80001">
        <ele>224.2</ele>
        <time>2017-12-21T13:00:32Z</time>
      </trkpt>
      <trkpt lat="47.29539" lon="5.79991">
        <ele>224.2</ele>
        <time>2017-12-21T13:00:33Z</time>
      </trkpt>
      <trkpt lat="47.29538" lon="5.79982">
        <ele>223.6</ele>
        <time>2017-12-21T13:00:34Z</time>
      </trkpt>
      <trkpt lat="47.29537" lon="5.79972">
        <ele>223.2</ele>
        <time>2017-12-21T13:00:35Z</time>
      </trkpt>
      <trkpt lat="47.29536" lon="5.79962">
        <ele>222.4</ele>
        <time>2017-12-21T13:00:36Z</time>
      </trkpt>
      <trkpt lat="47.29534" lon="5.79952">
        <ele>222</ele>
        <time>2017-12-21T13:00:37Z</time>
      </trkpt>
      <trkpt lat="47.29532" lon="5.79942">
        <ele>222</ele>
        <time>2017-12-21T13:00:38Z</time>
      </trkpt>
      <trkpt lat="47.29531" lon="5.79932">
        <ele>222</ele>
        <time>2017-12-21T13:00:39Z</time>
      </trkpt>
      <trkpt lat="47.2953" lon="5.79921">
        <ele>222</ele>
        <time>2017-12-21T13:00:40Z</time>
      </trkpt>
      <trkpt lat="47.29528" lon="5.7991">
        <ele>222</ele>
        <time>2017-12-21T13:00:41Z</time>
      </trkpt>
      <trkpt lat="47.29527" lon="5.79899">
        <ele>222</ele>
        <time>2017-12-21T13:00:42Z</time>
      </trkpt>
      <trkpt lat="47.29525" lon="5.79888">
        <ele>222</ele>
        <time>2017-12-21T13:00:43Z</time>
      </trkpt>
      <trkpt lat="47.29524" lon="5.79876">
        <ele>222</ele>
        <time>2017-12-21T13:00:44Z</time>
      </trkpt>
      <trkpt lat="47.29522" lon="5.79864">
        <ele>221.6</ele>
        <time>2017-12-21T13:00:45Z</time>
      </trkpt>
      <trkpt lat="47.29521" lon="5.79852">
        <ele>221.2</ele>
        <time>2017-12-21T13:00:46Z</time>
      </trkpt>
      <trkpt lat="47.29519" lon="5.79839">
        <ele>220.8</ele>
        <time>2017-12-21T13:00:47Z</time>
      </trkpt>
      <trkpt lat="47.29517" lon="5.79828">
        <ele>220.4</ele>
        <time>2017-12-21T13:00:48Z</time>
      </trkpt>
      <trkpt lat="47.29516" lon="5.79815">
        <ele>220</ele>
        <time>2017-12-21T13:00:49Z</time>
      </trkpt>
      <trkpt lat="47.29514" lon="5.79803">
        <ele>220</ele>
        <time>2017-12-21T13:00:50Z</time>
      </trkpt>
      <trkpt lat="47.29512" lon="5.79791">
        <ele>220</ele>
        <time>2017-12-21T13:00:51Z</time>
      </trkpt>
      <trkpt lat="47.29511" lon="5.79778">
        <ele>220</ele>
        <time>2017-12-21T13:00:52Z</time>
      </trkpt>
      <trkpt lat="47.29509" lon="5.79766">
        <ele>220</ele>
        <time>2017-12-21T13:00:53Z</time>
      </trkpt>
      <trkpt lat="47.29508" lon="5.79753">
        <ele>219.6</ele>
        <time>2017-12-21T13:00:54Z</time>
      </trkpt>
      <trkpt lat="47.29506" lon="5.79741">
        <ele>219.2</ele>
        <time>2017-12-21T13:00:55Z</time>
      </trkpt>
      <trkpt lat="47.29505" lon="5.79729">
        <ele>218.6</ele>
        <time>2017-12-21T13:00:56Z</time>
      </trkpt>
      <trkpt lat="47.29502" lon="5.79715">
        <ele>218.2</ele>
        <time>2017-12-21T13:00:57Z</time>
      </trkpt>
      <trkpt lat="47.295" lon="5.79703">
        <ele>217.8</ele>
        <time>2017-12-21T13:00:58Z</time>
      </trkpt>
      <trkpt lat="47.29498" lon="5.79691">
        <ele>217.8</ele>
        <time>2017-12-21T13:00:59Z</time>
      </trkpt>
      <trkpt lat="47.29495" lon="5.79679">
        <ele>217.8</ele>
        <time>2017-12-21T13:01:00Z</time>
      </trkpt>
      <trkpt lat="47.29493" lon="5.79669">
        <ele>217.8</ele>
        <time>2017-12-21T13:01:01Z</time>
      </trkpt>
      <trkpt lat="47.2949" lon="5.79658">
        <ele>217.8</ele>
        <time>2017-12-21T13:01:02Z</time>
      </trkpt>
      <trkpt lat="47.29487" lon="5.79648">
        <ele>217.8</ele>
        <time>2017-12-21T13:01:03Z</time>
      </trkpt>
      <trkpt lat="47.29484" lon="5.79638">
        <ele>217.8</ele>
        <time>2017-12-21T13:01:04Z</time>
      </trkpt>
      <trkpt lat="47.29482" lon="5.79627">
        <ele>217.8</ele>
        <time>2017-12-21T13:01:05Z</time>
      </trkpt>
      <trkpt lat="47.29479" lon="5.79617">
        <ele>217.8</ele>
        <time>2017-12-21T13:01:06Z</time>
      </trkpt>
      <trkpt lat="47.29477" lon="5.79606">
        <ele>217.8</ele>
        <time>2017-12-21T13:01:07Z</time>
      </trkpt>
      <trkpt lat="47.29474" lon="5.79596">
        <ele>217.8</ele>
        <time>2017-12-21T13:01:08Z</time>
      </trkpt>
      <trkpt lat="47.29472" lon="5.79585">
        <ele>217.8</ele>
        <time>2017-12-21T13:01:09Z</time>
      </trkpt>
      <trkpt lat="47.29469" lon="5.79575">
        <ele>217.8</ele>
        <time>2017-12-21T13:01:10Z</time>
      </trkpt>
      <trkpt lat="47.29467" lon="5.79564">
        <ele>217.8</ele>
        <time>2017-12-21T13:01:11Z</time>
      </trkpt>
      <trkpt lat="47.29464" lon="5.79553">
        <ele>217.8</ele>
        <time>2017-12-21T13:01:12Z</time>
      </trkpt>
      <trkpt lat="47.29462" lon="5.79543">
        <ele>217.8</ele>
        <time>2017-12-21T13:01:13Z</time>
      </trkpt>
      <trkpt lat="47.2946" lon="5.79531">
        <ele>217.8</ele>
        <time>2017-12-21T13:01:14Z</time>
      </trkpt>
      <trkpt lat="47.29458" lon="5.7952">
        <ele>217.8</ele>
        <time>2017-12-21T13:01:15Z</time>
      </trkpt>
      <trkpt lat="47.29456" lon="5.79509">
        <ele>217.8</ele>
        <time>2017-12-21T13:01:16Z</time>
      </trkpt>
      <trkpt lat="47.29454" lon="5.79497">
        <ele>217.8</ele>
        <time>2017-12-21T13:01:17Z</time>
      </trkpt>
      <trkpt lat="47.29453" lon="5.79486">
        <ele>217.8</ele>
        <time>2017-12-21T13:01:18Z</time>
      </trkpt>
      <trkpt lat="47.29451" lon="5.79474">
        <ele>217.4</ele>
        <time>2017-12-21T13:01:19Z</time>
      </trkpt>
      <trkpt lat="47.2945" lon="5.79462">
        <ele>217</ele>
        <time>2017-12-21T13:01:20Z</time>
      </trkpt>
      <trkpt lat="47.29448" lon="5.7945">
        <ele>216.6</ele>
        <time>2017-12-21T13:01:21Z</time>
      </trkpt>
      <trkpt lat="47.29446" lon="5.79438">
        <ele>216</ele>
        <time>2017-12-21T13:01:22Z</time>
      </trkpt>
      <trkpt lat="47.29445" lon="5.79426">
        <ele>215.6</ele>
        <time>2017-12-21T13:01:23Z</time>
      </trkpt>
      <trkpt lat="47.29443" lon="5.79415">
        <ele>215.6</ele>
        <time>2017-12-21T13:01:24Z</time>
      </trkpt>
      <trkpt lat="47.29441" lon="5.79404">
        <ele>215.6</ele>
        <time>2017-12-21T13:01:25Z</time>
      </trkpt>
      <trkpt lat="47.2944" lon="5.79392">
        <ele>215.6</ele>
        <time>2017-12-21T13:01:26Z</time>
      </trkpt>
      <trkpt lat="47.29439" lon="5.79381">
        <ele>215.6</ele>
        <time>2017-12-21T13:01:27Z</time>
      </trkpt>
      <trkpt lat="47.29438" lon="5.79369">
        <ele>215.6</ele>
        <time>2017-12-21T13:01:28Z</time>
      </trkpt>
      <trkpt lat="47.29437" lon="5.79357">
        <ele>215.6</ele>
        <time>2017-12-21T13:01:29Z</time>
      </trkpt>
      <trkpt lat="47.29436" lon="5.79345">
        <ele>215.6</ele>
        <time>2017-12-21T13:01:30Z</time>
      </trkpt>
      <trkpt lat="47.29436" lon="5.79333">
        <ele>215.6</ele>
        <time>2017-12-21T13:01:31Z</time>
      </trkpt>
      <trkpt lat="47.29436" lon="5.79321">
        <ele>215.6</ele>
        <time>2017-12-21T13:01:32Z</time>
      </trkpt>
      <trkpt lat="47.29436" lon="5.79309">
        <ele>215.2</ele>
        <time>2017-12-21T13:01:33Z</time>
      </trkpt>
      <trkpt lat="47.29435" lon="5.79296">
        <ele>214.8</ele>
        <time>2017-12-21T13:01:34Z</time>
      </trkpt>
      <trkpt lat="47.29435" lon="5.79284">
        <ele>214.4</ele>
        <time>2017-12-21T13:01:35Z</time>
      </trkpt>
      <trkpt lat="47.29435" lon="5.79271">
        <ele>213.8</ele>
        <time>2017-12-21T13:01:36Z</time>
      </trkpt>
      <trkpt lat="47.29435" lon="5.79259">
        <ele>213.4</ele>
        <time>2017-12-21T13:01:37Z</time>
      </trkpt>
      <trkpt lat="47.29435" lon="5.79247">
        <ele>213.4</ele>
        <time>2017-12-21T13:01:38Z</time>
      </trkpt>
      <trkpt lat="47.29435" lon="5.79235">
        <ele>213.4</ele>
        <time>2017-12-21T13:01:39Z</time>
      </trkpt>
      <trkpt lat="47.29435" lon="5.79223">
        <ele>213.4</ele>
        <time>2017-12-21T13:01:40Z</time>
      </trkpt>
      <trkpt lat="47.29434" lon="5.79212">
        <ele>213.4</ele>
        <time>2017-12-21T13:01:41Z</time>
      </trkpt>
      <trkpt lat="47.29434" lon="5.79201">
        <ele>213.4</ele>
        <time>2017-12-21T13:01:42Z</time>
      </trkpt>
      <trkpt lat="47.29434" lon="5.79191">
        <ele>213.4</ele>
        <time>2017-12-21T13:01:43Z</time>
      </trkpt>
      <trkpt lat="47.29434" lon="5.7918">
        <ele>213.4</ele>
        <time>2017-12-21T13:01:44Z</time>
      </trkpt>
      <trkpt lat="47.29433" lon="5.7917">
        <ele>213.4</ele>
        <time>2017-12-21T13:01:45Z</time>
      </trkpt>
      <trkpt lat="47.29433" lon="5.79161">
        <ele>213.4</ele>
        <time>2017-12-21T13:01:46Z</time>
      </trkpt>
      <trkpt lat="47.29432" lon="5.79152">
        <ele>213.4</ele>
        <time>2017-12-21T13:01:47Z</time>
      </trkpt>
      <trkpt lat="47.2943" lon="5.79144">
        <ele>213.4</ele>
        <time>2017-12-21T13:01:48Z</time>
      </trkpt>
      <trkpt lat="47.29429" lon="5.79137">
        <ele>213.4</ele>
        <time>2017-12-21T13:01:49Z</time>
      </trkpt>
      <trkpt lat="47.29428" lon="5.79129">
        <ele>213.4</ele>
        <time>2017-12-21T13:01:50Z</time>
      </trkpt>
      <trkpt lat="47.29426" lon="5.79121">
        <ele>213.4</ele>
        <time>2017-12-21T13:01:51Z</time>
      </trkpt>
      <trkpt lat="47.29425" lon="5.79114">
        <ele>213.4</ele>
        <time>2017-12-21T13:01:52Z</time>
      </trkpt>
      <trkpt lat="47.29424" lon="5.79107">
        <ele>213.4</ele>
        <time>2017-12-21T13:01:53Z</time>
      </trkpt>
      <trkpt lat="47.29423" lon="5.791">
        <ele>213.4</ele>
        <time>2017-12-21T13:01:54Z</time>
      </trkpt>
      <trkpt lat="47.29421" lon="5.79092">
        <ele>213.8</ele>
        <time>2017-12-21T13:01:55Z</time>
      </trkpt>
      <trkpt lat="47.2942" lon="5.79085">
        <ele>214.2</ele>
        <time>2017-12-21T13:01:56Z</time>
      </trkpt>
      <trkpt lat="47.29418" lon="5.79077">
        <ele>214.8</ele>
        <time>2017-12-21T13:01:57Z</time>
      </trkpt>
      <trkpt lat="47.29417" lon="5.7907">
        <ele>215.2</ele>
        <time>2017-12-21T13:01:58Z</time>
      </trkpt>
      <trkpt lat="47.29415" lon="5.79062">
        <ele>215.6</ele>
        <time>2017-12-21T13:01:59Z</time>
      </trkpt>
      <trkpt lat="47.29413" lon="5.79055">
        <ele>215.6</ele>
        <time>2017-12-21T13:02:00Z</time>
      </trkpt>
      <trkpt lat="47.29411" lon="5.79047">
        <ele>215.6</ele>
        <time>2017-12-21T13:02:01Z</time>
      </trkpt>
      <trkpt lat="47.29409" lon="5.79039">
        <ele>215.6</ele>
        <time>2017-12-21T13:02:02Z</time>
      </trkpt>
      <trkpt lat="47.29408" lon="5.7903">
        <ele>215.6</ele>
        <time>2017-12-21T13:02:03Z</time>
      </trkpt>
      <trkpt lat="47.29406" lon="5.79021">
        <ele>215.6</ele>
        <time>2017-12-21T13:02:04Z</time>
      </trkpt>
      <trkpt lat="47.29404" lon="5.79012">
        <ele>215.6</ele>
        <time>2017-12-21T13:02:05Z</time>
      </trkpt>
      <trkpt lat="47.29402" lon="5.79003">
        <ele>215.6</ele>
        <time>2017-12-21T13:02:06Z</time>
      </trkpt>
      <trkpt lat="47.29399" lon="5.78993">
        <ele>215.6</ele>
        <time>2017-12-21T13:02:07Z</time>
      </trkpt>
      <trkpt lat="47.29397" lon="5.78984">
        <ele>215.6</ele>
        <time>2017-12-21T13:02:08Z</time>
      </trkpt>
      <trkpt lat="47.29395" lon="5.78975">
        <ele>215.6</ele>
        <time>2017-12-21T13:02:09Z</time>
      </trkpt>
      <trkpt lat="47.29393" lon="5.78966">
        <ele>215.6</ele>
        <time>2017-12-21T13:02:10Z</time>
      </trkpt>
      <trkpt lat="47.29391" lon="5.78957">
        <ele>215.6</ele>
        <time>2017-12-21T13:02:11Z</time>
      </trkpt>
      <trkpt lat="47.29389" lon="5.78947">
        <ele>215.6</ele>
        <time>2017-12-21T13:02:12Z</time>
      </trkpt>
      <trkpt lat="47.29386" lon="5.78938">
        <ele>215.6</ele>
        <time>2017-12-21T13:02:13Z</time>
      </trkpt>
      <trkpt lat="47.29384" lon="5.78928">
        <ele>215.6</ele>
        <time>2017-12-21T13:02:14Z</time>
      </trkpt>
      <trkpt lat="47.29382" lon="5.78919">
        <ele>215.6</ele>
        <time>2017-12-21T13:02:15Z</time>
      </trkpt>
      <trkpt lat="47.29379" lon="5.78909">
        <ele>215.6</ele>
        <time>2017-12-21T13:02:16Z</time>
      </trkpt>
      <trkpt lat="47.29377" lon="5.789">
        <ele>215.6</ele>
        <time>2017-12-21T13:02:17Z</time>
      </trkpt>
      <trkpt lat="47.29375" lon="5.7889">
        <ele>215.6</ele>
        <time>2017-12-21T13:02:18Z</time>
      </trkpt>
      <trkpt lat="47.29373" lon="5.78881">
        <ele>215.6</ele>
        <time>2017-12-21T13:02:19Z</time>
      </trkpt>
      <trkpt lat="47.29371" lon="5.78871">
        <ele>215.6</ele>
        <time>2017-12-21T13:02:20Z</time>
      </trkpt>
      <trkpt lat="47.29369" lon="5.78861">
        <ele>215.6</ele>
        <time>2017-12-21T13:02:21Z</time>
      </trkpt>
      <trkpt lat="47.29367" lon="5.78851">
        <ele>215.6</ele>
        <time>2017-12-21T13:02:22Z</time>
      </trkpt>
      <trkpt lat="47.29365" lon="5.78841">
        <ele>215.6</ele>
        <time>2017-12-21T13:02:23Z</time>
      </trkpt>
      <trkpt lat="47.29363" lon="5.78831">
        <ele>215.6</ele>
        <time>2017-12-21T13:02:24Z</time>
      </trkpt>
      <trkpt lat="47.29362" lon="5.78821">
        <ele>215.6</ele>
        <time>2017-12-21T13:02:25Z</time>
      </trkpt>
      <trkpt lat="47.29361" lon="5.78811">
        <ele>215.6</ele>
        <time>2017-12-21T13:02:26Z</time>
      </trkpt>
      <trkpt lat="47.2936" lon="5.78801">
        <ele>215.6</ele>
        <time>2017-12-21T13:02:27Z</time>
      </trkpt>
      <trkpt lat="47.29359" lon="5.7879">
        <ele>215.2</ele>
        <time>2017-12-21T13:02:28Z</time>
      </trkpt>
      <trkpt lat="47.29359" lon="5.7878">
        <ele>214.8</ele>
        <time>2017-12-21T13:02:29Z</time>
      </trkpt>
      <trkpt lat="47.29358" lon="5.7877">
        <ele>214.4</ele>
        <time>2017-12-21T13:02:30Z</time>
      </trkpt>
      <trkpt lat="47.29357" lon="5.7876">
        <ele>214</ele>
        <time>2017-12-21T13:02:31Z</time>
      </trkpt>
      <trkpt lat="47.29357" lon="5.78751">
        <ele>213.6</ele>
        <time>2017-12-21T13:02:32Z</time>
      </trkpt>
      <trkpt lat="47.29357" lon="5.78742">
        <ele>213.6</ele>
        <time>2017-12-21T13:02:33Z</time>
      </trkpt>
      <trkpt lat="47.29356" lon="5.78733">
        <ele>213.6</ele>
        <time>2017-12-21T13:02:34Z</time>
      </trkpt>
      <trkpt lat="47.29357" lon="5.78725">
        <ele>213.6</ele>
        <time>2017-12-21T13:02:35Z</time>
      </trkpt>
      <trkpt lat="47.29357" lon="5.78716">
        <ele>213.6</ele>
        <time>2017-12-21T13:02:36Z</time>
      </trkpt>
      <trkpt lat="47.29357" lon="5.78708">
        <ele>213.6</ele>
        <time>2017-12-21T13:02:37Z</time>
      </trkpt>
      <trkpt lat="47.29357" lon="5.78701">
        <ele>213.6</ele>
        <time>2017-12-21T13:02:38Z</time>
      </trkpt>
      <trkpt lat="47.29358" lon="5.78693">
        <ele>213.6</ele>
        <time>2017-12-21T13:02:39Z</time>
      </trkpt>
      <trkpt lat="47.29358" lon="5.78686">
        <ele>214.4</ele>
        <time>2017-12-21T13:02:40Z</time>
      </trkpt>
      <trkpt lat="47.29359" lon="5.7868">
        <ele>214.8</ele>
        <time>2017-12-21T13:02:41Z</time>
      </trkpt>
      <trkpt lat="47.29359" lon="5.78673">
        <ele>215.4</ele>
        <time>2017-12-21T13:02:42Z</time>
      </trkpt>
      <trkpt lat="47.2936" lon="5.78667">
        <ele>215.8</ele>
        <time>2017-12-21T13:02:43Z</time>
      </trkpt>
      <trkpt lat="47.29362" lon="5.78661">
        <ele>215.8</ele>
        <time>2017-12-21T13:02:44Z</time>
      </trkpt>
      <trkpt lat="47.29363" lon="5.78656">
        <ele>215.8</ele>
        <time>2017-12-21T13:02:45Z</time>
      </trkpt>
      <trkpt lat="47.29364" lon="5.7865">
        <ele>215.8</ele>
        <time>2017-12-21T13:02:46Z</time>
      </trkpt>
      <trkpt lat="47.29365" lon="5.78644">
        <ele>215.8</ele>
        <time>2017-12-21T13:02:47Z</time>
      </trkpt>
      <trkpt lat="47.29367" lon="5.78639">
        <ele>216.2</ele>
        <time>2017-12-21T13:02:48Z</time>
      </trkpt>
      <trkpt lat="47.29368" lon="5.78633">
        <ele>216.6</ele>
        <time>2017-12-21T13:02:49Z</time>
      </trkpt>
      <trkpt lat="47.29369" lon="5.78628">
        <ele>217</ele>
        <time>2017-12-21T13:02:50Z</time>
      </trkpt>
      <trkpt lat="47.29371" lon="5.78622">
        <ele>217.4</ele>
        <time>2017-12-21T13:02:51Z</time>
      </trkpt>
      <trkpt lat="47.29372" lon="5.78617">
        <ele>217.8</ele>
        <time>2017-12-21T13:02:52Z</time>
      </trkpt>
      <trkpt lat="47.29373" lon="5.78611">
        <ele>217.8</ele>
        <time>2017-12-21T13:02:53Z</time>
      </trkpt>
      <trkpt lat="47.29375" lon="5.78606">
        <ele>217.8</ele>
        <time>2017-12-21T13:02:54Z</time>
      </trkpt>
      <trkpt lat="47.29376" lon="5.786">
        <ele>217.8</ele>
        <time>2017-12-21T13:02:55Z</time>
      </trkpt>
      <trkpt lat="47.29379" lon="5.78589">
        <ele>217.8</ele>
        <time>2017-12-21T13:02:56Z</time>
      </trkpt>
      <trkpt lat="47.29379" lon="5.78589">
        <ele>217.8</ele>
        <time>2017-12-21T13:02:57Z</time>
      </trkpt>
      <trkpt lat="47.2938" lon="5.78583">
        <ele>217.8</ele>
        <time>2017-12-21T13:02:58Z</time>
      </trkpt>
      <trkpt lat="47.29382" lon="5.78577">
        <ele>217.8</ele>
        <time>2017-12-21T13:02:59Z</time>
      </trkpt>
      <trkpt lat="47.29383" lon="5.78571">
        <ele>217.8</ele>
        <time>2017-12-21T13:03:00Z</time>
      </trkpt>
      <trkpt lat="47.29384" lon="5.78565">
        <ele>217.8</ele>
        <time>2017-12-21T13:03:01Z</time>
      </trkpt>
      <trkpt lat="47.29385" lon="5.78559">
        <ele>217.8</ele>
        <time>2017-12-21T13:03:02Z</time>
      </trkpt>
      <trkpt lat="47.29386" lon="5.78553">
        <ele>218.2</ele>
        <time>2017-12-21T13:03:03Z</time>
      </trkpt>
      <trkpt lat="47.29386" lon="5.78547">
        <ele>219</ele>
        <time>2017-12-21T13:03:04Z</time>
      </trkpt>
      <trkpt lat="47.29387" lon="5.78541">
        <ele>219.4</ele>
        <time>2017-12-21T13:03:05Z</time>
      </trkpt>
      <trkpt lat="47.29387" lon="5.78534">
        <ele>219.8</ele>
        <time>2017-12-21T13:03:06Z</time>
      </trkpt>
      <trkpt lat="47.29387" lon="5.78528">
        <ele>219.8</ele>
        <time>2017-12-21T13:03:07Z</time>
      </trkpt>
      <trkpt lat="47.29387" lon="5.78521">
        <ele>219.8</ele>
        <time>2017-12-21T13:03:08Z</time>
      </trkpt>
      <trkpt lat="47.29386" lon="5.78514">
        <ele>219.8</ele>
        <time>2017-12-21T13:03:09Z</time>
      </trkpt>
      <trkpt lat="47.29385" lon="5.78507">
        <ele>219.8</ele>
        <time>2017-12-21T13:03:10Z</time>
      </trkpt>
      <trkpt lat="47.29384" lon="5.78501">
        <ele>219.8</ele>
        <time>2017-12-21T13:03:11Z</time>
      </trkpt>
      <trkpt lat="47.29383" lon="5.78494">
        <ele>219.8</ele>
        <time>2017-12-21T13:03:12Z</time>
      </trkpt>
      <trkpt lat="47.29382" lon="5.78488">
        <ele>219.8</ele>
        <time>2017-12-21T13:03:13Z</time>
      </trkpt>
      <trkpt lat="47.2938" lon="5.78482">
        <ele>219.8</ele>
        <time>2017-12-21T13:03:14Z</time>
      </trkpt>
      <trkpt lat="47.29379" lon="5.78476">
        <ele>219.8</ele>
        <time>2017-12-21T13:03:15Z</time>
      </trkpt>
      <trkpt lat="47.29377" lon="5.78471">
        <ele>219.8</ele>
        <time>2017-12-21T13:03:16Z</time>
      </trkpt>
      <trkpt lat="47.29376" lon="5.78464">
        <ele>219.8</ele>
        <time>2017-12-21T13:03:17Z</time>
      </trkpt>
      <trkpt lat="47.29375" lon="5.78458">
        <ele>219.8</ele>
        <time>2017-12-21T13:03:18Z</time>
      </trkpt>
      <trkpt lat="47.29373" lon="5.78451">
        <ele>219.8</ele>
        <time>2017-12-21T13:03:19Z</time>
      </trkpt>
      <trkpt lat="47.29371" lon="5.78444">
        <ele>219.8</ele>
        <time>2017-12-21T13:03:20Z</time>
      </trkpt>
      <trkpt lat="47.29369" lon="5.78437">
        <ele>219.8</ele>
        <time>2017-12-21T13:03:21Z</time>
      </trkpt>
      <trkpt lat="47.29367" lon="5.7843">
        <ele>219.8</ele>
        <time>2017-12-21T13:03:22Z</time>
      </trkpt>
      <trkpt lat="47.29365" lon="5.78423">
        <ele>219.8</ele>
        <time>2017-12-21T13:03:23Z</time>
      </trkpt>
      <trkpt lat="47.29363" lon="5.78415">
        <ele>219.8</ele>
        <time>2017-12-21T13:03:24Z</time>
      </trkpt>
      <trkpt lat="47.29361" lon="5.78408">
        <ele>219.8</ele>
        <time>2017-12-21T13:03:25Z</time>
      </trkpt>
      <trkpt lat="47.29359" lon="5.78401">
        <ele>219.8</ele>
        <time>2017-12-21T13:03:26Z</time>
      </trkpt>
      <trkpt lat="47.29357" lon="5.78393">
        <ele>219.8</ele>
        <time>2017-12-21T13:03:27Z</time>
      </trkpt>
      <trkpt lat="47.29355" lon="5.78385">
        <ele>219.8</ele>
        <time>2017-12-21T13:03:28Z</time>
      </trkpt>
      <trkpt lat="47.29353" lon="5.78378">
        <ele>219.8</ele>
        <time>2017-12-21T13:03:29Z</time>
      </trkpt>
      <trkpt lat="47.29352" lon="5.78371">
        <ele>219.8</ele>
        <time>2017-12-21T13:03:30Z</time>
      </trkpt>
      <trkpt lat="47.2935" lon="5.78364">
        <ele>219.8</ele>
        <time>2017-12-21T13:03:31Z</time>
      </trkpt>
      <trkpt lat="47.29348" lon="5.78357">
        <ele>219.8</ele>
        <time>2017-12-21T13:03:32Z</time>
      </trkpt>
      <trkpt lat="47.29346" lon="5.7835">
        <ele>219.8</ele>
        <time>2017-12-21T13:03:33Z</time>
      </trkpt>
      <trkpt lat="47.29345" lon="5.78344">
        <ele>219.8</ele>
        <time>2017-12-21T13:03:34Z</time>
      </trkpt>
      <trkpt lat="47.29343" lon="5.78337">
        <ele>219.8</ele>
        <time>2017-12-21T13:03:35Z</time>
      </trkpt>
      <trkpt lat="47.29342" lon="5.78331">
        <ele>219.8</ele>
        <time>2017-12-21T13:03:36Z</time>
      </trkpt>
      <trkpt lat="47.2934" lon="5.78325">
        <ele>219.8</ele>
        <time>2017-12-21T13:03:37Z</time>
      </trkpt>
      <trkpt lat="47.29338" lon="5.78319">
        <ele>219.8</ele>
        <time>2017-12-21T13:03:38Z</time>
      </trkpt>
      <trkpt lat="47.29337" lon="5.78313">
        <ele>219.8</ele>
        <time>2017-12-21T13:03:39Z</time>
      </trkpt>
      <trkpt lat="47.29335" lon="5.78306">
        <ele>219.8</ele>
        <time>2017-12-21T13:03:40Z</time>
      </trkpt>
      <trkpt lat="47.29333" lon="5.783">
        <ele>219.8</ele>
        <time>2017-12-21T13:03:41Z</time>
      </trkpt>
      <trkpt lat="47.29332" lon="5.78294">
        <ele>219.8</ele>
        <time>2017-12-21T13:03:42Z</time>
      </trkpt>
      <trkpt lat="47.29331" lon="5.78287">
        <ele>219.8</ele>
        <time>2017-12-21T13:03:43Z</time>
      </trkpt>
      <trkpt lat="47.2933" lon="5.78281">
        <ele>219.4</ele>
        <time>2017-12-21T13:03:44Z</time>
      </trkpt>
      <trkpt lat="47.29329" lon="5.78274">
        <ele>219</ele>
        <time>2017-12-21T13:03:45Z</time>
      </trkpt>
      <trkpt lat="47.29329" lon="5.78267">
        <ele>218.6</ele>
        <time>2017-12-21T13:03:46Z</time>
      </trkpt>
      <trkpt lat="47.29329" lon="5.78259">
        <ele>218.2</ele>
        <time>2017-12-21T13:03:47Z</time>
      </trkpt>
      <trkpt lat="47.2933" lon="5.78252">
        <ele>217.8</ele>
        <time>2017-12-21T13:03:48Z</time>
      </trkpt>
      <trkpt lat="47.29331" lon="5.78244">
        <ele>217.8</ele>
        <time>2017-12-21T13:03:49Z</time>
      </trkpt>
      <trkpt lat="47.29332" lon="5.78236">
        <ele>217.8</ele>
        <time>2017-12-21T13:03:50Z</time>
      </trkpt>
      <trkpt lat="47.29333" lon="5.78228">
        <ele>217.8</ele>
        <time>2017-12-21T13:03:51Z</time>
      </trkpt>
      <trkpt lat="47.29333" lon="5.78219">
        <ele>217.8</ele>
        <time>2017-12-21T13:03:52Z</time>
      </trkpt>
      <trkpt lat="47.29334" lon="5.78211">
        <ele>217.8</ele>
        <time>2017-12-21T13:03:53Z</time>
      </trkpt>
      <trkpt lat="47.29333" lon="5.78202">
        <ele>217.8</ele>
        <time>2017-12-21T13:03:54Z</time>
      </trkpt>
      <trkpt lat="47.29331" lon="5.78193">
        <ele>217.8</ele>
        <time>2017-12-21T13:03:55Z</time>
      </trkpt>
      <trkpt lat="47.29329" lon="5.78184">
        <ele>217.8</ele>
        <time>2017-12-21T13:03:56Z</time>
      </trkpt>
      <trkpt lat="47.29325" lon="5.78176">
        <ele>217.4</ele>
        <time>2017-12-21T13:03:57Z</time>
      </trkpt>
      <trkpt lat="47.2932" lon="5.78167">
        <ele>217</ele>
        <time>2017-12-21T13:03:58Z</time>
      </trkpt>
      <trkpt lat="47.29316" lon="5.78159">
        <ele>216.6</ele>
        <time>2017-12-21T13:03:59Z</time>
      </trkpt>
      <trkpt lat="47.29314" lon="5.7815">
        <ele>216.2</ele>
        <time>2017-12-21T13:04:00Z</time>
      </trkpt>
      <trkpt lat="47.29312" lon="5.7814">
        <ele>215.8</ele>
        <time>2017-12-21T13:04:01Z</time>
      </trkpt>
      <trkpt lat="47.29312" lon="5.7813">
        <ele>215.8</ele>
        <time>2017-12-21T13:04:02Z</time>
      </trkpt>
      <trkpt lat="47.29313" lon="5.7812">
        <ele>215.8</ele>
        <time>2017-12-21T13:04:03Z</time>
      </trkpt>
      <trkpt lat="47.29313" lon="5.78111">
        <ele>215.8</ele>
        <time>2017-12-21T13:04:04Z</time>
      </trkpt>
      <trkpt lat="47.29314" lon="5.78101">
        <ele>215.8</ele>
        <time>2017-12-21T13:04:05Z</time>
      </trkpt>
      <trkpt lat="47.29314" lon="5.78091">
        <ele>215.8</ele>
        <time>2017-12-21T13:04:06Z</time>
      </trkpt>
      <trkpt lat="47.29314" lon="5.78082">
        <ele>215.8</ele>
        <time>2017-12-21T13:04:07Z</time>
      </trkpt>
      <trkpt lat="47.29314" lon="5.78072">
        <ele>215.8</ele>
        <time>2017-12-21T13:04:08Z</time>
      </trkpt>
      <trkpt lat="47.29313" lon="5.78063">
        <ele>215.8</ele>
        <time>2017-12-21T13:04:09Z</time>
      </trkpt>
      <trkpt lat="47.29313" lon="5.78053">
        <ele>215.8</ele>
        <time>2017-12-21T13:04:10Z</time>
      </trkpt>
      <trkpt lat="47.29312" lon="5.78043">
        <ele>215.8</ele>
        <time>2017-12-21T13:04:11Z</time>
      </trkpt>
      <trkpt lat="47.29311" lon="5.78033">
        <ele>215.8</ele>
        <time>2017-12-21T13:04:12Z</time>
      </trkpt>
      <trkpt lat="47.2931" lon="5.78023">
        <ele>215.8</ele>
        <time>2017-12-21T13:04:13Z</time>
      </trkpt>
      <trkpt lat="47.29309" lon="5.78013">
        <ele>215.8</ele>
        <time>2017-12-21T13:04:14Z</time>
      </trkpt>
      <trkpt lat="47.29308" lon="5.78003">
        <ele>215.8</ele>
        <time>2017-12-21T13:04:15Z</time>
      </trkpt>
      <trkpt lat="47.29307" lon="5.77994">
        <ele>215.8</ele>
        <time>2017-12-21T13:04:16Z</time>
      </trkpt>
      <trkpt lat="47.29306" lon="5.77984">
        <ele>215.8</ele>
        <time>2017-12-21T13:04:17Z</time>
      </trkpt>
      <trkpt lat="47.29305" lon="5.77974">
        <ele>215.8</ele>
        <time>2017-12-21T13:04:18Z</time>
      </trkpt>
      <trkpt lat="47.29304" lon="5.77965">
        <ele>215.8</ele>
        <time>2017-12-21T13:04:19Z</time>
      </trkpt>
      <trkpt lat="47.29303" lon="5.77955">
        <ele>215.8</ele>
        <time>2017-12-21T13:04:20Z</time>
      </trkpt>
      <trkpt lat="47.29302" lon="5.77946">
        <ele>215.8</ele>
        <time>2017-12-21T13:04:21Z</time>
      </trkpt>
      <trkpt lat="47.29301" lon="5.77938">
        <ele>215.8</ele>
        <time>2017-12-21T13:04:22Z</time>
      </trkpt>
      <trkpt lat="47.29301" lon="5.7793">
        <ele>215.8</ele>
        <time>2017-12-21T13:04:23Z</time>
      </trkpt>
      <trkpt lat="47.293" lon="5.77922">
        <ele>215.8</ele>
        <time>2017-12-21T13:04:24Z</time>
      </trkpt>
      <trkpt lat="47.29299" lon="5.77913">
        <ele>215.8</ele>
        <time>2017-12-21T13:04:25Z</time>
      </trkpt>
      <trkpt lat="47.29297" lon="5.77905">
        <ele>215.8</ele>
        <time>2017-12-21T13:04:26Z</time>
      </trkpt>
      <trkpt lat="47.29296" lon="5.77896">
        <ele>215.8</ele>
        <time>2017-12-21T13:04:27Z</time>
      </trkpt>
      <trkpt lat="47.29294" lon="5.77887">
        <ele>215.8</ele>
        <time>2017-12-21T13:04:28Z</time>
      </trkpt>
      <trkpt lat="47.29292" lon="5.77878">
        <ele>215.8</ele>
        <time>2017-12-21T13:04:29Z</time>
      </trkpt>
      <trkpt lat="47.2929" lon="5.7787">
        <ele>215.8</ele>
        <time>2017-12-21T13:04:30Z</time>
      </trkpt>
      <trkpt lat="47.29289" lon="5.77862">
        <ele>215.8</ele>
        <time>2017-12-21T13:04:31Z</time>
      </trkpt>
      <trkpt lat="47.29287" lon="5.77854">
        <ele>215.8</ele>
        <time>2017-12-21T13:04:32Z</time>
      </trkpt>
      <trkpt lat="47.29285" lon="5.77846">
        <ele>215.8</ele>
        <time>2017-12-21T13:04:33Z</time>
      </trkpt>
      <trkpt lat="47.29283" lon="5.77838">
        <ele>215.8</ele>
        <time>2017-12-21T13:04:34Z</time>
      </trkpt>
      <trkpt lat="47.29281" lon="5.7783">
        <ele>215.8</ele>
        <time>2017-12-21T13:04:35Z</time>
      </trkpt>
      <trkpt lat="47.29279" lon="5.77822">
        <ele>215.8</ele>
        <time>2017-12-21T13:04:36Z</time>
      </trkpt>
      <trkpt lat="47.29278" lon="5.77815">
        <ele>215.8</ele>
        <time>2017-12-21T13:04:37Z</time>
      </trkpt>
      <trkpt lat="47.29276" lon="5.77808">
        <ele>215.8</ele>
        <time>2017-12-21T13:04:38Z</time>
      </trkpt>
      <trkpt lat="47.29275" lon="5.778">
        <ele>215.8</ele>
        <time>2017-12-21T13:04:39Z</time>
      </trkpt>
      <trkpt lat="47.29273" lon="5.77793">
        <ele>215.8</ele>
        <time>2017-12-21T13:04:40Z</time>
      </trkpt>
      <trkpt lat="47.29272" lon="5.77785">
        <ele>215.8</ele>
        <time>2017-12-21T13:04:41Z</time>
      </trkpt>
      <trkpt lat="47.2927" lon="5.77777">
        <ele>215.8</ele>
        <time>2017-12-21T13:04:42Z</time>
      </trkpt>
      <trkpt lat="47.29269" lon="5.77769">
        <ele>215.8</ele>
        <time>2017-12-21T13:04:43Z</time>
      </trkpt>
      <trkpt lat="47.29267" lon="5.77762">
        <ele>215.8</ele>
        <time>2017-12-21T13:04:44Z</time>
      </trkpt>
      <trkpt lat="47.29265" lon="5.77754">
        <ele>215.4</ele>
        <time>2017-12-21T13:04:45Z</time>
      </trkpt>
      <trkpt lat="47.29262" lon="5.77747">
        <ele>215</ele>
        <time>2017-12-21T13:04:46Z</time>
      </trkpt>
      <trkpt lat="47.29259" lon="5.7774">
        <ele>214.6</ele>
        <time>2017-12-21T13:04:47Z</time>
      </trkpt>
      <trkpt lat="47.29257" lon="5.77732">
        <ele>214.2</ele>
        <time>2017-12-21T13:04:48Z</time>
      </trkpt>
      <trkpt lat="47.29254" lon="5.77725">
        <ele>213.8</ele>
        <time>2017-12-21T13:04:49Z</time>
      </trkpt>
      <trkpt lat="47.29251" lon="5.77718">
        <ele>213.8</ele>
        <time>2017-12-21T13:04:50Z</time>
      </trkpt>
      <trkpt lat="47.29248" lon="5.77711">
        <ele>213.8</ele>
        <time>2017-12-21T13:04:51Z</time>
      </trkpt>
      <trkpt lat="47.29245" lon="5.77703">
        <ele>213.8</ele>
        <time>2017-12-21T13:04:52Z</time>
      </trkpt>
      <trkpt lat="47.29241" lon="5.77695">
        <ele>213.8</ele>
        <time>2017-12-21T13:04:53Z</time>
      </trkpt>
      <trkpt lat="47.29239" lon="5.77687">
        <ele>213.8</ele>
        <time>2017-12-21T13:04:54Z</time>
      </trkpt>
      <trkpt lat="47.29236" lon="5.77679">
        <ele>213.8</ele>
        <time>2017-12-21T13:04:55Z</time>
      </trkpt>
      <trkpt lat="47.29234" lon="5.7767">
        <ele>213.8</ele>
        <time>2017-12-21T13:04:56Z</time>
      </trkpt>
      <trkpt lat="47.29233" lon="5.77661">
        <ele>213.8</ele>
        <time>2017-12-21T13:04:57Z</time>
      </trkpt>
      <trkpt lat="47.29232" lon="5.77651">
        <ele>213.8</ele>
        <time>2017-12-21T13:04:58Z</time>
      </trkpt>
      <trkpt lat="47.29232" lon="5.77641">
        <ele>213.8</ele>
        <time>2017-12-21T13:04:59Z</time>
      </trkpt>
      <trkpt lat="47.29231" lon="5.77632">
        <ele>213.8</ele>
        <time>2017-12-21T13:05:00Z</time>
      </trkpt>
      <trkpt lat="47.29231" lon="5.77622">
        <ele>213.8</ele>
        <time>2017-12-21T13:05:01Z</time>
      </trkpt>
      <trkpt lat="47.29231" lon="5.77612">
        <ele>213.4</ele>
        <time>2017-12-21T13:05:02Z</time>
      </trkpt>
      <trkpt lat="47.29231" lon="5.77601">
        <ele>213</ele>
        <time>2017-12-21T13:05:03Z</time>
      </trkpt>
      <trkpt lat="47.2923" lon="5.77591">
        <ele>212.6</ele>
        <time>2017-12-21T13:05:04Z</time>
      </trkpt>
      <trkpt lat="47.2923" lon="5.77582">
        <ele>212.2</ele>
        <time>2017-12-21T13:05:05Z</time>
      </trkpt>
      <trkpt lat="47.2923" lon="5.77571">
        <ele>211.8</ele>
        <time>2017-12-21T13:05:06Z</time>
      </trkpt>
      <trkpt lat="47.2923" lon="5.77561">
        <ele>211.8</ele>
        <time>2017-12-21T13:05:07Z</time>
      </trkpt>
      <trkpt lat="47.29231" lon="5.7755">
        <ele>211.4</ele>
        <time>2017-12-21T13:05:08Z</time>
      </trkpt>
      <trkpt lat="47.29231" lon="5.7754">
        <ele>211</ele>
        <time>2017-12-21T13:05:09Z</time>
      </trkpt>
      <trkpt lat="47.29231" lon="5.7753">
        <ele>210.6</ele>
        <time>2017-12-21T13:05:10Z</time>
      </trkpt>
      <trkpt lat="47.29231" lon="5.77521">
        <ele>210.2</ele>
        <time>2017-12-21T13:05:11Z</time>
      </trkpt>
      <trkpt lat="47.2923" lon="5.77512">
        <ele>209.8</ele>
        <time>2017-12-21T13:05:12Z</time>
      </trkpt>
      <trkpt lat="47.29227" lon="5.77504">
        <ele>209.8</ele>
        <time>2017-12-21T13:05:13Z</time>
      </trkpt>
      <trkpt lat="47.29223" lon="5.77497">
        <ele>209.8</ele>
        <time>2017-12-21T13:05:14Z</time>
      </trkpt>
      <trkpt lat="47.29218" lon="5.77493">
        <ele>209.4</ele>
        <time>2017-12-21T13:05:15Z</time>
      </trkpt>
      <trkpt lat="47.29212" lon="5.77488">
        <ele>208.8</ele>
        <time>2017-12-21T13:05:16Z</time>
      </trkpt>
      <trkpt lat="47.29206" lon="5.77484">
        <ele>208.4</ele>
        <time>2017-12-21T13:05:17Z</time>
      </trkpt>
      <trkpt lat="47.29199" lon="5.7748">
        <ele>208</ele>
        <time>2017-12-21T13:05:18Z</time>
      </trkpt>
      <trkpt lat="47.29193" lon="5.77478">
        <ele>207.6</ele>
        <time>2017-12-21T13:05:19Z</time>
      </trkpt>
      <trkpt lat="47.29186" lon="5.77476">
        <ele>207.6</ele>
        <time>2017-12-21T13:05:20Z</time>
      </trkpt>
      <trkpt lat="47.29179" lon="5.77474">
        <ele>207.6</ele>
        <time>2017-12-21T13:05:21Z</time>
      </trkpt>
      <trkpt lat="47.29173" lon="5.77472">
        <ele>207.6</ele>
        <time>2017-12-21T13:05:22Z</time>
      </trkpt>
      <trkpt lat="47.29166" lon="5.77471">
        <ele>207.2</ele>
        <time>2017-12-21T13:05:23Z</time>
      </trkpt>
      <trkpt lat="47.29159" lon="5.7747">
        <ele>206.8</ele>
        <time>2017-12-21T13:05:24Z</time>
      </trkpt>
      <trkpt lat="47.29153" lon="5.77468">
        <ele>206.4</ele>
        <time>2017-12-21T13:05:25Z</time>
      </trkpt>
      <trkpt lat="47.29147" lon="5.77466">
        <ele>205.8</ele>
        <time>2017-12-21T13:05:26Z</time>
      </trkpt>
      <trkpt lat="47.29141" lon="5.77464">
        <ele>205.4</ele>
        <time>2017-12-21T13:05:27Z</time>
      </trkpt>
      <trkpt lat="47.29135" lon="5.7746">
        <ele>205.4</ele>
        <time>2017-12-21T13:05:28Z</time>
      </trkpt>
      <trkpt lat="47.2913" lon="5.77455">
        <ele>205.4</ele>
        <time>2017-12-21T13:05:29Z</time>
      </trkpt>
      <trkpt lat="47.29125" lon="5.7745">
        <ele>205.4</ele>
        <time>2017-12-21T13:05:30Z</time>
      </trkpt>
      <trkpt lat="47.2912" lon="5.77445">
        <ele>205.4</ele>
        <time>2017-12-21T13:05:31Z</time>
      </trkpt>
      <trkpt lat="47.29116" lon="5.77438">
        <ele>205.4</ele>
        <time>2017-12-21T13:05:32Z</time>
      </trkpt>
      <trkpt lat="47.29111" lon="5.77431">
        <ele>205.4</ele>
        <time>2017-12-21T13:05:33Z</time>
      </trkpt>
      <trkpt lat="47.29107" lon="5.77425">
        <ele>205.4</ele>
        <time>2017-12-21T13:05:34Z</time>
      </trkpt>
      <trkpt lat="47.29103" lon="5.77418">
        <ele>205.4</ele>
        <time>2017-12-21T13:05:35Z</time>
      </trkpt>
      <trkpt lat="47.29099" lon="5.77411">
        <ele>205.4</ele>
        <time>2017-12-21T13:05:36Z</time>
      </trkpt>
      <trkpt lat="47.29095" lon="5.77404">
        <ele>205.4</ele>
        <time>2017-12-21T13:05:37Z</time>
      </trkpt>
      <trkpt lat="47.29091" lon="5.77398">
        <ele>205.4</ele>
        <time>2017-12-21T13:05:38Z</time>
      </trkpt>
      <trkpt lat="47.29087" lon="5.77391">
        <ele>205.4</ele>
        <time>2017-12-21T13:05:39Z</time>
      </trkpt>
      <trkpt lat="47.29082" lon="5.77385">
        <ele>205.4</ele>
        <time>2017-12-21T13:05:40Z</time>
      </trkpt>
      <trkpt lat="47.29078" lon="5.77378">
        <ele>205.4</ele>
        <time>2017-12-21T13:05:41Z</time>
      </trkpt>
      <trkpt lat="47.29073" lon="5.77372">
        <ele>205.4</ele>
        <time>2017-12-21T13:05:42Z</time>
      </trkpt>
      <trkpt lat="47.29069" lon="5.77364">
        <ele>205.4</ele>
        <time>2017-12-21T13:05:43Z</time>
      </trkpt>
      <trkpt lat="47.29064" lon="5.77358">
        <ele>205.4</ele>
        <time>2017-12-21T13:05:44Z</time>
      </trkpt>
      <trkpt lat="47.2906" lon="5.77351">
        <ele>205.4</ele>
        <time>2017-12-21T13:05:45Z</time>
      </trkpt>
      <trkpt lat="47.29055" lon="5.77344">
        <ele>205.4</ele>
        <time>2017-12-21T13:05:46Z</time>
      </trkpt>
      <trkpt lat="47.29051" lon="5.77338">
        <ele>205.4</ele>
        <time>2017-12-21T13:05:47Z</time>
      </trkpt>
      <trkpt lat="47.29046" lon="5.77332">
        <ele>205.4</ele>
        <time>2017-12-21T13:05:48Z</time>
      </trkpt>
      <trkpt lat="47.29042" lon="5.77326">
        <ele>205.4</ele>
        <time>2017-12-21T13:05:49Z</time>
      </trkpt>
      <trkpt lat="47.29038" lon="5.7732">
        <ele>205.4</ele>
        <time>2017-12-21T13:05:50Z</time>
      </trkpt>
      <trkpt lat="47.29034" lon="5.77316">
        <ele>205.4</ele>
        <time>2017-12-21T13:05:51Z</time>
      </trkpt>
      <trkpt lat="47.29029" lon="5.77311">
        <ele>205.4</ele>
        <time>2017-12-21T13:05:52Z</time>
      </trkpt>
      <trkpt lat="47.29025" lon="5.77307">
        <ele>205.4</ele>
        <time>2017-12-21T13:05:53Z</time>
      </trkpt>
      <trkpt lat="47.29021" lon="5.77303">
        <ele>205.4</ele>
        <time>2017-12-21T13:05:54Z</time>
      </trkpt>
      <trkpt lat="47.29017" lon="5.77299">
        <ele>205.4</ele>
        <time>2017-12-21T13:05:55Z</time>
      </trkpt>
      <trkpt lat="47.29014" lon="5.77295">
        <ele>205.4</ele>
        <time>2017-12-21T13:05:56Z</time>
      </trkpt>
      <trkpt lat="47.2901" lon="5.77292">
        <ele>205.4</ele>
        <time>2017-12-21T13:05:57Z</time>
      </trkpt>
      <trkpt lat="47.29008" lon="5.7729">
        <ele>205.4</ele>
        <time>2017-12-21T13:05:58Z</time>
      </trkpt>
      <trkpt lat="47.29006" lon="5.77288">
        <ele>205.4</ele>
        <time>2017-12-21T13:05:59Z</time>
      </trkpt>
      <trkpt lat="47.29004" lon="5.77286">
        <ele>205.4</ele>
        <time>2017-12-21T13:06:00Z</time>
      </trkpt>
      <trkpt lat="47.29003" lon="5.77285">
        <ele>205.4</ele>
        <time>2017-12-21T13:06:01Z</time>
      </trkpt>
      <trkpt lat="47.29003" lon="5.77285">
        <ele>205.4</ele>
        <time>2017-12-21T13:06:02Z</time>
      </trkpt>
      <trkpt lat="47.29003" lon="5.77285">
        <ele>205.4</ele>
        <time>2017-12-21T13:06:03Z</time>
      </trkpt>
      <trkpt lat="47.29003" lon="5.77285">
        <ele>205.4</ele>
        <time>2017-12-21T13:06:04Z</time>
      </trkpt>
      <trkpt lat="47.28999" lon="5.77299">
        <ele>205.4</ele>
        <time>2017-12-21T13:06:17Z</time>
      </trkpt>
      <trkpt lat="47.28999" lon="5.77306">
        <ele>205.4</ele>
        <time>2017-12-21T13:06:18Z</time>
      </trkpt>
      <trkpt lat="47.28998" lon="5.77314">
        <ele>205.4</ele>
        <time>2017-12-21T13:06:19Z</time>
      </trkpt>
      <trkpt lat="47.28998" lon="5.77321">
        <ele>205.4</ele>
        <time>2017-12-21T13:06:20Z</time>
      </trkpt>
      <trkpt lat="47.28998" lon="5.77328">
        <ele>205.4</ele>
        <time>2017-12-21T13:06:21Z</time>
      </trkpt>
      <trkpt lat="47.28998" lon="5.77334">
        <ele>205</ele>
        <time>2017-12-21T13:06:22Z</time>
      </trkpt>
      <trkpt lat="47.28998" lon="5.77341">
        <ele>204.2</ele>
        <time>2017-12-21T13:06:23Z</time>
      </trkpt>
      <trkpt lat="47.28997" lon="5.77348">
        <ele>203.8</ele>
        <time>2017-12-21T13:06:24Z</time>
      </trkpt>
      <trkpt lat="47.28997" lon="5.77355">
        <ele>203.4</ele>
        <time>2017-12-21T13:06:25Z</time>
      </trkpt>
      <trkpt lat="47.28997" lon="5.77362">
        <ele>203.4</ele>
        <time>2017-12-21T13:06:26Z</time>
      </trkpt>
      <trkpt lat="47.28997" lon="5.77369">
        <ele>203.4</ele>
        <time>2017-12-21T13:06:27Z</time>
      </trkpt>
      <trkpt lat="47.28996" lon="5.77377">
        <ele>203.4</ele>
        <time>2017-12-21T13:06:28Z</time>
      </trkpt>
      <trkpt lat="47.28996" lon="5.77386">
        <ele>203.4</ele>
        <time>2017-12-21T13:06:29Z</time>
      </trkpt>
      <trkpt lat="47.28995" lon="5.77395">
        <ele>203.4</ele>
        <time>2017-12-21T13:06:30Z</time>
      </trkpt>
      <trkpt lat="47.28995" lon="5.77405">
        <ele>203.4</ele>
        <time>2017-12-21T13:06:31Z</time>
      </trkpt>
      <trkpt lat="47.28994" lon="5.77414">
        <ele>203.4</ele>
        <time>2017-12-21T13:06:32Z</time>
      </trkpt>
      <trkpt lat="47.28993" lon="5.77423">
        <ele>203.4</ele>
        <time>2017-12-21T13:06:33Z</time>
      </trkpt>
      <trkpt lat="47.28992" lon="5.77432">
        <ele>203.4</ele>
        <time>2017-12-21T13:06:34Z</time>
      </trkpt>
      <trkpt lat="47.28992" lon="5.77441">
        <ele>203.4</ele>
        <time>2017-12-21T13:06:35Z</time>
      </trkpt>
      <trkpt lat="47.28992" lon="5.7745">
        <ele>203.4</ele>
        <time>2017-12-21T13:06:36Z</time>
      </trkpt>
      <trkpt lat="47.28991" lon="5.77458">
        <ele>203.4</ele>
        <time>2017-12-21T13:06:37Z</time>
      </trkpt>
      <trkpt lat="47.28991" lon="5.77466">
        <ele>203.4</ele>
        <time>2017-12-21T13:06:38Z</time>
      </trkpt>
      <trkpt lat="47.28991" lon="5.77474">
        <ele>203.4</ele>
        <time>2017-12-21T13:06:39Z</time>
      </trkpt>
      <trkpt lat="47.28991" lon="5.77482">
        <ele>203.4</ele>
        <time>2017-12-21T13:06:40Z</time>
      </trkpt>
      <trkpt lat="47.2899" lon="5.77489">
        <ele>203.4</ele>
        <time>2017-12-21T13:06:41Z</time>
      </trkpt>
      <trkpt lat="47.2899" lon="5.77498">
        <ele>203.4</ele>
        <time>2017-12-21T13:06:42Z</time>
      </trkpt>
      <trkpt lat="47.28989" lon="5.77506">
        <ele>203.4</ele>
        <time>2017-12-21T13:06:43Z</time>
      </trkpt>
      <trkpt lat="47.28989" lon="5.77515">
        <ele>203.4</ele>
        <time>2017-12-21T13:06:44Z</time>
      </trkpt>
      <trkpt lat="47.28989" lon="5.77523">
        <ele>203.4</ele>
        <time>2017-12-21T13:06:45Z</time>
      </trkpt>
      <trkpt lat="47.28989" lon="5.77531">
        <ele>203.4</ele>
        <time>2017-12-21T13:06:46Z</time>
      </trkpt>
      <trkpt lat="47.2899" lon="5.77538">
        <ele>203.4</ele>
        <time>2017-12-21T13:06:47Z</time>
      </trkpt>
      <trkpt lat="47.28989" lon="5.77546">
        <ele>203.4</ele>
        <time>2017-12-21T13:06:48Z</time>
      </trkpt>
      <trkpt lat="47.28989" lon="5.77554">
        <ele>203.4</ele>
        <time>2017-12-21T13:06:49Z</time>
      </trkpt>
      <trkpt lat="47.28988" lon="5.77561">
        <ele>203.4</ele>
        <time>2017-12-21T13:06:50Z</time>
      </trkpt>
      <trkpt lat="47.28987" lon="5.77568">
        <ele>203.4</ele>
        <time>2017-12-21T13:06:51Z</time>
      </trkpt>
      <trkpt lat="47.28986" lon="5.77575">
        <ele>203.4</ele>
        <time>2017-12-21T13:06:52Z</time>
      </trkpt>
      <trkpt lat="47.28985" lon="5.77582">
        <ele>203.4</ele>
        <time>2017-12-21T13:06:53Z</time>
      </trkpt>
      <trkpt lat="47.28985" lon="5.77589">
        <ele>203.4</ele>
        <time>2017-12-21T13:06:54Z</time>
      </trkpt>
      <trkpt lat="47.28985" lon="5.77596">
        <ele>203.4</ele>
        <time>2017-12-21T13:06:55Z</time>
      </trkpt>
      <trkpt lat="47.28984" lon="5.77603">
        <ele>203.4</ele>
        <time>2017-12-21T13:06:56Z</time>
      </trkpt>
      <trkpt lat="47.28983" lon="5.77611">
        <ele>203.4</ele>
        <time>2017-12-21T13:06:57Z</time>
      </trkpt>
      <trkpt lat="47.28981" lon="5.77619">
        <ele>203.4</ele>
        <time>2017-12-21T13:06:58Z</time>
      </trkpt>
      <trkpt lat="47.28979" lon="5.77627">
        <ele>203.4</ele>
        <time>2017-12-21T13:06:59Z</time>
      </trkpt>
      <trkpt lat="47.28977" lon="5.77634">
        <ele>203.4</ele>
        <time>2017-12-21T13:07:00Z</time>
      </trkpt>
      <trkpt lat="47.28974" lon="5.77641">
        <ele>203.4</ele>
        <time>2017-12-21T13:07:01Z</time>
      </trkpt>
      <trkpt lat="47.28972" lon="5.77648">
        <ele>203.4</ele>
        <time>2017-12-21T13:07:02Z</time>
      </trkpt>
      <trkpt lat="47.28969" lon="5.77655">
        <ele>203.4</ele>
        <time>2017-12-21T13:07:03Z</time>
      </trkpt>
      <trkpt lat="47.28967" lon="5.77662">
        <ele>203.4</ele>
        <time>2017-12-21T13:07:04Z</time>
      </trkpt>
      <trkpt lat="47.28964" lon="5.77669">
        <ele>203.4</ele>
        <time>2017-12-21T13:07:05Z</time>
      </trkpt>
      <trkpt lat="47.28962" lon="5.77676">
        <ele>203.4</ele>
        <time>2017-12-21T13:07:06Z</time>
      </trkpt>
      <trkpt lat="47.2896" lon="5.77683">
        <ele>203.4</ele>
        <time>2017-12-21T13:07:07Z</time>
      </trkpt>
      <trkpt lat="47.28957" lon="5.77691">
        <ele>203.4</ele>
        <time>2017-12-21T13:07:08Z</time>
      </trkpt>
      <trkpt lat="47.28955" lon="5.77698">
        <ele>203.4</ele>
        <time>2017-12-21T13:07:09Z</time>
      </trkpt>
      <trkpt lat="47.28953" lon="5.77705">
        <ele>203.4</ele>
        <time>2017-12-21T13:07:10Z</time>
      </trkpt>
      <trkpt lat="47.2895" lon="5.77713">
        <ele>203.4</ele>
        <time>2017-12-21T13:07:11Z</time>
      </trkpt>
      <trkpt lat="47.28947" lon="5.7772">
        <ele>203.4</ele>
        <time>2017-12-21T13:07:12Z</time>
      </trkpt>
      <trkpt lat="47.28945" lon="5.77728">
        <ele>203.4</ele>
        <time>2017-12-21T13:07:13Z</time>
      </trkpt>
      <trkpt lat="47.28942" lon="5.77736">
        <ele>203.4</ele>
        <time>2017-12-21T13:07:14Z</time>
      </trkpt>
      <trkpt lat="47.28939" lon="5.77743">
        <ele>203.4</ele>
        <time>2017-12-21T13:07:15Z</time>
      </trkpt>
      <trkpt lat="47.28936" lon="5.77751">
        <ele>203.4</ele>
        <time>2017-12-21T13:07:16Z</time>
      </trkpt>
      <trkpt lat="47.28933" lon="5.77759">
        <ele>203.4</ele>
        <time>2017-12-21T13:07:17Z</time>
      </trkpt>
      <trkpt lat="47.28931" lon="5.77767">
        <ele>203.4</ele>
        <time>2017-12-21T13:07:18Z</time>
      </trkpt>
      <trkpt lat="47.28928" lon="5.77775">
        <ele>203.4</ele>
        <time>2017-12-21T13:07:19Z</time>
      </trkpt>
      <trkpt lat="47.28925" lon="5.77783">
        <ele>203.4</ele>
        <time>2017-12-21T13:07:20Z</time>
      </trkpt>
      <trkpt lat="47.28923" lon="5.77791">
        <ele>203.4</ele>
        <time>2017-12-21T13:07:21Z</time>
      </trkpt>
      <trkpt lat="47.2892" lon="5.77799">
        <ele>203.4</ele>
        <time>2017-12-21T13:07:22Z</time>
      </trkpt>
      <trkpt lat="47.28918" lon="5.77807">
        <ele>203.4</ele>
        <time>2017-12-21T13:07:23Z</time>
      </trkpt>
      <trkpt lat="47.28915" lon="5.77815">
        <ele>203.4</ele>
        <time>2017-12-21T13:07:24Z</time>
      </trkpt>
      <trkpt lat="47.28912" lon="5.77823">
        <ele>203.4</ele>
        <time>2017-12-21T13:07:25Z</time>
      </trkpt>
      <trkpt lat="47.28909" lon="5.77831">
        <ele>203.4</ele>
        <time>2017-12-21T13:07:26Z</time>
      </trkpt>
      <trkpt lat="47.28906" lon="5.7784">
        <ele>203.4</ele>
        <time>2017-12-21T13:07:27Z</time>
      </trkpt>
      <trkpt lat="47.28903" lon="5.77848">
        <ele>203.4</ele>
        <time>2017-12-21T13:07:28Z</time>
      </trkpt>
      <trkpt lat="47.28901" lon="5.77856">
        <ele>203.4</ele>
        <time>2017-12-21T13:07:29Z</time>
      </trkpt>
      <trkpt lat="47.28898" lon="5.77864">
        <ele>203.4</ele>
        <time>2017-12-21T13:07:30Z</time>
      </trkpt>
      <trkpt lat="47.28895" lon="5.77873">
        <ele>203.4</ele>
        <time>2017-12-21T13:07:31Z</time>
      </trkpt>
      <trkpt lat="47.28893" lon="5.77881">
        <ele>203.4</ele>
        <time>2017-12-21T13:07:32Z</time>
      </trkpt>
      <trkpt lat="47.2889" lon="5.77888">
        <ele>203.4</ele>
        <time>2017-12-21T13:07:33Z</time>
      </trkpt>
      <trkpt lat="47.28887" lon="5.77897">
        <ele>203.4</ele>
        <time>2017-12-21T13:07:34Z</time>
      </trkpt>
      <trkpt lat="47.28884" lon="5.77905">
        <ele>203.4</ele>
        <time>2017-12-21T13:07:35Z</time>
      </trkpt>
      <trkpt lat="47.28881" lon="5.77913">
        <ele>203.4</ele>
        <time>2017-12-21T13:07:36Z</time>
      </trkpt>
      <trkpt lat="47.28878" lon="5.77922">
        <ele>203.4</ele>
        <time>2017-12-21T13:07:37Z</time>
      </trkpt>
      <trkpt lat="47.28875" lon="5.7793">
        <ele>203.4</ele>
        <time>2017-12-21T13:07:38Z</time>
      </trkpt>
      <trkpt lat="47.28873" lon="5.77938">
        <ele>203.4</ele>
        <time>2017-12-21T13:07:39Z</time>
      </trkpt>
      <trkpt lat="47.2887" lon="5.77947">
        <ele>203.4</ele>
        <time>2017-12-21T13:07:40Z</time>
      </trkpt>
      <trkpt lat="47.28868" lon="5.77955">
        <ele>203.4</ele>
        <time>2017-12-21T13:07:41Z</time>
      </trkpt>
      <trkpt lat="47.28865" lon="5.77963">
        <ele>203.4</ele>
        <time>2017-12-21T13:07:42Z</time>
      </trkpt>
      <trkpt lat="47.28862" lon="5.77971">
        <ele>203.4</ele>
        <time>2017-12-21T13:07:43Z</time>
      </trkpt>
      <trkpt lat="47.2886" lon="5.77979">
        <ele>203.4</ele>
        <time>2017-12-21T13:07:44Z</time>
      </trkpt>
      <trkpt lat="47.28857" lon="5.77988">
        <ele>203.4</ele>
        <time>2017-12-21T13:07:45Z</time>
      </trkpt>
      <trkpt lat="47.28854" lon="5.77996">
        <ele>203.4</ele>
        <time>2017-12-21T13:07:46Z</time>
      </trkpt>
      <trkpt lat="47.28851" lon="5.78004">
        <ele>203.4</ele>
        <time>2017-12-21T13:07:47Z</time>
      </trkpt>
      <trkpt lat="47.28848" lon="5.78013">
        <ele>203.4</ele>
        <time>2017-12-21T13:07:48Z</time>
      </trkpt>
      <trkpt lat="47.28846" lon="5.78021">
        <ele>203.4</ele>
        <time>2017-12-21T13:07:49Z</time>
      </trkpt>
      <trkpt lat="47.28843" lon="5.78029">
        <ele>203.4</ele>
        <time>2017-12-21T13:07:50Z</time>
      </trkpt>
      <trkpt lat="47.2884" lon="5.78038">
        <ele>203.4</ele>
        <time>2017-12-21T13:07:51Z</time>
      </trkpt>
      <trkpt lat="47.28838" lon="5.78046">
        <ele>203.4</ele>
        <time>2017-12-21T13:07:52Z</time>
      </trkpt>
      <trkpt lat="47.28835" lon="5.78054">
        <ele>203.4</ele>
        <time>2017-12-21T13:07:53Z</time>
      </trkpt>
      <trkpt lat="47.28832" lon="5.78062">
        <ele>203.4</ele>
        <time>2017-12-21T13:07:54Z</time>
      </trkpt>
      <trkpt lat="47.2883" lon="5.7807">
        <ele>203.4</ele>
        <time>2017-12-21T13:07:55Z</time>
      </trkpt>
      <trkpt lat="47.28827" lon="5.78077">
        <ele>203.4</ele>
        <time>2017-12-21T13:07:56Z</time>
      </trkpt>
      <trkpt lat="47.28824" lon="5.78085">
        <ele>203.4</ele>
        <time>2017-12-21T13:07:57Z</time>
      </trkpt>
      <trkpt lat="47.28821" lon="5.78093">
        <ele>203.4</ele>
        <time>2017-12-21T13:07:58Z</time>
      </trkpt>
      <trkpt lat="47.28818" lon="5.78101">
        <ele>203.4</ele>
        <time>2017-12-21T13:07:59Z</time>
      </trkpt>
      <trkpt lat="47.28816" lon="5.78109">
        <ele>203.4</ele>
        <time>2017-12-21T13:08:00Z</time>
      </trkpt>
      <trkpt lat="47.28813" lon="5.78117">
        <ele>203.4</ele>
        <time>2017-12-21T13:08:01Z</time>
      </trkpt>
      <trkpt lat="47.2881" lon="5.78124">
        <ele>203.4</ele>
        <time>2017-12-21T13:08:02Z</time>
      </trkpt>
      <trkpt lat="47.28808" lon="5.78132">
        <ele>203.4</ele>
        <time>2017-12-21T13:08:03Z</time>
      </trkpt>
      <trkpt lat="47.28805" lon="5.7814">
        <ele>203.4</ele>
        <time>2017-12-21T13:08:04Z</time>
      </trkpt>
      <trkpt lat="47.28803" lon="5.78147">
        <ele>203.4</ele>
        <time>2017-12-21T13:08:05Z</time>
      </trkpt>
      <trkpt lat="47.288" lon="5.78155">
        <ele>203.4</ele>
        <time>2017-12-21T13:08:06Z</time>
      </trkpt>
      <trkpt lat="47.28797" lon="5.78164">
        <ele>203.4</ele>
        <time>2017-12-21T13:08:07Z</time>
      </trkpt>
      <trkpt lat="47.28795" lon="5.78172">
        <ele>203.4</ele>
        <time>2017-12-21T13:08:08Z</time>
      </trkpt>
      <trkpt lat="47.28792" lon="5.7818">
        <ele>203.4</ele>
        <time>2017-12-21T13:08:09Z</time>
      </trkpt>
      <trkpt lat="47.2879" lon="5.78188">
        <ele>203.4</ele>
        <time>2017-12-21T13:08:10Z</time>
      </trkpt>
      <trkpt lat="47.28787" lon="5.78196">
        <ele>203.4</ele>
        <time>2017-12-21T13:08:11Z</time>
      </trkpt>
      <trkpt lat="47.28784" lon="5.78204">
        <ele>203.4</ele>
        <time>2017-12-21T13:08:12Z</time>
      </trkpt>
      <trkpt lat="47.28782" lon="5.78212">
        <ele>203.4</ele>
        <time>2017-12-21T13:08:13Z</time>
      </trkpt>
      <trkpt lat="47.28779" lon="5.7822">
        <ele>203.4</ele>
        <time>2017-12-21T13:08:14Z</time>
      </trkpt>
      <trkpt lat="47.28776" lon="5.78227">
        <ele>203.4</ele>
        <time>2017-12-21T13:08:15Z</time>
      </trkpt>
      <trkpt lat="47.28773" lon="5.78235">
        <ele>203.4</ele>
        <time>2017-12-21T13:08:16Z</time>
      </trkpt>
      <trkpt lat="47.28771" lon="5.78243">
        <ele>203.4</ele>
        <time>2017-12-21T13:08:17Z</time>
      </trkpt>
      <trkpt lat="47.28768" lon="5.78251">
        <ele>203.4</ele>
        <time>2017-12-21T13:08:18Z</time>
      </trkpt>
      <trkpt lat="47.28766" lon="5.78259">
        <ele>203.4</ele>
        <time>2017-12-21T13:08:19Z</time>
      </trkpt>
      <trkpt lat="47.28763" lon="5.78267">
        <ele>203.4</ele>
        <time>2017-12-21T13:08:20Z</time>
      </trkpt>
      <trkpt lat="47.2876" lon="5.78275">
        <ele>203.4</ele>
        <time>2017-12-21T13:08:21Z</time>
      </trkpt>
      <trkpt lat="47.28757" lon="5.78284">
        <ele>203.4</ele>
        <time>2017-12-21T13:08:22Z</time>
      </trkpt>
      <trkpt lat="47.28755" lon="5.78292">
        <ele>203.4</ele>
        <time>2017-12-21T13:08:23Z</time>
      </trkpt>
      <trkpt lat="47.28751" lon="5.78299">
        <ele>203.4</ele>
        <time>2017-12-21T13:08:24Z</time>
      </trkpt>
      <trkpt lat="47.28748" lon="5.78307">
        <ele>203.4</ele>
        <time>2017-12-21T13:08:25Z</time>
      </trkpt>
      <trkpt lat="47.28745" lon="5.78315">
        <ele>203.4</ele>
        <time>2017-12-21T13:08:26Z</time>
      </trkpt>
      <trkpt lat="47.28743" lon="5.78323">
        <ele>203.4</ele>
        <time>2017-12-21T13:08:27Z</time>
      </trkpt>
      <trkpt lat="47.2874" lon="5.78331">
        <ele>203.4</ele>
        <time>2017-12-21T13:08:28Z</time>
      </trkpt>
      <trkpt lat="47.28737" lon="5.78339">
        <ele>203.4</ele>
        <time>2017-12-21T13:08:29Z</time>
      </trkpt>
      <trkpt lat="47.28735" lon="5.78348">
        <ele>203.4</ele>
        <time>2017-12-21T13:08:30Z</time>
      </trkpt>
      <trkpt lat="47.28732" lon="5.78356">
        <ele>203.4</ele>
        <time>2017-12-21T13:08:31Z</time>
      </trkpt>
      <trkpt lat="47.28729" lon="5.78364">
        <ele>203.4</ele>
        <time>2017-12-21T13:08:32Z</time>
      </trkpt>
      <trkpt lat="47.28727" lon="5.78372">
        <ele>203.4</ele>
        <time>2017-12-21T13:08:33Z</time>
      </trkpt>
      <trkpt lat="47.28724" lon="5.78381">
        <ele>203.4</ele>
        <time>2017-12-21T13:08:34Z</time>
      </trkpt>
      <trkpt lat="47.28721" lon="5.78389">
        <ele>203.4</ele>
        <time>2017-12-21T13:08:35Z</time>
      </trkpt>
      <trkpt lat="47.28718" lon="5.78397">
        <ele>203.4</ele>
        <time>2017-12-21T13:08:36Z</time>
      </trkpt>
      <trkpt lat="47.28715" lon="5.78406">
        <ele>203.4</ele>
        <time>2017-12-21T13:08:37Z</time>
      </trkpt>
      <trkpt lat="47.28712" lon="5.78414">
        <ele>203.4</ele>
        <time>2017-12-21T13:08:38Z</time>
      </trkpt>
      <trkpt lat="47.28709" lon="5.78423">
        <ele>203.8</ele>
        <time>2017-12-21T13:08:39Z</time>
      </trkpt>
      <trkpt lat="47.28706" lon="5.78431">
        <ele>204.2</ele>
        <time>2017-12-21T13:08:40Z</time>
      </trkpt>
      <trkpt lat="47.28703" lon="5.78439">
        <ele>204.6</ele>
        <time>2017-12-21T13:08:41Z</time>
      </trkpt>
      <trkpt lat="47.287" lon="5.78448">
        <ele>205</ele>
        <time>2017-12-21T13:08:42Z</time>
      </trkpt>
      <trkpt lat="47.28698" lon="5.78456">
        <ele>205.4</ele>
        <time>2017-12-21T13:08:43Z</time>
      </trkpt>
      <trkpt lat="47.28695" lon="5.78465">
        <ele>205.4</ele>
        <time>2017-12-21T13:08:44Z</time>
      </trkpt>
      <trkpt lat="47.28693" lon="5.78472">
        <ele>205.4</ele>
        <time>2017-12-21T13:08:45Z</time>
      </trkpt>
      <trkpt lat="47.2869" lon="5.7848">
        <ele>205.4</ele>
        <time>2017-12-21T13:08:46Z</time>
      </trkpt>
      <trkpt lat="47.28687" lon="5.78488">
        <ele>205.4</ele>
        <time>2017-12-21T13:08:47Z</time>
      </trkpt>
      <trkpt lat="47.28685" lon="5.78496">
        <ele>205.4</ele>
        <time>2017-12-21T13:08:48Z</time>
      </trkpt>
      <trkpt lat="47.28682" lon="5.78504">
        <ele>205.4</ele>
        <time>2017-12-21T13:08:49Z</time>
      </trkpt>
      <trkpt lat="47.2868" lon="5.78511">
        <ele>205.4</ele>
        <time>2017-12-21T13:08:50Z</time>
      </trkpt>
      <trkpt lat="47.28677" lon="5.78518">
        <ele>205.4</ele>
        <time>2017-12-21T13:08:51Z</time>
      </trkpt>
      <trkpt lat="47.28674" lon="5.78526">
        <ele>205.4</ele>
        <time>2017-12-21T13:08:52Z</time>
      </trkpt>
      <trkpt lat="47.28672" lon="5.78533">
        <ele>205.4</ele>
        <time>2017-12-21T13:08:53Z</time>
      </trkpt>
      <trkpt lat="47.28669" lon="5.7854">
        <ele>205.4</ele>
        <time>2017-12-21T13:08:54Z</time>
      </trkpt>
      <trkpt lat="47.28667" lon="5.78547">
        <ele>205.4</ele>
        <time>2017-12-21T13:08:55Z</time>
      </trkpt>
      <trkpt lat="47.28665" lon="5.78554">
        <ele>205.4</ele>
        <time>2017-12-21T13:08:56Z</time>
      </trkpt>
      <trkpt lat="47.28662" lon="5.78561">
        <ele>205.4</ele>
        <time>2017-12-21T13:08:57Z</time>
      </trkpt>
      <trkpt lat="47.2866" lon="5.78568">
        <ele>206</ele>
        <time>2017-12-21T13:08:58Z</time>
      </trkpt>
      <trkpt lat="47.28657" lon="5.78575">
        <ele>206.4</ele>
        <time>2017-12-21T13:08:59Z</time>
      </trkpt>
      <trkpt lat="47.28655" lon="5.78582">
        <ele>206.8</ele>
        <time>2017-12-21T13:09:00Z</time>
      </trkpt>
      <trkpt lat="47.28653" lon="5.78589">
        <ele>207.2</ele>
        <time>2017-12-21T13:09:01Z</time>
      </trkpt>
      <trkpt lat="47.28651" lon="5.78596">
        <ele>207.6</ele>
        <time>2017-12-21T13:09:02Z</time>
      </trkpt>
      <trkpt lat="47.28648" lon="5.78603">
        <ele>207.6</ele>
        <time>2017-12-21T13:09:03Z</time>
      </trkpt>
      <trkpt lat="47.28646" lon="5.7861">
        <ele>207.6</ele>
        <time>2017-12-21T13:09:04Z</time>
      </trkpt>
      <trkpt lat="47.28644" lon="5.78617">
        <ele>207.6</ele>
        <time>2017-12-21T13:09:05Z</time>
      </trkpt>
      <trkpt lat="47.28642" lon="5.78623">
        <ele>207.6</ele>
        <time>2017-12-21T13:09:06Z</time>
      </trkpt>
      <trkpt lat="47.28639" lon="5.7863">
        <ele>207.6</ele>
        <time>2017-12-21T13:09:07Z</time>
      </trkpt>
      <trkpt lat="47.28637" lon="5.78636">
        <ele>207.6</ele>
        <time>2017-12-21T13:09:08Z</time>
      </trkpt>
      <trkpt lat="47.28635" lon="5.78642">
        <ele>207.6</ele>
        <time>2017-12-21T13:09:09Z</time>
      </trkpt>
      <trkpt lat="47.28633" lon="5.78648">
        <ele>207.6</ele>
        <time>2017-12-21T13:09:10Z</time>
      </trkpt>
      <trkpt lat="47.28631" lon="5.78655">
        <ele>207.6</ele>
        <time>2017-12-21T13:09:11Z</time>
      </trkpt>
      <trkpt lat="47.28628" lon="5.78662">
        <ele>208</ele>
        <time>2017-12-21T13:09:12Z</time>
      </trkpt>
      <trkpt lat="47.28626" lon="5.78669">
        <ele>208.4</ele>
        <time>2017-12-21T13:09:13Z</time>
      </trkpt>
      <trkpt lat="47.28624" lon="5.78676">
        <ele>208.8</ele>
        <time>2017-12-21T13:09:14Z</time>
      </trkpt>
      <trkpt lat="47.28622" lon="5.78682">
        <ele>209.2</ele>
        <time>2017-12-21T13:09:15Z</time>
      </trkpt>
      <trkpt lat="47.2862" lon="5.78689">
        <ele>209.6</ele>
        <time>2017-12-21T13:09:16Z</time>
      </trkpt>
      <trkpt lat="47.28618" lon="5.78695">
        <ele>209.6</ele>
        <time>2017-12-21T13:09:17Z</time>
      </trkpt>
      <trkpt lat="47.28616" lon="5.78702">
        <ele>209.6</ele>
        <time>2017-12-21T13:09:18Z</time>
      </trkpt>
      <trkpt lat="47.28613" lon="5.78708">
        <ele>209.6</ele>
        <time>2017-12-21T13:09:19Z</time>
      </trkpt>
      <trkpt lat="47.28611" lon="5.78715">
        <ele>209.6</ele>
        <time>2017-12-21T13:09:20Z</time>
      </trkpt>
      <trkpt lat="47.28609" lon="5.78721">
        <ele>209.6</ele>
        <time>2017-12-21T13:09:21Z</time>
      </trkpt>
      <trkpt lat="47.28607" lon="5.78728">
        <ele>209.6</ele>
        <time>2017-12-21T13:09:22Z</time>
      </trkpt>
      <trkpt lat="47.28604" lon="5.78734">
        <ele>209.6</ele>
        <time>2017-12-21T13:09:23Z</time>
      </trkpt>
      <trkpt lat="47.28602" lon="5.78741">
        <ele>209.6</ele>
        <time>2017-12-21T13:09:24Z</time>
      </trkpt>
      <trkpt lat="47.286" lon="5.78748">
        <ele>209.6</ele>
        <time>2017-12-21T13:09:25Z</time>
      </trkpt>
      <trkpt lat="47.28598" lon="5.78755">
        <ele>209.6</ele>
        <time>2017-12-21T13:09:26Z</time>
      </trkpt>
      <trkpt lat="47.28597" lon="5.78762">
        <ele>210</ele>
        <time>2017-12-21T13:09:27Z</time>
      </trkpt>
      <trkpt lat="47.28598" lon="5.78769">
        <ele>210.4</ele>
        <time>2017-12-21T13:09:28Z</time>
      </trkpt>
      <trkpt lat="47.28601" lon="5.78775">
        <ele>211</ele>
        <time>2017-12-21T13:09:29Z</time>
      </trkpt>
      <trkpt lat="47.28604" lon="5.7878">
        <ele>211.4</ele>
        <time>2017-12-21T13:09:30Z</time>
      </trkpt>
      <trkpt lat="47.28608" lon="5.78785">
        <ele>211.8</ele>
        <time>2017-12-21T13:09:31Z</time>
      </trkpt>
      <trkpt lat="47.28612" lon="5.78789">
        <ele>211.8</ele>
        <time>2017-12-21T13:09:32Z</time>
      </trkpt>
      <trkpt lat="47.28617" lon="5.78794">
        <ele>211.8</ele>
        <time>2017-12-21T13:09:33Z</time>
      </trkpt>
      <trkpt lat="47.28621" lon="5.78799">
        <ele>211.8</ele>
        <time>2017-12-21T13:09:34Z</time>
      </trkpt>
      <trkpt lat="47.28625" lon="5.78804">
        <ele>211.8</ele>
        <time>2017-12-21T13:09:35Z</time>
      </trkpt>
      <trkpt lat="47.2863" lon="5.78809">
        <ele>211.8</ele>
        <time>2017-12-21T13:09:36Z</time>
      </trkpt>
      <trkpt lat="47.28636" lon="5.78815">
        <ele>211.8</ele>
        <time>2017-12-21T13:09:37Z</time>
      </trkpt>
      <trkpt lat="47.28641" lon="5.78821">
        <ele>211.8</ele>
        <time>2017-12-21T13:09:38Z</time>
      </trkpt>
      <trkpt lat="47.28648" lon="5.78827">
        <ele>211.8</ele>
        <time>2017-12-21T13:09:39Z</time>
      </trkpt>
      <trkpt lat="47.28654" lon="5.78833">
        <ele>211.8</ele>
        <time>2017-12-21T13:09:40Z</time>
      </trkpt>
      <trkpt lat="47.2866" lon="5.7884">
        <ele>211.2</ele>
        <time>2017-12-21T13:09:41Z</time>
      </trkpt>
      <trkpt lat="47.28666" lon="5.78848">
        <ele>210.8</ele>
        <time>2017-12-21T13:09:42Z</time>
      </trkpt>
      <trkpt lat="47.28672" lon="5.78855">
        <ele>210.4</ele>
        <time>2017-12-21T13:09:43Z</time>
      </trkpt>
      <trkpt lat="47.28679" lon="5.78862">
        <ele>210</ele>
        <time>2017-12-21T13:09:44Z</time>
      </trkpt>
      <trkpt lat="47.28685" lon="5.78869">
        <ele>209.4</ele>
        <time>2017-12-21T13:09:45Z</time>
      </trkpt>
      <trkpt lat="47.28692" lon="5.78876">
        <ele>209.4</ele>
        <time>2017-12-21T13:09:46Z</time>
      </trkpt>
      <trkpt lat="47.28698" lon="5.78882">
        <ele>209.4</ele>
        <time>2017-12-21T13:09:47Z</time>
      </trkpt>
      <trkpt lat="47.28704" lon="5.78889">
        <ele>209.4</ele>
        <time>2017-12-21T13:09:48Z</time>
      </trkpt>
      <trkpt lat="47.2871" lon="5.78896">
        <ele>209.4</ele>
        <time>2017-12-21T13:09:49Z</time>
      </trkpt>
      <trkpt lat="47.28716" lon="5.78902">
        <ele>209.4</ele>
        <time>2017-12-21T13:09:50Z</time>
      </trkpt>
      <trkpt lat="47.28721" lon="5.78908">
        <ele>209.4</ele>
        <time>2017-12-21T13:09:51Z</time>
      </trkpt>
      <trkpt lat="47.28727" lon="5.78914">
        <ele>209.4</ele>
        <time>2017-12-21T13:09:52Z</time>
      </trkpt>
      <trkpt lat="47.28732" lon="5.7892">
        <ele>209.4</ele>
        <time>2017-12-21T13:09:53Z</time>
      </trkpt>
      <trkpt lat="47.28737" lon="5.78926">
        <ele>209.4</ele>
        <time>2017-12-21T13:09:54Z</time>
      </trkpt>
      <trkpt lat="47.28743" lon="5.78932">
        <ele>209.4</ele>
        <time>2017-12-21T13:09:55Z</time>
      </trkpt>
      <trkpt lat="47.28748" lon="5.78938">
        <ele>209.4</ele>
        <time>2017-12-21T13:09:56Z</time>
      </trkpt>
      <trkpt lat="47.28753" lon="5.78943">
        <ele>209.4</ele>
        <time>2017-12-21T13:09:57Z</time>
      </trkpt>
      <trkpt lat="47.28758" lon="5.78949">
        <ele>209.4</ele>
        <time>2017-12-21T13:09:58Z</time>
      </trkpt>
      <trkpt lat="47.28762" lon="5.78954">
        <ele>209.4</ele>
        <time>2017-12-21T13:09:59Z</time>
      </trkpt>
      <trkpt lat="47.28767" lon="5.78959">
        <ele>209.4</ele>
        <time>2017-12-21T13:10:00Z</time>
      </trkpt>
      <trkpt lat="47.28772" lon="5.78963">
        <ele>209.4</ele>
        <time>2017-12-21T13:10:01Z</time>
      </trkpt>
      <trkpt lat="47.28776" lon="5.78967">
        <ele>209.4</ele>
        <time>2017-12-21T13:10:02Z</time>
      </trkpt>
      <trkpt lat="47.2878" lon="5.78971">
        <ele>209.4</ele>
        <time>2017-12-21T13:10:03Z</time>
      </trkpt>
      <trkpt lat="47.28784" lon="5.78975">
        <ele>209.4</ele>
        <time>2017-12-21T13:10:04Z</time>
      </trkpt>
      <trkpt lat="47.28788" lon="5.7898">
        <ele>209.4</ele>
        <time>2017-12-21T13:10:05Z</time>
      </trkpt>
      <trkpt lat="47.28791" lon="5.78984">
        <ele>209.8</ele>
        <time>2017-12-21T13:10:06Z</time>
      </trkpt>
      <trkpt lat="47.28794" lon="5.7899">
        <ele>210.2</ele>
        <time>2017-12-21T13:10:07Z</time>
      </trkpt>
      <trkpt lat="47.28797" lon="5.78995">
        <ele>210.8</ele>
        <time>2017-12-21T13:10:08Z</time>
      </trkpt>
      <trkpt lat="47.28799" lon="5.79">
        <ele>211.2</ele>
        <time>2017-12-21T13:10:09Z</time>
      </trkpt>
      <trkpt lat="47.28801" lon="5.79005">
        <ele>211.6</ele>
        <time>2017-12-21T13:10:10Z</time>
      </trkpt>
      <trkpt lat="47.28803" lon="5.7901">
        <ele>211.6</ele>
        <time>2017-12-21T13:10:11Z</time>
      </trkpt>
      <trkpt lat="47.28805" lon="5.79015">
        <ele>211.6</ele>
        <time>2017-12-21T13:10:12Z</time>
      </trkpt>
      <trkpt lat="47.28806" lon="5.7902">
        <ele>211.6</ele>
        <time>2017-12-21T13:10:13Z</time>
      </trkpt>
      <trkpt lat="47.28808" lon="5.79025">
        <ele>212</ele>
        <time>2017-12-21T13:10:14Z</time>
      </trkpt>
      <trkpt lat="47.2881" lon="5.7903">
        <ele>212.4</ele>
        <time>2017-12-21T13:10:15Z</time>
      </trkpt>
      <trkpt lat="47.28812" lon="5.79035">
        <ele>212.8</ele>
        <time>2017-12-21T13:10:16Z</time>
      </trkpt>
      <trkpt lat="47.28814" lon="5.79039">
        <ele>213.2</ele>
        <time>2017-12-21T13:10:17Z</time>
      </trkpt>
      <trkpt lat="47.28815" lon="5.79044">
        <ele>213.8</ele>
        <time>2017-12-21T13:10:18Z</time>
      </trkpt>
      <trkpt lat="47.28817" lon="5.79048">
        <ele>213.8</ele>
        <time>2017-12-21T13:10:19Z</time>
      </trkpt>
      <trkpt lat="47.28819" lon="5.79053">
        <ele>213.8</ele>
        <time>2017-12-21T13:10:20Z</time>
      </trkpt>
      <trkpt lat="47.28821" lon="5.79057">
        <ele>213.8</ele>
        <time>2017-12-21T13:10:21Z</time>
      </trkpt>
      <trkpt lat="47.28823" lon="5.79062">
        <ele>214.2</ele>
        <time>2017-12-21T13:10:22Z</time>
      </trkpt>
      <trkpt lat="47.28824" lon="5.79067">
        <ele>214.6</ele>
        <time>2017-12-21T13:10:23Z</time>
      </trkpt>
      <trkpt lat="47.28826" lon="5.79071">
        <ele>215</ele>
        <time>2017-12-21T13:10:24Z</time>
      </trkpt>
      <trkpt lat="47.28827" lon="5.79076">
        <ele>215.4</ele>
        <time>2017-12-21T13:10:25Z</time>
      </trkpt>
      <trkpt lat="47.28829" lon="5.7908">
        <ele>215.8</ele>
        <time>2017-12-21T13:10:26Z</time>
      </trkpt>
      <trkpt lat="47.2883" lon="5.79085">
        <ele>215.8</ele>
        <time>2017-12-21T13:10:27Z</time>
      </trkpt>
      <trkpt lat="47.28832" lon="5.79089">
        <ele>215.8</ele>
        <time>2017-12-21T13:10:28Z</time>
      </trkpt>
      <trkpt lat="47.28834" lon="5.79094">
        <ele>216.2</ele>
        <time>2017-12-21T13:10:29Z</time>
      </trkpt>
      <trkpt lat="47.28836" lon="5.79099">
        <ele>216.6</ele>
        <time>2017-12-21T13:10:30Z</time>
      </trkpt>
      <trkpt lat="47.28838" lon="5.79103">
        <ele>217.4</ele>
        <time>2017-12-21T13:10:31Z</time>
      </trkpt>
      <trkpt lat="47.28839" lon="5.79108">
        <ele>217.8</ele>
        <time>2017-12-21T13:10:32Z</time>
      </trkpt>
      <trkpt lat="47.28841" lon="5.79112">
        <ele>217.8</ele>
        <time>2017-12-21T13:10:33Z</time>
      </trkpt>
      <trkpt lat="47.28843" lon="5.79116">
        <ele>217.8</ele>
        <time>2017-12-21T13:10:34Z</time>
      </trkpt>
      <trkpt lat="47.28844" lon="5.7912">
        <ele>217.8</ele>
        <time>2017-12-21T13:10:35Z</time>
      </trkpt>
      <trkpt lat="47.28846" lon="5.79125">
        <ele>218.2</ele>
        <time>2017-12-21T13:10:36Z</time>
      </trkpt>
      <trkpt lat="47.28847" lon="5.79129">
        <ele>218.6</ele>
        <time>2017-12-21T13:10:37Z</time>
      </trkpt>
      <trkpt lat="47.28849" lon="5.79133">
        <ele>219.2</ele>
        <time>2017-12-21T13:10:38Z</time>
      </trkpt>
      <trkpt lat="47.28851" lon="5.79137">
        <ele>219.6</ele>
        <time>2017-12-21T13:10:39Z</time>
      </trkpt>
      <trkpt lat="47.28853" lon="5.79142">
        <ele>220</ele>
        <time>2017-12-21T13:10:40Z</time>
      </trkpt>
      <trkpt lat="47.28855" lon="5.79146">
        <ele>220</ele>
        <time>2017-12-21T13:10:41Z</time>
      </trkpt>
      <trkpt lat="47.28856" lon="5.7915">
        <ele>220</ele>
        <time>2017-12-21T13:10:42Z</time>
      </trkpt>
      <trkpt lat="47.28858" lon="5.79154">
        <ele>220</ele>
        <time>2017-12-21T13:10:43Z</time>
      </trkpt>
      <trkpt lat="47.2886" lon="5.79159">
        <ele>220</ele>
        <time>2017-12-21T13:10:44Z</time>
      </trkpt>
      <trkpt lat="47.28861" lon="5.79164">
        <ele>220</ele>
        <time>2017-12-21T13:10:45Z</time>
      </trkpt>
      <trkpt lat="47.28863" lon="5.79169">
        <ele>220</ele>
        <time>2017-12-21T13:10:46Z</time>
      </trkpt>
      <trkpt lat="47.28865" lon="5.79173">
        <ele>220</ele>
        <time>2017-12-21T13:10:47Z</time>
      </trkpt>
      <trkpt lat="47.28866" lon="5.79178">
        <ele>220</ele>
        <time>2017-12-21T13:10:48Z</time>
      </trkpt>
      <trkpt lat="47.28868" lon="5.79183">
        <ele>220.4</ele>
        <time>2017-12-21T13:10:49Z</time>
      </trkpt>
      <trkpt lat="47.2887" lon="5.79188">
        <ele>220.8</ele>
        <time>2017-12-21T13:10:50Z</time>
      </trkpt>
      <trkpt lat="47.28872" lon="5.79193">
        <ele>221.2</ele>
        <time>2017-12-21T13:10:51Z</time>
      </trkpt>
      <trkpt lat="47.28873" lon="5.79198">
        <ele>221.8</ele>
        <time>2017-12-21T13:10:52Z</time>
      </trkpt>
      <trkpt lat="47.28874" lon="5.79204">
        <ele>222.2</ele>
        <time>2017-12-21T13:10:53Z</time>
      </trkpt>
      <trkpt lat="47.28875" lon="5.79209">
        <ele>222.2</ele>
        <time>2017-12-21T13:10:54Z</time>
      </trkpt>
      <trkpt lat="47.28875" lon="5.79215">
        <ele>222.2</ele>
        <time>2017-12-21T13:10:55Z</time>
      </trkpt>
      <trkpt lat="47.28876" lon="5.7922">
        <ele>222.2</ele>
        <time>2017-12-21T13:10:56Z</time>
      </trkpt>
      <trkpt lat="47.28876" lon="5.79225">
        <ele>222.2</ele>
        <time>2017-12-21T13:10:57Z</time>
      </trkpt>
      <trkpt lat="47.28876" lon="5.7923">
        <ele>222.2</ele>
        <time>2017-12-21T13:10:58Z</time>
      </trkpt>
      <trkpt lat="47.28877" lon="5.79234">
        <ele>222.2</ele>
        <time>2017-12-21T13:10:59Z</time>
      </trkpt>
      <trkpt lat="47.28877" lon="5.7924">
        <ele>222.6</ele>
        <time>2017-12-21T13:11:00Z</time>
      </trkpt>
      <trkpt lat="47.28877" lon="5.79245">
        <ele>223</ele>
        <time>2017-12-21T13:11:01Z</time>
      </trkpt>
      <trkpt lat="47.28877" lon="5.7925">
        <ele>223.4</ele>
        <time>2017-12-21T13:11:02Z</time>
      </trkpt>
      <trkpt lat="47.28876" lon="5.79255">
        <ele>223.8</ele>
        <time>2017-12-21T13:11:03Z</time>
      </trkpt>
      <trkpt lat="47.28876" lon="5.7926">
        <ele>224.2</ele>
        <time>2017-12-21T13:11:04Z</time>
      </trkpt>
      <trkpt lat="47.28876" lon="5.79265">
        <ele>224.2</ele>
        <time>2017-12-21T13:11:05Z</time>
      </trkpt>
      <trkpt lat="47.28877" lon="5.7927">
        <ele>224.2</ele>
        <time>2017-12-21T13:11:06Z</time>
      </trkpt>
      <trkpt lat="47.28876" lon="5.79275">
        <ele>224.2</ele>
        <time>2017-12-21T13:11:07Z</time>
      </trkpt>
      <trkpt lat="47.28876" lon="5.79281">
        <ele>224.2</ele>
        <time>2017-12-21T13:11:08Z</time>
      </trkpt>
      <trkpt lat="47.28876" lon="5.79285">
        <ele>224.2</ele>
        <time>2017-12-21T13:11:09Z</time>
      </trkpt>
      <trkpt lat="47.28876" lon="5.7929">
        <ele>224.6</ele>
        <time>2017-12-21T13:11:10Z</time>
      </trkpt>
      <trkpt lat="47.28877" lon="5.79295">
        <ele>225</ele>
        <time>2017-12-21T13:11:11Z</time>
      </trkpt>
      <trkpt lat="47.28877" lon="5.79301">
        <ele>225.4</ele>
        <time>2017-12-21T13:11:12Z</time>
      </trkpt>
      <trkpt lat="47.28877" lon="5.79306">
        <ele>225.8</ele>
        <time>2017-12-21T13:11:13Z</time>
      </trkpt>
      <trkpt lat="47.28877" lon="5.79312">
        <ele>226.2</ele>
        <time>2017-12-21T13:11:14Z</time>
      </trkpt>
      <trkpt lat="47.28877" lon="5.79317">
        <ele>226.2</ele>
        <time>2017-12-21T13:11:15Z</time>
      </trkpt>
      <trkpt lat="47.28877" lon="5.79323">
        <ele>226.2</ele>
        <time>2017-12-21T13:11:16Z</time>
      </trkpt>
      <trkpt lat="47.28877" lon="5.79328">
        <ele>226.2</ele>
        <time>2017-12-21T13:11:17Z</time>
      </trkpt>
      <trkpt lat="47.28877" lon="5.79333">
        <ele>226.2</ele>
        <time>2017-12-21T13:11:18Z</time>
      </trkpt>
      <trkpt lat="47.28878" lon="5.79339">
        <ele>226.2</ele>
        <time>2017-12-21T13:11:19Z</time>
      </trkpt>
      <trkpt lat="47.28878" lon="5.79343">
        <ele>226.2</ele>
        <time>2017-12-21T13:11:20Z</time>
      </trkpt>
      <trkpt lat="47.28878" lon="5.79349">
        <ele>227.2</ele>
        <time>2017-12-21T13:11:21Z</time>
      </trkpt>
      <trkpt lat="47.28878" lon="5.79354">
        <ele>227.6</ele>
        <time>2017-12-21T13:11:22Z</time>
      </trkpt>
      <trkpt lat="47.28878" lon="5.79359">
        <ele>228</ele>
        <time>2017-12-21T13:11:23Z</time>
      </trkpt>
      <trkpt lat="47.28878" lon="5.79365">
        <ele>228.6</ele>
        <time>2017-12-21T13:11:24Z</time>
      </trkpt>
      <trkpt lat="47.28878" lon="5.7937">
        <ele>228.6</ele>
        <time>2017-12-21T13:11:25Z</time>
      </trkpt>
      <trkpt lat="47.28878" lon="5.79375">
        <ele>228.6</ele>
        <time>2017-12-21T13:11:26Z</time>
      </trkpt>
      <trkpt lat="47.28879" lon="5.7938">
        <ele>228.6</ele>
        <time>2017-12-21T13:11:27Z</time>
      </trkpt>
      <trkpt lat="47.28879" lon="5.79385">
        <ele>228.6</ele>
        <time>2017-12-21T13:11:28Z</time>
      </trkpt>
      <trkpt lat="47.28878" lon="5.79391">
        <ele>228.6</ele>
        <time>2017-12-21T13:11:29Z</time>
      </trkpt>
      <trkpt lat="47.28879" lon="5.79397">
        <ele>228.6</ele>
        <time>2017-12-21T13:11:30Z</time>
      </trkpt>
      <trkpt lat="47.28879" lon="5.79403">
        <ele>228.6</ele>
        <time>2017-12-21T13:11:31Z</time>
      </trkpt>
      <trkpt lat="47.28879" lon="5.79409">
        <ele>228.6</ele>
        <time>2017-12-21T13:11:32Z</time>
      </trkpt>
      <trkpt lat="47.28879" lon="5.79416">
        <ele>228.6</ele>
        <time>2017-12-21T13:11:33Z</time>
      </trkpt>
      <trkpt lat="47.28879" lon="5.79422">
        <ele>228.6</ele>
        <time>2017-12-21T13:11:34Z</time>
      </trkpt>
      <trkpt lat="47.28879" lon="5.79429">
        <ele>228.6</ele>
        <time>2017-12-21T13:11:35Z</time>
      </trkpt>
      <trkpt lat="47.28878" lon="5.79436">
        <ele>228.6</ele>
        <time>2017-12-21T13:11:36Z</time>
      </trkpt>
      <trkpt lat="47.28878" lon="5.79444">
        <ele>228.6</ele>
        <time>2017-12-21T13:11:37Z</time>
      </trkpt>
      <trkpt lat="47.28877" lon="5.79452">
        <ele>228.6</ele>
        <time>2017-12-21T13:11:38Z</time>
      </trkpt>
      <trkpt lat="47.28875" lon="5.79459">
        <ele>228.6</ele>
        <time>2017-12-21T13:11:39Z</time>
      </trkpt>
      <trkpt lat="47.28874" lon="5.79466">
        <ele>228.6</ele>
        <time>2017-12-21T13:11:40Z</time>
      </trkpt>
      <trkpt lat="47.28872" lon="5.79472">
        <ele>228.6</ele>
        <time>2017-12-21T13:11:41Z</time>
      </trkpt>
      <trkpt lat="47.2887" lon="5.79478">
        <ele>228.6</ele>
        <time>2017-12-21T13:11:42Z</time>
      </trkpt>
      <trkpt lat="47.28869" lon="5.79484">
        <ele>228.6</ele>
        <time>2017-12-21T13:11:43Z</time>
      </trkpt>
      <trkpt lat="47.28867" lon="5.7949">
        <ele>228.6</ele>
        <time>2017-12-21T13:11:44Z</time>
      </trkpt>
      <trkpt lat="47.28866" lon="5.79495">
        <ele>228.6</ele>
        <time>2017-12-21T13:11:45Z</time>
      </trkpt>
      <trkpt lat="47.28864" lon="5.79499">
        <ele>228.6</ele>
        <time>2017-12-21T13:11:46Z</time>
      </trkpt>
      <trkpt lat="47.28863" lon="5.79504">
        <ele>228.6</ele>
        <time>2017-12-21T13:11:47Z</time>
      </trkpt>
      <trkpt lat="47.28863" lon="5.79508">
        <ele>228.6</ele>
        <time>2017-12-21T13:11:48Z</time>
      </trkpt>
      <trkpt lat="47.28862" lon="5.79512">
        <ele>228.6</ele>
        <time>2017-12-21T13:11:49Z</time>
      </trkpt>
      <trkpt lat="47.28861" lon="5.79517">
        <ele>228.6</ele>
        <time>2017-12-21T13:11:50Z</time>
      </trkpt>
      <trkpt lat="47.28859" lon="5.79522">
        <ele>228.6</ele>
        <time>2017-12-21T13:11:51Z</time>
      </trkpt>
      <trkpt lat="47.28858" lon="5.79527">
        <ele>228.6</ele>
        <time>2017-12-21T13:11:52Z</time>
      </trkpt>
      <trkpt lat="47.28856" lon="5.79533">
        <ele>228.6</ele>
        <time>2017-12-21T13:11:53Z</time>
      </trkpt>
      <trkpt lat="47.28855" lon="5.79538">
        <ele>228.6</ele>
        <time>2017-12-21T13:11:54Z</time>
      </trkpt>
      <trkpt lat="47.28853" lon="5.79543">
        <ele>228.6</ele>
        <time>2017-12-21T13:11:55Z</time>
      </trkpt>
      <trkpt lat="47.28852" lon="5.79548">
        <ele>228.6</ele>
        <time>2017-12-21T13:11:56Z</time>
      </trkpt>
      <trkpt lat="47.2885" lon="5.79553">
        <ele>229</ele>
        <time>2017-12-21T13:11:57Z</time>
      </trkpt>
      <trkpt lat="47.28849" lon="5.79559">
        <ele>229.4</ele>
        <time>2017-12-21T13:11:58Z</time>
      </trkpt>
      <trkpt lat="47.28848" lon="5.79564">
        <ele>229.8</ele>
        <time>2017-12-21T13:11:59Z</time>
      </trkpt>
      <trkpt lat="47.28847" lon="5.7957">
        <ele>230.2</ele>
        <time>2017-12-21T13:12:00Z</time>
      </trkpt>
      <trkpt lat="47.28845" lon="5.79575">
        <ele>230.6</ele>
        <time>2017-12-21T13:12:01Z</time>
      </trkpt>
      <trkpt lat="47.28844" lon="5.7958">
        <ele>230.6</ele>
        <time>2017-12-21T13:12:02Z</time>
      </trkpt>
      <trkpt lat="47.28843" lon="5.79585">
        <ele>230.6</ele>
        <time>2017-12-21T13:12:03Z</time>
      </trkpt>
      <trkpt lat="47.28841" lon="5.7959">
        <ele>230.6</ele>
        <time>2017-12-21T13:12:04Z</time>
      </trkpt>
      <trkpt lat="47.2884" lon="5.79595">
        <ele>230.6</ele>
        <time>2017-12-21T13:12:05Z</time>
      </trkpt>
      <trkpt lat="47.28839" lon="5.796">
        <ele>230.6</ele>
        <time>2017-12-21T13:12:06Z</time>
      </trkpt>
      <trkpt lat="47.28838" lon="5.79604">
        <ele>230.6</ele>
        <time>2017-12-21T13:12:07Z</time>
      </trkpt>
      <trkpt lat="47.28836" lon="5.79609">
        <ele>230.6</ele>
        <time>2017-12-21T13:12:08Z</time>
      </trkpt>
      <trkpt lat="47.28835" lon="5.79613">
        <ele>230.6</ele>
        <time>2017-12-21T13:12:09Z</time>
      </trkpt>
      <trkpt lat="47.28833" lon="5.79618">
        <ele>230.6</ele>
        <time>2017-12-21T13:12:10Z</time>
      </trkpt>
      <trkpt lat="47.28833" lon="5.79623">
        <ele>230.6</ele>
        <time>2017-12-21T13:12:11Z</time>
      </trkpt>
      <trkpt lat="47.28832" lon="5.79628">
        <ele>230.6</ele>
        <time>2017-12-21T13:12:12Z</time>
      </trkpt>
      <trkpt lat="47.28831" lon="5.79633">
        <ele>230.6</ele>
        <time>2017-12-21T13:12:13Z</time>
      </trkpt>
      <trkpt lat="47.28829" lon="5.79638">
        <ele>230.6</ele>
        <time>2017-12-21T13:12:14Z</time>
      </trkpt>
      <trkpt lat="47.28828" lon="5.79642">
        <ele>230.6</ele>
        <time>2017-12-21T13:12:15Z</time>
      </trkpt>
      <trkpt lat="47.28827" lon="5.79647">
        <ele>230.6</ele>
        <time>2017-12-21T13:12:16Z</time>
      </trkpt>
      <trkpt lat="47.28826" lon="5.79653">
        <ele>230.6</ele>
        <time>2017-12-21T13:12:17Z</time>
      </trkpt>
      <trkpt lat="47.28823" lon="5.79659">
        <ele>230.6</ele>
        <time>2017-12-21T13:12:18Z</time>
      </trkpt>
      <trkpt lat="47.28821" lon="5.79665">
        <ele>230.6</ele>
        <time>2017-12-21T13:12:19Z</time>
      </trkpt>
      <trkpt lat="47.28819" lon="5.79671">
        <ele>230.6</ele>
        <time>2017-12-21T13:12:20Z</time>
      </trkpt>
      <trkpt lat="47.28817" lon="5.79679">
        <ele>230.6</ele>
        <time>2017-12-21T13:12:21Z</time>
      </trkpt>
      <trkpt lat="47.28815" lon="5.79687">
        <ele>230.6</ele>
        <time>2017-12-21T13:12:22Z</time>
      </trkpt>
      <trkpt lat="47.28812" lon="5.79695">
        <ele>230.2</ele>
        <time>2017-12-21T13:12:23Z</time>
      </trkpt>
      <trkpt lat="47.2881" lon="5.79703">
        <ele>229.6</ele>
        <time>2017-12-21T13:12:24Z</time>
      </trkpt>
      <trkpt lat="47.28807" lon="5.79712">
        <ele>229.2</ele>
        <time>2017-12-21T13:12:25Z</time>
      </trkpt>
      <trkpt lat="47.28804" lon="5.79721">
        <ele>228.8</ele>
        <time>2017-12-21T13:12:26Z</time>
      </trkpt>
      <trkpt lat="47.28801" lon="5.7973">
        <ele>228.4</ele>
        <time>2017-12-21T13:12:27Z</time>
      </trkpt>
      <trkpt lat="47.28798" lon="5.79739">
        <ele>228.4</ele>
        <time>2017-12-21T13:12:28Z</time>
      </trkpt>
      <trkpt lat="47.28795" lon="5.79748">
        <ele>228.4</ele>
        <time>2017-12-21T13:12:29Z</time>
      </trkpt>
      <trkpt lat="47.28793" lon="5.79757">
        <ele>228</ele>
        <time>2017-12-21T13:12:30Z</time>
      </trkpt>
      <trkpt lat="47.28791" lon="5.79766">
        <ele>227.6</ele>
        <time>2017-12-21T13:12:31Z</time>
      </trkpt>
      <trkpt lat="47.28789" lon="5.79774">
        <ele>227.2</ele>
        <time>2017-12-21T13:12:32Z</time>
      </trkpt>
      <trkpt lat="47.28788" lon="5.79781">
        <ele>226.6</ele>
        <time>2017-12-21T13:12:33Z</time>
      </trkpt>
      <trkpt lat="47.28788" lon="5.7979">
        <ele>226.2</ele>
        <time>2017-12-21T13:12:34Z</time>
      </trkpt>
      <trkpt lat="47.28792" lon="5.79796">
        <ele>226.2</ele>
        <time>2017-12-21T13:12:35Z</time>
      </trkpt>
      <trkpt lat="47.28795" lon="5.79802">
        <ele>226.2</ele>
        <time>2017-12-21T13:12:36Z</time>
      </trkpt>
      <trkpt lat="47.28797" lon="5.79808">
        <ele>226.2</ele>
        <time>2017-12-21T13:12:37Z</time>
      </trkpt>
      <trkpt lat="47.28799" lon="5.79815">
        <ele>226.2</ele>
        <time>2017-12-21T13:12:38Z</time>
      </trkpt>
      <trkpt lat="47.288" lon="5.79821">
        <ele>226.2</ele>
        <time>2017-12-21T13:12:39Z</time>
      </trkpt>
      <trkpt lat="47.28801" lon="5.79828">
        <ele>226.2</ele>
        <time>2017-12-21T13:12:40Z</time>
      </trkpt>
      <trkpt lat="47.28802" lon="5.79834">
        <ele>226.2</ele>
        <time>2017-12-21T13:12:41Z</time>
      </trkpt>
      <trkpt lat="47.28801" lon="5.79841">
        <ele>226.2</ele>
        <time>2017-12-21T13:12:42Z</time>
      </trkpt>
      <trkpt lat="47.28799" lon="5.79848">
        <ele>226.2</ele>
        <time>2017-12-21T13:12:43Z</time>
      </trkpt>
      <trkpt lat="47.28797" lon="5.79855">
        <ele>226.2</ele>
        <time>2017-12-21T13:12:44Z</time>
      </trkpt>
      <trkpt lat="47.28794" lon="5.79861">
        <ele>226.2</ele>
        <time>2017-12-21T13:12:45Z</time>
      </trkpt>
      <trkpt lat="47.2879" lon="5.79867">
        <ele>226.2</ele>
        <time>2017-12-21T13:12:46Z</time>
      </trkpt>
      <trkpt lat="47.28786" lon="5.79872">
        <ele>226.2</ele>
        <time>2017-12-21T13:12:47Z</time>
      </trkpt>
      <trkpt lat="47.28781" lon="5.79875">
        <ele>226.2</ele>
        <time>2017-12-21T13:12:48Z</time>
      </trkpt>
      <trkpt lat="47.28776" lon="5.79879">
        <ele>226.2</ele>
        <time>2017-12-21T13:12:49Z</time>
      </trkpt>
      <trkpt lat="47.28772" lon="5.79882">
        <ele>226.2</ele>
        <time>2017-12-21T13:12:50Z</time>
      </trkpt>
      <trkpt lat="47.28767" lon="5.79886">
        <ele>226.2</ele>
        <time>2017-12-21T13:12:51Z</time>
      </trkpt>
      <trkpt lat="47.28761" lon="5.79889">
        <ele>226.2</ele>
        <time>2017-12-21T13:12:52Z</time>
      </trkpt>
      <trkpt lat="47.28756" lon="5.79892">
        <ele>226.2</ele>
        <time>2017-12-21T13:12:53Z</time>
      </trkpt>
      <trkpt lat="47.28753" lon="5.79895">
        <ele>226.2</ele>
        <time>2017-12-21T13:12:54Z</time>
      </trkpt>
      <trkpt lat="47.28749" lon="5.79898">
        <ele>226.2</ele>
        <time>2017-12-21T13:12:55Z</time>
      </trkpt>
      <trkpt lat="47.28745" lon="5.79901">
        <ele>226.2</ele>
        <time>2017-12-21T13:12:56Z</time>
      </trkpt>
      <trkpt lat="47.28741" lon="5.79903">
        <ele>226.2</ele>
        <time>2017-12-21T13:12:57Z</time>
      </trkpt>
      <trkpt lat="47.28737" lon="5.79907">
        <ele>226.2</ele>
        <time>2017-12-21T13:12:58Z</time>
      </trkpt>
      <trkpt lat="47.28733" lon="5.7991">
        <ele>226.2</ele>
        <time>2017-12-21T13:12:59Z</time>
      </trkpt>
      <trkpt lat="47.28729" lon="5.79912">
        <ele>226.2</ele>
        <time>2017-12-21T13:13:00Z</time>
      </trkpt>
      <trkpt lat="47.28726" lon="5.79914">
        <ele>226.2</ele>
        <time>2017-12-21T13:13:01Z</time>
      </trkpt>
      <trkpt lat="47.28722" lon="5.79917">
        <ele>226.2</ele>
        <time>2017-12-21T13:13:02Z</time>
      </trkpt>
      <trkpt lat="47.28719" lon="5.79918">
        <ele>226.2</ele>
        <time>2017-12-21T13:13:03Z</time>
      </trkpt>
      <trkpt lat="47.28715" lon="5.79919">
        <ele>226.2</ele>
        <time>2017-12-21T13:13:04Z</time>
      </trkpt>
      <trkpt lat="47.28712" lon="5.7992">
        <ele>226.2</ele>
        <time>2017-12-21T13:13:05Z</time>
      </trkpt>
      <trkpt lat="47.28708" lon="5.79921">
        <ele>226.2</ele>
        <time>2017-12-21T13:13:06Z</time>
      </trkpt>
      <trkpt lat="47.28704" lon="5.79922">
        <ele>226.2</ele>
        <time>2017-12-21T13:13:07Z</time>
      </trkpt>
      <trkpt lat="47.287" lon="5.79925">
        <ele>226.2</ele>
        <time>2017-12-21T13:13:08Z</time>
      </trkpt>
      <trkpt lat="47.28697" lon="5.79928">
        <ele>226.2</ele>
        <time>2017-12-21T13:13:09Z</time>
      </trkpt>
      <trkpt lat="47.28692" lon="5.79933">
        <ele>226.2</ele>
        <time>2017-12-21T13:13:10Z</time>
      </trkpt>
      <trkpt lat="47.28687" lon="5.79937">
        <ele>226.2</ele>
        <time>2017-12-21T13:13:11Z</time>
      </trkpt>
      <trkpt lat="47.28681" lon="5.79941">
        <ele>225.8</ele>
        <time>2017-12-21T13:13:12Z</time>
      </trkpt>
      <trkpt lat="47.28674" lon="5.79947">
        <ele>225.2</ele>
        <time>2017-12-21T13:13:13Z</time>
      </trkpt>
      <trkpt lat="47.28667" lon="5.79954">
        <ele>224.6</ele>
        <time>2017-12-21T13:13:14Z</time>
      </trkpt>
      <trkpt lat="47.28659" lon="5.79965">
        <ele>224</ele>
        <time>2017-12-21T13:13:15Z</time>
      </trkpt>
      <trkpt lat="47.28653" lon="5.79978">
        <ele>223.4</ele>
        <time>2017-12-21T13:13:16Z</time>
      </trkpt>
      <trkpt lat="47.2865" lon="5.79992">
        <ele>222.6</ele>
        <time>2017-12-21T13:13:17Z</time>
      </trkpt>
      <trkpt lat="47.28646" lon="5.80008">
        <ele>221.8</ele>
        <time>2017-12-21T13:13:18Z</time>
      </trkpt>
      <trkpt lat="47.28644" lon="5.80024">
        <ele>221</ele>
        <time>2017-12-21T13:13:19Z</time>
      </trkpt>
      <trkpt lat="47.28641" lon="5.8004">
        <ele>220</ele>
        <time>2017-12-21T13:13:20Z</time>
      </trkpt>
      <trkpt lat="47.28636" lon="5.80054">
        <ele>219.4</ele>
        <time>2017-12-21T13:13:21Z</time>
      </trkpt>
      <trkpt lat="47.2863" lon="5.8007">
        <ele>218.6</ele>
        <time>2017-12-21T13:13:22Z</time>
      </trkpt>
      <trkpt lat="47.28625" lon="5.80086">
        <ele>217</ele>
        <time>2017-12-21T13:13:23Z</time>
      </trkpt>
      <trkpt lat="47.2862" lon="5.80101">
        <ele>216.2</ele>
        <time>2017-12-21T13:13:24Z</time>
      </trkpt>
      <trkpt lat="47.28616" lon="5.80118">
        <ele>215.4</ele>
        <time>2017-12-21T13:13:25Z</time>
      </trkpt>
      <trkpt lat="47.28611" lon="5.80134">
        <ele>214.6</ele>
        <time>2017-12-21T13:13:26Z</time>
      </trkpt>
      <trkpt lat="47.28607" lon="5.8015">
        <ele>213.8</ele>
        <time>2017-12-21T13:13:27Z</time>
      </trkpt>
      <trkpt lat="47.28602" lon="5.80166">
        <ele>213.2</ele>
        <time>2017-12-21T13:13:28Z</time>
      </trkpt>
      <trkpt lat="47.28598" lon="5.80183">
        <ele>212.4</ele>
        <time>2017-12-21T13:13:29Z</time>
      </trkpt>
      <trkpt lat="47.28593" lon="5.80199">
        <ele>211.6</ele>
        <time>2017-12-21T13:13:30Z</time>
      </trkpt>
      <trkpt lat="47.28587" lon="5.80214">
        <ele>210.8</ele>
        <time>2017-12-21T13:13:31Z</time>
      </trkpt>
      <trkpt lat="47.28582" lon="5.80229">
        <ele>210.2</ele>
        <time>2017-12-21T13:13:32Z</time>
      </trkpt>
      <trkpt lat="47.28576" lon="5.80243">
        <ele>209.6</ele>
        <time>2017-12-21T13:13:33Z</time>
      </trkpt>
      <trkpt lat="47.2857" lon="5.80257">
        <ele>209</ele>
        <time>2017-12-21T13:13:34Z</time>
      </trkpt>
      <trkpt lat="47.28565" lon="5.80271">
        <ele>208.4</ele>
        <time>2017-12-21T13:13:35Z</time>
      </trkpt>
      <trkpt lat="47.2856" lon="5.80285">
        <ele>207.8</ele>
        <time>2017-12-21T13:13:36Z</time>
      </trkpt>
      <trkpt lat="47.28556" lon="5.80301">
        <ele>207.2</ele>
        <time>2017-12-21T13:13:37Z</time>
      </trkpt>
      <trkpt lat="47.28554" lon="5.80317">
        <ele>207.2</ele>
        <time>2017-12-21T13:13:38Z</time>
      </trkpt>
      <trkpt lat="47.28553" lon="5.80332">
        <ele>207.2</ele>
        <time>2017-12-21T13:13:39Z</time>
      </trkpt>
      <trkpt lat="47.28553" lon="5.80347">
        <ele>207.2</ele>
        <time>2017-12-21T13:13:40Z</time>
      </trkpt>
      <trkpt lat="47.28554" lon="5.80362">
        <ele>207.2</ele>
        <time>2017-12-21T13:13:41Z</time>
      </trkpt>
      <trkpt lat="47.28556" lon="5.80376">
        <ele>207.2</ele>
        <time>2017-12-21T13:13:42Z</time>
      </trkpt>
      <trkpt lat="47.28559" lon="5.8039">
        <ele>206.8</ele>
        <time>2017-12-21T13:13:43Z</time>
      </trkpt>
      <trkpt lat="47.28562" lon="5.80403">
        <ele>206.4</ele>
        <time>2017-12-21T13:13:44Z</time>
      </trkpt>
      <trkpt lat="47.28566" lon="5.80416">
        <ele>206</ele>
        <time>2017-12-21T13:13:45Z</time>
      </trkpt>
      <trkpt lat="47.2857" lon="5.80429">
        <ele>205.6</ele>
        <time>2017-12-21T13:13:46Z</time>
      </trkpt>
      <trkpt lat="47.28573" lon="5.80442">
        <ele>205.2</ele>
        <time>2017-12-21T13:13:47Z</time>
      </trkpt>
      <trkpt lat="47.28577" lon="5.80454">
        <ele>205.2</ele>
        <time>2017-12-21T13:13:48Z</time>
      </trkpt>
      <trkpt lat="47.2858" lon="5.80467">
        <ele>205.2</ele>
        <time>2017-12-21T13:13:49Z</time>
      </trkpt>
      <trkpt lat="47.28583" lon="5.8048">
        <ele>205.2</ele>
        <time>2017-12-21T13:13:50Z</time>
      </trkpt>
      <trkpt lat="47.28585" lon="5.80493">
        <ele>205.2</ele>
        <time>2017-12-21T13:13:51Z</time>
      </trkpt>
      <trkpt lat="47.28587" lon="5.80506">
        <ele>205.2</ele>
        <time>2017-12-21T13:13:52Z</time>
      </trkpt>
      <trkpt lat="47.28588" lon="5.80519">
        <ele>205.2</ele>
        <time>2017-12-21T13:13:53Z</time>
      </trkpt>
      <trkpt lat="47.28589" lon="5.80531">
        <ele>204.8</ele>
        <time>2017-12-21T13:13:54Z</time>
      </trkpt>
      <trkpt lat="47.2859" lon="5.80543">
        <ele>204.4</ele>
        <time>2017-12-21T13:13:55Z</time>
      </trkpt>
      <trkpt lat="47.28589" lon="5.80555">
        <ele>204</ele>
        <time>2017-12-21T13:13:56Z</time>
      </trkpt>
      <trkpt lat="47.28589" lon="5.80567">
        <ele>203.6</ele>
        <time>2017-12-21T13:13:57Z</time>
      </trkpt>
      <trkpt lat="47.28589" lon="5.80579">
        <ele>203.2</ele>
        <time>2017-12-21T13:13:58Z</time>
      </trkpt>
      <trkpt lat="47.28588" lon="5.80591">
        <ele>203.2</ele>
        <time>2017-12-21T13:13:59Z</time>
      </trkpt>
      <trkpt lat="47.28587" lon="5.80603">
        <ele>203.2</ele>
        <time>2017-12-21T13:14:00Z</time>
      </trkpt>
      <trkpt lat="47.28588" lon="5.80615">
        <ele>203.2</ele>
        <time>2017-12-21T13:14:01Z</time>
      </trkpt>
      <trkpt lat="47.28589" lon="5.80627">
        <ele>203.2</ele>
        <time>2017-12-21T13:14:02Z</time>
      </trkpt>
      <trkpt lat="47.28591" lon="5.80639">
        <ele>203.2</ele>
        <time>2017-12-21T13:14:03Z</time>
      </trkpt>
      <trkpt lat="47.28593" lon="5.8065">
        <ele>203.2</ele>
        <time>2017-12-21T13:14:04Z</time>
      </trkpt>
      <trkpt lat="47.28596" lon="5.8066">
        <ele>203.2</ele>
        <time>2017-12-21T13:14:05Z</time>
      </trkpt>
      <trkpt lat="47.28599" lon="5.8067">
        <ele>203.2</ele>
        <time>2017-12-21T13:14:06Z</time>
      </trkpt>
      <trkpt lat="47.28603" lon="5.80678">
        <ele>203.2</ele>
        <time>2017-12-21T13:14:07Z</time>
      </trkpt>
      <trkpt lat="47.28608" lon="5.80688">
        <ele>203.2</ele>
        <time>2017-12-21T13:14:08Z</time>
      </trkpt>
      <trkpt lat="47.28612" lon="5.80697">
        <ele>203.2</ele>
        <time>2017-12-21T13:14:09Z</time>
      </trkpt>
      <trkpt lat="47.28617" lon="5.80706">
        <ele>203.2</ele>
        <time>2017-12-21T13:14:10Z</time>
      </trkpt>
      <trkpt lat="47.28623" lon="5.80713">
        <ele>203.2</ele>
        <time>2017-12-21T13:14:11Z</time>
      </trkpt>
      <trkpt lat="47.28629" lon="5.8072">
        <ele>203.2</ele>
        <time>2017-12-21T13:14:12Z</time>
      </trkpt>
      <trkpt lat="47.28635" lon="5.80727">
        <ele>203.2</ele>
        <time>2017-12-21T13:14:13Z</time>
      </trkpt>
      <trkpt lat="47.28641" lon="5.80734">
        <ele>203.2</ele>
        <time>2017-12-21T13:14:14Z</time>
      </trkpt>
      <trkpt lat="47.28647" lon="5.80741">
        <ele>203.2</ele>
        <time>2017-12-21T13:14:15Z</time>
      </trkpt>
      <trkpt lat="47.28653" lon="5.80748">
        <ele>203.2</ele>
        <time>2017-12-21T13:14:16Z</time>
      </trkpt>
      <trkpt lat="47.28659" lon="5.80755">
        <ele>203.2</ele>
        <time>2017-12-21T13:14:17Z</time>
      </trkpt>
      <trkpt lat="47.28665" lon="5.80763">
        <ele>203.2</ele>
        <time>2017-12-21T13:14:18Z</time>
      </trkpt>
      <trkpt lat="47.2867" lon="5.80772">
        <ele>203.2</ele>
        <time>2017-12-21T13:14:19Z</time>
      </trkpt>
      <trkpt lat="47.28674" lon="5.80781">
        <ele>203.2</ele>
        <time>2017-12-21T13:14:20Z</time>
      </trkpt>
      <trkpt lat="47.28678" lon="5.80791">
        <ele>203.2</ele>
        <time>2017-12-21T13:14:21Z</time>
      </trkpt>
      <trkpt lat="47.28681" lon="5.80801">
        <ele>203.2</ele>
        <time>2017-12-21T13:14:22Z</time>
      </trkpt>
      <trkpt lat="47.28684" lon="5.80812">
        <ele>203.2</ele>
        <time>2017-12-21T13:14:23Z</time>
      </trkpt>
      <trkpt lat="47.28688" lon="5.80822">
        <ele>203.2</ele>
        <time>2017-12-21T13:14:24Z</time>
      </trkpt>
      <trkpt lat="47.28692" lon="5.80831">
        <ele>203.2</ele>
        <time>2017-12-21T13:14:25Z</time>
      </trkpt>
      <trkpt lat="47.28696" lon="5.80841">
        <ele>203.2</ele>
        <time>2017-12-21T13:14:26Z</time>
      </trkpt>
      <trkpt lat="47.287" lon="5.8085">
        <ele>203.2</ele>
        <time>2017-12-21T13:14:27Z</time>
      </trkpt>
      <trkpt lat="47.28704" lon="5.80858">
        <ele>203.2</ele>
        <time>2017-12-21T13:14:28Z</time>
      </trkpt>
      <trkpt lat="47.28708" lon="5.80867">
        <ele>203.2</ele>
        <time>2017-12-21T13:14:29Z</time>
      </trkpt>
      <trkpt lat="47.28712" lon="5.80877">
        <ele>203.2</ele>
        <time>2017-12-21T13:14:30Z</time>
      </trkpt>
      <trkpt lat="47.28716" lon="5.80886">
        <ele>203.2</ele>
        <time>2017-12-21T13:14:31Z</time>
      </trkpt>
      <trkpt lat="47.2872" lon="5.80895">
        <ele>203.2</ele>
        <time>2017-12-21T13:14:32Z</time>
      </trkpt>
      <trkpt lat="47.28724" lon="5.80904">
        <ele>203.2</ele>
        <time>2017-12-21T13:14:33Z</time>
      </trkpt>
      <trkpt lat="47.28727" lon="5.80914">
        <ele>203.2</ele>
        <time>2017-12-21T13:14:34Z</time>
      </trkpt>
      <trkpt lat="47.28731" lon="5.80923">
        <ele>203.2</ele>
        <time>2017-12-21T13:14:35Z</time>
      </trkpt>
      <trkpt lat="47.28734" lon="5.80933">
        <ele>203.2</ele>
        <time>2017-12-21T13:14:36Z</time>
      </trkpt>
      <trkpt lat="47.28738" lon="5.80943">
        <ele>203.2</ele>
        <time>2017-12-21T13:14:37Z</time>
      </trkpt>
      <trkpt lat="47.28742" lon="5.80952">
        <ele>203.2</ele>
        <time>2017-12-21T13:14:38Z</time>
      </trkpt>
      <trkpt lat="47.28745" lon="5.80961">
        <ele>203.2</ele>
        <time>2017-12-21T13:14:39Z</time>
      </trkpt>
      <trkpt lat="47.28749" lon="5.80971">
        <ele>203.2</ele>
        <time>2017-12-21T13:14:40Z</time>
      </trkpt>
      <trkpt lat="47.28752" lon="5.8098">
        <ele>203.2</ele>
        <time>2017-12-21T13:14:41Z</time>
      </trkpt>
      <trkpt lat="47.28756" lon="5.80989">
        <ele>203.2</ele>
        <time>2017-12-21T13:14:42Z</time>
      </trkpt>
      <trkpt lat="47.28759" lon="5.80998">
        <ele>203.2</ele>
        <time>2017-12-21T13:14:43Z</time>
      </trkpt>
      <trkpt lat="47.28763" lon="5.81007">
        <ele>203.2</ele>
        <time>2017-12-21T13:14:44Z</time>
      </trkpt>
      <trkpt lat="47.28767" lon="5.81017">
        <ele>203.2</ele>
        <time>2017-12-21T13:14:45Z</time>
      </trkpt>
      <trkpt lat="47.2877" lon="5.81026">
        <ele>203.2</ele>
        <time>2017-12-21T13:14:46Z</time>
      </trkpt>
      <trkpt lat="47.28774" lon="5.81035">
        <ele>203.2</ele>
        <time>2017-12-21T13:14:47Z</time>
      </trkpt>
      <trkpt lat="47.28777" lon="5.81044">
        <ele>203.2</ele>
        <time>2017-12-21T13:14:48Z</time>
      </trkpt>
      <trkpt lat="47.28781" lon="5.81053">
        <ele>203.2</ele>
        <time>2017-12-21T13:14:49Z</time>
      </trkpt>
      <trkpt lat="47.28784" lon="5.81062">
        <ele>203.2</ele>
        <time>2017-12-21T13:14:50Z</time>
      </trkpt>
      <trkpt lat="47.28787" lon="5.81071">
        <ele>203.2</ele>
        <time>2017-12-21T13:14:51Z</time>
      </trkpt>
      <trkpt lat="47.2879" lon="5.81081">
        <ele>203.2</ele>
        <time>2017-12-21T13:14:52Z</time>
      </trkpt>
      <trkpt lat="47.28794" lon="5.8109">
        <ele>203.2</ele>
        <time>2017-12-21T13:14:53Z</time>
      </trkpt>
      <trkpt lat="47.28797" lon="5.81099">
        <ele>203.2</ele>
        <time>2017-12-21T13:14:54Z</time>
      </trkpt>
      <trkpt lat="47.288" lon="5.81108">
        <ele>203.2</ele>
        <time>2017-12-21T13:14:55Z</time>
      </trkpt>
      <trkpt lat="47.28803" lon="5.81117">
        <ele>203.2</ele>
        <time>2017-12-21T13:14:56Z</time>
      </trkpt>
      <trkpt lat="47.28806" lon="5.81126">
        <ele>203.2</ele>
        <time>2017-12-21T13:14:57Z</time>
      </trkpt>
      <trkpt lat="47.2881" lon="5.81135">
        <ele>203.2</ele>
        <time>2017-12-21T13:14:58Z</time>
      </trkpt>
      <trkpt lat="47.28813" lon="5.81143">
        <ele>203.2</ele>
        <time>2017-12-21T13:14:59Z</time>
      </trkpt>
      <trkpt lat="47.28816" lon="5.81152">
        <ele>203.2</ele>
        <time>2017-12-21T13:15:00Z</time>
      </trkpt>
      <trkpt lat="47.28819" lon="5.8116">
        <ele>203.2</ele>
        <time>2017-12-21T13:15:01Z</time>
      </trkpt>
      <trkpt lat="47.28823" lon="5.81169">
        <ele>203.2</ele>
        <time>2017-12-21T13:15:02Z</time>
      </trkpt>
      <trkpt lat="47.28827" lon="5.81176">
        <ele>203.2</ele>
        <time>2017-12-21T13:15:03Z</time>
      </trkpt>
      <trkpt lat="47.28831" lon="5.81185">
        <ele>203.2</ele>
        <time>2017-12-21T13:15:04Z</time>
      </trkpt>
      <trkpt lat="47.28835" lon="5.81193">
        <ele>203.2</ele>
        <time>2017-12-21T13:15:05Z</time>
      </trkpt>
      <trkpt lat="47.28838" lon="5.812">
        <ele>203.2</ele>
        <time>2017-12-21T13:15:06Z</time>
      </trkpt>
      <trkpt lat="47.28842" lon="5.81207">
        <ele>203.2</ele>
        <time>2017-12-21T13:15:07Z</time>
      </trkpt>
      <trkpt lat="47.28845" lon="5.81213">
        <ele>203.2</ele>
        <time>2017-12-21T13:15:08Z</time>
      </trkpt>
      <trkpt lat="47.28848" lon="5.8122">
        <ele>203.2</ele>
        <time>2017-12-21T13:15:09Z</time>
      </trkpt>
      <trkpt lat="47.28852" lon="5.81226">
        <ele>203.2</ele>
        <time>2017-12-21T13:15:10Z</time>
      </trkpt>
      <trkpt lat="47.28856" lon="5.81232">
        <ele>203.2</ele>
        <time>2017-12-21T13:15:11Z</time>
      </trkpt>
      <trkpt lat="47.2886" lon="5.81239">
        <ele>203.2</ele>
        <time>2017-12-21T13:15:12Z</time>
      </trkpt>
      <trkpt lat="47.28863" lon="5.81246">
        <ele>203.2</ele>
        <time>2017-12-21T13:15:13Z</time>
      </trkpt>
      <trkpt lat="47.28867" lon="5.81254">
        <ele>203.6</ele>
        <time>2017-12-21T13:15:14Z</time>
      </trkpt>
      <trkpt lat="47.28871" lon="5.81261">
        <ele>204</ele>
        <time>2017-12-21T13:15:15Z</time>
      </trkpt>
      <trkpt lat="47.28874" lon="5.81267">
        <ele>204.4</ele>
        <time>2017-12-21T13:15:16Z</time>
      </trkpt>
      <trkpt lat="47.28877" lon="5.81274">
        <ele>204.8</ele>
        <time>2017-12-21T13:15:17Z</time>
      </trkpt>
      <trkpt lat="47.2888" lon="5.81281">
        <ele>205.2</ele>
        <time>2017-12-21T13:15:18Z</time>
      </trkpt>
      <trkpt lat="47.28883" lon="5.81287">
        <ele>205.2</ele>
        <time>2017-12-21T13:15:19Z</time>
      </trkpt>
      <trkpt lat="47.28886" lon="5.81295">
        <ele>205.2</ele>
        <time>2017-12-21T13:15:20Z</time>
      </trkpt>
      <trkpt lat="47.28889" lon="5.81301">
        <ele>205.2</ele>
        <time>2017-12-21T13:15:21Z</time>
      </trkpt>
      <trkpt lat="47.28893" lon="5.81307">
        <ele>205.2</ele>
        <time>2017-12-21T13:15:22Z</time>
      </trkpt>
      <trkpt lat="47.28896" lon="5.81314">
        <ele>205.2</ele>
        <time>2017-12-21T13:15:23Z</time>
      </trkpt>
      <trkpt lat="47.28899" lon="5.8132">
        <ele>205.2</ele>
        <time>2017-12-21T13:15:24Z</time>
      </trkpt>
      <trkpt lat="47.28902" lon="5.81326">
        <ele>205.2</ele>
        <time>2017-12-21T13:15:25Z</time>
      </trkpt>
      <trkpt lat="47.28906" lon="5.81332">
        <ele>205.2</ele>
        <time>2017-12-21T13:15:26Z</time>
      </trkpt>
      <trkpt lat="47.28909" lon="5.81338">
        <ele>205.2</ele>
        <time>2017-12-21T13:15:27Z</time>
      </trkpt>
      <trkpt lat="47.28912" lon="5.81345">
        <ele>205.6</ele>
        <time>2017-12-21T13:15:28Z</time>
      </trkpt>
      <trkpt lat="47.28915" lon="5.81351">
        <ele>206</ele>
        <time>2017-12-21T13:15:29Z</time>
      </trkpt>
      <trkpt lat="47.28919" lon="5.81357">
        <ele>206.6</ele>
        <time>2017-12-21T13:15:30Z</time>
      </trkpt>
      <trkpt lat="47.28922" lon="5.81364">
        <ele>207</ele>
        <time>2017-12-21T13:15:31Z</time>
      </trkpt>
      <trkpt lat="47.28925" lon="5.8137">
        <ele>207.4</ele>
        <time>2017-12-21T13:15:32Z</time>
      </trkpt>
      <trkpt lat="47.28928" lon="5.81377">
        <ele>207.4</ele>
        <time>2017-12-21T13:15:33Z</time>
      </trkpt>
      <trkpt lat="47.28931" lon="5.81384">
        <ele>207.4</ele>
        <time>2017-12-21T13:15:34Z</time>
      </trkpt>
      <trkpt lat="47.28934" lon="5.81391">
        <ele>207.4</ele>
        <time>2017-12-21T13:15:35Z</time>
      </trkpt>
      <trkpt lat="47.28937" lon="5.81398">
        <ele>207.4</ele>
        <time>2017-12-21T13:15:36Z</time>
      </trkpt>
      <trkpt lat="47.2894" lon="5.81405">
        <ele>207.4</ele>
        <time>2017-12-21T13:15:37Z</time>
      </trkpt>
      <trkpt lat="47.28943" lon="5.81412">
        <ele>207.4</ele>
        <time>2017-12-21T13:15:38Z</time>
      </trkpt>
      <trkpt lat="47.28947" lon="5.81419">
        <ele>207.4</ele>
        <time>2017-12-21T13:15:39Z</time>
      </trkpt>
      <trkpt lat="47.2895" lon="5.81426">
        <ele>207.4</ele>
        <time>2017-12-21T13:15:40Z</time>
      </trkpt>
      <trkpt lat="47.28953" lon="5.81433">
        <ele>207.4</ele>
        <time>2017-12-21T13:15:41Z</time>
      </trkpt>
      <trkpt lat="47.28956" lon="5.8144">
        <ele>207.4</ele>
        <time>2017-12-21T13:15:42Z</time>
      </trkpt>
      <trkpt lat="47.28959" lon="5.81447">
        <ele>207.4</ele>
        <time>2017-12-21T13:15:43Z</time>
      </trkpt>
      <trkpt lat="47.28962" lon="5.81455">
        <ele>207.4</ele>
        <time>2017-12-21T13:15:44Z</time>
      </trkpt>
      <trkpt lat="47.28965" lon="5.81462">
        <ele>207.4</ele>
        <time>2017-12-21T13:15:45Z</time>
      </trkpt>
      <trkpt lat="47.28968" lon="5.8147">
        <ele>207.4</ele>
        <time>2017-12-21T13:15:46Z</time>
      </trkpt>
      <trkpt lat="47.28972" lon="5.81478">
        <ele>207.4</ele>
        <time>2017-12-21T13:15:47Z</time>
      </trkpt>
      <trkpt lat="47.28975" lon="5.81485">
        <ele>207.4</ele>
        <time>2017-12-21T13:15:48Z</time>
      </trkpt>
      <trkpt lat="47.28978" lon="5.81493">
        <ele>207.4</ele>
        <time>2017-12-21T13:15:49Z</time>
      </trkpt>
      <trkpt lat="47.28982" lon="5.81501">
        <ele>207.4</ele>
        <time>2017-12-21T13:15:50Z</time>
      </trkpt>
      <trkpt lat="47.28985" lon="5.81509">
        <ele>207.4</ele>
        <time>2017-12-21T13:15:51Z</time>
      </trkpt>
      <trkpt lat="47.28989" lon="5.81517">
        <ele>207.4</ele>
        <time>2017-12-21T13:15:52Z</time>
      </trkpt>
      <trkpt lat="47.28993" lon="5.81525">
        <ele>207.4</ele>
        <time>2017-12-21T13:15:53Z</time>
      </trkpt>
      <trkpt lat="47.28996" lon="5.81533">
        <ele>207.4</ele>
        <time>2017-12-21T13:15:54Z</time>
      </trkpt>
      <trkpt lat="47.29" lon="5.8154">
        <ele>207.4</ele>
        <time>2017-12-21T13:15:55Z</time>
      </trkpt>
      <trkpt lat="47.29004" lon="5.81548">
        <ele>207.4</ele>
        <time>2017-12-21T13:15:56Z</time>
      </trkpt>
      <trkpt lat="47.29007" lon="5.81556">
        <ele>207.4</ele>
        <time>2017-12-21T13:15:57Z</time>
      </trkpt>
      <trkpt lat="47.29011" lon="5.81564">
        <ele>207.4</ele>
        <time>2017-12-21T13:15:58Z</time>
      </trkpt>
      <trkpt lat="47.29015" lon="5.81571">
        <ele>207.4</ele>
        <time>2017-12-21T13:15:59Z</time>
      </trkpt>
      <trkpt lat="47.29019" lon="5.81578">
        <ele>207.4</ele>
        <time>2017-12-21T13:16:00Z</time>
      </trkpt>
      <trkpt lat="47.29023" lon="5.81585">
        <ele>207.4</ele>
        <time>2017-12-21T13:16:01Z</time>
      </trkpt>
      <trkpt lat="47.29027" lon="5.81592">
        <ele>207.4</ele>
        <time>2017-12-21T13:16:02Z</time>
      </trkpt>
      <trkpt lat="47.29031" lon="5.816">
        <ele>207.4</ele>
        <time>2017-12-21T13:16:03Z</time>
      </trkpt>
      <trkpt lat="47.29035" lon="5.81607">
        <ele>207.4</ele>
        <time>2017-12-21T13:16:04Z</time>
      </trkpt>
      <trkpt lat="47.29039" lon="5.81613">
        <ele>207.4</ele>
        <time>2017-12-21T13:16:05Z</time>
      </trkpt>
      <trkpt lat="47.29043" lon="5.81621">
        <ele>207.4</ele>
        <time>2017-12-21T13:16:06Z</time>
      </trkpt>
      <trkpt lat="47.29046" lon="5.81628">
        <ele>207.4</ele>
        <time>2017-12-21T13:16:07Z</time>
      </trkpt>
      <trkpt lat="47.2905" lon="5.81635">
        <ele>207.4</ele>
        <time>2017-12-21T13:16:08Z</time>
      </trkpt>
      <trkpt lat="47.29054" lon="5.81642">
        <ele>207.4</ele>
        <time>2017-12-21T13:16:09Z</time>
      </trkpt>
      <trkpt lat="47.29058" lon="5.8165">
        <ele>207.4</ele>
        <time>2017-12-21T13:16:10Z</time>
      </trkpt>
      <trkpt lat="47.29062" lon="5.81658">
        <ele>207.4</ele>
        <time>2017-12-21T13:16:11Z</time>
      </trkpt>
      <trkpt lat="47.29065" lon="5.81666">
        <ele>207.4</ele>
        <time>2017-12-21T13:16:12Z</time>
      </trkpt>
      <trkpt lat="47.29069" lon="5.81675">
        <ele>207.4</ele>
        <time>2017-12-21T13:16:13Z</time>
      </trkpt>
      <trkpt lat="47.29072" lon="5.81683">
        <ele>207.4</ele>
        <time>2017-12-21T13:16:14Z</time>
      </trkpt>
      <trkpt lat="47.29076" lon="5.81691">
        <ele>207.4</ele>
        <time>2017-12-21T13:16:15Z</time>
      </trkpt>
      <trkpt lat="47.29079" lon="5.81698">
        <ele>207.4</ele>
        <time>2017-12-21T13:16:16Z</time>
      </trkpt>
      <trkpt lat="47.29082" lon="5.81705">
        <ele>207.4</ele>
        <time>2017-12-21T13:16:17Z</time>
      </trkpt>
      <trkpt lat="47.29086" lon="5.81712">
        <ele>207.4</ele>
        <time>2017-12-21T13:16:18Z</time>
      </trkpt>
      <trkpt lat="47.29088" lon="5.81718">
        <ele>207.4</ele>
        <time>2017-12-21T13:16:19Z</time>
      </trkpt>
      <trkpt lat="47.29091" lon="5.81725">
        <ele>207.4</ele>
        <time>2017-12-21T13:16:20Z</time>
      </trkpt>
      <trkpt lat="47.29093" lon="5.81731">
        <ele>207.4</ele>
        <time>2017-12-21T13:16:21Z</time>
      </trkpt>
      <trkpt lat="47.29096" lon="5.81738">
        <ele>207.4</ele>
        <time>2017-12-21T13:16:22Z</time>
      </trkpt>
      <trkpt lat="47.291" lon="5.81745">
        <ele>207.4</ele>
        <time>2017-12-21T13:16:23Z</time>
      </trkpt>
      <trkpt lat="47.29103" lon="5.81751">
        <ele>207.4</ele>
        <time>2017-12-21T13:16:24Z</time>
      </trkpt>
      <trkpt lat="47.29106" lon="5.81758">
        <ele>207.4</ele>
        <time>2017-12-21T13:16:25Z</time>
      </trkpt>
      <trkpt lat="47.2911" lon="5.81764">
        <ele>207.8</ele>
        <time>2017-12-21T13:16:26Z</time>
      </trkpt>
      <trkpt lat="47.29113" lon="5.81771">
        <ele>208.2</ele>
        <time>2017-12-21T13:16:27Z</time>
      </trkpt>
      <trkpt lat="47.29117" lon="5.81778">
        <ele>208.6</ele>
        <time>2017-12-21T13:16:28Z</time>
      </trkpt>
      <trkpt lat="47.2912" lon="5.81784">
        <ele>209</ele>
        <time>2017-12-21T13:16:29Z</time>
      </trkpt>
      <trkpt lat="47.29123" lon="5.81791">
        <ele>209.4</ele>
        <time>2017-12-21T13:16:30Z</time>
      </trkpt>
      <trkpt lat="47.29127" lon="5.81797">
        <ele>209.4</ele>
        <time>2017-12-21T13:16:31Z</time>
      </trkpt>
      <trkpt lat="47.2913" lon="5.81804">
        <ele>209.4</ele>
        <time>2017-12-21T13:16:32Z</time>
      </trkpt>
      <trkpt lat="47.29134" lon="5.81811">
        <ele>209.4</ele>
        <time>2017-12-21T13:16:33Z</time>
      </trkpt>
      <trkpt lat="47.29137" lon="5.81818">
        <ele>209.4</ele>
        <time>2017-12-21T13:16:34Z</time>
      </trkpt>
      <trkpt lat="47.29141" lon="5.81825">
        <ele>209.4</ele>
        <time>2017-12-21T13:16:35Z</time>
      </trkpt>
      <trkpt lat="47.29144" lon="5.81832">
        <ele>209.4</ele>
        <time>2017-12-21T13:16:36Z</time>
      </trkpt>
      <trkpt lat="47.29148" lon="5.81839">
        <ele>209.4</ele>
        <time>2017-12-21T13:16:37Z</time>
      </trkpt>
      <trkpt lat="47.29151" lon="5.81847">
        <ele>209.4</ele>
        <time>2017-12-21T13:16:38Z</time>
      </trkpt>
      <trkpt lat="47.29155" lon="5.81854">
        <ele>209.4</ele>
        <time>2017-12-21T13:16:39Z</time>
      </trkpt>
      <trkpt lat="47.29159" lon="5.81861">
        <ele>209.4</ele>
        <time>2017-12-21T13:16:40Z</time>
      </trkpt>
      <trkpt lat="47.29162" lon="5.81868">
        <ele>209.4</ele>
        <time>2017-12-21T13:16:41Z</time>
      </trkpt>
      <trkpt lat="47.29166" lon="5.81874">
        <ele>209.4</ele>
        <time>2017-12-21T13:16:42Z</time>
      </trkpt>
      <trkpt lat="47.2917" lon="5.81881">
        <ele>209.4</ele>
        <time>2017-12-21T13:16:43Z</time>
      </trkpt>
      <trkpt lat="47.29174" lon="5.81887">
        <ele>209.4</ele>
        <time>2017-12-21T13:16:44Z</time>
      </trkpt>
      <trkpt lat="47.29178" lon="5.81895">
        <ele>209.4</ele>
        <time>2017-12-21T13:16:45Z</time>
      </trkpt>
      <trkpt lat="47.29181" lon="5.81902">
        <ele>209.4</ele>
        <time>2017-12-21T13:16:46Z</time>
      </trkpt>
      <trkpt lat="47.29184" lon="5.81909">
        <ele>209.4</ele>
        <time>2017-12-21T13:16:47Z</time>
      </trkpt>
      <trkpt lat="47.29187" lon="5.81917">
        <ele>209.4</ele>
        <time>2017-12-21T13:16:48Z</time>
      </trkpt>
      <trkpt lat="47.2919" lon="5.81925">
        <ele>209.4</ele>
        <time>2017-12-21T13:16:49Z</time>
      </trkpt>
      <trkpt lat="47.29193" lon="5.81933">
        <ele>209.4</ele>
        <time>2017-12-21T13:16:50Z</time>
      </trkpt>
      <trkpt lat="47.29196" lon="5.81939">
        <ele>209.4</ele>
        <time>2017-12-21T13:16:51Z</time>
      </trkpt>
      <trkpt lat="47.292" lon="5.81946">
        <ele>209.4</ele>
        <time>2017-12-21T13:16:52Z</time>
      </trkpt>
      <trkpt lat="47.29203" lon="5.81953">
        <ele>209.8</ele>
        <time>2017-12-21T13:16:53Z</time>
      </trkpt>
      <trkpt lat="47.29206" lon="5.8196">
        <ele>210.2</ele>
        <time>2017-12-21T13:16:54Z</time>
      </trkpt>
      <trkpt lat="47.2921" lon="5.81967">
        <ele>210.6</ele>
        <time>2017-12-21T13:16:55Z</time>
      </trkpt>
      <trkpt lat="47.29214" lon="5.81974">
        <ele>211</ele>
        <time>2017-12-21T13:16:56Z</time>
      </trkpt>
      <trkpt lat="47.29218" lon="5.8198">
        <ele>211.4</ele>
        <time>2017-12-21T13:16:57Z</time>
      </trkpt>
      <trkpt lat="47.29222" lon="5.81986">
        <ele>211.4</ele>
        <time>2017-12-21T13:16:58Z</time>
      </trkpt>
      <trkpt lat="47.29227" lon="5.81992">
        <ele>211.4</ele>
        <time>2017-12-21T13:16:59Z</time>
      </trkpt>
      <trkpt lat="47.29232" lon="5.81998">
        <ele>211.4</ele>
        <time>2017-12-21T13:17:00Z</time>
      </trkpt>
      <trkpt lat="47.29237" lon="5.82004">
        <ele>211.4</ele>
        <time>2017-12-21T13:17:01Z</time>
      </trkpt>
      <trkpt lat="47.29243" lon="5.82009">
        <ele>211.4</ele>
        <time>2017-12-21T13:17:02Z</time>
      </trkpt>
      <trkpt lat="47.29248" lon="5.82014">
        <ele>211.4</ele>
        <time>2017-12-21T13:17:03Z</time>
      </trkpt>
      <trkpt lat="47.29253" lon="5.82019">
        <ele>211.4</ele>
        <time>2017-12-21T13:17:04Z</time>
      </trkpt>
      <trkpt lat="47.29259" lon="5.82023">
        <ele>211.4</ele>
        <time>2017-12-21T13:17:05Z</time>
      </trkpt>
      <trkpt lat="47.29264" lon="5.82028">
        <ele>211.4</ele>
        <time>2017-12-21T13:17:06Z</time>
      </trkpt>
      <trkpt lat="47.2927" lon="5.82033">
        <ele>211.4</ele>
        <time>2017-12-21T13:17:07Z</time>
      </trkpt>
      <trkpt lat="47.29276" lon="5.82038">
        <ele>211.4</ele>
        <time>2017-12-21T13:17:08Z</time>
      </trkpt>
      <trkpt lat="47.29281" lon="5.82042">
        <ele>211.4</ele>
        <time>2017-12-21T13:17:09Z</time>
      </trkpt>
      <trkpt lat="47.29287" lon="5.82048">
        <ele>211.4</ele>
        <time>2017-12-21T13:17:10Z</time>
      </trkpt>
      <trkpt lat="47.29294" lon="5.82053">
        <ele>211.4</ele>
        <time>2017-12-21T13:17:11Z</time>
      </trkpt>
      <trkpt lat="47.293" lon="5.82059">
        <ele>211.4</ele>
        <time>2017-12-21T13:17:12Z</time>
      </trkpt>
      <trkpt lat="47.29306" lon="5.82064">
        <ele>211.4</ele>
        <time>2017-12-21T13:17:13Z</time>
      </trkpt>
      <trkpt lat="47.29313" lon="5.82072">
        <ele>211.4</ele>
        <time>2017-12-21T13:17:14Z</time>
      </trkpt>
      <trkpt lat="47.2932" lon="5.82077">
        <ele>211.4</ele>
        <time>2017-12-21T13:17:15Z</time>
      </trkpt>
      <trkpt lat="47.29326" lon="5.82083">
        <ele>211</ele>
        <time>2017-12-21T13:17:16Z</time>
      </trkpt>
      <trkpt lat="47.29333" lon="5.82088">
        <ele>210.6</ele>
        <time>2017-12-21T13:17:17Z</time>
      </trkpt>
      <trkpt lat="47.2934" lon="5.82094">
        <ele>210.2</ele>
        <time>2017-12-21T13:17:18Z</time>
      </trkpt>
      <trkpt lat="47.29347" lon="5.821">
        <ele>209.8</ele>
        <time>2017-12-21T13:17:19Z</time>
      </trkpt>
      <trkpt lat="47.29354" lon="5.82107">
        <ele>209.4</ele>
        <time>2017-12-21T13:17:20Z</time>
      </trkpt>
      <trkpt lat="47.29361" lon="5.82113">
        <ele>209.4</ele>
        <time>2017-12-21T13:17:21Z</time>
      </trkpt>
      <trkpt lat="47.29368" lon="5.82119">
        <ele>209.4</ele>
        <time>2017-12-21T13:17:22Z</time>
      </trkpt>
      <trkpt lat="47.29376" lon="5.82126">
        <ele>209.4</ele>
        <time>2017-12-21T13:17:23Z</time>
      </trkpt>
      <trkpt lat="47.29383" lon="5.82133">
        <ele>209.4</ele>
        <time>2017-12-21T13:17:24Z</time>
      </trkpt>
      <trkpt lat="47.2939" lon="5.82139">
        <ele>209.4</ele>
        <time>2017-12-21T13:17:25Z</time>
      </trkpt>
      <trkpt lat="47.29398" lon="5.82146">
        <ele>209</ele>
        <time>2017-12-21T13:17:26Z</time>
      </trkpt>
      <trkpt lat="47.29406" lon="5.82152">
        <ele>208.6</ele>
        <time>2017-12-21T13:17:27Z</time>
      </trkpt>
      <trkpt lat="47.29414" lon="5.82159">
        <ele>208</ele>
        <time>2017-12-21T13:17:28Z</time>
      </trkpt>
      <trkpt lat="47.29422" lon="5.82166">
        <ele>207.6</ele>
        <time>2017-12-21T13:17:29Z</time>
      </trkpt>
      <trkpt lat="47.2943" lon="5.82172">
        <ele>207.2</ele>
        <time>2017-12-21T13:17:30Z</time>
      </trkpt>
      <trkpt lat="47.29437" lon="5.82179">
        <ele>207.2</ele>
        <time>2017-12-21T13:17:31Z</time>
      </trkpt>
      <trkpt lat="47.29444" lon="5.82185">
        <ele>206.8</ele>
        <time>2017-12-21T13:17:32Z</time>
      </trkpt>
      <trkpt lat="47.29452" lon="5.82189">
        <ele>206.4</ele>
        <time>2017-12-21T13:17:33Z</time>
      </trkpt>
      <trkpt lat="47.29459" lon="5.82192">
        <ele>206</ele>
        <time>2017-12-21T13:17:34Z</time>
      </trkpt>
      <trkpt lat="47.29467" lon="5.82191">
        <ele>205.6</ele>
        <time>2017-12-21T13:17:35Z</time>
      </trkpt>
      <trkpt lat="47.29475" lon="5.82188">
        <ele>205</ele>
        <time>2017-12-21T13:17:36Z</time>
      </trkpt>
      <trkpt lat="47.29481" lon="5.82184">
        <ele>205</ele>
        <time>2017-12-21T13:17:37Z</time>
      </trkpt>
      <trkpt lat="47.29488" lon="5.82179">
        <ele>205</ele>
        <time>2017-12-21T13:17:38Z</time>
      </trkpt>
      <trkpt lat="47.29494" lon="5.82173">
        <ele>205</ele>
        <time>2017-12-21T13:17:39Z</time>
      </trkpt>
      <trkpt lat="47.29501" lon="5.82168">
        <ele>205</ele>
        <time>2017-12-21T13:17:40Z</time>
      </trkpt>
      <trkpt lat="47.29507" lon="5.82165">
        <ele>205</ele>
        <time>2017-12-21T13:17:41Z</time>
      </trkpt>
      <trkpt lat="47.29515" lon="5.82163">
        <ele>205</ele>
        <time>2017-12-21T13:17:42Z</time>
      </trkpt>
      <trkpt lat="47.29522" lon="5.82164">
        <ele>205</ele>
        <time>2017-12-21T13:17:43Z</time>
      </trkpt>
      <trkpt lat="47.2953" lon="5.82168">
        <ele>205</ele>
        <time>2017-12-21T13:17:44Z</time>
      </trkpt>
      <trkpt lat="47.29538" lon="5.82173">
        <ele>205</ele>
        <time>2017-12-21T13:17:45Z</time>
      </trkpt>
      <trkpt lat="47.29545" lon="5.8218">
        <ele>205</ele>
        <time>2017-12-21T13:17:46Z</time>
      </trkpt>
      <trkpt lat="47.2955" lon="5.82188">
        <ele>205</ele>
        <time>2017-12-21T13:17:47Z</time>
      </trkpt>
      <trkpt lat="47.29555" lon="5.82197">
        <ele>205</ele>
        <time>2017-12-21T13:17:48Z</time>
      </trkpt>
      <trkpt lat="47.29559" lon="5.82205">
        <ele>205</ele>
        <time>2017-12-21T13:17:49Z</time>
      </trkpt>
      <trkpt lat="47.29562" lon="5.82215">
        <ele>205</ele>
        <time>2017-12-21T13:17:50Z</time>
      </trkpt>
      <trkpt lat="47.29565" lon="5.82224">
        <ele>205</ele>
        <time>2017-12-21T13:17:51Z</time>
      </trkpt>
      <trkpt lat="47.29569" lon="5.82234">
        <ele>205</ele>
        <time>2017-12-21T13:17:52Z</time>
      </trkpt>
      <trkpt lat="47.29573" lon="5.82243">
        <ele>205</ele>
        <time>2017-12-21T13:17:53Z</time>
      </trkpt>
      <trkpt lat="47.29576" lon="5.82252">
        <ele>205</ele>
        <time>2017-12-21T13:17:54Z</time>
      </trkpt>
      <trkpt lat="47.29579" lon="5.82261">
        <ele>205</ele>
        <time>2017-12-21T13:17:55Z</time>
      </trkpt>
      <trkpt lat="47.29582" lon="5.82269">
        <ele>205</ele>
        <time>2017-12-21T13:17:56Z</time>
      </trkpt>
      <trkpt lat="47.29585" lon="5.82278">
        <ele>205</ele>
        <time>2017-12-21T13:17:57Z</time>
      </trkpt>
      <trkpt lat="47.29588" lon="5.82286">
        <ele>205</ele>
        <time>2017-12-21T13:17:58Z</time>
      </trkpt>
      <trkpt lat="47.29591" lon="5.82295">
        <ele>205</ele>
        <time>2017-12-21T13:17:59Z</time>
      </trkpt>
      <trkpt lat="47.29594" lon="5.82303">
        <ele>205</ele>
        <time>2017-12-21T13:18:00Z</time>
      </trkpt>
      <trkpt lat="47.29597" lon="5.82312">
        <ele>205</ele>
        <time>2017-12-21T13:18:01Z</time>
      </trkpt>
      <trkpt lat="47.296" lon="5.82321">
        <ele>205</ele>
        <time>2017-12-21T13:18:02Z</time>
      </trkpt>
      <trkpt lat="47.29603" lon="5.82329">
        <ele>205</ele>
        <time>2017-12-21T13:18:03Z</time>
      </trkpt>
      <trkpt lat="47.29606" lon="5.82338">
        <ele>205</ele>
        <time>2017-12-21T13:18:04Z</time>
      </trkpt>
      <trkpt lat="47.29609" lon="5.82346">
        <ele>205</ele>
        <time>2017-12-21T13:18:05Z</time>
      </trkpt>
      <trkpt lat="47.29613" lon="5.82355">
        <ele>205</ele>
        <time>2017-12-21T13:18:06Z</time>
      </trkpt>
      <trkpt lat="47.29616" lon="5.82364">
        <ele>205</ele>
        <time>2017-12-21T13:18:07Z</time>
      </trkpt>
      <trkpt lat="47.29619" lon="5.82372">
        <ele>205</ele>
        <time>2017-12-21T13:18:08Z</time>
      </trkpt>
      <trkpt lat="47.29622" lon="5.8238">
        <ele>205</ele>
        <time>2017-12-21T13:18:09Z</time>
      </trkpt>
      <trkpt lat="47.29625" lon="5.82388">
        <ele>205</ele>
        <time>2017-12-21T13:18:10Z</time>
      </trkpt>
      <trkpt lat="47.29627" lon="5.82396">
        <ele>205</ele>
        <time>2017-12-21T13:18:11Z</time>
      </trkpt>
      <trkpt lat="47.2963" lon="5.82403">
        <ele>205</ele>
        <time>2017-12-21T13:18:12Z</time>
      </trkpt>
      <trkpt lat="47.29633" lon="5.82412">
        <ele>205</ele>
        <time>2017-12-21T13:18:13Z</time>
      </trkpt>
      <trkpt lat="47.29635" lon="5.82421">
        <ele>205</ele>
        <time>2017-12-21T13:18:14Z</time>
      </trkpt>
      <trkpt lat="47.29638" lon="5.82428">
        <ele>205</ele>
        <time>2017-12-21T13:18:15Z</time>
      </trkpt>
      <trkpt lat="47.29641" lon="5.82436">
        <ele>205</ele>
        <time>2017-12-21T13:18:16Z</time>
      </trkpt>
      <trkpt lat="47.29644" lon="5.82443">
        <ele>205</ele>
        <time>2017-12-21T13:18:17Z</time>
      </trkpt>
      <trkpt lat="47.29646" lon="5.82451">
        <ele>205</ele>
        <time>2017-12-21T13:18:18Z</time>
      </trkpt>
      <trkpt lat="47.29648" lon="5.8246">
        <ele>205</ele>
        <time>2017-12-21T13:18:19Z</time>
      </trkpt>
      <trkpt lat="47.29649" lon="5.82469">
        <ele>205.6</ele>
        <time>2017-12-21T13:18:20Z</time>
      </trkpt>
      <trkpt lat="47.2965" lon="5.82477">
        <ele>206</ele>
        <time>2017-12-21T13:18:21Z</time>
      </trkpt>
      <trkpt lat="47.29651" lon="5.82487">
        <ele>206.4</ele>
        <time>2017-12-21T13:18:22Z</time>
      </trkpt>
      <trkpt lat="47.29652" lon="5.82496">
        <ele>206.8</ele>
        <time>2017-12-21T13:18:23Z</time>
      </trkpt>
      <trkpt lat="47.29653" lon="5.82506">
        <ele>207.2</ele>
        <time>2017-12-21T13:18:24Z</time>
      </trkpt>
      <trkpt lat="47.29654" lon="5.82515">
        <ele>207.2</ele>
        <time>2017-12-21T13:18:25Z</time>
      </trkpt>
      <trkpt lat="47.29654" lon="5.82524">
        <ele>207.2</ele>
        <time>2017-12-21T13:18:26Z</time>
      </trkpt>
      <trkpt lat="47.29655" lon="5.82533">
        <ele>207.2</ele>
        <time>2017-12-21T13:18:27Z</time>
      </trkpt>
      <trkpt lat="47.29656" lon="5.82542">
        <ele>207.2</ele>
        <time>2017-12-21T13:18:28Z</time>
      </trkpt>
      <trkpt lat="47.29657" lon="5.82552">
        <ele>207.2</ele>
        <time>2017-12-21T13:18:29Z</time>
      </trkpt>
      <trkpt lat="47.29658" lon="5.82561">
        <ele>207.2</ele>
        <time>2017-12-21T13:18:30Z</time>
      </trkpt>
      <trkpt lat="47.29658" lon="5.8257">
        <ele>207.2</ele>
        <time>2017-12-21T13:18:31Z</time>
      </trkpt>
      <trkpt lat="47.29659" lon="5.82578">
        <ele>207.2</ele>
        <time>2017-12-21T13:18:32Z</time>
      </trkpt>
      <trkpt lat="47.29659" lon="5.82586">
        <ele>207.2</ele>
        <time>2017-12-21T13:18:33Z</time>
      </trkpt>
      <trkpt lat="47.2966" lon="5.82595">
        <ele>207.2</ele>
        <time>2017-12-21T13:18:34Z</time>
      </trkpt>
      <trkpt lat="47.29661" lon="5.82603">
        <ele>207.2</ele>
        <time>2017-12-21T13:18:35Z</time>
      </trkpt>
      <trkpt lat="47.29662" lon="5.82612">
        <ele>207.2</ele>
        <time>2017-12-21T13:18:36Z</time>
      </trkpt>
      <trkpt lat="47.29662" lon="5.8262">
        <ele>207.2</ele>
        <time>2017-12-21T13:18:37Z</time>
      </trkpt>
      <trkpt lat="47.29662" lon="5.82628">
        <ele>207.6</ele>
        <time>2017-12-21T13:18:38Z</time>
      </trkpt>
      <trkpt lat="47.29662" lon="5.82636">
        <ele>208</ele>
        <time>2017-12-21T13:18:39Z</time>
      </trkpt>
      <trkpt lat="47.29662" lon="5.82643">
        <ele>208.4</ele>
        <time>2017-12-21T13:18:40Z</time>
      </trkpt>
      <trkpt lat="47.29662" lon="5.82651">
        <ele>208.8</ele>
        <time>2017-12-21T13:18:41Z</time>
      </trkpt>
      <trkpt lat="47.29661" lon="5.82659">
        <ele>209.2</ele>
        <time>2017-12-21T13:18:42Z</time>
      </trkpt>
      <trkpt lat="47.29661" lon="5.82666">
        <ele>209.2</ele>
        <time>2017-12-21T13:18:43Z</time>
      </trkpt>
      <trkpt lat="47.29661" lon="5.82675">
        <ele>209.2</ele>
        <time>2017-12-21T13:18:44Z</time>
      </trkpt>
      <trkpt lat="47.2966" lon="5.82683">
        <ele>209.2</ele>
        <time>2017-12-21T13:18:45Z</time>
      </trkpt>
      <trkpt lat="47.29659" lon="5.8269">
        <ele>209.2</ele>
        <time>2017-12-21T13:18:46Z</time>
      </trkpt>
      <trkpt lat="47.29659" lon="5.82698">
        <ele>209.8</ele>
        <time>2017-12-21T13:18:47Z</time>
      </trkpt>
      <trkpt lat="47.29659" lon="5.82705">
        <ele>210.2</ele>
        <time>2017-12-21T13:18:48Z</time>
      </trkpt>
      <trkpt lat="47.29658" lon="5.82712">
        <ele>210.6</ele>
        <time>2017-12-21T13:18:49Z</time>
      </trkpt>
      <trkpt lat="47.29658" lon="5.82719">
        <ele>211</ele>
        <time>2017-12-21T13:18:50Z</time>
      </trkpt>
      <trkpt lat="47.29657" lon="5.82726">
        <ele>211.4</ele>
        <time>2017-12-21T13:18:51Z</time>
      </trkpt>
      <trkpt lat="47.29657" lon="5.82733">
        <ele>211.4</ele>
        <time>2017-12-21T13:18:52Z</time>
      </trkpt>
      <trkpt lat="47.29657" lon="5.8274">
        <ele>211.4</ele>
        <time>2017-12-21T13:18:53Z</time>
      </trkpt>
      <trkpt lat="47.29656" lon="5.82747">
        <ele>211.4</ele>
        <time>2017-12-21T13:18:54Z</time>
      </trkpt>
      <trkpt lat="47.29656" lon="5.82754">
        <ele>211.4</ele>
        <time>2017-12-21T13:18:55Z</time>
      </trkpt>
      <trkpt lat="47.29656" lon="5.82761">
        <ele>211.4</ele>
        <time>2017-12-21T13:18:56Z</time>
      </trkpt>
      <trkpt lat="47.29656" lon="5.82768">
        <ele>211.4</ele>
        <time>2017-12-21T13:18:57Z</time>
      </trkpt>
      <trkpt lat="47.29656" lon="5.82776">
        <ele>211.4</ele>
        <time>2017-12-21T13:18:58Z</time>
      </trkpt>
      <trkpt lat="47.29657" lon="5.82784">
        <ele>211.4</ele>
        <time>2017-12-21T13:18:59Z</time>
      </trkpt>
      <trkpt lat="47.29658" lon="5.82792">
        <ele>211.4</ele>
        <time>2017-12-21T13:19:00Z</time>
      </trkpt>
      <trkpt lat="47.29659" lon="5.82801">
        <ele>211.4</ele>
        <time>2017-12-21T13:19:01Z</time>
      </trkpt>
      <trkpt lat="47.29659" lon="5.8281">
        <ele>211.4</ele>
        <time>2017-12-21T13:19:02Z</time>
      </trkpt>
      <trkpt lat="47.2966" lon="5.8282">
        <ele>211.4</ele>
        <time>2017-12-21T13:19:03Z</time>
      </trkpt>
      <trkpt lat="47.29662" lon="5.8283">
        <ele>211.4</ele>
        <time>2017-12-21T13:19:04Z</time>
      </trkpt>
      <trkpt lat="47.29663" lon="5.82841">
        <ele>211.4</ele>
        <time>2017-12-21T13:19:05Z</time>
      </trkpt>
      <trkpt lat="47.29664" lon="5.82853">
        <ele>211.4</ele>
        <time>2017-12-21T13:19:06Z</time>
      </trkpt>
      <trkpt lat="47.29665" lon="5.82865">
        <ele>211.4</ele>
        <time>2017-12-21T13:19:07Z</time>
      </trkpt>
      <trkpt lat="47.29665" lon="5.82878">
        <ele>211.4</ele>
        <time>2017-12-21T13:19:08Z</time>
      </trkpt>
      <trkpt lat="47.29665" lon="5.82891">
        <ele>211</ele>
        <time>2017-12-21T13:19:09Z</time>
      </trkpt>
      <trkpt lat="47.29664" lon="5.82903">
        <ele>210.6</ele>
        <time>2017-12-21T13:19:10Z</time>
      </trkpt>
      <trkpt lat="47.29662" lon="5.82916">
        <ele>210.2</ele>
        <time>2017-12-21T13:19:11Z</time>
      </trkpt>
      <trkpt lat="47.29661" lon="5.82928">
        <ele>209.6</ele>
        <time>2017-12-21T13:19:12Z</time>
      </trkpt>
      <trkpt lat="47.29659" lon="5.8294">
        <ele>209.2</ele>
        <time>2017-12-21T13:19:13Z</time>
      </trkpt>
      <trkpt lat="47.29658" lon="5.82953">
        <ele>209.2</ele>
        <time>2017-12-21T13:19:14Z</time>
      </trkpt>
      <trkpt lat="47.29656" lon="5.82965">
        <ele>209.2</ele>
        <time>2017-12-21T13:19:15Z</time>
      </trkpt>
      <trkpt lat="47.29655" lon="5.82976">
        <ele>209.2</ele>
        <time>2017-12-21T13:19:16Z</time>
      </trkpt>
      <trkpt lat="47.29653" lon="5.82987">
        <ele>209.2</ele>
        <time>2017-12-21T13:19:17Z</time>
      </trkpt>
      <trkpt lat="47.29652" lon="5.82998">
        <ele>209.2</ele>
        <time>2017-12-21T13:19:18Z</time>
      </trkpt>
      <trkpt lat="47.29651" lon="5.83009">
        <ele>209.2</ele>
        <time>2017-12-21T13:19:19Z</time>
      </trkpt>
      <trkpt lat="47.2965" lon="5.83019">
        <ele>209.2</ele>
        <time>2017-12-21T13:19:20Z</time>
      </trkpt>
      <trkpt lat="47.29648" lon="5.83029">
        <ele>209.2</ele>
        <time>2017-12-21T13:19:21Z</time>
      </trkpt>
      <trkpt lat="47.29647" lon="5.83039">
        <ele>209.2</ele>
        <time>2017-12-21T13:19:22Z</time>
      </trkpt>
      <trkpt lat="47.29646" lon="5.83049">
        <ele>209.2</ele>
        <time>2017-12-21T13:19:23Z</time>
      </trkpt>
      <trkpt lat="47.29645" lon="5.83059">
        <ele>209.2</ele>
        <time>2017-12-21T13:19:24Z</time>
      </trkpt>
      <trkpt lat="47.29644" lon="5.83069">
        <ele>209.2</ele>
        <time>2017-12-21T13:19:25Z</time>
      </trkpt>
      <trkpt lat="47.29643" lon="5.83078">
        <ele>209.2</ele>
        <time>2017-12-21T13:19:26Z</time>
      </trkpt>
      <trkpt lat="47.29642" lon="5.83088">
        <ele>209.2</ele>
        <time>2017-12-21T13:19:27Z</time>
      </trkpt>
      <trkpt lat="47.29641" lon="5.83097">
        <ele>209.2</ele>
        <time>2017-12-21T13:19:28Z</time>
      </trkpt>
      <trkpt lat="47.2964" lon="5.83106">
        <ele>209.2</ele>
        <time>2017-12-21T13:19:29Z</time>
      </trkpt>
      <trkpt lat="47.2964" lon="5.83115">
        <ele>209.2</ele>
        <time>2017-12-21T13:19:30Z</time>
      </trkpt>
      <trkpt lat="47.29639" lon="5.83124">
        <ele>209.2</ele>
        <time>2017-12-21T13:19:31Z</time>
      </trkpt>
      <trkpt lat="47.29638" lon="5.83133">
        <ele>209.2</ele>
        <time>2017-12-21T13:19:32Z</time>
      </trkpt>
      <trkpt lat="47.29637" lon="5.83142">
        <ele>209.2</ele>
        <time>2017-12-21T13:19:33Z</time>
      </trkpt>
      <trkpt lat="47.29638" lon="5.83151">
        <ele>209.2</ele>
        <time>2017-12-21T13:19:34Z</time>
      </trkpt>
      <trkpt lat="47.29638" lon="5.8316">
        <ele>209.2</ele>
        <time>2017-12-21T13:19:35Z</time>
      </trkpt>
      <trkpt lat="47.2964" lon="5.8317">
        <ele>209.2</ele>
        <time>2017-12-21T13:19:36Z</time>
      </trkpt>
      <trkpt lat="47.29641" lon="5.83179">
        <ele>209.2</ele>
        <time>2017-12-21T13:19:37Z</time>
      </trkpt>
      <trkpt lat="47.29643" lon="5.83188">
        <ele>209.2</ele>
        <time>2017-12-21T13:19:38Z</time>
      </trkpt>
      <trkpt lat="47.29645" lon="5.83197">
        <ele>209.2</ele>
        <time>2017-12-21T13:19:39Z</time>
      </trkpt>
      <trkpt lat="47.29648" lon="5.83206">
        <ele>209.2</ele>
        <time>2017-12-21T13:19:40Z</time>
      </trkpt>
      <trkpt lat="47.29651" lon="5.83214">
        <ele>209.2</ele>
        <time>2017-12-21T13:19:41Z</time>
      </trkpt>
      <trkpt lat="47.29654" lon="5.83223">
        <ele>209.2</ele>
        <time>2017-12-21T13:19:42Z</time>
      </trkpt>
      <trkpt lat="47.29657" lon="5.83231">
        <ele>209.2</ele>
        <time>2017-12-21T13:19:43Z</time>
      </trkpt>
      <trkpt lat="47.2966" lon="5.83239">
        <ele>209.2</ele>
        <time>2017-12-21T13:19:44Z</time>
      </trkpt>
      <trkpt lat="47.29663" lon="5.83247">
        <ele>209.2</ele>
        <time>2017-12-21T13:19:45Z</time>
      </trkpt>
      <trkpt lat="47.29666" lon="5.83255">
        <ele>209.2</ele>
        <time>2017-12-21T13:19:46Z</time>
      </trkpt>
      <trkpt lat="47.29669" lon="5.83263">
        <ele>209.2</ele>
        <time>2017-12-21T13:19:47Z</time>
      </trkpt>
      <trkpt lat="47.29672" lon="5.83271">
        <ele>209.2</ele>
        <time>2017-12-21T13:19:48Z</time>
      </trkpt>
      <trkpt lat="47.29675" lon="5.83279">
        <ele>209.2</ele>
        <time>2017-12-21T13:19:49Z</time>
      </trkpt>
      <trkpt lat="47.29677" lon="5.83287">
        <ele>209.2</ele>
        <time>2017-12-21T13:19:50Z</time>
      </trkpt>
      <trkpt lat="47.2968" lon="5.83295">
        <ele>209.2</ele>
        <time>2017-12-21T13:19:51Z</time>
      </trkpt>
      <trkpt lat="47.29683" lon="5.83303">
        <ele>209.2</ele>
        <time>2017-12-21T13:19:52Z</time>
      </trkpt>
      <trkpt lat="47.29685" lon="5.83311">
        <ele>209.2</ele>
        <time>2017-12-21T13:19:53Z</time>
      </trkpt>
      <trkpt lat="47.29687" lon="5.83319">
        <ele>209.2</ele>
        <time>2017-12-21T13:19:54Z</time>
      </trkpt>
      <trkpt lat="47.2969" lon="5.83327">
        <ele>209.2</ele>
        <time>2017-12-21T13:19:55Z</time>
      </trkpt>
      <trkpt lat="47.29692" lon="5.83335">
        <ele>209.2</ele>
        <time>2017-12-21T13:19:56Z</time>
      </trkpt>
      <trkpt lat="47.29695" lon="5.83343">
        <ele>209.2</ele>
        <time>2017-12-21T13:19:57Z</time>
      </trkpt>
      <trkpt lat="47.29697" lon="5.8335">
        <ele>209.2</ele>
        <time>2017-12-21T13:19:58Z</time>
      </trkpt>
      <trkpt lat="47.29699" lon="5.83358">
        <ele>209.2</ele>
        <time>2017-12-21T13:19:59Z</time>
      </trkpt>
      <trkpt lat="47.29701" lon="5.83366">
        <ele>209.2</ele>
        <time>2017-12-21T13:20:00Z</time>
      </trkpt>
      <trkpt lat="47.29703" lon="5.83374">
        <ele>209.6</ele>
        <time>2017-12-21T13:20:01Z</time>
      </trkpt>
      <trkpt lat="47.29705" lon="5.83381">
        <ele>210</ele>
        <time>2017-12-21T13:20:02Z</time>
      </trkpt>
      <trkpt lat="47.29707" lon="5.83389">
        <ele>210.6</ele>
        <time>2017-12-21T13:20:03Z</time>
      </trkpt>
      <trkpt lat="47.29709" lon="5.83396">
        <ele>211</ele>
        <time>2017-12-21T13:20:04Z</time>
      </trkpt>
      <trkpt lat="47.29711" lon="5.83403">
        <ele>211.4</ele>
        <time>2017-12-21T13:20:05Z</time>
      </trkpt>
      <trkpt lat="47.29713" lon="5.8341">
        <ele>211.4</ele>
        <time>2017-12-21T13:20:06Z</time>
      </trkpt>
      <trkpt lat="47.29714" lon="5.83417">
        <ele>211.4</ele>
        <time>2017-12-21T13:20:07Z</time>
      </trkpt>
      <trkpt lat="47.29716" lon="5.83423">
        <ele>211.4</ele>
        <time>2017-12-21T13:20:08Z</time>
      </trkpt>
      <trkpt lat="47.29718" lon="5.8343">
        <ele>211.4</ele>
        <time>2017-12-21T13:20:09Z</time>
      </trkpt>
      <trkpt lat="47.2972" lon="5.83436">
        <ele>211.4</ele>
        <time>2017-12-21T13:20:10Z</time>
      </trkpt>
      <trkpt lat="47.29721" lon="5.83443">
        <ele>211.8</ele>
        <time>2017-12-21T13:20:11Z</time>
      </trkpt>
      <trkpt lat="47.29723" lon="5.8345">
        <ele>212.2</ele>
        <time>2017-12-21T13:20:12Z</time>
      </trkpt>
      <trkpt lat="47.29725" lon="5.83456">
        <ele>212.6</ele>
        <time>2017-12-21T13:20:13Z</time>
      </trkpt>
      <trkpt lat="47.29726" lon="5.83462">
        <ele>213</ele>
        <time>2017-12-21T13:20:14Z</time>
      </trkpt>
      <trkpt lat="47.29728" lon="5.83468">
        <ele>213.4</ele>
        <time>2017-12-21T13:20:15Z</time>
      </trkpt>
      <trkpt lat="47.2973" lon="5.83474">
        <ele>213.4</ele>
        <time>2017-12-21T13:20:16Z</time>
      </trkpt>
      <trkpt lat="47.29732" lon="5.83479">
        <ele>213.4</ele>
        <time>2017-12-21T13:20:17Z</time>
      </trkpt>
      <trkpt lat="47.29734" lon="5.83483">
        <ele>213.4</ele>
        <time>2017-12-21T13:20:18Z</time>
      </trkpt>
      <trkpt lat="47.29735" lon="5.83488">
        <ele>213.4</ele>
        <time>2017-12-21T13:20:19Z</time>
      </trkpt>
      <trkpt lat="47.29737" lon="5.83491">
        <ele>213.4</ele>
        <time>2017-12-21T13:20:20Z</time>
      </trkpt>
      <trkpt lat="47.29739" lon="5.83494">
        <ele>213.4</ele>
        <time>2017-12-21T13:20:21Z</time>
      </trkpt>
      <trkpt lat="47.29742" lon="5.83497">
        <ele>213.4</ele>
        <time>2017-12-21T13:20:22Z</time>
      </trkpt>
      <trkpt lat="47.29745" lon="5.83499">
        <ele>213.8</ele>
        <time>2017-12-21T13:20:23Z</time>
      </trkpt>
      <trkpt lat="47.29748" lon="5.83501">
        <ele>214.4</ele>
        <time>2017-12-21T13:20:24Z</time>
      </trkpt>
      <trkpt lat="47.29752" lon="5.835">
        <ele>214.8</ele>
        <time>2017-12-21T13:20:25Z</time>
      </trkpt>
      <trkpt lat="47.29755" lon="5.835">
        <ele>215.2</ele>
        <time>2017-12-21T13:20:26Z</time>
      </trkpt>
      <trkpt lat="47.29759" lon="5.835">
        <ele>215.6</ele>
        <time>2017-12-21T13:20:27Z</time>
      </trkpt>
      <trkpt lat="47.29764" lon="5.83499">
        <ele>215.6</ele>
        <time>2017-12-21T13:20:28Z</time>
      </trkpt>
      <trkpt lat="47.29768" lon="5.83499">
        <ele>215.6</ele>
        <time>2017-12-21T13:20:29Z</time>
      </trkpt>
      <trkpt lat="47.29772" lon="5.83498">
        <ele>215.6</ele>
        <time>2017-12-21T13:20:30Z</time>
      </trkpt>
      <trkpt lat="47.29777" lon="5.83498">
        <ele>215.6</ele>
        <time>2017-12-21T13:20:31Z</time>
      </trkpt>
      <trkpt lat="47.29781" lon="5.83498">
        <ele>215.6</ele>
        <time>2017-12-21T13:20:32Z</time>
      </trkpt>
      <trkpt lat="47.29786" lon="5.83498">
        <ele>215.6</ele>
        <time>2017-12-21T13:20:33Z</time>
      </trkpt>
      <trkpt lat="47.2979" lon="5.83499">
        <ele>215.6</ele>
        <time>2017-12-21T13:20:34Z</time>
      </trkpt>
      <trkpt lat="47.29794" lon="5.835">
        <ele>215.6</ele>
        <time>2017-12-21T13:20:35Z</time>
      </trkpt>
      <trkpt lat="47.29798" lon="5.835">
        <ele>215.6</ele>
        <time>2017-12-21T13:20:36Z</time>
      </trkpt>
      <trkpt lat="47.29803" lon="5.83502">
        <ele>215.6</ele>
        <time>2017-12-21T13:20:37Z</time>
      </trkpt>
      <trkpt lat="47.29808" lon="5.83503">
        <ele>215.6</ele>
        <time>2017-12-21T13:20:38Z</time>
      </trkpt>
      <trkpt lat="47.29812" lon="5.83505">
        <ele>215.6</ele>
        <time>2017-12-21T13:20:39Z</time>
      </trkpt>
      <trkpt lat="47.29816" lon="5.83508">
        <ele>215.6</ele>
        <time>2017-12-21T13:20:40Z</time>
      </trkpt>
      <trkpt lat="47.2982" lon="5.83511">
        <ele>215.6</ele>
        <time>2017-12-21T13:20:41Z</time>
      </trkpt>
      <trkpt lat="47.29823" lon="5.83515">
        <ele>215.6</ele>
        <time>2017-12-21T13:20:42Z</time>
      </trkpt>
      <trkpt lat="47.29826" lon="5.83519">
        <ele>215.6</ele>
        <time>2017-12-21T13:20:43Z</time>
      </trkpt>
      <trkpt lat="47.29829" lon="5.83522">
        <ele>215.6</ele>
        <time>2017-12-21T13:20:44Z</time>
      </trkpt>
      <trkpt lat="47.29832" lon="5.83527">
        <ele>215.6</ele>
        <time>2017-12-21T13:20:45Z</time>
      </trkpt>
      <trkpt lat="47.29834" lon="5.83531">
        <ele>215.6</ele>
        <time>2017-12-21T13:20:46Z</time>
      </trkpt>
      <trkpt lat="47.29836" lon="5.83535">
        <ele>215.6</ele>
        <time>2017-12-21T13:20:47Z</time>
      </trkpt>
      <trkpt lat="47.29837" lon="5.83541">
        <ele>215.6</ele>
        <time>2017-12-21T13:20:48Z</time>
      </trkpt>
      <trkpt lat="47.29839" lon="5.83546">
        <ele>215.6</ele>
        <time>2017-12-21T13:20:49Z</time>
      </trkpt>
      <trkpt lat="47.2984" lon="5.83552">
        <ele>215.6</ele>
        <time>2017-12-21T13:20:50Z</time>
      </trkpt>
      <trkpt lat="47.29841" lon="5.83558">
        <ele>215.6</ele>
        <time>2017-12-21T13:20:51Z</time>
      </trkpt>
      <trkpt lat="47.29842" lon="5.83564">
        <ele>215.6</ele>
        <time>2017-12-21T13:20:52Z</time>
      </trkpt>
      <trkpt lat="47.29843" lon="5.8357">
        <ele>215.6</ele>
        <time>2017-12-21T13:20:53Z</time>
      </trkpt>
      <trkpt lat="47.29844" lon="5.83577">
        <ele>215.6</ele>
        <time>2017-12-21T13:20:54Z</time>
      </trkpt>
      <trkpt lat="47.29845" lon="5.83583">
        <ele>215.6</ele>
        <time>2017-12-21T13:20:55Z</time>
      </trkpt>
      <trkpt lat="47.29846" lon="5.8359">
        <ele>215.6</ele>
        <time>2017-12-21T13:20:56Z</time>
      </trkpt>
      <trkpt lat="47.29847" lon="5.83596">
        <ele>215.6</ele>
        <time>2017-12-21T13:20:57Z</time>
      </trkpt>
      <trkpt lat="47.29848" lon="5.83603">
        <ele>215.6</ele>
        <time>2017-12-21T13:20:58Z</time>
      </trkpt>
      <trkpt lat="47.29848" lon="5.8361">
        <ele>215.6</ele>
        <time>2017-12-21T13:20:59Z</time>
      </trkpt>
      <trkpt lat="47.29849" lon="5.83617">
        <ele>215.6</ele>
        <time>2017-12-21T13:21:00Z</time>
      </trkpt>
      <trkpt lat="47.2985" lon="5.83623">
        <ele>215.6</ele>
        <time>2017-12-21T13:21:01Z</time>
      </trkpt>
      <trkpt lat="47.29851" lon="5.8363">
        <ele>215.6</ele>
        <time>2017-12-21T13:21:02Z</time>
      </trkpt>
      <trkpt lat="47.29851" lon="5.83636">
        <ele>215.6</ele>
        <time>2017-12-21T13:21:03Z</time>
      </trkpt>
      <trkpt lat="47.29852" lon="5.83643">
        <ele>215.6</ele>
        <time>2017-12-21T13:21:04Z</time>
      </trkpt>
      <trkpt lat="47.29853" lon="5.83649">
        <ele>215.6</ele>
        <time>2017-12-21T13:21:05Z</time>
      </trkpt>
      <trkpt lat="47.29854" lon="5.83656">
        <ele>215.6</ele>
        <time>2017-12-21T13:21:06Z</time>
      </trkpt>
      <trkpt lat="47.29855" lon="5.83663">
        <ele>215.6</ele>
        <time>2017-12-21T13:21:07Z</time>
      </trkpt>
      <trkpt lat="47.29856" lon="5.8367">
        <ele>215.6</ele>
        <time>2017-12-21T13:21:08Z</time>
      </trkpt>
      <trkpt lat="47.29857" lon="5.83677">
        <ele>215.6</ele>
        <time>2017-12-21T13:21:09Z</time>
      </trkpt>
      <trkpt lat="47.29858" lon="5.83684">
        <ele>215.6</ele>
        <time>2017-12-21T13:21:10Z</time>
      </trkpt>
      <trkpt lat="47.29859" lon="5.83691">
        <ele>215.6</ele>
        <time>2017-12-21T13:21:11Z</time>
      </trkpt>
      <trkpt lat="47.2986" lon="5.83698">
        <ele>215.6</ele>
        <time>2017-12-21T13:21:12Z</time>
      </trkpt>
      <trkpt lat="47.29861" lon="5.83705">
        <ele>215.6</ele>
        <time>2017-12-21T13:21:13Z</time>
      </trkpt>
      <trkpt lat="47.29862" lon="5.83713">
        <ele>215.6</ele>
        <time>2017-12-21T13:21:14Z</time>
      </trkpt>
      <trkpt lat="47.29862" lon="5.83721">
        <ele>215.6</ele>
        <time>2017-12-21T13:21:15Z</time>
      </trkpt>
      <trkpt lat="47.29862" lon="5.83729">
        <ele>215.6</ele>
        <time>2017-12-21T13:21:16Z</time>
      </trkpt>
      <trkpt lat="47.29863" lon="5.83737">
        <ele>215.6</ele>
        <time>2017-12-21T13:21:17Z</time>
      </trkpt>
      <trkpt lat="47.29864" lon="5.83745">
        <ele>215.6</ele>
        <time>2017-12-21T13:21:18Z</time>
      </trkpt>
      <trkpt lat="47.29864" lon="5.83753">
        <ele>216</ele>
        <time>2017-12-21T13:21:19Z</time>
      </trkpt>
      <trkpt lat="47.29865" lon="5.8376">
        <ele>216.4</ele>
        <time>2017-12-21T13:21:20Z</time>
      </trkpt>
      <trkpt lat="47.29866" lon="5.83768">
        <ele>216.8</ele>
        <time>2017-12-21T13:21:21Z</time>
      </trkpt>
      <trkpt lat="47.29866" lon="5.83776">
        <ele>217.2</ele>
        <time>2017-12-21T13:21:22Z</time>
      </trkpt>
      <trkpt lat="47.29867" lon="5.83784">
        <ele>217.6</ele>
        <time>2017-12-21T13:21:23Z</time>
      </trkpt>
      <trkpt lat="47.29868" lon="5.83791">
        <ele>217.6</ele>
        <time>2017-12-21T13:21:24Z</time>
      </trkpt>
      <trkpt lat="47.29869" lon="5.83798">
        <ele>217.6</ele>
        <time>2017-12-21T13:21:25Z</time>
      </trkpt>
      <trkpt lat="47.2987" lon="5.83806">
        <ele>217.6</ele>
        <time>2017-12-21T13:21:26Z</time>
      </trkpt>
      <trkpt lat="47.2987" lon="5.83812">
        <ele>218</ele>
        <time>2017-12-21T13:21:27Z</time>
      </trkpt>
      <trkpt lat="47.29871" lon="5.83819">
        <ele>218.4</ele>
        <time>2017-12-21T13:21:28Z</time>
      </trkpt>
      <trkpt lat="47.29872" lon="5.83827">
        <ele>218.8</ele>
        <time>2017-12-21T13:21:29Z</time>
      </trkpt>
      <trkpt lat="47.29872" lon="5.83833">
        <ele>219.2</ele>
        <time>2017-12-21T13:21:30Z</time>
      </trkpt>
      <trkpt lat="47.29873" lon="5.8384">
        <ele>219.6</ele>
        <time>2017-12-21T13:21:31Z</time>
      </trkpt>
      <trkpt lat="47.29874" lon="5.83847">
        <ele>219.6</ele>
        <time>2017-12-21T13:21:32Z</time>
      </trkpt>
      <trkpt lat="47.29874" lon="5.83854">
        <ele>219.6</ele>
        <time>2017-12-21T13:21:33Z</time>
      </trkpt>
      <trkpt lat="47.29875" lon="5.8386">
        <ele>219.6</ele>
        <time>2017-12-21T13:21:34Z</time>
      </trkpt>
      <trkpt lat="47.29876" lon="5.83867">
        <ele>219.6</ele>
        <time>2017-12-21T13:21:35Z</time>
      </trkpt>
      <trkpt lat="47.29876" lon="5.83874">
        <ele>219.6</ele>
        <time>2017-12-21T13:21:36Z</time>
      </trkpt>
      <trkpt lat="47.29877" lon="5.83881">
        <ele>219.6</ele>
        <time>2017-12-21T13:21:37Z</time>
      </trkpt>
      <trkpt lat="47.29878" lon="5.83888">
        <ele>220.4</ele>
        <time>2017-12-21T13:21:38Z</time>
      </trkpt>
      <trkpt lat="47.29879" lon="5.83895">
        <ele>220.8</ele>
        <time>2017-12-21T13:21:39Z</time>
      </trkpt>
      <trkpt lat="47.2988" lon="5.83902">
        <ele>221.4</ele>
        <time>2017-12-21T13:21:40Z</time>
      </trkpt>
      <trkpt lat="47.2988" lon="5.83909">
        <ele>221.8</ele>
        <time>2017-12-21T13:21:41Z</time>
      </trkpt>
      <trkpt lat="47.29881" lon="5.83916">
        <ele>221.8</ele>
        <time>2017-12-21T13:21:42Z</time>
      </trkpt>
      <trkpt lat="47.29881" lon="5.83922">
        <ele>221.8</ele>
        <time>2017-12-21T13:21:43Z</time>
      </trkpt>
      <trkpt lat="47.29882" lon="5.8393">
        <ele>221.8</ele>
        <time>2017-12-21T13:21:44Z</time>
      </trkpt>
      <trkpt lat="47.29882" lon="5.83937">
        <ele>221.8</ele>
        <time>2017-12-21T13:21:45Z</time>
      </trkpt>
      <trkpt lat="47.29883" lon="5.83944">
        <ele>221.8</ele>
        <time>2017-12-21T13:21:46Z</time>
      </trkpt>
      <trkpt lat="47.29883" lon="5.83951">
        <ele>221.8</ele>
        <time>2017-12-21T13:21:47Z</time>
      </trkpt>
      <trkpt lat="47.29883" lon="5.83958">
        <ele>221.8</ele>
        <time>2017-12-21T13:21:48Z</time>
      </trkpt>
      <trkpt lat="47.29883" lon="5.83964">
        <ele>221.8</ele>
        <time>2017-12-21T13:21:49Z</time>
      </trkpt>
      <trkpt lat="47.29883" lon="5.8397">
        <ele>221.8</ele>
        <time>2017-12-21T13:21:50Z</time>
      </trkpt>
      <trkpt lat="47.29883" lon="5.83977">
        <ele>221.8</ele>
        <time>2017-12-21T13:21:51Z</time>
      </trkpt>
      <trkpt lat="47.29883" lon="5.83985">
        <ele>221.8</ele>
        <time>2017-12-21T13:21:52Z</time>
      </trkpt>
      <trkpt lat="47.29882" lon="5.83993">
        <ele>221.8</ele>
        <time>2017-12-21T13:21:53Z</time>
      </trkpt>
      <trkpt lat="47.29882" lon="5.84002">
        <ele>221.8</ele>
        <time>2017-12-21T13:21:54Z</time>
      </trkpt>
      <trkpt lat="47.29881" lon="5.84011">
        <ele>221.8</ele>
        <time>2017-12-21T13:21:55Z</time>
      </trkpt>
      <trkpt lat="47.29881" lon="5.8402">
        <ele>221.8</ele>
        <time>2017-12-21T13:21:56Z</time>
      </trkpt>
      <trkpt lat="47.2988" lon="5.8403">
        <ele>221.8</ele>
        <time>2017-12-21T13:21:57Z</time>
      </trkpt>
      <trkpt lat="47.29879" lon="5.8404">
        <ele>221.8</ele>
        <time>2017-12-21T13:21:58Z</time>
      </trkpt>
      <trkpt lat="47.29879" lon="5.84051">
        <ele>221.8</ele>
        <time>2017-12-21T13:21:59Z</time>
      </trkpt>
      <trkpt lat="47.29879" lon="5.84062">
        <ele>221.8</ele>
        <time>2017-12-21T13:22:00Z</time>
      </trkpt>
      <trkpt lat="47.29879" lon="5.84073">
        <ele>221.2</ele>
        <time>2017-12-21T13:22:01Z</time>
      </trkpt>
      <trkpt lat="47.29878" lon="5.84084">
        <ele>220.4</ele>
        <time>2017-12-21T13:22:02Z</time>
      </trkpt>
      <trkpt lat="47.29878" lon="5.84094">
        <ele>220</ele>
        <time>2017-12-21T13:22:03Z</time>
      </trkpt>
      <trkpt lat="47.29878" lon="5.84105">
        <ele>219.4</ele>
        <time>2017-12-21T13:22:04Z</time>
      </trkpt>
      <trkpt lat="47.29878" lon="5.84116">
        <ele>219.4</ele>
        <time>2017-12-21T13:22:05Z</time>
      </trkpt>
      <trkpt lat="47.29878" lon="5.84127">
        <ele>219</ele>
        <time>2017-12-21T13:22:06Z</time>
      </trkpt>
      <trkpt lat="47.29878" lon="5.84139">
        <ele>218.6</ele>
        <time>2017-12-21T13:22:07Z</time>
      </trkpt>
      <trkpt lat="47.29878" lon="5.84151">
        <ele>218.2</ele>
        <time>2017-12-21T13:22:08Z</time>
      </trkpt>
      <trkpt lat="47.29879" lon="5.84163">
        <ele>217.6</ele>
        <time>2017-12-21T13:22:09Z</time>
      </trkpt>
      <trkpt lat="47.2988" lon="5.84175">
        <ele>217.2</ele>
        <time>2017-12-21T13:22:10Z</time>
      </trkpt>
      <trkpt lat="47.29882" lon="5.84187">
        <ele>216.6</ele>
        <time>2017-12-21T13:22:11Z</time>
      </trkpt>
      <trkpt lat="47.29885" lon="5.84199">
        <ele>216</ele>
        <time>2017-12-21T13:22:12Z</time>
      </trkpt>
      <trkpt lat="47.29888" lon="5.84211">
        <ele>215.6</ele>
        <time>2017-12-21T13:22:13Z</time>
      </trkpt>
      <trkpt lat="47.29891" lon="5.84224">
        <ele>215</ele>
        <time>2017-12-21T13:22:14Z</time>
      </trkpt>
      <trkpt lat="47.29894" lon="5.84237">
        <ele>214.6</ele>
        <time>2017-12-21T13:22:15Z</time>
      </trkpt>
      <trkpt lat="47.29897" lon="5.8425">
        <ele>214</ele>
        <time>2017-12-21T13:22:16Z</time>
      </trkpt>
      <trkpt lat="47.299" lon="5.84263">
        <ele>213.6</ele>
        <time>2017-12-21T13:22:17Z</time>
      </trkpt>
      <trkpt lat="47.29904" lon="5.84276">
        <ele>213.2</ele>
        <time>2017-12-21T13:22:18Z</time>
      </trkpt>
      <trkpt lat="47.29907" lon="5.8429">
        <ele>212.6</ele>
        <time>2017-12-21T13:22:19Z</time>
      </trkpt>
      <trkpt lat="47.2991" lon="5.84305">
        <ele>212</ele>
        <time>2017-12-21T13:22:20Z</time>
      </trkpt>
      <trkpt lat="47.29914" lon="5.84318">
        <ele>211.6</ele>
        <time>2017-12-21T13:22:21Z</time>
      </trkpt>
      <trkpt lat="47.29917" lon="5.84333">
        <ele>211</ele>
        <time>2017-12-21T13:22:22Z</time>
      </trkpt>
      <trkpt lat="47.29921" lon="5.84347">
        <ele>210.4</ele>
        <time>2017-12-21T13:22:23Z</time>
      </trkpt>
      <trkpt lat="47.29924" lon="5.8436">
        <ele>210.4</ele>
        <time>2017-12-21T13:22:24Z</time>
      </trkpt>
      <trkpt lat="47.29928" lon="5.84374">
        <ele>210.4</ele>
        <time>2017-12-21T13:22:25Z</time>
      </trkpt>
      <trkpt lat="47.29931" lon="5.84388">
        <ele>210.4</ele>
        <time>2017-12-21T13:22:26Z</time>
      </trkpt>
      <trkpt lat="47.29934" lon="5.84401">
        <ele>210</ele>
        <time>2017-12-21T13:22:27Z</time>
      </trkpt>
      <trkpt lat="47.29937" lon="5.84415">
        <ele>209.4</ele>
        <time>2017-12-21T13:22:28Z</time>
      </trkpt>
      <trkpt lat="47.2994" lon="5.84428">
        <ele>209</ele>
        <time>2017-12-21T13:22:29Z</time>
      </trkpt>
      <trkpt lat="47.29943" lon="5.84441">
        <ele>208.6</ele>
        <time>2017-12-21T13:22:30Z</time>
      </trkpt>
      <trkpt lat="47.29946" lon="5.84454">
        <ele>208</ele>
        <time>2017-12-21T13:22:31Z</time>
      </trkpt>
      <trkpt lat="47.29949" lon="5.84465">
        <ele>208</ele>
        <time>2017-12-21T13:22:32Z</time>
      </trkpt>
      <trkpt lat="47.29952" lon="5.84476">
        <ele>208</ele>
        <time>2017-12-21T13:22:33Z</time>
      </trkpt>
      <trkpt lat="47.29955" lon="5.84487">
        <ele>208</ele>
        <time>2017-12-21T13:22:34Z</time>
      </trkpt>
      <trkpt lat="47.29958" lon="5.84498">
        <ele>208</ele>
        <time>2017-12-21T13:22:35Z</time>
      </trkpt>
      <trkpt lat="47.2996" lon="5.84509">
        <ele>208</ele>
        <time>2017-12-21T13:22:36Z</time>
      </trkpt>
      <trkpt lat="47.29962" lon="5.84521">
        <ele>208</ele>
        <time>2017-12-21T13:22:37Z</time>
      </trkpt>
      <trkpt lat="47.29964" lon="5.84532">
        <ele>208</ele>
        <time>2017-12-21T13:22:38Z</time>
      </trkpt>
      <trkpt lat="47.29965" lon="5.84543">
        <ele>208</ele>
        <time>2017-12-21T13:22:39Z</time>
      </trkpt>
      <trkpt lat="47.29966" lon="5.84554">
        <ele>207.6</ele>
        <time>2017-12-21T13:22:40Z</time>
      </trkpt>
      <trkpt lat="47.29966" lon="5.84565">
        <ele>207.2</ele>
        <time>2017-12-21T13:22:41Z</time>
      </trkpt>
      <trkpt lat="47.29967" lon="5.84576">
        <ele>206.8</ele>
        <time>2017-12-21T13:22:42Z</time>
      </trkpt>
      <trkpt lat="47.29966" lon="5.84587">
        <ele>206.4</ele>
        <time>2017-12-21T13:22:43Z</time>
      </trkpt>
      <trkpt lat="47.29966" lon="5.84599">
        <ele>206</ele>
        <time>2017-12-21T13:22:44Z</time>
      </trkpt>
      <trkpt lat="47.29966" lon="5.8461">
        <ele>206</ele>
        <time>2017-12-21T13:22:45Z</time>
      </trkpt>
      <trkpt lat="47.29965" lon="5.84621">
        <ele>206</ele>
        <time>2017-12-21T13:22:46Z</time>
      </trkpt>
      <trkpt lat="47.29965" lon="5.84632">
        <ele>206</ele>
        <time>2017-12-21T13:22:47Z</time>
      </trkpt>
      <trkpt lat="47.29965" lon="5.84642">
        <ele>206</ele>
        <time>2017-12-21T13:22:48Z</time>
      </trkpt>
      <trkpt lat="47.29964" lon="5.84653">
        <ele>206</ele>
        <time>2017-12-21T13:22:49Z</time>
      </trkpt>
      <trkpt lat="47.29964" lon="5.84664">
        <ele>206</ele>
        <time>2017-12-21T13:22:50Z</time>
      </trkpt>
      <trkpt lat="47.29964" lon="5.84674">
        <ele>206</ele>
        <time>2017-12-21T13:22:51Z</time>
      </trkpt>
      <trkpt lat="47.29964" lon="5.84685">
        <ele>206</ele>
        <time>2017-12-21T13:22:52Z</time>
      </trkpt>
      <trkpt lat="47.29963" lon="5.84696">
        <ele>206</ele>
        <time>2017-12-21T13:22:53Z</time>
      </trkpt>
      <trkpt lat="47.29963" lon="5.84707">
        <ele>206</ele>
        <time>2017-12-21T13:22:54Z</time>
      </trkpt>
      <trkpt lat="47.29963" lon="5.84717">
        <ele>206</ele>
        <time>2017-12-21T13:22:55Z</time>
      </trkpt>
      <trkpt lat="47.29963" lon="5.84728">
        <ele>206</ele>
        <time>2017-12-21T13:22:56Z</time>
      </trkpt>
      <trkpt lat="47.29963" lon="5.84738">
        <ele>206</ele>
        <time>2017-12-21T13:22:57Z</time>
      </trkpt>
      <trkpt lat="47.29963" lon="5.84749">
        <ele>206</ele>
        <time>2017-12-21T13:22:58Z</time>
      </trkpt>
      <trkpt lat="47.29962" lon="5.84759">
        <ele>206</ele>
        <time>2017-12-21T13:22:59Z</time>
      </trkpt>
      <trkpt lat="47.29962" lon="5.84771">
        <ele>206</ele>
        <time>2017-12-21T13:23:00Z</time>
      </trkpt>
      <trkpt lat="47.29962" lon="5.84781">
        <ele>206</ele>
        <time>2017-12-21T13:23:01Z</time>
      </trkpt>
      <trkpt lat="47.29961" lon="5.84792">
        <ele>206</ele>
        <time>2017-12-21T13:23:02Z</time>
      </trkpt>
      <trkpt lat="47.29961" lon="5.84802">
        <ele>206</ele>
        <time>2017-12-21T13:23:03Z</time>
      </trkpt>
      <trkpt lat="47.2996" lon="5.84812">
        <ele>206</ele>
        <time>2017-12-21T13:23:04Z</time>
      </trkpt>
      <trkpt lat="47.2996" lon="5.84823">
        <ele>206</ele>
        <time>2017-12-21T13:23:05Z</time>
      </trkpt>
      <trkpt lat="47.2996" lon="5.84833">
        <ele>206</ele>
        <time>2017-12-21T13:23:06Z</time>
      </trkpt>
      <trkpt lat="47.2996" lon="5.84844">
        <ele>206</ele>
        <time>2017-12-21T13:23:07Z</time>
      </trkpt>
      <trkpt lat="47.29959" lon="5.84854">
        <ele>206</ele>
        <time>2017-12-21T13:23:08Z</time>
      </trkpt>
      <trkpt lat="47.29959" lon="5.84864">
        <ele>206</ele>
        <time>2017-12-21T13:23:09Z</time>
      </trkpt>
      <trkpt lat="47.29958" lon="5.84874">
        <ele>206</ele>
        <time>2017-12-21T13:23:10Z</time>
      </trkpt>
      <trkpt lat="47.29958" lon="5.84884">
        <ele>206</ele>
        <time>2017-12-21T13:23:11Z</time>
      </trkpt>
      <trkpt lat="47.29958" lon="5.84894">
        <ele>206</ele>
        <time>2017-12-21T13:23:12Z</time>
      </trkpt>
      <trkpt lat="47.29957" lon="5.84904">
        <ele>206</ele>
        <time>2017-12-21T13:23:13Z</time>
      </trkpt>
      <trkpt lat="47.29957" lon="5.84914">
        <ele>206</ele>
        <time>2017-12-21T13:23:14Z</time>
      </trkpt>
      <trkpt lat="47.29957" lon="5.84924">
        <ele>206</ele>
        <time>2017-12-21T13:23:15Z</time>
      </trkpt>
      <trkpt lat="47.29957" lon="5.84935">
        <ele>206</ele>
        <time>2017-12-21T13:23:16Z</time>
      </trkpt>
      <trkpt lat="47.29956" lon="5.84945">
        <ele>206</ele>
        <time>2017-12-21T13:23:17Z</time>
      </trkpt>
      <trkpt lat="47.29956" lon="5.84955">
        <ele>206</ele>
        <time>2017-12-21T13:23:18Z</time>
      </trkpt>
      <trkpt lat="47.29956" lon="5.84965">
        <ele>206</ele>
        <time>2017-12-21T13:23:19Z</time>
      </trkpt>
      <trkpt lat="47.29956" lon="5.84975">
        <ele>206</ele>
        <time>2017-12-21T13:23:20Z</time>
      </trkpt>
      <trkpt lat="47.29956" lon="5.84986">
        <ele>206</ele>
        <time>2017-12-21T13:23:21Z</time>
      </trkpt>
      <trkpt lat="47.29956" lon="5.84997">
        <ele>206</ele>
        <time>2017-12-21T13:23:22Z</time>
      </trkpt>
      <trkpt lat="47.29956" lon="5.85007">
        <ele>206</ele>
        <time>2017-12-21T13:23:23Z</time>
      </trkpt>
      <trkpt lat="47.29955" lon="5.85018">
        <ele>206</ele>
        <time>2017-12-21T13:23:24Z</time>
      </trkpt>
      <trkpt lat="47.29955" lon="5.85028">
        <ele>206</ele>
        <time>2017-12-21T13:23:25Z</time>
      </trkpt>
      <trkpt lat="47.29955" lon="5.85038">
        <ele>206</ele>
        <time>2017-12-21T13:23:26Z</time>
      </trkpt>
      <trkpt lat="47.29954" lon="5.85049">
        <ele>206</ele>
        <time>2017-12-21T13:23:27Z</time>
      </trkpt>
      <trkpt lat="47.29954" lon="5.8506">
        <ele>206</ele>
        <time>2017-12-21T13:23:28Z</time>
      </trkpt>
      <trkpt lat="47.29954" lon="5.85071">
        <ele>206</ele>
        <time>2017-12-21T13:23:29Z</time>
      </trkpt>
      <trkpt lat="47.29954" lon="5.85082">
        <ele>206</ele>
        <time>2017-12-21T13:23:30Z</time>
      </trkpt>
      <trkpt lat="47.29954" lon="5.85093">
        <ele>206</ele>
        <time>2017-12-21T13:23:31Z</time>
      </trkpt>
      <trkpt lat="47.29954" lon="5.85103">
        <ele>206</ele>
        <time>2017-12-21T13:23:32Z</time>
      </trkpt>
      <trkpt lat="47.29953" lon="5.85115">
        <ele>206</ele>
        <time>2017-12-21T13:23:33Z</time>
      </trkpt>
      <trkpt lat="47.29953" lon="5.85126">
        <ele>206</ele>
        <time>2017-12-21T13:23:34Z</time>
      </trkpt>
      <trkpt lat="47.29953" lon="5.85137">
        <ele>206</ele>
        <time>2017-12-21T13:23:35Z</time>
      </trkpt>
      <trkpt lat="47.29953" lon="5.85147">
        <ele>206</ele>
        <time>2017-12-21T13:23:36Z</time>
      </trkpt>
      <trkpt lat="47.29954" lon="5.85158">
        <ele>206</ele>
        <time>2017-12-21T13:23:37Z</time>
      </trkpt>
      <trkpt lat="47.29955" lon="5.85169">
        <ele>206</ele>
        <time>2017-12-21T13:23:38Z</time>
      </trkpt>
      <trkpt lat="47.29956" lon="5.8518">
        <ele>206</ele>
        <time>2017-12-21T13:23:39Z</time>
      </trkpt>
      <trkpt lat="47.29958" lon="5.8519">
        <ele>206</ele>
        <time>2017-12-21T13:23:40Z</time>
      </trkpt>
      <trkpt lat="47.29959" lon="5.85201">
        <ele>206</ele>
        <time>2017-12-21T13:23:41Z</time>
      </trkpt>
      <trkpt lat="47.29962" lon="5.85211">
        <ele>206</ele>
        <time>2017-12-21T13:23:42Z</time>
      </trkpt>
      <trkpt lat="47.29964" lon="5.85222">
        <ele>206</ele>
        <time>2017-12-21T13:23:43Z</time>
      </trkpt>
      <trkpt lat="47.29967" lon="5.85232">
        <ele>206</ele>
        <time>2017-12-21T13:23:44Z</time>
      </trkpt>
      <trkpt lat="47.2997" lon="5.85242">
        <ele>206</ele>
        <time>2017-12-21T13:23:45Z</time>
      </trkpt>
      <trkpt lat="47.29974" lon="5.85252">
        <ele>206</ele>
        <time>2017-12-21T13:23:46Z</time>
      </trkpt>
      <trkpt lat="47.29977" lon="5.85261">
        <ele>206</ele>
        <time>2017-12-21T13:23:47Z</time>
      </trkpt>
      <trkpt lat="47.29981" lon="5.8527">
        <ele>206</ele>
        <time>2017-12-21T13:23:48Z</time>
      </trkpt>
      <trkpt lat="47.29985" lon="5.85279">
        <ele>206</ele>
        <time>2017-12-21T13:23:49Z</time>
      </trkpt>
      <trkpt lat="47.29989" lon="5.85287">
        <ele>206</ele>
        <time>2017-12-21T13:23:50Z</time>
      </trkpt>
      <trkpt lat="47.29993" lon="5.85296">
        <ele>206</ele>
        <time>2017-12-21T13:23:51Z</time>
      </trkpt>
      <trkpt lat="47.29998" lon="5.85304">
        <ele>206</ele>
        <time>2017-12-21T13:23:52Z</time>
      </trkpt>
      <trkpt lat="47.30002" lon="5.85312">
        <ele>206</ele>
        <time>2017-12-21T13:23:53Z</time>
      </trkpt>
      <trkpt lat="47.30007" lon="5.8532">
        <ele>206</ele>
        <time>2017-12-21T13:23:54Z</time>
      </trkpt>
      <trkpt lat="47.30012" lon="5.85328">
        <ele>206</ele>
        <time>2017-12-21T13:23:55Z</time>
      </trkpt>
      <trkpt lat="47.30016" lon="5.85336">
        <ele>206</ele>
        <time>2017-12-21T13:23:56Z</time>
      </trkpt>
      <trkpt lat="47.3002" lon="5.85345">
        <ele>206</ele>
        <time>2017-12-21T13:23:57Z</time>
      </trkpt>
      <trkpt lat="47.30025" lon="5.85353">
        <ele>206</ele>
        <time>2017-12-21T13:23:58Z</time>
      </trkpt>
      <trkpt lat="47.30029" lon="5.85361">
        <ele>206</ele>
        <time>2017-12-21T13:23:59Z</time>
      </trkpt>
      <trkpt lat="47.30033" lon="5.85369">
        <ele>206</ele>
        <time>2017-12-21T13:24:00Z</time>
      </trkpt>
      <trkpt lat="47.30038" lon="5.85377">
        <ele>206</ele>
        <time>2017-12-21T13:24:01Z</time>
      </trkpt>
      <trkpt lat="47.30042" lon="5.85385">
        <ele>206</ele>
        <time>2017-12-21T13:24:02Z</time>
      </trkpt>
      <trkpt lat="47.30046" lon="5.85393">
        <ele>206</ele>
        <time>2017-12-21T13:24:03Z</time>
      </trkpt>
      <trkpt lat="47.30051" lon="5.85401">
        <ele>206</ele>
        <time>2017-12-21T13:24:04Z</time>
      </trkpt>
      <trkpt lat="47.30055" lon="5.85409">
        <ele>206</ele>
        <time>2017-12-21T13:24:05Z</time>
      </trkpt>
      <trkpt lat="47.30059" lon="5.85418">
        <ele>206</ele>
        <time>2017-12-21T13:24:06Z</time>
      </trkpt>
      <trkpt lat="47.30064" lon="5.85426">
        <ele>206</ele>
        <time>2017-12-21T13:24:07Z</time>
      </trkpt>
      <trkpt lat="47.30068" lon="5.85435">
        <ele>206</ele>
        <time>2017-12-21T13:24:08Z</time>
      </trkpt>
      <trkpt lat="47.30073" lon="5.85443">
        <ele>206</ele>
        <time>2017-12-21T13:24:09Z</time>
      </trkpt>
      <trkpt lat="47.30078" lon="5.85451">
        <ele>206</ele>
        <time>2017-12-21T13:24:10Z</time>
      </trkpt>
      <trkpt lat="47.30083" lon="5.85458">
        <ele>206</ele>
        <time>2017-12-21T13:24:11Z</time>
      </trkpt>
      <trkpt lat="47.30088" lon="5.85465">
        <ele>206</ele>
        <time>2017-12-21T13:24:12Z</time>
      </trkpt>
      <trkpt lat="47.30094" lon="5.85472">
        <ele>206</ele>
        <time>2017-12-21T13:24:13Z</time>
      </trkpt>
      <trkpt lat="47.301" lon="5.8548">
        <ele>206</ele>
        <time>2017-12-21T13:24:14Z</time>
      </trkpt>
      <trkpt lat="47.30105" lon="5.85487">
        <ele>206</ele>
        <time>2017-12-21T13:24:15Z</time>
      </trkpt>
      <trkpt lat="47.30111" lon="5.85493">
        <ele>206</ele>
        <time>2017-12-21T13:24:16Z</time>
      </trkpt>
      <trkpt lat="47.30117" lon="5.85499">
        <ele>206</ele>
        <time>2017-12-21T13:24:17Z</time>
      </trkpt>
      <trkpt lat="47.30124" lon="5.85505">
        <ele>206</ele>
        <time>2017-12-21T13:24:18Z</time>
      </trkpt>
      <trkpt lat="47.30131" lon="5.85509">
        <ele>206</ele>
        <time>2017-12-21T13:24:19Z</time>
      </trkpt>
      <trkpt lat="47.30137" lon="5.85514">
        <ele>206</ele>
        <time>2017-12-21T13:24:20Z</time>
      </trkpt>
      <trkpt lat="47.30144" lon="5.85518">
        <ele>206</ele>
        <time>2017-12-21T13:24:21Z</time>
      </trkpt>
      <trkpt lat="47.30151" lon="5.85523">
        <ele>206</ele>
        <time>2017-12-21T13:24:22Z</time>
      </trkpt>
      <trkpt lat="47.30158" lon="5.85527">
        <ele>206</ele>
        <time>2017-12-21T13:24:23Z</time>
      </trkpt>
      <trkpt lat="47.30164" lon="5.85532">
        <ele>206</ele>
        <time>2017-12-21T13:24:24Z</time>
      </trkpt>
      <trkpt lat="47.30171" lon="5.85536">
        <ele>206</ele>
        <time>2017-12-21T13:24:25Z</time>
      </trkpt>
      <trkpt lat="47.30178" lon="5.8554">
        <ele>206</ele>
        <time>2017-12-21T13:24:26Z</time>
      </trkpt>
      <trkpt lat="47.30185" lon="5.85544">
        <ele>206</ele>
        <time>2017-12-21T13:24:27Z</time>
      </trkpt>
      <trkpt lat="47.30191" lon="5.85548">
        <ele>206</ele>
        <time>2017-12-21T13:24:28Z</time>
      </trkpt>
      <trkpt lat="47.30199" lon="5.85553">
        <ele>206</ele>
        <time>2017-12-21T13:24:29Z</time>
      </trkpt>
      <trkpt lat="47.30205" lon="5.85558">
        <ele>206</ele>
        <time>2017-12-21T13:24:30Z</time>
      </trkpt>
      <trkpt lat="47.30212" lon="5.85562">
        <ele>206</ele>
        <time>2017-12-21T13:24:31Z</time>
      </trkpt>
      <trkpt lat="47.30219" lon="5.85567">
        <ele>206</ele>
        <time>2017-12-21T13:24:32Z</time>
      </trkpt>
      <trkpt lat="47.30225" lon="5.85572">
        <ele>206</ele>
        <time>2017-12-21T13:24:33Z</time>
      </trkpt>
      <trkpt lat="47.30232" lon="5.85576">
        <ele>206</ele>
        <time>2017-12-21T13:24:34Z</time>
      </trkpt>
      <trkpt lat="47.30239" lon="5.85581">
        <ele>206</ele>
        <time>2017-12-21T13:24:35Z</time>
      </trkpt>
      <trkpt lat="47.30246" lon="5.85586">
        <ele>206</ele>
        <time>2017-12-21T13:24:36Z</time>
      </trkpt>
      <trkpt lat="47.30253" lon="5.85591">
        <ele>206</ele>
        <time>2017-12-21T13:24:37Z</time>
      </trkpt>
      <trkpt lat="47.30259" lon="5.85596">
        <ele>206</ele>
        <time>2017-12-21T13:24:38Z</time>
      </trkpt>
      <trkpt lat="47.30266" lon="5.85601">
        <ele>206</ele>
        <time>2017-12-21T13:24:39Z</time>
      </trkpt>
      <trkpt lat="47.30272" lon="5.85606">
        <ele>206</ele>
        <time>2017-12-21T13:24:40Z</time>
      </trkpt>
      <trkpt lat="47.30279" lon="5.85611">
        <ele>206</ele>
        <time>2017-12-21T13:24:41Z</time>
      </trkpt>
      <trkpt lat="47.30286" lon="5.85616">
        <ele>206</ele>
        <time>2017-12-21T13:24:42Z</time>
      </trkpt>
      <trkpt lat="47.30292" lon="5.85621">
        <ele>206</ele>
        <time>2017-12-21T13:24:43Z</time>
      </trkpt>
      <trkpt lat="47.30299" lon="5.85626">
        <ele>206</ele>
        <time>2017-12-21T13:24:44Z</time>
      </trkpt>
      <trkpt lat="47.30306" lon="5.85631">
        <ele>206</ele>
        <time>2017-12-21T13:24:45Z</time>
      </trkpt>
      <trkpt lat="47.30312" lon="5.85636">
        <ele>206</ele>
        <time>2017-12-21T13:24:46Z</time>
      </trkpt>
      <trkpt lat="47.30318" lon="5.8564">
        <ele>206</ele>
        <time>2017-12-21T13:24:47Z</time>
      </trkpt>
      <trkpt lat="47.30324" lon="5.85645">
        <ele>206</ele>
        <time>2017-12-21T13:24:48Z</time>
      </trkpt>
      <trkpt lat="47.30331" lon="5.8565">
        <ele>206</ele>
        <time>2017-12-21T13:24:49Z</time>
      </trkpt>
      <trkpt lat="47.30337" lon="5.85655">
        <ele>206</ele>
        <time>2017-12-21T13:24:50Z</time>
      </trkpt>
      <trkpt lat="47.30344" lon="5.8566">
        <ele>206</ele>
        <time>2017-12-21T13:24:51Z</time>
      </trkpt>
      <trkpt lat="47.30351" lon="5.85665">
        <ele>206</ele>
        <time>2017-12-21T13:24:52Z</time>
      </trkpt>
      <trkpt lat="47.30357" lon="5.8567">
        <ele>206</ele>
        <time>2017-12-21T13:24:53Z</time>
      </trkpt>
      <trkpt lat="47.30364" lon="5.85675">
        <ele>206</ele>
        <time>2017-12-21T13:24:54Z</time>
      </trkpt>
      <trkpt lat="47.30371" lon="5.8568">
        <ele>206</ele>
        <time>2017-12-21T13:24:55Z</time>
      </trkpt>
      <trkpt lat="47.30378" lon="5.85686">
        <ele>206</ele>
        <time>2017-12-21T13:24:56Z</time>
      </trkpt>
      <trkpt lat="47.30384" lon="5.85691">
        <ele>206</ele>
        <time>2017-12-21T13:24:57Z</time>
      </trkpt>
      <trkpt lat="47.30391" lon="5.85697">
        <ele>206</ele>
        <time>2017-12-21T13:24:58Z</time>
      </trkpt>
      <trkpt lat="47.30398" lon="5.85702">
        <ele>206</ele>
        <time>2017-12-21T13:24:59Z</time>
      </trkpt>
      <trkpt lat="47.30405" lon="5.85708">
        <ele>206</ele>
        <time>2017-12-21T13:25:00Z</time>
      </trkpt>
      <trkpt lat="47.30412" lon="5.85713">
        <ele>206</ele>
        <time>2017-12-21T13:25:01Z</time>
      </trkpt>
      <trkpt lat="47.30418" lon="5.85718">
        <ele>206</ele>
        <time>2017-12-21T13:25:02Z</time>
      </trkpt>
      <trkpt lat="47.30425" lon="5.85723">
        <ele>206</ele>
        <time>2017-12-21T13:25:03Z</time>
      </trkpt>
      <trkpt lat="47.30432" lon="5.85728">
        <ele>206</ele>
        <time>2017-12-21T13:25:04Z</time>
      </trkpt>
      <trkpt lat="47.30439" lon="5.85733">
        <ele>206</ele>
        <time>2017-12-21T13:25:05Z</time>
      </trkpt>
      <trkpt lat="47.30446" lon="5.85738">
        <ele>206</ele>
        <time>2017-12-21T13:25:06Z</time>
      </trkpt>
      <trkpt lat="47.30453" lon="5.85744">
        <ele>206</ele>
        <time>2017-12-21T13:25:07Z</time>
      </trkpt>
      <trkpt lat="47.3046" lon="5.85749">
        <ele>206</ele>
        <time>2017-12-21T13:25:08Z</time>
      </trkpt>
      <trkpt lat="47.30466" lon="5.85754">
        <ele>206</ele>
        <time>2017-12-21T13:25:09Z</time>
      </trkpt>
      <trkpt lat="47.30473" lon="5.8576">
        <ele>206</ele>
        <time>2017-12-21T13:25:10Z</time>
      </trkpt>
      <trkpt lat="47.3048" lon="5.85765">
        <ele>206</ele>
        <time>2017-12-21T13:25:11Z</time>
      </trkpt>
      <trkpt lat="47.30487" lon="5.8577">
        <ele>206</ele>
        <time>2017-12-21T13:25:12Z</time>
      </trkpt>
      <trkpt lat="47.30494" lon="5.85776">
        <ele>206</ele>
        <time>2017-12-21T13:25:13Z</time>
      </trkpt>
      <trkpt lat="47.305" lon="5.85781">
        <ele>206</ele>
        <time>2017-12-21T13:25:14Z</time>
      </trkpt>
      <trkpt lat="47.30506" lon="5.85786">
        <ele>206</ele>
        <time>2017-12-21T13:25:15Z</time>
      </trkpt>
      <trkpt lat="47.30513" lon="5.85791">
        <ele>206</ele>
        <time>2017-12-21T13:25:16Z</time>
      </trkpt>
      <trkpt lat="47.30519" lon="5.85797">
        <ele>206</ele>
        <time>2017-12-21T13:25:17Z</time>
      </trkpt>
      <trkpt lat="47.30525" lon="5.85801">
        <ele>206</ele>
        <time>2017-12-21T13:25:18Z</time>
      </trkpt>
      <trkpt lat="47.30531" lon="5.85807">
        <ele>206</ele>
        <time>2017-12-21T13:25:19Z</time>
      </trkpt>
      <trkpt lat="47.30537" lon="5.85812">
        <ele>206</ele>
        <time>2017-12-21T13:25:20Z</time>
      </trkpt>
      <trkpt lat="47.30544" lon="5.85817">
        <ele>206</ele>
        <time>2017-12-21T13:25:21Z</time>
      </trkpt>
      <trkpt lat="47.3055" lon="5.85823">
        <ele>206</ele>
        <time>2017-12-21T13:25:22Z</time>
      </trkpt>
      <trkpt lat="47.30556" lon="5.85828">
        <ele>206</ele>
        <time>2017-12-21T13:25:23Z</time>
      </trkpt>
      <trkpt lat="47.30562" lon="5.85833">
        <ele>206</ele>
        <time>2017-12-21T13:25:24Z</time>
      </trkpt>
      <trkpt lat="47.30568" lon="5.85839">
        <ele>206</ele>
        <time>2017-12-21T13:25:25Z</time>
      </trkpt>
      <trkpt lat="47.30574" lon="5.85844">
        <ele>206</ele>
        <time>2017-12-21T13:25:26Z</time>
      </trkpt>
      <trkpt lat="47.3058" lon="5.85849">
        <ele>206</ele>
        <time>2017-12-21T13:25:27Z</time>
      </trkpt>
      <trkpt lat="47.30587" lon="5.85855">
        <ele>206</ele>
        <time>2017-12-21T13:25:28Z</time>
      </trkpt>
      <trkpt lat="47.30593" lon="5.85861">
        <ele>206</ele>
        <time>2017-12-21T13:25:29Z</time>
      </trkpt>
      <trkpt lat="47.30599" lon="5.85866">
        <ele>206</ele>
        <time>2017-12-21T13:25:30Z</time>
      </trkpt>
      <trkpt lat="47.30605" lon="5.85872">
        <ele>206</ele>
        <time>2017-12-21T13:25:31Z</time>
      </trkpt>
      <trkpt lat="47.30611" lon="5.85877">
        <ele>206</ele>
        <time>2017-12-21T13:25:32Z</time>
      </trkpt>
      <trkpt lat="47.30617" lon="5.85882">
        <ele>206</ele>
        <time>2017-12-21T13:25:33Z</time>
      </trkpt>
      <trkpt lat="47.30624" lon="5.85887">
        <ele>206</ele>
        <time>2017-12-21T13:25:34Z</time>
      </trkpt>
      <trkpt lat="47.30631" lon="5.8589">
        <ele>206</ele>
        <time>2017-12-21T13:25:35Z</time>
      </trkpt>
      <trkpt lat="47.30638" lon="5.85894">
        <ele>206</ele>
        <time>2017-12-21T13:25:36Z</time>
      </trkpt>
      <trkpt lat="47.30646" lon="5.85896">
        <ele>206</ele>
        <time>2017-12-21T13:25:37Z</time>
      </trkpt>
      <trkpt lat="47.30653" lon="5.85898">
        <ele>206</ele>
        <time>2017-12-21T13:25:38Z</time>
      </trkpt>
      <trkpt lat="47.3066" lon="5.85899">
        <ele>206</ele>
        <time>2017-12-21T13:25:39Z</time>
      </trkpt>
      <trkpt lat="47.30667" lon="5.859">
        <ele>206</ele>
        <time>2017-12-21T13:25:40Z</time>
      </trkpt>
      <trkpt lat="47.30675" lon="5.859">
        <ele>206</ele>
        <time>2017-12-21T13:25:41Z</time>
      </trkpt>
      <trkpt lat="47.30682" lon="5.85899">
        <ele>206</ele>
        <time>2017-12-21T13:25:42Z</time>
      </trkpt>
      <trkpt lat="47.30689" lon="5.85898">
        <ele>206</ele>
        <time>2017-12-21T13:25:43Z</time>
      </trkpt>
      <trkpt lat="47.30697" lon="5.85897">
        <ele>206</ele>
        <time>2017-12-21T13:25:44Z</time>
      </trkpt>
      <trkpt lat="47.30704" lon="5.85896">
        <ele>206</ele>
        <time>2017-12-21T13:25:45Z</time>
      </trkpt>
      <trkpt lat="47.30712" lon="5.85894">
        <ele>206</ele>
        <time>2017-12-21T13:25:46Z</time>
      </trkpt>
      <trkpt lat="47.30719" lon="5.85893">
        <ele>206</ele>
        <time>2017-12-21T13:25:47Z</time>
      </trkpt>
      <trkpt lat="47.30727" lon="5.85892">
        <ele>206</ele>
        <time>2017-12-21T13:25:48Z</time>
      </trkpt>
      <trkpt lat="47.30734" lon="5.85892">
        <ele>206</ele>
        <time>2017-12-21T13:25:49Z</time>
      </trkpt>
      <trkpt lat="47.30741" lon="5.85893">
        <ele>206</ele>
        <time>2017-12-21T13:25:50Z</time>
      </trkpt>
      <trkpt lat="47.30749" lon="5.85895">
        <ele>206</ele>
        <time>2017-12-21T13:25:51Z</time>
      </trkpt>
      <trkpt lat="47.30756" lon="5.85897">
        <ele>206</ele>
        <time>2017-12-21T13:25:52Z</time>
      </trkpt>
      <trkpt lat="47.30763" lon="5.85899">
        <ele>206</ele>
        <time>2017-12-21T13:25:53Z</time>
      </trkpt>
      <trkpt lat="47.3077" lon="5.85901">
        <ele>206</ele>
        <time>2017-12-21T13:25:54Z</time>
      </trkpt>
      <trkpt lat="47.30777" lon="5.85904">
        <ele>206</ele>
        <time>2017-12-21T13:25:55Z</time>
      </trkpt>
      <trkpt lat="47.30784" lon="5.85906">
        <ele>206</ele>
        <time>2017-12-21T13:25:56Z</time>
      </trkpt>
      <trkpt lat="47.30791" lon="5.85909">
        <ele>206</ele>
        <time>2017-12-21T13:25:57Z</time>
      </trkpt>
      <trkpt lat="47.30798" lon="5.85911">
        <ele>206</ele>
        <time>2017-12-21T13:25:58Z</time>
      </trkpt>
      <trkpt lat="47.30805" lon="5.85914">
        <ele>206</ele>
        <time>2017-12-21T13:25:59Z</time>
      </trkpt>
      <trkpt lat="47.30812" lon="5.85917">
        <ele>206</ele>
        <time>2017-12-21T13:26:00Z</time>
      </trkpt>
      <trkpt lat="47.30819" lon="5.8592">
        <ele>206</ele>
        <time>2017-12-21T13:26:01Z</time>
      </trkpt>
      <trkpt lat="47.30825" lon="5.85922">
        <ele>206</ele>
        <time>2017-12-21T13:26:02Z</time>
      </trkpt>
      <trkpt lat="47.30832" lon="5.85925">
        <ele>206</ele>
        <time>2017-12-21T13:26:03Z</time>
      </trkpt>
      <trkpt lat="47.30839" lon="5.85927">
        <ele>206</ele>
        <time>2017-12-21T13:26:04Z</time>
      </trkpt>
      <trkpt lat="47.30846" lon="5.8593">
        <ele>206</ele>
        <time>2017-12-21T13:26:05Z</time>
      </trkpt>
      <trkpt lat="47.30853" lon="5.85933">
        <ele>206</ele>
        <time>2017-12-21T13:26:06Z</time>
      </trkpt>
      <trkpt lat="47.3086" lon="5.85935">
        <ele>206</ele>
        <time>2017-12-21T13:26:07Z</time>
      </trkpt>
      <trkpt lat="47.30867" lon="5.85938">
        <ele>206</ele>
        <time>2017-12-21T13:26:08Z</time>
      </trkpt>
      <trkpt lat="47.30874" lon="5.85941">
        <ele>206</ele>
        <time>2017-12-21T13:26:09Z</time>
      </trkpt>
      <trkpt lat="47.30881" lon="5.85944">
        <ele>206</ele>
        <time>2017-12-21T13:26:10Z</time>
      </trkpt>
      <trkpt lat="47.30888" lon="5.85947">
        <ele>206</ele>
        <time>2017-12-21T13:26:11Z</time>
      </trkpt>
      <trkpt lat="47.30895" lon="5.8595">
        <ele>206</ele>
        <time>2017-12-21T13:26:12Z</time>
      </trkpt>
      <trkpt lat="47.30902" lon="5.85953">
        <ele>206</ele>
        <time>2017-12-21T13:26:13Z</time>
      </trkpt>
      <trkpt lat="47.30909" lon="5.85956">
        <ele>206</ele>
        <time>2017-12-21T13:26:14Z</time>
      </trkpt>
      <trkpt lat="47.30916" lon="5.85959">
        <ele>206</ele>
        <time>2017-12-21T13:26:15Z</time>
      </trkpt>
      <trkpt lat="47.30923" lon="5.85962">
        <ele>206</ele>
        <time>2017-12-21T13:26:16Z</time>
      </trkpt>
      <trkpt lat="47.3093" lon="5.85965">
        <ele>206</ele>
        <time>2017-12-21T13:26:17Z</time>
      </trkpt>
      <trkpt lat="47.30937" lon="5.85968">
        <ele>206</ele>
        <time>2017-12-21T13:26:18Z</time>
      </trkpt>
      <trkpt lat="47.30944" lon="5.85971">
        <ele>206</ele>
        <time>2017-12-21T13:26:19Z</time>
      </trkpt>
      <trkpt lat="47.30951" lon="5.85973">
        <ele>206</ele>
        <time>2017-12-21T13:26:20Z</time>
      </trkpt>
      <trkpt lat="47.30958" lon="5.85976">
        <ele>206</ele>
        <time>2017-12-21T13:26:21Z</time>
      </trkpt>
      <trkpt lat="47.30965" lon="5.85978">
        <ele>206</ele>
        <time>2017-12-21T13:26:22Z</time>
      </trkpt>
      <trkpt lat="47.30973" lon="5.85981">
        <ele>206</ele>
        <time>2017-12-21T13:26:23Z</time>
      </trkpt>
      <trkpt lat="47.3098" lon="5.85984">
        <ele>206</ele>
        <time>2017-12-21T13:26:24Z</time>
      </trkpt>
      <trkpt lat="47.30987" lon="5.85987">
        <ele>206</ele>
        <time>2017-12-21T13:26:25Z</time>
      </trkpt>
      <trkpt lat="47.30994" lon="5.8599">
        <ele>206</ele>
        <time>2017-12-21T13:26:26Z</time>
      </trkpt>
      <trkpt lat="47.31001" lon="5.85993">
        <ele>206</ele>
        <time>2017-12-21T13:26:27Z</time>
      </trkpt>
      <trkpt lat="47.31008" lon="5.85995">
        <ele>206</ele>
        <time>2017-12-21T13:26:28Z</time>
      </trkpt>
      <trkpt lat="47.31016" lon="5.85998">
        <ele>206</ele>
        <time>2017-12-21T13:26:29Z</time>
      </trkpt>
      <trkpt lat="47.31023" lon="5.86001">
        <ele>206</ele>
        <time>2017-12-21T13:26:30Z</time>
      </trkpt>
      <trkpt lat="47.3103" lon="5.86004">
        <ele>206</ele>
        <time>2017-12-21T13:26:31Z</time>
      </trkpt>
      <trkpt lat="47.31037" lon="5.86007">
        <ele>206</ele>
        <time>2017-12-21T13:26:32Z</time>
      </trkpt>
      <trkpt lat="47.31044" lon="5.86011">
        <ele>206</ele>
        <time>2017-12-21T13:26:33Z</time>
      </trkpt>
      <trkpt lat="47.31051" lon="5.86016">
        <ele>206</ele>
        <time>2017-12-21T13:26:34Z</time>
      </trkpt>
      <trkpt lat="47.31058" lon="5.86021">
        <ele>206</ele>
        <time>2017-12-21T13:26:35Z</time>
      </trkpt>
      <trkpt lat="47.31064" lon="5.86027">
        <ele>206</ele>
        <time>2017-12-21T13:26:36Z</time>
      </trkpt>
      <trkpt lat="47.3107" lon="5.86034">
        <ele>206</ele>
        <time>2017-12-21T13:26:37Z</time>
      </trkpt>
      <trkpt lat="47.31076" lon="5.8604">
        <ele>206</ele>
        <time>2017-12-21T13:26:38Z</time>
      </trkpt>
      <trkpt lat="47.31082" lon="5.86047">
        <ele>206</ele>
        <time>2017-12-21T13:26:39Z</time>
      </trkpt>
      <trkpt lat="47.31087" lon="5.86054">
        <ele>206</ele>
        <time>2017-12-21T13:26:40Z</time>
      </trkpt>
      <trkpt lat="47.31093" lon="5.86062">
        <ele>206</ele>
        <time>2017-12-21T13:26:41Z</time>
      </trkpt>
      <trkpt lat="47.31097" lon="5.8607">
        <ele>206</ele>
        <time>2017-12-21T13:26:42Z</time>
      </trkpt>
      <trkpt lat="47.31102" lon="5.86078">
        <ele>206</ele>
        <time>2017-12-21T13:26:43Z</time>
      </trkpt>
      <trkpt lat="47.31107" lon="5.86086">
        <ele>206</ele>
        <time>2017-12-21T13:26:44Z</time>
      </trkpt>
      <trkpt lat="47.31111" lon="5.86094">
        <ele>206</ele>
        <time>2017-12-21T13:26:45Z</time>
      </trkpt>
      <trkpt lat="47.31115" lon="5.86103">
        <ele>206</ele>
        <time>2017-12-21T13:26:46Z</time>
      </trkpt>
      <trkpt lat="47.31119" lon="5.86111">
        <ele>206</ele>
        <time>2017-12-21T13:26:47Z</time>
      </trkpt>
      <trkpt lat="47.31124" lon="5.86118">
        <ele>206</ele>
        <time>2017-12-21T13:26:48Z</time>
      </trkpt>
      <trkpt lat="47.31128" lon="5.86126">
        <ele>206</ele>
        <time>2017-12-21T13:26:49Z</time>
      </trkpt>
      <trkpt lat="47.31132" lon="5.86133">
        <ele>206</ele>
        <time>2017-12-21T13:26:50Z</time>
      </trkpt>
      <trkpt lat="47.31135" lon="5.86141">
        <ele>206</ele>
        <time>2017-12-21T13:26:51Z</time>
      </trkpt>
      <trkpt lat="47.31139" lon="5.86148">
        <ele>206</ele>
        <time>2017-12-21T13:26:52Z</time>
      </trkpt>
      <trkpt lat="47.31143" lon="5.86154">
        <ele>206</ele>
        <time>2017-12-21T13:26:53Z</time>
      </trkpt>
      <trkpt lat="47.31146" lon="5.8616">
        <ele>206</ele>
        <time>2017-12-21T13:26:54Z</time>
      </trkpt>
      <trkpt lat="47.31149" lon="5.86166">
        <ele>206</ele>
        <time>2017-12-21T13:26:55Z</time>
      </trkpt>
      <trkpt lat="47.31152" lon="5.86172">
        <ele>206</ele>
        <time>2017-12-21T13:26:56Z</time>
      </trkpt>
      <trkpt lat="47.31156" lon="5.86178">
        <ele>206</ele>
        <time>2017-12-21T13:26:57Z</time>
      </trkpt>
      <trkpt lat="47.3116" lon="5.86184">
        <ele>206</ele>
        <time>2017-12-21T13:26:58Z</time>
      </trkpt>
      <trkpt lat="47.31164" lon="5.8619">
        <ele>206.4</ele>
        <time>2017-12-21T13:26:59Z</time>
      </trkpt>
      <trkpt lat="47.31168" lon="5.86197">
        <ele>206.8</ele>
        <time>2017-12-21T13:27:00Z</time>
      </trkpt>
      <trkpt lat="47.31173" lon="5.86204">
        <ele>207.2</ele>
        <time>2017-12-21T13:27:01Z</time>
      </trkpt>
      <trkpt lat="47.31177" lon="5.86211">
        <ele>207.8</ele>
        <time>2017-12-21T13:27:02Z</time>
      </trkpt>
      <trkpt lat="47.31181" lon="5.86218">
        <ele>208.2</ele>
        <time>2017-12-21T13:27:03Z</time>
      </trkpt>
      <trkpt lat="47.31186" lon="5.86225">
        <ele>208.2</ele>
        <time>2017-12-21T13:27:04Z</time>
      </trkpt>
      <trkpt lat="47.3119" lon="5.86233">
        <ele>208.2</ele>
        <time>2017-12-21T13:27:05Z</time>
      </trkpt>
      <trkpt lat="47.31195" lon="5.8624">
        <ele>208.2</ele>
        <time>2017-12-21T13:27:06Z</time>
      </trkpt>
      <trkpt lat="47.312" lon="5.86247">
        <ele>208.2</ele>
        <time>2017-12-21T13:27:07Z</time>
      </trkpt>
      <trkpt lat="47.31205" lon="5.86254">
        <ele>208.2</ele>
        <time>2017-12-21T13:27:08Z</time>
      </trkpt>
      <trkpt lat="47.3121" lon="5.86262">
        <ele>208.2</ele>
        <time>2017-12-21T13:27:09Z</time>
      </trkpt>
      <trkpt lat="47.31214" lon="5.86269">
        <ele>208.2</ele>
        <time>2017-12-21T13:27:10Z</time>
      </trkpt>
      <trkpt lat="47.31218" lon="5.86276">
        <ele>208.2</ele>
        <time>2017-12-21T13:27:11Z</time>
      </trkpt>
      <trkpt lat="47.31222" lon="5.86282">
        <ele>208.2</ele>
        <time>2017-12-21T13:27:12Z</time>
      </trkpt>
      <trkpt lat="47.31226" lon="5.86288">
        <ele>208.2</ele>
        <time>2017-12-21T13:27:13Z</time>
      </trkpt>
      <trkpt lat="47.3123" lon="5.86294">
        <ele>208.2</ele>
        <time>2017-12-21T13:27:14Z</time>
      </trkpt>
      <trkpt lat="47.31234" lon="5.863">
        <ele>208.2</ele>
        <time>2017-12-21T13:27:15Z</time>
      </trkpt>
      <trkpt lat="47.31238" lon="5.86306">
        <ele>208.2</ele>
        <time>2017-12-21T13:27:16Z</time>
      </trkpt>
      <trkpt lat="47.31242" lon="5.86313">
        <ele>208.2</ele>
        <time>2017-12-21T13:27:17Z</time>
      </trkpt>
      <trkpt lat="47.31245" lon="5.86319">
        <ele>208.2</ele>
        <time>2017-12-21T13:27:18Z</time>
      </trkpt>
      <trkpt lat="47.31249" lon="5.86325">
        <ele>208.2</ele>
        <time>2017-12-21T13:27:19Z</time>
      </trkpt>
      <trkpt lat="47.31253" lon="5.86331">
        <ele>208.2</ele>
        <time>2017-12-21T13:27:20Z</time>
      </trkpt>
      <trkpt lat="47.31257" lon="5.86337">
        <ele>208.2</ele>
        <time>2017-12-21T13:27:21Z</time>
      </trkpt>
      <trkpt lat="47.31261" lon="5.86344">
        <ele>208.2</ele>
        <time>2017-12-21T13:27:22Z</time>
      </trkpt>
      <trkpt lat="47.31265" lon="5.86351">
        <ele>208.2</ele>
        <time>2017-12-21T13:27:23Z</time>
      </trkpt>
      <trkpt lat="47.31269" lon="5.86358">
        <ele>208.2</ele>
        <time>2017-12-21T13:27:24Z</time>
      </trkpt>
      <trkpt lat="47.31272" lon="5.86365">
        <ele>208.2</ele>
        <time>2017-12-21T13:27:25Z</time>
      </trkpt>
      <trkpt lat="47.31276" lon="5.86371">
        <ele>208.2</ele>
        <time>2017-12-21T13:27:26Z</time>
      </trkpt>
      <trkpt lat="47.31279" lon="5.86378">
        <ele>208.2</ele>
        <time>2017-12-21T13:27:27Z</time>
      </trkpt>
      <trkpt lat="47.31282" lon="5.86385">
        <ele>208.2</ele>
        <time>2017-12-21T13:27:28Z</time>
      </trkpt>
      <trkpt lat="47.31286" lon="5.86393">
        <ele>208.2</ele>
        <time>2017-12-21T13:27:29Z</time>
      </trkpt>
      <trkpt lat="47.3129" lon="5.86401">
        <ele>208.2</ele>
        <time>2017-12-21T13:27:30Z</time>
      </trkpt>
      <trkpt lat="47.31293" lon="5.86408">
        <ele>208.2</ele>
        <time>2017-12-21T13:27:31Z</time>
      </trkpt>
      <trkpt lat="47.31297" lon="5.86416">
        <ele>208.2</ele>
        <time>2017-12-21T13:27:32Z</time>
      </trkpt>
      <trkpt lat="47.31301" lon="5.86423">
        <ele>208.2</ele>
        <time>2017-12-21T13:27:33Z</time>
      </trkpt>
      <trkpt lat="47.31304" lon="5.8643">
        <ele>208.2</ele>
        <time>2017-12-21T13:27:34Z</time>
      </trkpt>
      <trkpt lat="47.31308" lon="5.86438">
        <ele>208.2</ele>
        <time>2017-12-21T13:27:35Z</time>
      </trkpt>
      <trkpt lat="47.31311" lon="5.86446">
        <ele>208.2</ele>
        <time>2017-12-21T13:27:36Z</time>
      </trkpt>
      <trkpt lat="47.31314" lon="5.86454">
        <ele>208.2</ele>
        <time>2017-12-21T13:27:37Z</time>
      </trkpt>
      <trkpt lat="47.31317" lon="5.86462">
        <ele>208.2</ele>
        <time>2017-12-21T13:27:38Z</time>
      </trkpt>
      <trkpt lat="47.3132" lon="5.8647">
        <ele>208.2</ele>
        <time>2017-12-21T13:27:39Z</time>
      </trkpt>
      <trkpt lat="47.31323" lon="5.86477">
        <ele>208.2</ele>
        <time>2017-12-21T13:27:40Z</time>
      </trkpt>
      <trkpt lat="47.31326" lon="5.86485">
        <ele>208.2</ele>
        <time>2017-12-21T13:27:41Z</time>
      </trkpt>
      <trkpt lat="47.31329" lon="5.86493">
        <ele>208.2</ele>
        <time>2017-12-21T13:27:42Z</time>
      </trkpt>
      <trkpt lat="47.31332" lon="5.865">
        <ele>208.2</ele>
        <time>2017-12-21T13:27:43Z</time>
      </trkpt>
      <trkpt lat="47.31335" lon="5.86508">
        <ele>208.2</ele>
        <time>2017-12-21T13:27:44Z</time>
      </trkpt>
      <trkpt lat="47.31339" lon="5.86515">
        <ele>208.2</ele>
        <time>2017-12-21T13:27:45Z</time>
      </trkpt>
      <trkpt lat="47.31343" lon="5.86522">
        <ele>208.2</ele>
        <time>2017-12-21T13:27:46Z</time>
      </trkpt>
      <trkpt lat="47.31346" lon="5.8653">
        <ele>208.2</ele>
        <time>2017-12-21T13:27:47Z</time>
      </trkpt>
      <trkpt lat="47.31349" lon="5.86537">
        <ele>208.2</ele>
        <time>2017-12-21T13:27:48Z</time>
      </trkpt>
      <trkpt lat="47.31352" lon="5.86545">
        <ele>208.2</ele>
        <time>2017-12-21T13:27:49Z</time>
      </trkpt>
      <trkpt lat="47.31356" lon="5.86552">
        <ele>208.2</ele>
        <time>2017-12-21T13:27:50Z</time>
      </trkpt>
      <trkpt lat="47.31359" lon="5.86559">
        <ele>208.2</ele>
        <time>2017-12-21T13:27:51Z</time>
      </trkpt>
      <trkpt lat="47.31362" lon="5.86566">
        <ele>208.2</ele>
        <time>2017-12-21T13:27:52Z</time>
      </trkpt>
      <trkpt lat="47.31366" lon="5.86574">
        <ele>208.2</ele>
        <time>2017-12-21T13:27:53Z</time>
      </trkpt>
      <trkpt lat="47.31369" lon="5.86581">
        <ele>208.2</ele>
        <time>2017-12-21T13:27:54Z</time>
      </trkpt>
      <trkpt lat="47.31372" lon="5.86589">
        <ele>208.2</ele>
        <time>2017-12-21T13:27:55Z</time>
      </trkpt>
      <trkpt lat="47.31374" lon="5.86597">
        <ele>208.2</ele>
        <time>2017-12-21T13:27:56Z</time>
      </trkpt>
      <trkpt lat="47.31377" lon="5.86605">
        <ele>208.2</ele>
        <time>2017-12-21T13:27:57Z</time>
      </trkpt>
      <trkpt lat="47.3138" lon="5.86614">
        <ele>208.2</ele>
        <time>2017-12-21T13:27:58Z</time>
      </trkpt>
      <trkpt lat="47.31383" lon="5.86623">
        <ele>208.2</ele>
        <time>2017-12-21T13:27:59Z</time>
      </trkpt>
      <trkpt lat="47.31385" lon="5.86631">
        <ele>208.2</ele>
        <time>2017-12-21T13:28:00Z</time>
      </trkpt>
      <trkpt lat="47.31388" lon="5.8664">
        <ele>208.2</ele>
        <time>2017-12-21T13:28:01Z</time>
      </trkpt>
      <trkpt lat="47.31391" lon="5.86648">
        <ele>208.2</ele>
        <time>2017-12-21T13:28:02Z</time>
      </trkpt>
      <trkpt lat="47.31394" lon="5.86655">
        <ele>208.2</ele>
        <time>2017-12-21T13:28:03Z</time>
      </trkpt>
      <trkpt lat="47.31396" lon="5.86663">
        <ele>208.2</ele>
        <time>2017-12-21T13:28:04Z</time>
      </trkpt>
      <trkpt lat="47.31399" lon="5.8667">
        <ele>208.2</ele>
        <time>2017-12-21T13:28:05Z</time>
      </trkpt>
      <trkpt lat="47.31401" lon="5.86676">
        <ele>208.2</ele>
        <time>2017-12-21T13:28:06Z</time>
      </trkpt>
      <trkpt lat="47.31402" lon="5.86682">
        <ele>208.2</ele>
        <time>2017-12-21T13:28:07Z</time>
      </trkpt>
      <trkpt lat="47.31402" lon="5.86686">
        <ele>208.2</ele>
        <time>2017-12-21T13:28:08Z</time>
      </trkpt>
      <trkpt lat="47.31402" lon="5.86691">
        <ele>208.2</ele>
        <time>2017-12-21T13:28:09Z</time>
      </trkpt>
      <trkpt lat="47.31403" lon="5.86696">
        <ele>208.2</ele>
        <time>2017-12-21T13:28:10Z</time>
      </trkpt>
      <trkpt lat="47.31405" lon="5.867">
        <ele>208.2</ele>
        <time>2017-12-21T13:28:11Z</time>
      </trkpt>
      <trkpt lat="47.31407" lon="5.86704">
        <ele>208.2</ele>
        <time>2017-12-21T13:28:12Z</time>
      </trkpt>
      <trkpt lat="47.3141" lon="5.86707">
        <ele>208.2</ele>
        <time>2017-12-21T13:28:13Z</time>
      </trkpt>
      <trkpt lat="47.31414" lon="5.86709">
        <ele>208.2</ele>
        <time>2017-12-21T13:28:14Z</time>
      </trkpt>
      <trkpt lat="47.31417" lon="5.86711">
        <ele>208.2</ele>
        <time>2017-12-21T13:28:15Z</time>
      </trkpt>
      <trkpt lat="47.31421" lon="5.86714">
        <ele>208.2</ele>
        <time>2017-12-21T13:28:16Z</time>
      </trkpt>
      <trkpt lat="47.31425" lon="5.86718">
        <ele>208.2</ele>
        <time>2017-12-21T13:28:17Z</time>
      </trkpt>
      <trkpt lat="47.31427" lon="5.86724">
        <ele>208.2</ele>
        <time>2017-12-21T13:28:18Z</time>
      </trkpt>
      <trkpt lat="47.31429" lon="5.86731">
        <ele>208.2</ele>
        <time>2017-12-21T13:28:19Z</time>
      </trkpt>
      <trkpt lat="47.31431" lon="5.86739">
        <ele>208.2</ele>
        <time>2017-12-21T13:28:20Z</time>
      </trkpt>
      <trkpt lat="47.31433" lon="5.86747">
        <ele>208.2</ele>
        <time>2017-12-21T13:28:21Z</time>
      </trkpt>
      <trkpt lat="47.31435" lon="5.86755">
        <ele>208.2</ele>
        <time>2017-12-21T13:28:22Z</time>
      </trkpt>
      <trkpt lat="47.31437" lon="5.86763">
        <ele>208.2</ele>
        <time>2017-12-21T13:28:23Z</time>
      </trkpt>
      <trkpt lat="47.3144" lon="5.86771">
        <ele>208.2</ele>
        <time>2017-12-21T13:28:24Z</time>
      </trkpt>
      <trkpt lat="47.31442" lon="5.8678">
        <ele>208.2</ele>
        <time>2017-12-21T13:28:25Z</time>
      </trkpt>
      <trkpt lat="47.31444" lon="5.86789">
        <ele>208.2</ele>
        <time>2017-12-21T13:28:26Z</time>
      </trkpt>
      <trkpt lat="47.31445" lon="5.86798">
        <ele>208.2</ele>
        <time>2017-12-21T13:28:27Z</time>
      </trkpt>
      <trkpt lat="47.31447" lon="5.86807">
        <ele>208.2</ele>
        <time>2017-12-21T13:28:28Z</time>
      </trkpt>
      <trkpt lat="47.31449" lon="5.86816">
        <ele>208.2</ele>
        <time>2017-12-21T13:28:29Z</time>
      </trkpt>
      <trkpt lat="47.3145" lon="5.86826">
        <ele>208.2</ele>
        <time>2017-12-21T13:28:30Z</time>
      </trkpt>
      <trkpt lat="47.3145" lon="5.86835">
        <ele>207.8</ele>
        <time>2017-12-21T13:28:31Z</time>
      </trkpt>
      <trkpt lat="47.3145" lon="5.86844">
        <ele>207.4</ele>
        <time>2017-12-21T13:28:32Z</time>
      </trkpt>
      <trkpt lat="47.3145" lon="5.86854">
        <ele>207</ele>
        <time>2017-12-21T13:28:33Z</time>
      </trkpt>
      <trkpt lat="47.3145" lon="5.86863">
        <ele>206.6</ele>
        <time>2017-12-21T13:28:34Z</time>
      </trkpt>
      <trkpt lat="47.31448" lon="5.86873">
        <ele>206.2</ele>
        <time>2017-12-21T13:28:35Z</time>
      </trkpt>
      <trkpt lat="47.31446" lon="5.86883">
        <ele>206.2</ele>
        <time>2017-12-21T13:28:36Z</time>
      </trkpt>
      <trkpt lat="47.31444" lon="5.86892">
        <ele>206.2</ele>
        <time>2017-12-21T13:28:37Z</time>
      </trkpt>
      <trkpt lat="47.31441" lon="5.86902">
        <ele>206.2</ele>
        <time>2017-12-21T13:28:38Z</time>
      </trkpt>
      <trkpt lat="47.31439" lon="5.86911">
        <ele>206.2</ele>
        <time>2017-12-21T13:28:39Z</time>
      </trkpt>
      <trkpt lat="47.31437" lon="5.8692">
        <ele>206.2</ele>
        <time>2017-12-21T13:28:40Z</time>
      </trkpt>
      <trkpt lat="47.31435" lon="5.86929">
        <ele>206.2</ele>
        <time>2017-12-21T13:28:41Z</time>
      </trkpt>
      <trkpt lat="47.31434" lon="5.86938">
        <ele>206.2</ele>
        <time>2017-12-21T13:28:42Z</time>
      </trkpt>
      <trkpt lat="47.31432" lon="5.86946">
        <ele>206.2</ele>
        <time>2017-12-21T13:28:43Z</time>
      </trkpt>
      <trkpt lat="47.31431" lon="5.86956">
        <ele>206.2</ele>
        <time>2017-12-21T13:28:44Z</time>
      </trkpt>
      <trkpt lat="47.3143" lon="5.86965">
        <ele>206.2</ele>
        <time>2017-12-21T13:28:45Z</time>
      </trkpt>
      <trkpt lat="47.31428" lon="5.86974">
        <ele>206.2</ele>
        <time>2017-12-21T13:28:46Z</time>
      </trkpt>
      <trkpt lat="47.31427" lon="5.86983">
        <ele>206.2</ele>
        <time>2017-12-21T13:28:47Z</time>
      </trkpt>
      <trkpt lat="47.31425" lon="5.86992">
        <ele>206.2</ele>
        <time>2017-12-21T13:28:48Z</time>
      </trkpt>
      <trkpt lat="47.31423" lon="5.87001">
        <ele>206.2</ele>
        <time>2017-12-21T13:28:49Z</time>
      </trkpt>
      <trkpt lat="47.31421" lon="5.87011">
        <ele>206.2</ele>
        <time>2017-12-21T13:28:50Z</time>
      </trkpt>
      <trkpt lat="47.3142" lon="5.8702">
        <ele>206.2</ele>
        <time>2017-12-21T13:28:51Z</time>
      </trkpt>
      <trkpt lat="47.31418" lon="5.87029">
        <ele>206.2</ele>
        <time>2017-12-21T13:28:52Z</time>
      </trkpt>
      <trkpt lat="47.31415" lon="5.87038">
        <ele>206.2</ele>
        <time>2017-12-21T13:28:53Z</time>
      </trkpt>
      <trkpt lat="47.31414" lon="5.87046">
        <ele>206.2</ele>
        <time>2017-12-21T13:28:54Z</time>
      </trkpt>
      <trkpt lat="47.31411" lon="5.87055">
        <ele>206.2</ele>
        <time>2017-12-21T13:28:55Z</time>
      </trkpt>
      <trkpt lat="47.31408" lon="5.87063">
        <ele>206.2</ele>
        <time>2017-12-21T13:28:56Z</time>
      </trkpt>
      <trkpt lat="47.31406" lon="5.8707">
        <ele>206.2</ele>
        <time>2017-12-21T13:28:57Z</time>
      </trkpt>
      <trkpt lat="47.31404" lon="5.87077">
        <ele>206.2</ele>
        <time>2017-12-21T13:28:58Z</time>
      </trkpt>
      <trkpt lat="47.31402" lon="5.87085">
        <ele>206.2</ele>
        <time>2017-12-21T13:28:59Z</time>
      </trkpt>
      <trkpt lat="47.314" lon="5.87092">
        <ele>206.2</ele>
        <time>2017-12-21T13:29:00Z</time>
      </trkpt>
      <trkpt lat="47.31398" lon="5.87099">
        <ele>206.2</ele>
        <time>2017-12-21T13:29:01Z</time>
      </trkpt>
      <trkpt lat="47.31395" lon="5.87106">
        <ele>206.2</ele>
        <time>2017-12-21T13:29:02Z</time>
      </trkpt>
      <trkpt lat="47.31392" lon="5.87113">
        <ele>206.6</ele>
        <time>2017-12-21T13:29:03Z</time>
      </trkpt>
      <trkpt lat="47.31389" lon="5.87119">
        <ele>207</ele>
        <time>2017-12-21T13:29:04Z</time>
      </trkpt>
      <trkpt lat="47.31386" lon="5.87125">
        <ele>207.4</ele>
        <time>2017-12-21T13:29:05Z</time>
      </trkpt>
      <trkpt lat="47.31383" lon="5.87132">
        <ele>207.8</ele>
        <time>2017-12-21T13:29:06Z</time>
      </trkpt>
      <trkpt lat="47.3138" lon="5.87138">
        <ele>208.2</ele>
        <time>2017-12-21T13:29:07Z</time>
      </trkpt>
      <trkpt lat="47.31377" lon="5.87144">
        <ele>208.2</ele>
        <time>2017-12-21T13:29:08Z</time>
      </trkpt>
      <trkpt lat="47.31374" lon="5.87149">
        <ele>208.2</ele>
        <time>2017-12-21T13:29:09Z</time>
      </trkpt>
      <trkpt lat="47.31371" lon="5.87155">
        <ele>208.2</ele>
        <time>2017-12-21T13:29:10Z</time>
      </trkpt>
      <trkpt lat="47.31368" lon="5.87161">
        <ele>208.6</ele>
        <time>2017-12-21T13:29:11Z</time>
      </trkpt>
      <trkpt lat="47.31366" lon="5.87167">
        <ele>209.2</ele>
        <time>2017-12-21T13:29:12Z</time>
      </trkpt>
      <trkpt lat="47.31364" lon="5.87173">
        <ele>209.6</ele>
        <time>2017-12-21T13:29:13Z</time>
      </trkpt>
      <trkpt lat="47.31362" lon="5.87179">
        <ele>210</ele>
        <time>2017-12-21T13:29:14Z</time>
      </trkpt>
      <trkpt lat="47.3136" lon="5.87185">
        <ele>210.4</ele>
        <time>2017-12-21T13:29:15Z</time>
      </trkpt>
      <trkpt lat="47.31359" lon="5.87192">
        <ele>210.4</ele>
        <time>2017-12-21T13:29:16Z</time>
      </trkpt>
      <trkpt lat="47.31358" lon="5.87199">
        <ele>210.4</ele>
        <time>2017-12-21T13:29:17Z</time>
      </trkpt>
      <trkpt lat="47.31357" lon="5.87207">
        <ele>210.4</ele>
        <time>2017-12-21T13:29:18Z</time>
      </trkpt>
      <trkpt lat="47.31356" lon="5.87215">
        <ele>210.4</ele>
        <time>2017-12-21T13:29:19Z</time>
      </trkpt>
      <trkpt lat="47.31355" lon="5.87225">
        <ele>210.4</ele>
        <time>2017-12-21T13:29:20Z</time>
      </trkpt>
      <trkpt lat="47.31355" lon="5.87234">
        <ele>210.4</ele>
        <time>2017-12-21T13:29:21Z</time>
      </trkpt>
      <trkpt lat="47.31355" lon="5.87245">
        <ele>210.4</ele>
        <time>2017-12-21T13:29:22Z</time>
      </trkpt>
      <trkpt lat="47.31355" lon="5.87254">
        <ele>210.4</ele>
        <time>2017-12-21T13:29:23Z</time>
      </trkpt>
      <trkpt lat="47.31355" lon="5.87264">
        <ele>210.4</ele>
        <time>2017-12-21T13:29:24Z</time>
      </trkpt>
      <trkpt lat="47.31355" lon="5.87274">
        <ele>210.4</ele>
        <time>2017-12-21T13:29:25Z</time>
      </trkpt>
      <trkpt lat="47.31355" lon="5.87284">
        <ele>210.4</ele>
        <time>2017-12-21T13:29:26Z</time>
      </trkpt>
      <trkpt lat="47.31354" lon="5.87295">
        <ele>210.4</ele>
        <time>2017-12-21T13:29:27Z</time>
      </trkpt>
      <trkpt lat="47.31354" lon="5.87305">
        <ele>210.4</ele>
        <time>2017-12-21T13:29:28Z</time>
      </trkpt>
      <trkpt lat="47.31354" lon="5.87315">
        <ele>210.4</ele>
        <time>2017-12-21T13:29:29Z</time>
      </trkpt>
      <trkpt lat="47.31354" lon="5.87326">
        <ele>210.4</ele>
        <time>2017-12-21T13:29:30Z</time>
      </trkpt>
      <trkpt lat="47.31354" lon="5.87337">
        <ele>210.4</ele>
        <time>2017-12-21T13:29:31Z</time>
      </trkpt>
      <trkpt lat="47.31354" lon="5.87347">
        <ele>210.4</ele>
        <time>2017-12-21T13:29:32Z</time>
      </trkpt>
      <trkpt lat="47.31354" lon="5.87357">
        <ele>210.4</ele>
        <time>2017-12-21T13:29:33Z</time>
      </trkpt>
      <trkpt lat="47.31354" lon="5.87366">
        <ele>210.4</ele>
        <time>2017-12-21T13:29:34Z</time>
      </trkpt>
      <trkpt lat="47.31354" lon="5.87375">
        <ele>210.4</ele>
        <time>2017-12-21T13:29:35Z</time>
      </trkpt>
      <trkpt lat="47.31354" lon="5.87384">
        <ele>210.4</ele>
        <time>2017-12-21T13:29:36Z</time>
      </trkpt>
      <trkpt lat="47.31354" lon="5.87393">
        <ele>210.4</ele>
        <time>2017-12-21T13:29:37Z</time>
      </trkpt>
      <trkpt lat="47.31355" lon="5.87402">
        <ele>210.4</ele>
        <time>2017-12-21T13:29:38Z</time>
      </trkpt>
      <trkpt lat="47.31355" lon="5.87411">
        <ele>210.4</ele>
        <time>2017-12-21T13:29:39Z</time>
      </trkpt>
      <trkpt lat="47.31356" lon="5.87419">
        <ele>210.4</ele>
        <time>2017-12-21T13:29:40Z</time>
      </trkpt>
      <trkpt lat="47.31357" lon="5.87428">
        <ele>210.4</ele>
        <time>2017-12-21T13:29:41Z</time>
      </trkpt>
      <trkpt lat="47.31357" lon="5.87436">
        <ele>210.4</ele>
        <time>2017-12-21T13:29:42Z</time>
      </trkpt>
      <trkpt lat="47.31358" lon="5.87445">
        <ele>210.4</ele>
        <time>2017-12-21T13:29:43Z</time>
      </trkpt>
      <trkpt lat="47.3136" lon="5.87453">
        <ele>210.4</ele>
        <time>2017-12-21T13:29:44Z</time>
      </trkpt>
      <trkpt lat="47.31361" lon="5.87461">
        <ele>210.4</ele>
        <time>2017-12-21T13:29:45Z</time>
      </trkpt>
      <trkpt lat="47.31363" lon="5.87469">
        <ele>210.4</ele>
        <time>2017-12-21T13:29:46Z</time>
      </trkpt>
      <trkpt lat="47.31365" lon="5.87477">
        <ele>210.4</ele>
        <time>2017-12-21T13:29:47Z</time>
      </trkpt>
      <trkpt lat="47.31366" lon="5.87485">
        <ele>210.4</ele>
        <time>2017-12-21T13:29:48Z</time>
      </trkpt>
      <trkpt lat="47.31368" lon="5.87494">
        <ele>210.4</ele>
        <time>2017-12-21T13:29:49Z</time>
      </trkpt>
      <trkpt lat="47.3137" lon="5.87502">
        <ele>210.4</ele>
        <time>2017-12-21T13:29:50Z</time>
      </trkpt>
      <trkpt lat="47.31372" lon="5.8751">
        <ele>210.4</ele>
        <time>2017-12-21T13:29:51Z</time>
      </trkpt>
      <trkpt lat="47.31374" lon="5.87519">
        <ele>210.4</ele>
        <time>2017-12-21T13:29:52Z</time>
      </trkpt>
      <trkpt lat="47.31376" lon="5.87528">
        <ele>210.4</ele>
        <time>2017-12-21T13:29:53Z</time>
      </trkpt>
      <trkpt lat="47.31378" lon="5.87536">
        <ele>210.4</ele>
        <time>2017-12-21T13:29:54Z</time>
      </trkpt>
      <trkpt lat="47.31379" lon="5.87545">
        <ele>210.4</ele>
        <time>2017-12-21T13:29:55Z</time>
      </trkpt>
      <trkpt lat="47.31381" lon="5.87553">
        <ele>210.4</ele>
        <time>2017-12-21T13:29:56Z</time>
      </trkpt>
      <trkpt lat="47.31382" lon="5.87561">
        <ele>210.4</ele>
        <time>2017-12-21T13:29:57Z</time>
      </trkpt>
      <trkpt lat="47.31384" lon="5.8757">
        <ele>210.4</ele>
        <time>2017-12-21T13:29:58Z</time>
      </trkpt>
      <trkpt lat="47.31385" lon="5.87578">
        <ele>210.4</ele>
        <time>2017-12-21T13:29:59Z</time>
      </trkpt>
      <trkpt lat="47.31387" lon="5.87587">
        <ele>210.4</ele>
        <time>2017-12-21T13:30:00Z</time>
      </trkpt>
      <trkpt lat="47.31388" lon="5.87595">
        <ele>210.4</ele>
        <time>2017-12-21T13:30:01Z</time>
      </trkpt>
      <trkpt lat="47.31389" lon="5.87604">
        <ele>210.4</ele>
        <time>2017-12-21T13:30:02Z</time>
      </trkpt>
      <trkpt lat="47.3139" lon="5.87612">
        <ele>210.4</ele>
        <time>2017-12-21T13:30:03Z</time>
      </trkpt>
      <trkpt lat="47.31391" lon="5.8762">
        <ele>210.4</ele>
        <time>2017-12-21T13:30:04Z</time>
      </trkpt>
      <trkpt lat="47.31392" lon="5.87629">
        <ele>210.4</ele>
        <time>2017-12-21T13:30:05Z</time>
      </trkpt>
      <trkpt lat="47.31392" lon="5.87637">
        <ele>210.4</ele>
        <time>2017-12-21T13:30:06Z</time>
      </trkpt>
      <trkpt lat="47.31393" lon="5.87645">
        <ele>210.4</ele>
        <time>2017-12-21T13:30:07Z</time>
      </trkpt>
      <trkpt lat="47.31393" lon="5.87653">
        <ele>210.4</ele>
        <time>2017-12-21T13:30:08Z</time>
      </trkpt>
      <trkpt lat="47.31393" lon="5.87662">
        <ele>210.4</ele>
        <time>2017-12-21T13:30:09Z</time>
      </trkpt>
      <trkpt lat="47.31394" lon="5.8767">
        <ele>210.4</ele>
        <time>2017-12-21T13:30:10Z</time>
      </trkpt>
      <trkpt lat="47.31395" lon="5.87678">
        <ele>211</ele>
        <time>2017-12-21T13:30:11Z</time>
      </trkpt>
      <trkpt lat="47.31396" lon="5.87686">
        <ele>211.4</ele>
        <time>2017-12-21T13:30:12Z</time>
      </trkpt>
      <trkpt lat="47.31397" lon="5.87694">
        <ele>211.8</ele>
        <time>2017-12-21T13:30:13Z</time>
      </trkpt>
      <trkpt lat="47.31399" lon="5.87703">
        <ele>212.2</ele>
        <time>2017-12-21T13:30:14Z</time>
      </trkpt>
      <trkpt lat="47.31401" lon="5.87711">
        <ele>212.6</ele>
        <time>2017-12-21T13:30:15Z</time>
      </trkpt>
      <trkpt lat="47.31403" lon="5.8772">
        <ele>212.6</ele>
        <time>2017-12-21T13:30:16Z</time>
      </trkpt>
      <trkpt lat="47.31406" lon="5.87728">
        <ele>212.6</ele>
        <time>2017-12-21T13:30:17Z</time>
      </trkpt>
      <trkpt lat="47.31408" lon="5.87736">
        <ele>212.6</ele>
        <time>2017-12-21T13:30:18Z</time>
      </trkpt>
      <trkpt lat="47.31411" lon="5.87743">
        <ele>212.6</ele>
        <time>2017-12-21T13:30:19Z</time>
      </trkpt>
      <trkpt lat="47.31413" lon="5.87751">
        <ele>212.6</ele>
        <time>2017-12-21T13:30:20Z</time>
      </trkpt>
      <trkpt lat="47.31416" lon="5.87758">
        <ele>212.6</ele>
        <time>2017-12-21T13:30:21Z</time>
      </trkpt>
      <trkpt lat="47.31418" lon="5.87766">
        <ele>212.6</ele>
        <time>2017-12-21T13:30:22Z</time>
      </trkpt>
      <trkpt lat="47.31421" lon="5.87774">
        <ele>212.6</ele>
        <time>2017-12-21T13:30:23Z</time>
      </trkpt>
      <trkpt lat="47.31424" lon="5.87782">
        <ele>212.6</ele>
        <time>2017-12-21T13:30:24Z</time>
      </trkpt>
      <trkpt lat="47.31426" lon="5.87789">
        <ele>212.6</ele>
        <time>2017-12-21T13:30:25Z</time>
      </trkpt>
      <trkpt lat="47.31429" lon="5.87797">
        <ele>212.6</ele>
        <time>2017-12-21T13:30:26Z</time>
      </trkpt>
      <trkpt lat="47.31432" lon="5.87804">
        <ele>212.6</ele>
        <time>2017-12-21T13:30:27Z</time>
      </trkpt>
      <trkpt lat="47.31434" lon="5.87812">
        <ele>212.6</ele>
        <time>2017-12-21T13:30:28Z</time>
      </trkpt>
      <trkpt lat="47.31437" lon="5.8782">
        <ele>213</ele>
        <time>2017-12-21T13:30:29Z</time>
      </trkpt>
      <trkpt lat="47.31439" lon="5.87828">
        <ele>213.4</ele>
        <time>2017-12-21T13:30:30Z</time>
      </trkpt>
      <trkpt lat="47.31442" lon="5.87836">
        <ele>213.8</ele>
        <time>2017-12-21T13:30:31Z</time>
      </trkpt>
      <trkpt lat="47.31444" lon="5.87843">
        <ele>214.2</ele>
        <time>2017-12-21T13:30:32Z</time>
      </trkpt>
      <trkpt lat="47.31447" lon="5.87851">
        <ele>214.6</ele>
        <time>2017-12-21T13:30:33Z</time>
      </trkpt>
      <trkpt lat="47.3145" lon="5.87858">
        <ele>214.6</ele>
        <time>2017-12-21T13:30:34Z</time>
      </trkpt>
      <trkpt lat="47.31453" lon="5.87866">
        <ele>214.6</ele>
        <time>2017-12-21T13:30:35Z</time>
      </trkpt>
      <trkpt lat="47.31456" lon="5.87874">
        <ele>214.6</ele>
        <time>2017-12-21T13:30:36Z</time>
      </trkpt>
      <trkpt lat="47.31459" lon="5.87882">
        <ele>214.6</ele>
        <time>2017-12-21T13:30:37Z</time>
      </trkpt>
      <trkpt lat="47.31462" lon="5.8789">
        <ele>214.6</ele>
        <time>2017-12-21T13:30:38Z</time>
      </trkpt>
      <trkpt lat="47.31464" lon="5.87898">
        <ele>214.6</ele>
        <time>2017-12-21T13:30:39Z</time>
      </trkpt>
      <trkpt lat="47.31467" lon="5.87906">
        <ele>214.6</ele>
        <time>2017-12-21T13:30:40Z</time>
      </trkpt>
      <trkpt lat="47.3147" lon="5.87914">
        <ele>214.6</ele>
        <time>2017-12-21T13:30:41Z</time>
      </trkpt>
      <trkpt lat="47.31473" lon="5.87923">
        <ele>214.6</ele>
        <time>2017-12-21T13:30:42Z</time>
      </trkpt>
      <trkpt lat="47.31476" lon="5.87931">
        <ele>214.6</ele>
        <time>2017-12-21T13:30:43Z</time>
      </trkpt>
      <trkpt lat="47.31479" lon="5.87939">
        <ele>214.6</ele>
        <time>2017-12-21T13:30:44Z</time>
      </trkpt>
      <trkpt lat="47.31482" lon="5.87947">
        <ele>214.6</ele>
        <time>2017-12-21T13:30:45Z</time>
      </trkpt>
      <trkpt lat="47.31485" lon="5.87955">
        <ele>214.6</ele>
        <time>2017-12-21T13:30:46Z</time>
      </trkpt>
      <trkpt lat="47.31488" lon="5.87962">
        <ele>214.6</ele>
        <time>2017-12-21T13:30:47Z</time>
      </trkpt>
      <trkpt lat="47.3149" lon="5.87969">
        <ele>214.6</ele>
        <time>2017-12-21T13:30:48Z</time>
      </trkpt>
      <trkpt lat="47.31493" lon="5.87977">
        <ele>214.6</ele>
        <time>2017-12-21T13:30:49Z</time>
      </trkpt>
      <trkpt lat="47.31496" lon="5.87983">
        <ele>214.6</ele>
        <time>2017-12-21T13:30:50Z</time>
      </trkpt>
      <trkpt lat="47.31499" lon="5.8799">
        <ele>214.6</ele>
        <time>2017-12-21T13:30:51Z</time>
      </trkpt>
      <trkpt lat="47.31502" lon="5.87997">
        <ele>214.6</ele>
        <time>2017-12-21T13:30:52Z</time>
      </trkpt>
      <trkpt lat="47.31504" lon="5.88004">
        <ele>214.6</ele>
        <time>2017-12-21T13:30:53Z</time>
      </trkpt>
      <trkpt lat="47.31507" lon="5.88011">
        <ele>214.6</ele>
        <time>2017-12-21T13:30:54Z</time>
      </trkpt>
      <trkpt lat="47.31509" lon="5.88018">
        <ele>214.6</ele>
        <time>2017-12-21T13:30:55Z</time>
      </trkpt>
      <trkpt lat="47.31512" lon="5.88025">
        <ele>214.6</ele>
        <time>2017-12-21T13:30:56Z</time>
      </trkpt>
      <trkpt lat="47.31514" lon="5.88032">
        <ele>214.6</ele>
        <time>2017-12-21T13:30:57Z</time>
      </trkpt>
      <trkpt lat="47.31517" lon="5.8804">
        <ele>214.6</ele>
        <time>2017-12-21T13:30:58Z</time>
      </trkpt>
      <trkpt lat="47.3152" lon="5.88048">
        <ele>214.6</ele>
        <time>2017-12-21T13:30:59Z</time>
      </trkpt>
      <trkpt lat="47.31522" lon="5.88056">
        <ele>214.6</ele>
        <time>2017-12-21T13:31:00Z</time>
      </trkpt>
      <trkpt lat="47.31525" lon="5.88065">
        <ele>214.6</ele>
        <time>2017-12-21T13:31:01Z</time>
      </trkpt>
      <trkpt lat="47.31528" lon="5.88073">
        <ele>214.6</ele>
        <time>2017-12-21T13:31:02Z</time>
      </trkpt>
      <trkpt lat="47.31531" lon="5.88081">
        <ele>214.6</ele>
        <time>2017-12-21T13:31:03Z</time>
      </trkpt>
      <trkpt lat="47.31534" lon="5.8809">
        <ele>214.6</ele>
        <time>2017-12-21T13:31:04Z</time>
      </trkpt>
      <trkpt lat="47.31537" lon="5.88099">
        <ele>214.6</ele>
        <time>2017-12-21T13:31:05Z</time>
      </trkpt>
      <trkpt lat="47.31539" lon="5.88108">
        <ele>214.6</ele>
        <time>2017-12-21T13:31:06Z</time>
      </trkpt>
      <trkpt lat="47.31542" lon="5.88117">
        <ele>214.6</ele>
        <time>2017-12-21T13:31:07Z</time>
      </trkpt>
      <trkpt lat="47.31544" lon="5.88127">
        <ele>214.6</ele>
        <time>2017-12-21T13:31:08Z</time>
      </trkpt>
      <trkpt lat="47.31547" lon="5.88136">
        <ele>214.6</ele>
        <time>2017-12-21T13:31:09Z</time>
      </trkpt>
      <trkpt lat="47.31549" lon="5.88145">
        <ele>214.6</ele>
        <time>2017-12-21T13:31:10Z</time>
      </trkpt>
      <trkpt lat="47.3155" lon="5.88154">
        <ele>214.6</ele>
        <time>2017-12-21T13:31:11Z</time>
      </trkpt>
      <trkpt lat="47.31552" lon="5.88163">
        <ele>214.6</ele>
        <time>2017-12-21T13:31:12Z</time>
      </trkpt>
      <trkpt lat="47.31554" lon="5.88172">
        <ele>214.6</ele>
        <time>2017-12-21T13:31:13Z</time>
      </trkpt>
      <trkpt lat="47.31555" lon="5.88181">
        <ele>214.6</ele>
        <time>2017-12-21T13:31:14Z</time>
      </trkpt>
      <trkpt lat="47.31557" lon="5.88191">
        <ele>214.6</ele>
        <time>2017-12-21T13:31:15Z</time>
      </trkpt>
      <trkpt lat="47.31558" lon="5.88201">
        <ele>214.6</ele>
        <time>2017-12-21T13:31:16Z</time>
      </trkpt>
      <trkpt lat="47.3156" lon="5.88211">
        <ele>214.6</ele>
        <time>2017-12-21T13:31:17Z</time>
      </trkpt>
      <trkpt lat="47.31561" lon="5.8822">
        <ele>214.2</ele>
        <time>2017-12-21T13:31:18Z</time>
      </trkpt>
      <trkpt lat="47.31563" lon="5.88231">
        <ele>213.8</ele>
        <time>2017-12-21T13:31:19Z</time>
      </trkpt>
      <trkpt lat="47.31564" lon="5.88241">
        <ele>213.4</ele>
        <time>2017-12-21T13:31:20Z</time>
      </trkpt>
      <trkpt lat="47.31566" lon="5.88251">
        <ele>213</ele>
        <time>2017-12-21T13:31:21Z</time>
      </trkpt>
      <trkpt lat="47.31567" lon="5.88262">
        <ele>212.6</ele>
        <time>2017-12-21T13:31:22Z</time>
      </trkpt>
      <trkpt lat="47.31569" lon="5.88272">
        <ele>212.6</ele>
        <time>2017-12-21T13:31:23Z</time>
      </trkpt>
      <trkpt lat="47.31571" lon="5.88283">
        <ele>212.6</ele>
        <time>2017-12-21T13:31:24Z</time>
      </trkpt>
      <trkpt lat="47.31573" lon="5.88294">
        <ele>212.6</ele>
        <time>2017-12-21T13:31:25Z</time>
      </trkpt>
      <trkpt lat="47.31574" lon="5.88305">
        <ele>212.6</ele>
        <time>2017-12-21T13:31:26Z</time>
      </trkpt>
      <trkpt lat="47.31576" lon="5.88316">
        <ele>212.6</ele>
        <time>2017-12-21T13:31:27Z</time>
      </trkpt>
      <trkpt lat="47.31578" lon="5.88327">
        <ele>212.6</ele>
        <time>2017-12-21T13:31:28Z</time>
      </trkpt>
      <trkpt lat="47.3158" lon="5.88338">
        <ele>212.2</ele>
        <time>2017-12-21T13:31:29Z</time>
      </trkpt>
      <trkpt lat="47.31582" lon="5.8835">
        <ele>211.8</ele>
        <time>2017-12-21T13:31:30Z</time>
      </trkpt>
      <trkpt lat="47.31584" lon="5.8836">
        <ele>211.4</ele>
        <time>2017-12-21T13:31:31Z</time>
      </trkpt>
      <trkpt lat="47.31585" lon="5.88371">
        <ele>211</ele>
        <time>2017-12-21T13:31:32Z</time>
      </trkpt>
      <trkpt lat="47.31587" lon="5.88382">
        <ele>210.6</ele>
        <time>2017-12-21T13:31:33Z</time>
      </trkpt>
      <trkpt lat="47.31589" lon="5.88392">
        <ele>210.6</ele>
        <time>2017-12-21T13:31:34Z</time>
      </trkpt>
      <trkpt lat="47.31591" lon="5.88403">
        <ele>210.6</ele>
        <time>2017-12-21T13:31:35Z</time>
      </trkpt>
      <trkpt lat="47.31593" lon="5.88414">
        <ele>210.6</ele>
        <time>2017-12-21T13:31:36Z</time>
      </trkpt>
      <trkpt lat="47.31595" lon="5.88425">
        <ele>210.6</ele>
        <time>2017-12-21T13:31:37Z</time>
      </trkpt>
      <trkpt lat="47.31596" lon="5.88435">
        <ele>210.6</ele>
        <time>2017-12-21T13:31:38Z</time>
      </trkpt>
      <trkpt lat="47.31598" lon="5.88445">
        <ele>210.6</ele>
        <time>2017-12-21T13:31:39Z</time>
      </trkpt>
      <trkpt lat="47.31599" lon="5.88455">
        <ele>210.6</ele>
        <time>2017-12-21T13:31:40Z</time>
      </trkpt>
      <trkpt lat="47.31601" lon="5.88465">
        <ele>210.6</ele>
        <time>2017-12-21T13:31:41Z</time>
      </trkpt>
      <trkpt lat="47.31602" lon="5.88475">
        <ele>210.6</ele>
        <time>2017-12-21T13:31:42Z</time>
      </trkpt>
      <trkpt lat="47.31602" lon="5.88485">
        <ele>210.6</ele>
        <time>2017-12-21T13:31:43Z</time>
      </trkpt>
      <trkpt lat="47.31602" lon="5.88495">
        <ele>210.6</ele>
        <time>2017-12-21T13:31:44Z</time>
      </trkpt>
      <trkpt lat="47.31602" lon="5.88506">
        <ele>210.6</ele>
        <time>2017-12-21T13:31:45Z</time>
      </trkpt>
      <trkpt lat="47.31602" lon="5.88516">
        <ele>210.6</ele>
        <time>2017-12-21T13:31:46Z</time>
      </trkpt>
      <trkpt lat="47.316" lon="5.88527">
        <ele>210.6</ele>
        <time>2017-12-21T13:31:47Z</time>
      </trkpt>
      <trkpt lat="47.31599" lon="5.88537">
        <ele>210.6</ele>
        <time>2017-12-21T13:31:48Z</time>
      </trkpt>
      <trkpt lat="47.31596" lon="5.88547">
        <ele>210.6</ele>
        <time>2017-12-21T13:31:49Z</time>
      </trkpt>
      <trkpt lat="47.31593" lon="5.88557">
        <ele>210.6</ele>
        <time>2017-12-21T13:31:50Z</time>
      </trkpt>
      <trkpt lat="47.3159" lon="5.88567">
        <ele>210.6</ele>
        <time>2017-12-21T13:31:51Z</time>
      </trkpt>
      <trkpt lat="47.31587" lon="5.88577">
        <ele>210.6</ele>
        <time>2017-12-21T13:31:52Z</time>
      </trkpt>
      <trkpt lat="47.31584" lon="5.88587">
        <ele>210.6</ele>
        <time>2017-12-21T13:31:53Z</time>
      </trkpt>
      <trkpt lat="47.31581" lon="5.88596">
        <ele>210.6</ele>
        <time>2017-12-21T13:31:54Z</time>
      </trkpt>
      <trkpt lat="47.31578" lon="5.88605">
        <ele>210.6</ele>
        <time>2017-12-21T13:31:55Z</time>
      </trkpt>
      <trkpt lat="47.31574" lon="5.88615">
        <ele>210.6</ele>
        <time>2017-12-21T13:31:56Z</time>
      </trkpt>
      <trkpt lat="47.3157" lon="5.88624">
        <ele>210.6</ele>
        <time>2017-12-21T13:31:57Z</time>
      </trkpt>
      <trkpt lat="47.31565" lon="5.88632">
        <ele>210.6</ele>
        <time>2017-12-21T13:31:58Z</time>
      </trkpt>
      <trkpt lat="47.31561" lon="5.88641">
        <ele>210.6</ele>
        <time>2017-12-21T13:31:59Z</time>
      </trkpt>
      <trkpt lat="47.31556" lon="5.88649">
        <ele>210.6</ele>
        <time>2017-12-21T13:32:00Z</time>
      </trkpt>
      <trkpt lat="47.3155" lon="5.88656">
        <ele>210.6</ele>
        <time>2017-12-21T13:32:01Z</time>
      </trkpt>
      <trkpt lat="47.31544" lon="5.88663">
        <ele>210.6</ele>
        <time>2017-12-21T13:32:02Z</time>
      </trkpt>
      <trkpt lat="47.31539" lon="5.88669">
        <ele>210.6</ele>
        <time>2017-12-21T13:32:03Z</time>
      </trkpt>
      <trkpt lat="47.31533" lon="5.88676">
        <ele>210.6</ele>
        <time>2017-12-21T13:32:04Z</time>
      </trkpt>
      <trkpt lat="47.31528" lon="5.88683">
        <ele>210.6</ele>
        <time>2017-12-21T13:32:05Z</time>
      </trkpt>
      <trkpt lat="47.31522" lon="5.88689">
        <ele>210.6</ele>
        <time>2017-12-21T13:32:06Z</time>
      </trkpt>
      <trkpt lat="47.31516" lon="5.88696">
        <ele>210.6</ele>
        <time>2017-12-21T13:32:07Z</time>
      </trkpt>
      <trkpt lat="47.3151" lon="5.88702">
        <ele>210.6</ele>
        <time>2017-12-21T13:32:08Z</time>
      </trkpt>
      <trkpt lat="47.31503" lon="5.88707">
        <ele>210.6</ele>
        <time>2017-12-21T13:32:09Z</time>
      </trkpt>
      <trkpt lat="47.31497" lon="5.88712">
        <ele>210.2</ele>
        <time>2017-12-21T13:32:10Z</time>
      </trkpt>
      <trkpt lat="47.3149" lon="5.88716">
        <ele>209.8</ele>
        <time>2017-12-21T13:32:11Z</time>
      </trkpt>
      <trkpt lat="47.31483" lon="5.8872">
        <ele>209.4</ele>
        <time>2017-12-21T13:32:12Z</time>
      </trkpt>
      <trkpt lat="47.31477" lon="5.88724">
        <ele>209</ele>
        <time>2017-12-21T13:32:13Z</time>
      </trkpt>
      <trkpt lat="47.3147" lon="5.88728">
        <ele>208.6</ele>
        <time>2017-12-21T13:32:14Z</time>
      </trkpt>
      <trkpt lat="47.31463" lon="5.88733">
        <ele>208.6</ele>
        <time>2017-12-21T13:32:15Z</time>
      </trkpt>
      <trkpt lat="47.31457" lon="5.88738">
        <ele>208.6</ele>
        <time>2017-12-21T13:32:16Z</time>
      </trkpt>
      <trkpt lat="47.31451" lon="5.88743">
        <ele>208.6</ele>
        <time>2017-12-21T13:32:17Z</time>
      </trkpt>
      <trkpt lat="47.31445" lon="5.88749">
        <ele>208.6</ele>
        <time>2017-12-21T13:32:18Z</time>
      </trkpt>
      <trkpt lat="47.31439" lon="5.88755">
        <ele>208.6</ele>
        <time>2017-12-21T13:32:19Z</time>
      </trkpt>
      <trkpt lat="47.31433" lon="5.88761">
        <ele>208.6</ele>
        <time>2017-12-21T13:32:20Z</time>
      </trkpt>
      <trkpt lat="47.31428" lon="5.88768">
        <ele>208.6</ele>
        <time>2017-12-21T13:32:21Z</time>
      </trkpt>
      <trkpt lat="47.31422" lon="5.88774">
        <ele>208.6</ele>
        <time>2017-12-21T13:32:22Z</time>
      </trkpt>
      <trkpt lat="47.31416" lon="5.88781">
        <ele>208.6</ele>
        <time>2017-12-21T13:32:23Z</time>
      </trkpt>
      <trkpt lat="47.3141" lon="5.88789">
        <ele>208.6</ele>
        <time>2017-12-21T13:32:24Z</time>
      </trkpt>
      <trkpt lat="47.31405" lon="5.88797">
        <ele>208.6</ele>
        <time>2017-12-21T13:32:25Z</time>
      </trkpt>
      <trkpt lat="47.31399" lon="5.88804">
        <ele>208.6</ele>
        <time>2017-12-21T13:32:26Z</time>
      </trkpt>
      <trkpt lat="47.31393" lon="5.88812">
        <ele>208.6</ele>
        <time>2017-12-21T13:32:27Z</time>
      </trkpt>
      <trkpt lat="47.31387" lon="5.8882">
        <ele>208.6</ele>
        <time>2017-12-21T13:32:28Z</time>
      </trkpt>
      <trkpt lat="47.31382" lon="5.88827">
        <ele>208.6</ele>
        <time>2017-12-21T13:32:29Z</time>
      </trkpt>
      <trkpt lat="47.31375" lon="5.88835">
        <ele>208.6</ele>
        <time>2017-12-21T13:32:30Z</time>
      </trkpt>
      <trkpt lat="47.3137" lon="5.88843">
        <ele>208.6</ele>
        <time>2017-12-21T13:32:31Z</time>
      </trkpt>
      <trkpt lat="47.31364" lon="5.8885">
        <ele>208.6</ele>
        <time>2017-12-21T13:32:32Z</time>
      </trkpt>
      <trkpt lat="47.31359" lon="5.88857">
        <ele>208.6</ele>
        <time>2017-12-21T13:32:33Z</time>
      </trkpt>
      <trkpt lat="47.31353" lon="5.88864">
        <ele>208.6</ele>
        <time>2017-12-21T13:32:34Z</time>
      </trkpt>
      <trkpt lat="47.31347" lon="5.88871">
        <ele>208.6</ele>
        <time>2017-12-21T13:32:35Z</time>
      </trkpt>
      <trkpt lat="47.31341" lon="5.88877">
        <ele>208.6</ele>
        <time>2017-12-21T13:32:36Z</time>
      </trkpt>
      <trkpt lat="47.31335" lon="5.88883">
        <ele>208.6</ele>
        <time>2017-12-21T13:32:37Z</time>
      </trkpt>
      <trkpt lat="47.31329" lon="5.88888">
        <ele>208.6</ele>
        <time>2017-12-21T13:32:38Z</time>
      </trkpt>
      <trkpt lat="47.31324" lon="5.88894">
        <ele>208.6</ele>
        <time>2017-12-21T13:32:39Z</time>
      </trkpt>
      <trkpt lat="47.31318" lon="5.88898">
        <ele>208.6</ele>
        <time>2017-12-21T13:32:40Z</time>
      </trkpt>
      <trkpt lat="47.31312" lon="5.88903">
        <ele>208.6</ele>
        <time>2017-12-21T13:32:41Z</time>
      </trkpt>
      <trkpt lat="47.31306" lon="5.88908">
        <ele>208.6</ele>
        <time>2017-12-21T13:32:42Z</time>
      </trkpt>
      <trkpt lat="47.313" lon="5.88912">
        <ele>208.6</ele>
        <time>2017-12-21T13:32:43Z</time>
      </trkpt>
      <trkpt lat="47.31294" lon="5.88917">
        <ele>208.6</ele>
        <time>2017-12-21T13:32:44Z</time>
      </trkpt>
      <trkpt lat="47.31287" lon="5.88922">
        <ele>208.6</ele>
        <time>2017-12-21T13:32:45Z</time>
      </trkpt>
      <trkpt lat="47.31282" lon="5.88926">
        <ele>208.6</ele>
        <time>2017-12-21T13:32:46Z</time>
      </trkpt>
      <trkpt lat="47.31277" lon="5.88932">
        <ele>208.6</ele>
        <time>2017-12-21T13:32:47Z</time>
      </trkpt>
      <trkpt lat="47.31271" lon="5.88937">
        <ele>208.6</ele>
        <time>2017-12-21T13:32:48Z</time>
      </trkpt>
      <trkpt lat="47.31266" lon="5.88944">
        <ele>208.6</ele>
        <time>2017-12-21T13:32:49Z</time>
      </trkpt>
      <trkpt lat="47.31261" lon="5.8895">
        <ele>208.6</ele>
        <time>2017-12-21T13:32:50Z</time>
      </trkpt>
      <trkpt lat="47.31256" lon="5.88957">
        <ele>208.6</ele>
        <time>2017-12-21T13:32:51Z</time>
      </trkpt>
      <trkpt lat="47.31251" lon="5.88964">
        <ele>208.6</ele>
        <time>2017-12-21T13:32:52Z</time>
      </trkpt>
      <trkpt lat="47.31247" lon="5.8897">
        <ele>208.6</ele>
        <time>2017-12-21T13:32:53Z</time>
      </trkpt>
      <trkpt lat="47.31242" lon="5.88977">
        <ele>208.6</ele>
        <time>2017-12-21T13:32:54Z</time>
      </trkpt>
      <trkpt lat="47.31237" lon="5.88983">
        <ele>208.6</ele>
        <time>2017-12-21T13:32:55Z</time>
      </trkpt>
      <trkpt lat="47.31232" lon="5.88989">
        <ele>208.6</ele>
        <time>2017-12-21T13:32:56Z</time>
      </trkpt>
      <trkpt lat="47.31227" lon="5.88996">
        <ele>208.6</ele>
        <time>2017-12-21T13:32:57Z</time>
      </trkpt>
      <trkpt lat="47.31223" lon="5.89002">
        <ele>208.6</ele>
        <time>2017-12-21T13:32:58Z</time>
      </trkpt>
      <trkpt lat="47.31218" lon="5.89009">
        <ele>208.6</ele>
        <time>2017-12-21T13:32:59Z</time>
      </trkpt>
      <trkpt lat="47.31213" lon="5.89016">
        <ele>208.6</ele>
        <time>2017-12-21T13:33:00Z</time>
      </trkpt>
      <trkpt lat="47.31209" lon="5.89022">
        <ele>208.6</ele>
        <time>2017-12-21T13:33:01Z</time>
      </trkpt>
      <trkpt lat="47.31205" lon="5.89028">
        <ele>208.6</ele>
        <time>2017-12-21T13:33:02Z</time>
      </trkpt>
      <trkpt lat="47.31201" lon="5.89034">
        <ele>208.6</ele>
        <time>2017-12-21T13:33:03Z</time>
      </trkpt>
      <trkpt lat="47.31197" lon="5.89039">
        <ele>208.6</ele>
        <time>2017-12-21T13:33:04Z</time>
      </trkpt>
      <trkpt lat="47.31193" lon="5.89044">
        <ele>208.6</ele>
        <time>2017-12-21T13:33:05Z</time>
      </trkpt>
      <trkpt lat="47.3119" lon="5.89049">
        <ele>208.6</ele>
        <time>2017-12-21T13:33:06Z</time>
      </trkpt>
      <trkpt lat="47.31187" lon="5.89054">
        <ele>208.6</ele>
        <time>2017-12-21T13:33:07Z</time>
      </trkpt>
      <trkpt lat="47.31183" lon="5.89058">
        <ele>208.6</ele>
        <time>2017-12-21T13:33:08Z</time>
      </trkpt>
      <trkpt lat="47.3118" lon="5.89063">
        <ele>208.6</ele>
        <time>2017-12-21T13:33:09Z</time>
      </trkpt>
      <trkpt lat="47.31176" lon="5.89068">
        <ele>208.6</ele>
        <time>2017-12-21T13:33:10Z</time>
      </trkpt>
      <trkpt lat="47.31173" lon="5.89072">
        <ele>208.6</ele>
        <time>2017-12-21T13:33:11Z</time>
      </trkpt>
      <trkpt lat="47.31169" lon="5.89075">
        <ele>208.6</ele>
        <time>2017-12-21T13:33:12Z</time>
      </trkpt>
      <trkpt lat="47.31165" lon="5.89079">
        <ele>208.6</ele>
        <time>2017-12-21T13:33:13Z</time>
      </trkpt>
      <trkpt lat="47.31162" lon="5.89083">
        <ele>208.6</ele>
        <time>2017-12-21T13:33:14Z</time>
      </trkpt>
      <trkpt lat="47.31158" lon="5.89087">
        <ele>208.6</ele>
        <time>2017-12-21T13:33:15Z</time>
      </trkpt>
      <trkpt lat="47.31154" lon="5.8909">
        <ele>208.6</ele>
        <time>2017-12-21T13:33:16Z</time>
      </trkpt>
      <trkpt lat="47.31149" lon="5.89093">
        <ele>208.6</ele>
        <time>2017-12-21T13:33:17Z</time>
      </trkpt>
      <trkpt lat="47.31144" lon="5.89095">
        <ele>208.6</ele>
        <time>2017-12-21T13:33:18Z</time>
      </trkpt>
      <trkpt lat="47.31139" lon="5.89097">
        <ele>208.6</ele>
        <time>2017-12-21T13:33:19Z</time>
      </trkpt>
      <trkpt lat="47.31133" lon="5.89099">
        <ele>208.6</ele>
        <time>2017-12-21T13:33:20Z</time>
      </trkpt>
      <trkpt lat="47.31128" lon="5.89101">
        <ele>208.6</ele>
        <time>2017-12-21T13:33:21Z</time>
      </trkpt>
      <trkpt lat="47.31122" lon="5.89102">
        <ele>208.6</ele>
        <time>2017-12-21T13:33:22Z</time>
      </trkpt>
      <trkpt lat="47.31117" lon="5.89103">
        <ele>208.6</ele>
        <time>2017-12-21T13:33:23Z</time>
      </trkpt>
      <trkpt lat="47.31112" lon="5.89105">
        <ele>208.6</ele>
        <time>2017-12-21T13:33:24Z</time>
      </trkpt>
      <trkpt lat="47.31107" lon="5.89106">
        <ele>208.6</ele>
        <time>2017-12-21T13:33:25Z</time>
      </trkpt>
      <trkpt lat="47.31102" lon="5.89108">
        <ele>208.6</ele>
        <time>2017-12-21T13:33:26Z</time>
      </trkpt>
      <trkpt lat="47.31097" lon="5.89111">
        <ele>208.6</ele>
        <time>2017-12-21T13:33:27Z</time>
      </trkpt>
      <trkpt lat="47.31092" lon="5.89114">
        <ele>208.6</ele>
        <time>2017-12-21T13:33:28Z</time>
      </trkpt>
      <trkpt lat="47.31087" lon="5.89117">
        <ele>208.6</ele>
        <time>2017-12-21T13:33:29Z</time>
      </trkpt>
      <trkpt lat="47.31082" lon="5.8912">
        <ele>208.6</ele>
        <time>2017-12-21T13:33:30Z</time>
      </trkpt>
      <trkpt lat="47.31078" lon="5.89123">
        <ele>208.6</ele>
        <time>2017-12-21T13:33:31Z</time>
      </trkpt>
      <trkpt lat="47.31073" lon="5.89127">
        <ele>208.6</ele>
        <time>2017-12-21T13:33:32Z</time>
      </trkpt>
      <trkpt lat="47.31069" lon="5.89131">
        <ele>208.6</ele>
        <time>2017-12-21T13:33:33Z</time>
      </trkpt>
      <trkpt lat="47.31065" lon="5.89136">
        <ele>208.6</ele>
        <time>2017-12-21T13:33:34Z</time>
      </trkpt>
      <trkpt lat="47.31061" lon="5.89141">
        <ele>208.6</ele>
        <time>2017-12-21T13:33:35Z</time>
      </trkpt>
      <trkpt lat="47.31058" lon="5.89147">
        <ele>208.6</ele>
        <time>2017-12-21T13:33:36Z</time>
      </trkpt>
      <trkpt lat="47.31055" lon="5.89152">
        <ele>208.6</ele>
        <time>2017-12-21T13:33:37Z</time>
      </trkpt>
      <trkpt lat="47.31052" lon="5.89157">
        <ele>208.6</ele>
        <time>2017-12-21T13:33:38Z</time>
      </trkpt>
      <trkpt lat="47.3105" lon="5.89163">
        <ele>208.6</ele>
        <time>2017-12-21T13:33:39Z</time>
      </trkpt>
      <trkpt lat="47.31047" lon="5.89168">
        <ele>209</ele>
        <time>2017-12-21T13:33:40Z</time>
      </trkpt>
      <trkpt lat="47.31046" lon="5.89175">
        <ele>209.4</ele>
        <time>2017-12-21T13:33:41Z</time>
      </trkpt>
      <trkpt lat="47.31044" lon="5.89181">
        <ele>209.8</ele>
        <time>2017-12-21T13:33:42Z</time>
      </trkpt>
      <trkpt lat="47.31043" lon="5.89187">
        <ele>210.2</ele>
        <time>2017-12-21T13:33:43Z</time>
      </trkpt>
      <trkpt lat="47.31041" lon="5.89193">
        <ele>210.6</ele>
        <time>2017-12-21T13:33:44Z</time>
      </trkpt>
      <trkpt lat="47.3104" lon="5.89199">
        <ele>210.6</ele>
        <time>2017-12-21T13:33:45Z</time>
      </trkpt>
      <trkpt lat="47.31039" lon="5.89206">
        <ele>210.6</ele>
        <time>2017-12-21T13:33:46Z</time>
      </trkpt>
      <trkpt lat="47.31039" lon="5.89212">
        <ele>210.6</ele>
        <time>2017-12-21T13:33:47Z</time>
      </trkpt>
      <trkpt lat="47.31038" lon="5.89218">
        <ele>210.6</ele>
        <time>2017-12-21T13:33:48Z</time>
      </trkpt>
      <trkpt lat="47.31037" lon="5.89224">
        <ele>211</ele>
        <time>2017-12-21T13:33:49Z</time>
      </trkpt>
      <trkpt lat="47.31037" lon="5.8923">
        <ele>211.4</ele>
        <time>2017-12-21T13:33:50Z</time>
      </trkpt>
      <trkpt lat="47.31035" lon="5.89236">
        <ele>211.8</ele>
        <time>2017-12-21T13:33:51Z</time>
      </trkpt>
      <trkpt lat="47.31034" lon="5.89244">
        <ele>212.2</ele>
        <time>2017-12-21T13:33:52Z</time>
      </trkpt>
      <trkpt lat="47.31032" lon="5.89251">
        <ele>212.8</ele>
        <time>2017-12-21T13:33:53Z</time>
      </trkpt>
      <trkpt lat="47.3103" lon="5.89258">
        <ele>212.8</ele>
        <time>2017-12-21T13:33:54Z</time>
      </trkpt>
      <trkpt lat="47.31028" lon="5.89266">
        <ele>212.8</ele>
        <time>2017-12-21T13:33:55Z</time>
      </trkpt>
      <trkpt lat="47.31026" lon="5.89275">
        <ele>212.8</ele>
        <time>2017-12-21T13:33:56Z</time>
      </trkpt>
      <trkpt lat="47.31024" lon="5.89284">
        <ele>212.8</ele>
        <time>2017-12-21T13:33:57Z</time>
      </trkpt>
      <trkpt lat="47.31022" lon="5.89292">
        <ele>212.2</ele>
        <time>2017-12-21T13:33:58Z</time>
      </trkpt>
      <trkpt lat="47.3102" lon="5.89301">
        <ele>211.8</ele>
        <time>2017-12-21T13:33:59Z</time>
      </trkpt>
      <trkpt lat="47.31018" lon="5.8931">
        <ele>211.4</ele>
        <time>2017-12-21T13:34:00Z</time>
      </trkpt>
      <trkpt lat="47.31016" lon="5.89318">
        <ele>211</ele>
        <time>2017-12-21T13:34:01Z</time>
      </trkpt>
      <trkpt lat="47.31014" lon="5.89326">
        <ele>210.6</ele>
        <time>2017-12-21T13:34:02Z</time>
      </trkpt>
      <trkpt lat="47.31012" lon="5.89334">
        <ele>210.6</ele>
        <time>2017-12-21T13:34:03Z</time>
      </trkpt>
      <trkpt lat="47.3101" lon="5.89342">
        <ele>210.6</ele>
        <time>2017-12-21T13:34:04Z</time>
      </trkpt>
      <trkpt lat="47.31008" lon="5.89349">
        <ele>210.6</ele>
        <time>2017-12-21T13:34:05Z</time>
      </trkpt>
      <trkpt lat="47.31005" lon="5.89357">
        <ele>210.6</ele>
        <time>2017-12-21T13:34:06Z</time>
      </trkpt>
      <trkpt lat="47.31003" lon="5.89363">
        <ele>210.6</ele>
        <time>2017-12-21T13:34:07Z</time>
      </trkpt>
      <trkpt lat="47.31" lon="5.8937">
        <ele>210.6</ele>
        <time>2017-12-21T13:34:08Z</time>
      </trkpt>
      <trkpt lat="47.30997" lon="5.89377">
        <ele>210.6</ele>
        <time>2017-12-21T13:34:09Z</time>
      </trkpt>
      <trkpt lat="47.30994" lon="5.89383">
        <ele>210.6</ele>
        <time>2017-12-21T13:34:10Z</time>
      </trkpt>
      <trkpt lat="47.30991" lon="5.8939">
        <ele>210.6</ele>
        <time>2017-12-21T13:34:11Z</time>
      </trkpt>
      <trkpt lat="47.30988" lon="5.89397">
        <ele>210.6</ele>
        <time>2017-12-21T13:34:12Z</time>
      </trkpt>
      <trkpt lat="47.30985" lon="5.89404">
        <ele>210.6</ele>
        <time>2017-12-21T13:34:13Z</time>
      </trkpt>
      <trkpt lat="47.30983" lon="5.89412">
        <ele>210.6</ele>
        <time>2017-12-21T13:34:14Z</time>
      </trkpt>
      <trkpt lat="47.30981" lon="5.8942">
        <ele>210.6</ele>
        <time>2017-12-21T13:34:15Z</time>
      </trkpt>
      <trkpt lat="47.30979" lon="5.89428">
        <ele>210.6</ele>
        <time>2017-12-21T13:34:16Z</time>
      </trkpt>
      <trkpt lat="47.30978" lon="5.89436">
        <ele>210.6</ele>
        <time>2017-12-21T13:34:17Z</time>
      </trkpt>
      <trkpt lat="47.30977" lon="5.89444">
        <ele>210.6</ele>
        <time>2017-12-21T13:34:18Z</time>
      </trkpt>
      <trkpt lat="47.30976" lon="5.89452">
        <ele>210.6</ele>
        <time>2017-12-21T13:34:19Z</time>
      </trkpt>
      <trkpt lat="47.30976" lon="5.89461">
        <ele>210.6</ele>
        <time>2017-12-21T13:34:20Z</time>
      </trkpt>
      <trkpt lat="47.30976" lon="5.89469">
        <ele>210.6</ele>
        <time>2017-12-21T13:34:21Z</time>
      </trkpt>
      <trkpt lat="47.30977" lon="5.89477">
        <ele>210.6</ele>
        <time>2017-12-21T13:34:22Z</time>
      </trkpt>
      <trkpt lat="47.30978" lon="5.89485">
        <ele>210.6</ele>
        <time>2017-12-21T13:34:23Z</time>
      </trkpt>
      <trkpt lat="47.30979" lon="5.89493">
        <ele>210.6</ele>
        <time>2017-12-21T13:34:24Z</time>
      </trkpt>
      <trkpt lat="47.3098" lon="5.89501">
        <ele>210.6</ele>
        <time>2017-12-21T13:34:25Z</time>
      </trkpt>
      <trkpt lat="47.30981" lon="5.89509">
        <ele>210.6</ele>
        <time>2017-12-21T13:34:26Z</time>
      </trkpt>
      <trkpt lat="47.30982" lon="5.89517">
        <ele>210.6</ele>
        <time>2017-12-21T13:34:27Z</time>
      </trkpt>
      <trkpt lat="47.30982" lon="5.89525">
        <ele>210.6</ele>
        <time>2017-12-21T13:34:28Z</time>
      </trkpt>
      <trkpt lat="47.30983" lon="5.89533">
        <ele>210.6</ele>
        <time>2017-12-21T13:34:29Z</time>
      </trkpt>
      <trkpt lat="47.30985" lon="5.89541">
        <ele>210.6</ele>
        <time>2017-12-21T13:34:30Z</time>
      </trkpt>
      <trkpt lat="47.30987" lon="5.89548">
        <ele>210.6</ele>
        <time>2017-12-21T13:34:31Z</time>
      </trkpt>
      <trkpt lat="47.30989" lon="5.89556">
        <ele>210.6</ele>
        <time>2017-12-21T13:34:32Z</time>
      </trkpt>
      <trkpt lat="47.30991" lon="5.89564">
        <ele>210.6</ele>
        <time>2017-12-21T13:34:33Z</time>
      </trkpt>
      <trkpt lat="47.30993" lon="5.89572">
        <ele>210.6</ele>
        <time>2017-12-21T13:34:34Z</time>
      </trkpt>
      <trkpt lat="47.30996" lon="5.8958">
        <ele>210.6</ele>
        <time>2017-12-21T13:34:35Z</time>
      </trkpt>
      <trkpt lat="47.30997" lon="5.89588">
        <ele>210.6</ele>
        <time>2017-12-21T13:34:36Z</time>
      </trkpt>
      <trkpt lat="47.30999" lon="5.89596">
        <ele>210.6</ele>
        <time>2017-12-21T13:34:37Z</time>
      </trkpt>
      <trkpt lat="47.31001" lon="5.89604">
        <ele>210.6</ele>
        <time>2017-12-21T13:34:38Z</time>
      </trkpt>
      <trkpt lat="47.31003" lon="5.89612">
        <ele>210.6</ele>
        <time>2017-12-21T13:34:39Z</time>
      </trkpt>
      <trkpt lat="47.31004" lon="5.8962">
        <ele>210.6</ele>
        <time>2017-12-21T13:34:40Z</time>
      </trkpt>
      <trkpt lat="47.31005" lon="5.89628">
        <ele>210.6</ele>
        <time>2017-12-21T13:34:41Z</time>
      </trkpt>
      <trkpt lat="47.31005" lon="5.89636">
        <ele>210.6</ele>
        <time>2017-12-21T13:34:42Z</time>
      </trkpt>
      <trkpt lat="47.31005" lon="5.89644">
        <ele>210.6</ele>
        <time>2017-12-21T13:34:43Z</time>
      </trkpt>
      <trkpt lat="47.31005" lon="5.89652">
        <ele>210.6</ele>
        <time>2017-12-21T13:34:44Z</time>
      </trkpt>
      <trkpt lat="47.31004" lon="5.8966">
        <ele>210.6</ele>
        <time>2017-12-21T13:34:45Z</time>
      </trkpt>
      <trkpt lat="47.31004" lon="5.89668">
        <ele>210.6</ele>
        <time>2017-12-21T13:34:46Z</time>
      </trkpt>
      <trkpt lat="47.31004" lon="5.89677">
        <ele>210.6</ele>
        <time>2017-12-21T13:34:47Z</time>
      </trkpt>
      <trkpt lat="47.31004" lon="5.89685">
        <ele>210.6</ele>
        <time>2017-12-21T13:34:48Z</time>
      </trkpt>
      <trkpt lat="47.31005" lon="5.89694">
        <ele>210.6</ele>
        <time>2017-12-21T13:34:49Z</time>
      </trkpt>
      <trkpt lat="47.31005" lon="5.89702">
        <ele>210.6</ele>
        <time>2017-12-21T13:34:50Z</time>
      </trkpt>
      <trkpt lat="47.31006" lon="5.8971">
        <ele>210.6</ele>
        <time>2017-12-21T13:34:51Z</time>
      </trkpt>
      <trkpt lat="47.31008" lon="5.89719">
        <ele>210.6</ele>
        <time>2017-12-21T13:34:52Z</time>
      </trkpt>
      <trkpt lat="47.3101" lon="5.89727">
        <ele>210.6</ele>
        <time>2017-12-21T13:34:53Z</time>
      </trkpt>
      <trkpt lat="47.31013" lon="5.89735">
        <ele>210.6</ele>
        <time>2017-12-21T13:34:54Z</time>
      </trkpt>
      <trkpt lat="47.31015" lon="5.89743">
        <ele>210.6</ele>
        <time>2017-12-21T13:34:55Z</time>
      </trkpt>
      <trkpt lat="47.31017" lon="5.89751">
        <ele>210.6</ele>
        <time>2017-12-21T13:34:56Z</time>
      </trkpt>
      <trkpt lat="47.3102" lon="5.8976">
        <ele>210.6</ele>
        <time>2017-12-21T13:34:57Z</time>
      </trkpt>
      <trkpt lat="47.31022" lon="5.89768">
        <ele>210.6</ele>
        <time>2017-12-21T13:34:58Z</time>
      </trkpt>
      <trkpt lat="47.31024" lon="5.89776">
        <ele>210.6</ele>
        <time>2017-12-21T13:34:59Z</time>
      </trkpt>
      <trkpt lat="47.31026" lon="5.89785">
        <ele>210.6</ele>
        <time>2017-12-21T13:35:00Z</time>
      </trkpt>
      <trkpt lat="47.31028" lon="5.89793">
        <ele>210.6</ele>
        <time>2017-12-21T13:35:01Z</time>
      </trkpt>
      <trkpt lat="47.3103" lon="5.89801">
        <ele>210.6</ele>
        <time>2017-12-21T13:35:02Z</time>
      </trkpt>
      <trkpt lat="47.31031" lon="5.89809">
        <ele>210.6</ele>
        <time>2017-12-21T13:35:03Z</time>
      </trkpt>
      <trkpt lat="47.31032" lon="5.89818">
        <ele>210.6</ele>
        <time>2017-12-21T13:35:04Z</time>
      </trkpt>
      <trkpt lat="47.31033" lon="5.89827">
        <ele>210.6</ele>
        <time>2017-12-21T13:35:05Z</time>
      </trkpt>
      <trkpt lat="47.31033" lon="5.89836">
        <ele>210.6</ele>
        <time>2017-12-21T13:35:06Z</time>
      </trkpt>
      <trkpt lat="47.31033" lon="5.89845">
        <ele>210.6</ele>
        <time>2017-12-21T13:35:07Z</time>
      </trkpt>
      <trkpt lat="47.31033" lon="5.89854">
        <ele>210.6</ele>
        <time>2017-12-21T13:35:08Z</time>
      </trkpt>
      <trkpt lat="47.31033" lon="5.89863">
        <ele>210.6</ele>
        <time>2017-12-21T13:35:09Z</time>
      </trkpt>
      <trkpt lat="47.31032" lon="5.89872">
        <ele>210.6</ele>
        <time>2017-12-21T13:35:10Z</time>
      </trkpt>
      <trkpt lat="47.31031" lon="5.89881">
        <ele>210.6</ele>
        <time>2017-12-21T13:35:11Z</time>
      </trkpt>
      <trkpt lat="47.3103" lon="5.8989">
        <ele>210.6</ele>
        <time>2017-12-21T13:35:12Z</time>
      </trkpt>
      <trkpt lat="47.3103" lon="5.89898">
        <ele>210.6</ele>
        <time>2017-12-21T13:35:13Z</time>
      </trkpt>
      <trkpt lat="47.31028" lon="5.89907">
        <ele>210.6</ele>
        <time>2017-12-21T13:35:14Z</time>
      </trkpt>
      <trkpt lat="47.31027" lon="5.89916">
        <ele>210.6</ele>
        <time>2017-12-21T13:35:15Z</time>
      </trkpt>
      <trkpt lat="47.31026" lon="5.89926">
        <ele>210.6</ele>
        <time>2017-12-21T13:35:16Z</time>
      </trkpt>
      <trkpt lat="47.31025" lon="5.89935">
        <ele>210.6</ele>
        <time>2017-12-21T13:35:17Z</time>
      </trkpt>
      <trkpt lat="47.31023" lon="5.89944">
        <ele>210.6</ele>
        <time>2017-12-21T13:35:18Z</time>
      </trkpt>
      <trkpt lat="47.31021" lon="5.89954">
        <ele>210.6</ele>
        <time>2017-12-21T13:35:19Z</time>
      </trkpt>
      <trkpt lat="47.3102" lon="5.89964">
        <ele>210.6</ele>
        <time>2017-12-21T13:35:20Z</time>
      </trkpt>
      <trkpt lat="47.31018" lon="5.89974">
        <ele>210.2</ele>
        <time>2017-12-21T13:35:21Z</time>
      </trkpt>
      <trkpt lat="47.31017" lon="5.89984">
        <ele>209.8</ele>
        <time>2017-12-21T13:35:22Z</time>
      </trkpt>
      <trkpt lat="47.31015" lon="5.89993">
        <ele>209.4</ele>
        <time>2017-12-21T13:35:23Z</time>
      </trkpt>
      <trkpt lat="47.31014" lon="5.90002">
        <ele>209</ele>
        <time>2017-12-21T13:35:24Z</time>
      </trkpt>
      <trkpt lat="47.31012" lon="5.90011">
        <ele>208.6</ele>
        <time>2017-12-21T13:35:25Z</time>
      </trkpt>
      <trkpt lat="47.3101" lon="5.9002">
        <ele>208.6</ele>
        <time>2017-12-21T13:35:26Z</time>
      </trkpt>
      <trkpt lat="47.31008" lon="5.90029">
        <ele>208.6</ele>
        <time>2017-12-21T13:35:27Z</time>
      </trkpt>
      <trkpt lat="47.31006" lon="5.90038">
        <ele>208.6</ele>
        <time>2017-12-21T13:35:28Z</time>
      </trkpt>
      <trkpt lat="47.31004" lon="5.90047">
        <ele>208.6</ele>
        <time>2017-12-21T13:35:29Z</time>
      </trkpt>
      <trkpt lat="47.31002" lon="5.90055">
        <ele>208.6</ele>
        <time>2017-12-21T13:35:30Z</time>
      </trkpt>
      <trkpt lat="47.30998" lon="5.90063">
        <ele>208.6</ele>
        <time>2017-12-21T13:35:31Z</time>
      </trkpt>
      <trkpt lat="47.30996" lon="5.90071">
        <ele>208.6</ele>
        <time>2017-12-21T13:35:32Z</time>
      </trkpt>
      <trkpt lat="47.30993" lon="5.9008">
        <ele>208.6</ele>
        <time>2017-12-21T13:35:33Z</time>
      </trkpt>
      <trkpt lat="47.3099" lon="5.90088">
        <ele>208.6</ele>
        <time>2017-12-21T13:35:34Z</time>
      </trkpt>
      <trkpt lat="47.30987" lon="5.90097">
        <ele>208.6</ele>
        <time>2017-12-21T13:35:35Z</time>
      </trkpt>
      <trkpt lat="47.30985" lon="5.90106">
        <ele>208.6</ele>
        <time>2017-12-21T13:35:36Z</time>
      </trkpt>
      <trkpt lat="47.30981" lon="5.90115">
        <ele>208.6</ele>
        <time>2017-12-21T13:35:37Z</time>
      </trkpt>
      <trkpt lat="47.30978" lon="5.90124">
        <ele>208.6</ele>
        <time>2017-12-21T13:35:38Z</time>
      </trkpt>
      <trkpt lat="47.30974" lon="5.90132">
        <ele>208.6</ele>
        <time>2017-12-21T13:35:39Z</time>
      </trkpt>
      <trkpt lat="47.3097" lon="5.9014">
        <ele>208.6</ele>
        <time>2017-12-21T13:35:40Z</time>
      </trkpt>
      <trkpt lat="47.30966" lon="5.90148">
        <ele>208.6</ele>
        <time>2017-12-21T13:35:41Z</time>
      </trkpt>
      <trkpt lat="47.30963" lon="5.90156">
        <ele>208.6</ele>
        <time>2017-12-21T13:35:42Z</time>
      </trkpt>
      <trkpt lat="47.30959" lon="5.90164">
        <ele>208.6</ele>
        <time>2017-12-21T13:35:43Z</time>
      </trkpt>
      <trkpt lat="47.30955" lon="5.90172">
        <ele>208.6</ele>
        <time>2017-12-21T13:35:44Z</time>
      </trkpt>
      <trkpt lat="47.30951" lon="5.9018">
        <ele>208.6</ele>
        <time>2017-12-21T13:35:45Z</time>
      </trkpt>
      <trkpt lat="47.30948" lon="5.90188">
        <ele>208.6</ele>
        <time>2017-12-21T13:35:46Z</time>
      </trkpt>
      <trkpt lat="47.30945" lon="5.90197">
        <ele>208.6</ele>
        <time>2017-12-21T13:35:47Z</time>
      </trkpt>
      <trkpt lat="47.30942" lon="5.90205">
        <ele>208.6</ele>
        <time>2017-12-21T13:35:48Z</time>
      </trkpt>
      <trkpt lat="47.30939" lon="5.90213">
        <ele>208.6</ele>
        <time>2017-12-21T13:35:49Z</time>
      </trkpt>
      <trkpt lat="47.30937" lon="5.90222">
        <ele>208.6</ele>
        <time>2017-12-21T13:35:50Z</time>
      </trkpt>
      <trkpt lat="47.30935" lon="5.9023">
        <ele>208.6</ele>
        <time>2017-12-21T13:35:51Z</time>
      </trkpt>
      <trkpt lat="47.30933" lon="5.90239">
        <ele>208.6</ele>
        <time>2017-12-21T13:35:52Z</time>
      </trkpt>
      <trkpt lat="47.30931" lon="5.90248">
        <ele>208.6</ele>
        <time>2017-12-21T13:35:53Z</time>
      </trkpt>
      <trkpt lat="47.3093" lon="5.90257">
        <ele>208.6</ele>
        <time>2017-12-21T13:35:54Z</time>
      </trkpt>
      <trkpt lat="47.30929" lon="5.90265">
        <ele>208.6</ele>
        <time>2017-12-21T13:35:55Z</time>
      </trkpt>
      <trkpt lat="47.30928" lon="5.90274">
        <ele>208.6</ele>
        <time>2017-12-21T13:35:56Z</time>
      </trkpt>
      <trkpt lat="47.30927" lon="5.90283">
        <ele>208.6</ele>
        <time>2017-12-21T13:35:57Z</time>
      </trkpt>
      <trkpt lat="47.30927" lon="5.90292">
        <ele>208.6</ele>
        <time>2017-12-21T13:35:58Z</time>
      </trkpt>
      <trkpt lat="47.30927" lon="5.90302">
        <ele>208.6</ele>
        <time>2017-12-21T13:36:00Z</time>
      </trkpt>
      <trkpt lat="47.30927" lon="5.90311">
        <ele>208.6</ele>
        <time>2017-12-21T13:36:01Z</time>
      </trkpt>
      <trkpt lat="47.30928" lon="5.9032">
        <ele>208.6</ele>
        <time>2017-12-21T13:36:02Z</time>
      </trkpt>
      <trkpt lat="47.30929" lon="5.90329">
        <ele>208.6</ele>
        <time>2017-12-21T13:36:03Z</time>
      </trkpt>
      <trkpt lat="47.3093" lon="5.90338">
        <ele>208.6</ele>
        <time>2017-12-21T13:36:04Z</time>
      </trkpt>
      <trkpt lat="47.30931" lon="5.90347">
        <ele>208.6</ele>
        <time>2017-12-21T13:36:05Z</time>
      </trkpt>
      <trkpt lat="47.30931" lon="5.90356">
        <ele>208.6</ele>
        <time>2017-12-21T13:36:06Z</time>
      </trkpt>
      <trkpt lat="47.30932" lon="5.90365">
        <ele>208.6</ele>
        <time>2017-12-21T13:36:07Z</time>
      </trkpt>
      <trkpt lat="47.30933" lon="5.90374">
        <ele>208.6</ele>
        <time>2017-12-21T13:36:08Z</time>
      </trkpt>
      <trkpt lat="47.30934" lon="5.90382">
        <ele>208.6</ele>
        <time>2017-12-21T13:36:09Z</time>
      </trkpt>
      <trkpt lat="47.30936" lon="5.90391">
        <ele>208.6</ele>
        <time>2017-12-21T13:36:10Z</time>
      </trkpt>
      <trkpt lat="47.30937" lon="5.90399">
        <ele>208.6</ele>
        <time>2017-12-21T13:36:11Z</time>
      </trkpt>
      <trkpt lat="47.30938" lon="5.90407">
        <ele>208.6</ele>
        <time>2017-12-21T13:36:12Z</time>
      </trkpt>
      <trkpt lat="47.30939" lon="5.90415">
        <ele>208.6</ele>
        <time>2017-12-21T13:36:13Z</time>
      </trkpt>
      <trkpt lat="47.3094" lon="5.90424">
        <ele>208.6</ele>
        <time>2017-12-21T13:36:14Z</time>
      </trkpt>
      <trkpt lat="47.30942" lon="5.90432">
        <ele>208.6</ele>
        <time>2017-12-21T13:36:15Z</time>
      </trkpt>
      <trkpt lat="47.30944" lon="5.9044">
        <ele>208.6</ele>
        <time>2017-12-21T13:36:16Z</time>
      </trkpt>
      <trkpt lat="47.30945" lon="5.90448">
        <ele>208.6</ele>
        <time>2017-12-21T13:36:17Z</time>
      </trkpt>
      <trkpt lat="47.30946" lon="5.90456">
        <ele>208.6</ele>
        <time>2017-12-21T13:36:18Z</time>
      </trkpt>
      <trkpt lat="47.30948" lon="5.90464">
        <ele>208.6</ele>
        <time>2017-12-21T13:36:19Z</time>
      </trkpt>
      <trkpt lat="47.30949" lon="5.90472">
        <ele>208.6</ele>
        <time>2017-12-21T13:36:20Z</time>
      </trkpt>
      <trkpt lat="47.30951" lon="5.9048">
        <ele>208.6</ele>
        <time>2017-12-21T13:36:21Z</time>
      </trkpt>
      <trkpt lat="47.30954" lon="5.90489">
        <ele>208.6</ele>
        <time>2017-12-21T13:36:22Z</time>
      </trkpt>
      <trkpt lat="47.30956" lon="5.90498">
        <ele>208.6</ele>
        <time>2017-12-21T13:36:23Z</time>
      </trkpt>
      <trkpt lat="47.30958" lon="5.90506">
        <ele>208.6</ele>
        <time>2017-12-21T13:36:24Z</time>
      </trkpt>
      <trkpt lat="47.30961" lon="5.90515">
        <ele>208.6</ele>
        <time>2017-12-21T13:36:25Z</time>
      </trkpt>
      <trkpt lat="47.30963" lon="5.90523">
        <ele>208.6</ele>
        <time>2017-12-21T13:36:26Z</time>
      </trkpt>
      <trkpt lat="47.30965" lon="5.90531">
        <ele>208.6</ele>
        <time>2017-12-21T13:36:27Z</time>
      </trkpt>
      <trkpt lat="47.30968" lon="5.9054">
        <ele>208.6</ele>
        <time>2017-12-21T13:36:28Z</time>
      </trkpt>
      <trkpt lat="47.30971" lon="5.90549">
        <ele>208.6</ele>
        <time>2017-12-21T13:36:29Z</time>
      </trkpt>
      <trkpt lat="47.30973" lon="5.90557">
        <ele>208.6</ele>
        <time>2017-12-21T13:36:30Z</time>
      </trkpt>
      <trkpt lat="47.30976" lon="5.90566">
        <ele>208.6</ele>
        <time>2017-12-21T13:36:31Z</time>
      </trkpt>
      <trkpt lat="47.30979" lon="5.90574">
        <ele>208.6</ele>
        <time>2017-12-21T13:36:32Z</time>
      </trkpt>
      <trkpt lat="47.30981" lon="5.90583">
        <ele>208.6</ele>
        <time>2017-12-21T13:36:33Z</time>
      </trkpt>
      <trkpt lat="47.30984" lon="5.90591">
        <ele>208.6</ele>
        <time>2017-12-21T13:36:34Z</time>
      </trkpt>
      <trkpt lat="47.30987" lon="5.906">
        <ele>208.6</ele>
        <time>2017-12-21T13:36:35Z</time>
      </trkpt>
      <trkpt lat="47.3099" lon="5.90608">
        <ele>208.6</ele>
        <time>2017-12-21T13:36:36Z</time>
      </trkpt>
      <trkpt lat="47.30993" lon="5.90616">
        <ele>208.6</ele>
        <time>2017-12-21T13:36:37Z</time>
      </trkpt>
      <trkpt lat="47.30996" lon="5.90625">
        <ele>209</ele>
        <time>2017-12-21T13:36:38Z</time>
      </trkpt>
      <trkpt lat="47.30999" lon="5.90633">
        <ele>209.4</ele>
        <time>2017-12-21T13:36:39Z</time>
      </trkpt>
      <trkpt lat="47.31002" lon="5.90642">
        <ele>209.8</ele>
        <time>2017-12-21T13:36:40Z</time>
      </trkpt>
      <trkpt lat="47.31005" lon="5.9065">
        <ele>210.2</ele>
        <time>2017-12-21T13:36:41Z</time>
      </trkpt>
      <trkpt lat="47.31008" lon="5.90659">
        <ele>210.6</ele>
        <time>2017-12-21T13:36:42Z</time>
      </trkpt>
      <trkpt lat="47.31011" lon="5.90667">
        <ele>210.6</ele>
        <time>2017-12-21T13:36:43Z</time>
      </trkpt>
      <trkpt lat="47.31014" lon="5.90676">
        <ele>210.6</ele>
        <time>2017-12-21T13:36:44Z</time>
      </trkpt>
      <trkpt lat="47.31016" lon="5.90684">
        <ele>210.6</ele>
        <time>2017-12-21T13:36:45Z</time>
      </trkpt>
      <trkpt lat="47.31019" lon="5.90693">
        <ele>210.6</ele>
        <time>2017-12-21T13:36:46Z</time>
      </trkpt>
      <trkpt lat="47.31022" lon="5.907">
        <ele>210.6</ele>
        <time>2017-12-21T13:36:47Z</time>
      </trkpt>
      <trkpt lat="47.31024" lon="5.90709">
        <ele>210.6</ele>
        <time>2017-12-21T13:36:48Z</time>
      </trkpt>
      <trkpt lat="47.31027" lon="5.90717">
        <ele>210.6</ele>
        <time>2017-12-21T13:36:49Z</time>
      </trkpt>
      <trkpt lat="47.31029" lon="5.90725">
        <ele>210.6</ele>
        <time>2017-12-21T13:36:50Z</time>
      </trkpt>
      <trkpt lat="47.31032" lon="5.90733">
        <ele>210.6</ele>
        <time>2017-12-21T13:36:51Z</time>
      </trkpt>
      <trkpt lat="47.31035" lon="5.90741">
        <ele>210.6</ele>
        <time>2017-12-21T13:36:52Z</time>
      </trkpt>
      <trkpt lat="47.31037" lon="5.90749">
        <ele>210.6</ele>
        <time>2017-12-21T13:36:53Z</time>
      </trkpt>
      <trkpt lat="47.3104" lon="5.90758">
        <ele>210.6</ele>
        <time>2017-12-21T13:36:54Z</time>
      </trkpt>
      <trkpt lat="47.31043" lon="5.90766">
        <ele>210.6</ele>
        <time>2017-12-21T13:36:55Z</time>
      </trkpt>
      <trkpt lat="47.31045" lon="5.90774">
        <ele>210.6</ele>
        <time>2017-12-21T13:36:56Z</time>
      </trkpt>
      <trkpt lat="47.31048" lon="5.90783">
        <ele>210.6</ele>
        <time>2017-12-21T13:36:57Z</time>
      </trkpt>
      <trkpt lat="47.31051" lon="5.90791">
        <ele>210.6</ele>
        <time>2017-12-21T13:36:58Z</time>
      </trkpt>
      <trkpt lat="47.31053" lon="5.90799">
        <ele>210.6</ele>
        <time>2017-12-21T13:36:59Z</time>
      </trkpt>
      <trkpt lat="47.31056" lon="5.90808">
        <ele>210.6</ele>
        <time>2017-12-21T13:37:00Z</time>
      </trkpt>
      <trkpt lat="47.31059" lon="5.90817">
        <ele>210.6</ele>
        <time>2017-12-21T13:37:01Z</time>
      </trkpt>
      <trkpt lat="47.31061" lon="5.90825">
        <ele>210.6</ele>
        <time>2017-12-21T13:37:02Z</time>
      </trkpt>
      <trkpt lat="47.31063" lon="5.90834">
        <ele>210.6</ele>
        <time>2017-12-21T13:37:03Z</time>
      </trkpt>
      <trkpt lat="47.31066" lon="5.90843">
        <ele>210.6</ele>
        <time>2017-12-21T13:37:04Z</time>
      </trkpt>
      <trkpt lat="47.31068" lon="5.90851">
        <ele>211</ele>
        <time>2017-12-21T13:37:05Z</time>
      </trkpt>
      <trkpt lat="47.3107" lon="5.90859">
        <ele>211.4</ele>
        <time>2017-12-21T13:37:06Z</time>
      </trkpt>
      <trkpt lat="47.31073" lon="5.90866">
        <ele>211.8</ele>
        <time>2017-12-21T13:37:07Z</time>
      </trkpt>
      <trkpt lat="47.31075" lon="5.90874">
        <ele>212.2</ele>
        <time>2017-12-21T13:37:08Z</time>
      </trkpt>
      <trkpt lat="47.31077" lon="5.90881">
        <ele>212.6</ele>
        <time>2017-12-21T13:37:09Z</time>
      </trkpt>
      <trkpt lat="47.3108" lon="5.90888">
        <ele>212.6</ele>
        <time>2017-12-21T13:37:10Z</time>
      </trkpt>
      <trkpt lat="47.31082" lon="5.90895">
        <ele>212.6</ele>
        <time>2017-12-21T13:37:11Z</time>
      </trkpt>
      <trkpt lat="47.31085" lon="5.90902">
        <ele>212.6</ele>
        <time>2017-12-21T13:37:12Z</time>
      </trkpt>
      <trkpt lat="47.31087" lon="5.9091">
        <ele>212.6</ele>
        <time>2017-12-21T13:37:13Z</time>
      </trkpt>
      <trkpt lat="47.31089" lon="5.90917">
        <ele>212.6</ele>
        <time>2017-12-21T13:37:14Z</time>
      </trkpt>
      <trkpt lat="47.31092" lon="5.90925">
        <ele>212.6</ele>
        <time>2017-12-21T13:37:15Z</time>
      </trkpt>
      <trkpt lat="47.31095" lon="5.90933">
        <ele>212.6</ele>
        <time>2017-12-21T13:37:16Z</time>
      </trkpt>
      <trkpt lat="47.31098" lon="5.9094">
        <ele>212.6</ele>
        <time>2017-12-21T13:37:17Z</time>
      </trkpt>
      <trkpt lat="47.31101" lon="5.90948">
        <ele>212.6</ele>
        <time>2017-12-21T13:37:18Z</time>
      </trkpt>
      <trkpt lat="47.31103" lon="5.90957">
        <ele>212.6</ele>
        <time>2017-12-21T13:37:19Z</time>
      </trkpt>
      <trkpt lat="47.31105" lon="5.90966">
        <ele>212.6</ele>
        <time>2017-12-21T13:37:20Z</time>
      </trkpt>
      <trkpt lat="47.31108" lon="5.90975">
        <ele>212.6</ele>
        <time>2017-12-21T13:37:21Z</time>
      </trkpt>
      <trkpt lat="47.3111" lon="5.90984">
        <ele>212.6</ele>
        <time>2017-12-21T13:37:22Z</time>
      </trkpt>
      <trkpt lat="47.31112" lon="5.90993">
        <ele>212.6</ele>
        <time>2017-12-21T13:37:23Z</time>
      </trkpt>
      <trkpt lat="47.31115" lon="5.91001">
        <ele>212.6</ele>
        <time>2017-12-21T13:37:24Z</time>
      </trkpt>
      <trkpt lat="47.31118" lon="5.91009">
        <ele>212.6</ele>
        <time>2017-12-21T13:37:25Z</time>
      </trkpt>
      <trkpt lat="47.3112" lon="5.91018">
        <ele>212.6</ele>
        <time>2017-12-21T13:37:26Z</time>
      </trkpt>
      <trkpt lat="47.31122" lon="5.91025">
        <ele>212.6</ele>
        <time>2017-12-21T13:37:27Z</time>
      </trkpt>
      <trkpt lat="47.31124" lon="5.91033">
        <ele>212.6</ele>
        <time>2017-12-21T13:37:28Z</time>
      </trkpt>
      <trkpt lat="47.31127" lon="5.91041">
        <ele>212.6</ele>
        <time>2017-12-21T13:37:29Z</time>
      </trkpt>
      <trkpt lat="47.31129" lon="5.91049">
        <ele>212.6</ele>
        <time>2017-12-21T13:37:30Z</time>
      </trkpt>
      <trkpt lat="47.31131" lon="5.91057">
        <ele>212.6</ele>
        <time>2017-12-21T13:37:31Z</time>
      </trkpt>
      <trkpt lat="47.31133" lon="5.91064">
        <ele>212.6</ele>
        <time>2017-12-21T13:37:32Z</time>
      </trkpt>
      <trkpt lat="47.31135" lon="5.91072">
        <ele>212.6</ele>
        <time>2017-12-21T13:37:33Z</time>
      </trkpt>
      <trkpt lat="47.31138" lon="5.9108">
        <ele>212.6</ele>
        <time>2017-12-21T13:37:34Z</time>
      </trkpt>
      <trkpt lat="47.3114" lon="5.91087">
        <ele>212.6</ele>
        <time>2017-12-21T13:37:35Z</time>
      </trkpt>
      <trkpt lat="47.31142" lon="5.91095">
        <ele>212.6</ele>
        <time>2017-12-21T13:37:36Z</time>
      </trkpt>
      <trkpt lat="47.31144" lon="5.91103">
        <ele>212.6</ele>
        <time>2017-12-21T13:37:37Z</time>
      </trkpt>
      <trkpt lat="47.31146" lon="5.91111">
        <ele>212.6</ele>
        <time>2017-12-21T13:37:38Z</time>
      </trkpt>
      <trkpt lat="47.31148" lon="5.91119">
        <ele>212.6</ele>
        <time>2017-12-21T13:37:39Z</time>
      </trkpt>
      <trkpt lat="47.3115" lon="5.91126">
        <ele>212.6</ele>
        <time>2017-12-21T13:37:40Z</time>
      </trkpt>
      <trkpt lat="47.31153" lon="5.91135">
        <ele>212.6</ele>
        <time>2017-12-21T13:37:41Z</time>
      </trkpt>
      <trkpt lat="47.31156" lon="5.91143">
        <ele>212.6</ele>
        <time>2017-12-21T13:37:42Z</time>
      </trkpt>
      <trkpt lat="47.31159" lon="5.91151">
        <ele>212.6</ele>
        <time>2017-12-21T13:37:43Z</time>
      </trkpt>
      <trkpt lat="47.31161" lon="5.91159">
        <ele>212.6</ele>
        <time>2017-12-21T13:37:44Z</time>
      </trkpt>
      <trkpt lat="47.31162" lon="5.91164">
        <ele>212.6</ele>
        <time>2017-12-21T13:37:45Z</time>
      </trkpt>
      <trkpt lat="47.31164" lon="5.91171">
        <ele>212.6</ele>
        <time>2017-12-21T13:37:46Z</time>
      </trkpt>
      <trkpt lat="47.31166" lon="5.91178">
        <ele>212.6</ele>
        <time>2017-12-21T13:37:47Z</time>
      </trkpt>
      <trkpt lat="47.31168" lon="5.91185">
        <ele>212.6</ele>
        <time>2017-12-21T13:37:48Z</time>
      </trkpt>
      <trkpt lat="47.3117" lon="5.91192">
        <ele>212.6</ele>
        <time>2017-12-21T13:37:49Z</time>
      </trkpt>
      <trkpt lat="47.31172" lon="5.91199">
        <ele>212.6</ele>
        <time>2017-12-21T13:37:50Z</time>
      </trkpt>
      <trkpt lat="47.31174" lon="5.91206">
        <ele>212.6</ele>
        <time>2017-12-21T13:37:51Z</time>
      </trkpt>
      <trkpt lat="47.31175" lon="5.91213">
        <ele>212.6</ele>
        <time>2017-12-21T13:37:52Z</time>
      </trkpt>
      <trkpt lat="47.31177" lon="5.9122">
        <ele>212.6</ele>
        <time>2017-12-21T13:37:53Z</time>
      </trkpt>
      <trkpt lat="47.31179" lon="5.91227">
        <ele>212.6</ele>
        <time>2017-12-21T13:37:54Z</time>
      </trkpt>
      <trkpt lat="47.31182" lon="5.91234">
        <ele>212.6</ele>
        <time>2017-12-21T13:37:55Z</time>
      </trkpt>
      <trkpt lat="47.31184" lon="5.91243">
        <ele>212.6</ele>
        <time>2017-12-21T13:37:56Z</time>
      </trkpt>
      <trkpt lat="47.31186" lon="5.91252">
        <ele>212.6</ele>
        <time>2017-12-21T13:37:57Z</time>
      </trkpt>
      <trkpt lat="47.31188" lon="5.91261">
        <ele>212.6</ele>
        <time>2017-12-21T13:37:58Z</time>
      </trkpt>
      <trkpt lat="47.31191" lon="5.91271">
        <ele>212.6</ele>
        <time>2017-12-21T13:37:59Z</time>
      </trkpt>
      <trkpt lat="47.31194" lon="5.9128">
        <ele>212.6</ele>
        <time>2017-12-21T13:38:00Z</time>
      </trkpt>
      <trkpt lat="47.31197" lon="5.91291">
        <ele>212.6</ele>
        <time>2017-12-21T13:38:01Z</time>
      </trkpt>
      <trkpt lat="47.312" lon="5.91301">
        <ele>212.6</ele>
        <time>2017-12-21T13:38:02Z</time>
      </trkpt>
      <trkpt lat="47.31203" lon="5.9131">
        <ele>212.6</ele>
        <time>2017-12-21T13:38:03Z</time>
      </trkpt>
      <trkpt lat="47.31206" lon="5.9132">
        <ele>212.6</ele>
        <time>2017-12-21T13:38:04Z</time>
      </trkpt>
      <trkpt lat="47.3121" lon="5.9133">
        <ele>212.6</ele>
        <time>2017-12-21T13:38:05Z</time>
      </trkpt>
      <trkpt lat="47.31213" lon="5.91341">
        <ele>212.6</ele>
        <time>2017-12-21T13:38:06Z</time>
      </trkpt>
      <trkpt lat="47.31216" lon="5.91352">
        <ele>212.6</ele>
        <time>2017-12-21T13:38:07Z</time>
      </trkpt>
      <trkpt lat="47.31219" lon="5.91362">
        <ele>212.6</ele>
        <time>2017-12-21T13:38:08Z</time>
      </trkpt>
      <trkpt lat="47.31222" lon="5.91373">
        <ele>212.6</ele>
        <time>2017-12-21T13:38:09Z</time>
      </trkpt>
      <trkpt lat="47.31226" lon="5.91384">
        <ele>212.6</ele>
        <time>2017-12-21T13:38:10Z</time>
      </trkpt>
      <trkpt lat="47.31229" lon="5.91394">
        <ele>212.6</ele>
        <time>2017-12-21T13:38:11Z</time>
      </trkpt>
      <trkpt lat="47.31232" lon="5.91405">
        <ele>212.6</ele>
        <time>2017-12-21T13:38:12Z</time>
      </trkpt>
      <trkpt lat="47.31235" lon="5.91416">
        <ele>212.6</ele>
        <time>2017-12-21T13:38:13Z</time>
      </trkpt>
      <trkpt lat="47.31238" lon="5.91427">
        <ele>212.6</ele>
        <time>2017-12-21T13:38:14Z</time>
      </trkpt>
      <trkpt lat="47.3124" lon="5.91438">
        <ele>212.6</ele>
        <time>2017-12-21T13:38:15Z</time>
      </trkpt>
      <trkpt lat="47.31242" lon="5.9145">
        <ele>212.6</ele>
        <time>2017-12-21T13:38:16Z</time>
      </trkpt>
      <trkpt lat="47.31245" lon="5.91461">
        <ele>212.6</ele>
        <time>2017-12-21T13:38:17Z</time>
      </trkpt>
      <trkpt lat="47.31248" lon="5.91472">
        <ele>212.6</ele>
        <time>2017-12-21T13:38:18Z</time>
      </trkpt>
      <trkpt lat="47.31251" lon="5.91483">
        <ele>212.6</ele>
        <time>2017-12-21T13:38:19Z</time>
      </trkpt>
      <trkpt lat="47.31254" lon="5.91493">
        <ele>212.6</ele>
        <time>2017-12-21T13:38:20Z</time>
      </trkpt>
      <trkpt lat="47.31258" lon="5.91503">
        <ele>212.6</ele>
        <time>2017-12-21T13:38:21Z</time>
      </trkpt>
      <trkpt lat="47.31261" lon="5.91514">
        <ele>212.6</ele>
        <time>2017-12-21T13:38:22Z</time>
      </trkpt>
      <trkpt lat="47.31264" lon="5.91524">
        <ele>212.6</ele>
        <time>2017-12-21T13:38:23Z</time>
      </trkpt>
      <trkpt lat="47.31268" lon="5.91535">
        <ele>212.6</ele>
        <time>2017-12-21T13:38:24Z</time>
      </trkpt>
      <trkpt lat="47.31271" lon="5.91546">
        <ele>212.6</ele>
        <time>2017-12-21T13:38:25Z</time>
      </trkpt>
      <trkpt lat="47.31274" lon="5.91556">
        <ele>212.6</ele>
        <time>2017-12-21T13:38:26Z</time>
      </trkpt>
      <trkpt lat="47.31277" lon="5.91567">
        <ele>212.6</ele>
        <time>2017-12-21T13:38:27Z</time>
      </trkpt>
      <trkpt lat="47.3128" lon="5.91577">
        <ele>212.6</ele>
        <time>2017-12-21T13:38:28Z</time>
      </trkpt>
      <trkpt lat="47.31284" lon="5.91588">
        <ele>212.6</ele>
        <time>2017-12-21T13:38:29Z</time>
      </trkpt>
      <trkpt lat="47.31288" lon="5.91598">
        <ele>212.6</ele>
        <time>2017-12-21T13:38:30Z</time>
      </trkpt>
      <trkpt lat="47.31292" lon="5.91608">
        <ele>212.6</ele>
        <time>2017-12-21T13:38:31Z</time>
      </trkpt>
      <trkpt lat="47.31295" lon="5.91618">
        <ele>212.6</ele>
        <time>2017-12-21T13:38:32Z</time>
      </trkpt>
      <trkpt lat="47.31299" lon="5.91627">
        <ele>212.6</ele>
        <time>2017-12-21T13:38:33Z</time>
      </trkpt>
      <trkpt lat="47.31301" lon="5.91637">
        <ele>212.6</ele>
        <time>2017-12-21T13:38:34Z</time>
      </trkpt>
      <trkpt lat="47.31304" lon="5.91646">
        <ele>212.6</ele>
        <time>2017-12-21T13:38:35Z</time>
      </trkpt>
      <trkpt lat="47.31307" lon="5.91654">
        <ele>212.6</ele>
        <time>2017-12-21T13:38:36Z</time>
      </trkpt>
      <trkpt lat="47.3131" lon="5.91662">
        <ele>212.6</ele>
        <time>2017-12-21T13:38:37Z</time>
      </trkpt>
      <trkpt lat="47.31313" lon="5.9167">
        <ele>212.6</ele>
        <time>2017-12-21T13:38:38Z</time>
      </trkpt>
      <trkpt lat="47.31316" lon="5.91679">
        <ele>212.6</ele>
        <time>2017-12-21T13:38:39Z</time>
      </trkpt>
      <trkpt lat="47.31319" lon="5.91688">
        <ele>212.6</ele>
        <time>2017-12-21T13:38:40Z</time>
      </trkpt>
      <trkpt lat="47.31322" lon="5.91696">
        <ele>212.6</ele>
        <time>2017-12-21T13:38:41Z</time>
      </trkpt>
      <trkpt lat="47.31325" lon="5.91704">
        <ele>212.6</ele>
        <time>2017-12-21T13:38:42Z</time>
      </trkpt>
      <trkpt lat="47.31328" lon="5.91713">
        <ele>212.6</ele>
        <time>2017-12-21T13:38:43Z</time>
      </trkpt>
      <trkpt lat="47.31331" lon="5.91722">
        <ele>212.6</ele>
        <time>2017-12-21T13:38:44Z</time>
      </trkpt>
      <trkpt lat="47.31333" lon="5.91732">
        <ele>212.6</ele>
        <time>2017-12-21T13:38:45Z</time>
      </trkpt>
      <trkpt lat="47.31336" lon="5.9174">
        <ele>212.6</ele>
        <time>2017-12-21T13:38:46Z</time>
      </trkpt>
      <trkpt lat="47.31338" lon="5.91749">
        <ele>212.6</ele>
        <time>2017-12-21T13:38:47Z</time>
      </trkpt>
      <trkpt lat="47.3134" lon="5.91758">
        <ele>213</ele>
        <time>2017-12-21T13:38:48Z</time>
      </trkpt>
      <trkpt lat="47.31342" lon="5.91767">
        <ele>213.4</ele>
        <time>2017-12-21T13:38:49Z</time>
      </trkpt>
      <trkpt lat="47.31344" lon="5.91776">
        <ele>213.8</ele>
        <time>2017-12-21T13:38:50Z</time>
      </trkpt>
      <trkpt lat="47.31345" lon="5.91785">
        <ele>214.2</ele>
        <time>2017-12-21T13:38:51Z</time>
      </trkpt>
      <trkpt lat="47.31347" lon="5.91794">
        <ele>214.6</ele>
        <time>2017-12-21T13:38:52Z</time>
      </trkpt>
      <trkpt lat="47.3135" lon="5.91802">
        <ele>214.6</ele>
        <time>2017-12-21T13:38:53Z</time>
      </trkpt>
      <trkpt lat="47.31352" lon="5.91811">
        <ele>214.6</ele>
        <time>2017-12-21T13:38:54Z</time>
      </trkpt>
      <trkpt lat="47.31354" lon="5.91819">
        <ele>214.6</ele>
        <time>2017-12-21T13:38:55Z</time>
      </trkpt>
      <trkpt lat="47.31356" lon="5.91827">
        <ele>214.6</ele>
        <time>2017-12-21T13:38:56Z</time>
      </trkpt>
      <trkpt lat="47.31358" lon="5.91835">
        <ele>214.6</ele>
        <time>2017-12-21T13:38:57Z</time>
      </trkpt>
      <trkpt lat="47.3136" lon="5.91843">
        <ele>214.6</ele>
        <time>2017-12-21T13:38:58Z</time>
      </trkpt>
      <trkpt lat="47.31362" lon="5.91851">
        <ele>214.6</ele>
        <time>2017-12-21T13:38:59Z</time>
      </trkpt>
      <trkpt lat="47.31363" lon="5.9186">
        <ele>214.6</ele>
        <time>2017-12-21T13:39:00Z</time>
      </trkpt>
      <trkpt lat="47.31365" lon="5.91868">
        <ele>214.6</ele>
        <time>2017-12-21T13:39:01Z</time>
      </trkpt>
      <trkpt lat="47.31367" lon="5.91875">
        <ele>214.6</ele>
        <time>2017-12-21T13:39:02Z</time>
      </trkpt>
      <trkpt lat="47.31369" lon="5.91883">
        <ele>215</ele>
        <time>2017-12-21T13:39:03Z</time>
      </trkpt>
      <trkpt lat="47.31371" lon="5.9189">
        <ele>215.4</ele>
        <time>2017-12-21T13:39:04Z</time>
      </trkpt>
      <trkpt lat="47.31373" lon="5.91898">
        <ele>216</ele>
        <time>2017-12-21T13:39:05Z</time>
      </trkpt>
      <trkpt lat="47.31374" lon="5.91905">
        <ele>216.4</ele>
        <time>2017-12-21T13:39:06Z</time>
      </trkpt>
      <trkpt lat="47.31376" lon="5.91913">
        <ele>216.8</ele>
        <time>2017-12-21T13:39:07Z</time>
      </trkpt>
      <trkpt lat="47.31378" lon="5.9192">
        <ele>216.8</ele>
        <time>2017-12-21T13:39:08Z</time>
      </trkpt>
      <trkpt lat="47.3138" lon="5.91928">
        <ele>216.8</ele>
        <time>2017-12-21T13:39:09Z</time>
      </trkpt>
      <trkpt lat="47.31382" lon="5.91935">
        <ele>216.8</ele>
        <time>2017-12-21T13:39:10Z</time>
      </trkpt>
      <trkpt lat="47.31384" lon="5.91942">
        <ele>216.8</ele>
        <time>2017-12-21T13:39:11Z</time>
      </trkpt>
      <trkpt lat="47.31385" lon="5.91949">
        <ele>216.8</ele>
        <time>2017-12-21T13:39:12Z</time>
      </trkpt>
      <trkpt lat="47.31387" lon="5.91956">
        <ele>216.8</ele>
        <time>2017-12-21T13:39:13Z</time>
      </trkpt>
      <trkpt lat="47.31388" lon="5.91964">
        <ele>216.8</ele>
        <time>2017-12-21T13:39:14Z</time>
      </trkpt>
      <trkpt lat="47.3139" lon="5.91971">
        <ele>216.8</ele>
        <time>2017-12-21T13:39:15Z</time>
      </trkpt>
      <trkpt lat="47.31391" lon="5.91978">
        <ele>216.8</ele>
        <time>2017-12-21T13:39:16Z</time>
      </trkpt>
      <trkpt lat="47.31393" lon="5.91984">
        <ele>217.2</ele>
        <time>2017-12-21T13:39:17Z</time>
      </trkpt>
      <trkpt lat="47.31394" lon="5.91991">
        <ele>218</ele>
        <time>2017-12-21T13:39:18Z</time>
      </trkpt>
      <trkpt lat="47.31395" lon="5.91998">
        <ele>218.4</ele>
        <time>2017-12-21T13:39:19Z</time>
      </trkpt>
      <trkpt lat="47.31397" lon="5.92005">
        <ele>218.8</ele>
        <time>2017-12-21T13:39:20Z</time>
      </trkpt>
      <trkpt lat="47.31399" lon="5.92012">
        <ele>218.8</ele>
        <time>2017-12-21T13:39:21Z</time>
      </trkpt>
      <trkpt lat="47.314" lon="5.9202">
        <ele>218.8</ele>
        <time>2017-12-21T13:39:22Z</time>
      </trkpt>
      <trkpt lat="47.31402" lon="5.92028">
        <ele>218.8</ele>
        <time>2017-12-21T13:39:23Z</time>
      </trkpt>
      <trkpt lat="47.31404" lon="5.92035">
        <ele>218.8</ele>
        <time>2017-12-21T13:39:24Z</time>
      </trkpt>
      <trkpt lat="47.31406" lon="5.92042">
        <ele>219.4</ele>
        <time>2017-12-21T13:39:25Z</time>
      </trkpt>
      <trkpt lat="47.31408" lon="5.92049">
        <ele>219.8</ele>
        <time>2017-12-21T13:39:26Z</time>
      </trkpt>
      <trkpt lat="47.3141" lon="5.92055">
        <ele>220.2</ele>
        <time>2017-12-21T13:39:27Z</time>
      </trkpt>
      <trkpt lat="47.31413" lon="5.9206">
        <ele>220.6</ele>
        <time>2017-12-21T13:39:28Z</time>
      </trkpt>
      <trkpt lat="47.31415" lon="5.92066">
        <ele>221</ele>
        <time>2017-12-21T13:39:29Z</time>
      </trkpt>
      <trkpt lat="47.31417" lon="5.92071">
        <ele>221</ele>
        <time>2017-12-21T13:39:30Z</time>
      </trkpt>
      <trkpt lat="47.31419" lon="5.92077">
        <ele>221</ele>
        <time>2017-12-21T13:39:31Z</time>
      </trkpt>
      <trkpt lat="47.3142" lon="5.92082">
        <ele>221</ele>
        <time>2017-12-21T13:39:32Z</time>
      </trkpt>
      <trkpt lat="47.31422" lon="5.92087">
        <ele>221</ele>
        <time>2017-12-21T13:39:33Z</time>
      </trkpt>
      <trkpt lat="47.31424" lon="5.92092">
        <ele>221</ele>
        <time>2017-12-21T13:39:34Z</time>
      </trkpt>
      <trkpt lat="47.31426" lon="5.92097">
        <ele>221</ele>
        <time>2017-12-21T13:39:35Z</time>
      </trkpt>
      <trkpt lat="47.31426" lon="5.92103">
        <ele>221.4</ele>
        <time>2017-12-21T13:39:36Z</time>
      </trkpt>
      <trkpt lat="47.31427" lon="5.92109">
        <ele>221.8</ele>
        <time>2017-12-21T13:39:37Z</time>
      </trkpt>
      <trkpt lat="47.31428" lon="5.92114">
        <ele>222.2</ele>
        <time>2017-12-21T13:39:38Z</time>
      </trkpt>
      <trkpt lat="47.31429" lon="5.92121">
        <ele>222.8</ele>
        <time>2017-12-21T13:39:39Z</time>
      </trkpt>
      <trkpt lat="47.3143" lon="5.92127">
        <ele>223.2</ele>
        <time>2017-12-21T13:39:40Z</time>
      </trkpt>
      <trkpt lat="47.31432" lon="5.92133">
        <ele>223.2</ele>
        <time>2017-12-21T13:39:41Z</time>
      </trkpt>
      <trkpt lat="47.31433" lon="5.92139">
        <ele>223.2</ele>
        <time>2017-12-21T13:39:42Z</time>
      </trkpt>
      <trkpt lat="47.31435" lon="5.92145">
        <ele>223.2</ele>
        <time>2017-12-21T13:39:43Z</time>
      </trkpt>
      <trkpt lat="47.31437" lon="5.92151">
        <ele>223.2</ele>
        <time>2017-12-21T13:39:44Z</time>
      </trkpt>
      <trkpt lat="47.31438" lon="5.92157">
        <ele>223.2</ele>
        <time>2017-12-21T13:39:45Z</time>
      </trkpt>
      <trkpt lat="47.3144" lon="5.92163">
        <ele>223.2</ele>
        <time>2017-12-21T13:39:46Z</time>
      </trkpt>
      <trkpt lat="47.31442" lon="5.9217">
        <ele>223.2</ele>
        <time>2017-12-21T13:39:47Z</time>
      </trkpt>
      <trkpt lat="47.31444" lon="5.92176">
        <ele>223.2</ele>
        <time>2017-12-21T13:39:48Z</time>
      </trkpt>
      <trkpt lat="47.31445" lon="5.92182">
        <ele>223.6</ele>
        <time>2017-12-21T13:39:49Z</time>
      </trkpt>
      <trkpt lat="47.31447" lon="5.92189">
        <ele>224</ele>
        <time>2017-12-21T13:39:50Z</time>
      </trkpt>
      <trkpt lat="47.31448" lon="5.92195">
        <ele>224.4</ele>
        <time>2017-12-21T13:39:51Z</time>
      </trkpt>
      <trkpt lat="47.31449" lon="5.92201">
        <ele>224.8</ele>
        <time>2017-12-21T13:39:52Z</time>
      </trkpt>
      <trkpt lat="47.31451" lon="5.92207">
        <ele>225.2</ele>
        <time>2017-12-21T13:39:53Z</time>
      </trkpt>
      <trkpt lat="47.31452" lon="5.92213">
        <ele>225.2</ele>
        <time>2017-12-21T13:39:54Z</time>
      </trkpt>
      <trkpt lat="47.31453" lon="5.9222">
        <ele>225.2</ele>
        <time>2017-12-21T13:39:55Z</time>
      </trkpt>
      <trkpt lat="47.31455" lon="5.92228">
        <ele>225.2</ele>
        <time>2017-12-21T13:39:56Z</time>
      </trkpt>
      <trkpt lat="47.31457" lon="5.92236">
        <ele>225.2</ele>
        <time>2017-12-21T13:39:57Z</time>
      </trkpt>
      <trkpt lat="47.31458" lon="5.92243">
        <ele>225.2</ele>
        <time>2017-12-21T13:39:58Z</time>
      </trkpt>
      <trkpt lat="47.31459" lon="5.92251">
        <ele>225.2</ele>
        <time>2017-12-21T13:39:59Z</time>
      </trkpt>
      <trkpt lat="47.31461" lon="5.92258">
        <ele>225.2</ele>
        <time>2017-12-21T13:40:00Z</time>
      </trkpt>
      <trkpt lat="47.31464" lon="5.92265">
        <ele>225.2</ele>
        <time>2017-12-21T13:40:01Z</time>
      </trkpt>
      <trkpt lat="47.31467" lon="5.92271">
        <ele>225.2</ele>
        <time>2017-12-21T13:40:02Z</time>
      </trkpt>
      <trkpt lat="47.31469" lon="5.92278">
        <ele>225.2</ele>
        <time>2017-12-21T13:40:03Z</time>
      </trkpt>
      <trkpt lat="47.3147" lon="5.92285">
        <ele>225.2</ele>
        <time>2017-12-21T13:40:04Z</time>
      </trkpt>
      <trkpt lat="47.31473" lon="5.92292">
        <ele>225.2</ele>
        <time>2017-12-21T13:40:05Z</time>
      </trkpt>
      <trkpt lat="47.31474" lon="5.92299">
        <ele>225.2</ele>
        <time>2017-12-21T13:40:06Z</time>
      </trkpt>
      <trkpt lat="47.31476" lon="5.92307">
        <ele>225.2</ele>
        <time>2017-12-21T13:40:07Z</time>
      </trkpt>
      <trkpt lat="47.31477" lon="5.92314">
        <ele>225.6</ele>
        <time>2017-12-21T13:40:08Z</time>
      </trkpt>
      <trkpt lat="47.31479" lon="5.92322">
        <ele>226</ele>
        <time>2017-12-21T13:40:09Z</time>
      </trkpt>
      <trkpt lat="47.31481" lon="5.92329">
        <ele>226.4</ele>
        <time>2017-12-21T13:40:10Z</time>
      </trkpt>
      <trkpt lat="47.31483" lon="5.92336">
        <ele>227</ele>
        <time>2017-12-21T13:40:11Z</time>
      </trkpt>
      <trkpt lat="47.31485" lon="5.92343">
        <ele>227.4</ele>
        <time>2017-12-21T13:40:12Z</time>
      </trkpt>
      <trkpt lat="47.31487" lon="5.92349">
        <ele>227.4</ele>
        <time>2017-12-21T13:40:13Z</time>
      </trkpt>
      <trkpt lat="47.31488" lon="5.92357">
        <ele>227.4</ele>
        <time>2017-12-21T13:40:14Z</time>
      </trkpt>
      <trkpt lat="47.31489" lon="5.92365">
        <ele>227.4</ele>
        <time>2017-12-21T13:40:15Z</time>
      </trkpt>
      <trkpt lat="47.3149" lon="5.92372">
        <ele>227.4</ele>
        <time>2017-12-21T13:40:16Z</time>
      </trkpt>
      <trkpt lat="47.31491" lon="5.9238">
        <ele>227.4</ele>
        <time>2017-12-21T13:40:17Z</time>
      </trkpt>
      <trkpt lat="47.31492" lon="5.92387">
        <ele>227.4</ele>
        <time>2017-12-21T13:40:18Z</time>
      </trkpt>
      <trkpt lat="47.31492" lon="5.92394">
        <ele>227.4</ele>
        <time>2017-12-21T13:40:19Z</time>
      </trkpt>
      <trkpt lat="47.31494" lon="5.92401">
        <ele>227.4</ele>
        <time>2017-12-21T13:40:20Z</time>
      </trkpt>
      <trkpt lat="47.31495" lon="5.92408">
        <ele>227.4</ele>
        <time>2017-12-21T13:40:21Z</time>
      </trkpt>
      <trkpt lat="47.31496" lon="5.92415">
        <ele>227.4</ele>
        <time>2017-12-21T13:40:22Z</time>
      </trkpt>
      <trkpt lat="47.31499" lon="5.92424">
        <ele>227.4</ele>
        <time>2017-12-21T13:40:23Z</time>
      </trkpt>
      <trkpt lat="47.315" lon="5.92432">
        <ele>227.4</ele>
        <time>2017-12-21T13:40:24Z</time>
      </trkpt>
      <trkpt lat="47.31502" lon="5.92441">
        <ele>227.8</ele>
        <time>2017-12-21T13:40:25Z</time>
      </trkpt>
      <trkpt lat="47.31504" lon="5.9245">
        <ele>228.2</ele>
        <time>2017-12-21T13:40:26Z</time>
      </trkpt>
      <trkpt lat="47.31507" lon="5.92458">
        <ele>228.6</ele>
        <time>2017-12-21T13:40:27Z</time>
      </trkpt>
      <trkpt lat="47.3151" lon="5.92467">
        <ele>229</ele>
        <time>2017-12-21T13:40:28Z</time>
      </trkpt>
      <trkpt lat="47.31513" lon="5.92476">
        <ele>229.4</ele>
        <time>2017-12-21T13:40:29Z</time>
      </trkpt>
      <trkpt lat="47.31515" lon="5.92485">
        <ele>229.4</ele>
        <time>2017-12-21T13:40:30Z</time>
      </trkpt>
      <trkpt lat="47.31517" lon="5.92495">
        <ele>229.4</ele>
        <time>2017-12-21T13:40:31Z</time>
      </trkpt>
      <trkpt lat="47.31518" lon="5.92504">
        <ele>229.4</ele>
        <time>2017-12-21T13:40:32Z</time>
      </trkpt>
      <trkpt lat="47.31519" lon="5.92514">
        <ele>229.4</ele>
        <time>2017-12-21T13:40:33Z</time>
      </trkpt>
      <trkpt lat="47.31521" lon="5.92524">
        <ele>229.4</ele>
        <time>2017-12-21T13:40:34Z</time>
      </trkpt>
      <trkpt lat="47.31521" lon="5.92534">
        <ele>229.4</ele>
        <time>2017-12-21T13:40:35Z</time>
      </trkpt>
      <trkpt lat="47.31521" lon="5.92544">
        <ele>229.4</ele>
        <time>2017-12-21T13:40:36Z</time>
      </trkpt>
      <trkpt lat="47.31521" lon="5.92554">
        <ele>229.4</ele>
        <time>2017-12-21T13:40:37Z</time>
      </trkpt>
      <trkpt lat="47.3152" lon="5.92564">
        <ele>229.4</ele>
        <time>2017-12-21T13:40:38Z</time>
      </trkpt>
      <trkpt lat="47.3152" lon="5.92574">
        <ele>229.4</ele>
        <time>2017-12-21T13:40:39Z</time>
      </trkpt>
      <trkpt lat="47.3152" lon="5.92583">
        <ele>229.4</ele>
        <time>2017-12-21T13:40:40Z</time>
      </trkpt>
      <trkpt lat="47.3152" lon="5.92593">
        <ele>229.4</ele>
        <time>2017-12-21T13:40:41Z</time>
      </trkpt>
      <trkpt lat="47.31519" lon="5.92603">
        <ele>229.4</ele>
        <time>2017-12-21T13:40:42Z</time>
      </trkpt>
      <trkpt lat="47.31519" lon="5.92613">
        <ele>229.4</ele>
        <time>2017-12-21T13:40:43Z</time>
      </trkpt>
      <trkpt lat="47.31519" lon="5.92624">
        <ele>229</ele>
        <time>2017-12-21T13:40:44Z</time>
      </trkpt>
      <trkpt lat="47.31519" lon="5.92634">
        <ele>228.6</ele>
        <time>2017-12-21T13:40:45Z</time>
      </trkpt>
      <trkpt lat="47.31519" lon="5.92644">
        <ele>228.2</ele>
        <time>2017-12-21T13:40:46Z</time>
      </trkpt>
      <trkpt lat="47.31518" lon="5.92655">
        <ele>227.8</ele>
        <time>2017-12-21T13:40:47Z</time>
      </trkpt>
      <trkpt lat="47.31517" lon="5.92665">
        <ele>227.2</ele>
        <time>2017-12-21T13:40:48Z</time>
      </trkpt>
      <trkpt lat="47.31517" lon="5.92675">
        <ele>227.2</ele>
        <time>2017-12-21T13:40:49Z</time>
      </trkpt>
      <trkpt lat="47.31516" lon="5.92686">
        <ele>227.2</ele>
        <time>2017-12-21T13:40:50Z</time>
      </trkpt>
      <trkpt lat="47.31516" lon="5.92696">
        <ele>227.2</ele>
        <time>2017-12-21T13:40:51Z</time>
      </trkpt>
      <trkpt lat="47.31515" lon="5.92707">
        <ele>227.2</ele>
        <time>2017-12-21T13:40:52Z</time>
      </trkpt>
      <trkpt lat="47.31514" lon="5.92717">
        <ele>227.2</ele>
        <time>2017-12-21T13:40:53Z</time>
      </trkpt>
      <trkpt lat="47.31514" lon="5.92726">
        <ele>227.2</ele>
        <time>2017-12-21T13:40:54Z</time>
      </trkpt>
      <trkpt lat="47.31513" lon="5.92736">
        <ele>227.2</ele>
        <time>2017-12-21T13:40:55Z</time>
      </trkpt>
      <trkpt lat="47.31513" lon="5.92746">
        <ele>226.8</ele>
        <time>2017-12-21T13:40:56Z</time>
      </trkpt>
      <trkpt lat="47.31512" lon="5.92756">
        <ele>226.4</ele>
        <time>2017-12-21T13:40:57Z</time>
      </trkpt>
      <trkpt lat="47.31511" lon="5.92766">
        <ele>225.6</ele>
        <time>2017-12-21T13:40:58Z</time>
      </trkpt>
      <trkpt lat="47.31511" lon="5.92776">
        <ele>225.2</ele>
        <time>2017-12-21T13:40:59Z</time>
      </trkpt>
      <trkpt lat="47.3151" lon="5.92786">
        <ele>225.2</ele>
        <time>2017-12-21T13:41:00Z</time>
      </trkpt>
      <trkpt lat="47.3151" lon="5.92796">
        <ele>225.2</ele>
        <time>2017-12-21T13:41:01Z</time>
      </trkpt>
      <trkpt lat="47.31509" lon="5.92807">
        <ele>225.2</ele>
        <time>2017-12-21T13:41:02Z</time>
      </trkpt>
      <trkpt lat="47.31509" lon="5.92817">
        <ele>225.2</ele>
        <time>2017-12-21T13:41:03Z</time>
      </trkpt>
      <trkpt lat="47.31508" lon="5.92827">
        <ele>225.2</ele>
        <time>2017-12-21T13:41:04Z</time>
      </trkpt>
      <trkpt lat="47.31508" lon="5.92838">
        <ele>225.2</ele>
        <time>2017-12-21T13:41:05Z</time>
      </trkpt>
      <trkpt lat="47.31507" lon="5.92848">
        <ele>225.2</ele>
        <time>2017-12-21T13:41:06Z</time>
      </trkpt>
      <trkpt lat="47.31506" lon="5.92859">
        <ele>224.8</ele>
        <time>2017-12-21T13:41:07Z</time>
      </trkpt>
      <trkpt lat="47.31506" lon="5.9287">
        <ele>224.2</ele>
        <time>2017-12-21T13:41:08Z</time>
      </trkpt>
      <trkpt lat="47.31506" lon="5.92881">
        <ele>223.8</ele>
        <time>2017-12-21T13:41:09Z</time>
      </trkpt>
      <trkpt lat="47.31505" lon="5.92892">
        <ele>223.4</ele>
        <time>2017-12-21T13:41:10Z</time>
      </trkpt>
      <trkpt lat="47.31504" lon="5.92903">
        <ele>223</ele>
        <time>2017-12-21T13:41:11Z</time>
      </trkpt>
      <trkpt lat="47.31504" lon="5.92914">
        <ele>223</ele>
        <time>2017-12-21T13:41:12Z</time>
      </trkpt>
      <trkpt lat="47.31504" lon="5.92925">
        <ele>223</ele>
        <time>2017-12-21T13:41:13Z</time>
      </trkpt>
      <trkpt lat="47.31504" lon="5.92936">
        <ele>223</ele>
        <time>2017-12-21T13:41:14Z</time>
      </trkpt>
      <trkpt lat="47.31504" lon="5.92948">
        <ele>223</ele>
        <time>2017-12-21T13:41:15Z</time>
      </trkpt>
      <trkpt lat="47.31503" lon="5.92959">
        <ele>223</ele>
        <time>2017-12-21T13:41:16Z</time>
      </trkpt>
      <trkpt lat="47.31502" lon="5.9297">
        <ele>223</ele>
        <time>2017-12-21T13:41:17Z</time>
      </trkpt>
      <trkpt lat="47.31502" lon="5.92982">
        <ele>223</ele>
        <time>2017-12-21T13:41:18Z</time>
      </trkpt>
      <trkpt lat="47.31501" lon="5.92993">
        <ele>222.6</ele>
        <time>2017-12-21T13:41:19Z</time>
      </trkpt>
      <trkpt lat="47.31501" lon="5.93005">
        <ele>222.2</ele>
        <time>2017-12-21T13:41:20Z</time>
      </trkpt>
      <trkpt lat="47.315" lon="5.93017">
        <ele>221.6</ele>
        <time>2017-12-21T13:41:21Z</time>
      </trkpt>
      <trkpt lat="47.315" lon="5.9303">
        <ele>220.8</ele>
        <time>2017-12-21T13:41:22Z</time>
      </trkpt>
      <trkpt lat="47.31499" lon="5.93042">
        <ele>220.8</ele>
        <time>2017-12-21T13:41:23Z</time>
      </trkpt>
      <trkpt lat="47.31499" lon="5.93057">
        <ele>220.8</ele>
        <time>2017-12-21T13:41:24Z</time>
      </trkpt>
      <trkpt lat="47.31498" lon="5.93066">
        <ele>220.8</ele>
        <time>2017-12-21T13:41:25Z</time>
      </trkpt>
      <trkpt lat="47.31498" lon="5.93079">
        <ele>220.8</ele>
        <time>2017-12-21T13:41:26Z</time>
      </trkpt>
      <trkpt lat="47.31497" lon="5.93091">
        <ele>220.4</ele>
        <time>2017-12-21T13:41:27Z</time>
      </trkpt>
      <trkpt lat="47.31497" lon="5.93104">
        <ele>220</ele>
        <time>2017-12-21T13:41:28Z</time>
      </trkpt>
      <trkpt lat="47.31496" lon="5.93117">
        <ele>219.6</ele>
        <time>2017-12-21T13:41:29Z</time>
      </trkpt>
      <trkpt lat="47.31495" lon="5.93131">
        <ele>219.2</ele>
        <time>2017-12-21T13:41:30Z</time>
      </trkpt>
      <trkpt lat="47.31493" lon="5.93144">
        <ele>218.8</ele>
        <time>2017-12-21T13:41:31Z</time>
      </trkpt>
      <trkpt lat="47.31491" lon="5.93158">
        <ele>218.8</ele>
        <time>2017-12-21T13:41:32Z</time>
      </trkpt>
      <trkpt lat="47.31489" lon="5.93171">
        <ele>218.8</ele>
        <time>2017-12-21T13:41:33Z</time>
      </trkpt>
      <trkpt lat="47.31487" lon="5.93184">
        <ele>218.8</ele>
        <time>2017-12-21T13:41:34Z</time>
      </trkpt>
      <trkpt lat="47.31485" lon="5.93197">
        <ele>218.8</ele>
        <time>2017-12-21T13:41:35Z</time>
      </trkpt>
      <trkpt lat="47.31483" lon="5.93209">
        <ele>218.8</ele>
        <time>2017-12-21T13:41:36Z</time>
      </trkpt>
      <trkpt lat="47.3148" lon="5.93222">
        <ele>218.8</ele>
        <time>2017-12-21T13:41:37Z</time>
      </trkpt>
      <trkpt lat="47.31477" lon="5.93234">
        <ele>218.4</ele>
        <time>2017-12-21T13:41:38Z</time>
      </trkpt>
      <trkpt lat="47.31474" lon="5.93246">
        <ele>217.8</ele>
        <time>2017-12-21T13:41:39Z</time>
      </trkpt>
      <trkpt lat="47.3147" lon="5.93257">
        <ele>217.4</ele>
        <time>2017-12-21T13:41:40Z</time>
      </trkpt>
      <trkpt lat="47.31466" lon="5.93269">
        <ele>217</ele>
        <time>2017-12-21T13:41:41Z</time>
      </trkpt>
      <trkpt lat="47.31462" lon="5.9328">
        <ele>216.6</ele>
        <time>2017-12-21T13:41:42Z</time>
      </trkpt>
      <trkpt lat="47.31457" lon="5.9329">
        <ele>216.6</ele>
        <time>2017-12-21T13:41:43Z</time>
      </trkpt>
      <trkpt lat="47.31453" lon="5.933">
        <ele>216.6</ele>
        <time>2017-12-21T13:41:44Z</time>
      </trkpt>
      <trkpt lat="47.31448" lon="5.9331">
        <ele>216.6</ele>
        <time>2017-12-21T13:41:45Z</time>
      </trkpt>
      <trkpt lat="47.31444" lon="5.93318">
        <ele>216.6</ele>
        <time>2017-12-21T13:41:46Z</time>
      </trkpt>
      <trkpt lat="47.31439" lon="5.93327">
        <ele>216.6</ele>
        <time>2017-12-21T13:41:47Z</time>
      </trkpt>
      <trkpt lat="47.31434" lon="5.93335">
        <ele>216.6</ele>
        <time>2017-12-21T13:41:48Z</time>
      </trkpt>
      <trkpt lat="47.3143" lon="5.93343">
        <ele>216.6</ele>
        <time>2017-12-21T13:41:49Z</time>
      </trkpt>
      <trkpt lat="47.31425" lon="5.93351">
        <ele>216.6</ele>
        <time>2017-12-21T13:41:50Z</time>
      </trkpt>
      <trkpt lat="47.3142" lon="5.93358">
        <ele>216.6</ele>
        <time>2017-12-21T13:41:51Z</time>
      </trkpt>
      <trkpt lat="47.31414" lon="5.93365">
        <ele>216.6</ele>
        <time>2017-12-21T13:41:52Z</time>
      </trkpt>
      <trkpt lat="47.31409" lon="5.93372">
        <ele>216.6</ele>
        <time>2017-12-21T13:41:53Z</time>
      </trkpt>
      <trkpt lat="47.31404" lon="5.93378">
        <ele>216.6</ele>
        <time>2017-12-21T13:41:54Z</time>
      </trkpt>
      <trkpt lat="47.31399" lon="5.93385">
        <ele>216.6</ele>
        <time>2017-12-21T13:41:55Z</time>
      </trkpt>
      <trkpt lat="47.31394" lon="5.93391">
        <ele>216.6</ele>
        <time>2017-12-21T13:41:56Z</time>
      </trkpt>
      <trkpt lat="47.3139" lon="5.93396">
        <ele>216.6</ele>
        <time>2017-12-21T13:41:57Z</time>
      </trkpt>
      <trkpt lat="47.31385" lon="5.93402">
        <ele>216.6</ele>
        <time>2017-12-21T13:41:58Z</time>
      </trkpt>
      <trkpt lat="47.31381" lon="5.93409">
        <ele>216.6</ele>
        <time>2017-12-21T13:41:59Z</time>
      </trkpt>
      <trkpt lat="47.31376" lon="5.93415">
        <ele>216.6</ele>
        <time>2017-12-21T13:42:00Z</time>
      </trkpt>
      <trkpt lat="47.31371" lon="5.93422">
        <ele>216.6</ele>
        <time>2017-12-21T13:42:01Z</time>
      </trkpt>
      <trkpt lat="47.31367" lon="5.93429">
        <ele>216.6</ele>
        <time>2017-12-21T13:42:02Z</time>
      </trkpt>
      <trkpt lat="47.31362" lon="5.93436">
        <ele>216.6</ele>
        <time>2017-12-21T13:42:03Z</time>
      </trkpt>
      <trkpt lat="47.31358" lon="5.93443">
        <ele>216.6</ele>
        <time>2017-12-21T13:42:04Z</time>
      </trkpt>
      <trkpt lat="47.31355" lon="5.93451">
        <ele>216.6</ele>
        <time>2017-12-21T13:42:05Z</time>
      </trkpt>
      <trkpt lat="47.31351" lon="5.93459">
        <ele>217</ele>
        <time>2017-12-21T13:42:06Z</time>
      </trkpt>
      <trkpt lat="47.31348" lon="5.93467">
        <ele>217.4</ele>
        <time>2017-12-21T13:42:07Z</time>
      </trkpt>
      <trkpt lat="47.31345" lon="5.93476">
        <ele>217.8</ele>
        <time>2017-12-21T13:42:08Z</time>
      </trkpt>
      <trkpt lat="47.31342" lon="5.93484">
        <ele>218.2</ele>
        <time>2017-12-21T13:42:09Z</time>
      </trkpt>
      <trkpt lat="47.31339" lon="5.93493">
        <ele>218.6</ele>
        <time>2017-12-21T13:42:10Z</time>
      </trkpt>
      <trkpt lat="47.31337" lon="5.93501">
        <ele>218.6</ele>
        <time>2017-12-21T13:42:11Z</time>
      </trkpt>
      <trkpt lat="47.31334" lon="5.9351">
        <ele>218.6</ele>
        <time>2017-12-21T13:42:12Z</time>
      </trkpt>
      <trkpt lat="47.31331" lon="5.93519">
        <ele>218.6</ele>
        <time>2017-12-21T13:42:13Z</time>
      </trkpt>
      <trkpt lat="47.31328" lon="5.93528">
        <ele>218.6</ele>
        <time>2017-12-21T13:42:14Z</time>
      </trkpt>
      <trkpt lat="47.31325" lon="5.93537">
        <ele>218.6</ele>
        <time>2017-12-21T13:42:15Z</time>
      </trkpt>
      <trkpt lat="47.31322" lon="5.93546">
        <ele>218.6</ele>
        <time>2017-12-21T13:42:16Z</time>
      </trkpt>
      <trkpt lat="47.3132" lon="5.93556">
        <ele>218.6</ele>
        <time>2017-12-21T13:42:17Z</time>
      </trkpt>
      <trkpt lat="47.31317" lon="5.93565">
        <ele>218.6</ele>
        <time>2017-12-21T13:42:18Z</time>
      </trkpt>
      <trkpt lat="47.31315" lon="5.93574">
        <ele>218.6</ele>
        <time>2017-12-21T13:42:19Z</time>
      </trkpt>
      <trkpt lat="47.31313" lon="5.93583">
        <ele>218.6</ele>
        <time>2017-12-21T13:42:20Z</time>
      </trkpt>
      <trkpt lat="47.31311" lon="5.93592">
        <ele>218.6</ele>
        <time>2017-12-21T13:42:21Z</time>
      </trkpt>
      <trkpt lat="47.31309" lon="5.93601">
        <ele>218.6</ele>
        <time>2017-12-21T13:42:22Z</time>
      </trkpt>
      <trkpt lat="47.31307" lon="5.9361">
        <ele>218.6</ele>
        <time>2017-12-21T13:42:23Z</time>
      </trkpt>
      <trkpt lat="47.31305" lon="5.93618">
        <ele>218.6</ele>
        <time>2017-12-21T13:42:24Z</time>
      </trkpt>
      <trkpt lat="47.31304" lon="5.93626">
        <ele>218.6</ele>
        <time>2017-12-21T13:42:25Z</time>
      </trkpt>
      <trkpt lat="47.31303" lon="5.93635">
        <ele>218.6</ele>
        <time>2017-12-21T13:42:26Z</time>
      </trkpt>
      <trkpt lat="47.31302" lon="5.93643">
        <ele>219</ele>
        <time>2017-12-21T13:42:27Z</time>
      </trkpt>
      <trkpt lat="47.31301" lon="5.93651">
        <ele>219.4</ele>
        <time>2017-12-21T13:42:28Z</time>
      </trkpt>
      <trkpt lat="47.313" lon="5.93659">
        <ele>219.8</ele>
        <time>2017-12-21T13:42:29Z</time>
      </trkpt>
      <trkpt lat="47.31299" lon="5.93667">
        <ele>220.2</ele>
        <time>2017-12-21T13:42:30Z</time>
      </trkpt>
      <trkpt lat="47.31298" lon="5.93675">
        <ele>220.6</ele>
        <time>2017-12-21T13:42:31Z</time>
      </trkpt>
      <trkpt lat="47.31297" lon="5.93683">
        <ele>220.6</ele>
        <time>2017-12-21T13:42:32Z</time>
      </trkpt>
      <trkpt lat="47.31296" lon="5.93691">
        <ele>220.6</ele>
        <time>2017-12-21T13:42:33Z</time>
      </trkpt>
      <trkpt lat="47.31296" lon="5.93699">
        <ele>220.6</ele>
        <time>2017-12-21T13:42:34Z</time>
      </trkpt>
      <trkpt lat="47.31295" lon="5.93706">
        <ele>221</ele>
        <time>2017-12-21T13:42:35Z</time>
      </trkpt>
      <trkpt lat="47.31295" lon="5.93714">
        <ele>221.6</ele>
        <time>2017-12-21T13:42:36Z</time>
      </trkpt>
      <trkpt lat="47.31295" lon="5.93721">
        <ele>222</ele>
        <time>2017-12-21T13:42:37Z</time>
      </trkpt>
      <trkpt lat="47.31295" lon="5.9373">
        <ele>222.4</ele>
        <time>2017-12-21T13:42:38Z</time>
      </trkpt>
      <trkpt lat="47.31296" lon="5.93737">
        <ele>222.8</ele>
        <time>2017-12-21T13:42:39Z</time>
      </trkpt>
      <trkpt lat="47.31296" lon="5.93746">
        <ele>222.8</ele>
        <time>2017-12-21T13:42:40Z</time>
      </trkpt>
      <trkpt lat="47.31297" lon="5.93754">
        <ele>222.8</ele>
        <time>2017-12-21T13:42:41Z</time>
      </trkpt>
      <trkpt lat="47.31297" lon="5.93763">
        <ele>222.8</ele>
        <time>2017-12-21T13:42:42Z</time>
      </trkpt>
      <trkpt lat="47.31298" lon="5.93771">
        <ele>222.8</ele>
        <time>2017-12-21T13:42:43Z</time>
      </trkpt>
      <trkpt lat="47.31299" lon="5.93779">
        <ele>222.8</ele>
        <time>2017-12-21T13:42:44Z</time>
      </trkpt>
      <trkpt lat="47.313" lon="5.93786">
        <ele>222.8</ele>
        <time>2017-12-21T13:42:45Z</time>
      </trkpt>
      <trkpt lat="47.31302" lon="5.93794">
        <ele>223.2</ele>
        <time>2017-12-21T13:42:46Z</time>
      </trkpt>
      <trkpt lat="47.31303" lon="5.93802">
        <ele>223.6</ele>
        <time>2017-12-21T13:42:47Z</time>
      </trkpt>
      <trkpt lat="47.31304" lon="5.9381">
        <ele>224</ele>
        <time>2017-12-21T13:42:48Z</time>
      </trkpt>
      <trkpt lat="47.31306" lon="5.93818">
        <ele>224.4</ele>
        <time>2017-12-21T13:42:49Z</time>
      </trkpt>
      <trkpt lat="47.31307" lon="5.93826">
        <ele>224.8</ele>
        <time>2017-12-21T13:42:50Z</time>
      </trkpt>
      <trkpt lat="47.31309" lon="5.93833">
        <ele>224.8</ele>
        <time>2017-12-21T13:42:51Z</time>
      </trkpt>
      <trkpt lat="47.31311" lon="5.9384">
        <ele>224.8</ele>
        <time>2017-12-21T13:42:52Z</time>
      </trkpt>
      <trkpt lat="47.31313" lon="5.93848">
        <ele>224.8</ele>
        <time>2017-12-21T13:42:53Z</time>
      </trkpt>
      <trkpt lat="47.31314" lon="5.93856">
        <ele>224.8</ele>
        <time>2017-12-21T13:42:54Z</time>
      </trkpt>
      <trkpt lat="47.31316" lon="5.93862">
        <ele>224.8</ele>
        <time>2017-12-21T13:42:55Z</time>
      </trkpt>
      <trkpt lat="47.31318" lon="5.93869">
        <ele>224.8</ele>
        <time>2017-12-21T13:42:56Z</time>
      </trkpt>
      <trkpt lat="47.3132" lon="5.93876">
        <ele>224.8</ele>
        <time>2017-12-21T13:42:57Z</time>
      </trkpt>
      <trkpt lat="47.31322" lon="5.93882">
        <ele>224.8</ele>
        <time>2017-12-21T13:42:58Z</time>
      </trkpt>
      <trkpt lat="47.31324" lon="5.93889">
        <ele>224.8</ele>
        <time>2017-12-21T13:42:59Z</time>
      </trkpt>
      <trkpt lat="47.31326" lon="5.93897">
        <ele>224.8</ele>
        <time>2017-12-21T13:43:00Z</time>
      </trkpt>
      <trkpt lat="47.31329" lon="5.93903">
        <ele>224.8</ele>
        <time>2017-12-21T13:43:01Z</time>
      </trkpt>
      <trkpt lat="47.31331" lon="5.9391">
        <ele>224.8</ele>
        <time>2017-12-21T13:43:02Z</time>
      </trkpt>
      <trkpt lat="47.31333" lon="5.93917">
        <ele>225.2</ele>
        <time>2017-12-21T13:43:03Z</time>
      </trkpt>
      <trkpt lat="47.31334" lon="5.93924">
        <ele>225.6</ele>
        <time>2017-12-21T13:43:04Z</time>
      </trkpt>
      <trkpt lat="47.31336" lon="5.93932">
        <ele>226</ele>
        <time>2017-12-21T13:43:05Z</time>
      </trkpt>
      <trkpt lat="47.31337" lon="5.9394">
        <ele>226.4</ele>
        <time>2017-12-21T13:43:06Z</time>
      </trkpt>
      <trkpt lat="47.31339" lon="5.93948">
        <ele>226.8</ele>
        <time>2017-12-21T13:43:07Z</time>
      </trkpt>
      <trkpt lat="47.31341" lon="5.93957">
        <ele>226.8</ele>
        <time>2017-12-21T13:43:08Z</time>
      </trkpt>
      <trkpt lat="47.31343" lon="5.93965">
        <ele>226.8</ele>
        <time>2017-12-21T13:43:09Z</time>
      </trkpt>
      <trkpt lat="47.31345" lon="5.93973">
        <ele>226.8</ele>
        <time>2017-12-21T13:43:10Z</time>
      </trkpt>
      <trkpt lat="47.31347" lon="5.93981">
        <ele>226.8</ele>
        <time>2017-12-21T13:43:11Z</time>
      </trkpt>
      <trkpt lat="47.31349" lon="5.93989">
        <ele>226.8</ele>
        <time>2017-12-21T13:43:12Z</time>
      </trkpt>
      <trkpt lat="47.31351" lon="5.93997">
        <ele>226.8</ele>
        <time>2017-12-21T13:43:13Z</time>
      </trkpt>
      <trkpt lat="47.31353" lon="5.94006">
        <ele>226.8</ele>
        <time>2017-12-21T13:43:14Z</time>
      </trkpt>
      <trkpt lat="47.31355" lon="5.94014">
        <ele>226.8</ele>
        <time>2017-12-21T13:43:15Z</time>
      </trkpt>
      <trkpt lat="47.31357" lon="5.94022">
        <ele>226.8</ele>
        <time>2017-12-21T13:43:16Z</time>
      </trkpt>
      <trkpt lat="47.31359" lon="5.9403">
        <ele>226.8</ele>
        <time>2017-12-21T13:43:17Z</time>
      </trkpt>
      <trkpt lat="47.31361" lon="5.94038">
        <ele>226.8</ele>
        <time>2017-12-21T13:43:18Z</time>
      </trkpt>
      <trkpt lat="47.31363" lon="5.94045">
        <ele>226.8</ele>
        <time>2017-12-21T13:43:19Z</time>
      </trkpt>
      <trkpt lat="47.31365" lon="5.94053">
        <ele>226.8</ele>
        <time>2017-12-21T13:43:20Z</time>
      </trkpt>
      <trkpt lat="47.31366" lon="5.94061">
        <ele>226.8</ele>
        <time>2017-12-21T13:43:21Z</time>
      </trkpt>
      <trkpt lat="47.31368" lon="5.94069">
        <ele>226.8</ele>
        <time>2017-12-21T13:43:22Z</time>
      </trkpt>
      <trkpt lat="47.31369" lon="5.94077">
        <ele>227.4</ele>
        <time>2017-12-21T13:43:23Z</time>
      </trkpt>
      <trkpt lat="47.31371" lon="5.94085">
        <ele>227.8</ele>
        <time>2017-12-21T13:43:24Z</time>
      </trkpt>
      <trkpt lat="47.31372" lon="5.94094">
        <ele>228.6</ele>
        <time>2017-12-21T13:43:25Z</time>
      </trkpt>
      <trkpt lat="47.31374" lon="5.94102">
        <ele>229</ele>
        <time>2017-12-21T13:43:26Z</time>
      </trkpt>
      <trkpt lat="47.31375" lon="5.9411">
        <ele>229</ele>
        <time>2017-12-21T13:43:27Z</time>
      </trkpt>
      <trkpt lat="47.31377" lon="5.94117">
        <ele>229</ele>
        <time>2017-12-21T13:43:28Z</time>
      </trkpt>
      <trkpt lat="47.31378" lon="5.94125">
        <ele>229</ele>
        <time>2017-12-21T13:43:29Z</time>
      </trkpt>
      <trkpt lat="47.3138" lon="5.94133">
        <ele>229</ele>
        <time>2017-12-21T13:43:30Z</time>
      </trkpt>
      <trkpt lat="47.31382" lon="5.9414">
        <ele>229</ele>
        <time>2017-12-21T13:43:31Z</time>
      </trkpt>
      <trkpt lat="47.31383" lon="5.94148">
        <ele>229</ele>
        <time>2017-12-21T13:43:32Z</time>
      </trkpt>
      <trkpt lat="47.31384" lon="5.94155">
        <ele>229</ele>
        <time>2017-12-21T13:43:33Z</time>
      </trkpt>
      <trkpt lat="47.31386" lon="5.94163">
        <ele>229</ele>
        <time>2017-12-21T13:43:34Z</time>
      </trkpt>
      <trkpt lat="47.31388" lon="5.94171">
        <ele>229.4</ele>
        <time>2017-12-21T13:43:35Z</time>
      </trkpt>
      <trkpt lat="47.31389" lon="5.94179">
        <ele>229.8</ele>
        <time>2017-12-21T13:43:36Z</time>
      </trkpt>
      <trkpt lat="47.31391" lon="5.94187">
        <ele>230.2</ele>
        <time>2017-12-21T13:43:37Z</time>
      </trkpt>
      <trkpt lat="47.31393" lon="5.94195">
        <ele>230.6</ele>
        <time>2017-12-21T13:43:38Z</time>
      </trkpt>
      <trkpt lat="47.31394" lon="5.94203">
        <ele>231</ele>
        <time>2017-12-21T13:43:39Z</time>
      </trkpt>
      <trkpt lat="47.31396" lon="5.9421">
        <ele>231</ele>
        <time>2017-12-21T13:43:40Z</time>
      </trkpt>
      <trkpt lat="47.31398" lon="5.94218">
        <ele>231</ele>
        <time>2017-12-21T13:43:41Z</time>
      </trkpt>
      <trkpt lat="47.314" lon="5.94226">
        <ele>231</ele>
        <time>2017-12-21T13:43:42Z</time>
      </trkpt>
      <trkpt lat="47.31402" lon="5.94233">
        <ele>231</ele>
        <time>2017-12-21T13:43:43Z</time>
      </trkpt>
      <trkpt lat="47.31403" lon="5.94241">
        <ele>231</ele>
        <time>2017-12-21T13:43:44Z</time>
      </trkpt>
      <trkpt lat="47.31405" lon="5.94249">
        <ele>231</ele>
        <time>2017-12-21T13:43:45Z</time>
      </trkpt>
      <trkpt lat="47.31406" lon="5.94257">
        <ele>231</ele>
        <time>2017-12-21T13:43:46Z</time>
      </trkpt>
      <trkpt lat="47.31408" lon="5.94265">
        <ele>231</ele>
        <time>2017-12-21T13:43:47Z</time>
      </trkpt>
      <trkpt lat="47.31411" lon="5.94273">
        <ele>231</ele>
        <time>2017-12-21T13:43:48Z</time>
      </trkpt>
      <trkpt lat="47.31413" lon="5.94281">
        <ele>231</ele>
        <time>2017-12-21T13:43:49Z</time>
      </trkpt>
      <trkpt lat="47.31415" lon="5.94289">
        <ele>231</ele>
        <time>2017-12-21T13:43:50Z</time>
      </trkpt>
      <trkpt lat="47.31418" lon="5.94297">
        <ele>231</ele>
        <time>2017-12-21T13:43:51Z</time>
      </trkpt>
      <trkpt lat="47.3142" lon="5.94306">
        <ele>231</ele>
        <time>2017-12-21T13:43:52Z</time>
      </trkpt>
      <trkpt lat="47.31422" lon="5.94314">
        <ele>231</ele>
        <time>2017-12-21T13:43:53Z</time>
      </trkpt>
      <trkpt lat="47.31425" lon="5.94323">
        <ele>231</ele>
        <time>2017-12-21T13:43:54Z</time>
      </trkpt>
      <trkpt lat="47.31429" lon="5.94331">
        <ele>231</ele>
        <time>2017-12-21T13:43:55Z</time>
      </trkpt>
      <trkpt lat="47.31432" lon="5.94339">
        <ele>231</ele>
        <time>2017-12-21T13:43:56Z</time>
      </trkpt>
      <trkpt lat="47.31435" lon="5.94348">
        <ele>231</ele>
        <time>2017-12-21T13:43:57Z</time>
      </trkpt>
      <trkpt lat="47.31437" lon="5.94355">
        <ele>231</ele>
        <time>2017-12-21T13:43:58Z</time>
      </trkpt>
      <trkpt lat="47.31439" lon="5.94364">
        <ele>231</ele>
        <time>2017-12-21T13:43:59Z</time>
      </trkpt>
      <trkpt lat="47.31441" lon="5.94373">
        <ele>231</ele>
        <time>2017-12-21T13:44:00Z</time>
      </trkpt>
      <trkpt lat="47.31442" lon="5.94382">
        <ele>231</ele>
        <time>2017-12-21T13:44:01Z</time>
      </trkpt>
      <trkpt lat="47.31443" lon="5.94391">
        <ele>231</ele>
        <time>2017-12-21T13:44:02Z</time>
      </trkpt>
      <trkpt lat="47.31445" lon="5.94399">
        <ele>231</ele>
        <time>2017-12-21T13:44:03Z</time>
      </trkpt>
      <trkpt lat="47.31446" lon="5.94409">
        <ele>231</ele>
        <time>2017-12-21T13:44:04Z</time>
      </trkpt>
      <trkpt lat="47.31449" lon="5.94417">
        <ele>231</ele>
        <time>2017-12-21T13:44:05Z</time>
      </trkpt>
      <trkpt lat="47.31451" lon="5.94426">
        <ele>231</ele>
        <time>2017-12-21T13:44:06Z</time>
      </trkpt>
      <trkpt lat="47.31454" lon="5.94435">
        <ele>231</ele>
        <time>2017-12-21T13:44:07Z</time>
      </trkpt>
      <trkpt lat="47.31457" lon="5.94443">
        <ele>231</ele>
        <time>2017-12-21T13:44:08Z</time>
      </trkpt>
      <trkpt lat="47.31459" lon="5.94452">
        <ele>231</ele>
        <time>2017-12-21T13:44:09Z</time>
      </trkpt>
      <trkpt lat="47.31462" lon="5.94461">
        <ele>231</ele>
        <time>2017-12-21T13:44:10Z</time>
      </trkpt>
      <trkpt lat="47.31465" lon="5.9447">
        <ele>231</ele>
        <time>2017-12-21T13:44:11Z</time>
      </trkpt>
      <trkpt lat="47.31467" lon="5.9448">
        <ele>231</ele>
        <time>2017-12-21T13:44:12Z</time>
      </trkpt>
      <trkpt lat="47.31469" lon="5.94489">
        <ele>231</ele>
        <time>2017-12-21T13:44:13Z</time>
      </trkpt>
      <trkpt lat="47.31471" lon="5.94499">
        <ele>231</ele>
        <time>2017-12-21T13:44:14Z</time>
      </trkpt>
      <trkpt lat="47.31473" lon="5.94509">
        <ele>231</ele>
        <time>2017-12-21T13:44:15Z</time>
      </trkpt>
      <trkpt lat="47.31475" lon="5.94518">
        <ele>231</ele>
        <time>2017-12-21T13:44:16Z</time>
      </trkpt>
      <trkpt lat="47.31477" lon="5.94528">
        <ele>231</ele>
        <time>2017-12-21T13:44:17Z</time>
      </trkpt>
      <trkpt lat="47.31479" lon="5.94538">
        <ele>231</ele>
        <time>2017-12-21T13:44:18Z</time>
      </trkpt>
      <trkpt lat="47.31482" lon="5.94548">
        <ele>231</ele>
        <time>2017-12-21T13:44:19Z</time>
      </trkpt>
      <trkpt lat="47.31484" lon="5.94558">
        <ele>231</ele>
        <time>2017-12-21T13:44:20Z</time>
      </trkpt>
      <trkpt lat="47.31487" lon="5.94568">
        <ele>231</ele>
        <time>2017-12-21T13:44:21Z</time>
      </trkpt>
      <trkpt lat="47.31489" lon="5.94579">
        <ele>231</ele>
        <time>2017-12-21T13:44:22Z</time>
      </trkpt>
      <trkpt lat="47.31491" lon="5.9459">
        <ele>231</ele>
        <time>2017-12-21T13:44:23Z</time>
      </trkpt>
      <trkpt lat="47.31494" lon="5.94601">
        <ele>231</ele>
        <time>2017-12-21T13:44:24Z</time>
      </trkpt>
      <trkpt lat="47.31497" lon="5.94611">
        <ele>231</ele>
        <time>2017-12-21T13:44:25Z</time>
      </trkpt>
      <trkpt lat="47.31499" lon="5.94622">
        <ele>231</ele>
        <time>2017-12-21T13:44:26Z</time>
      </trkpt>
      <trkpt lat="47.31502" lon="5.94633">
        <ele>231</ele>
        <time>2017-12-21T13:44:27Z</time>
      </trkpt>
      <trkpt lat="47.31504" lon="5.94643">
        <ele>231</ele>
        <time>2017-12-21T13:44:28Z</time>
      </trkpt>
      <trkpt lat="47.31507" lon="5.94653">
        <ele>231</ele>
        <time>2017-12-21T13:44:29Z</time>
      </trkpt>
      <trkpt lat="47.31509" lon="5.94664">
        <ele>231</ele>
        <time>2017-12-21T13:44:30Z</time>
      </trkpt>
      <trkpt lat="47.31512" lon="5.94674">
        <ele>231</ele>
        <time>2017-12-21T13:44:31Z</time>
      </trkpt>
      <trkpt lat="47.31514" lon="5.94684">
        <ele>231</ele>
        <time>2017-12-21T13:44:32Z</time>
      </trkpt>
      <trkpt lat="47.31516" lon="5.94695">
        <ele>231</ele>
        <time>2017-12-21T13:44:33Z</time>
      </trkpt>
      <trkpt lat="47.31519" lon="5.94706">
        <ele>231</ele>
        <time>2017-12-21T13:44:34Z</time>
      </trkpt>
      <trkpt lat="47.31521" lon="5.94716">
        <ele>231</ele>
        <time>2017-12-21T13:44:35Z</time>
      </trkpt>
      <trkpt lat="47.31524" lon="5.94726">
        <ele>231</ele>
        <time>2017-12-21T13:44:36Z</time>
      </trkpt>
      <trkpt lat="47.31527" lon="5.94736">
        <ele>231</ele>
        <time>2017-12-21T13:44:37Z</time>
      </trkpt>
      <trkpt lat="47.3153" lon="5.94746">
        <ele>231</ele>
        <time>2017-12-21T13:44:38Z</time>
      </trkpt>
      <trkpt lat="47.31533" lon="5.94756">
        <ele>231</ele>
        <time>2017-12-21T13:44:39Z</time>
      </trkpt>
      <trkpt lat="47.31535" lon="5.94766">
        <ele>231</ele>
        <time>2017-12-21T13:44:40Z</time>
      </trkpt>
      <trkpt lat="47.31538" lon="5.94776">
        <ele>231</ele>
        <time>2017-12-21T13:44:41Z</time>
      </trkpt>
      <trkpt lat="47.3154" lon="5.94786">
        <ele>231</ele>
        <time>2017-12-21T13:44:42Z</time>
      </trkpt>
      <trkpt lat="47.31543" lon="5.94796">
        <ele>231</ele>
        <time>2017-12-21T13:44:43Z</time>
      </trkpt>
      <trkpt lat="47.31546" lon="5.94806">
        <ele>231</ele>
        <time>2017-12-21T13:44:44Z</time>
      </trkpt>
      <trkpt lat="47.31549" lon="5.94817">
        <ele>231</ele>
        <time>2017-12-21T13:44:45Z</time>
      </trkpt>
      <trkpt lat="47.31551" lon="5.94828">
        <ele>231</ele>
        <time>2017-12-21T13:44:46Z</time>
      </trkpt>
      <trkpt lat="47.31554" lon="5.94839">
        <ele>231</ele>
        <time>2017-12-21T13:44:47Z</time>
      </trkpt>
      <trkpt lat="47.31556" lon="5.94849">
        <ele>231</ele>
        <time>2017-12-21T13:44:48Z</time>
      </trkpt>
      <trkpt lat="47.31558" lon="5.94859">
        <ele>231</ele>
        <time>2017-12-21T13:44:49Z</time>
      </trkpt>
      <trkpt lat="47.3156" lon="5.94869">
        <ele>231</ele>
        <time>2017-12-21T13:44:50Z</time>
      </trkpt>
      <trkpt lat="47.31563" lon="5.94879">
        <ele>231</ele>
        <time>2017-12-21T13:44:51Z</time>
      </trkpt>
      <trkpt lat="47.31564" lon="5.94888">
        <ele>231</ele>
        <time>2017-12-21T13:44:52Z</time>
      </trkpt>
      <trkpt lat="47.31566" lon="5.94898">
        <ele>231</ele>
        <time>2017-12-21T13:44:53Z</time>
      </trkpt>
      <trkpt lat="47.31568" lon="5.94906">
        <ele>231</ele>
        <time>2017-12-21T13:44:54Z</time>
      </trkpt>
      <trkpt lat="47.3157" lon="5.94915">
        <ele>231</ele>
        <time>2017-12-21T13:44:55Z</time>
      </trkpt>
      <trkpt lat="47.31572" lon="5.94923">
        <ele>231</ele>
        <time>2017-12-21T13:44:56Z</time>
      </trkpt>
      <trkpt lat="47.31574" lon="5.94931">
        <ele>231</ele>
        <time>2017-12-21T13:44:57Z</time>
      </trkpt>
      <trkpt lat="47.31576" lon="5.94939">
        <ele>231.4</ele>
        <time>2017-12-21T13:44:58Z</time>
      </trkpt>
      <trkpt lat="47.31578" lon="5.94947">
        <ele>231.8</ele>
        <time>2017-12-21T13:44:59Z</time>
      </trkpt>
      <trkpt lat="47.3158" lon="5.94954">
        <ele>232.2</ele>
        <time>2017-12-21T13:45:00Z</time>
      </trkpt>
      <trkpt lat="47.31581" lon="5.94962">
        <ele>232.6</ele>
        <time>2017-12-21T13:45:01Z</time>
      </trkpt>
      <trkpt lat="47.31583" lon="5.94969">
        <ele>233</ele>
        <time>2017-12-21T13:45:02Z</time>
      </trkpt>
      <trkpt lat="47.31585" lon="5.94977">
        <ele>233</ele>
        <time>2017-12-21T13:45:03Z</time>
      </trkpt>
      <trkpt lat="47.31586" lon="5.94985">
        <ele>233.6</ele>
        <time>2017-12-21T13:45:04Z</time>
      </trkpt>
      <trkpt lat="47.31588" lon="5.94992">
        <ele>234</ele>
        <time>2017-12-21T13:45:05Z</time>
      </trkpt>
      <trkpt lat="47.3159" lon="5.95">
        <ele>234.4</ele>
        <time>2017-12-21T13:45:06Z</time>
      </trkpt>
      <trkpt lat="47.31592" lon="5.95007">
        <ele>234.8</ele>
        <time>2017-12-21T13:45:07Z</time>
      </trkpt>
      <trkpt lat="47.31594" lon="5.95014">
        <ele>235.2</ele>
        <time>2017-12-21T13:45:08Z</time>
      </trkpt>
      <trkpt lat="47.31596" lon="5.95022">
        <ele>235.2</ele>
        <time>2017-12-21T13:45:09Z</time>
      </trkpt>
      <trkpt lat="47.31598" lon="5.95029">
        <ele>235.2</ele>
        <time>2017-12-21T13:45:10Z</time>
      </trkpt>
      <trkpt lat="47.31599" lon="5.95037">
        <ele>235.6</ele>
        <time>2017-12-21T13:45:11Z</time>
      </trkpt>
      <trkpt lat="47.316" lon="5.95045">
        <ele>236</ele>
        <time>2017-12-21T13:45:12Z</time>
      </trkpt>
      <trkpt lat="47.31601" lon="5.95052">
        <ele>236.6</ele>
        <time>2017-12-21T13:45:13Z</time>
      </trkpt>
      <trkpt lat="47.31602" lon="5.9506">
        <ele>237</ele>
        <time>2017-12-21T13:45:14Z</time>
      </trkpt>
      <trkpt lat="47.31604" lon="5.95067">
        <ele>237.4</ele>
        <time>2017-12-21T13:45:15Z</time>
      </trkpt>
      <trkpt lat="47.31605" lon="5.95076">
        <ele>237.4</ele>
        <time>2017-12-21T13:45:16Z</time>
      </trkpt>
      <trkpt lat="47.31606" lon="5.95084">
        <ele>237.4</ele>
        <time>2017-12-21T13:45:17Z</time>
      </trkpt>
      <trkpt lat="47.31608" lon="5.95092">
        <ele>237.8</ele>
        <time>2017-12-21T13:45:18Z</time>
      </trkpt>
      <trkpt lat="47.3161" lon="5.95101">
        <ele>238.2</ele>
        <time>2017-12-21T13:45:19Z</time>
      </trkpt>
      <trkpt lat="47.31612" lon="5.95111">
        <ele>238.6</ele>
        <time>2017-12-21T13:45:20Z</time>
      </trkpt>
      <trkpt lat="47.31614" lon="5.9512">
        <ele>239</ele>
        <time>2017-12-21T13:45:21Z</time>
      </trkpt>
      <trkpt lat="47.31616" lon="5.95129">
        <ele>239.6</ele>
        <time>2017-12-21T13:45:22Z</time>
      </trkpt>
      <trkpt lat="47.31618" lon="5.95138">
        <ele>239.6</ele>
        <time>2017-12-21T13:45:23Z</time>
      </trkpt>
      <trkpt lat="47.3162" lon="5.95147">
        <ele>239.6</ele>
        <time>2017-12-21T13:45:24Z</time>
      </trkpt>
      <trkpt lat="47.31623" lon="5.95157">
        <ele>239.6</ele>
        <time>2017-12-21T13:45:25Z</time>
      </trkpt>
      <trkpt lat="47.31625" lon="5.95166">
        <ele>239.6</ele>
        <time>2017-12-21T13:45:26Z</time>
      </trkpt>
      <trkpt lat="47.31628" lon="5.95175">
        <ele>239.6</ele>
        <time>2017-12-21T13:45:27Z</time>
      </trkpt>
      <trkpt lat="47.31631" lon="5.95184">
        <ele>239.6</ele>
        <time>2017-12-21T13:45:28Z</time>
      </trkpt>
      <trkpt lat="47.31634" lon="5.95193">
        <ele>240.4</ele>
        <time>2017-12-21T13:45:29Z</time>
      </trkpt>
      <trkpt lat="47.31636" lon="5.95202">
        <ele>240.8</ele>
        <time>2017-12-21T13:45:30Z</time>
      </trkpt>
      <trkpt lat="47.31638" lon="5.95211">
        <ele>241.2</ele>
        <time>2017-12-21T13:45:31Z</time>
      </trkpt>
      <trkpt lat="47.31639" lon="5.95221">
        <ele>241.6</ele>
        <time>2017-12-21T13:45:32Z</time>
      </trkpt>
      <trkpt lat="47.3164" lon="5.95232">
        <ele>241.6</ele>
        <time>2017-12-21T13:45:33Z</time>
      </trkpt>
      <trkpt lat="47.31642" lon="5.95244">
        <ele>241.6</ele>
        <time>2017-12-21T13:45:34Z</time>
      </trkpt>
      <trkpt lat="47.31644" lon="5.95255">
        <ele>241.6</ele>
        <time>2017-12-21T13:45:35Z</time>
      </trkpt>
      <trkpt lat="47.31646" lon="5.95266">
        <ele>241.6</ele>
        <time>2017-12-21T13:45:36Z</time>
      </trkpt>
      <trkpt lat="47.31649" lon="5.95277">
        <ele>241.6</ele>
        <time>2017-12-21T13:45:37Z</time>
      </trkpt>
      <trkpt lat="47.31651" lon="5.95289">
        <ele>241.6</ele>
        <time>2017-12-21T13:45:38Z</time>
      </trkpt>
      <trkpt lat="47.31654" lon="5.953">
        <ele>241.6</ele>
        <time>2017-12-21T13:45:39Z</time>
      </trkpt>
      <trkpt lat="47.31656" lon="5.95312">
        <ele>241.2</ele>
        <time>2017-12-21T13:45:40Z</time>
      </trkpt>
      <trkpt lat="47.31658" lon="5.95325">
        <ele>240.8</ele>
        <time>2017-12-21T13:45:41Z</time>
      </trkpt>
      <trkpt lat="47.31661" lon="5.95338">
        <ele>240.4</ele>
        <time>2017-12-21T13:45:42Z</time>
      </trkpt>
      <trkpt lat="47.31664" lon="5.95351">
        <ele>240</ele>
        <time>2017-12-21T13:45:43Z</time>
      </trkpt>
      <trkpt lat="47.31668" lon="5.95365">
        <ele>239.4</ele>
        <time>2017-12-21T13:45:44Z</time>
      </trkpt>
      <trkpt lat="47.31671" lon="5.95379">
        <ele>239</ele>
        <time>2017-12-21T13:45:45Z</time>
      </trkpt>
      <trkpt lat="47.31675" lon="5.95393">
        <ele>238.6</ele>
        <time>2017-12-21T13:45:46Z</time>
      </trkpt>
      <trkpt lat="47.31679" lon="5.95407">
        <ele>238</ele>
        <time>2017-12-21T13:45:47Z</time>
      </trkpt>
      <trkpt lat="47.31683" lon="5.95422">
        <ele>237.4</ele>
        <time>2017-12-21T13:45:48Z</time>
      </trkpt>
      <trkpt lat="47.31688" lon="5.95437">
        <ele>236.8</ele>
        <time>2017-12-21T13:45:49Z</time>
      </trkpt>
      <trkpt lat="47.31692" lon="5.95452">
        <ele>236.4</ele>
        <time>2017-12-21T13:45:50Z</time>
      </trkpt>
      <trkpt lat="47.31696" lon="5.95468">
        <ele>235.8</ele>
        <time>2017-12-21T13:45:51Z</time>
      </trkpt>
      <trkpt lat="47.31701" lon="5.95482">
        <ele>235.2</ele>
        <time>2017-12-21T13:45:52Z</time>
      </trkpt>
      <trkpt lat="47.31704" lon="5.95497">
        <ele>234</ele>
        <time>2017-12-21T13:45:53Z</time>
      </trkpt>
      <trkpt lat="47.31707" lon="5.95511">
        <ele>233.4</ele>
        <time>2017-12-21T13:45:54Z</time>
      </trkpt>
      <trkpt lat="47.31711" lon="5.95526">
        <ele>233</ele>
        <time>2017-12-21T13:45:55Z</time>
      </trkpt>
      <trkpt lat="47.31715" lon="5.95539">
        <ele>233</ele>
        <time>2017-12-21T13:45:56Z</time>
      </trkpt>
      <trkpt lat="47.31718" lon="5.95552">
        <ele>233</ele>
        <time>2017-12-21T13:45:57Z</time>
      </trkpt>
      <trkpt lat="47.31721" lon="5.95564">
        <ele>233</ele>
        <time>2017-12-21T13:45:58Z</time>
      </trkpt>
      <trkpt lat="47.31724" lon="5.95576">
        <ele>233</ele>
        <time>2017-12-21T13:45:59Z</time>
      </trkpt>
      <trkpt lat="47.31727" lon="5.95587">
        <ele>233</ele>
        <time>2017-12-21T13:46:00Z</time>
      </trkpt>
      <trkpt lat="47.31729" lon="5.95598">
        <ele>233</ele>
        <time>2017-12-21T13:46:01Z</time>
      </trkpt>
      <trkpt lat="47.31732" lon="5.95608">
        <ele>233</ele>
        <time>2017-12-21T13:46:02Z</time>
      </trkpt>
      <trkpt lat="47.31734" lon="5.95618">
        <ele>233</ele>
        <time>2017-12-21T13:46:03Z</time>
      </trkpt>
      <trkpt lat="47.31737" lon="5.95628">
        <ele>233</ele>
        <time>2017-12-21T13:46:04Z</time>
      </trkpt>
      <trkpt lat="47.3174" lon="5.95637">
        <ele>233</ele>
        <time>2017-12-21T13:46:05Z</time>
      </trkpt>
      <trkpt lat="47.31743" lon="5.95647">
        <ele>233</ele>
        <time>2017-12-21T13:46:06Z</time>
      </trkpt>
      <trkpt lat="47.31746" lon="5.95657">
        <ele>233</ele>
        <time>2017-12-21T13:46:07Z</time>
      </trkpt>
      <trkpt lat="47.31748" lon="5.95667">
        <ele>233</ele>
        <time>2017-12-21T13:46:08Z</time>
      </trkpt>
      <trkpt lat="47.31751" lon="5.95676">
        <ele>233</ele>
        <time>2017-12-21T13:46:09Z</time>
      </trkpt>
      <trkpt lat="47.31753" lon="5.95686">
        <ele>233</ele>
        <time>2017-12-21T13:46:10Z</time>
      </trkpt>
      <trkpt lat="47.31755" lon="5.95695">
        <ele>233</ele>
        <time>2017-12-21T13:46:11Z</time>
      </trkpt>
      <trkpt lat="47.31758" lon="5.95704">
        <ele>233</ele>
        <time>2017-12-21T13:46:12Z</time>
      </trkpt>
      <trkpt lat="47.3176" lon="5.95713">
        <ele>233</ele>
        <time>2017-12-21T13:46:13Z</time>
      </trkpt>
      <trkpt lat="47.31762" lon="5.95722">
        <ele>233</ele>
        <time>2017-12-21T13:46:14Z</time>
      </trkpt>
      <trkpt lat="47.31764" lon="5.95731">
        <ele>233</ele>
        <time>2017-12-21T13:46:15Z</time>
      </trkpt>
      <trkpt lat="47.31766" lon="5.9574">
        <ele>233</ele>
        <time>2017-12-21T13:46:16Z</time>
      </trkpt>
      <trkpt lat="47.31767" lon="5.95749">
        <ele>233</ele>
        <time>2017-12-21T13:46:17Z</time>
      </trkpt>
      <trkpt lat="47.31769" lon="5.95758">
        <ele>233</ele>
        <time>2017-12-21T13:46:18Z</time>
      </trkpt>
      <trkpt lat="47.31772" lon="5.95766">
        <ele>233</ele>
        <time>2017-12-21T13:46:19Z</time>
      </trkpt>
      <trkpt lat="47.31774" lon="5.95775">
        <ele>233</ele>
        <time>2017-12-21T13:46:20Z</time>
      </trkpt>
      <trkpt lat="47.31776" lon="5.95783">
        <ele>233</ele>
        <time>2017-12-21T13:46:21Z</time>
      </trkpt>
      <trkpt lat="47.31778" lon="5.95792">
        <ele>233</ele>
        <time>2017-12-21T13:46:22Z</time>
      </trkpt>
      <trkpt lat="47.3178" lon="5.958">
        <ele>233</ele>
        <time>2017-12-21T13:46:23Z</time>
      </trkpt>
      <trkpt lat="47.31782" lon="5.95808">
        <ele>233</ele>
        <time>2017-12-21T13:46:24Z</time>
      </trkpt>
      <trkpt lat="47.31783" lon="5.95816">
        <ele>233</ele>
        <time>2017-12-21T13:46:25Z</time>
      </trkpt>
      <trkpt lat="47.31785" lon="5.95824">
        <ele>233</ele>
        <time>2017-12-21T13:46:26Z</time>
      </trkpt>
      <trkpt lat="47.31787" lon="5.95832">
        <ele>233</ele>
        <time>2017-12-21T13:46:27Z</time>
      </trkpt>
      <trkpt lat="47.31789" lon="5.9584">
        <ele>233</ele>
        <time>2017-12-21T13:46:28Z</time>
      </trkpt>
      <trkpt lat="47.31791" lon="5.95848">
        <ele>233</ele>
        <time>2017-12-21T13:46:29Z</time>
      </trkpt>
      <trkpt lat="47.31793" lon="5.95856">
        <ele>233</ele>
        <time>2017-12-21T13:46:30Z</time>
      </trkpt>
      <trkpt lat="47.31795" lon="5.95865">
        <ele>232.6</ele>
        <time>2017-12-21T13:46:31Z</time>
      </trkpt>
      <trkpt lat="47.31797" lon="5.95873">
        <ele>232.2</ele>
        <time>2017-12-21T13:46:32Z</time>
      </trkpt>
      <trkpt lat="47.31798" lon="5.95881">
        <ele>231.6</ele>
        <time>2017-12-21T13:46:33Z</time>
      </trkpt>
      <trkpt lat="47.31799" lon="5.95889">
        <ele>231.2</ele>
        <time>2017-12-21T13:46:34Z</time>
      </trkpt>
      <trkpt lat="47.31799" lon="5.95895">
        <ele>230.8</ele>
        <time>2017-12-21T13:46:35Z</time>
      </trkpt>
      <trkpt lat="47.31802" lon="5.959">
        <ele>230.8</ele>
        <time>2017-12-21T13:46:36Z</time>
      </trkpt>
      <trkpt lat="47.31803" lon="5.95903">
        <ele>230.8</ele>
        <time>2017-12-21T13:46:37Z</time>
      </trkpt>
      <trkpt lat="47.31805" lon="5.95905">
        <ele>230.8</ele>
        <time>2017-12-21T13:46:38Z</time>
      </trkpt>
      <trkpt lat="47.31806" lon="5.9591">
        <ele>230.8</ele>
        <time>2017-12-21T13:46:39Z</time>
      </trkpt>
      <trkpt lat="47.31806" lon="5.95913">
        <ele>230.8</ele>
        <time>2017-12-21T13:46:40Z</time>
      </trkpt>
      <trkpt lat="47.31808" lon="5.95918">
        <ele>230.8</ele>
        <time>2017-12-21T13:46:41Z</time>
      </trkpt>
      <trkpt lat="47.3181" lon="5.95925">
        <ele>230.8</ele>
        <time>2017-12-21T13:46:42Z</time>
      </trkpt>
      <trkpt lat="47.31813" lon="5.9593">
        <ele>230.8</ele>
        <time>2017-12-21T13:46:43Z</time>
      </trkpt>
      <trkpt lat="47.31816" lon="5.95936">
        <ele>230.8</ele>
        <time>2017-12-21T13:46:44Z</time>
      </trkpt>
      <trkpt lat="47.31819" lon="5.95942">
        <ele>230.8</ele>
        <time>2017-12-21T13:46:45Z</time>
      </trkpt>
      <trkpt lat="47.31823" lon="5.95948">
        <ele>230.4</ele>
        <time>2017-12-21T13:46:46Z</time>
      </trkpt>
      <trkpt lat="47.31826" lon="5.95954">
        <ele>230</ele>
        <time>2017-12-21T13:46:47Z</time>
      </trkpt>
      <trkpt lat="47.31828" lon="5.95961">
        <ele>229.6</ele>
        <time>2017-12-21T13:46:48Z</time>
      </trkpt>
      <trkpt lat="47.3183" lon="5.95968">
        <ele>229.2</ele>
        <time>2017-12-21T13:46:49Z</time>
      </trkpt>
      <trkpt lat="47.31833" lon="5.95974">
        <ele>228.8</ele>
        <time>2017-12-21T13:46:50Z</time>
      </trkpt>
      <trkpt lat="47.31837" lon="5.9598">
        <ele>228.8</ele>
        <time>2017-12-21T13:46:51Z</time>
      </trkpt>
      <trkpt lat="47.3184" lon="5.95986">
        <ele>228.8</ele>
        <time>2017-12-21T13:46:52Z</time>
      </trkpt>
      <trkpt lat="47.31843" lon="5.95993">
        <ele>228.8</ele>
        <time>2017-12-21T13:46:53Z</time>
      </trkpt>
      <trkpt lat="47.31846" lon="5.96">
        <ele>228.8</ele>
        <time>2017-12-21T13:46:54Z</time>
      </trkpt>
      <trkpt lat="47.3185" lon="5.96007">
        <ele>228.8</ele>
        <time>2017-12-21T13:46:55Z</time>
      </trkpt>
      <trkpt lat="47.31853" lon="5.96014">
        <ele>228.8</ele>
        <time>2017-12-21T13:46:56Z</time>
      </trkpt>
      <trkpt lat="47.31857" lon="5.96021">
        <ele>228.8</ele>
        <time>2017-12-21T13:46:57Z</time>
      </trkpt>
      <trkpt lat="47.3186" lon="5.96028">
        <ele>228.8</ele>
        <time>2017-12-21T13:46:58Z</time>
      </trkpt>
      <trkpt lat="47.31864" lon="5.96035">
        <ele>228.8</ele>
        <time>2017-12-21T13:46:59Z</time>
      </trkpt>
      <trkpt lat="47.31867" lon="5.96042">
        <ele>228.8</ele>
        <time>2017-12-21T13:47:00Z</time>
      </trkpt>
      <trkpt lat="47.3187" lon="5.96049">
        <ele>228.8</ele>
        <time>2017-12-21T13:47:01Z</time>
      </trkpt>
      <trkpt lat="47.31873" lon="5.96055">
        <ele>228.8</ele>
        <time>2017-12-21T13:47:02Z</time>
      </trkpt>
      <trkpt lat="47.31876" lon="5.96062">
        <ele>228.8</ele>
        <time>2017-12-21T13:47:03Z</time>
      </trkpt>
      <trkpt lat="47.3188" lon="5.96069">
        <ele>228.8</ele>
        <time>2017-12-21T13:47:04Z</time>
      </trkpt>
      <trkpt lat="47.31884" lon="5.96076">
        <ele>228.8</ele>
        <time>2017-12-21T13:47:05Z</time>
      </trkpt>
      <trkpt lat="47.31888" lon="5.96083">
        <ele>228.8</ele>
        <time>2017-12-21T13:47:06Z</time>
      </trkpt>
      <trkpt lat="47.31892" lon="5.96091">
        <ele>228.8</ele>
        <time>2017-12-21T13:47:07Z</time>
      </trkpt>
      <trkpt lat="47.31895" lon="5.96098">
        <ele>228.8</ele>
        <time>2017-12-21T13:47:08Z</time>
      </trkpt>
      <trkpt lat="47.31899" lon="5.96106">
        <ele>228.8</ele>
        <time>2017-12-21T13:47:09Z</time>
      </trkpt>
      <trkpt lat="47.31903" lon="5.96114">
        <ele>228.8</ele>
        <time>2017-12-21T13:47:10Z</time>
      </trkpt>
      <trkpt lat="47.31907" lon="5.96122">
        <ele>228.8</ele>
        <time>2017-12-21T13:47:11Z</time>
      </trkpt>
      <trkpt lat="47.3191" lon="5.9613">
        <ele>228.8</ele>
        <time>2017-12-21T13:47:12Z</time>
      </trkpt>
      <trkpt lat="47.31914" lon="5.96138">
        <ele>228.8</ele>
        <time>2017-12-21T13:47:13Z</time>
      </trkpt>
      <trkpt lat="47.31919" lon="5.96145">
        <ele>228.8</ele>
        <time>2017-12-21T13:47:14Z</time>
      </trkpt>
      <trkpt lat="47.31923" lon="5.96152">
        <ele>228.8</ele>
        <time>2017-12-21T13:47:15Z</time>
      </trkpt>
      <trkpt lat="47.31927" lon="5.96159">
        <ele>228.8</ele>
        <time>2017-12-21T13:47:16Z</time>
      </trkpt>
      <trkpt lat="47.31932" lon="5.96165">
        <ele>228.8</ele>
        <time>2017-12-21T13:47:17Z</time>
      </trkpt>
      <trkpt lat="47.31937" lon="5.9617">
        <ele>228.8</ele>
        <time>2017-12-21T13:47:18Z</time>
      </trkpt>
      <trkpt lat="47.31942" lon="5.96176">
        <ele>228.8</ele>
        <time>2017-12-21T13:47:19Z</time>
      </trkpt>
      <trkpt lat="47.31948" lon="5.9618">
        <ele>228.8</ele>
        <time>2017-12-21T13:47:20Z</time>
      </trkpt>
      <trkpt lat="47.31954" lon="5.96185">
        <ele>228.8</ele>
        <time>2017-12-21T13:47:21Z</time>
      </trkpt>
      <trkpt lat="47.31959" lon="5.9619">
        <ele>228.8</ele>
        <time>2017-12-21T13:47:22Z</time>
      </trkpt>
      <trkpt lat="47.31965" lon="5.96194">
        <ele>228.8</ele>
        <time>2017-12-21T13:47:23Z</time>
      </trkpt>
      <trkpt lat="47.3197" lon="5.96198">
        <ele>228.8</ele>
        <time>2017-12-21T13:47:24Z</time>
      </trkpt>
      <trkpt lat="47.31975" lon="5.96203">
        <ele>228.8</ele>
        <time>2017-12-21T13:47:25Z</time>
      </trkpt>
      <trkpt lat="47.31981" lon="5.96207">
        <ele>228.8</ele>
        <time>2017-12-21T13:47:26Z</time>
      </trkpt>
      <trkpt lat="47.31986" lon="5.96211">
        <ele>228.8</ele>
        <time>2017-12-21T13:47:27Z</time>
      </trkpt>
      <trkpt lat="47.31991" lon="5.96215">
        <ele>228.8</ele>
        <time>2017-12-21T13:47:28Z</time>
      </trkpt>
      <trkpt lat="47.31997" lon="5.96219">
        <ele>228.8</ele>
        <time>2017-12-21T13:47:29Z</time>
      </trkpt>
      <trkpt lat="47.32002" lon="5.96223">
        <ele>228.8</ele>
        <time>2017-12-21T13:47:30Z</time>
      </trkpt>
      <trkpt lat="47.32007" lon="5.96227">
        <ele>228.8</ele>
        <time>2017-12-21T13:47:31Z</time>
      </trkpt>
      <trkpt lat="47.32011" lon="5.96231">
        <ele>228.8</ele>
        <time>2017-12-21T13:47:32Z</time>
      </trkpt>
      <trkpt lat="47.32016" lon="5.96235">
        <ele>228.8</ele>
        <time>2017-12-21T13:47:33Z</time>
      </trkpt>
      <trkpt lat="47.32021" lon="5.9624">
        <ele>228.8</ele>
        <time>2017-12-21T13:47:34Z</time>
      </trkpt>
      <trkpt lat="47.32026" lon="5.96244">
        <ele>228.8</ele>
        <time>2017-12-21T13:47:35Z</time>
      </trkpt>
      <trkpt lat="47.3203" lon="5.96248">
        <ele>228.8</ele>
        <time>2017-12-21T13:47:36Z</time>
      </trkpt>
      <trkpt lat="47.32034" lon="5.96253">
        <ele>228.8</ele>
        <time>2017-12-21T13:47:37Z</time>
      </trkpt>
      <trkpt lat="47.32039" lon="5.96258">
        <ele>228.8</ele>
        <time>2017-12-21T13:47:38Z</time>
      </trkpt>
      <trkpt lat="47.32043" lon="5.96262">
        <ele>228.8</ele>
        <time>2017-12-21T13:47:39Z</time>
      </trkpt>
      <trkpt lat="47.32047" lon="5.96267">
        <ele>228.8</ele>
        <time>2017-12-21T13:47:40Z</time>
      </trkpt>
      <trkpt lat="47.32051" lon="5.96272">
        <ele>228.8</ele>
        <time>2017-12-21T13:47:41Z</time>
      </trkpt>
      <trkpt lat="47.32055" lon="5.96276">
        <ele>228.8</ele>
        <time>2017-12-21T13:47:42Z</time>
      </trkpt>
      <trkpt lat="47.32059" lon="5.96281">
        <ele>228.8</ele>
        <time>2017-12-21T13:47:43Z</time>
      </trkpt>
      <trkpt lat="47.32063" lon="5.96287">
        <ele>228.8</ele>
        <time>2017-12-21T13:47:44Z</time>
      </trkpt>
      <trkpt lat="47.32067" lon="5.96292">
        <ele>228.8</ele>
        <time>2017-12-21T13:47:45Z</time>
      </trkpt>
      <trkpt lat="47.32072" lon="5.96297">
        <ele>228.8</ele>
        <time>2017-12-21T13:47:46Z</time>
      </trkpt>
      <trkpt lat="47.32076" lon="5.96303">
        <ele>228.8</ele>
        <time>2017-12-21T13:47:47Z</time>
      </trkpt>
      <trkpt lat="47.32081" lon="5.96309">
        <ele>228.8</ele>
        <time>2017-12-21T13:47:48Z</time>
      </trkpt>
      <trkpt lat="47.32087" lon="5.96315">
        <ele>228.8</ele>
        <time>2017-12-21T13:47:49Z</time>
      </trkpt>
      <trkpt lat="47.32092" lon="5.96322">
        <ele>228.8</ele>
        <time>2017-12-21T13:47:50Z</time>
      </trkpt>
      <trkpt lat="47.32098" lon="5.96329">
        <ele>228.8</ele>
        <time>2017-12-21T13:47:51Z</time>
      </trkpt>
      <trkpt lat="47.32103" lon="5.96337">
        <ele>228.8</ele>
        <time>2017-12-21T13:47:52Z</time>
      </trkpt>
      <trkpt lat="47.32109" lon="5.96345">
        <ele>228.8</ele>
        <time>2017-12-21T13:47:53Z</time>
      </trkpt>
      <trkpt lat="47.32115" lon="5.96353">
        <ele>228.8</ele>
        <time>2017-12-21T13:47:54Z</time>
      </trkpt>
      <trkpt lat="47.32122" lon="5.96361">
        <ele>228.8</ele>
        <time>2017-12-21T13:47:55Z</time>
      </trkpt>
      <trkpt lat="47.32128" lon="5.96369">
        <ele>228.4</ele>
        <time>2017-12-21T13:47:56Z</time>
      </trkpt>
      <trkpt lat="47.32134" lon="5.96378">
        <ele>227.6</ele>
        <time>2017-12-21T13:47:57Z</time>
      </trkpt>
      <trkpt lat="47.32139" lon="5.96387">
        <ele>227.2</ele>
        <time>2017-12-21T13:47:58Z</time>
      </trkpt>
      <trkpt lat="47.32145" lon="5.96396">
        <ele>226.8</ele>
        <time>2017-12-21T13:47:59Z</time>
      </trkpt>
      <trkpt lat="47.3215" lon="5.96406">
        <ele>226.8</ele>
        <time>2017-12-21T13:48:00Z</time>
      </trkpt>
      <trkpt lat="47.32156" lon="5.96415">
        <ele>226.8</ele>
        <time>2017-12-21T13:48:01Z</time>
      </trkpt>
      <trkpt lat="47.32161" lon="5.96425">
        <ele>226.8</ele>
        <time>2017-12-21T13:48:02Z</time>
      </trkpt>
      <trkpt lat="47.32165" lon="5.96435">
        <ele>226.8</ele>
        <time>2017-12-21T13:48:03Z</time>
      </trkpt>
      <trkpt lat="47.32169" lon="5.96446">
        <ele>226.4</ele>
        <time>2017-12-21T13:48:04Z</time>
      </trkpt>
      <trkpt lat="47.32174" lon="5.96457">
        <ele>225.8</ele>
        <time>2017-12-21T13:48:05Z</time>
      </trkpt>
      <trkpt lat="47.32178" lon="5.96469">
        <ele>225.4</ele>
        <time>2017-12-21T13:48:06Z</time>
      </trkpt>
      <trkpt lat="47.32182" lon="5.96481">
        <ele>225</ele>
        <time>2017-12-21T13:48:07Z</time>
      </trkpt>
      <trkpt lat="47.32185" lon="5.96495">
        <ele>224.6</ele>
        <time>2017-12-21T13:48:08Z</time>
      </trkpt>
      <trkpt lat="47.32188" lon="5.96509">
        <ele>224</ele>
        <time>2017-12-21T13:48:09Z</time>
      </trkpt>
      <trkpt lat="47.32191" lon="5.96521">
        <ele>223.6</ele>
        <time>2017-12-21T13:48:10Z</time>
      </trkpt>
      <trkpt lat="47.32194" lon="5.96534">
        <ele>223</ele>
        <time>2017-12-21T13:48:11Z</time>
      </trkpt>
      <trkpt lat="47.32196" lon="5.96547">
        <ele>222.4</ele>
        <time>2017-12-21T13:48:12Z</time>
      </trkpt>
      <trkpt lat="47.32199" lon="5.96559">
        <ele>222</ele>
        <time>2017-12-21T13:48:13Z</time>
      </trkpt>
      <trkpt lat="47.32201" lon="5.96571">
        <ele>222</ele>
        <time>2017-12-21T13:48:14Z</time>
      </trkpt>
      <trkpt lat="47.32204" lon="5.96583">
        <ele>222</ele>
        <time>2017-12-21T13:48:15Z</time>
      </trkpt>
      <trkpt lat="47.32206" lon="5.96594">
        <ele>222</ele>
        <time>2017-12-21T13:48:16Z</time>
      </trkpt>
      <trkpt lat="47.32208" lon="5.96605">
        <ele>222</ele>
        <time>2017-12-21T13:48:17Z</time>
      </trkpt>
      <trkpt lat="47.32211" lon="5.96615">
        <ele>222</ele>
        <time>2017-12-21T13:48:18Z</time>
      </trkpt>
      <trkpt lat="47.32214" lon="5.96626">
        <ele>222</ele>
        <time>2017-12-21T13:48:19Z</time>
      </trkpt>
      <trkpt lat="47.32217" lon="5.96634">
        <ele>222</ele>
        <time>2017-12-21T13:48:20Z</time>
      </trkpt>
      <trkpt lat="47.32222" lon="5.96643">
        <ele>222</ele>
        <time>2017-12-21T13:48:21Z</time>
      </trkpt>
      <trkpt lat="47.32226" lon="5.9665">
        <ele>222</ele>
        <time>2017-12-21T13:48:22Z</time>
      </trkpt>
      <trkpt lat="47.32232" lon="5.96657">
        <ele>222</ele>
        <time>2017-12-21T13:48:23Z</time>
      </trkpt>
      <trkpt lat="47.32236" lon="5.96664">
        <ele>222</ele>
        <time>2017-12-21T13:48:24Z</time>
      </trkpt>
      <trkpt lat="47.32241" lon="5.96671">
        <ele>222</ele>
        <time>2017-12-21T13:48:25Z</time>
      </trkpt>
      <trkpt lat="47.32246" lon="5.96678">
        <ele>222</ele>
        <time>2017-12-21T13:48:26Z</time>
      </trkpt>
      <trkpt lat="47.32251" lon="5.96684">
        <ele>222</ele>
        <time>2017-12-21T13:48:27Z</time>
      </trkpt>
      <trkpt lat="47.32256" lon="5.96691">
        <ele>222</ele>
        <time>2017-12-21T13:48:28Z</time>
      </trkpt>
      <trkpt lat="47.3226" lon="5.96697">
        <ele>222</ele>
        <time>2017-12-21T13:48:29Z</time>
      </trkpt>
      <trkpt lat="47.32265" lon="5.96704">
        <ele>222</ele>
        <time>2017-12-21T13:48:30Z</time>
      </trkpt>
      <trkpt lat="47.32269" lon="5.96711">
        <ele>222</ele>
        <time>2017-12-21T13:48:31Z</time>
      </trkpt>
      <trkpt lat="47.32273" lon="5.96718">
        <ele>222</ele>
        <time>2017-12-21T13:48:32Z</time>
      </trkpt>
      <trkpt lat="47.32277" lon="5.96725">
        <ele>222</ele>
        <time>2017-12-21T13:48:33Z</time>
      </trkpt>
      <trkpt lat="47.3228" lon="5.96732">
        <ele>222</ele>
        <time>2017-12-21T13:48:34Z</time>
      </trkpt>
      <trkpt lat="47.32283" lon="5.96739">
        <ele>222</ele>
        <time>2017-12-21T13:48:35Z</time>
      </trkpt>
      <trkpt lat="47.32286" lon="5.96748">
        <ele>222</ele>
        <time>2017-12-21T13:48:36Z</time>
      </trkpt>
      <trkpt lat="47.32289" lon="5.96756">
        <ele>222</ele>
        <time>2017-12-21T13:48:37Z</time>
      </trkpt>
      <trkpt lat="47.32291" lon="5.96765">
        <ele>222</ele>
        <time>2017-12-21T13:48:38Z</time>
      </trkpt>
      <trkpt lat="47.32293" lon="5.96773">
        <ele>222</ele>
        <time>2017-12-21T13:48:39Z</time>
      </trkpt>
      <trkpt lat="47.32295" lon="5.96782">
        <ele>222</ele>
        <time>2017-12-21T13:48:40Z</time>
      </trkpt>
      <trkpt lat="47.32296" lon="5.96791">
        <ele>222</ele>
        <time>2017-12-21T13:48:41Z</time>
      </trkpt>
      <trkpt lat="47.32297" lon="5.96801">
        <ele>222</ele>
        <time>2017-12-21T13:48:42Z</time>
      </trkpt>
      <trkpt lat="47.32298" lon="5.9681">
        <ele>222</ele>
        <time>2017-12-21T13:48:43Z</time>
      </trkpt>
      <trkpt lat="47.32298" lon="5.96819">
        <ele>222</ele>
        <time>2017-12-21T13:48:44Z</time>
      </trkpt>
      <trkpt lat="47.32297" lon="5.96828">
        <ele>222</ele>
        <time>2017-12-21T13:48:45Z</time>
      </trkpt>
      <trkpt lat="47.32296" lon="5.96837">
        <ele>222</ele>
        <time>2017-12-21T13:48:46Z</time>
      </trkpt>
      <trkpt lat="47.32296" lon="5.96847">
        <ele>222</ele>
        <time>2017-12-21T13:48:47Z</time>
      </trkpt>
      <trkpt lat="47.32295" lon="5.96856">
        <ele>222</ele>
        <time>2017-12-21T13:48:48Z</time>
      </trkpt>
      <trkpt lat="47.32296" lon="5.96866">
        <ele>222</ele>
        <time>2017-12-21T13:48:49Z</time>
      </trkpt>
      <trkpt lat="47.32296" lon="5.96876">
        <ele>222</ele>
        <time>2017-12-21T13:48:50Z</time>
      </trkpt>
      <trkpt lat="47.32297" lon="5.96886">
        <ele>222</ele>
        <time>2017-12-21T13:48:51Z</time>
      </trkpt>
      <trkpt lat="47.32299" lon="5.96896">
        <ele>222</ele>
        <time>2017-12-21T13:48:52Z</time>
      </trkpt>
      <trkpt lat="47.32301" lon="5.96906">
        <ele>222</ele>
        <time>2017-12-21T13:48:53Z</time>
      </trkpt>
      <trkpt lat="47.32304" lon="5.96915">
        <ele>222</ele>
        <time>2017-12-21T13:48:54Z</time>
      </trkpt>
      <trkpt lat="47.32306" lon="5.96924">
        <ele>222</ele>
        <time>2017-12-21T13:48:55Z</time>
      </trkpt>
      <trkpt lat="47.32309" lon="5.96933">
        <ele>222</ele>
        <time>2017-12-21T13:48:56Z</time>
      </trkpt>
      <trkpt lat="47.32311" lon="5.96942">
        <ele>222</ele>
        <time>2017-12-21T13:48:57Z</time>
      </trkpt>
      <trkpt lat="47.32314" lon="5.96951">
        <ele>222</ele>
        <time>2017-12-21T13:48:58Z</time>
      </trkpt>
      <trkpt lat="47.32316" lon="5.9696">
        <ele>222</ele>
        <time>2017-12-21T13:48:59Z</time>
      </trkpt>
      <trkpt lat="47.32318" lon="5.96969">
        <ele>222</ele>
        <time>2017-12-21T13:49:00Z</time>
      </trkpt>
      <trkpt lat="47.3232" lon="5.96979">
        <ele>222</ele>
        <time>2017-12-21T13:49:01Z</time>
      </trkpt>
      <trkpt lat="47.32322" lon="5.96989">
        <ele>222</ele>
        <time>2017-12-21T13:49:02Z</time>
      </trkpt>
      <trkpt lat="47.32324" lon="5.96997">
        <ele>222</ele>
        <time>2017-12-21T13:49:03Z</time>
      </trkpt>
      <trkpt lat="47.32326" lon="5.97006">
        <ele>222</ele>
        <time>2017-12-21T13:49:04Z</time>
      </trkpt>
      <trkpt lat="47.32328" lon="5.97013">
        <ele>222</ele>
        <time>2017-12-21T13:49:05Z</time>
      </trkpt>
      <trkpt lat="47.32331" lon="5.97021">
        <ele>222</ele>
        <time>2017-12-21T13:49:06Z</time>
      </trkpt>
      <trkpt lat="47.32333" lon="5.97029">
        <ele>222</ele>
        <time>2017-12-21T13:49:07Z</time>
      </trkpt>
      <trkpt lat="47.32335" lon="5.97036">
        <ele>222</ele>
        <time>2017-12-21T13:49:08Z</time>
      </trkpt>
      <trkpt lat="47.32338" lon="5.97043">
        <ele>222</ele>
        <time>2017-12-21T13:49:09Z</time>
      </trkpt>
      <trkpt lat="47.3234" lon="5.9705">
        <ele>222</ele>
        <time>2017-12-21T13:49:10Z</time>
      </trkpt>
      <trkpt lat="47.32342" lon="5.97057">
        <ele>222</ele>
        <time>2017-12-21T13:49:11Z</time>
      </trkpt>
      <trkpt lat="47.32344" lon="5.97063">
        <ele>222.4</ele>
        <time>2017-12-21T13:49:12Z</time>
      </trkpt>
      <trkpt lat="47.32346" lon="5.9707">
        <ele>222.8</ele>
        <time>2017-12-21T13:49:13Z</time>
      </trkpt>
      <trkpt lat="47.32348" lon="5.97076">
        <ele>223.2</ele>
        <time>2017-12-21T13:49:14Z</time>
      </trkpt>
      <trkpt lat="47.3235" lon="5.97081">
        <ele>223.6</ele>
        <time>2017-12-21T13:49:15Z</time>
      </trkpt>
      <trkpt lat="47.32352" lon="5.97087">
        <ele>224</ele>
        <time>2017-12-21T13:49:16Z</time>
      </trkpt>
      <trkpt lat="47.32353" lon="5.97093">
        <ele>224</ele>
        <time>2017-12-21T13:49:17Z</time>
      </trkpt>
      <trkpt lat="47.32355" lon="5.97099">
        <ele>224</ele>
        <time>2017-12-21T13:49:18Z</time>
      </trkpt>
      <trkpt lat="47.32357" lon="5.97105">
        <ele>224</ele>
        <time>2017-12-21T13:49:19Z</time>
      </trkpt>
      <trkpt lat="47.32359" lon="5.97111">
        <ele>224</ele>
        <time>2017-12-21T13:49:20Z</time>
      </trkpt>
      <trkpt lat="47.32361" lon="5.97117">
        <ele>224</ele>
        <time>2017-12-21T13:49:21Z</time>
      </trkpt>
      <trkpt lat="47.32363" lon="5.97123">
        <ele>224</ele>
        <time>2017-12-21T13:49:22Z</time>
      </trkpt>
      <trkpt lat="47.32365" lon="5.9713">
        <ele>224</ele>
        <time>2017-12-21T13:49:23Z</time>
      </trkpt>
      <trkpt lat="47.32367" lon="5.97137">
        <ele>224</ele>
        <time>2017-12-21T13:49:24Z</time>
      </trkpt>
      <trkpt lat="47.32367" lon="5.97146">
        <ele>224</ele>
        <time>2017-12-21T13:49:25Z</time>
      </trkpt>
      <trkpt lat="47.32363" lon="5.97155">
        <ele>224</ele>
        <time>2017-12-21T13:49:26Z</time>
      </trkpt>
      <trkpt lat="47.32359" lon="5.9716">
        <ele>224</ele>
        <time>2017-12-21T13:49:27Z</time>
      </trkpt>
      <trkpt lat="47.32354" lon="5.97164">
        <ele>224</ele>
        <time>2017-12-21T13:49:28Z</time>
      </trkpt>
      <trkpt lat="47.32349" lon="5.97167">
        <ele>224</ele>
        <time>2017-12-21T13:49:29Z</time>
      </trkpt>
      <trkpt lat="47.32344" lon="5.97171">
        <ele>224</ele>
        <time>2017-12-21T13:49:30Z</time>
      </trkpt>
      <trkpt lat="47.3234" lon="5.97174">
        <ele>224</ele>
        <time>2017-12-21T13:49:31Z</time>
      </trkpt>
      <trkpt lat="47.32334" lon="5.97177">
        <ele>224</ele>
        <time>2017-12-21T13:49:32Z</time>
      </trkpt>
      <trkpt lat="47.32329" lon="5.9718">
        <ele>224</ele>
        <time>2017-12-21T13:49:33Z</time>
      </trkpt>
      <trkpt lat="47.32325" lon="5.97184">
        <ele>224</ele>
        <time>2017-12-21T13:49:34Z</time>
      </trkpt>
      <trkpt lat="47.3232" lon="5.97188">
        <ele>224.6</ele>
        <time>2017-12-21T13:49:35Z</time>
      </trkpt>
      <trkpt lat="47.32315" lon="5.97191">
        <ele>225.4</ele>
        <time>2017-12-21T13:49:36Z</time>
      </trkpt>
      <trkpt lat="47.3231" lon="5.97194">
        <ele>225.8</ele>
        <time>2017-12-21T13:49:37Z</time>
      </trkpt>
      <trkpt lat="47.32305" lon="5.97198">
        <ele>226.2</ele>
        <time>2017-12-21T13:49:38Z</time>
      </trkpt>
      <trkpt lat="47.323" lon="5.972">
        <ele>226.2</ele>
        <time>2017-12-21T13:49:39Z</time>
      </trkpt>
      <trkpt lat="47.32295" lon="5.97204">
        <ele>226.2</ele>
        <time>2017-12-21T13:49:40Z</time>
      </trkpt>
      <trkpt lat="47.3229" lon="5.97207">
        <ele>226.2</ele>
        <time>2017-12-21T13:49:41Z</time>
      </trkpt>
      <trkpt lat="47.32286" lon="5.9721">
        <ele>226.2</ele>
        <time>2017-12-21T13:49:42Z</time>
      </trkpt>
      <trkpt lat="47.32281" lon="5.97212">
        <ele>226.2</ele>
        <time>2017-12-21T13:49:43Z</time>
      </trkpt>
      <trkpt lat="47.32277" lon="5.97214">
        <ele>226.2</ele>
        <time>2017-12-21T13:49:44Z</time>
      </trkpt>
      <trkpt lat="47.32272" lon="5.97217">
        <ele>226.6</ele>
        <time>2017-12-21T13:49:45Z</time>
      </trkpt>
      <trkpt lat="47.32267" lon="5.97219">
        <ele>227</ele>
        <time>2017-12-21T13:49:46Z</time>
      </trkpt>
      <trkpt lat="47.32262" lon="5.97221">
        <ele>227.6</ele>
        <time>2017-12-21T13:49:47Z</time>
      </trkpt>
      <trkpt lat="47.32257" lon="5.97224">
        <ele>228</ele>
        <time>2017-12-21T13:49:48Z</time>
      </trkpt>
      <trkpt lat="47.32251" lon="5.97226">
        <ele>228.4</ele>
        <time>2017-12-21T13:49:49Z</time>
      </trkpt>
      <trkpt lat="47.32246" lon="5.97228">
        <ele>228.4</ele>
        <time>2017-12-21T13:49:50Z</time>
      </trkpt>
      <trkpt lat="47.32241" lon="5.9723">
        <ele>228.4</ele>
        <time>2017-12-21T13:49:51Z</time>
      </trkpt>
      <trkpt lat="47.32236" lon="5.97232">
        <ele>228.4</ele>
        <time>2017-12-21T13:49:52Z</time>
      </trkpt>
      <trkpt lat="47.32231" lon="5.97234">
        <ele>228.4</ele>
        <time>2017-12-21T13:49:53Z</time>
      </trkpt>
      <trkpt lat="47.32225" lon="5.97237">
        <ele>228.4</ele>
        <time>2017-12-21T13:49:54Z</time>
      </trkpt>
      <trkpt lat="47.3222" lon="5.97239">
        <ele>228.4</ele>
        <time>2017-12-21T13:49:55Z</time>
      </trkpt>
      <trkpt lat="47.32215" lon="5.97242">
        <ele>228.4</ele>
        <time>2017-12-21T13:49:56Z</time>
      </trkpt>
      <trkpt lat="47.32211" lon="5.97244">
        <ele>228.4</ele>
        <time>2017-12-21T13:49:57Z</time>
      </trkpt>
      <trkpt lat="47.32206" lon="5.97246">
        <ele>228.4</ele>
        <time>2017-12-21T13:49:58Z</time>
      </trkpt>
      <trkpt lat="47.322" lon="5.97248">
        <ele>228.4</ele>
        <time>2017-12-21T13:49:59Z</time>
      </trkpt>
      <trkpt lat="47.32195" lon="5.97251">
        <ele>228.4</ele>
        <time>2017-12-21T13:50:00Z</time>
      </trkpt>
      <trkpt lat="47.32189" lon="5.97253">
        <ele>228.4</ele>
        <time>2017-12-21T13:50:01Z</time>
      </trkpt>
      <trkpt lat="47.32184" lon="5.97255">
        <ele>228.4</ele>
        <time>2017-12-21T13:50:02Z</time>
      </trkpt>
      <trkpt lat="47.32179" lon="5.97256">
        <ele>228.4</ele>
        <time>2017-12-21T13:50:03Z</time>
      </trkpt>
      <trkpt lat="47.32175" lon="5.97258">
        <ele>228.4</ele>
        <time>2017-12-21T13:50:04Z</time>
      </trkpt>
      <trkpt lat="47.32171" lon="5.9726">
        <ele>228.4</ele>
        <time>2017-12-21T13:50:05Z</time>
      </trkpt>
      <trkpt lat="47.32168" lon="5.97261">
        <ele>228.4</ele>
        <time>2017-12-21T13:50:06Z</time>
      </trkpt>
      <trkpt lat="47.32164" lon="5.97263">
        <ele>228.4</ele>
        <time>2017-12-21T13:50:07Z</time>
      </trkpt>
      <trkpt lat="47.32161" lon="5.97265">
        <ele>228.8</ele>
        <time>2017-12-21T13:50:08Z</time>
      </trkpt>
      <trkpt lat="47.32157" lon="5.97268">
        <ele>229.2</ele>
        <time>2017-12-21T13:50:09Z</time>
      </trkpt>
      <trkpt lat="47.32154" lon="5.9727">
        <ele>229.6</ele>
        <time>2017-12-21T13:50:10Z</time>
      </trkpt>
      <trkpt lat="47.32152" lon="5.97272">
        <ele>230</ele>
        <time>2017-12-21T13:50:11Z</time>
      </trkpt>
      <trkpt lat="47.32149" lon="5.97274">
        <ele>230.4</ele>
        <time>2017-12-21T13:50:12Z</time>
      </trkpt>
      <trkpt lat="47.32146" lon="5.97276">
        <ele>230.4</ele>
        <time>2017-12-21T13:50:13Z</time>
      </trkpt>
      <trkpt lat="47.32143" lon="5.97279">
        <ele>230.4</ele>
        <time>2017-12-21T13:50:14Z</time>
      </trkpt>
      <trkpt lat="47.32139" lon="5.97281">
        <ele>230.4</ele>
        <time>2017-12-21T13:50:15Z</time>
      </trkpt>
      <trkpt lat="47.32135" lon="5.97285">
        <ele>230.4</ele>
        <time>2017-12-21T13:50:16Z</time>
      </trkpt>
      <trkpt lat="47.32131" lon="5.97288">
        <ele>230.4</ele>
        <time>2017-12-21T13:50:17Z</time>
      </trkpt>
      <trkpt lat="47.32127" lon="5.9729">
        <ele>230.4</ele>
        <time>2017-12-21T13:50:18Z</time>
      </trkpt>
      <trkpt lat="47.32123" lon="5.97294">
        <ele>230.4</ele>
        <time>2017-12-21T13:50:19Z</time>
      </trkpt>
      <trkpt lat="47.32118" lon="5.97297">
        <ele>230.4</ele>
        <time>2017-12-21T13:50:20Z</time>
      </trkpt>
      <trkpt lat="47.32114" lon="5.97301">
        <ele>230.4</ele>
        <time>2017-12-21T13:50:21Z</time>
      </trkpt>
      <trkpt lat="47.32109" lon="5.97305">
        <ele>230.4</ele>
        <time>2017-12-21T13:50:22Z</time>
      </trkpt>
      <trkpt lat="47.32104" lon="5.97309">
        <ele>230.4</ele>
        <time>2017-12-21T13:50:23Z</time>
      </trkpt>
      <trkpt lat="47.32099" lon="5.97314">
        <ele>230.4</ele>
        <time>2017-12-21T13:50:24Z</time>
      </trkpt>
      <trkpt lat="47.32093" lon="5.9732">
        <ele>230.4</ele>
        <time>2017-12-21T13:50:25Z</time>
      </trkpt>
      <trkpt lat="47.32087" lon="5.97326">
        <ele>230.4</ele>
        <time>2017-12-21T13:50:26Z</time>
      </trkpt>
      <trkpt lat="47.32081" lon="5.97332">
        <ele>230.4</ele>
        <time>2017-12-21T13:50:27Z</time>
      </trkpt>
      <trkpt lat="47.32076" lon="5.97339">
        <ele>230.4</ele>
        <time>2017-12-21T13:50:28Z</time>
      </trkpt>
      <trkpt lat="47.32069" lon="5.97345">
        <ele>230.4</ele>
        <time>2017-12-21T13:50:29Z</time>
      </trkpt>
      <trkpt lat="47.32062" lon="5.97352">
        <ele>230.4</ele>
        <time>2017-12-21T13:50:30Z</time>
      </trkpt>
      <trkpt lat="47.32055" lon="5.97359">
        <ele>230.4</ele>
        <time>2017-12-21T13:50:31Z</time>
      </trkpt>
      <trkpt lat="47.32049" lon="5.97367">
        <ele>230.4</ele>
        <time>2017-12-21T13:50:32Z</time>
      </trkpt>
      <trkpt lat="47.32042" lon="5.97374">
        <ele>230</ele>
        <time>2017-12-21T13:50:33Z</time>
      </trkpt>
      <trkpt lat="47.32035" lon="5.97381">
        <ele>229.4</ele>
        <time>2017-12-21T13:50:34Z</time>
      </trkpt>
      <trkpt lat="47.32028" lon="5.97389">
        <ele>229</ele>
        <time>2017-12-21T13:50:35Z</time>
      </trkpt>
      <trkpt lat="47.32021" lon="5.97396">
        <ele>228.4</ele>
        <time>2017-12-21T13:50:36Z</time>
      </trkpt>
      <trkpt lat="47.32014" lon="5.97403">
        <ele>228</ele>
        <time>2017-12-21T13:50:37Z</time>
      </trkpt>
      <trkpt lat="47.32007" lon="5.9741">
        <ele>227.6</ele>
        <time>2017-12-21T13:50:38Z</time>
      </trkpt>
      <trkpt lat="47.32" lon="5.97417">
        <ele>227.2</ele>
        <time>2017-12-21T13:50:39Z</time>
      </trkpt>
      <trkpt lat="47.31992" lon="5.97425">
        <ele>226.8</ele>
        <time>2017-12-21T13:50:40Z</time>
      </trkpt>
      <trkpt lat="47.31985" lon="5.97433">
        <ele>226.4</ele>
        <time>2017-12-21T13:50:41Z</time>
      </trkpt>
      <trkpt lat="47.31978" lon="5.9744">
        <ele>226</ele>
        <time>2017-12-21T13:50:42Z</time>
      </trkpt>
      <trkpt lat="47.3197" lon="5.97447">
        <ele>226</ele>
        <time>2017-12-21T13:50:43Z</time>
      </trkpt>
      <trkpt lat="47.31963" lon="5.97455">
        <ele>225.6</ele>
        <time>2017-12-21T13:50:44Z</time>
      </trkpt>
      <trkpt lat="47.31955" lon="5.97462">
        <ele>225.2</ele>
        <time>2017-12-21T13:50:45Z</time>
      </trkpt>
      <trkpt lat="47.31947" lon="5.97469">
        <ele>224.8</ele>
        <time>2017-12-21T13:50:46Z</time>
      </trkpt>
      <trkpt lat="47.31939" lon="5.97476">
        <ele>224.2</ele>
        <time>2017-12-21T13:50:47Z</time>
      </trkpt>
      <trkpt lat="47.31931" lon="5.97482">
        <ele>223.8</ele>
        <time>2017-12-21T13:50:48Z</time>
      </trkpt>
      <trkpt lat="47.31923" lon="5.97488">
        <ele>223.8</ele>
        <time>2017-12-21T13:50:49Z</time>
      </trkpt>
      <trkpt lat="47.31915" lon="5.97494">
        <ele>223.8</ele>
        <time>2017-12-21T13:50:50Z</time>
      </trkpt>
      <trkpt lat="47.31908" lon="5.975">
        <ele>223.8</ele>
        <time>2017-12-21T13:50:51Z</time>
      </trkpt>
      <trkpt lat="47.319" lon="5.97506">
        <ele>223.4</ele>
        <time>2017-12-21T13:50:52Z</time>
      </trkpt>
      <trkpt lat="47.31892" lon="5.97511">
        <ele>223</ele>
        <time>2017-12-21T13:50:53Z</time>
      </trkpt>
      <trkpt lat="47.31885" lon="5.97516">
        <ele>222.6</ele>
        <time>2017-12-21T13:50:54Z</time>
      </trkpt>
      <trkpt lat="47.31877" lon="5.97521">
        <ele>222.2</ele>
        <time>2017-12-21T13:50:55Z</time>
      </trkpt>
      <trkpt lat="47.31871" lon="5.97527">
        <ele>221.8</ele>
        <time>2017-12-21T13:50:56Z</time>
      </trkpt>
      <trkpt lat="47.31864" lon="5.97532">
        <ele>221.8</ele>
        <time>2017-12-21T13:50:57Z</time>
      </trkpt>
      <trkpt lat="47.31857" lon="5.97537">
        <ele>221.8</ele>
        <time>2017-12-21T13:50:58Z</time>
      </trkpt>
      <trkpt lat="47.31851" lon="5.97541">
        <ele>221.8</ele>
        <time>2017-12-21T13:50:59Z</time>
      </trkpt>
      <trkpt lat="47.31844" lon="5.97546">
        <ele>221.8</ele>
        <time>2017-12-21T13:51:00Z</time>
      </trkpt>
      <trkpt lat="47.31838" lon="5.97551">
        <ele>221.8</ele>
        <time>2017-12-21T13:51:01Z</time>
      </trkpt>
      <trkpt lat="47.31831" lon="5.97556">
        <ele>221.8</ele>
        <time>2017-12-21T13:51:02Z</time>
      </trkpt>
      <trkpt lat="47.31825" lon="5.97561">
        <ele>221.8</ele>
        <time>2017-12-21T13:51:03Z</time>
      </trkpt>
      <trkpt lat="47.31819" lon="5.97566">
        <ele>221.8</ele>
        <time>2017-12-21T13:51:04Z</time>
      </trkpt>
      <trkpt lat="47.31813" lon="5.97572">
        <ele>221.8</ele>
        <time>2017-12-21T13:51:05Z</time>
      </trkpt>
      <trkpt lat="47.31806" lon="5.97574">
        <ele>221.8</ele>
        <time>2017-12-21T13:51:06Z</time>
      </trkpt>
      <trkpt lat="47.31799" lon="5.97577">
        <ele>221.8</ele>
        <time>2017-12-21T13:51:07Z</time>
      </trkpt>
      <trkpt lat="47.31792" lon="5.9758">
        <ele>221.8</ele>
        <time>2017-12-21T13:51:08Z</time>
      </trkpt>
      <trkpt lat="47.31788" lon="5.97587">
        <ele>221.8</ele>
        <time>2017-12-21T13:51:09Z</time>
      </trkpt>
      <trkpt lat="47.31787" lon="5.97597">
        <ele>221.8</ele>
        <time>2017-12-21T13:51:10Z</time>
      </trkpt>
      <trkpt lat="47.31788" lon="5.97607">
        <ele>221.8</ele>
        <time>2017-12-21T13:51:11Z</time>
      </trkpt>
      <trkpt lat="47.31789" lon="5.97616">
        <ele>221.8</ele>
        <time>2017-12-21T13:51:12Z</time>
      </trkpt>
      <trkpt lat="47.31788" lon="5.97625">
        <ele>221.8</ele>
        <time>2017-12-21T13:51:13Z</time>
      </trkpt>
      <trkpt lat="47.31787" lon="5.97633">
        <ele>221.8</ele>
        <time>2017-12-21T13:51:14Z</time>
      </trkpt>
      <trkpt lat="47.31785" lon="5.97642">
        <ele>221.8</ele>
        <time>2017-12-21T13:51:15Z</time>
      </trkpt>
      <trkpt lat="47.31784" lon="5.97651">
        <ele>221.8</ele>
        <time>2017-12-21T13:51:16Z</time>
      </trkpt>
      <trkpt lat="47.31782" lon="5.97659">
        <ele>221.8</ele>
        <time>2017-12-21T13:51:17Z</time>
      </trkpt>
      <trkpt lat="47.3178" lon="5.97667">
        <ele>221.8</ele>
        <time>2017-12-21T13:51:18Z</time>
      </trkpt>
      <trkpt lat="47.31779" lon="5.97675">
        <ele>221.8</ele>
        <time>2017-12-21T13:51:19Z</time>
      </trkpt>
      <trkpt lat="47.31777" lon="5.97682">
        <ele>221.8</ele>
        <time>2017-12-21T13:51:20Z</time>
      </trkpt>
      <trkpt lat="47.31776" lon="5.97691">
        <ele>221.8</ele>
        <time>2017-12-21T13:51:21Z</time>
      </trkpt>
      <trkpt lat="47.31774" lon="5.977">
        <ele>221.8</ele>
        <time>2017-12-21T13:51:22Z</time>
      </trkpt>
      <trkpt lat="47.31773" lon="5.9771">
        <ele>221.8</ele>
        <time>2017-12-21T13:51:23Z</time>
      </trkpt>
      <trkpt lat="47.31771" lon="5.97719">
        <ele>221.8</ele>
        <time>2017-12-21T13:51:24Z</time>
      </trkpt>
      <trkpt lat="47.3177" lon="5.97727">
        <ele>221.8</ele>
        <time>2017-12-21T13:51:25Z</time>
      </trkpt>
      <trkpt lat="47.31768" lon="5.97737">
        <ele>221.8</ele>
        <time>2017-12-21T13:51:26Z</time>
      </trkpt>
      <trkpt lat="47.31767" lon="5.97746">
        <ele>221.8</ele>
        <time>2017-12-21T13:51:27Z</time>
      </trkpt>
      <trkpt lat="47.31765" lon="5.97756">
        <ele>221.8</ele>
        <time>2017-12-21T13:51:28Z</time>
      </trkpt>
      <trkpt lat="47.31762" lon="5.97766">
        <ele>221.8</ele>
        <time>2017-12-21T13:51:29Z</time>
      </trkpt>
      <trkpt lat="47.3176" lon="5.97776">
        <ele>221.8</ele>
        <time>2017-12-21T13:51:30Z</time>
      </trkpt>
      <trkpt lat="47.31758" lon="5.97787">
        <ele>221.8</ele>
        <time>2017-12-21T13:51:31Z</time>
      </trkpt>
      <trkpt lat="47.31756" lon="5.97797">
        <ele>221.8</ele>
        <time>2017-12-21T13:51:32Z</time>
      </trkpt>
      <trkpt lat="47.31754" lon="5.97808">
        <ele>221.8</ele>
        <time>2017-12-21T13:51:33Z</time>
      </trkpt>
      <trkpt lat="47.31753" lon="5.97818">
        <ele>221.8</ele>
        <time>2017-12-21T13:51:34Z</time>
      </trkpt>
      <trkpt lat="47.31751" lon="5.97828">
        <ele>221.8</ele>
        <time>2017-12-21T13:51:35Z</time>
      </trkpt>
      <trkpt lat="47.3175" lon="5.97839">
        <ele>221.8</ele>
        <time>2017-12-21T13:51:36Z</time>
      </trkpt>
      <trkpt lat="47.31749" lon="5.97849">
        <ele>221.8</ele>
        <time>2017-12-21T13:51:37Z</time>
      </trkpt>
      <trkpt lat="47.31748" lon="5.97859">
        <ele>221.8</ele>
        <time>2017-12-21T13:51:38Z</time>
      </trkpt>
      <trkpt lat="47.31747" lon="5.97868">
        <ele>221.8</ele>
        <time>2017-12-21T13:51:39Z</time>
      </trkpt>
      <trkpt lat="47.31747" lon="5.97877">
        <ele>221.8</ele>
        <time>2017-12-21T13:51:40Z</time>
      </trkpt>
      <trkpt lat="47.31747" lon="5.97886">
        <ele>221.8</ele>
        <time>2017-12-21T13:51:41Z</time>
      </trkpt>
      <trkpt lat="47.31747" lon="5.97895">
        <ele>221.8</ele>
        <time>2017-12-21T13:51:42Z</time>
      </trkpt>
      <trkpt lat="47.31748" lon="5.97903">
        <ele>221.8</ele>
        <time>2017-12-21T13:51:43Z</time>
      </trkpt>
      <trkpt lat="47.3175" lon="5.97911">
        <ele>221.8</ele>
        <time>2017-12-21T13:51:44Z</time>
      </trkpt>
      <trkpt lat="47.31753" lon="5.97919">
        <ele>221.8</ele>
        <time>2017-12-21T13:51:45Z</time>
      </trkpt>
      <trkpt lat="47.31755" lon="5.97928">
        <ele>221.8</ele>
        <time>2017-12-21T13:51:46Z</time>
      </trkpt>
      <trkpt lat="47.31758" lon="5.97936">
        <ele>221.8</ele>
        <time>2017-12-21T13:51:47Z</time>
      </trkpt>
      <trkpt lat="47.31761" lon="5.97945">
        <ele>221.8</ele>
        <time>2017-12-21T13:51:48Z</time>
      </trkpt>
      <trkpt lat="47.31764" lon="5.97954">
        <ele>221.8</ele>
        <time>2017-12-21T13:51:49Z</time>
      </trkpt>
      <trkpt lat="47.31767" lon="5.97964">
        <ele>221.8</ele>
        <time>2017-12-21T13:51:50Z</time>
      </trkpt>
      <trkpt lat="47.31769" lon="5.97973">
        <ele>221.8</ele>
        <time>2017-12-21T13:51:51Z</time>
      </trkpt>
      <trkpt lat="47.31772" lon="5.97984">
        <ele>221.8</ele>
        <time>2017-12-21T13:51:52Z</time>
      </trkpt>
      <trkpt lat="47.31774" lon="5.97994">
        <ele>221.8</ele>
        <time>2017-12-21T13:51:53Z</time>
      </trkpt>
      <trkpt lat="47.31775" lon="5.98006">
        <ele>221.8</ele>
        <time>2017-12-21T13:51:54Z</time>
      </trkpt>
      <trkpt lat="47.31777" lon="5.98017">
        <ele>221.8</ele>
        <time>2017-12-21T13:51:55Z</time>
      </trkpt>
      <trkpt lat="47.31777" lon="5.9803">
        <ele>221.8</ele>
        <time>2017-12-21T13:51:56Z</time>
      </trkpt>
      <trkpt lat="47.31777" lon="5.98043">
        <ele>221.8</ele>
        <time>2017-12-21T13:51:57Z</time>
      </trkpt>
      <trkpt lat="47.31776" lon="5.98056">
        <ele>221.4</ele>
        <time>2017-12-21T13:51:58Z</time>
      </trkpt>
      <trkpt lat="47.31774" lon="5.98069">
        <ele>220.8</ele>
        <time>2017-12-21T13:51:59Z</time>
      </trkpt>
      <trkpt lat="47.31771" lon="5.98082">
        <ele>220.4</ele>
        <time>2017-12-21T13:52:00Z</time>
      </trkpt>
      <trkpt lat="47.31769" lon="5.98095">
        <ele>220</ele>
        <time>2017-12-21T13:52:01Z</time>
      </trkpt>
      <trkpt lat="47.31766" lon="5.98107">
        <ele>219.6</ele>
        <time>2017-12-21T13:52:02Z</time>
      </trkpt>
      <trkpt lat="47.31763" lon="5.98119">
        <ele>219.6</ele>
        <time>2017-12-21T13:52:03Z</time>
      </trkpt>
      <trkpt lat="47.3176" lon="5.9813">
        <ele>219.6</ele>
        <time>2017-12-21T13:52:04Z</time>
      </trkpt>
      <trkpt lat="47.31757" lon="5.98142">
        <ele>219.6</ele>
        <time>2017-12-21T13:52:05Z</time>
      </trkpt>
      <trkpt lat="47.31754" lon="5.98155">
        <ele>219.6</ele>
        <time>2017-12-21T13:52:06Z</time>
      </trkpt>
      <trkpt lat="47.31751" lon="5.98167">
        <ele>219.6</ele>
        <time>2017-12-21T13:52:07Z</time>
      </trkpt>
      <trkpt lat="47.31748" lon="5.98179">
        <ele>219.6</ele>
        <time>2017-12-21T13:52:08Z</time>
      </trkpt>
      <trkpt lat="47.31744" lon="5.9819">
        <ele>219.6</ele>
        <time>2017-12-21T13:52:09Z</time>
      </trkpt>
      <trkpt lat="47.31742" lon="5.98199">
        <ele>219.6</ele>
        <time>2017-12-21T13:52:10Z</time>
      </trkpt>
      <trkpt lat="47.3174" lon="5.98208">
        <ele>219.6</ele>
        <time>2017-12-21T13:52:11Z</time>
      </trkpt>
      <trkpt lat="47.31738" lon="5.98217">
        <ele>219.6</ele>
        <time>2017-12-21T13:52:12Z</time>
      </trkpt>
      <trkpt lat="47.31737" lon="5.98226">
        <ele>219.6</ele>
        <time>2017-12-21T13:52:13Z</time>
      </trkpt>
      <trkpt lat="47.31736" lon="5.98235">
        <ele>219.6</ele>
        <time>2017-12-21T13:52:14Z</time>
      </trkpt>
      <trkpt lat="47.31735" lon="5.98245">
        <ele>219.6</ele>
        <time>2017-12-21T13:52:15Z</time>
      </trkpt>
      <trkpt lat="47.31735" lon="5.98255">
        <ele>219.6</ele>
        <time>2017-12-21T13:52:16Z</time>
      </trkpt>
      <trkpt lat="47.31736" lon="5.98264">
        <ele>219.6</ele>
        <time>2017-12-21T13:52:17Z</time>
      </trkpt>
      <trkpt lat="47.31737" lon="5.98273">
        <ele>219.6</ele>
        <time>2017-12-21T13:52:18Z</time>
      </trkpt>
      <trkpt lat="47.31738" lon="5.98283">
        <ele>219.6</ele>
        <time>2017-12-21T13:52:19Z</time>
      </trkpt>
      <trkpt lat="47.31739" lon="5.98291">
        <ele>219.6</ele>
        <time>2017-12-21T13:52:20Z</time>
      </trkpt>
      <trkpt lat="47.31741" lon="5.983">
        <ele>219.6</ele>
        <time>2017-12-21T13:52:21Z</time>
      </trkpt>
      <trkpt lat="47.31743" lon="5.98308">
        <ele>219.6</ele>
        <time>2017-12-21T13:52:22Z</time>
      </trkpt>
      <trkpt lat="47.31745" lon="5.98316">
        <ele>219.6</ele>
        <time>2017-12-21T13:52:23Z</time>
      </trkpt>
      <trkpt lat="47.31748" lon="5.98323">
        <ele>219.6</ele>
        <time>2017-12-21T13:52:24Z</time>
      </trkpt>
      <trkpt lat="47.31751" lon="5.98331">
        <ele>219.6</ele>
        <time>2017-12-21T13:52:25Z</time>
      </trkpt>
      <trkpt lat="47.31753" lon="5.98338">
        <ele>219.6</ele>
        <time>2017-12-21T13:52:26Z</time>
      </trkpt>
      <trkpt lat="47.31755" lon="5.98345">
        <ele>219.6</ele>
        <time>2017-12-21T13:52:27Z</time>
      </trkpt>
      <trkpt lat="47.31758" lon="5.98352">
        <ele>219.6</ele>
        <time>2017-12-21T13:52:28Z</time>
      </trkpt>
      <trkpt lat="47.31761" lon="5.98359">
        <ele>219.6</ele>
        <time>2017-12-21T13:52:29Z</time>
      </trkpt>
      <trkpt lat="47.31764" lon="5.98366">
        <ele>220.4</ele>
        <time>2017-12-21T13:52:30Z</time>
      </trkpt>
      <trkpt lat="47.31767" lon="5.98373">
        <ele>220.8</ele>
        <time>2017-12-21T13:52:31Z</time>
      </trkpt>
      <trkpt lat="47.3177" lon="5.9838">
        <ele>221.4</ele>
        <time>2017-12-21T13:52:32Z</time>
      </trkpt>
      <trkpt lat="47.31773" lon="5.98386">
        <ele>221.8</ele>
        <time>2017-12-21T13:52:33Z</time>
      </trkpt>
      <trkpt lat="47.31776" lon="5.98392">
        <ele>221.8</ele>
        <time>2017-12-21T13:52:34Z</time>
      </trkpt>
      <trkpt lat="47.3178" lon="5.98399">
        <ele>221.8</ele>
        <time>2017-12-21T13:52:35Z</time>
      </trkpt>
      <trkpt lat="47.31782" lon="5.98406">
        <ele>221.8</ele>
        <time>2017-12-21T13:52:36Z</time>
      </trkpt>
      <trkpt lat="47.31784" lon="5.98413">
        <ele>221.8</ele>
        <time>2017-12-21T13:52:37Z</time>
      </trkpt>
      <trkpt lat="47.31786" lon="5.98419">
        <ele>221.8</ele>
        <time>2017-12-21T13:52:38Z</time>
      </trkpt>
      <trkpt lat="47.31789" lon="5.98426">
        <ele>221.8</ele>
        <time>2017-12-21T13:52:39Z</time>
      </trkpt>
      <trkpt lat="47.31791" lon="5.98433">
        <ele>221.8</ele>
        <time>2017-12-21T13:52:40Z</time>
      </trkpt>
      <trkpt lat="47.31794" lon="5.98441">
        <ele>221.8</ele>
        <time>2017-12-21T13:52:41Z</time>
      </trkpt>
      <trkpt lat="47.31797" lon="5.98449">
        <ele>221.8</ele>
        <time>2017-12-21T13:52:42Z</time>
      </trkpt>
      <trkpt lat="47.318" lon="5.98456">
        <ele>221.8</ele>
        <time>2017-12-21T13:52:43Z</time>
      </trkpt>
      <trkpt lat="47.31803" lon="5.98464">
        <ele>221.8</ele>
        <time>2017-12-21T13:52:44Z</time>
      </trkpt>
      <trkpt lat="47.31806" lon="5.98471">
        <ele>221.8</ele>
        <time>2017-12-21T13:52:45Z</time>
      </trkpt>
      <trkpt lat="47.31809" lon="5.98478">
        <ele>221.8</ele>
        <time>2017-12-21T13:52:46Z</time>
      </trkpt>
      <trkpt lat="47.31813" lon="5.98486">
        <ele>221.8</ele>
        <time>2017-12-21T13:52:47Z</time>
      </trkpt>
      <trkpt lat="47.31816" lon="5.98493">
        <ele>221.8</ele>
        <time>2017-12-21T13:52:48Z</time>
      </trkpt>
      <trkpt lat="47.31819" lon="5.985">
        <ele>221.8</ele>
        <time>2017-12-21T13:52:49Z</time>
      </trkpt>
      <trkpt lat="47.31822" lon="5.98508">
        <ele>221.8</ele>
        <time>2017-12-21T13:52:50Z</time>
      </trkpt>
      <trkpt lat="47.31826" lon="5.98515">
        <ele>221.8</ele>
        <time>2017-12-21T13:52:51Z</time>
      </trkpt>
      <trkpt lat="47.31829" lon="5.98521">
        <ele>221.8</ele>
        <time>2017-12-21T13:52:52Z</time>
      </trkpt>
      <trkpt lat="47.31833" lon="5.98528">
        <ele>221.8</ele>
        <time>2017-12-21T13:52:53Z</time>
      </trkpt>
      <trkpt lat="47.31837" lon="5.98536">
        <ele>221.8</ele>
        <time>2017-12-21T13:52:54Z</time>
      </trkpt>
      <trkpt lat="47.3184" lon="5.98543">
        <ele>221.8</ele>
        <time>2017-12-21T13:52:55Z</time>
      </trkpt>
      <trkpt lat="47.31845" lon="5.98548">
        <ele>222.2</ele>
        <time>2017-12-21T13:52:56Z</time>
      </trkpt>
      <trkpt lat="47.31849" lon="5.98554">
        <ele>222.6</ele>
        <time>2017-12-21T13:52:57Z</time>
      </trkpt>
      <trkpt lat="47.31853" lon="5.9856">
        <ele>223</ele>
        <time>2017-12-21T13:52:58Z</time>
      </trkpt>
      <trkpt lat="47.31857" lon="5.98567">
        <ele>223.4</ele>
        <time>2017-12-21T13:52:59Z</time>
      </trkpt>
      <trkpt lat="47.31861" lon="5.98572">
        <ele>223.8</ele>
        <time>2017-12-21T13:53:00Z</time>
      </trkpt>
      <trkpt lat="47.31865" lon="5.98578">
        <ele>223.8</ele>
        <time>2017-12-21T13:53:01Z</time>
      </trkpt>
      <trkpt lat="47.31869" lon="5.98584">
        <ele>223.8</ele>
        <time>2017-12-21T13:53:02Z</time>
      </trkpt>
      <trkpt lat="47.31872" lon="5.98589">
        <ele>223.8</ele>
        <time>2017-12-21T13:53:03Z</time>
      </trkpt>
      <trkpt lat="47.31876" lon="5.98594">
        <ele>223.8</ele>
        <time>2017-12-21T13:53:04Z</time>
      </trkpt>
      <trkpt lat="47.3188" lon="5.98599">
        <ele>223.8</ele>
        <time>2017-12-21T13:53:05Z</time>
      </trkpt>
      <trkpt lat="47.31884" lon="5.98605">
        <ele>223.8</ele>
        <time>2017-12-21T13:53:06Z</time>
      </trkpt>
      <trkpt lat="47.31887" lon="5.9861">
        <ele>224.2</ele>
        <time>2017-12-21T13:53:07Z</time>
      </trkpt>
      <trkpt lat="47.31891" lon="5.98616">
        <ele>224.6</ele>
        <time>2017-12-21T13:53:08Z</time>
      </trkpt>
      <trkpt lat="47.31893" lon="5.98622">
        <ele>225</ele>
        <time>2017-12-21T13:53:09Z</time>
      </trkpt>
      <trkpt lat="47.31897" lon="5.98629">
        <ele>225.4</ele>
        <time>2017-12-21T13:53:10Z</time>
      </trkpt>
      <trkpt lat="47.319" lon="5.98635">
        <ele>226</ele>
        <time>2017-12-21T13:53:11Z</time>
      </trkpt>
      <trkpt lat="47.31903" lon="5.98641">
        <ele>226</ele>
        <time>2017-12-21T13:53:12Z</time>
      </trkpt>
      <trkpt lat="47.31906" lon="5.98647">
        <ele>226</ele>
        <time>2017-12-21T13:53:13Z</time>
      </trkpt>
      <trkpt lat="47.31909" lon="5.98654">
        <ele>226</ele>
        <time>2017-12-21T13:53:14Z</time>
      </trkpt>
      <trkpt lat="47.31912" lon="5.9866">
        <ele>226.4</ele>
        <time>2017-12-21T13:53:15Z</time>
      </trkpt>
      <trkpt lat="47.31915" lon="5.98667">
        <ele>226.8</ele>
        <time>2017-12-21T13:53:16Z</time>
      </trkpt>
      <trkpt lat="47.31917" lon="5.98674">
        <ele>227.2</ele>
        <time>2017-12-21T13:53:17Z</time>
      </trkpt>
      <trkpt lat="47.31919" lon="5.98681">
        <ele>227.6</ele>
        <time>2017-12-21T13:53:18Z</time>
      </trkpt>
      <trkpt lat="47.31921" lon="5.98688">
        <ele>228</ele>
        <time>2017-12-21T13:53:19Z</time>
      </trkpt>
      <trkpt lat="47.31923" lon="5.98695">
        <ele>228</ele>
        <time>2017-12-21T13:53:20Z</time>
      </trkpt>
      <trkpt lat="47.31925" lon="5.98702">
        <ele>228</ele>
        <time>2017-12-21T13:53:21Z</time>
      </trkpt>
      <trkpt lat="47.31928" lon="5.98709">
        <ele>228.4</ele>
        <time>2017-12-21T13:53:22Z</time>
      </trkpt>
      <trkpt lat="47.31931" lon="5.98716">
        <ele>228.8</ele>
        <time>2017-12-21T13:53:23Z</time>
      </trkpt>
      <trkpt lat="47.31933" lon="5.98723">
        <ele>229.2</ele>
        <time>2017-12-21T13:53:24Z</time>
      </trkpt>
      <trkpt lat="47.31935" lon="5.98729">
        <ele>229.6</ele>
        <time>2017-12-21T13:53:25Z</time>
      </trkpt>
      <trkpt lat="47.31937" lon="5.98736">
        <ele>230</ele>
        <time>2017-12-21T13:53:26Z</time>
      </trkpt>
      <trkpt lat="47.31939" lon="5.98742">
        <ele>230</ele>
        <time>2017-12-21T13:53:27Z</time>
      </trkpt>
      <trkpt lat="47.31942" lon="5.98749">
        <ele>230</ele>
        <time>2017-12-21T13:53:28Z</time>
      </trkpt>
      <trkpt lat="47.31944" lon="5.98756">
        <ele>230</ele>
        <time>2017-12-21T13:53:29Z</time>
      </trkpt>
      <trkpt lat="47.31946" lon="5.98763">
        <ele>230</ele>
        <time>2017-12-21T13:53:30Z</time>
      </trkpt>
      <trkpt lat="47.3195" lon="5.98769">
        <ele>230</ele>
        <time>2017-12-21T13:53:31Z</time>
      </trkpt>
      <trkpt lat="47.31952" lon="5.98776">
        <ele>230</ele>
        <time>2017-12-21T13:53:32Z</time>
      </trkpt>
      <trkpt lat="47.31955" lon="5.98782">
        <ele>230</ele>
        <time>2017-12-21T13:53:33Z</time>
      </trkpt>
      <trkpt lat="47.31958" lon="5.9879">
        <ele>230.4</ele>
        <time>2017-12-21T13:53:34Z</time>
      </trkpt>
      <trkpt lat="47.3196" lon="5.98797">
        <ele>230.8</ele>
        <time>2017-12-21T13:53:35Z</time>
      </trkpt>
      <trkpt lat="47.31963" lon="5.98804">
        <ele>231.2</ele>
        <time>2017-12-21T13:53:36Z</time>
      </trkpt>
      <trkpt lat="47.31966" lon="5.98811">
        <ele>231.8</ele>
        <time>2017-12-21T13:53:37Z</time>
      </trkpt>
      <trkpt lat="47.31968" lon="5.98818">
        <ele>232.2</ele>
        <time>2017-12-21T13:53:38Z</time>
      </trkpt>
      <trkpt lat="47.31971" lon="5.98825">
        <ele>232.2</ele>
        <time>2017-12-21T13:53:39Z</time>
      </trkpt>
      <trkpt lat="47.31973" lon="5.98832">
        <ele>232.2</ele>
        <time>2017-12-21T13:53:40Z</time>
      </trkpt>
      <trkpt lat="47.31976" lon="5.98838">
        <ele>232.2</ele>
        <time>2017-12-21T13:53:41Z</time>
      </trkpt>
      <trkpt lat="47.31979" lon="5.98845">
        <ele>232.2</ele>
        <time>2017-12-21T13:53:42Z</time>
      </trkpt>
      <trkpt lat="47.31982" lon="5.98852">
        <ele>232.2</ele>
        <time>2017-12-21T13:53:43Z</time>
      </trkpt>
      <trkpt lat="47.31984" lon="5.98859">
        <ele>232.2</ele>
        <time>2017-12-21T13:53:44Z</time>
      </trkpt>
      <trkpt lat="47.31987" lon="5.98866">
        <ele>232.2</ele>
        <time>2017-12-21T13:53:45Z</time>
      </trkpt>
      <trkpt lat="47.31989" lon="5.98873">
        <ele>232.2</ele>
        <time>2017-12-21T13:53:46Z</time>
      </trkpt>
      <trkpt lat="47.31992" lon="5.9888">
        <ele>232.2</ele>
        <time>2017-12-21T13:53:47Z</time>
      </trkpt>
      <trkpt lat="47.31994" lon="5.98887">
        <ele>232.2</ele>
        <time>2017-12-21T13:53:48Z</time>
      </trkpt>
      <trkpt lat="47.31997" lon="5.98894">
        <ele>232.2</ele>
        <time>2017-12-21T13:53:49Z</time>
      </trkpt>
      <trkpt lat="47.32" lon="5.98901">
        <ele>232.2</ele>
        <time>2017-12-21T13:53:50Z</time>
      </trkpt>
      <trkpt lat="47.32003" lon="5.98907">
        <ele>232.2</ele>
        <time>2017-12-21T13:53:51Z</time>
      </trkpt>
      <trkpt lat="47.32006" lon="5.98915">
        <ele>232.6</ele>
        <time>2017-12-21T13:53:52Z</time>
      </trkpt>
      <trkpt lat="47.32008" lon="5.98922">
        <ele>233</ele>
        <time>2017-12-21T13:53:53Z</time>
      </trkpt>
      <trkpt lat="47.32011" lon="5.98929">
        <ele>233.4</ele>
        <time>2017-12-21T13:53:54Z</time>
      </trkpt>
      <trkpt lat="47.32014" lon="5.98935">
        <ele>233.8</ele>
        <time>2017-12-21T13:53:55Z</time>
      </trkpt>
      <trkpt lat="47.32016" lon="5.98942">
        <ele>234.2</ele>
        <time>2017-12-21T13:53:56Z</time>
      </trkpt>
      <trkpt lat="47.32019" lon="5.98949">
        <ele>234.2</ele>
        <time>2017-12-21T13:53:57Z</time>
      </trkpt>
      <trkpt lat="47.32021" lon="5.98955">
        <ele>234.2</ele>
        <time>2017-12-21T13:53:58Z</time>
      </trkpt>
      <trkpt lat="47.32024" lon="5.98961">
        <ele>234.2</ele>
        <time>2017-12-21T13:53:59Z</time>
      </trkpt>
      <trkpt lat="47.32026" lon="5.98968">
        <ele>234.2</ele>
        <time>2017-12-21T13:54:00Z</time>
      </trkpt>
      <trkpt lat="47.32028" lon="5.98974">
        <ele>234.2</ele>
        <time>2017-12-21T13:54:01Z</time>
      </trkpt>
      <trkpt lat="47.32031" lon="5.9898">
        <ele>234.2</ele>
        <time>2017-12-21T13:54:02Z</time>
      </trkpt>
      <trkpt lat="47.32033" lon="5.98987">
        <ele>234.6</ele>
        <time>2017-12-21T13:54:03Z</time>
      </trkpt>
      <trkpt lat="47.32036" lon="5.98993">
        <ele>235.2</ele>
        <time>2017-12-21T13:54:04Z</time>
      </trkpt>
      <trkpt lat="47.32038" lon="5.99">
        <ele>235.6</ele>
        <time>2017-12-21T13:54:05Z</time>
      </trkpt>
      <trkpt lat="47.32041" lon="5.99006">
        <ele>236</ele>
        <time>2017-12-21T13:54:06Z</time>
      </trkpt>
      <trkpt lat="47.32043" lon="5.99012">
        <ele>236.4</ele>
        <time>2017-12-21T13:54:07Z</time>
      </trkpt>
      <trkpt lat="47.32046" lon="5.99019">
        <ele>236.4</ele>
        <time>2017-12-21T13:54:08Z</time>
      </trkpt>
      <trkpt lat="47.32049" lon="5.99026">
        <ele>236.4</ele>
        <time>2017-12-21T13:54:09Z</time>
      </trkpt>
      <trkpt lat="47.32051" lon="5.99033">
        <ele>236.4</ele>
        <time>2017-12-21T13:54:10Z</time>
      </trkpt>
      <trkpt lat="47.32054" lon="5.99041">
        <ele>236.4</ele>
        <time>2017-12-21T13:54:11Z</time>
      </trkpt>
      <trkpt lat="47.32057" lon="5.99049">
        <ele>236.4</ele>
        <time>2017-12-21T13:54:12Z</time>
      </trkpt>
      <trkpt lat="47.3206" lon="5.99056">
        <ele>236.4</ele>
        <time>2017-12-21T13:54:13Z</time>
      </trkpt>
      <trkpt lat="47.32063" lon="5.99064">
        <ele>236.4</ele>
        <time>2017-12-21T13:54:14Z</time>
      </trkpt>
      <trkpt lat="47.32066" lon="5.99073">
        <ele>236.4</ele>
        <time>2017-12-21T13:54:15Z</time>
      </trkpt>
      <trkpt lat="47.32069" lon="5.99081">
        <ele>236.4</ele>
        <time>2017-12-21T13:54:16Z</time>
      </trkpt>
      <trkpt lat="47.32073" lon="5.9909">
        <ele>236.4</ele>
        <time>2017-12-21T13:54:17Z</time>
      </trkpt>
      <trkpt lat="47.32077" lon="5.99099">
        <ele>236.4</ele>
        <time>2017-12-21T13:54:18Z</time>
      </trkpt>
      <trkpt lat="47.3208" lon="5.99109">
        <ele>236.4</ele>
        <time>2017-12-21T13:54:19Z</time>
      </trkpt>
      <trkpt lat="47.32084" lon="5.99119">
        <ele>236.4</ele>
        <time>2017-12-21T13:54:20Z</time>
      </trkpt>
      <trkpt lat="47.32088" lon="5.9913">
        <ele>236.4</ele>
        <time>2017-12-21T13:54:21Z</time>
      </trkpt>
      <trkpt lat="47.32092" lon="5.9914">
        <ele>236.4</ele>
        <time>2017-12-21T13:54:22Z</time>
      </trkpt>
      <trkpt lat="47.32097" lon="5.99151">
        <ele>236</ele>
        <time>2017-12-21T13:54:23Z</time>
      </trkpt>
      <trkpt lat="47.32101" lon="5.99162">
        <ele>235.4</ele>
        <time>2017-12-21T13:54:24Z</time>
      </trkpt>
      <trkpt lat="47.32105" lon="5.99174">
        <ele>235</ele>
        <time>2017-12-21T13:54:25Z</time>
      </trkpt>
      <trkpt lat="47.3211" lon="5.99185">
        <ele>234.4</ele>
        <time>2017-12-21T13:54:26Z</time>
      </trkpt>
      <trkpt lat="47.32115" lon="5.99197">
        <ele>234</ele>
        <time>2017-12-21T13:54:27Z</time>
      </trkpt>
      <trkpt lat="47.3212" lon="5.99209">
        <ele>233.4</ele>
        <time>2017-12-21T13:54:28Z</time>
      </trkpt>
      <trkpt lat="47.32125" lon="5.99222">
        <ele>233</ele>
        <time>2017-12-21T13:54:29Z</time>
      </trkpt>
      <trkpt lat="47.32129" lon="5.99234">
        <ele>232.4</ele>
        <time>2017-12-21T13:54:30Z</time>
      </trkpt>
      <trkpt lat="47.32134" lon="5.99247">
        <ele>232</ele>
        <time>2017-12-21T13:54:31Z</time>
      </trkpt>
      <trkpt lat="47.32139" lon="5.99259">
        <ele>231.4</ele>
        <time>2017-12-21T13:54:32Z</time>
      </trkpt>
      <trkpt lat="47.32144" lon="5.99272">
        <ele>230.4</ele>
        <time>2017-12-21T13:54:33Z</time>
      </trkpt>
      <trkpt lat="47.32149" lon="5.99285">
        <ele>229.8</ele>
        <time>2017-12-21T13:54:34Z</time>
      </trkpt>
      <trkpt lat="47.32155" lon="5.99299">
        <ele>229.2</ele>
        <time>2017-12-21T13:54:35Z</time>
      </trkpt>
      <trkpt lat="47.3216" lon="5.99312">
        <ele>228.8</ele>
        <time>2017-12-21T13:54:36Z</time>
      </trkpt>
      <trkpt lat="47.32165" lon="5.99325">
        <ele>228.4</ele>
        <time>2017-12-21T13:54:37Z</time>
      </trkpt>
      <trkpt lat="47.32171" lon="5.99337">
        <ele>228</ele>
        <time>2017-12-21T13:54:38Z</time>
      </trkpt>
      <trkpt lat="47.32176" lon="5.99349">
        <ele>227.6</ele>
        <time>2017-12-21T13:54:39Z</time>
      </trkpt>
      <trkpt lat="47.3218" lon="5.99362">
        <ele>227.2</ele>
        <time>2017-12-21T13:54:40Z</time>
      </trkpt>
      <trkpt lat="47.32185" lon="5.99374">
        <ele>227.2</ele>
        <time>2017-12-21T13:54:41Z</time>
      </trkpt>
      <trkpt lat="47.3219" lon="5.99385">
        <ele>227.2</ele>
        <time>2017-12-21T13:54:42Z</time>
      </trkpt>
      <trkpt lat="47.32194" lon="5.99396">
        <ele>227.2</ele>
        <time>2017-12-21T13:54:43Z</time>
      </trkpt>
      <trkpt lat="47.32199" lon="5.99408">
        <ele>227.2</ele>
        <time>2017-12-21T13:54:44Z</time>
      </trkpt>
      <trkpt lat="47.32203" lon="5.99419">
        <ele>227.2</ele>
        <time>2017-12-21T13:54:45Z</time>
      </trkpt>
      <trkpt lat="47.32208" lon="5.9943">
        <ele>227.2</ele>
        <time>2017-12-21T13:54:46Z</time>
      </trkpt>
      <trkpt lat="47.32212" lon="5.99441">
        <ele>227.2</ele>
        <time>2017-12-21T13:54:47Z</time>
      </trkpt>
      <trkpt lat="47.32216" lon="5.99452">
        <ele>227.2</ele>
        <time>2017-12-21T13:54:48Z</time>
      </trkpt>
      <trkpt lat="47.3222" lon="5.99463">
        <ele>227.2</ele>
        <time>2017-12-21T13:54:49Z</time>
      </trkpt>
      <trkpt lat="47.32225" lon="5.99475">
        <ele>227.2</ele>
        <time>2017-12-21T13:54:50Z</time>
      </trkpt>
      <trkpt lat="47.32229" lon="5.99486">
        <ele>227.2</ele>
        <time>2017-12-21T13:54:51Z</time>
      </trkpt>
      <trkpt lat="47.32234" lon="5.99498">
        <ele>227.2</ele>
        <time>2017-12-21T13:54:52Z</time>
      </trkpt>
      <trkpt lat="47.32238" lon="5.9951">
        <ele>227.2</ele>
        <time>2017-12-21T13:54:53Z</time>
      </trkpt>
      <trkpt lat="47.32242" lon="5.99522">
        <ele>227.2</ele>
        <time>2017-12-21T13:54:54Z</time>
      </trkpt>
      <trkpt lat="47.32247" lon="5.99533">
        <ele>227.2</ele>
        <time>2017-12-21T13:54:55Z</time>
      </trkpt>
      <trkpt lat="47.32252" lon="5.99544">
        <ele>227.2</ele>
        <time>2017-12-21T13:54:56Z</time>
      </trkpt>
      <trkpt lat="47.32256" lon="5.99557">
        <ele>227.2</ele>
        <time>2017-12-21T13:54:57Z</time>
      </trkpt>
      <trkpt lat="47.32261" lon="5.99569">
        <ele>226.4</ele>
        <time>2017-12-21T13:54:58Z</time>
      </trkpt>
      <trkpt lat="47.32265" lon="5.99581">
        <ele>226</ele>
        <time>2017-12-21T13:54:59Z</time>
      </trkpt>
      <trkpt lat="47.3227" lon="5.99593">
        <ele>225.4</ele>
        <time>2017-12-21T13:55:00Z</time>
      </trkpt>
      <trkpt lat="47.32284" lon="5.99628">
        <ele>225</ele>
        <time>2017-12-21T13:55:03Z</time>
      </trkpt>
      <trkpt lat="47.32288" lon="5.9964">
        <ele>225</ele>
        <time>2017-12-21T13:55:04Z</time>
      </trkpt>
      <trkpt lat="47.32293" lon="5.99651">
        <ele>225</ele>
        <time>2017-12-21T13:55:05Z</time>
      </trkpt>
      <trkpt lat="47.32297" lon="5.99663">
        <ele>225</ele>
        <time>2017-12-21T13:55:06Z</time>
      </trkpt>
      <trkpt lat="47.32302" lon="5.99674">
        <ele>225</ele>
        <time>2017-12-21T13:55:07Z</time>
      </trkpt>
      <trkpt lat="47.32306" lon="5.99685">
        <ele>225</ele>
        <time>2017-12-21T13:55:08Z</time>
      </trkpt>
      <trkpt lat="47.32311" lon="5.99696">
        <ele>225</ele>
        <time>2017-12-21T13:55:09Z</time>
      </trkpt>
      <trkpt lat="47.32315" lon="5.99707">
        <ele>225</ele>
        <time>2017-12-21T13:55:10Z</time>
      </trkpt>
      <trkpt lat="47.32319" lon="5.99717">
        <ele>225</ele>
        <time>2017-12-21T13:55:11Z</time>
      </trkpt>
      <trkpt lat="47.32323" lon="5.99727">
        <ele>225</ele>
        <time>2017-12-21T13:55:12Z</time>
      </trkpt>
      <trkpt lat="47.32327" lon="5.99738">
        <ele>225</ele>
        <time>2017-12-21T13:55:13Z</time>
      </trkpt>
      <trkpt lat="47.32331" lon="5.99748">
        <ele>225</ele>
        <time>2017-12-21T13:55:14Z</time>
      </trkpt>
      <trkpt lat="47.32336" lon="5.99758">
        <ele>225</ele>
        <time>2017-12-21T13:55:15Z</time>
      </trkpt>
      <trkpt lat="47.3234" lon="5.99768">
        <ele>225</ele>
        <time>2017-12-21T13:55:16Z</time>
      </trkpt>
      <trkpt lat="47.32344" lon="5.99778">
        <ele>225</ele>
        <time>2017-12-21T13:55:17Z</time>
      </trkpt>
      <trkpt lat="47.32348" lon="5.99788">
        <ele>225</ele>
        <time>2017-12-21T13:55:18Z</time>
      </trkpt>
      <trkpt lat="47.32352" lon="5.99797">
        <ele>225</ele>
        <time>2017-12-21T13:55:19Z</time>
      </trkpt>
      <trkpt lat="47.32355" lon="5.99806">
        <ele>225</ele>
        <time>2017-12-21T13:55:20Z</time>
      </trkpt>
      <trkpt lat="47.32359" lon="5.99815">
        <ele>225</ele>
        <time>2017-12-21T13:55:21Z</time>
      </trkpt>
      <trkpt lat="47.32362" lon="5.99823">
        <ele>225</ele>
        <time>2017-12-21T13:55:22Z</time>
      </trkpt>
      <trkpt lat="47.32366" lon="5.99831">
        <ele>225</ele>
        <time>2017-12-21T13:55:23Z</time>
      </trkpt>
      <trkpt lat="47.32369" lon="5.9984">
        <ele>225</ele>
        <time>2017-12-21T13:55:24Z</time>
      </trkpt>
      <trkpt lat="47.32372" lon="5.99846">
        <ele>225.4</ele>
        <time>2017-12-21T13:55:25Z</time>
      </trkpt>
      <trkpt lat="47.32375" lon="5.99853">
        <ele>226</ele>
        <time>2017-12-21T13:55:26Z</time>
      </trkpt>
      <trkpt lat="47.32378" lon="5.9986">
        <ele>226.4</ele>
        <time>2017-12-21T13:55:27Z</time>
      </trkpt>
      <trkpt lat="47.3238" lon="5.99866">
        <ele>226.8</ele>
        <time>2017-12-21T13:55:28Z</time>
      </trkpt>
      <trkpt lat="47.32383" lon="5.99873">
        <ele>227.2</ele>
        <time>2017-12-21T13:55:29Z</time>
      </trkpt>
      <trkpt lat="47.32385" lon="5.99879">
        <ele>227.2</ele>
        <time>2017-12-21T13:55:30Z</time>
      </trkpt>
      <trkpt lat="47.32388" lon="5.99886">
        <ele>227.2</ele>
        <time>2017-12-21T13:55:31Z</time>
      </trkpt>
      <trkpt lat="47.3239" lon="5.99892">
        <ele>227.2</ele>
        <time>2017-12-21T13:55:32Z</time>
      </trkpt>
      <trkpt lat="47.32392" lon="5.99898">
        <ele>227.6</ele>
        <time>2017-12-21T13:55:33Z</time>
      </trkpt>
      <trkpt lat="47.32394" lon="5.99904">
        <ele>228</ele>
        <time>2017-12-21T13:55:34Z</time>
      </trkpt>
      <trkpt lat="47.32396" lon="5.9991">
        <ele>228.4</ele>
        <time>2017-12-21T13:55:35Z</time>
      </trkpt>
      <trkpt lat="47.32399" lon="5.99916">
        <ele>229</ele>
        <time>2017-12-21T13:55:36Z</time>
      </trkpt>
      <trkpt lat="47.32402" lon="5.99923">
        <ele>229.4</ele>
        <time>2017-12-21T13:55:37Z</time>
      </trkpt>
      <trkpt lat="47.32404" lon="5.99929">
        <ele>229.4</ele>
        <time>2017-12-21T13:55:38Z</time>
      </trkpt>
      <trkpt lat="47.32407" lon="5.99936">
        <ele>229.4</ele>
        <time>2017-12-21T13:55:39Z</time>
      </trkpt>
      <trkpt lat="47.3241" lon="5.99943">
        <ele>229.4</ele>
        <time>2017-12-21T13:55:40Z</time>
      </trkpt>
      <trkpt lat="47.32413" lon="5.99949">
        <ele>229.4</ele>
        <time>2017-12-21T13:55:41Z</time>
      </trkpt>
      <trkpt lat="47.32415" lon="5.99956">
        <ele>229.8</ele>
        <time>2017-12-21T13:55:42Z</time>
      </trkpt>
      <trkpt lat="47.32418" lon="5.99963">
        <ele>230.2</ele>
        <time>2017-12-21T13:55:43Z</time>
      </trkpt>
      <trkpt lat="47.32421" lon="5.99969">
        <ele>230.6</ele>
        <time>2017-12-21T13:55:44Z</time>
      </trkpt>
      <trkpt lat="47.32424" lon="5.99976">
        <ele>231</ele>
        <time>2017-12-21T13:55:45Z</time>
      </trkpt>
      <trkpt lat="47.32426" lon="5.99983">
        <ele>231.4</ele>
        <time>2017-12-21T13:55:46Z</time>
      </trkpt>
      <trkpt lat="47.32429" lon="5.9999">
        <ele>231.4</ele>
        <time>2017-12-21T13:55:47Z</time>
      </trkpt>
      <trkpt lat="47.32431" lon="5.99997">
        <ele>231.4</ele>
        <time>2017-12-21T13:55:48Z</time>
      </trkpt>
      <trkpt lat="47.32433" lon="6.00004">
        <ele>231.8</ele>
        <time>2017-12-21T13:55:49Z</time>
      </trkpt>
      <trkpt lat="47.32436" lon="6.00011">
        <ele>232.4</ele>
        <time>2017-12-21T13:55:50Z</time>
      </trkpt>
      <trkpt lat="47.32438" lon="6.00017">
        <ele>232.8</ele>
        <time>2017-12-21T13:55:51Z</time>
      </trkpt>
      <trkpt lat="47.32441" lon="6.00023">
        <ele>233.2</ele>
        <time>2017-12-21T13:55:52Z</time>
      </trkpt>
      <trkpt lat="47.32443" lon="6.00029">
        <ele>233.6</ele>
        <time>2017-12-21T13:55:53Z</time>
      </trkpt>
      <trkpt lat="47.32446" lon="6.00035">
        <ele>233.6</ele>
        <time>2017-12-21T13:55:54Z</time>
      </trkpt>
      <trkpt lat="47.32448" lon="6.00041">
        <ele>233.6</ele>
        <time>2017-12-21T13:55:55Z</time>
      </trkpt>
      <trkpt lat="47.32451" lon="6.00047">
        <ele>233.6</ele>
        <time>2017-12-21T13:55:56Z</time>
      </trkpt>
      <trkpt lat="47.32453" lon="6.00053">
        <ele>233.6</ele>
        <time>2017-12-21T13:55:57Z</time>
      </trkpt>
      <trkpt lat="47.32456" lon="6.00059">
        <ele>233.6</ele>
        <time>2017-12-21T13:55:58Z</time>
      </trkpt>
      <trkpt lat="47.32459" lon="6.00065">
        <ele>233.6</ele>
        <time>2017-12-21T13:55:59Z</time>
      </trkpt>
      <trkpt lat="47.32461" lon="6.00074">
        <ele>233.6</ele>
        <time>2017-12-21T13:56:00Z</time>
      </trkpt>
      <trkpt lat="47.32464" lon="6.00081">
        <ele>233.6</ele>
        <time>2017-12-21T13:56:01Z</time>
      </trkpt>
      <trkpt lat="47.32466" lon="6.00087">
        <ele>233.6</ele>
        <time>2017-12-21T13:56:02Z</time>
      </trkpt>
      <trkpt lat="47.32469" lon="6.00094">
        <ele>233.6</ele>
        <time>2017-12-21T13:56:03Z</time>
      </trkpt>
      <trkpt lat="47.32472" lon="6.00101">
        <ele>234</ele>
        <time>2017-12-21T13:56:04Z</time>
      </trkpt>
      <trkpt lat="47.32474" lon="6.00108">
        <ele>234.4</ele>
        <time>2017-12-21T13:56:05Z</time>
      </trkpt>
      <trkpt lat="47.32477" lon="6.00115">
        <ele>234.8</ele>
        <time>2017-12-21T13:56:06Z</time>
      </trkpt>
      <trkpt lat="47.32479" lon="6.00122">
        <ele>235.2</ele>
        <time>2017-12-21T13:56:07Z</time>
      </trkpt>
      <trkpt lat="47.32482" lon="6.00129">
        <ele>235.8</ele>
        <time>2017-12-21T13:56:08Z</time>
      </trkpt>
      <trkpt lat="47.32484" lon="6.00135">
        <ele>235.8</ele>
        <time>2017-12-21T13:56:09Z</time>
      </trkpt>
      <trkpt lat="47.32487" lon="6.00142">
        <ele>235.8</ele>
        <time>2017-12-21T13:56:10Z</time>
      </trkpt>
      <trkpt lat="47.32489" lon="6.00149">
        <ele>235.8</ele>
        <time>2017-12-21T13:56:11Z</time>
      </trkpt>
      <trkpt lat="47.32492" lon="6.00156">
        <ele>235.8</ele>
        <time>2017-12-21T13:56:12Z</time>
      </trkpt>
      <trkpt lat="47.32494" lon="6.00163">
        <ele>235.8</ele>
        <time>2017-12-21T13:56:13Z</time>
      </trkpt>
      <trkpt lat="47.32497" lon="6.00169">
        <ele>235.8</ele>
        <time>2017-12-21T13:56:14Z</time>
      </trkpt>
      <trkpt lat="47.325" lon="6.00176">
        <ele>235.8</ele>
        <time>2017-12-21T13:56:15Z</time>
      </trkpt>
      <trkpt lat="47.32502" lon="6.00184">
        <ele>235.8</ele>
        <time>2017-12-21T13:56:16Z</time>
      </trkpt>
      <trkpt lat="47.32505" lon="6.00191">
        <ele>235.8</ele>
        <time>2017-12-21T13:56:17Z</time>
      </trkpt>
      <trkpt lat="47.32508" lon="6.00198">
        <ele>235.8</ele>
        <time>2017-12-21T13:56:18Z</time>
      </trkpt>
      <trkpt lat="47.3251" lon="6.00206">
        <ele>235.8</ele>
        <time>2017-12-21T13:56:19Z</time>
      </trkpt>
      <trkpt lat="47.32513" lon="6.00213">
        <ele>235.8</ele>
        <time>2017-12-21T13:56:20Z</time>
      </trkpt>
      <trkpt lat="47.32516" lon="6.0022">
        <ele>235.8</ele>
        <time>2017-12-21T13:56:21Z</time>
      </trkpt>
      <trkpt lat="47.3252" lon="6.00228">
        <ele>235.8</ele>
        <time>2017-12-21T13:56:22Z</time>
      </trkpt>
      <trkpt lat="47.32523" lon="6.00235">
        <ele>235.8</ele>
        <time>2017-12-21T13:56:23Z</time>
      </trkpt>
      <trkpt lat="47.32526" lon="6.00243">
        <ele>235.8</ele>
        <time>2017-12-21T13:56:24Z</time>
      </trkpt>
      <trkpt lat="47.32529" lon="6.0025">
        <ele>235.8</ele>
        <time>2017-12-21T13:56:25Z</time>
      </trkpt>
      <trkpt lat="47.32532" lon="6.00258">
        <ele>235.8</ele>
        <time>2017-12-21T13:56:26Z</time>
      </trkpt>
      <trkpt lat="47.32535" lon="6.00265">
        <ele>235.8</ele>
        <time>2017-12-21T13:56:27Z</time>
      </trkpt>
      <trkpt lat="47.32538" lon="6.00273">
        <ele>235.8</ele>
        <time>2017-12-21T13:56:28Z</time>
      </trkpt>
      <trkpt lat="47.32541" lon="6.00281">
        <ele>235.8</ele>
        <time>2017-12-21T13:56:29Z</time>
      </trkpt>
      <trkpt lat="47.32544" lon="6.00289">
        <ele>235.8</ele>
        <time>2017-12-21T13:56:30Z</time>
      </trkpt>
      <trkpt lat="47.32547" lon="6.00297">
        <ele>235.8</ele>
        <time>2017-12-21T13:56:31Z</time>
      </trkpt>
      <trkpt lat="47.3255" lon="6.00304">
        <ele>235.8</ele>
        <time>2017-12-21T13:56:32Z</time>
      </trkpt>
      <trkpt lat="47.32553" lon="6.00311">
        <ele>235.8</ele>
        <time>2017-12-21T13:56:33Z</time>
      </trkpt>
      <trkpt lat="47.32556" lon="6.00319">
        <ele>235.8</ele>
        <time>2017-12-21T13:56:34Z</time>
      </trkpt>
      <trkpt lat="47.32558" lon="6.00326">
        <ele>235.8</ele>
        <time>2017-12-21T13:56:35Z</time>
      </trkpt>
      <trkpt lat="47.32561" lon="6.00333">
        <ele>235.8</ele>
        <time>2017-12-21T13:56:36Z</time>
      </trkpt>
      <trkpt lat="47.32564" lon="6.00341">
        <ele>235.8</ele>
        <time>2017-12-21T13:56:37Z</time>
      </trkpt>
      <trkpt lat="47.32567" lon="6.00348">
        <ele>235.8</ele>
        <time>2017-12-21T13:56:38Z</time>
      </trkpt>
      <trkpt lat="47.3257" lon="6.00355">
        <ele>235.8</ele>
        <time>2017-12-21T13:56:39Z</time>
      </trkpt>
      <trkpt lat="47.32572" lon="6.00363">
        <ele>235.8</ele>
        <time>2017-12-21T13:56:40Z</time>
      </trkpt>
      <trkpt lat="47.32575" lon="6.0037">
        <ele>235.8</ele>
        <time>2017-12-21T13:56:41Z</time>
      </trkpt>
      <trkpt lat="47.32578" lon="6.00378">
        <ele>235.8</ele>
        <time>2017-12-21T13:56:42Z</time>
      </trkpt>
      <trkpt lat="47.32581" lon="6.00385">
        <ele>235.8</ele>
        <time>2017-12-21T13:56:43Z</time>
      </trkpt>
      <trkpt lat="47.32584" lon="6.00393">
        <ele>235.8</ele>
        <time>2017-12-21T13:56:44Z</time>
      </trkpt>
      <trkpt lat="47.32587" lon="6.004">
        <ele>235.8</ele>
        <time>2017-12-21T13:56:45Z</time>
      </trkpt>
      <trkpt lat="47.3259" lon="6.00408">
        <ele>235.8</ele>
        <time>2017-12-21T13:56:46Z</time>
      </trkpt>
      <trkpt lat="47.32593" lon="6.00417">
        <ele>235.8</ele>
        <time>2017-12-21T13:56:47Z</time>
      </trkpt>
      <trkpt lat="47.32596" lon="6.00425">
        <ele>235.8</ele>
        <time>2017-12-21T13:56:48Z</time>
      </trkpt>
      <trkpt lat="47.32599" lon="6.00433">
        <ele>236.2</ele>
        <time>2017-12-21T13:56:49Z</time>
      </trkpt>
      <trkpt lat="47.32603" lon="6.00441">
        <ele>236.6</ele>
        <time>2017-12-21T13:56:50Z</time>
      </trkpt>
      <trkpt lat="47.32606" lon="6.00449">
        <ele>237</ele>
        <time>2017-12-21T13:56:51Z</time>
      </trkpt>
      <trkpt lat="47.3261" lon="6.00458">
        <ele>237.4</ele>
        <time>2017-12-21T13:56:52Z</time>
      </trkpt>
      <trkpt lat="47.32613" lon="6.00466">
        <ele>237.8</ele>
        <time>2017-12-21T13:56:53Z</time>
      </trkpt>
      <trkpt lat="47.32617" lon="6.00474">
        <ele>237.8</ele>
        <time>2017-12-21T13:56:54Z</time>
      </trkpt>
      <trkpt lat="47.3262" lon="6.00483">
        <ele>237.8</ele>
        <time>2017-12-21T13:56:55Z</time>
      </trkpt>
      <trkpt lat="47.32624" lon="6.00491">
        <ele>237.8</ele>
        <time>2017-12-21T13:56:56Z</time>
      </trkpt>
      <trkpt lat="47.32628" lon="6.005">
        <ele>237.8</ele>
        <time>2017-12-21T13:56:57Z</time>
      </trkpt>
      <trkpt lat="47.32632" lon="6.00509">
        <ele>237.8</ele>
        <time>2017-12-21T13:56:58Z</time>
      </trkpt>
      <trkpt lat="47.32637" lon="6.00519">
        <ele>237.8</ele>
        <time>2017-12-21T13:56:59Z</time>
      </trkpt>
      <trkpt lat="47.32641" lon="6.00528">
        <ele>237.8</ele>
        <time>2017-12-21T13:57:00Z</time>
      </trkpt>
      <trkpt lat="47.32645" lon="6.00538">
        <ele>237.8</ele>
        <time>2017-12-21T13:57:01Z</time>
      </trkpt>
      <trkpt lat="47.3265" lon="6.00547">
        <ele>237.8</ele>
        <time>2017-12-21T13:57:02Z</time>
      </trkpt>
      <trkpt lat="47.32655" lon="6.00556">
        <ele>237.8</ele>
        <time>2017-12-21T13:57:03Z</time>
      </trkpt>
      <trkpt lat="47.3266" lon="6.00565">
        <ele>237.8</ele>
        <time>2017-12-21T13:57:04Z</time>
      </trkpt>
      <trkpt lat="47.32666" lon="6.00573">
        <ele>237.8</ele>
        <time>2017-12-21T13:57:05Z</time>
      </trkpt>
      <trkpt lat="47.32671" lon="6.00581">
        <ele>237.2</ele>
        <time>2017-12-21T13:57:06Z</time>
      </trkpt>
      <trkpt lat="47.32677" lon="6.0059">
        <ele>236.8</ele>
        <time>2017-12-21T13:57:07Z</time>
      </trkpt>
      <trkpt lat="47.32682" lon="6.00597">
        <ele>236.4</ele>
        <time>2017-12-21T13:57:08Z</time>
      </trkpt>
      <trkpt lat="47.32686" lon="6.00603">
        <ele>236</ele>
        <time>2017-12-21T13:57:09Z</time>
      </trkpt>
      <trkpt lat="47.32691" lon="6.0061">
        <ele>235.6</ele>
        <time>2017-12-21T13:57:10Z</time>
      </trkpt>
      <trkpt lat="47.32695" lon="6.00616">
        <ele>235.6</ele>
        <time>2017-12-21T13:57:11Z</time>
      </trkpt>
      <trkpt lat="47.32699" lon="6.00622">
        <ele>235.6</ele>
        <time>2017-12-21T13:57:12Z</time>
      </trkpt>
      <trkpt lat="47.32703" lon="6.00627">
        <ele>235.6</ele>
        <time>2017-12-21T13:57:13Z</time>
      </trkpt>
      <trkpt lat="47.32707" lon="6.00633">
        <ele>235.6</ele>
        <time>2017-12-21T13:57:14Z</time>
      </trkpt>
      <trkpt lat="47.32711" lon="6.00638">
        <ele>235.6</ele>
        <time>2017-12-21T13:57:15Z</time>
      </trkpt>
      <trkpt lat="47.32714" lon="6.00643">
        <ele>235.6</ele>
        <time>2017-12-21T13:57:16Z</time>
      </trkpt>
      <trkpt lat="47.32718" lon="6.00648">
        <ele>235.6</ele>
        <time>2017-12-21T13:57:17Z</time>
      </trkpt>
      <trkpt lat="47.32721" lon="6.00654">
        <ele>235.6</ele>
        <time>2017-12-21T13:57:18Z</time>
      </trkpt>
      <trkpt lat="47.32724" lon="6.00659">
        <ele>235.6</ele>
        <time>2017-12-21T13:57:19Z</time>
      </trkpt>
      <trkpt lat="47.32727" lon="6.00664">
        <ele>235.6</ele>
        <time>2017-12-21T13:57:20Z</time>
      </trkpt>
      <trkpt lat="47.3273" lon="6.00669">
        <ele>235.6</ele>
        <time>2017-12-21T13:57:21Z</time>
      </trkpt>
      <trkpt lat="47.32733" lon="6.00675">
        <ele>236</ele>
        <time>2017-12-21T13:57:22Z</time>
      </trkpt>
      <trkpt lat="47.32736" lon="6.0068">
        <ele>236.6</ele>
        <time>2017-12-21T13:57:23Z</time>
      </trkpt>
      <trkpt lat="47.32739" lon="6.00685">
        <ele>237</ele>
        <time>2017-12-21T13:57:24Z</time>
      </trkpt>
      <trkpt lat="47.32742" lon="6.0069">
        <ele>237.4</ele>
        <time>2017-12-21T13:57:25Z</time>
      </trkpt>
      <trkpt lat="47.32745" lon="6.00695">
        <ele>237.8</ele>
        <time>2017-12-21T13:57:26Z</time>
      </trkpt>
      <trkpt lat="47.32747" lon="6.007">
        <ele>237.8</ele>
        <time>2017-12-21T13:57:27Z</time>
      </trkpt>
      <trkpt lat="47.3275" lon="6.00706">
        <ele>237.8</ele>
        <time>2017-12-21T13:57:28Z</time>
      </trkpt>
      <trkpt lat="47.32753" lon="6.00712">
        <ele>237.8</ele>
        <time>2017-12-21T13:57:29Z</time>
      </trkpt>
      <trkpt lat="47.32757" lon="6.00717">
        <ele>237.8</ele>
        <time>2017-12-21T13:57:30Z</time>
      </trkpt>
      <trkpt lat="47.3276" lon="6.00723">
        <ele>237.8</ele>
        <time>2017-12-21T13:57:31Z</time>
      </trkpt>
      <trkpt lat="47.32764" lon="6.00729">
        <ele>237.8</ele>
        <time>2017-12-21T13:57:32Z</time>
      </trkpt>
      <trkpt lat="47.32767" lon="6.00735">
        <ele>237.8</ele>
        <time>2017-12-21T13:57:33Z</time>
      </trkpt>
      <trkpt lat="47.32771" lon="6.00741">
        <ele>237.8</ele>
        <time>2017-12-21T13:57:34Z</time>
      </trkpt>
      <trkpt lat="47.32775" lon="6.00747">
        <ele>237.8</ele>
        <time>2017-12-21T13:57:35Z</time>
      </trkpt>
      <trkpt lat="47.32778" lon="6.00754">
        <ele>237.8</ele>
        <time>2017-12-21T13:57:36Z</time>
      </trkpt>
      <trkpt lat="47.32782" lon="6.00761">
        <ele>237.8</ele>
        <time>2017-12-21T13:57:37Z</time>
      </trkpt>
      <trkpt lat="47.32786" lon="6.00769">
        <ele>237.8</ele>
        <time>2017-12-21T13:57:38Z</time>
      </trkpt>
      <trkpt lat="47.3279" lon="6.00776">
        <ele>237.8</ele>
        <time>2017-12-21T13:57:39Z</time>
      </trkpt>
      <trkpt lat="47.32793" lon="6.00785">
        <ele>237.8</ele>
        <time>2017-12-21T13:57:40Z</time>
      </trkpt>
      <trkpt lat="47.32796" lon="6.00793">
        <ele>237.8</ele>
        <time>2017-12-21T13:57:41Z</time>
      </trkpt>
      <trkpt lat="47.32798" lon="6.00802">
        <ele>237.4</ele>
        <time>2017-12-21T13:57:42Z</time>
      </trkpt>
      <trkpt lat="47.328" lon="6.00812">
        <ele>237</ele>
        <time>2017-12-21T13:57:43Z</time>
      </trkpt>
      <trkpt lat="47.32801" lon="6.00821">
        <ele>236.6</ele>
        <time>2017-12-21T13:57:44Z</time>
      </trkpt>
      <trkpt lat="47.328" lon="6.00828">
        <ele>236</ele>
        <time>2017-12-21T13:57:45Z</time>
      </trkpt>
      <trkpt lat="47.328" lon="6.00835">
        <ele>235.6</ele>
        <time>2017-12-21T13:57:46Z</time>
      </trkpt>
      <trkpt lat="47.32801" lon="6.00842">
        <ele>235.6</ele>
        <time>2017-12-21T13:57:47Z</time>
      </trkpt>
      <trkpt lat="47.32803" lon="6.00848">
        <ele>235.6</ele>
        <time>2017-12-21T13:57:48Z</time>
      </trkpt>
      <trkpt lat="47.32807" lon="6.00854">
        <ele>235.6</ele>
        <time>2017-12-21T13:57:49Z</time>
      </trkpt>
      <trkpt lat="47.32811" lon="6.00859">
        <ele>235.6</ele>
        <time>2017-12-21T13:57:50Z</time>
      </trkpt>
      <trkpt lat="47.32815" lon="6.00866">
        <ele>235.6</ele>
        <time>2017-12-21T13:57:51Z</time>
      </trkpt>
      <trkpt lat="47.32818" lon="6.00873">
        <ele>235.2</ele>
        <time>2017-12-21T13:57:52Z</time>
      </trkpt>
      <trkpt lat="47.32822" lon="6.00881">
        <ele>234.8</ele>
        <time>2017-12-21T13:57:53Z</time>
      </trkpt>
      <trkpt lat="47.32825" lon="6.0089">
        <ele>234.4</ele>
        <time>2017-12-21T13:57:54Z</time>
      </trkpt>
      <trkpt lat="47.32828" lon="6.00898">
        <ele>233.8</ele>
        <time>2017-12-21T13:57:55Z</time>
      </trkpt>
      <trkpt lat="47.32831" lon="6.00907">
        <ele>233.4</ele>
        <time>2017-12-21T13:57:56Z</time>
      </trkpt>
      <trkpt lat="47.32834" lon="6.00916">
        <ele>233.4</ele>
        <time>2017-12-21T13:57:57Z</time>
      </trkpt>
      <trkpt lat="47.32838" lon="6.00924">
        <ele>233.4</ele>
        <time>2017-12-21T13:57:58Z</time>
      </trkpt>
      <trkpt lat="47.32843" lon="6.00932">
        <ele>233.4</ele>
        <time>2017-12-21T13:57:59Z</time>
      </trkpt>
      <trkpt lat="47.32848" lon="6.00939">
        <ele>233.4</ele>
        <time>2017-12-21T13:58:00Z</time>
      </trkpt>
      <trkpt lat="47.32854" lon="6.00945">
        <ele>233.4</ele>
        <time>2017-12-21T13:58:01Z</time>
      </trkpt>
      <trkpt lat="47.3286" lon="6.00951">
        <ele>233.4</ele>
        <time>2017-12-21T13:58:02Z</time>
      </trkpt>
      <trkpt lat="47.32866" lon="6.00956">
        <ele>233</ele>
        <time>2017-12-21T13:58:03Z</time>
      </trkpt>
      <trkpt lat="47.32873" lon="6.00962">
        <ele>232.6</ele>
        <time>2017-12-21T13:58:04Z</time>
      </trkpt>
      <trkpt lat="47.32879" lon="6.00967">
        <ele>232.2</ele>
        <time>2017-12-21T13:58:05Z</time>
      </trkpt>
      <trkpt lat="47.32887" lon="6.00973">
        <ele>231.8</ele>
        <time>2017-12-21T13:58:06Z</time>
      </trkpt>
      <trkpt lat="47.32894" lon="6.00979">
        <ele>231.2</ele>
        <time>2017-12-21T13:58:07Z</time>
      </trkpt>
      <trkpt lat="47.329" lon="6.00985">
        <ele>231.2</ele>
        <time>2017-12-21T13:58:08Z</time>
      </trkpt>
      <trkpt lat="47.32907" lon="6.00991">
        <ele>231.2</ele>
        <time>2017-12-21T13:58:09Z</time>
      </trkpt>
      <trkpt lat="47.32914" lon="6.00996">
        <ele>231.2</ele>
        <time>2017-12-21T13:58:10Z</time>
      </trkpt>
      <trkpt lat="47.32921" lon="6.01002">
        <ele>231.2</ele>
        <time>2017-12-21T13:58:11Z</time>
      </trkpt>
      <trkpt lat="47.32928" lon="6.01008">
        <ele>231.2</ele>
        <time>2017-12-21T13:58:12Z</time>
      </trkpt>
      <trkpt lat="47.32934" lon="6.01014">
        <ele>231.2</ele>
        <time>2017-12-21T13:58:13Z</time>
      </trkpt>
      <trkpt lat="47.32941" lon="6.0102">
        <ele>230.8</ele>
        <time>2017-12-21T13:58:14Z</time>
      </trkpt>
      <trkpt lat="47.32948" lon="6.01026">
        <ele>230</ele>
        <time>2017-12-21T13:58:15Z</time>
      </trkpt>
      <trkpt lat="47.32954" lon="6.01032">
        <ele>229.6</ele>
        <time>2017-12-21T13:58:16Z</time>
      </trkpt>
      <trkpt lat="47.32961" lon="6.01037">
        <ele>229.2</ele>
        <time>2017-12-21T13:58:17Z</time>
      </trkpt>
      <trkpt lat="47.32967" lon="6.01043">
        <ele>229.2</ele>
        <time>2017-12-21T13:58:18Z</time>
      </trkpt>
      <trkpt lat="47.32974" lon="6.01049">
        <ele>229.2</ele>
        <time>2017-12-21T13:58:19Z</time>
      </trkpt>
      <trkpt lat="47.32981" lon="6.01055">
        <ele>229.2</ele>
        <time>2017-12-21T13:58:20Z</time>
      </trkpt>
      <trkpt lat="47.32988" lon="6.01061">
        <ele>229.2</ele>
        <time>2017-12-21T13:58:21Z</time>
      </trkpt>
      <trkpt lat="47.32994" lon="6.01067">
        <ele>229.2</ele>
        <time>2017-12-21T13:58:22Z</time>
      </trkpt>
      <trkpt lat="47.33001" lon="6.01073">
        <ele>229.2</ele>
        <time>2017-12-21T13:58:23Z</time>
      </trkpt>
      <trkpt lat="47.33008" lon="6.01079">
        <ele>229.2</ele>
        <time>2017-12-21T13:58:24Z</time>
      </trkpt>
      <trkpt lat="47.33014" lon="6.01085">
        <ele>228.8</ele>
        <time>2017-12-21T13:58:25Z</time>
      </trkpt>
      <trkpt lat="47.33021" lon="6.01091">
        <ele>228.4</ele>
        <time>2017-12-21T13:58:26Z</time>
      </trkpt>
      <trkpt lat="47.33027" lon="6.01097">
        <ele>228</ele>
        <time>2017-12-21T13:58:27Z</time>
      </trkpt>
      <trkpt lat="47.33034" lon="6.01104">
        <ele>227.6</ele>
        <time>2017-12-21T13:58:28Z</time>
      </trkpt>
      <trkpt lat="47.33041" lon="6.0111">
        <ele>227.2</ele>
        <time>2017-12-21T13:58:29Z</time>
      </trkpt>
      <trkpt lat="47.33048" lon="6.01116">
        <ele>227.2</ele>
        <time>2017-12-21T13:58:30Z</time>
      </trkpt>
      <trkpt lat="47.33055" lon="6.01122">
        <ele>227.2</ele>
        <time>2017-12-21T13:58:31Z</time>
      </trkpt>
      <trkpt lat="47.33062" lon="6.01128">
        <ele>227.2</ele>
        <time>2017-12-21T13:58:32Z</time>
      </trkpt>
      <trkpt lat="47.33069" lon="6.01134">
        <ele>227.2</ele>
        <time>2017-12-21T13:58:33Z</time>
      </trkpt>
      <trkpt lat="47.33076" lon="6.0114">
        <ele>227.2</ele>
        <time>2017-12-21T13:58:34Z</time>
      </trkpt>
      <trkpt lat="47.33083" lon="6.01146">
        <ele>226.8</ele>
        <time>2017-12-21T13:58:35Z</time>
      </trkpt>
      <trkpt lat="47.3309" lon="6.01153">
        <ele>226.2</ele>
        <time>2017-12-21T13:58:36Z</time>
      </trkpt>
      <trkpt lat="47.33097" lon="6.01159">
        <ele>225.8</ele>
        <time>2017-12-21T13:58:37Z</time>
      </trkpt>
      <trkpt lat="47.33105" lon="6.01166">
        <ele>225.4</ele>
        <time>2017-12-21T13:58:38Z</time>
      </trkpt>
      <trkpt lat="47.33112" lon="6.01172">
        <ele>225</ele>
        <time>2017-12-21T13:58:39Z</time>
      </trkpt>
      <trkpt lat="47.33119" lon="6.01179">
        <ele>225</ele>
        <time>2017-12-21T13:58:40Z</time>
      </trkpt>
      <trkpt lat="47.33127" lon="6.01186">
        <ele>224.6</ele>
        <time>2017-12-21T13:58:41Z</time>
      </trkpt>
      <trkpt lat="47.33134" lon="6.01194">
        <ele>224</ele>
        <time>2017-12-21T13:58:42Z</time>
      </trkpt>
      <trkpt lat="47.33141" lon="6.01202">
        <ele>223.6</ele>
        <time>2017-12-21T13:58:43Z</time>
      </trkpt>
      <trkpt lat="47.33149" lon="6.0121">
        <ele>223.2</ele>
        <time>2017-12-21T13:58:44Z</time>
      </trkpt>
      <trkpt lat="47.33156" lon="6.01217">
        <ele>222.8</ele>
        <time>2017-12-21T13:58:45Z</time>
      </trkpt>
      <trkpt lat="47.33164" lon="6.01225">
        <ele>222.8</ele>
        <time>2017-12-21T13:58:46Z</time>
      </trkpt>
      <trkpt lat="47.33171" lon="6.01232">
        <ele>222.8</ele>
        <time>2017-12-21T13:58:47Z</time>
      </trkpt>
      <trkpt lat="47.33179" lon="6.01239">
        <ele>222.4</ele>
        <time>2017-12-21T13:58:48Z</time>
      </trkpt>
      <trkpt lat="47.33187" lon="6.01246">
        <ele>222</ele>
        <time>2017-12-21T13:58:49Z</time>
      </trkpt>
      <trkpt lat="47.33195" lon="6.01253">
        <ele>221.6</ele>
        <time>2017-12-21T13:58:50Z</time>
      </trkpt>
      <trkpt lat="47.33203" lon="6.0126">
        <ele>221.2</ele>
        <time>2017-12-21T13:58:51Z</time>
      </trkpt>
      <trkpt lat="47.3321" lon="6.01267">
        <ele>220.8</ele>
        <time>2017-12-21T13:58:52Z</time>
      </trkpt>
      <trkpt lat="47.33218" lon="6.01274">
        <ele>220.8</ele>
        <time>2017-12-21T13:58:53Z</time>
      </trkpt>
      <trkpt lat="47.33225" lon="6.0128">
        <ele>220.8</ele>
        <time>2017-12-21T13:58:54Z</time>
      </trkpt>
      <trkpt lat="47.33233" lon="6.01287">
        <ele>220.8</ele>
        <time>2017-12-21T13:58:55Z</time>
      </trkpt>
      <trkpt lat="47.3324" lon="6.01293">
        <ele>220.8</ele>
        <time>2017-12-21T13:58:56Z</time>
      </trkpt>
      <trkpt lat="47.33247" lon="6.01299">
        <ele>220.8</ele>
        <time>2017-12-21T13:58:57Z</time>
      </trkpt>
      <trkpt lat="47.33254" lon="6.01305">
        <ele>220.8</ele>
        <time>2017-12-21T13:58:58Z</time>
      </trkpt>
      <trkpt lat="47.33261" lon="6.01311">
        <ele>220.8</ele>
        <time>2017-12-21T13:58:59Z</time>
      </trkpt>
      <trkpt lat="47.33268" lon="6.01317">
        <ele>220.8</ele>
        <time>2017-12-21T13:59:00Z</time>
      </trkpt>
      <trkpt lat="47.33274" lon="6.01323">
        <ele>220.8</ele>
        <time>2017-12-21T13:59:01Z</time>
      </trkpt>
      <trkpt lat="47.33281" lon="6.01328">
        <ele>220.8</ele>
        <time>2017-12-21T13:59:02Z</time>
      </trkpt>
      <trkpt lat="47.33287" lon="6.01333">
        <ele>220.8</ele>
        <time>2017-12-21T13:59:03Z</time>
      </trkpt>
      <trkpt lat="47.33294" lon="6.01338">
        <ele>220.8</ele>
        <time>2017-12-21T13:59:04Z</time>
      </trkpt>
      <trkpt lat="47.33301" lon="6.01343">
        <ele>220.2</ele>
        <time>2017-12-21T13:59:05Z</time>
      </trkpt>
      <trkpt lat="47.33307" lon="6.01347">
        <ele>219.8</ele>
        <time>2017-12-21T13:59:06Z</time>
      </trkpt>
      <trkpt lat="47.33314" lon="6.01353">
        <ele>219.4</ele>
        <time>2017-12-21T13:59:07Z</time>
      </trkpt>
      <trkpt lat="47.33321" lon="6.01358">
        <ele>219</ele>
        <time>2017-12-21T13:59:08Z</time>
      </trkpt>
      <trkpt lat="47.33327" lon="6.01363">
        <ele>218.6</ele>
        <time>2017-12-21T13:59:09Z</time>
      </trkpt>
      <trkpt lat="47.33334" lon="6.01368">
        <ele>218.6</ele>
        <time>2017-12-21T13:59:10Z</time>
      </trkpt>
      <trkpt lat="47.3334" lon="6.01373">
        <ele>218.6</ele>
        <time>2017-12-21T13:59:11Z</time>
      </trkpt>
      <trkpt lat="47.33346" lon="6.01379">
        <ele>218.6</ele>
        <time>2017-12-21T13:59:12Z</time>
      </trkpt>
      <trkpt lat="47.33353" lon="6.01384">
        <ele>218.6</ele>
        <time>2017-12-21T13:59:13Z</time>
      </trkpt>
      <trkpt lat="47.33359" lon="6.0139">
        <ele>218.6</ele>
        <time>2017-12-21T13:59:14Z</time>
      </trkpt>
      <trkpt lat="47.33366" lon="6.01396">
        <ele>218.6</ele>
        <time>2017-12-21T13:59:15Z</time>
      </trkpt>
      <trkpt lat="47.33372" lon="6.01401">
        <ele>218.6</ele>
        <time>2017-12-21T13:59:16Z</time>
      </trkpt>
      <trkpt lat="47.33378" lon="6.01407">
        <ele>218.6</ele>
        <time>2017-12-21T13:59:17Z</time>
      </trkpt>
      <trkpt lat="47.33383" lon="6.01412">
        <ele>218.6</ele>
        <time>2017-12-21T13:59:18Z</time>
      </trkpt>
      <trkpt lat="47.33389" lon="6.01417">
        <ele>218.6</ele>
        <time>2017-12-21T13:59:19Z</time>
      </trkpt>
      <trkpt lat="47.33395" lon="6.01422">
        <ele>218.6</ele>
        <time>2017-12-21T13:59:20Z</time>
      </trkpt>
      <trkpt lat="47.334" lon="6.01426">
        <ele>218.6</ele>
        <time>2017-12-21T13:59:21Z</time>
      </trkpt>
      <trkpt lat="47.33406" lon="6.01431">
        <ele>218.6</ele>
        <time>2017-12-21T13:59:22Z</time>
      </trkpt>
      <trkpt lat="47.33411" lon="6.01436">
        <ele>218.6</ele>
        <time>2017-12-21T13:59:23Z</time>
      </trkpt>
      <trkpt lat="47.33416" lon="6.01441">
        <ele>218.6</ele>
        <time>2017-12-21T13:59:24Z</time>
      </trkpt>
      <trkpt lat="47.33422" lon="6.01446">
        <ele>218.6</ele>
        <time>2017-12-21T13:59:25Z</time>
      </trkpt>
      <trkpt lat="47.33427" lon="6.01451">
        <ele>218.6</ele>
        <time>2017-12-21T13:59:26Z</time>
      </trkpt>
      <trkpt lat="47.33433" lon="6.01456">
        <ele>218.6</ele>
        <time>2017-12-21T13:59:27Z</time>
      </trkpt>
      <trkpt lat="47.33439" lon="6.01461">
        <ele>218.6</ele>
        <time>2017-12-21T13:59:28Z</time>
      </trkpt>
      <trkpt lat="47.33445" lon="6.01466">
        <ele>218.6</ele>
        <time>2017-12-21T13:59:29Z</time>
      </trkpt>
      <trkpt lat="47.33451" lon="6.01472">
        <ele>218.6</ele>
        <time>2017-12-21T13:59:30Z</time>
      </trkpt>
      <trkpt lat="47.33456" lon="6.01477">
        <ele>218.6</ele>
        <time>2017-12-21T13:59:31Z</time>
      </trkpt>
      <trkpt lat="47.33461" lon="6.01482">
        <ele>218.6</ele>
        <time>2017-12-21T13:59:32Z</time>
      </trkpt>
      <trkpt lat="47.33467" lon="6.01487">
        <ele>218.6</ele>
        <time>2017-12-21T13:59:33Z</time>
      </trkpt>
      <trkpt lat="47.33472" lon="6.01492">
        <ele>218.6</ele>
        <time>2017-12-21T13:59:34Z</time>
      </trkpt>
      <trkpt lat="47.33478" lon="6.01498">
        <ele>218.6</ele>
        <time>2017-12-21T13:59:35Z</time>
      </trkpt>
      <trkpt lat="47.33485" lon="6.01503">
        <ele>218.6</ele>
        <time>2017-12-21T13:59:36Z</time>
      </trkpt>
      <trkpt lat="47.33491" lon="6.01509">
        <ele>218.6</ele>
        <time>2017-12-21T13:59:37Z</time>
      </trkpt>
      <trkpt lat="47.33498" lon="6.01514">
        <ele>218.6</ele>
        <time>2017-12-21T13:59:38Z</time>
      </trkpt>
      <trkpt lat="47.33504" lon="6.01519">
        <ele>218.6</ele>
        <time>2017-12-21T13:59:39Z</time>
      </trkpt>
      <trkpt lat="47.3351" lon="6.01525">
        <ele>218.6</ele>
        <time>2017-12-21T13:59:40Z</time>
      </trkpt>
      <trkpt lat="47.33517" lon="6.0153">
        <ele>218.6</ele>
        <time>2017-12-21T13:59:41Z</time>
      </trkpt>
      <trkpt lat="47.33524" lon="6.01536">
        <ele>218.6</ele>
        <time>2017-12-21T13:59:42Z</time>
      </trkpt>
      <trkpt lat="47.3353" lon="6.01542">
        <ele>218.6</ele>
        <time>2017-12-21T13:59:43Z</time>
      </trkpt>
      <trkpt lat="47.33537" lon="6.01548">
        <ele>218.6</ele>
        <time>2017-12-21T13:59:44Z</time>
      </trkpt>
      <trkpt lat="47.33543" lon="6.01553">
        <ele>218.6</ele>
        <time>2017-12-21T13:59:45Z</time>
      </trkpt>
      <trkpt lat="47.33549" lon="6.01559">
        <ele>218.6</ele>
        <time>2017-12-21T13:59:46Z</time>
      </trkpt>
      <trkpt lat="47.33555" lon="6.01564">
        <ele>218.6</ele>
        <time>2017-12-21T13:59:47Z</time>
      </trkpt>
      <trkpt lat="47.33561" lon="6.0157">
        <ele>218.6</ele>
        <time>2017-12-21T13:59:48Z</time>
      </trkpt>
      <trkpt lat="47.33568" lon="6.01576">
        <ele>218.6</ele>
        <time>2017-12-21T13:59:49Z</time>
      </trkpt>
      <trkpt lat="47.33574" lon="6.01581">
        <ele>218.6</ele>
        <time>2017-12-21T13:59:50Z</time>
      </trkpt>
      <trkpt lat="47.3358" lon="6.01586">
        <ele>218.6</ele>
        <time>2017-12-21T13:59:51Z</time>
      </trkpt>
      <trkpt lat="47.33587" lon="6.01592">
        <ele>218.6</ele>
        <time>2017-12-21T13:59:52Z</time>
      </trkpt>
      <trkpt lat="47.33594" lon="6.01598">
        <ele>218.6</ele>
        <time>2017-12-21T13:59:53Z</time>
      </trkpt>
      <trkpt lat="47.336" lon="6.01603">
        <ele>218.6</ele>
        <time>2017-12-21T13:59:54Z</time>
      </trkpt>
      <trkpt lat="47.33607" lon="6.01609">
        <ele>218.6</ele>
        <time>2017-12-21T13:59:55Z</time>
      </trkpt>
      <trkpt lat="47.33614" lon="6.01615">
        <ele>218.6</ele>
        <time>2017-12-21T13:59:56Z</time>
      </trkpt>
      <trkpt lat="47.3362" lon="6.01621">
        <ele>218.6</ele>
        <time>2017-12-21T13:59:57Z</time>
      </trkpt>
      <trkpt lat="47.33627" lon="6.01627">
        <ele>218.6</ele>
        <time>2017-12-21T13:59:58Z</time>
      </trkpt>
      <trkpt lat="47.33634" lon="6.01634">
        <ele>218.6</ele>
        <time>2017-12-21T13:59:59Z</time>
      </trkpt>
      <trkpt lat="47.33642" lon="6.0164">
        <ele>218.6</ele>
        <time>2017-12-21T14:00:00Z</time>
      </trkpt>
      <trkpt lat="47.33649" lon="6.01646">
        <ele>218.6</ele>
        <time>2017-12-21T14:00:01Z</time>
      </trkpt>
      <trkpt lat="47.33655" lon="6.01652">
        <ele>218.6</ele>
        <time>2017-12-21T14:00:02Z</time>
      </trkpt>
      <trkpt lat="47.33662" lon="6.01658">
        <ele>218.6</ele>
        <time>2017-12-21T14:00:03Z</time>
      </trkpt>
      <trkpt lat="47.33669" lon="6.01664">
        <ele>218.6</ele>
        <time>2017-12-21T14:00:04Z</time>
      </trkpt>
      <trkpt lat="47.33675" lon="6.01669">
        <ele>218.6</ele>
        <time>2017-12-21T14:00:05Z</time>
      </trkpt>
      <trkpt lat="47.33682" lon="6.01675">
        <ele>218.6</ele>
        <time>2017-12-21T14:00:06Z</time>
      </trkpt>
      <trkpt lat="47.33688" lon="6.0168">
        <ele>218.6</ele>
        <time>2017-12-21T14:00:07Z</time>
      </trkpt>
      <trkpt lat="47.33695" lon="6.01685">
        <ele>218.6</ele>
        <time>2017-12-21T14:00:08Z</time>
      </trkpt>
      <trkpt lat="47.33701" lon="6.01688">
        <ele>218.6</ele>
        <time>2017-12-21T14:00:09Z</time>
      </trkpt>
      <trkpt lat="47.33708" lon="6.01691">
        <ele>218.6</ele>
        <time>2017-12-21T14:00:10Z</time>
      </trkpt>
      <trkpt lat="47.33715" lon="6.01692">
        <ele>218.6</ele>
        <time>2017-12-21T14:00:11Z</time>
      </trkpt>
      <trkpt lat="47.33722" lon="6.01693">
        <ele>218.6</ele>
        <time>2017-12-21T14:00:12Z</time>
      </trkpt>
      <trkpt lat="47.33729" lon="6.01694">
        <ele>218.6</ele>
        <time>2017-12-21T14:00:13Z</time>
      </trkpt>
      <trkpt lat="47.33736" lon="6.01695">
        <ele>218.6</ele>
        <time>2017-12-21T14:00:14Z</time>
      </trkpt>
      <trkpt lat="47.33743" lon="6.01696">
        <ele>218.6</ele>
        <time>2017-12-21T14:00:15Z</time>
      </trkpt>
      <trkpt lat="47.33749" lon="6.01696">
        <ele>218.6</ele>
        <time>2017-12-21T14:00:16Z</time>
      </trkpt>
      <trkpt lat="47.33756" lon="6.01696">
        <ele>218.6</ele>
        <time>2017-12-21T14:00:17Z</time>
      </trkpt>
      <trkpt lat="47.33763" lon="6.01697">
        <ele>218.6</ele>
        <time>2017-12-21T14:00:18Z</time>
      </trkpt>
      <trkpt lat="47.33769" lon="6.01697">
        <ele>218.6</ele>
        <time>2017-12-21T14:00:19Z</time>
      </trkpt>
      <trkpt lat="47.33776" lon="6.01697">
        <ele>218.6</ele>
        <time>2017-12-21T14:00:20Z</time>
      </trkpt>
      <trkpt lat="47.33783" lon="6.01698">
        <ele>218.6</ele>
        <time>2017-12-21T14:00:21Z</time>
      </trkpt>
      <trkpt lat="47.3379" lon="6.01698">
        <ele>218.6</ele>
        <time>2017-12-21T14:00:22Z</time>
      </trkpt>
      <trkpt lat="47.33798" lon="6.01699">
        <ele>218.6</ele>
        <time>2017-12-21T14:00:23Z</time>
      </trkpt>
      <trkpt lat="47.33806" lon="6.01701">
        <ele>218.6</ele>
        <time>2017-12-21T14:00:24Z</time>
      </trkpt>
      <trkpt lat="47.33813" lon="6.01705">
        <ele>218.6</ele>
        <time>2017-12-21T14:00:25Z</time>
      </trkpt>
      <trkpt lat="47.33821" lon="6.01709">
        <ele>218.6</ele>
        <time>2017-12-21T14:00:26Z</time>
      </trkpt>
      <trkpt lat="47.33829" lon="6.01714">
        <ele>218.6</ele>
        <time>2017-12-21T14:00:27Z</time>
      </trkpt>
      <trkpt lat="47.33836" lon="6.0172">
        <ele>218.6</ele>
        <time>2017-12-21T14:00:28Z</time>
      </trkpt>
      <trkpt lat="47.33843" lon="6.01727">
        <ele>218.6</ele>
        <time>2017-12-21T14:00:29Z</time>
      </trkpt>
      <trkpt lat="47.33849" lon="6.01735">
        <ele>218.6</ele>
        <time>2017-12-21T14:00:30Z</time>
      </trkpt>
      <trkpt lat="47.33855" lon="6.01742">
        <ele>218.6</ele>
        <time>2017-12-21T14:00:31Z</time>
      </trkpt>
      <trkpt lat="47.33861" lon="6.01748">
        <ele>218.6</ele>
        <time>2017-12-21T14:00:32Z</time>
      </trkpt>
      <trkpt lat="47.33868" lon="6.01752">
        <ele>218.6</ele>
        <time>2017-12-21T14:00:33Z</time>
      </trkpt>
      <trkpt lat="47.33875" lon="6.01756">
        <ele>218.6</ele>
        <time>2017-12-21T14:00:34Z</time>
      </trkpt>
      <trkpt lat="47.33881" lon="6.0176">
        <ele>218.6</ele>
        <time>2017-12-21T14:00:35Z</time>
      </trkpt>
      <trkpt lat="47.33887" lon="6.01766">
        <ele>218.6</ele>
        <time>2017-12-21T14:00:36Z</time>
      </trkpt>
      <trkpt lat="47.33892" lon="6.01772">
        <ele>218.6</ele>
        <time>2017-12-21T14:00:37Z</time>
      </trkpt>
      <trkpt lat="47.33897" lon="6.01778">
        <ele>218.6</ele>
        <time>2017-12-21T14:00:38Z</time>
      </trkpt>
      <trkpt lat="47.33902" lon="6.01785">
        <ele>218.6</ele>
        <time>2017-12-21T14:00:39Z</time>
      </trkpt>
      <trkpt lat="47.33906" lon="6.01791">
        <ele>218.6</ele>
        <time>2017-12-21T14:00:40Z</time>
      </trkpt>
      <trkpt lat="47.33911" lon="6.01798">
        <ele>218.6</ele>
        <time>2017-12-21T14:00:41Z</time>
      </trkpt>
      <trkpt lat="47.33915" lon="6.01804">
        <ele>218.6</ele>
        <time>2017-12-21T14:00:42Z</time>
      </trkpt>
      <trkpt lat="47.33919" lon="6.0181">
        <ele>218.6</ele>
        <time>2017-12-21T14:00:43Z</time>
      </trkpt>
      <trkpt lat="47.33924" lon="6.01816">
        <ele>218.6</ele>
        <time>2017-12-21T14:00:44Z</time>
      </trkpt>
      <trkpt lat="47.33928" lon="6.01822">
        <ele>219</ele>
        <time>2017-12-21T14:00:45Z</time>
      </trkpt>
      <trkpt lat="47.33933" lon="6.01827">
        <ele>219.4</ele>
        <time>2017-12-21T14:00:46Z</time>
      </trkpt>
      <trkpt lat="47.33938" lon="6.01833">
        <ele>219.8</ele>
        <time>2017-12-21T14:00:47Z</time>
      </trkpt>
      <trkpt lat="47.33942" lon="6.01839">
        <ele>220.2</ele>
        <time>2017-12-21T14:00:48Z</time>
      </trkpt>
      <trkpt lat="47.33947" lon="6.01844">
        <ele>220.8</ele>
        <time>2017-12-21T14:00:49Z</time>
      </trkpt>
      <trkpt lat="47.33951" lon="6.0185">
        <ele>220.8</ele>
        <time>2017-12-21T14:00:50Z</time>
      </trkpt>
      <trkpt lat="47.33956" lon="6.01856">
        <ele>220.8</ele>
        <time>2017-12-21T14:00:51Z</time>
      </trkpt>
      <trkpt lat="47.33961" lon="6.01861">
        <ele>220.8</ele>
        <time>2017-12-21T14:00:52Z</time>
      </trkpt>
      <trkpt lat="47.33966" lon="6.01867">
        <ele>220.8</ele>
        <time>2017-12-21T14:00:53Z</time>
      </trkpt>
      <trkpt lat="47.3397" lon="6.01873">
        <ele>220.8</ele>
        <time>2017-12-21T14:00:54Z</time>
      </trkpt>
      <trkpt lat="47.33975" lon="6.0188">
        <ele>220.8</ele>
        <time>2017-12-21T14:00:55Z</time>
      </trkpt>
      <trkpt lat="47.33979" lon="6.01885">
        <ele>220.8</ele>
        <time>2017-12-21T14:00:56Z</time>
      </trkpt>
      <trkpt lat="47.33984" lon="6.01891">
        <ele>220.8</ele>
        <time>2017-12-21T14:00:57Z</time>
      </trkpt>
      <trkpt lat="47.33988" lon="6.01897">
        <ele>220.8</ele>
        <time>2017-12-21T14:00:58Z</time>
      </trkpt>
      <trkpt lat="47.33992" lon="6.01903">
        <ele>220.8</ele>
        <time>2017-12-21T14:00:59Z</time>
      </trkpt>
      <trkpt lat="47.33996" lon="6.01908">
        <ele>220.8</ele>
        <time>2017-12-21T14:01:00Z</time>
      </trkpt>
      <trkpt lat="47.34" lon="6.01915">
        <ele>220.8</ele>
        <time>2017-12-21T14:01:01Z</time>
      </trkpt>
      <trkpt lat="47.34004" lon="6.0192">
        <ele>220.8</ele>
        <time>2017-12-21T14:01:02Z</time>
      </trkpt>
      <trkpt lat="47.34007" lon="6.01924">
        <ele>220.8</ele>
        <time>2017-12-21T14:01:03Z</time>
      </trkpt>
      <trkpt lat="47.34011" lon="6.01927">
        <ele>220.8</ele>
        <time>2017-12-21T14:01:04Z</time>
      </trkpt>
      <trkpt lat="47.34016" lon="6.01925">
        <ele>221.2</ele>
        <time>2017-12-21T14:01:05Z</time>
      </trkpt>
      <trkpt lat="47.3402" lon="6.0192">
        <ele>221.6</ele>
        <time>2017-12-21T14:01:06Z</time>
      </trkpt>
      <trkpt lat="47.34023" lon="6.01914">
        <ele>222</ele>
        <time>2017-12-21T14:01:07Z</time>
      </trkpt>
      <trkpt lat="47.34026" lon="6.01908">
        <ele>222.8</ele>
        <time>2017-12-21T14:01:08Z</time>
      </trkpt>
      <trkpt lat="47.34029" lon="6.01903">
        <ele>222.8</ele>
        <time>2017-12-21T14:01:09Z</time>
      </trkpt>
      <trkpt lat="47.34032" lon="6.01898">
        <ele>222.8</ele>
        <time>2017-12-21T14:01:10Z</time>
      </trkpt>
      <trkpt lat="47.34034" lon="6.01894">
        <ele>222.8</ele>
        <time>2017-12-21T14:01:11Z</time>
      </trkpt>
      <trkpt lat="47.34037" lon="6.01889">
        <ele>222.8</ele>
        <time>2017-12-21T14:01:12Z</time>
      </trkpt>
      <trkpt lat="47.3404" lon="6.01884">
        <ele>222.8</ele>
        <time>2017-12-21T14:01:13Z</time>
      </trkpt>
      <trkpt lat="47.34043" lon="6.01879">
        <ele>222.8</ele>
        <time>2017-12-21T14:01:14Z</time>
      </trkpt>
      <trkpt lat="47.34046" lon="6.01874">
        <ele>222.8</ele>
        <time>2017-12-21T14:01:15Z</time>
      </trkpt>
      <trkpt lat="47.34048" lon="6.01869">
        <ele>222.8</ele>
        <time>2017-12-21T14:01:16Z</time>
      </trkpt>
      <trkpt lat="47.34051" lon="6.01865">
        <ele>222.8</ele>
        <time>2017-12-21T14:01:17Z</time>
      </trkpt>
      <trkpt lat="47.34054" lon="6.0186">
        <ele>222.8</ele>
        <time>2017-12-21T14:01:18Z</time>
      </trkpt>
      <trkpt lat="47.34056" lon="6.01856">
        <ele>222.8</ele>
        <time>2017-12-21T14:01:19Z</time>
      </trkpt>
      <trkpt lat="47.34058" lon="6.01852">
        <ele>222.8</ele>
        <time>2017-12-21T14:01:20Z</time>
      </trkpt>
      <trkpt lat="47.34061" lon="6.01847">
        <ele>222.8</ele>
        <time>2017-12-21T14:01:21Z</time>
      </trkpt>
      <trkpt lat="47.34063" lon="6.01842">
        <ele>222.8</ele>
        <time>2017-12-21T14:01:22Z</time>
      </trkpt>
      <trkpt lat="47.34065" lon="6.01837">
        <ele>222.8</ele>
        <time>2017-12-21T14:01:23Z</time>
      </trkpt>
      <trkpt lat="47.34067" lon="6.01832">
        <ele>222.8</ele>
        <time>2017-12-21T14:01:24Z</time>
      </trkpt>
      <trkpt lat="47.3407" lon="6.01827">
        <ele>222.8</ele>
        <time>2017-12-21T14:01:25Z</time>
      </trkpt>
      <trkpt lat="47.34072" lon="6.01821">
        <ele>222.8</ele>
        <time>2017-12-21T14:01:26Z</time>
      </trkpt>
      <trkpt lat="47.34074" lon="6.01815">
        <ele>222.8</ele>
        <time>2017-12-21T14:01:27Z</time>
      </trkpt>
      <trkpt lat="47.34076" lon="6.0181">
        <ele>222.8</ele>
        <time>2017-12-21T14:01:28Z</time>
      </trkpt>
      <trkpt lat="47.34078" lon="6.01804">
        <ele>222.8</ele>
        <time>2017-12-21T14:01:29Z</time>
      </trkpt>
      <trkpt lat="47.34081" lon="6.01798">
        <ele>222.8</ele>
        <time>2017-12-21T14:01:30Z</time>
      </trkpt>
      <trkpt lat="47.34083" lon="6.01792">
        <ele>222.8</ele>
        <time>2017-12-21T14:01:31Z</time>
      </trkpt>
      <trkpt lat="47.34086" lon="6.01785">
        <ele>222.8</ele>
        <time>2017-12-21T14:01:32Z</time>
      </trkpt>
      <trkpt lat="47.34088" lon="6.01779">
        <ele>222.8</ele>
        <time>2017-12-21T14:01:33Z</time>
      </trkpt>
      <trkpt lat="47.3409" lon="6.01774">
        <ele>222.8</ele>
        <time>2017-12-21T14:01:34Z</time>
      </trkpt>
      <trkpt lat="47.34092" lon="6.01768">
        <ele>222.8</ele>
        <time>2017-12-21T14:01:35Z</time>
      </trkpt>
      <trkpt lat="47.34095" lon="6.01764">
        <ele>222.8</ele>
        <time>2017-12-21T14:01:36Z</time>
      </trkpt>
      <trkpt lat="47.34097" lon="6.01758">
        <ele>222.8</ele>
        <time>2017-12-21T14:01:37Z</time>
      </trkpt>
      <trkpt lat="47.34099" lon="6.01752">
        <ele>222.8</ele>
        <time>2017-12-21T14:01:38Z</time>
      </trkpt>
      <trkpt lat="47.34101" lon="6.01747">
        <ele>222.8</ele>
        <time>2017-12-21T14:01:39Z</time>
      </trkpt>
      <trkpt lat="47.34102" lon="6.01741">
        <ele>222.8</ele>
        <time>2017-12-21T14:01:40Z</time>
      </trkpt>
      <trkpt lat="47.34104" lon="6.01735">
        <ele>222.8</ele>
        <time>2017-12-21T14:01:41Z</time>
      </trkpt>
      <trkpt lat="47.34105" lon="6.01728">
        <ele>222.8</ele>
        <time>2017-12-21T14:01:42Z</time>
      </trkpt>
      <trkpt lat="47.34106" lon="6.0172">
        <ele>222.8</ele>
        <time>2017-12-21T14:01:43Z</time>
      </trkpt>
      <trkpt lat="47.34107" lon="6.01713">
        <ele>222.8</ele>
        <time>2017-12-21T14:01:44Z</time>
      </trkpt>
      <trkpt lat="47.34108" lon="6.01705">
        <ele>222.8</ele>
        <time>2017-12-21T14:01:45Z</time>
      </trkpt>
      <trkpt lat="47.34109" lon="6.01697">
        <ele>222.8</ele>
        <time>2017-12-21T14:01:46Z</time>
      </trkpt>
      <trkpt lat="47.3411" lon="6.01689">
        <ele>222.8</ele>
        <time>2017-12-21T14:01:47Z</time>
      </trkpt>
      <trkpt lat="47.34111" lon="6.01681">
        <ele>222.8</ele>
        <time>2017-12-21T14:01:48Z</time>
      </trkpt>
      <trkpt lat="47.34112" lon="6.01673">
        <ele>222.8</ele>
        <time>2017-12-21T14:01:49Z</time>
      </trkpt>
      <trkpt lat="47.34112" lon="6.01665">
        <ele>222.8</ele>
        <time>2017-12-21T14:01:50Z</time>
      </trkpt>
      <trkpt lat="47.34113" lon="6.01656">
        <ele>222.8</ele>
        <time>2017-12-21T14:01:51Z</time>
      </trkpt>
      <trkpt lat="47.34114" lon="6.01647">
        <ele>222.8</ele>
        <time>2017-12-21T14:01:52Z</time>
      </trkpt>
      <trkpt lat="47.34114" lon="6.01638">
        <ele>222.8</ele>
        <time>2017-12-21T14:01:53Z</time>
      </trkpt>
      <trkpt lat="47.34115" lon="6.01629">
        <ele>222.8</ele>
        <time>2017-12-21T14:01:54Z</time>
      </trkpt>
      <trkpt lat="47.34116" lon="6.01621">
        <ele>222.8</ele>
        <time>2017-12-21T14:01:55Z</time>
      </trkpt>
      <trkpt lat="47.34119" lon="6.01614">
        <ele>222.8</ele>
        <time>2017-12-21T14:01:56Z</time>
      </trkpt>
      <trkpt lat="47.34122" lon="6.01606">
        <ele>222.8</ele>
        <time>2017-12-21T14:01:57Z</time>
      </trkpt>
      <trkpt lat="47.34125" lon="6.01599">
        <ele>222.8</ele>
        <time>2017-12-21T14:01:58Z</time>
      </trkpt>
      <trkpt lat="47.3413" lon="6.01592">
        <ele>222.8</ele>
        <time>2017-12-21T14:01:59Z</time>
      </trkpt>
      <trkpt lat="47.34135" lon="6.01587">
        <ele>222.8</ele>
        <time>2017-12-21T14:02:00Z</time>
      </trkpt>
      <trkpt lat="47.3414" lon="6.0158">
        <ele>222.8</ele>
        <time>2017-12-21T14:02:01Z</time>
      </trkpt>
      <trkpt lat="47.34145" lon="6.01574">
        <ele>222.8</ele>
        <time>2017-12-21T14:02:02Z</time>
      </trkpt>
      <trkpt lat="47.34149" lon="6.01569">
        <ele>222.8</ele>
        <time>2017-12-21T14:02:03Z</time>
      </trkpt>
      <trkpt lat="47.34154" lon="6.01563">
        <ele>222.8</ele>
        <time>2017-12-21T14:02:04Z</time>
      </trkpt>
      <trkpt lat="47.34158" lon="6.01557">
        <ele>222.8</ele>
        <time>2017-12-21T14:02:05Z</time>
      </trkpt>
      <trkpt lat="47.34163" lon="6.01552">
        <ele>222.8</ele>
        <time>2017-12-21T14:02:06Z</time>
      </trkpt>
      <trkpt lat="47.34167" lon="6.01546">
        <ele>222.8</ele>
        <time>2017-12-21T14:02:07Z</time>
      </trkpt>
      <trkpt lat="47.34171" lon="6.0154">
        <ele>222.8</ele>
        <time>2017-12-21T14:02:08Z</time>
      </trkpt>
      <trkpt lat="47.34175" lon="6.01534">
        <ele>222.8</ele>
        <time>2017-12-21T14:02:09Z</time>
      </trkpt>
      <trkpt lat="47.34179" lon="6.01528">
        <ele>222.8</ele>
        <time>2017-12-21T14:02:10Z</time>
      </trkpt>
      <trkpt lat="47.34182" lon="6.01523">
        <ele>222.8</ele>
        <time>2017-12-21T14:02:11Z</time>
      </trkpt>
      <trkpt lat="47.34186" lon="6.01518">
        <ele>222.8</ele>
        <time>2017-12-21T14:02:12Z</time>
      </trkpt>
      <trkpt lat="47.3419" lon="6.01515">
        <ele>222.8</ele>
        <time>2017-12-21T14:02:13Z</time>
      </trkpt>
      <trkpt lat="47.34195" lon="6.01515">
        <ele>222.8</ele>
        <time>2017-12-21T14:02:14Z</time>
      </trkpt>
      <trkpt lat="47.34199" lon="6.01518">
        <ele>222.8</ele>
        <time>2017-12-21T14:02:15Z</time>
      </trkpt>
      <trkpt lat="47.34203" lon="6.01523">
        <ele>222.8</ele>
        <time>2017-12-21T14:02:16Z</time>
      </trkpt>
      <trkpt lat="47.34206" lon="6.01529">
        <ele>222.8</ele>
        <time>2017-12-21T14:02:17Z</time>
      </trkpt>
      <trkpt lat="47.34209" lon="6.01535">
        <ele>222.8</ele>
        <time>2017-12-21T14:02:18Z</time>
      </trkpt>
      <trkpt lat="47.34211" lon="6.01541">
        <ele>222.8</ele>
        <time>2017-12-21T14:02:19Z</time>
      </trkpt>
      <trkpt lat="47.34214" lon="6.01547">
        <ele>222.8</ele>
        <time>2017-12-21T14:02:20Z</time>
      </trkpt>
      <trkpt lat="47.34217" lon="6.01553">
        <ele>222.8</ele>
        <time>2017-12-21T14:02:21Z</time>
      </trkpt>
      <trkpt lat="47.34221" lon="6.01559">
        <ele>222.8</ele>
        <time>2017-12-21T14:02:22Z</time>
      </trkpt>
      <trkpt lat="47.34223" lon="6.01565">
        <ele>222.8</ele>
        <time>2017-12-21T14:02:23Z</time>
      </trkpt>
      <trkpt lat="47.34227" lon="6.01571">
        <ele>222.8</ele>
        <time>2017-12-21T14:02:24Z</time>
      </trkpt>
      <trkpt lat="47.3423" lon="6.01575">
        <ele>222.8</ele>
        <time>2017-12-21T14:02:25Z</time>
      </trkpt>
      <trkpt lat="47.34234" lon="6.01577">
        <ele>222.8</ele>
        <time>2017-12-21T14:02:26Z</time>
      </trkpt>
      <trkpt lat="47.34238" lon="6.01577">
        <ele>222.8</ele>
        <time>2017-12-21T14:02:27Z</time>
      </trkpt>
      <trkpt lat="47.34242" lon="6.01575">
        <ele>222.8</ele>
        <time>2017-12-21T14:02:28Z</time>
      </trkpt>
      <trkpt lat="47.34246" lon="6.01572">
        <ele>222.8</ele>
        <time>2017-12-21T14:02:29Z</time>
      </trkpt>
      <trkpt lat="47.3425" lon="6.01569">
        <ele>222.8</ele>
        <time>2017-12-21T14:02:30Z</time>
      </trkpt>
      <trkpt lat="47.34254" lon="6.01566">
        <ele>222.8</ele>
        <time>2017-12-21T14:02:31Z</time>
      </trkpt>
      <trkpt lat="47.34257" lon="6.01563">
        <ele>222.8</ele>
        <time>2017-12-21T14:02:32Z</time>
      </trkpt>
      <trkpt lat="47.3426" lon="6.01561">
        <ele>222.8</ele>
        <time>2017-12-21T14:02:33Z</time>
      </trkpt>
      <trkpt lat="47.34262" lon="6.01559">
        <ele>222.8</ele>
        <time>2017-12-21T14:02:34Z</time>
      </trkpt>
      <trkpt lat="47.34265" lon="6.01558">
        <ele>222.8</ele>
        <time>2017-12-21T14:02:35Z</time>
      </trkpt>
      <trkpt lat="47.34268" lon="6.01558">
        <ele>222.8</ele>
        <time>2017-12-21T14:02:36Z</time>
      </trkpt>
      <trkpt lat="47.3427" lon="6.01559">
        <ele>222.8</ele>
        <time>2017-12-21T14:02:37Z</time>
      </trkpt>
      <trkpt lat="47.34272" lon="6.01561">
        <ele>222.8</ele>
        <time>2017-12-21T14:02:38Z</time>
      </trkpt>
      <trkpt lat="47.34273" lon="6.01563">
        <ele>222.8</ele>
        <time>2017-12-21T14:02:39Z</time>
      </trkpt>
      <trkpt lat="47.34274" lon="6.01567">
        <ele>222.8</ele>
        <time>2017-12-21T14:02:40Z</time>
      </trkpt>
      <trkpt lat="47.34274" lon="6.01571">
        <ele>222.8</ele>
        <time>2017-12-21T14:02:41Z</time>
      </trkpt>
      <trkpt lat="47.34274" lon="6.01576">
        <ele>222.8</ele>
        <time>2017-12-21T14:02:42Z</time>
      </trkpt>
      <trkpt lat="47.34272" lon="6.01579">
        <ele>222.8</ele>
        <time>2017-12-21T14:02:43Z</time>
      </trkpt>
      <trkpt lat="47.3427" lon="6.0158">
        <ele>222.8</ele>
        <time>2017-12-21T14:02:44Z</time>
      </trkpt>
      <trkpt lat="47.3427" lon="6.0158">
        <ele>222.8</ele>
        <time>2017-12-21T14:02:44Z</time>
      </trkpt>
      <trkpt lat="47.34269" lon="6.0158">
        <ele>222.8</ele>
        <time>2017-12-21T14:02:45Z</time>
      </trkpt>
      <trkpt lat="47.34269" lon="6.0158">
        <ele>222.8</ele>
        <time>2017-12-21T14:02:46Z</time>
      </trkpt>
    </trkseg>
  </trk>
</gpx>